<?xml version='1.0' encoding='UTF-8'?><gpx version="1.1" creator="JPX - https://github.com/jenetics/jpx" xmlns="http://www.topografix.com/GPX/1/1"><trk><trkseg><trkpt lat="44.63862308985185" lon="10.920054756241203"><ele>38.833333333333336</ele><time>2026-03-28T12:59:59Z</time></trkpt><trkpt lat="44.63854789659772" lon="10.920111530603933"><ele>38.666666666666664</ele><time>2026-03-28T13:02:51Z</time></trkpt><trkpt lat="44.63850526593437" lon="10.920194658485698"><ele>38.5</ele><time>2026-03-28T13:02:55Z</time></trkpt><trkpt lat="44.63846687378873" lon="10.920304602213331"><ele>38.33333333333333</ele><time>2026-03-28T13:03:13Z</time></trkpt><trkpt lat="44.638424286374104" lon="10.920401303291685"><ele>38.166666666666664</ele><time>2026-03-28T13:03:15Z</time></trkpt><trkpt lat="44.638407760057554" lon="10.920491197126013"><ele>38.0</ele><time>2026-03-28T13:03:17Z</time></trkpt><trkpt lat="44.63850281386107" lon="10.920598419656283"><ele>38.0</ele><time>2026-03-28T13:03:19Z</time></trkpt><trkpt lat="44.63857822622906" lon="10.920634007675533"><ele>38.0</ele><time>2026-03-28T13:03:20Z</time></trkpt><trkpt lat="44.638647765523395" lon="10.92070262279773"><ele>38.0</ele><time>2026-03-28T13:03:21Z</time></trkpt><trkpt lat="44.63872644694545" lon="10.920740544544072"><ele>38.0</ele><time>2026-03-28T13:03:22Z</time></trkpt><trkpt lat="44.63879288012344" lon="10.920795600476628"><ele>38.0</ele><time>2026-03-28T13:03:22.999Z</time></trkpt><trkpt lat="44.63885852922409" lon="10.920862957612274"><ele>38.0</ele><time>2026-03-28T13:03:23.999Z</time></trkpt><trkpt lat="44.63894204211589" lon="10.920922359629033"><ele>38.0</ele><time>2026-03-28T13:03:24.999Z</time></trkpt><trkpt lat="44.63901782469629" lon="10.920991873873943"><ele>38.0</ele><time>2026-03-28T13:03:25.999Z</time></trkpt><trkpt lat="44.639097895739624" lon="10.921066055550318"><ele>38.0</ele><time>2026-03-28T13:03:26.999Z</time></trkpt><trkpt lat="44.63917423377189" lon="10.92112089383551"><ele>38.0</ele><time>2026-03-28T13:03:27.999Z</time></trkpt><trkpt lat="44.63925180799471" lon="10.921190134874994"><ele>38.0</ele><time>2026-03-28T13:03:28.999Z</time></trkpt><trkpt lat="44.63931978034333" lon="10.921245648578774"><ele>38.0</ele><time>2026-03-28T13:03:29.999Z</time></trkpt><trkpt lat="44.63939614490586" lon="10.921304904412455"><ele>38.0</ele><time>2026-03-28T13:03:30.999Z</time></trkpt><trkpt lat="44.63947630198877" lon="10.921365654058683"><ele>38.0</ele><time>2026-03-28T13:03:31.999Z</time></trkpt><trkpt lat="44.63956585709779" lon="10.92143475080953"><ele>38.0</ele><time>2026-03-28T13:03:32.999Z</time></trkpt><trkpt lat="44.6396587550956" lon="10.921499113987103"><ele>38.0</ele><time>2026-03-28T13:03:33.999Z</time></trkpt><trkpt lat="44.63973961598731" lon="10.92156688728351"><ele>38.0</ele><time>2026-03-28T13:03:34.999Z</time></trkpt><trkpt lat="44.639826391084" lon="10.921634918873906"><ele>38.0</ele><time>2026-03-28T13:03:35.999Z</time></trkpt><trkpt lat="44.639908477571524" lon="10.921702934294919"><ele>38.0</ele><time>2026-03-28T13:03:36.999Z</time></trkpt><trkpt lat="44.63998917146736" lon="10.921764648449418"><ele>38.0</ele><time>2026-03-28T13:03:37.999Z</time></trkpt><trkpt lat="44.64005963999344" lon="10.921825926749648"><ele>38.0</ele><time>2026-03-28T13:03:38.999Z</time></trkpt><trkpt lat="44.64011628948532" lon="10.921865560204505"><ele>38.0</ele><time>2026-03-28T13:03:39.999Z</time></trkpt><trkpt lat="44.64014813065687" lon="10.92194703646232"><ele>38.0</ele><time>2026-03-28T13:03:41.999Z</time></trkpt><trkpt lat="44.64009930278733" lon="10.922100969442958"><ele>38.0</ele><time>2026-03-28T13:03:43.999Z</time></trkpt><trkpt lat="44.6400777184229" lon="10.922224578489306"><ele>38.0</ele><time>2026-03-28T13:03:44.999Z</time></trkpt><trkpt lat="44.64004109972721" lon="10.922331505321543"><ele>38.0</ele><time>2026-03-28T13:03:45.999Z</time></trkpt><trkpt lat="44.64001466131201" lon="10.922420283643048"><ele>38.0</ele><time>2026-03-28T13:03:46.999Z</time></trkpt><trkpt lat="44.639989927034414" lon="10.92252734677107"><ele>38.0</ele><time>2026-03-28T13:03:48.999Z</time></trkpt><trkpt lat="44.63997673168295" lon="10.922634131749659"><ele>38.0</ele><time>2026-03-28T13:04:39Z</time></trkpt><trkpt lat="44.639942816571995" lon="10.922757356105965"><ele>38.25</ele><time>2026-03-28T13:04:40Z</time></trkpt><trkpt lat="44.63989532338989" lon="10.92290983015784"><ele>38.5</ele><time>2026-03-28T13:04:41Z</time></trkpt><trkpt lat="44.63984823258806" lon="10.923107900003501"><ele>38.75</ele><time>2026-03-28T13:04:42Z</time></trkpt><trkpt lat="44.63978461659269" lon="10.92333844983243"><ele>39.0</ele><time>2026-03-28T13:04:43Z</time></trkpt><trkpt lat="44.63971036834723" lon="10.923605611680273"><ele>39.0</ele><time>2026-03-28T13:04:44Z</time></trkpt><trkpt lat="44.63963446252805" lon="10.92389612579212"><ele>39.0</ele><time>2026-03-28T13:04:45Z</time></trkpt><trkpt lat="44.639554556477776" lon="10.924187234176335"><ele>39.0</ele><time>2026-03-28T13:04:46Z</time></trkpt><trkpt lat="44.63947585693418" lon="10.92447388513608"><ele>39.0</ele><time>2026-03-28T13:04:47Z</time></trkpt><trkpt lat="44.63940359747606" lon="10.92474507434434"><ele>39.0</ele><time>2026-03-28T13:04:48Z</time></trkpt><trkpt lat="44.639341063254506" lon="10.924993697299469"><ele>39.0</ele><time>2026-03-28T13:04:49Z</time></trkpt><trkpt lat="44.639284934248764" lon="10.925238395659509"><ele>39.333333333333336</ele><time>2026-03-28T13:04:50Z</time></trkpt><trkpt lat="44.63924757591359" lon="10.92548250233483"><ele>39.66666666666667</ele><time>2026-03-28T13:04:51Z</time></trkpt><trkpt lat="44.63922163075633" lon="10.925728661219727"><ele>40.0</ele><time>2026-03-28T13:04:52Z</time></trkpt><trkpt lat="44.63922095351952" lon="10.925974799075453"><ele>40.0</ele><time>2026-03-28T13:04:53Z</time></trkpt><trkpt lat="44.639216728515" lon="10.926210449693807"><ele>40.0</ele><time>2026-03-28T13:04:54Z</time></trkpt><trkpt lat="44.63922174663636" lon="10.926433623629187"><ele>40.0</ele><time>2026-03-28T13:04:55Z</time></trkpt><trkpt lat="44.63921376794607" lon="10.926638418145913"><ele>39.75</ele><time>2026-03-28T13:04:56Z</time></trkpt><trkpt lat="44.63919230012928" lon="10.926828560887927"><ele>39.5</ele><time>2026-03-28T13:04:57Z</time></trkpt><trkpt lat="44.63912725211488" lon="10.926963831135645"><ele>39.25</ele><time>2026-03-28T13:04:58Z</time></trkpt><trkpt lat="44.63904616995784" lon="10.927145612306836"><ele>39.0</ele><time>2026-03-28T13:04:59Z</time></trkpt><trkpt lat="44.638963192575716" lon="10.92733700036015"><ele>39.0</ele><time>2026-03-28T13:05:00Z</time></trkpt><trkpt lat="44.63887853623865" lon="10.927537018603344"><ele>39.0</ele><time>2026-03-28T13:05:01Z</time></trkpt><trkpt lat="44.63878392234916" lon="10.927720412341154"><ele>39.0</ele><time>2026-03-28T13:05:02Z</time></trkpt><trkpt lat="44.63870704559984" lon="10.92792036730455"><ele>39.0</ele><time>2026-03-28T13:05:03Z</time></trkpt><trkpt lat="44.63862116556883" lon="10.928102691029538"><ele>39.0</ele><time>2026-03-28T13:05:04Z</time></trkpt><trkpt lat="44.63853006071717" lon="10.92829639892535"><ele>39.0</ele><time>2026-03-28T13:05:05Z</time></trkpt><trkpt lat="44.63843703542311" lon="10.928490391707095"><ele>39.666666666666664</ele><time>2026-03-28T13:05:06.001Z</time></trkpt><trkpt lat="44.6383497238661" lon="10.928684941221482"><ele>40.33333333333333</ele><time>2026-03-28T13:05:07.001Z</time></trkpt><trkpt lat="44.63826010754768" lon="10.928876668440203"><ele>41.0</ele><time>2026-03-28T13:05:08.001Z</time></trkpt><trkpt lat="44.63817219391158" lon="10.929071842421797"><ele>41.0</ele><time>2026-03-28T13:05:09.001Z</time></trkpt><trkpt lat="44.63809804160836" lon="10.929236506840256"><ele>41.0</ele><time>2026-03-28T13:05:10.001Z</time></trkpt><trkpt lat="44.63802710524173" lon="10.929394352640832"><ele>41.0</ele><time>2026-03-28T13:05:11.001Z</time></trkpt><trkpt lat="44.637967335732924" lon="10.92953624260064"><ele>41.0</ele><time>2026-03-28T13:05:12.001Z</time></trkpt><trkpt lat="44.63792403765399" lon="10.929659659447898"><ele>41.0</ele><time>2026-03-28T13:05:13.001Z</time></trkpt><trkpt lat="44.637904702364175" lon="10.929782026650502"><ele>41.0</ele><time>2026-03-28T13:05:14.001Z</time></trkpt><trkpt lat="44.637831651243815" lon="10.929874098724468"><ele>41.0</ele><time>2026-03-28T13:05:15.001Z</time></trkpt><trkpt lat="44.637705217933366" lon="10.929851203986715"><ele>41.0</ele><time>2026-03-28T13:05:16.001Z</time></trkpt><trkpt lat="44.63756330409956" lon="10.929895000144624"><ele>41.0</ele><time>2026-03-28T13:05:17.001Z</time></trkpt><trkpt lat="44.637410976142306" lon="10.929956577764033"><ele>41.0</ele><time>2026-03-28T13:05:18.001Z</time></trkpt><trkpt lat="44.63724896243103" lon="10.930020902204715"><ele>41.0</ele><time>2026-03-28T13:05:19.001Z</time></trkpt><trkpt lat="44.637072811639236" lon="10.930094192723699"><ele>40.0</ele><time>2026-03-28T13:05:20.001Z</time></trkpt><trkpt lat="44.63689647072722" lon="10.930154775337673"><ele>39.0</ele><time>2026-03-28T13:05:21.001Z</time></trkpt><trkpt lat="44.636738005089796" lon="10.930213997525998"><ele>38.0</ele><time>2026-03-28T13:05:22.001Z</time></trkpt><trkpt lat="44.63658131936973" lon="10.930262357939645"><ele>38.0</ele><time>2026-03-28T13:05:23.001Z</time></trkpt><trkpt lat="44.63643991625344" lon="10.930317912567727"><ele>38.0</ele><time>2026-03-28T13:05:24.001Z</time></trkpt><trkpt lat="44.63630197412446" lon="10.930368488547193"><ele>38.0</ele><time>2026-03-28T13:05:25.001Z</time></trkpt><trkpt lat="44.636166598230545" lon="10.930403727901389"><ele>38.0</ele><time>2026-03-28T13:05:26.001Z</time></trkpt><trkpt lat="44.63603787685052" lon="10.930450910425817"><ele>37.5</ele><time>2026-03-28T13:05:27.001Z</time></trkpt><trkpt lat="44.63591597242039" lon="10.930495817469545"><ele>37.0</ele><time>2026-03-28T13:05:28.001Z</time></trkpt><trkpt lat="44.635781857125686" lon="10.930544427909911"><ele>36.5</ele><time>2026-03-28T13:05:28.999Z</time></trkpt><trkpt lat="44.63563647203306" lon="10.93059677157713"><ele>36.0</ele><time>2026-03-28T13:05:29.999Z</time></trkpt><trkpt lat="44.63548844172253" lon="10.930650067619382"><ele>36.0</ele><time>2026-03-28T13:05:30.999Z</time></trkpt><trkpt lat="44.63536510557474" lon="10.930694580802546"><ele>36.0</ele><time>2026-03-28T13:05:31.999Z</time></trkpt><trkpt lat="44.63524150256399" lon="10.9306839143467"><ele>36.0</ele><time>2026-03-28T13:05:32.999Z</time></trkpt><trkpt lat="44.6351361881581" lon="10.930624127062178"><ele>36.0</ele><time>2026-03-28T13:05:33.999Z</time></trkpt><trkpt lat="44.63506446402133" lon="10.930528239374429"><ele>36.333333333333336</ele><time>2026-03-28T13:05:34.999Z</time></trkpt><trkpt lat="44.63502789660725" lon="10.93044043084167"><ele>36.666666666666664</ele><time>2026-03-28T13:05:35.999Z</time></trkpt><trkpt lat="44.634906903087256" lon="10.930419782203487"><ele>37.0</ele><time>2026-03-28T13:05:38.999Z</time></trkpt><trkpt lat="44.63489069815717" lon="10.930541284295767"><ele>37.33333333333333</ele><time>2026-03-28T13:05:42.999Z</time></trkpt><trkpt lat="44.63488623837844" lon="10.930636720659905"><ele>37.666666666666664</ele><time>2026-03-28T13:05:43.999Z</time></trkpt><trkpt lat="44.63490784414492" lon="10.930770059786857"><ele>38.0</ele><time>2026-03-28T13:05:44.999Z</time></trkpt><trkpt lat="44.63493019246467" lon="10.930906673626419"><ele>38.0</ele><time>2026-03-28T13:05:45.999Z</time></trkpt><trkpt lat="44.634951527860075" lon="10.931059303612601"><ele>38.0</ele><time>2026-03-28T13:05:46.999Z</time></trkpt><trkpt lat="44.63497934995233" lon="10.9312361648074"><ele>38.0</ele><time>2026-03-28T13:05:47.999Z</time></trkpt><trkpt lat="44.63501680111583" lon="10.931415756596028"><ele>38.0</ele><time>2026-03-28T13:05:48.999Z</time></trkpt><trkpt lat="44.63508479041597" lon="10.93157600125148"><ele>38.25</ele><time>2026-03-28T13:05:49.999Z</time></trkpt><trkpt lat="44.635115346799715" lon="10.931778340718276"><ele>38.5</ele><time>2026-03-28T13:05:50.999Z</time></trkpt><trkpt lat="44.63517984271655" lon="10.931953504556192"><ele>38.75</ele><time>2026-03-28T13:05:51.999Z</time></trkpt><trkpt lat="44.63525253055451" lon="10.932140772814648"><ele>39.0</ele><time>2026-03-28T13:05:52.999Z</time></trkpt><trkpt lat="44.635321471307364" lon="10.932341766906555"><ele>39.0</ele><time>2026-03-28T13:05:53.999Z</time></trkpt><trkpt lat="44.635393150836826" lon="10.932537688981414"><ele>39.0</ele><time>2026-03-28T13:05:54.999Z</time></trkpt><trkpt lat="44.63546158094887" lon="10.932729701915225"><ele>39.0</ele><time>2026-03-28T13:05:56Z</time></trkpt><trkpt lat="44.635533789024585" lon="10.932914712533192"><ele>38.75</ele><time>2026-03-28T13:05:57Z</time></trkpt><trkpt lat="44.63558661760307" lon="10.933108486796563"><ele>38.5</ele><time>2026-03-28T13:05:58Z</time></trkpt><trkpt lat="44.63564932971861" lon="10.933283573709437"><ele>38.25</ele><time>2026-03-28T13:05:59Z</time></trkpt><trkpt lat="44.635717119897386" lon="10.93344694335795"><ele>38.0</ele><time>2026-03-28T13:06:00Z</time></trkpt><trkpt lat="44.63577580392286" lon="10.933601121477556"><ele>37.666666666666664</ele><time>2026-03-28T13:06:01Z</time></trkpt><trkpt lat="44.635824371643245" lon="10.93373422696498"><ele>37.33333333333333</ele><time>2026-03-28T13:06:02Z</time></trkpt><trkpt lat="44.63584789275203" lon="10.933840190992612"><ele>37.0</ele><time>2026-03-28T13:06:03Z</time></trkpt><trkpt lat="44.6358722752401" lon="10.933921870040354"><ele>36.666666666666664</ele><time>2026-03-28T13:06:04Z</time></trkpt><trkpt lat="44.63589072044934" lon="10.9340510444472"><ele>36.333333333333336</ele><time>2026-03-28T13:06:06Z</time></trkpt><trkpt lat="44.635908623390726" lon="10.934146860350124"><ele>36.0</ele><time>2026-03-28T13:06:08Z</time></trkpt><trkpt lat="44.635810822277655" lon="10.934245514563976"><ele>36.0</ele><time>2026-03-28T13:06:09Z</time></trkpt><trkpt lat="44.63575393567752" lon="10.93437643528943"><ele>36.0</ele><time>2026-03-28T13:06:12Z</time></trkpt><trkpt lat="44.63570243986217" lon="10.934439309208463"><ele>36.0</ele><time>2026-03-28T13:06:13Z</time></trkpt><trkpt lat="44.63563908966599" lon="10.934505835528016"><ele>36.0</ele><time>2026-03-28T13:06:14Z</time></trkpt><trkpt lat="44.635555657355276" lon="10.934585906784372"><ele>36.0</ele><time>2026-03-28T13:06:15Z</time></trkpt><trkpt lat="44.63545752810416" lon="10.93468043871476"><ele>36.0</ele><time>2026-03-28T13:06:16Z</time></trkpt><trkpt lat="44.635335614869845" lon="10.9347829643686"><ele>36.0</ele><time>2026-03-28T13:06:17Z</time></trkpt><trkpt lat="44.63520757638042" lon="10.934908090173533"><ele>36.0</ele><time>2026-03-28T13:06:18Z</time></trkpt><trkpt lat="44.63507929072997" lon="10.935060455970927"><ele>36.333333333333336</ele><time>2026-03-28T13:06:19Z</time></trkpt><trkpt lat="44.63497002324256" lon="10.935237799933706"><ele>36.66666666666667</ele><time>2026-03-28T13:06:20Z</time></trkpt><trkpt lat="44.63487289162797" lon="10.935413127498556"><ele>37.0</ele><time>2026-03-28T13:06:21Z</time></trkpt><trkpt lat="44.6347723891015" lon="10.93558075363263"><ele>37.0</ele><time>2026-03-28T13:06:22Z</time></trkpt><trkpt lat="44.63467084555211" lon="10.935739735282665"><ele>37.0</ele><time>2026-03-28T13:06:23Z</time></trkpt><trkpt lat="44.63456904785376" lon="10.935899834618189"><ele>37.0</ele><time>2026-03-28T13:06:24Z</time></trkpt><trkpt lat="44.63446936096808" lon="10.93605995286714"><ele>38.0</ele><time>2026-03-28T13:06:25Z</time></trkpt><trkpt lat="44.634354034760435" lon="10.936220719813676"><ele>39.0</ele><time>2026-03-28T13:06:26Z</time></trkpt><trkpt lat="44.634203258959985" lon="10.93644144109847"><ele>40.0</ele><time>2026-03-28T13:06:27Z</time></trkpt><trkpt lat="44.63403958650524" lon="10.936714510954626"><ele>39.333333333333336</ele><time>2026-03-28T13:06:28Z</time></trkpt><trkpt lat="44.63388684413465" lon="10.936942879417387"><ele>38.666666666666664</ele><time>2026-03-28T13:06:29Z</time></trkpt><trkpt lat="44.63376382103703" lon="10.937157003544392"><ele>38.0</ele><time>2026-03-28T13:06:30Z</time></trkpt><trkpt lat="44.63364684950569" lon="10.937359391660621"><ele>37.666666666666664</ele><time>2026-03-28T13:06:31Z</time></trkpt><trkpt lat="44.63354383734305" lon="10.93754923189556"><ele>37.333333333333336</ele><time>2026-03-28T13:06:32Z</time></trkpt><trkpt lat="44.63346075826625" lon="10.93772344472635"><ele>37.0</ele><time>2026-03-28T13:06:33Z</time></trkpt><trkpt lat="44.633380429639004" lon="10.937882614182609"><ele>37.0</ele><time>2026-03-28T13:06:34Z</time></trkpt><trkpt lat="44.633309101767864" lon="10.938039369346011"><ele>37.0</ele><time>2026-03-28T13:06:35Z</time></trkpt><trkpt lat="44.633240878409616" lon="10.938184282305457"><ele>37.0</ele><time>2026-03-28T13:06:36Z</time></trkpt><trkpt lat="44.63317463044943" lon="10.938320751331469"><ele>37.0</ele><time>2026-03-28T13:06:37Z</time></trkpt><trkpt lat="44.63309747207742" lon="10.938435974632783"><ele>37.0</ele><time>2026-03-28T13:06:38Z</time></trkpt><trkpt lat="44.6330477969295" lon="10.938568699367638"><ele>37.0</ele><time>2026-03-28T13:06:39Z</time></trkpt><trkpt lat="44.632970222794576" lon="10.938680270711558"><ele>37.0</ele><time>2026-03-28T13:06:40Z</time></trkpt><trkpt lat="44.632913814974955" lon="10.93881210413386"><ele>37.0</ele><time>2026-03-28T13:06:41Z</time></trkpt><trkpt lat="44.63285151099078" lon="10.938941040348974"><ele>37.0</ele><time>2026-03-28T13:06:42.001Z</time></trkpt><trkpt lat="44.63278276238244" lon="10.939057024149575"><ele>37.2</ele><time>2026-03-28T13:06:43.001Z</time></trkpt><trkpt lat="44.63271449677957" lon="10.939175390507527"><ele>37.400000000000006</ele><time>2026-03-28T13:06:44.001Z</time></trkpt><trkpt lat="44.632650963591644" lon="10.939296811399792"><ele>37.599999999999994</ele><time>2026-03-28T13:06:45.001Z</time></trkpt><trkpt lat="44.63258963756528" lon="10.939408943393172"><ele>37.8</ele><time>2026-03-28T13:06:46.001Z</time></trkpt><trkpt lat="44.632507806111526" lon="10.939501377974322"><ele>38.0</ele><time>2026-03-28T13:06:47.001Z</time></trkpt><trkpt lat="44.632449985464184" lon="10.939627471346292"><ele>37.6</ele><time>2026-03-28T13:06:48.001Z</time></trkpt><trkpt lat="44.632366998420814" lon="10.939722537717222"><ele>37.199999999999996</ele><time>2026-03-28T13:06:49.001Z</time></trkpt><trkpt lat="44.632289456123985" lon="10.939835231140574"><ele>36.8</ele><time>2026-03-28T13:06:50.001Z</time></trkpt><trkpt lat="44.63220555830872" lon="10.93994365958704"><ele>36.4</ele><time>2026-03-28T13:06:51.001Z</time></trkpt><trkpt lat="44.632117911465464" lon="10.940048285058559"><ele>36.0</ele><time>2026-03-28T13:06:52.001Z</time></trkpt><trkpt lat="44.63203158925286" lon="10.940144281945695"><ele>35.6</ele><time>2026-03-28T13:06:53.001Z</time></trkpt><trkpt lat="44.63195354655736" lon="10.94024592127272"><ele>35.2</ele><time>2026-03-28T13:06:54.001Z</time></trkpt><trkpt lat="44.6318761817061" lon="10.940323177574957"><ele>34.8</ele><time>2026-03-28T13:06:55.001Z</time></trkpt><trkpt lat="44.63179759101962" lon="10.940399376576682"><ele>34.4</ele><time>2026-03-28T13:06:56.001Z</time></trkpt><trkpt lat="44.631715338017216" lon="10.940479462728904"><ele>34.0</ele><time>2026-03-28T13:06:57.001Z</time></trkpt><trkpt lat="44.63163354524685" lon="10.940565859184888"><ele>34.0</ele><time>2026-03-28T13:06:58.001Z</time></trkpt><trkpt lat="44.63155704770358" lon="10.940659317273942"><ele>34.0</ele><time>2026-03-28T13:06:59.001Z</time></trkpt><trkpt lat="44.631451344592676" lon="10.940699384733575"><ele>34.0</ele><time>2026-03-28T13:07:00.001Z</time></trkpt><trkpt lat="44.63137351340376" lon="10.940773289785016"><ele>34.0</ele><time>2026-03-28T13:07:01.001Z</time></trkpt><trkpt lat="44.631302281098755" lon="10.940840566799505"><ele>34.0</ele><time>2026-03-28T13:07:02.001Z</time></trkpt><trkpt lat="44.631235597503135" lon="10.940904140540427"><ele>34.333333333333336</ele><time>2026-03-28T13:07:03.001Z</time></trkpt><trkpt lat="44.631170289658606" lon="10.940966402580774"><ele>34.66666666666667</ele><time>2026-03-28T13:07:04.001Z</time></trkpt><trkpt lat="44.6311097730826" lon="10.941024859872867"><ele>35.0</ele><time>2026-03-28T13:07:05.001Z</time></trkpt><trkpt lat="44.63104503518269" lon="10.941087115869381"><ele>35.333333333333336</ele><time>2026-03-28T13:07:06.001Z</time></trkpt><trkpt lat="44.63097363972438" lon="10.941155774189511"><ele>35.666666666666664</ele><time>2026-03-28T13:07:07.001Z</time></trkpt><trkpt lat="44.630892596912595" lon="10.941233710007342"><ele>36.0</ele><time>2026-03-28T13:07:08.001Z</time></trkpt><trkpt lat="44.63080807159124" lon="10.941314889420562"><ele>36.0</ele><time>2026-03-28T13:07:09.001Z</time></trkpt><trkpt lat="44.63072316282858" lon="10.941396370582874"><ele>36.0</ele><time>2026-03-28T13:07:10.001Z</time></trkpt><trkpt lat="44.63063703998814" lon="10.941494677766869"><ele>36.0</ele><time>2026-03-28T13:07:11.001Z</time></trkpt><trkpt lat="44.63054199119886" lon="10.941579566378316"><ele>36.0</ele><time>2026-03-28T13:07:12.001Z</time></trkpt><trkpt lat="44.63044276933646" lon="10.94166353981936"><ele>36.0</ele><time>2026-03-28T13:07:13.001Z</time></trkpt><trkpt lat="44.63034520476084" lon="10.941755845032787"><ele>36.25</ele><time>2026-03-28T13:07:14.001Z</time></trkpt><trkpt lat="44.6302454748555" lon="10.941851766375517"><ele>36.5</ele><time>2026-03-28T13:07:15.001Z</time></trkpt><trkpt lat="44.630144643529874" lon="10.94195955858595"><ele>36.75</ele><time>2026-03-28T13:07:16.001Z</time></trkpt><trkpt lat="44.63004250231065" lon="10.942063338960535"><ele>37.0</ele><time>2026-03-28T13:07:17.001Z</time></trkpt><trkpt lat="44.629941150210556" lon="10.942167025157238"><ele>37.0</ele><time>2026-03-28T13:07:18.001Z</time></trkpt><trkpt lat="44.62984839069861" lon="10.942297281314683"><ele>37.0</ele><time>2026-03-28T13:07:19.001Z</time></trkpt><trkpt lat="44.62976296611578" lon="10.942432777900411"><ele>37.0</ele><time>2026-03-28T13:07:20.001Z</time></trkpt><trkpt lat="44.62969706456889" lon="10.942562776530833"><ele>37.0</ele><time>2026-03-28T13:07:21.001Z</time></trkpt><trkpt lat="44.62964473312149" lon="10.942685230765116"><ele>37.0</ele><time>2026-03-28T13:07:22.001Z</time></trkpt><trkpt lat="44.62959537473651" lon="10.942798598876628"><ele>37.0</ele><time>2026-03-28T13:07:23.001Z</time></trkpt><trkpt lat="44.62955699136325" lon="10.942900997253249"><ele>37.0</ele><time>2026-03-28T13:07:24.001Z</time></trkpt><trkpt lat="44.629521916052795" lon="10.942977810289747"><ele>37.0</ele><time>2026-03-28T13:07:25.001Z</time></trkpt><trkpt lat="44.62946641401025" lon="10.943121054673382"><ele>37.0</ele><time>2026-03-28T13:07:27.001Z</time></trkpt><trkpt lat="44.629412944932184" lon="10.943264797437521"><ele>36.5</ele><time>2026-03-28T13:07:29.001Z</time></trkpt><trkpt lat="44.62935664683703" lon="10.943421595260704"><ele>36.0</ele><time>2026-03-28T13:07:31.001Z</time></trkpt><trkpt lat="44.629325813550764" lon="10.943507302383527"><ele>35.5</ele><time>2026-03-28T13:07:32.001Z</time></trkpt><trkpt lat="44.629298055981174" lon="10.94359360454085"><ele>35.0</ele><time>2026-03-28T13:07:33.001Z</time></trkpt><trkpt lat="44.62926519619574" lon="10.943685000928069"><ele>34.5</ele><time>2026-03-28T13:07:34.001Z</time></trkpt><trkpt lat="44.62923115040573" lon="10.943777646116922"><ele>34.0</ele><time>2026-03-28T13:07:35Z</time></trkpt><trkpt lat="44.62919482688046" lon="10.94386770239443"><ele>34.0</ele><time>2026-03-28T13:07:36Z</time></trkpt><trkpt lat="44.62916318468704" lon="10.943955569974406"><ele>34.0</ele><time>2026-03-28T13:07:37Z</time></trkpt><trkpt lat="44.629129963143406" lon="10.944045668241525"><ele>34.0</ele><time>2026-03-28T13:07:38Z</time></trkpt><trkpt lat="44.62909764275498" lon="10.944135840538822"><ele>34.0</ele><time>2026-03-28T13:07:39Z</time></trkpt><trkpt lat="44.62905396220284" lon="10.944238272471086"><ele>34.0</ele><time>2026-03-28T13:07:40Z</time></trkpt><trkpt lat="44.62900296036579" lon="10.944362462016912"><ele>34.0</ele><time>2026-03-28T13:07:41Z</time></trkpt><trkpt lat="44.628955857427485" lon="10.944489620194048"><ele>34.0</ele><time>2026-03-28T13:07:42Z</time></trkpt><trkpt lat="44.62890492891745" lon="10.944621827042434"><ele>34.0</ele><time>2026-03-28T13:07:43Z</time></trkpt><trkpt lat="44.62884529800756" lon="10.944744427872608"><ele>34.0</ele><time>2026-03-28T13:07:44Z</time></trkpt><trkpt lat="44.62878494432509" lon="10.944872375778157"><ele>34.0</ele><time>2026-03-28T13:07:45Z</time></trkpt><trkpt lat="44.62872097399437" lon="10.945001236154479"><ele>34.0</ele><time>2026-03-28T13:07:46Z</time></trkpt><trkpt lat="44.628656606068006" lon="10.94513389619238"><ele>34.0</ele><time>2026-03-28T13:07:47Z</time></trkpt><trkpt lat="44.62859120428298" lon="10.945271718266046"><ele>34.0</ele><time>2026-03-28T13:07:48Z</time></trkpt><trkpt lat="44.628523090112644" lon="10.945405913495106"><ele>34.0</ele><time>2026-03-28T13:07:49Z</time></trkpt><trkpt lat="44.628453776053284" lon="10.945533872433796"><ele>34.0</ele><time>2026-03-28T13:07:50Z</time></trkpt><trkpt lat="44.628382958334946" lon="10.945675405134782"><ele>34.0</ele><time>2026-03-28T13:07:51Z</time></trkpt><trkpt lat="44.62830886906383" lon="10.94583418702283"><ele>34.0</ele><time>2026-03-28T13:07:52Z</time></trkpt><trkpt lat="44.6282316014637" lon="10.945995247391311"><ele>34.0</ele><time>2026-03-28T13:07:53Z</time></trkpt><trkpt lat="44.628148660094574" lon="10.946159838336028"><ele>34.0</ele><time>2026-03-28T13:07:54Z</time></trkpt><trkpt lat="44.62806586183414" lon="10.946314097828436"><ele>34.25</ele><time>2026-03-28T13:07:55Z</time></trkpt><trkpt lat="44.62797518046988" lon="10.946459733903128"><ele>34.5</ele><time>2026-03-28T13:07:56Z</time></trkpt><trkpt lat="44.62788259925" lon="10.94660231322036"><ele>34.75</ele><time>2026-03-28T13:07:57Z</time></trkpt><trkpt lat="44.62778970379136" lon="10.946744185400469"><ele>35.0</ele><time>2026-03-28T13:07:58Z</time></trkpt><trkpt lat="44.627696777035986" lon="10.946877201608427"><ele>35.0</ele><time>2026-03-28T13:07:59Z</time></trkpt><trkpt lat="44.62760232388279" lon="10.94700651961103"><ele>35.0</ele><time>2026-03-28T13:08:00Z</time></trkpt><trkpt lat="44.62749669497293" lon="10.947128354403349"><ele>35.0</ele><time>2026-03-28T13:08:01Z</time></trkpt><trkpt lat="44.62739797742569" lon="10.94725104588801"><ele>35.0</ele><time>2026-03-28T13:08:02Z</time></trkpt><trkpt lat="44.62729688585379" lon="10.947374374321743"><ele>35.0</ele><time>2026-03-28T13:08:03Z</time></trkpt><trkpt lat="44.62720183557974" lon="10.94749830940786"><ele>35.0</ele><time>2026-03-28T13:08:04Z</time></trkpt><trkpt lat="44.62711082410858" lon="10.947624834304897"><ele>35.0</ele><time>2026-03-28T13:08:05Z</time></trkpt><trkpt lat="44.62702188917876" lon="10.94775362741145"><ele>35.0</ele><time>2026-03-28T13:08:06Z</time></trkpt><trkpt lat="44.626935209432425" lon="10.947879278341869"><ele>35.0</ele><time>2026-03-28T13:08:07Z</time></trkpt><trkpt lat="44.62684356831298" lon="10.948000842861317"><ele>35.0</ele><time>2026-03-28T13:08:08Z</time></trkpt><trkpt lat="44.62674558564033" lon="10.94812803700427"><ele>35.0</ele><time>2026-03-28T13:08:09Z</time></trkpt><trkpt lat="44.62664412417869" lon="10.948264373745486"><ele>35.0</ele><time>2026-03-28T13:08:10Z</time></trkpt><trkpt lat="44.62653767038956" lon="10.9484067180475"><ele>35.0</ele><time>2026-03-28T13:08:11Z</time></trkpt><trkpt lat="44.62643132883248" lon="10.948554535336475"><ele>35.0</ele><time>2026-03-28T13:08:12Z</time></trkpt><trkpt lat="44.62632140070671" lon="10.948699785568616"><ele>35.0</ele><time>2026-03-28T13:08:13Z</time></trkpt><trkpt lat="44.626210106258924" lon="10.948841771442048"><ele>35.0</ele><time>2026-03-28T13:08:14Z</time></trkpt><trkpt lat="44.6260998377119" lon="10.948983553095188"><ele>35.0</ele><time>2026-03-28T13:08:15Z</time></trkpt><trkpt lat="44.62599350892658" lon="10.949125394542701"><ele>35.0</ele><time>2026-03-28T13:08:16Z</time></trkpt><trkpt lat="44.62589069923342" lon="10.949265177470519"><ele>35.0</ele><time>2026-03-28T13:08:17Z</time></trkpt><trkpt lat="44.625789200751974" lon="10.949408885608063"><ele>35.25</ele><time>2026-03-28T13:08:18Z</time></trkpt><trkpt lat="44.62569181138208" lon="10.949544899294681"><ele>35.5</ele><time>2026-03-28T13:08:19Z</time></trkpt><trkpt lat="44.62560596233559" lon="10.949666129937949"><ele>35.75</ele><time>2026-03-28T13:08:20Z</time></trkpt><trkpt lat="44.625540324434326" lon="10.949782186807461"><ele>36.0</ele><time>2026-03-28T13:08:21Z</time></trkpt><trkpt lat="44.62550864332483" lon="10.949904022217844"><ele>36.0</ele><time>2026-03-28T13:08:22Z</time></trkpt><trkpt lat="44.625491502389636" lon="10.950017412332427"><ele>36.0</ele><time>2026-03-28T13:08:23Z</time></trkpt><trkpt lat="44.625471757709825" lon="10.95010873546217"><ele>36.0</ele><time>2026-03-28T13:08:24Z</time></trkpt><trkpt lat="44.625424569237886" lon="10.950180095068767"><ele>36.0</ele><time>2026-03-28T13:08:26Z</time></trkpt><trkpt lat="44.625333596020106" lon="10.950245271692689"><ele>36.0</ele><time>2026-03-28T13:08:28.001Z</time></trkpt><trkpt lat="44.62525487368699" lon="10.950291017730716"><ele>36.0</ele><time>2026-03-28T13:08:29.001Z</time></trkpt><trkpt lat="44.62517598116997" lon="10.950342652189157"><ele>35.6</ele><time>2026-03-28T13:08:30.001Z</time></trkpt><trkpt lat="44.62511049455197" lon="10.950417088844262"><ele>35.2</ele><time>2026-03-28T13:08:31.001Z</time></trkpt><trkpt lat="44.625072128194404" lon="10.950531523089035"><ele>34.8</ele><time>2026-03-28T13:08:32.001Z</time></trkpt><trkpt lat="44.6250465813071" lon="10.950674017669082"><ele>34.4</ele><time>2026-03-28T13:08:33.001Z</time></trkpt><trkpt lat="44.625034713455335" lon="10.950822326005635"><ele>34.0</ele><time>2026-03-28T13:08:34.001Z</time></trkpt><trkpt lat="44.62502150330071" lon="10.950968838103122"><ele>33.8</ele><time>2026-03-28T13:08:35.001Z</time></trkpt><trkpt lat="44.62498217019714" lon="10.951099325170304"><ele>33.599999999999994</ele><time>2026-03-28T13:08:36.001Z</time></trkpt><trkpt lat="44.62492857448537" lon="10.951205481281558"><ele>33.4</ele><time>2026-03-28T13:08:37.001Z</time></trkpt><trkpt lat="44.6248623468854" lon="10.951304200434791"><ele>33.199999999999996</ele><time>2026-03-28T13:08:38.001Z</time></trkpt><trkpt lat="44.62478077200054" lon="10.951383439459445"><ele>33.0</ele><time>2026-03-28T13:08:39.001Z</time></trkpt><trkpt lat="44.62469114139422" lon="10.951448877194169"><ele>33.0</ele><time>2026-03-28T13:08:40.001Z</time></trkpt><trkpt lat="44.62459544429241" lon="10.951496271888198"><ele>33.0</ele><time>2026-03-28T13:08:41.001Z</time></trkpt><trkpt lat="44.62449653552167" lon="10.951526228350946"><ele>33.0</ele><time>2026-03-28T13:08:42.001Z</time></trkpt><trkpt lat="44.62439502226455" lon="10.951546273189"><ele>33.0</ele><time>2026-03-28T13:08:43.001Z</time></trkpt><trkpt lat="44.62429249629999" lon="10.951578518994973"><ele>33.0</ele><time>2026-03-28T13:08:44.001Z</time></trkpt><trkpt lat="44.62418524448707" lon="10.951623354259013"><ele>33.75</ele><time>2026-03-28T13:08:45.001Z</time></trkpt><trkpt lat="44.62407685989786" lon="10.951686148316172"><ele>34.5</ele><time>2026-03-28T13:08:46.001Z</time></trkpt><trkpt lat="44.62397193469762" lon="10.951776090779756"><ele>35.25</ele><time>2026-03-28T13:08:47.001Z</time></trkpt><trkpt lat="44.62386892289882" lon="10.951872687369386"><ele>36.0</ele><time>2026-03-28T13:08:48.001Z</time></trkpt><trkpt lat="44.62377099934177" lon="10.95198499510482"><ele>36.0</ele><time>2026-03-28T13:08:49.001Z</time></trkpt><trkpt lat="44.62367252427561" lon="10.9521059494842"><ele>36.0</ele><time>2026-03-28T13:08:50.001Z</time></trkpt><trkpt lat="44.623568849393145" lon="10.95221827984536"><ele>36.0</ele><time>2026-03-28T13:08:51.001Z</time></trkpt><trkpt lat="44.623467055923264" lon="10.952323322687429"><ele>36.0</ele><time>2026-03-28T13:08:52.001Z</time></trkpt><trkpt lat="44.623354473022985" lon="10.952419207195797"><ele>36.25</ele><time>2026-03-28T13:08:53.001Z</time></trkpt><trkpt lat="44.62323621288041" lon="10.952511328258115"><ele>36.5</ele><time>2026-03-28T13:08:54.001Z</time></trkpt><trkpt lat="44.62311126488823" lon="10.952604622807481"><ele>36.75</ele><time>2026-03-28T13:08:55.001Z</time></trkpt><trkpt lat="44.622976737054174" lon="10.952692799060227"><ele>37.0</ele><time>2026-03-28T13:08:56.001Z</time></trkpt><trkpt lat="44.622841340216326" lon="10.952773157044428"><ele>36.5</ele><time>2026-03-28T13:08:57.001Z</time></trkpt><trkpt lat="44.62270760107243" lon="10.952855436601652"><ele>36.0</ele><time>2026-03-28T13:08:58.001Z</time></trkpt><trkpt lat="44.62257292540336" lon="10.952938278967205"><ele>35.5</ele><time>2026-03-28T13:08:59.001Z</time></trkpt><trkpt lat="44.622433460667104" lon="10.953024963789646"><ele>35.0</ele><time>2026-03-28T13:09:00.001Z</time></trkpt><trkpt lat="44.6222957117151" lon="10.95310582732931"><ele>35.0</ele><time>2026-03-28T13:09:01.001Z</time></trkpt><trkpt lat="44.622156327326636" lon="10.953192452542936"><ele>35.0</ele><time>2026-03-28T13:09:02.001Z</time></trkpt><trkpt lat="44.62201508453854" lon="10.953277605517405"><ele>35.0</ele><time>2026-03-28T13:09:03.001Z</time></trkpt><trkpt lat="44.621877258277" lon="10.953358987801723"><ele>35.0</ele><time>2026-03-28T13:09:04.001Z</time></trkpt><trkpt lat="44.62173905538847" lon="10.953445353929586"><ele>35.0</ele><time>2026-03-28T13:09:05.001Z</time></trkpt><trkpt lat="44.62160029662566" lon="10.953531900583894"><ele>35.0</ele><time>2026-03-28T13:09:06.001Z</time></trkpt><trkpt lat="44.62145708792166" lon="10.953613608244861"><ele>35.0</ele><time>2026-03-28T13:09:07.001Z</time></trkpt><trkpt lat="44.62131182536286" lon="10.953696437674719"><ele>35.0</ele><time>2026-03-28T13:09:08.001Z</time></trkpt><trkpt lat="44.621165928998714" lon="10.953781618144825"><ele>35.0</ele><time>2026-03-28T13:09:09.001Z</time></trkpt><trkpt lat="44.621017925249376" lon="10.953864870678192"><ele>34.33333333333333</ele><time>2026-03-28T13:09:10.001Z</time></trkpt><trkpt lat="44.62086357004536" lon="10.953955660056682"><ele>33.666666666666664</ele><time>2026-03-28T13:09:11.001Z</time></trkpt><trkpt lat="44.62071121034168" lon="10.95404991415924"><ele>33.0</ele><time>2026-03-28T13:09:12.001Z</time></trkpt><trkpt lat="44.6205554936942" lon="10.954146859711448"><ele>33.333333333333336</ele><time>2026-03-28T13:09:13.001Z</time></trkpt><trkpt lat="44.620399595719846" lon="10.954241091212912"><ele>33.66666666666667</ele><time>2026-03-28T13:09:14.001Z</time></trkpt><trkpt lat="44.62024142743102" lon="10.954334786455137"><ele>34.0</ele><time>2026-03-28T13:09:15.001Z</time></trkpt><trkpt lat="44.62008815632379" lon="10.954433122263625"><ele>35.66666666666667</ele><time>2026-03-28T13:09:16.001Z</time></trkpt><trkpt lat="44.61993762838229" lon="10.954534776635763"><ele>37.333333333333336</ele><time>2026-03-28T13:09:17.001Z</time></trkpt><trkpt lat="44.61978506177617" lon="10.954631345255493"><ele>39.0</ele><time>2026-03-28T13:09:18.001Z</time></trkpt><trkpt lat="44.61963106453852" lon="10.954729954610748"><ele>38.0</ele><time>2026-03-28T13:09:19.001Z</time></trkpt><trkpt lat="44.619478254021416" lon="10.95483066933928"><ele>37.0</ele><time>2026-03-28T13:09:20.001Z</time></trkpt><trkpt lat="44.61932125025888" lon="10.954930431365428"><ele>36.0</ele><time>2026-03-28T13:09:21.001Z</time></trkpt><trkpt lat="44.61917621182869" lon="10.955038087335698"><ele>36.0</ele><time>2026-03-28T13:09:22.001Z</time></trkpt><trkpt lat="44.619019529868275" lon="10.955133911155768"><ele>36.0</ele><time>2026-03-28T13:09:23.001Z</time></trkpt><trkpt lat="44.61886906087172" lon="10.955221025453676"><ele>36.0</ele><time>2026-03-28T13:09:24.002Z</time></trkpt><trkpt lat="44.618727294405105" lon="10.955325859504136"><ele>36.0</ele><time>2026-03-28T13:09:25.002Z</time></trkpt><trkpt lat="44.61857490613721" lon="10.95542050796772"><ele>36.0</ele><time>2026-03-28T13:09:26.002Z</time></trkpt><trkpt lat="44.618423784079205" lon="10.955519947587463"><ele>36.0</ele><time>2026-03-28T13:09:27.002Z</time></trkpt><trkpt lat="44.618272205638306" lon="10.95563723903939"><ele>36.0</ele><time>2026-03-28T13:09:28.002Z</time></trkpt><trkpt lat="44.61811335507223" lon="10.955727438024834"><ele>36.0</ele><time>2026-03-28T13:09:29.002Z</time></trkpt><trkpt lat="44.61795925945039" lon="10.955833082767104"><ele>36.0</ele><time>2026-03-28T13:09:30.002Z</time></trkpt><trkpt lat="44.61779591745715" lon="10.955929460539746"><ele>36.666666666666664</ele><time>2026-03-28T13:09:31.002Z</time></trkpt><trkpt lat="44.61763962494463" lon="10.956042968453568"><ele>37.33333333333333</ele><time>2026-03-28T13:09:32.002Z</time></trkpt><trkpt lat="44.61748000814255" lon="10.956138541284004"><ele>38.0</ele><time>2026-03-28T13:09:33.002Z</time></trkpt><trkpt lat="44.6173280776822" lon="10.956251532681257"><ele>38.0</ele><time>2026-03-28T13:09:34.002Z</time></trkpt><trkpt lat="44.61716929708891" lon="10.956332960373539"><ele>38.0</ele><time>2026-03-28T13:09:35.002Z</time></trkpt><trkpt lat="44.617019657060816" lon="10.956426467265135"><ele>38.0</ele><time>2026-03-28T13:09:36.002Z</time></trkpt><trkpt lat="44.616872103225305" lon="10.956535953281085"><ele>37.666666666666664</ele><time>2026-03-28T13:09:37.002Z</time></trkpt><trkpt lat="44.61671092395903" lon="10.956625052009626"><ele>37.333333333333336</ele><time>2026-03-28T13:09:38.002Z</time></trkpt><trkpt lat="44.6165482855033" lon="10.956719908652937"><ele>37.0</ele><time>2026-03-28T13:09:39.002Z</time></trkpt><trkpt lat="44.61639033186354" lon="10.956817178236431"><ele>37.66666666666667</ele><time>2026-03-28T13:09:40.002Z</time></trkpt><trkpt lat="44.616235851125296" lon="10.956910750255089"><ele>38.333333333333336</ele><time>2026-03-28T13:09:41Z</time></trkpt><trkpt lat="44.61608350094876" lon="10.95700051054166"><ele>39.0</ele><time>2026-03-28T13:09:42Z</time></trkpt><trkpt lat="44.61592685064105" lon="10.957092193360351"><ele>39.0</ele><time>2026-03-28T13:09:43Z</time></trkpt><trkpt lat="44.61575747474954" lon="10.957198202941072"><ele>39.0</ele><time>2026-03-28T13:09:44Z</time></trkpt><trkpt lat="44.61555575296907" lon="10.957292987129398"><ele>39.0</ele><time>2026-03-28T13:09:45Z</time></trkpt><trkpt lat="44.61535254057951" lon="10.957411621800302"><ele>37.666666666666664</ele><time>2026-03-28T13:09:46Z</time></trkpt><trkpt lat="44.61515704070574" lon="10.957541673572287"><ele>36.33333333333333</ele><time>2026-03-28T13:09:47Z</time></trkpt><trkpt lat="44.61495528035903" lon="10.957662038085154"><ele>35.0</ele><time>2026-03-28T13:09:48Z</time></trkpt><trkpt lat="44.61472932501197" lon="10.957772985089887"><ele>35.0</ele><time>2026-03-28T13:09:49Z</time></trkpt><trkpt lat="44.61449444132478" lon="10.957908335081754"><ele>35.0</ele><time>2026-03-28T13:09:50Z</time></trkpt><trkpt lat="44.61426601549507" lon="10.958064530900621"><ele>36.5</ele><time>2026-03-28T13:09:51Z</time></trkpt><trkpt lat="44.61403635644555" lon="10.958182404207973"><ele>38.0</ele><time>2026-03-28T13:09:52Z</time></trkpt><trkpt lat="44.61382057084997" lon="10.958303475581749"><ele>37.33333333333333</ele><time>2026-03-28T13:09:53Z</time></trkpt><trkpt lat="44.613616160465334" lon="10.958426627349555"><ele>36.666666666666664</ele><time>2026-03-28T13:09:54Z</time></trkpt><trkpt lat="44.613418048640426" lon="10.958545119870356"><ele>36.0</ele><time>2026-03-28T13:09:55Z</time></trkpt><trkpt lat="44.613222479483866" lon="10.958656866348006"><ele>36.0</ele><time>2026-03-28T13:09:56Z</time></trkpt><trkpt lat="44.61303178464545" lon="10.95876578464747"><ele>36.0</ele><time>2026-03-28T13:09:57Z</time></trkpt><trkpt lat="44.612846680760654" lon="10.958879784447397"><ele>36.0</ele><time>2026-03-28T13:09:58Z</time></trkpt><trkpt lat="44.61266325981488" lon="10.958991867924006"><ele>36.0</ele><time>2026-03-28T13:09:59Z</time></trkpt><trkpt lat="44.61248068613295" lon="10.959104809901188"><ele>36.0</ele><time>2026-03-28T13:10:00Z</time></trkpt><trkpt lat="44.61230379097421" lon="10.959211424392223"><ele>36.0</ele><time>2026-03-28T13:10:01Z</time></trkpt><trkpt lat="44.61213515300064" lon="10.95931396681869"><ele>36.333333333333336</ele><time>2026-03-28T13:10:02Z</time></trkpt><trkpt lat="44.61196950495361" lon="10.959413459299387"><ele>36.66666666666667</ele><time>2026-03-28T13:10:03Z</time></trkpt><trkpt lat="44.61179802847953" lon="10.95951765765259"><ele>37.0</ele><time>2026-03-28T13:10:04Z</time></trkpt><trkpt lat="44.61162515906106" lon="10.959626090044688"><ele>37.0</ele><time>2026-03-28T13:10:05Z</time></trkpt><trkpt lat="44.61145792776965" lon="10.959754316100838"><ele>37.0</ele><time>2026-03-28T13:10:06Z</time></trkpt><trkpt lat="44.61129786115117" lon="10.959906882782079"><ele>37.0</ele><time>2026-03-28T13:10:07Z</time></trkpt><trkpt lat="44.61114130888191" lon="10.960067337018389"><ele>37.333333333333336</ele><time>2026-03-28T13:10:08Z</time></trkpt><trkpt lat="44.61098592802416" lon="10.960226105969987"><ele>37.666666666666664</ele><time>2026-03-28T13:10:09Z</time></trkpt><trkpt lat="44.610835494916806" lon="10.960384705839953"><ele>38.0</ele><time>2026-03-28T13:10:10Z</time></trkpt><trkpt lat="44.610688535615054" lon="10.9605410308626"><ele>38.0</ele><time>2026-03-28T13:10:11Z</time></trkpt><trkpt lat="44.610540319852376" lon="10.96069965968285"><ele>38.0</ele><time>2026-03-28T13:10:12Z</time></trkpt><trkpt lat="44.61038896618781" lon="10.960861727323973"><ele>38.0</ele><time>2026-03-28T13:10:13Z</time></trkpt><trkpt lat="44.61023217120428" lon="10.961021938244924"><ele>38.666666666666664</ele><time>2026-03-28T13:10:14Z</time></trkpt><trkpt lat="44.61007549984495" lon="10.961180184173887"><ele>39.333333333333336</ele><time>2026-03-28T13:10:15Z</time></trkpt><trkpt lat="44.60991740963595" lon="10.961337839348174"><ele>40.0</ele><time>2026-03-28T13:10:16Z</time></trkpt><trkpt lat="44.60975985554827" lon="10.961495401103754"><ele>40.0</ele><time>2026-03-28T13:10:17Z</time></trkpt><trkpt lat="44.60961039669017" lon="10.961650928255933"><ele>40.0</ele><time>2026-03-28T13:10:18Z</time></trkpt><trkpt lat="44.60946996322055" lon="10.961797414298077"><ele>40.0</ele><time>2026-03-28T13:10:19Z</time></trkpt><trkpt lat="44.609338779561966" lon="10.961937010825348"><ele>41.0</ele><time>2026-03-28T13:10:20Z</time></trkpt><trkpt lat="44.60920188675016" lon="10.962082873788617"><ele>42.0</ele><time>2026-03-28T13:10:21Z</time></trkpt><trkpt lat="44.60902221395599" lon="10.962245107571597"><ele>43.0</ele><time>2026-03-28T13:10:22Z</time></trkpt><trkpt lat="44.608840424499796" lon="10.96245887378304"><ele>42.333333333333336</ele><time>2026-03-28T13:10:23Z</time></trkpt><trkpt lat="44.60865953180949" lon="10.962620589451127"><ele>41.666666666666664</ele><time>2026-03-28T13:10:24Z</time></trkpt><trkpt lat="44.60850140595824" lon="10.962778540716084"><ele>41.0</ele><time>2026-03-28T13:10:25Z</time></trkpt><trkpt lat="44.60835360674019" lon="10.96292709309241"><ele>39.33333333333333</ele><time>2026-03-28T13:10:26Z</time></trkpt><trkpt lat="44.6082202154916" lon="10.96305944303654"><ele>37.666666666666664</ele><time>2026-03-28T13:10:27Z</time></trkpt><trkpt lat="44.60809542107739" lon="10.963184434581219"><ele>36.0</ele><time>2026-03-28T13:10:28Z</time></trkpt><trkpt lat="44.60797423960599" lon="10.963304600239056"><ele>36.333333333333336</ele><time>2026-03-28T13:10:29.001Z</time></trkpt><trkpt lat="44.60785322658981" lon="10.963427665665295"><ele>36.66666666666667</ele><time>2026-03-28T13:10:30.001Z</time></trkpt><trkpt lat="44.607730541532725" lon="10.963557108644139"><ele>37.0</ele><time>2026-03-28T13:10:31.001Z</time></trkpt><trkpt lat="44.607605833270846" lon="10.963684917754446"><ele>37.0</ele><time>2026-03-28T13:10:32.001Z</time></trkpt><trkpt lat="44.60748455564033" lon="10.963821271852483"><ele>37.0</ele><time>2026-03-28T13:10:33.001Z</time></trkpt><trkpt lat="44.60737226752863" lon="10.963966392507125"><ele>37.0</ele><time>2026-03-28T13:10:34.001Z</time></trkpt><trkpt lat="44.60726356124418" lon="10.964116859151979"><ele>37.0</ele><time>2026-03-28T13:10:35.001Z</time></trkpt><trkpt lat="44.60716181265475" lon="10.964275686175762"><ele>37.0</ele><time>2026-03-28T13:10:36.001Z</time></trkpt><trkpt lat="44.60706998535837" lon="10.96444118577518"><ele>37.0</ele><time>2026-03-28T13:10:37.001Z</time></trkpt><trkpt lat="44.60698507646512" lon="10.964596691272758"><ele>37.0</ele><time>2026-03-28T13:10:38.001Z</time></trkpt><trkpt lat="44.60690123374715" lon="10.964744819520588"><ele>37.0</ele><time>2026-03-28T13:10:39.001Z</time></trkpt><trkpt lat="44.606817585677" lon="10.964890469868271"><ele>37.0</ele><time>2026-03-28T13:10:40.001Z</time></trkpt><trkpt lat="44.60673621108021" lon="10.965038065955518"><ele>37.0</ele><time>2026-03-28T13:10:41.001Z</time></trkpt><trkpt lat="44.60665655598825" lon="10.965192063762618"><ele>37.0</ele><time>2026-03-28T13:10:42.001Z</time></trkpt><trkpt lat="44.606567794573" lon="10.965341659408256"><ele>37.0</ele><time>2026-03-28T13:10:43.001Z</time></trkpt><trkpt lat="44.606484916417074" lon="10.96550305641551"><ele>37.0</ele><time>2026-03-28T13:10:44.001Z</time></trkpt><trkpt lat="44.606409648839076" lon="10.96567702640615"><ele>37.0</ele><time>2026-03-28T13:10:45.001Z</time></trkpt><trkpt lat="44.60634655208427" lon="10.965853026697586"><ele>37.0</ele><time>2026-03-28T13:10:46.001Z</time></trkpt><trkpt lat="44.60628922326968" lon="10.966042119907138"><ele>37.0</ele><time>2026-03-28T13:10:47.001Z</time></trkpt><trkpt lat="44.60623769408866" lon="10.966232315967014"><ele>37.0</ele><time>2026-03-28T13:10:48.001Z</time></trkpt><trkpt lat="44.60618863767113" lon="10.966406827296042"><ele>37.0</ele><time>2026-03-28T13:10:49.001Z</time></trkpt><trkpt lat="44.60614168082732" lon="10.966572912408338"><ele>37.0</ele><time>2026-03-28T13:10:50.001Z</time></trkpt><trkpt lat="44.60610665490755" lon="10.96670496686935"><ele>37.5</ele><time>2026-03-28T13:10:51.001Z</time></trkpt><trkpt lat="44.6060570800769" lon="10.96688164091755"><ele>38.0</ele><time>2026-03-28T13:10:52.001Z</time></trkpt><trkpt lat="44.60600993991102" lon="10.967056815630828"><ele>38.5</ele><time>2026-03-28T13:10:53.001Z</time></trkpt><trkpt lat="44.60595849719125" lon="10.9672295980152"><ele>39.0</ele><time>2026-03-28T13:10:54.001Z</time></trkpt><trkpt lat="44.60591086003764" lon="10.967395845430719"><ele>38.25</ele><time>2026-03-28T13:10:55.001Z</time></trkpt><trkpt lat="44.60586616684209" lon="10.967566779184082"><ele>37.5</ele><time>2026-03-28T13:10:56.001Z</time></trkpt><trkpt lat="44.605821050862" lon="10.96773373878103"><ele>36.75</ele><time>2026-03-28T13:10:57.001Z</time></trkpt><trkpt lat="44.605767880531246" lon="10.967901867219386"><ele>36.0</ele><time>2026-03-28T13:10:58.001Z</time></trkpt><trkpt lat="44.605725970399554" lon="10.9680631982935"><ele>36.0</ele><time>2026-03-28T13:10:59.001Z</time></trkpt><trkpt lat="44.605676448434714" lon="10.96821201485914"><ele>36.0</ele><time>2026-03-28T13:11:00.001Z</time></trkpt><trkpt lat="44.60563597724069" lon="10.968352382462548"><ele>36.0</ele><time>2026-03-28T13:11:01.001Z</time></trkpt><trkpt lat="44.605601798464775" lon="10.96848275076371"><ele>36.0</ele><time>2026-03-28T13:11:02.001Z</time></trkpt><trkpt lat="44.60556868972674" lon="10.968609524195646"><ele>36.0</ele><time>2026-03-28T13:11:03.001Z</time></trkpt><trkpt lat="44.60553474711324" lon="10.968731075170167"><ele>36.5</ele><time>2026-03-28T13:11:04.001Z</time></trkpt><trkpt lat="44.60550351418486" lon="10.968847853792045"><ele>37.0</ele><time>2026-03-28T13:11:05.001Z</time></trkpt><trkpt lat="44.6054696400518" lon="10.968965332454859"><ele>37.5</ele><time>2026-03-28T13:11:06.001Z</time></trkpt><trkpt lat="44.60543859245969" lon="10.969081185266177"><ele>38.0</ele><time>2026-03-28T13:11:07.001Z</time></trkpt><trkpt lat="44.60540990039567" lon="10.969186769611357"><ele>38.5</ele><time>2026-03-28T13:11:08.001Z</time></trkpt><trkpt lat="44.60538184058051" lon="10.96928501399629"><ele>39.0</ele><time>2026-03-28T13:11:09.001Z</time></trkpt><trkpt lat="44.605348622816756" lon="10.969389314512348"><ele>39.166666666666664</ele><time>2026-03-28T13:11:10.001Z</time></trkpt><trkpt lat="44.60530974503356" lon="10.96949489615461"><ele>39.333333333333336</ele><time>2026-03-28T13:11:11.001Z</time></trkpt><trkpt lat="44.60525665053745" lon="10.969594547389205"><ele>39.5</ele><time>2026-03-28T13:11:12.001Z</time></trkpt><trkpt lat="44.605199090138335" lon="10.969685907799894"><ele>39.66666666666667</ele><time>2026-03-28T13:11:13.001Z</time></trkpt><trkpt lat="44.60511357270497" lon="10.9697285962277"><ele>39.833333333333336</ele><time>2026-03-28T13:11:14.001Z</time></trkpt><trkpt lat="44.605047087771474" lon="10.96974948701736"><ele>40.0</ele><time>2026-03-28T13:11:15.001Z</time></trkpt><trkpt lat="44.60492803732103" lon="10.969729361137798"><ele>40.0</ele><time>2026-03-28T13:11:17.001Z</time></trkpt><trkpt lat="44.604804534456264" lon="10.969685105825967"><ele>40.0</ele><time>2026-03-28T13:11:19.001Z</time></trkpt><trkpt lat="44.60471069241031" lon="10.969643175455426"><ele>40.0</ele><time>2026-03-28T13:11:20.001Z</time></trkpt><trkpt lat="44.60457842943692" lon="10.969583361861426"><ele>40.0</ele><time>2026-03-28T13:11:21.001Z</time></trkpt><trkpt lat="44.60445053307039" lon="10.969493041943972"><ele>40.25</ele><time>2026-03-28T13:11:22.001Z</time></trkpt><trkpt lat="44.604339120742786" lon="10.969424450945189"><ele>40.5</ele><time>2026-03-28T13:11:23.002Z</time></trkpt><trkpt lat="44.60423192960074" lon="10.969367704267686"><ele>40.75</ele><time>2026-03-28T13:11:24.002Z</time></trkpt><trkpt lat="44.60410701692136" lon="10.969276743988488"><ele>41.0</ele><time>2026-03-28T13:11:25.002Z</time></trkpt><trkpt lat="44.60396919357632" lon="10.969213193029717"><ele>41.0</ele><time>2026-03-28T13:11:26.002Z</time></trkpt><trkpt lat="44.60385518820536" lon="10.969161204188353"><ele>41.0</ele><time>2026-03-28T13:11:27.002Z</time></trkpt><trkpt lat="44.60375673722046" lon="10.969134177125"><ele>41.0</ele><time>2026-03-28T13:11:28.002Z</time></trkpt><trkpt lat="44.60367261075689" lon="10.969119505287066"><ele>41.0</ele><time>2026-03-28T13:11:29.002Z</time></trkpt><trkpt lat="44.60359121750641" lon="10.969105194267573"><ele>41.0</ele><time>2026-03-28T13:11:30.002Z</time></trkpt><trkpt lat="44.60350585473736" lon="10.969096692532665"><ele>41.199999999999996</ele><time>2026-03-28T13:11:31.002Z</time></trkpt><trkpt lat="44.60341429212499" lon="10.96908773577822"><ele>41.4</ele><time>2026-03-28T13:11:32.002Z</time></trkpt><trkpt lat="44.6033126811146" lon="10.96908549898941"><ele>41.6</ele><time>2026-03-28T13:11:33.002Z</time></trkpt><trkpt lat="44.60321877161252" lon="10.969084366873291"><ele>41.8</ele><time>2026-03-28T13:11:34.002Z</time></trkpt><trkpt lat="44.603110633814936" lon="10.969093039769845"><ele>42.0</ele><time>2026-03-28T13:11:35.002Z</time></trkpt><trkpt lat="44.60296118556252" lon="10.969078674939672"><ele>41.0</ele><time>2026-03-28T13:11:36.002Z</time></trkpt><trkpt lat="44.60276166212811" lon="10.969123878068071"><ele>40.0</ele><time>2026-03-28T13:11:37.002Z</time></trkpt><trkpt lat="44.60256165791712" lon="10.969102897786325"><ele>39.0</ele><time>2026-03-28T13:11:38.002Z</time></trkpt><trkpt lat="44.60239478122387" lon="10.96909161868771"><ele>39.0</ele><time>2026-03-28T13:11:39.002Z</time></trkpt><trkpt lat="44.60224175549662" lon="10.96909641193434"><ele>39.0</ele><time>2026-03-28T13:11:40.002Z</time></trkpt><trkpt lat="44.602105042214895" lon="10.969101533686114"><ele>39.0</ele><time>2026-03-28T13:11:41.002Z</time></trkpt><trkpt lat="44.601979208130565" lon="10.969104735926154"><ele>39.0</ele><time>2026-03-28T13:11:42.002Z</time></trkpt><trkpt lat="44.60185932748987" lon="10.969110885464778"><ele>39.25</ele><time>2026-03-28T13:11:43.002Z</time></trkpt><trkpt lat="44.601739223628755" lon="10.969110950350403"><ele>39.5</ele><time>2026-03-28T13:11:44.002Z</time></trkpt><trkpt lat="44.601617118251035" lon="10.969108640816257"><ele>39.75</ele><time>2026-03-28T13:11:45.002Z</time></trkpt><trkpt lat="44.6015008672502" lon="10.969111084307364"><ele>40.0</ele><time>2026-03-28T13:11:46.002Z</time></trkpt><trkpt lat="44.601385679017135" lon="10.969122609155797"><ele>40.0</ele><time>2026-03-28T13:11:47Z</time></trkpt><trkpt lat="44.6012356749979" lon="10.969109515002387"><ele>40.0</ele><time>2026-03-28T13:11:48Z</time></trkpt><trkpt lat="44.60103287790795" lon="10.969114007694595"><ele>40.0</ele><time>2026-03-28T13:11:49Z</time></trkpt><trkpt lat="44.60079535780665" lon="10.96911926962477"><ele>41.5</ele><time>2026-03-28T13:11:50Z</time></trkpt><trkpt lat="44.600508172001454" lon="10.969129385454274"><ele>43.0</ele><time>2026-03-28T13:11:51Z</time></trkpt><trkpt lat="44.60017727110704" lon="10.969186200463188"><ele>43.0</ele><time>2026-03-28T13:11:52Z</time></trkpt><trkpt lat="44.599828652179575" lon="10.969192342227943"><ele>43.0</ele><time>2026-03-28T13:11:53Z</time></trkpt><trkpt lat="44.59946428252001" lon="10.969198583756786"><ele>42.0</ele><time>2026-03-28T13:11:54Z</time></trkpt><trkpt lat="44.59910546404752" lon="10.969211909493016"><ele>41.0</ele><time>2026-03-28T13:11:55Z</time></trkpt><trkpt lat="44.598779885108385" lon="10.969190819373724"><ele>41.5</ele><time>2026-03-28T13:11:56Z</time></trkpt><trkpt lat="44.598490598619065" lon="10.96921368415927"><ele>42.0</ele><time>2026-03-28T13:11:57Z</time></trkpt><trkpt lat="44.598223747379045" lon="10.969215017631752"><ele>42.0</ele><time>2026-03-28T13:11:58Z</time></trkpt><trkpt lat="44.5979723899247" lon="10.969225945644283"><ele>42.0</ele><time>2026-03-28T13:11:59Z</time></trkpt><trkpt lat="44.59773893688992" lon="10.96923730995941"><ele>41.666666666666664</ele><time>2026-03-28T13:12:00Z</time></trkpt><trkpt lat="44.59751566665429" lon="10.969239321176728"><ele>41.33333333333333</ele><time>2026-03-28T13:12:01Z</time></trkpt><trkpt lat="44.59730264984351" lon="10.969244395683937"><ele>41.0</ele><time>2026-03-28T13:12:02Z</time></trkpt><trkpt lat="44.59708439461344" lon="10.96925186848082"><ele>41.0</ele><time>2026-03-28T13:12:03Z</time></trkpt><trkpt lat="44.596862718407245" lon="10.969264077308452"><ele>41.0</ele><time>2026-03-28T13:12:04Z</time></trkpt><trkpt lat="44.59664467203712" lon="10.969270716796341"><ele>41.0</ele><time>2026-03-28T13:12:05Z</time></trkpt><trkpt lat="44.596425058108515" lon="10.969278224035133"><ele>41.0</ele><time>2026-03-28T13:12:06Z</time></trkpt><trkpt lat="44.59620915628678" lon="10.969284435115949"><ele>41.0</ele><time>2026-03-28T13:12:07Z</time></trkpt><trkpt lat="44.59599184424179" lon="10.969288936868983"><ele>41.0</ele><time>2026-03-28T13:12:08Z</time></trkpt><trkpt lat="44.59577934968399" lon="10.96929600475294"><ele>40.666666666666664</ele><time>2026-03-28T13:12:09Z</time></trkpt><trkpt lat="44.59556831040626" lon="10.969308267976782"><ele>40.333333333333336</ele><time>2026-03-28T13:12:10Z</time></trkpt><trkpt lat="44.59535699777696" lon="10.969317275309557"><ele>40.0</ele><time>2026-03-28T13:12:11Z</time></trkpt><trkpt lat="44.595142650173315" lon="10.969321383183466"><ele>40.0</ele><time>2026-03-28T13:12:12Z</time></trkpt><trkpt lat="44.594928273964655" lon="10.969324669137967"><ele>40.0</ele><time>2026-03-28T13:12:13Z</time></trkpt><trkpt lat="44.59471654010189" lon="10.969330034518546"><ele>40.0</ele><time>2026-03-28T13:12:14Z</time></trkpt><trkpt lat="44.59450527062468" lon="10.969336584038393"><ele>40.333333333333336</ele><time>2026-03-28T13:12:15Z</time></trkpt><trkpt lat="44.59429240518583" lon="10.969342766105862"><ele>40.666666666666664</ele><time>2026-03-28T13:12:16Z</time></trkpt><trkpt lat="44.594082910874235" lon="10.969350573911425"><ele>41.0</ele><time>2026-03-28T13:12:17.001Z</time></trkpt><trkpt lat="44.59387147564969" lon="10.969357505315761"><ele>40.666666666666664</ele><time>2026-03-28T13:12:18.001Z</time></trkpt><trkpt lat="44.593661869018085" lon="10.9693609019342"><ele>40.333333333333336</ele><time>2026-03-28T13:12:19.001Z</time></trkpt><trkpt lat="44.59345125689099" lon="10.96936080299523"><ele>40.0</ele><time>2026-03-28T13:12:20.001Z</time></trkpt><trkpt lat="44.593244280275236" lon="10.969362939370702"><ele>40.0</ele><time>2026-03-28T13:12:21.001Z</time></trkpt><trkpt lat="44.593040416602285" lon="10.969368108441858"><ele>40.0</ele><time>2026-03-28T13:12:22.001Z</time></trkpt><trkpt lat="44.59283706111591" lon="10.969369197537373"><ele>40.0</ele><time>2026-03-28T13:12:23.001Z</time></trkpt><trkpt lat="44.592636376239206" lon="10.969372963996673"><ele>40.0</ele><time>2026-03-28T13:12:24.001Z</time></trkpt><trkpt lat="44.59243166314836" lon="10.969375156944714"><ele>40.0</ele><time>2026-03-28T13:12:25.001Z</time></trkpt><trkpt lat="44.592230114375134" lon="10.969379911098816"><ele>40.0</ele><time>2026-03-28T13:12:26.001Z</time></trkpt><trkpt lat="44.59202522613963" lon="10.96938053999681"><ele>41.66666666666667</ele><time>2026-03-28T13:12:27.001Z</time></trkpt><trkpt lat="44.59181976303278" lon="10.969386942637053"><ele>43.333333333333336</ele><time>2026-03-28T13:12:28.001Z</time></trkpt><trkpt lat="44.59161493203922" lon="10.969390135397243"><ele>45.0</ele><time>2026-03-28T13:12:29.001Z</time></trkpt><trkpt lat="44.591404922873565" lon="10.969397329640282"><ele>45.0</ele><time>2026-03-28T13:12:30.001Z</time></trkpt><trkpt lat="44.591195115200634" lon="10.969404346967728"><ele>45.0</ele><time>2026-03-28T13:12:31.001Z</time></trkpt><trkpt lat="44.59098665232336" lon="10.969413657698263"><ele>45.0</ele><time>2026-03-28T13:12:32.001Z</time></trkpt><trkpt lat="44.59077509825261" lon="10.969424214601109"><ele>44.666666666666664</ele><time>2026-03-28T13:12:33.001Z</time></trkpt><trkpt lat="44.5905696021297" lon="10.969437214036994"><ele>44.33333333333333</ele><time>2026-03-28T13:12:34.001Z</time></trkpt><trkpt lat="44.59035597263667" lon="10.969440660196215"><ele>44.0</ele><time>2026-03-28T13:12:35.001Z</time></trkpt><trkpt lat="44.59014879085754" lon="10.969442194078296"><ele>44.0</ele><time>2026-03-28T13:12:36.001Z</time></trkpt><trkpt lat="44.589942095814756" lon="10.969448634291213"><ele>44.0</ele><time>2026-03-28T13:12:37.001Z</time></trkpt><trkpt lat="44.58973976009245" lon="10.969458602050313"><ele>44.0</ele><time>2026-03-28T13:12:38.001Z</time></trkpt><trkpt lat="44.58954145274837" lon="10.969468654679428"><ele>44.33333333333333</ele><time>2026-03-28T13:12:39.001Z</time></trkpt><trkpt lat="44.589345496755456" lon="10.969484801341364"><ele>44.666666666666664</ele><time>2026-03-28T13:12:40.001Z</time></trkpt><trkpt lat="44.58914063361534" lon="10.969508909141839"><ele>45.0</ele><time>2026-03-28T13:12:41.001Z</time></trkpt><trkpt lat="44.58893389268813" lon="10.969535407061949"><ele>45.0</ele><time>2026-03-28T13:12:42.001Z</time></trkpt><trkpt lat="44.58872135833779" lon="10.969572266499084"><ele>45.0</ele><time>2026-03-28T13:12:43.001Z</time></trkpt><trkpt lat="44.58850617730527" lon="10.969603797232361"><ele>45.0</ele><time>2026-03-28T13:12:44.001Z</time></trkpt><trkpt lat="44.588286900035975" lon="10.969637180112235"><ele>46.0</ele><time>2026-03-28T13:12:45.001Z</time></trkpt><trkpt lat="44.58806988137505" lon="10.969681926387423"><ele>47.0</ele><time>2026-03-28T13:12:46.001Z</time></trkpt><trkpt lat="44.58785472717079" lon="10.969735080265872"><ele>48.0</ele><time>2026-03-28T13:12:47.001Z</time></trkpt><trkpt lat="44.58764346494791" lon="10.969802845623498"><ele>48.0</ele><time>2026-03-28T13:12:48.001Z</time></trkpt><trkpt lat="44.58743684410134" lon="10.96988369406127"><ele>48.0</ele><time>2026-03-28T13:12:49.001Z</time></trkpt><trkpt lat="44.587235771491734" lon="10.969964028520291"><ele>48.0</ele><time>2026-03-28T13:12:50.001Z</time></trkpt><trkpt lat="44.587041969024625" lon="10.970046548121084"><ele>47.666666666666664</ele><time>2026-03-28T13:12:51.001Z</time></trkpt><trkpt lat="44.5868625205944" lon="10.970141553556989"><ele>47.33333333333333</ele><time>2026-03-28T13:12:52.001Z</time></trkpt><trkpt lat="44.586695935614756" lon="10.970240063363143"><ele>47.0</ele><time>2026-03-28T13:12:53.001Z</time></trkpt><trkpt lat="44.58653885573822" lon="10.970325673986757"><ele>47.0</ele><time>2026-03-28T13:12:54.001Z</time></trkpt><trkpt lat="44.58639277334546" lon="10.970407282424889"><ele>47.0</ele><time>2026-03-28T13:12:55.001Z</time></trkpt><trkpt lat="44.58625931043108" lon="10.970481253722689"><ele>47.0</ele><time>2026-03-28T13:12:56.001Z</time></trkpt><trkpt lat="44.58612999652097" lon="10.970546378679533"><ele>47.0</ele><time>2026-03-28T13:12:57.001Z</time></trkpt><trkpt lat="44.58600302780166" lon="10.970580694469799"><ele>46.25</ele><time>2026-03-28T13:12:58.001Z</time></trkpt><trkpt lat="44.58588154091655" lon="10.970573053092169"><ele>45.5</ele><time>2026-03-28T13:12:59.001Z</time></trkpt><trkpt lat="44.585762536230185" lon="10.970538937489453"><ele>44.75</ele><time>2026-03-28T13:13:00.001Z</time></trkpt><trkpt lat="44.585650984531895" lon="10.970555802491132"><ele>44.0</ele><time>2026-03-28T13:13:01.001Z</time></trkpt><trkpt lat="44.58555376561084" lon="10.970652372243851"><ele>44.0</ele><time>2026-03-28T13:13:02.001Z</time></trkpt><trkpt lat="44.5854802117592" lon="10.9708119849438"><ele>44.0</ele><time>2026-03-28T13:13:03.001Z</time></trkpt><trkpt lat="44.58539995778161" lon="10.970949231606962"><ele>44.0</ele><time>2026-03-28T13:13:04.001Z</time></trkpt><trkpt lat="44.58529327463052" lon="10.971035096291613"><ele>44.0</ele><time>2026-03-28T13:13:05.001Z</time></trkpt><trkpt lat="44.58518699456019" lon="10.971116872074566"><ele>44.75</ele><time>2026-03-28T13:13:06.001Z</time></trkpt><trkpt lat="44.58507046646028" lon="10.971198100517727"><ele>45.5</ele><time>2026-03-28T13:13:07.001Z</time></trkpt><trkpt lat="44.58495641788233" lon="10.971272624564369"><ele>46.25</ele><time>2026-03-28T13:13:08.001Z</time></trkpt><trkpt lat="44.584806916625254" lon="10.971375991087255"><ele>47.0</ele><time>2026-03-28T13:13:09.001Z</time></trkpt><trkpt lat="44.584634187379166" lon="10.971467349515127"><ele>47.0</ele><time>2026-03-28T13:13:10.001Z</time></trkpt><trkpt lat="44.58449457889758" lon="10.971542441431522"><ele>47.0</ele><time>2026-03-28T13:13:11.001Z</time></trkpt><trkpt lat="44.58437770724641" lon="10.971624285646788"><ele>47.0</ele><time>2026-03-28T13:13:12.001Z</time></trkpt><trkpt lat="44.58426902898053" lon="10.971698367088091"><ele>47.0</ele><time>2026-03-28T13:13:13.001Z</time></trkpt><trkpt lat="44.58416008868319" lon="10.97177390846055"><ele>47.0</ele><time>2026-03-28T13:13:14.001Z</time></trkpt><trkpt lat="44.584044880125475" lon="10.971853721305237"><ele>47.0</ele><time>2026-03-28T13:13:15.001Z</time></trkpt><trkpt lat="44.58391498515094" lon="10.971917278779804"><ele>47.0</ele><time>2026-03-28T13:13:16.001Z</time></trkpt><trkpt lat="44.58379465353161" lon="10.97199928168801"><ele>47.0</ele><time>2026-03-28T13:13:17.002Z</time></trkpt><trkpt lat="44.58367630358294" lon="10.97208992490573"><ele>47.25</ele><time>2026-03-28T13:13:18.002Z</time></trkpt><trkpt lat="44.58355775572274" lon="10.972169839581872"><ele>47.5</ele><time>2026-03-28T13:13:19.002Z</time></trkpt><trkpt lat="44.58343342599705" lon="10.972249502512891"><ele>47.75</ele><time>2026-03-28T13:13:20.002Z</time></trkpt><trkpt lat="44.58330366435723" lon="10.972341540905425"><ele>48.0</ele><time>2026-03-28T13:13:21.002Z</time></trkpt><trkpt lat="44.58318089536631" lon="10.972432936792153"><ele>48.0</ele><time>2026-03-28T13:13:22.002Z</time></trkpt><trkpt lat="44.58305680607072" lon="10.97254549882403"><ele>48.0</ele><time>2026-03-28T13:13:23.002Z</time></trkpt><trkpt lat="44.582943449084816" lon="10.972677225729118"><ele>48.0</ele><time>2026-03-28T13:13:24.002Z</time></trkpt><trkpt lat="44.58283457285792" lon="10.972816603938588"><ele>48.0</ele><time>2026-03-28T13:13:25.002Z</time></trkpt><trkpt lat="44.58273922736106" lon="10.972936866633987"><ele>48.0</ele><time>2026-03-28T13:13:26.002Z</time></trkpt><trkpt lat="44.582643755918845" lon="10.973056361166798"><ele>48.0</ele><time>2026-03-28T13:13:27.002Z</time></trkpt><trkpt lat="44.582547187221" lon="10.97318294144898"><ele>48.0</ele><time>2026-03-28T13:13:28.002Z</time></trkpt><trkpt lat="44.58245161586306" lon="10.973312042746112"><ele>48.0</ele><time>2026-03-28T13:13:29.002Z</time></trkpt><trkpt lat="44.58236015239437" lon="10.973445179471378"><ele>47.75</ele><time>2026-03-28T13:13:30.002Z</time></trkpt><trkpt lat="44.582277807098365" lon="10.973588258809995"><ele>47.5</ele><time>2026-03-28T13:13:31.002Z</time></trkpt><trkpt lat="44.582205807179534" lon="10.973740714988116"><ele>47.25</ele><time>2026-03-28T13:13:32.002Z</time></trkpt><trkpt lat="44.5821349878791" lon="10.97390796430624"><ele>47.0</ele><time>2026-03-28T13:13:33.002Z</time></trkpt><trkpt lat="44.58207127564723" lon="10.97408435029316"><ele>46.75</ele><time>2026-03-28T13:13:34.002Z</time></trkpt><trkpt lat="44.582012716018156" lon="10.974267622165502"><ele>46.5</ele><time>2026-03-28T13:13:35.002Z</time></trkpt><trkpt lat="44.58195204541522" lon="10.974440011262336"><ele>46.25</ele><time>2026-03-28T13:13:36.002Z</time></trkpt><trkpt lat="44.58189442524948" lon="10.974614833819771"><ele>46.0</ele><time>2026-03-28T13:13:37.002Z</time></trkpt><trkpt lat="44.58184012358407" lon="10.974792402194991"><ele>46.0</ele><time>2026-03-28T13:13:38.002Z</time></trkpt><trkpt lat="44.58175534466515" lon="10.974961947861491"><ele>46.0</ele><time>2026-03-28T13:13:39.002Z</time></trkpt><trkpt lat="44.58168030880855" lon="10.975153117972821"><ele>46.0</ele><time>2026-03-28T13:13:40.002Z</time></trkpt><trkpt lat="44.581615130289755" lon="10.975365289815217"><ele>45.66666666666667</ele><time>2026-03-28T13:13:41.002Z</time></trkpt><trkpt lat="44.581530926443314" lon="10.975573828618877"><ele>45.333333333333336</ele><time>2026-03-28T13:13:42.002Z</time></trkpt><trkpt lat="44.58145012050524" lon="10.97578348501983"><ele>45.0</ele><time>2026-03-28T13:13:43.002Z</time></trkpt><trkpt lat="44.58136423843804" lon="10.975985702720951"><ele>45.0</ele><time>2026-03-28T13:13:44.002Z</time></trkpt><trkpt lat="44.581275336071755" lon="10.976180772346588"><ele>45.0</ele><time>2026-03-28T13:13:45.002Z</time></trkpt><trkpt lat="44.581192341409235" lon="10.976379747813727"><ele>45.0</ele><time>2026-03-28T13:13:46.002Z</time></trkpt><trkpt lat="44.581099202833286" lon="10.976562164011371"><ele>45.333333333333336</ele><time>2026-03-28T13:13:47.002Z</time></trkpt><trkpt lat="44.58099965831149" lon="10.976733267989841"><ele>45.66666666666667</ele><time>2026-03-28T13:13:48.002Z</time></trkpt><trkpt lat="44.58089911695325" lon="10.976907767563482"><ele>46.0</ele><time>2026-03-28T13:13:49.002Z</time></trkpt><trkpt lat="44.5807857851475" lon="10.977063754867666"><ele>46.0</ele><time>2026-03-28T13:13:50.002Z</time></trkpt><trkpt lat="44.58066824952101" lon="10.977210029778965"><ele>46.0</ele><time>2026-03-28T13:13:51.002Z</time></trkpt><trkpt lat="44.58039637904427" lon="10.977455211771678"><ele>46.333333333333336</ele><time>2026-03-28T13:13:53.001Z</time></trkpt><trkpt lat="44.580255227108694" lon="10.97757428915051"><ele>46.666666666666664</ele><time>2026-03-28T13:13:54.001Z</time></trkpt><trkpt lat="44.580124639379974" lon="10.977702726475929"><ele>47.0</ele><time>2026-03-28T13:13:55.001Z</time></trkpt><trkpt lat="44.57999513355304" lon="10.97779044602187"><ele>47.0</ele><time>2026-03-28T13:13:56.001Z</time></trkpt><trkpt lat="44.57987971227928" lon="10.977877019974548"><ele>47.0</ele><time>2026-03-28T13:13:57.001Z</time></trkpt><trkpt lat="44.579774908358125" lon="10.977961810460261"><ele>47.0</ele><time>2026-03-28T13:13:58.001Z</time></trkpt><trkpt lat="44.57966489679157" lon="10.978045525098674"><ele>47.0</ele><time>2026-03-28T13:13:59.001Z</time></trkpt><trkpt lat="44.57955320597227" lon="10.97813057674502"><ele>47.25</ele><time>2026-03-28T13:14:00.001Z</time></trkpt><trkpt lat="44.57943388016437" lon="10.978228643936882"><ele>47.5</ele><time>2026-03-28T13:14:01.001Z</time></trkpt><trkpt lat="44.57930583940416" lon="10.978325077213743"><ele>47.75</ele><time>2026-03-28T13:14:02.001Z</time></trkpt><trkpt lat="44.5791820322517" lon="10.978429061999275"><ele>48.0</ele><time>2026-03-28T13:14:03.001Z</time></trkpt><trkpt lat="44.579050878577654" lon="10.97852761806791"><ele>47.75</ele><time>2026-03-28T13:14:04.001Z</time></trkpt><trkpt lat="44.57892104911357" lon="10.97863064437179"><ele>47.5</ele><time>2026-03-28T13:14:05.001Z</time></trkpt><trkpt lat="44.578793438553696" lon="10.978742766146883"><ele>47.25</ele><time>2026-03-28T13:14:06.001Z</time></trkpt><trkpt lat="44.578668126168246" lon="10.97884898296038"><ele>47.0</ele><time>2026-03-28T13:14:07.001Z</time></trkpt><trkpt lat="44.57846975536827" lon="10.97898002583509"><ele>47.0</ele><time>2026-03-28T13:14:08.001Z</time></trkpt><trkpt lat="44.57825775972151" lon="10.97914560286929"><ele>47.0</ele><time>2026-03-28T13:14:09.001Z</time></trkpt><trkpt lat="44.578015070465234" lon="10.979354219025534"><ele>48.0</ele><time>2026-03-28T13:14:10.001Z</time></trkpt><trkpt lat="44.57777771333343" lon="10.979519993292008"><ele>49.0</ele><time>2026-03-28T13:14:11.001Z</time></trkpt><trkpt lat="44.577553758527614" lon="10.979680279667186"><ele>49.0</ele><time>2026-03-28T13:14:12.001Z</time></trkpt><trkpt lat="44.57735042448684" lon="10.979853466886585"><ele>49.0</ele><time>2026-03-28T13:14:13.001Z</time></trkpt><trkpt lat="44.57715798965363" lon="10.980040374131859"><ele>48.33333333333333</ele><time>2026-03-28T13:14:14.001Z</time></trkpt><trkpt lat="44.576975068272304" lon="10.980226045482054"><ele>47.666666666666664</ele><time>2026-03-28T13:14:15.001Z</time></trkpt><trkpt lat="44.57679757050692" lon="10.980401900326445"><ele>47.0</ele><time>2026-03-28T13:14:16.001Z</time></trkpt><trkpt lat="44.576620759403184" lon="10.980570748629708"><ele>47.0</ele><time>2026-03-28T13:14:17.001Z</time></trkpt><trkpt lat="44.57645866278983" lon="10.980741488555564"><ele>47.0</ele><time>2026-03-28T13:14:18.001Z</time></trkpt><trkpt lat="44.5762909573939" lon="10.980908549167449"><ele>47.0</ele><time>2026-03-28T13:14:19.001Z</time></trkpt><trkpt lat="44.57612640648752" lon="10.98107196274746"><ele>47.0</ele><time>2026-03-28T13:14:20.001Z</time></trkpt><trkpt lat="44.57596724336448" lon="10.981229099577382"><ele>47.0</ele><time>2026-03-28T13:14:21.001Z</time></trkpt><trkpt lat="44.57581874141903" lon="10.981375651148317"><ele>47.0</ele><time>2026-03-28T13:14:22.001Z</time></trkpt><trkpt lat="44.57567122850933" lon="10.981518589704436"><ele>47.0</ele><time>2026-03-28T13:14:23.001Z</time></trkpt><trkpt lat="44.57553150487387" lon="10.98165620618799"><ele>47.0</ele><time>2026-03-28T13:14:24.001Z</time></trkpt><trkpt lat="44.5753926387041" lon="10.981796127992116"><ele>47.0</ele><time>2026-03-28T13:14:25.001Z</time></trkpt><trkpt lat="44.575253043600114" lon="10.981934722082114"><ele>47.33333333333333</ele><time>2026-03-28T13:14:26.001Z</time></trkpt><trkpt lat="44.57511388093661" lon="10.9820704052507"><ele>47.666666666666664</ele><time>2026-03-28T13:14:27.001Z</time></trkpt><trkpt lat="44.574971803786255" lon="10.982214102482052"><ele>48.0</ele><time>2026-03-28T13:14:28.001Z</time></trkpt><trkpt lat="44.57483978618125" lon="10.982357429810383"><ele>48.0</ele><time>2026-03-28T13:14:29.001Z</time></trkpt><trkpt lat="44.57472110885545" lon="10.982491660912075"><ele>48.0</ele><time>2026-03-28T13:14:30.001Z</time></trkpt><trkpt lat="44.57461430205437" lon="10.98262302416872"><ele>48.0</ele><time>2026-03-28T13:14:31.001Z</time></trkpt><trkpt lat="44.57451094390528" lon="10.98274398167672"><ele>48.0</ele><time>2026-03-28T13:14:32.001Z</time></trkpt><trkpt lat="44.574409606963385" lon="10.982862822627027"><ele>48.4</ele><time>2026-03-28T13:14:33.001Z</time></trkpt><trkpt lat="44.57431136587734" lon="10.982963374124454"><ele>48.8</ele><time>2026-03-28T13:14:34.001Z</time></trkpt><trkpt lat="44.57420966528083" lon="10.983011980585268"><ele>49.2</ele><time>2026-03-28T13:14:35.001Z</time></trkpt><trkpt lat="44.574101568621934" lon="10.98298818974483"><ele>49.6</ele><time>2026-03-28T13:14:36.001Z</time></trkpt><trkpt lat="44.574003776371384" lon="10.982934891305907"><ele>50.0</ele><time>2026-03-28T13:14:37.001Z</time></trkpt><trkpt lat="44.57389321130412" lon="10.982899309230222"><ele>50.0</ele><time>2026-03-28T13:14:38.001Z</time></trkpt><trkpt lat="44.5737789805006" lon="10.982919976228073"><ele>50.0</ele><time>2026-03-28T13:14:39.001Z</time></trkpt><trkpt lat="44.57367282590352" lon="10.982999507550675"><ele>50.0</ele><time>2026-03-28T13:14:40.001Z</time></trkpt><trkpt lat="44.573586278685475" lon="10.983122245919951"><ele>50.0</ele><time>2026-03-28T13:14:41.001Z</time></trkpt><trkpt lat="44.57353016964238" lon="10.983274178748479"><ele>49.5</ele><time>2026-03-28T13:14:42.001Z</time></trkpt><trkpt lat="44.57353094006406" lon="10.983456240513423"><ele>49.0</ele><time>2026-03-28T13:14:43.001Z</time></trkpt><trkpt lat="44.57354949998636" lon="10.983628398844225"><ele>48.5</ele><time>2026-03-28T13:14:44.001Z</time></trkpt><trkpt lat="44.57357681755784" lon="10.983777752357787"><ele>48.0</ele><time>2026-03-28T13:14:45.001Z</time></trkpt><trkpt lat="44.57341752017519" lon="10.983902987980098"><ele>48.0</ele><time>2026-03-28T13:14:46.001Z</time></trkpt><trkpt lat="44.5733174022323" lon="10.983960360383715"><ele>48.0</ele><time>2026-03-28T13:14:47.001Z</time></trkpt><trkpt lat="44.57319133677845" lon="10.984017888836663"><ele>48.0</ele><time>2026-03-28T13:14:48.001Z</time></trkpt><trkpt lat="44.573054799379015" lon="10.984120814690638"><ele>48.0</ele><time>2026-03-28T13:14:49.001Z</time></trkpt><trkpt lat="44.572904331111566" lon="10.984246282609853"><ele>47.666666666666664</ele><time>2026-03-28T13:14:50.001Z</time></trkpt><trkpt lat="44.57274307992169" lon="10.984387379777598"><ele>47.33333333333333</ele><time>2026-03-28T13:14:51.001Z</time></trkpt><trkpt lat="44.57258024637292" lon="10.984529441534661"><ele>47.0</ele><time>2026-03-28T13:14:52.001Z</time></trkpt><trkpt lat="44.572414539792476" lon="10.9846782104192"><ele>47.0</ele><time>2026-03-28T13:14:53.001Z</time></trkpt><trkpt lat="44.57224546584106" lon="10.98483259717478"><ele>47.0</ele><time>2026-03-28T13:14:54.001Z</time></trkpt><trkpt lat="44.572081483026" lon="10.984986869147434"><ele>47.0</ele><time>2026-03-28T13:14:55.001Z</time></trkpt><trkpt lat="44.57191562396855" lon="10.98514053279038"><ele>47.0</ele><time>2026-03-28T13:14:56.001Z</time></trkpt><trkpt lat="44.571754298273" lon="10.985290731708293"><ele>47.0</ele><time>2026-03-28T13:14:57.001Z</time></trkpt><trkpt lat="44.57159636955153" lon="10.985438257078943"><ele>47.0</ele><time>2026-03-28T13:14:58.001Z</time></trkpt><trkpt lat="44.57144202714757" lon="10.985580600435798"><ele>47.0</ele><time>2026-03-28T13:14:59.001Z</time></trkpt><trkpt lat="44.57129430363336" lon="10.985720425783281"><ele>47.0</ele><time>2026-03-28T13:15:00.001Z</time></trkpt><trkpt lat="44.571152098777915" lon="10.985859876512109"><ele>47.0</ele><time>2026-03-28T13:15:01.001Z</time></trkpt><trkpt lat="44.57101287416314" lon="10.985997030858183"><ele>47.33333333333333</ele><time>2026-03-28T13:15:02.001Z</time></trkpt><trkpt lat="44.57087301715539" lon="10.986125949055912"><ele>47.666666666666664</ele><time>2026-03-28T13:15:03.001Z</time></trkpt><trkpt lat="44.57073139377369" lon="10.98623566445082"><ele>48.0</ele><time>2026-03-28T13:15:04.001Z</time></trkpt><trkpt lat="44.57058419130567" lon="10.986324347717256"><ele>48.0</ele><time>2026-03-28T13:15:05.001Z</time></trkpt><trkpt lat="44.570435509758234" lon="10.986390836933593"><ele>48.0</ele><time>2026-03-28T13:15:06.001Z</time></trkpt><trkpt lat="44.570289270328495" lon="10.986444360136593"><ele>48.0</ele><time>2026-03-28T13:15:07.001Z</time></trkpt><trkpt lat="44.570147027041884" lon="10.986504496631943"><ele>48.0</ele><time>2026-03-28T13:15:08.001Z</time></trkpt><trkpt lat="44.57001031304947" lon="10.986590753775866"><ele>48.0</ele><time>2026-03-28T13:15:09.001Z</time></trkpt><trkpt lat="44.56988480939472" lon="10.986702889959288"><ele>48.0</ele><time>2026-03-28T13:15:10.001Z</time></trkpt><trkpt lat="44.56976961633353" lon="10.98682683273279"><ele>48.0</ele><time>2026-03-28T13:15:11.001Z</time></trkpt><trkpt lat="44.56966901676948" lon="10.986946017000614"><ele>47.8</ele><time>2026-03-28T13:15:12.001Z</time></trkpt><trkpt lat="44.569560713494894" lon="10.98702977386322"><ele>47.599999999999994</ele><time>2026-03-28T13:15:13.001Z</time></trkpt><trkpt lat="44.56947318159417" lon="10.987120593535693"><ele>47.400000000000006</ele><time>2026-03-28T13:15:14.001Z</time></trkpt><trkpt lat="44.569406387534855" lon="10.987189896380722"><ele>47.2</ele><time>2026-03-28T13:15:15.001Z</time></trkpt><trkpt lat="44.569349581865595" lon="10.987248835689195"><ele>47.0</ele><time>2026-03-28T13:15:16.001Z</time></trkpt><trkpt lat="44.5692968940743" lon="10.987303502450898"><ele>47.0</ele><time>2026-03-28T13:15:17.001Z</time></trkpt><trkpt lat="44.569204155429304" lon="10.98739774468351"><ele>47.0</ele><time>2026-03-28T13:15:19.001Z</time></trkpt><trkpt lat="44.569142792413366" lon="10.987459943591526"><ele>47.0</ele><time>2026-03-28T13:15:20.001Z</time></trkpt><trkpt lat="44.56906964811641" lon="10.987532342634506"><ele>47.0</ele><time>2026-03-28T13:15:21.001Z</time></trkpt><trkpt lat="44.56897334289504" lon="10.987626958290287"><ele>47.0</ele><time>2026-03-28T13:15:22.001Z</time></trkpt><trkpt lat="44.56884907025413" lon="10.987749050712667"><ele>47.33333333333333</ele><time>2026-03-28T13:15:23.001Z</time></trkpt><trkpt lat="44.56870383662053" lon="10.987892746301437"><ele>47.666666666666664</ele><time>2026-03-28T13:15:24.001Z</time></trkpt><trkpt lat="44.56853256665594" lon="10.988066373705104"><ele>48.0</ele><time>2026-03-28T13:15:25.001Z</time></trkpt><trkpt lat="44.56834979345203" lon="10.988251251585096"><ele>46.0</ele><time>2026-03-28T13:15:26.001Z</time></trkpt><trkpt lat="44.56815455607463" lon="10.988447216637343"><ele>44.0</ele><time>2026-03-28T13:15:27.001Z</time></trkpt><trkpt lat="44.56794701855636" lon="10.988657768024229"><ele>46.0</ele><time>2026-03-28T13:15:28.002Z</time></trkpt><trkpt lat="44.56773436852921" lon="10.988874303656333"><ele>48.0</ele><time>2026-03-28T13:15:29.002Z</time></trkpt><trkpt lat="44.5675313414934" lon="10.98911904729404"><ele>47.0</ele><time>2026-03-28T13:15:30.002Z</time></trkpt><trkpt lat="44.567313832837144" lon="10.989341984611174"><ele>46.0</ele><time>2026-03-28T13:15:31.002Z</time></trkpt><trkpt lat="44.567101983707374" lon="10.989566889370336"><ele>47.5</ele><time>2026-03-28T13:15:32.002Z</time></trkpt><trkpt lat="44.56687922566212" lon="10.98978575814049"><ele>49.0</ele><time>2026-03-28T13:15:33.002Z</time></trkpt><trkpt lat="44.56664524532937" lon="10.98997532668695"><ele>49.0</ele><time>2026-03-28T13:15:34.002Z</time></trkpt><trkpt lat="44.566433087974545" lon="10.990190403804505"><ele>49.0</ele><time>2026-03-28T13:15:35.002Z</time></trkpt><trkpt lat="44.566229945593" lon="10.990417408919692"><ele>49.5</ele><time>2026-03-28T13:15:36.002Z</time></trkpt><trkpt lat="44.566020726394804" lon="10.990617606690876"><ele>50.0</ele><time>2026-03-28T13:15:37.002Z</time></trkpt><trkpt lat="44.56582140864759" lon="10.990817614361116"><ele>51.0</ele><time>2026-03-28T13:15:38.002Z</time></trkpt><trkpt lat="44.565631197232534" lon="10.991014546609708"><ele>52.0</ele><time>2026-03-28T13:15:39.002Z</time></trkpt><trkpt lat="44.56544479834245" lon="10.9912039734776"><ele>51.33333333333333</ele><time>2026-03-28T13:15:40.002Z</time></trkpt><trkpt lat="44.56526415679209" lon="10.991378214228696"><ele>50.66666666666667</ele><time>2026-03-28T13:15:41.002Z</time></trkpt><trkpt lat="44.56508275057502" lon="10.991538143480449"><ele>50.0</ele><time>2026-03-28T13:15:42.002Z</time></trkpt><trkpt lat="44.56490356304861" lon="10.991695545570728"><ele>49.333333333333336</ele><time>2026-03-28T13:15:43.002Z</time></trkpt><trkpt lat="44.56473179798675" lon="10.991853719446386"><ele>48.66666666666667</ele><time>2026-03-28T13:15:44.002Z</time></trkpt><trkpt lat="44.564561950520115" lon="10.992013449649171"><ele>48.0</ele><time>2026-03-28T13:15:45.002Z</time></trkpt><trkpt lat="44.56440176275436" lon="10.992165064887281"><ele>48.0</ele><time>2026-03-28T13:15:46.002Z</time></trkpt><trkpt lat="44.56423778590082" lon="10.992313922552617"><ele>48.0</ele><time>2026-03-28T13:15:47.002Z</time></trkpt><trkpt lat="44.56407119212805" lon="10.99246858608253"><ele>48.0</ele><time>2026-03-28T13:15:48.002Z</time></trkpt><trkpt lat="44.56390101080746" lon="10.992628859327965"><ele>48.0</ele><time>2026-03-28T13:15:49.002Z</time></trkpt><trkpt lat="44.563728569278" lon="10.992787387765757"><ele>48.0</ele><time>2026-03-28T13:15:50.002Z</time></trkpt><trkpt lat="44.56355734561371" lon="10.992944896684676"><ele>48.0</ele><time>2026-03-28T13:15:51.002Z</time></trkpt><trkpt lat="44.5633962660835" lon="10.993091421653675"><ele>48.0</ele><time>2026-03-28T13:15:52.002Z</time></trkpt><trkpt lat="44.56323912352072" lon="10.993236184951169"><ele>48.0</ele><time>2026-03-28T13:15:53.002Z</time></trkpt><trkpt lat="44.56308436349384" lon="10.993378572246062"><ele>48.0</ele><time>2026-03-28T13:15:54.002Z</time></trkpt><trkpt lat="44.56293215184123" lon="10.993515936406324"><ele>48.0</ele><time>2026-03-28T13:15:55.002Z</time></trkpt><trkpt lat="44.562782551279625" lon="10.993653587906506"><ele>48.0</ele><time>2026-03-28T13:15:56.002Z</time></trkpt><trkpt lat="44.56263504693042" lon="10.993792873076876"><ele>48.0</ele><time>2026-03-28T13:15:57.002Z</time></trkpt><trkpt lat="44.56249123476697" lon="10.993925225715262"><ele>48.0</ele><time>2026-03-28T13:15:58.002Z</time></trkpt><trkpt lat="44.56236749446924" lon="10.994046413009066"><ele>48.0</ele><time>2026-03-28T13:15:59Z</time></trkpt><trkpt lat="44.562239724825254" lon="10.99413760282435"><ele>48.0</ele><time>2026-03-28T13:16:00Z</time></trkpt><trkpt lat="44.56212440151139" lon="10.994243906737513"><ele>48.0</ele><time>2026-03-28T13:16:01Z</time></trkpt><trkpt lat="44.562001033828" lon="10.99435774319974"><ele>49.0</ele><time>2026-03-28T13:16:02Z</time></trkpt><trkpt lat="44.56187974734614" lon="10.994480729325328"><ele>50.0</ele><time>2026-03-28T13:16:03Z</time></trkpt><trkpt lat="44.56175418228818" lon="10.994608940284401"><ele>51.0</ele><time>2026-03-28T13:16:04Z</time></trkpt><trkpt lat="44.561613342078594" lon="10.994731869456784"><ele>51.0</ele><time>2026-03-28T13:16:05Z</time></trkpt><trkpt lat="44.56145501446661" lon="10.994864747640266"><ele>51.0</ele><time>2026-03-28T13:16:06Z</time></trkpt><trkpt lat="44.56130071861245" lon="10.99502984452614"><ele>51.0</ele><time>2026-03-28T13:16:07Z</time></trkpt><trkpt lat="44.5611308304399" lon="10.995188586280198"><ele>51.5</ele><time>2026-03-28T13:16:08Z</time></trkpt><trkpt lat="44.560942347746234" lon="10.99536663687572"><ele>52.0</ele><time>2026-03-28T13:16:09Z</time></trkpt><trkpt lat="44.5607178531463" lon="10.995553754341907"><ele>52.0</ele><time>2026-03-28T13:16:10Z</time></trkpt><trkpt lat="44.560488337734284" lon="10.99576939570544"><ele>52.0</ele><time>2026-03-28T13:16:11Z</time></trkpt><trkpt lat="44.560260179968274" lon="10.99599428062989"><ele>53.0</ele><time>2026-03-28T13:16:12Z</time></trkpt><trkpt lat="44.560032815928245" lon="10.996188831404996"><ele>54.0</ele><time>2026-03-28T13:16:13Z</time></trkpt><trkpt lat="44.559816112748685" lon="10.996386505354863"><ele>54.0</ele><time>2026-03-28T13:16:14Z</time></trkpt><trkpt lat="44.55961095827992" lon="10.99658054394324"><ele>54.0</ele><time>2026-03-28T13:16:15Z</time></trkpt><trkpt lat="44.55940940158058" lon="10.996766746824193"><ele>53.0</ele><time>2026-03-28T13:16:16Z</time></trkpt><trkpt lat="44.5592137359406" lon="10.996944101937515"><ele>52.0</ele><time>2026-03-28T13:16:17Z</time></trkpt><trkpt lat="44.559020280599626" lon="10.997124128783753"><ele>52.0</ele><time>2026-03-28T13:16:18Z</time></trkpt><trkpt lat="44.55883075800043" lon="10.99729939521818"><ele>52.0</ele><time>2026-03-28T13:16:19Z</time></trkpt><trkpt lat="44.55864045402624" lon="10.99748355796082"><ele>51.666666666666664</ele><time>2026-03-28T13:16:20Z</time></trkpt><trkpt lat="44.55845051532083" lon="10.997654743343723"><ele>51.33333333333333</ele><time>2026-03-28T13:16:21Z</time></trkpt><trkpt lat="44.55826911261405" lon="10.997819287962589"><ele>51.0</ele><time>2026-03-28T13:16:22Z</time></trkpt><trkpt lat="44.558083458590524" lon="10.997997680520744"><ele>51.0</ele><time>2026-03-28T13:16:23Z</time></trkpt><trkpt lat="44.55790644011788" lon="10.998162528773404"><ele>51.0</ele><time>2026-03-28T13:16:24Z</time></trkpt><trkpt lat="44.557726576712454" lon="10.998318858540062"><ele>51.0</ele><time>2026-03-28T13:16:25Z</time></trkpt><trkpt lat="44.557545974811404" lon="10.998486423693057"><ele>51.0</ele><time>2026-03-28T13:16:26Z</time></trkpt><trkpt lat="44.55737183005473" lon="10.99864974401756"><ele>51.0</ele><time>2026-03-28T13:16:27.001Z</time></trkpt><trkpt lat="44.55719447611841" lon="10.998823172954763"><ele>51.0</ele><time>2026-03-28T13:16:28.001Z</time></trkpt><trkpt lat="44.55702251062692" lon="10.998989588176448"><ele>51.0</ele><time>2026-03-28T13:16:29.001Z</time></trkpt><trkpt lat="44.556849846209566" lon="10.999147802903098"><ele>51.0</ele><time>2026-03-28T13:16:30.001Z</time></trkpt><trkpt lat="44.55667490604395" lon="10.999305587575886"><ele>51.0</ele><time>2026-03-28T13:16:31.001Z</time></trkpt><trkpt lat="44.55650150603201" lon="10.99946613966849"><ele>50.66666666666667</ele><time>2026-03-28T13:16:32.001Z</time></trkpt><trkpt lat="44.55632965350744" lon="10.9996265130517"><ele>50.333333333333336</ele><time>2026-03-28T13:16:33.001Z</time></trkpt><trkpt lat="44.5561555552244" lon="10.999785762925235"><ele>50.0</ele><time>2026-03-28T13:16:34.001Z</time></trkpt><trkpt lat="44.5559781822811" lon="10.999947549614891"><ele>50.66666666666667</ele><time>2026-03-28T13:16:35.001Z</time></trkpt><trkpt lat="44.555799367511504" lon="11.000106631802604"><ele>51.33333333333333</ele><time>2026-03-28T13:16:36.001Z</time></trkpt><trkpt lat="44.55562384951619" lon="11.000266982780689"><ele>52.0</ele><time>2026-03-28T13:16:37.001Z</time></trkpt><trkpt lat="44.55545160918773" lon="11.000430978332268"><ele>52.33333333333333</ele><time>2026-03-28T13:16:38.001Z</time></trkpt><trkpt lat="44.55527652989236" lon="11.000585421160748"><ele>52.66666666666667</ele><time>2026-03-28T13:16:39.001Z</time></trkpt><trkpt lat="44.555103727819905" lon="11.000749128393359"><ele>53.0</ele><time>2026-03-28T13:16:40.001Z</time></trkpt><trkpt lat="44.554933089733574" lon="11.00089902808809"><ele>53.333333333333336</ele><time>2026-03-28T13:16:41.001Z</time></trkpt><trkpt lat="44.55476412704852" lon="11.001057346477381"><ele>53.66666666666667</ele><time>2026-03-28T13:16:42.001Z</time></trkpt><trkpt lat="44.55459481777083" lon="11.001214676012593"><ele>54.0</ele><time>2026-03-28T13:16:43.001Z</time></trkpt><trkpt lat="44.554424282004994" lon="11.001374699865423"><ele>53.33333333333333</ele><time>2026-03-28T13:16:44.001Z</time></trkpt><trkpt lat="44.55425664315687" lon="11.001530190475638"><ele>52.666666666666664</ele><time>2026-03-28T13:16:45.001Z</time></trkpt><trkpt lat="44.55408728785046" lon="11.001684921634512"><ele>52.0</ele><time>2026-03-28T13:16:46.001Z</time></trkpt><trkpt lat="44.55391556647826" lon="11.001839824558168"><ele>52.0</ele><time>2026-03-28T13:16:47.001Z</time></trkpt><trkpt lat="44.55375034364072" lon="11.002001258679504"><ele>52.0</ele><time>2026-03-28T13:16:48.001Z</time></trkpt><trkpt lat="44.553609910205715" lon="11.002141213758073"><ele>52.0</ele><time>2026-03-28T13:16:49.001Z</time></trkpt><trkpt lat="44.55345954961599" lon="11.002238358122327"><ele>51.666666666666664</ele><time>2026-03-28T13:16:50.001Z</time></trkpt><trkpt lat="44.553332647286624" lon="11.002378391085182"><ele>51.33333333333333</ele><time>2026-03-28T13:16:51.001Z</time></trkpt><trkpt lat="44.553202807765004" lon="11.002498423936595"><ele>51.0</ele><time>2026-03-28T13:16:52.001Z</time></trkpt><trkpt lat="44.55308165493604" lon="11.002614887295834"><ele>51.75</ele><time>2026-03-28T13:16:53.001Z</time></trkpt><trkpt lat="44.55296827795581" lon="11.002720735371621"><ele>52.5</ele><time>2026-03-28T13:16:54.001Z</time></trkpt><trkpt lat="44.55286013806095" lon="11.002804917734482"><ele>53.25</ele><time>2026-03-28T13:16:55.001Z</time></trkpt><trkpt lat="44.55276230847591" lon="11.00284751288654"><ele>54.0</ele><time>2026-03-28T13:16:56.001Z</time></trkpt><trkpt lat="44.55266289527601" lon="11.002836584647252"><ele>54.0</ele><time>2026-03-28T13:16:57.001Z</time></trkpt><trkpt lat="44.55255765706195" lon="11.002804447971483"><ele>54.0</ele><time>2026-03-28T13:16:58.001Z</time></trkpt><trkpt lat="44.55244606155703" lon="11.0027949916329"><ele>54.0</ele><time>2026-03-28T13:16:59.001Z</time></trkpt><trkpt lat="44.552332904708926" lon="11.00272363235464"><ele>54.0</ele><time>2026-03-28T13:17:00.001Z</time></trkpt><trkpt lat="44.55218172649178" lon="11.002672163829633"><ele>52.5</ele><time>2026-03-28T13:17:01.001Z</time></trkpt><trkpt lat="44.55200058735227" lon="11.002475858792268"><ele>51.0</ele><time>2026-03-28T13:17:02.001Z</time></trkpt><trkpt lat="44.55177833237283" lon="11.002339496280547"><ele>51.0</ele><time>2026-03-28T13:17:03.001Z</time></trkpt><trkpt lat="44.55156756073707" lon="11.002150975733617"><ele>51.0</ele><time>2026-03-28T13:17:04.001Z</time></trkpt><trkpt lat="44.5513474632521" lon="11.001967340371008"><ele>51.0</ele><time>2026-03-28T13:17:05.001Z</time></trkpt><trkpt lat="44.55112206744278" lon="11.00180565851969"><ele>51.0</ele><time>2026-03-28T13:17:06.001Z</time></trkpt><trkpt lat="44.55090588491338" lon="11.001658403034273"><ele>51.5</ele><time>2026-03-28T13:17:07.001Z</time></trkpt><trkpt lat="44.55069730159609" lon="11.001509596417048"><ele>52.0</ele><time>2026-03-28T13:17:08.001Z</time></trkpt><trkpt lat="44.55050435832809" lon="11.001362438934407"><ele>52.33333333333333</ele><time>2026-03-28T13:17:09.001Z</time></trkpt><trkpt lat="44.5503204554753" lon="11.00122533347747"><ele>52.66666666666667</ele><time>2026-03-28T13:17:10.001Z</time></trkpt><trkpt lat="44.55014831386476" lon="11.00109736972831"><ele>53.0</ele><time>2026-03-28T13:17:11.001Z</time></trkpt><trkpt lat="44.549983507143985" lon="11.000972873713954"><ele>53.0</ele><time>2026-03-28T13:17:12.001Z</time></trkpt><trkpt lat="44.54982612570606" lon="11.0008542354354"><ele>53.0</ele><time>2026-03-28T13:17:13.001Z</time></trkpt><trkpt lat="44.5496731654971" lon="11.000741987842062"><ele>53.0</ele><time>2026-03-28T13:17:14.001Z</time></trkpt><trkpt lat="44.54954276891667" lon="11.00064427571447"><ele>53.0</ele><time>2026-03-28T13:17:15.001Z</time></trkpt><trkpt lat="44.54943050181078" lon="11.000560237650324"><ele>53.0</ele><time>2026-03-28T13:17:16.001Z</time></trkpt><trkpt lat="44.54933701703189" lon="11.000489572733274"><ele>53.0</ele><time>2026-03-28T13:17:17.001Z</time></trkpt><trkpt lat="44.5492637466008" lon="11.000409741822995"><ele>53.0</ele><time>2026-03-28T13:17:18.001Z</time></trkpt><trkpt lat="44.54922862787325" lon="11.000281340202665"><ele>53.0</ele><time>2026-03-28T13:17:19.001Z</time></trkpt><trkpt lat="44.549172111390405" lon="11.000164748992237"><ele>53.0</ele><time>2026-03-28T13:17:20.001Z</time></trkpt><trkpt lat="44.54907295368798" lon="11.00008898341687"><ele>53.0</ele><time>2026-03-28T13:17:21.001Z</time></trkpt><trkpt lat="44.54896122459618" lon="11.000060980099736"><ele>53.0</ele><time>2026-03-28T13:17:22.001Z</time></trkpt><trkpt lat="44.54884919283898" lon="11.000132020948088"><ele>53.0</ele><time>2026-03-28T13:17:23.001Z</time></trkpt><trkpt lat="44.54868241660542" lon="11.000043462909307"><ele>53.333333333333336</ele><time>2026-03-28T13:17:24.001Z</time></trkpt><trkpt lat="44.548527198787234" lon="10.99991970060737"><ele>53.66666666666667</ele><time>2026-03-28T13:17:25.001Z</time></trkpt><trkpt lat="44.54834627854406" lon="10.999816616293842"><ele>54.0</ele><time>2026-03-28T13:17:26.001Z</time></trkpt><trkpt lat="44.54814397552239" lon="10.999662669561728"><ele>54.0</ele><time>2026-03-28T13:17:27.001Z</time></trkpt><trkpt lat="44.547912113891336" lon="10.999502687346988"><ele>54.0</ele><time>2026-03-28T13:17:28.001Z</time></trkpt><trkpt lat="44.54764534978921" lon="10.999335060244613"><ele>54.0</ele><time>2026-03-28T13:17:29.001Z</time></trkpt><trkpt lat="44.54735217724705" lon="10.999183420349196"><ele>54.0</ele><time>2026-03-28T13:17:30.001Z</time></trkpt><trkpt lat="44.54708053528934" lon="10.999059966448403"><ele>53.66666666666667</ele><time>2026-03-28T13:17:31.001Z</time></trkpt><trkpt lat="44.54684303395812" lon="10.9989605204441"><ele>53.333333333333336</ele><time>2026-03-28T13:17:32.001Z</time></trkpt><trkpt lat="44.546657735750635" lon="10.998882564070984"><ele>53.0</ele><time>2026-03-28T13:17:33.001Z</time></trkpt><trkpt lat="44.54651862005268" lon="10.998825357527789"><ele>53.00000000000001</ele><time>2026-03-28T13:17:34.001Z</time></trkpt><trkpt lat="44.54643425450247" lon="10.998787555564684"><ele>53.0</ele><time>2026-03-28T13:17:35.001Z</time></trkpt><trkpt lat="44.546373532743914" lon="10.99873734801511"><ele>53.0</ele><time>2026-03-28T13:17:36.001Z</time></trkpt><trkpt lat="44.54633726062724" lon="10.998620663732673"><ele>53.0</ele><time>2026-03-28T13:17:37.001Z</time></trkpt><trkpt lat="44.54626597653826" lon="10.998540998333517"><ele>53.00000000000001</ele><time>2026-03-28T13:17:38.001Z</time></trkpt><trkpt lat="44.546185894826266" lon="10.99848680621711"><ele>53.0</ele><time>2026-03-28T13:17:39.001Z</time></trkpt><trkpt lat="44.54608740921708" lon="10.998517743601605"><ele>53.5</ele><time>2026-03-28T13:17:40.001Z</time></trkpt><trkpt lat="44.54601502639357" lon="10.998646724985106"><ele>54.0</ele><time>2026-03-28T13:17:41.001Z</time></trkpt><trkpt lat="44.545990729927105" lon="10.998810856957094"><ele>54.5</ele><time>2026-03-28T13:17:42.001Z</time></trkpt><trkpt lat="44.54601123509065" lon="10.998982989267851"><ele>55.0</ele><time>2026-03-28T13:17:43.002Z</time></trkpt><trkpt lat="44.54606734244256" lon="10.999111402483175"><ele>55.0</ele><time>2026-03-28T13:17:44.002Z</time></trkpt><trkpt lat="44.54594381891294" lon="10.9991997819603"><ele>55.0</ele><time>2026-03-28T13:17:45.002Z</time></trkpt><trkpt lat="44.545835870098855" lon="10.999272776831974"><ele>55.0</ele><time>2026-03-28T13:17:46.002Z</time></trkpt><trkpt lat="44.545723474206056" lon="10.99937614460398"><ele>55.0</ele><time>2026-03-28T13:17:47.002Z</time></trkpt><trkpt lat="44.545626782280216" lon="10.999471908725312"><ele>55.0</ele><time>2026-03-28T13:17:48.002Z</time></trkpt><trkpt lat="44.545549931246896" lon="10.999611861312093"><ele>55.0</ele><time>2026-03-28T13:17:49.002Z</time></trkpt><trkpt lat="44.54544195289317" lon="10.999794882839975"><ele>55.0</ele><time>2026-03-28T13:17:50.002Z</time></trkpt><trkpt lat="44.54532278559364" lon="11.000032484877877"><ele>56.33333333333333</ele><time>2026-03-28T13:17:51.002Z</time></trkpt><trkpt lat="44.545215178778776" lon="11.000288484774838"><ele>57.66666666666667</ele><time>2026-03-28T13:17:52.002Z</time></trkpt><trkpt lat="44.54510921021971" lon="11.000535557703685"><ele>59.0</ele><time>2026-03-28T13:17:53.002Z</time></trkpt><trkpt lat="44.54499294022154" lon="11.00076565149539"><ele>58.66666666666667</ele><time>2026-03-28T13:17:54.002Z</time></trkpt><trkpt lat="44.544883307402" lon="11.00100744714904"><ele>58.33333333333333</ele><time>2026-03-28T13:17:55.002Z</time></trkpt><trkpt lat="44.544777424667465" lon="11.00124006351934"><ele>58.0</ele><time>2026-03-28T13:17:56.002Z</time></trkpt><trkpt lat="44.54468491603343" lon="11.00147359410698"><ele>57.666666666666664</ele><time>2026-03-28T13:17:57.002Z</time></trkpt><trkpt lat="44.54458109285599" lon="11.001684592385724"><ele>57.33333333333333</ele><time>2026-03-28T13:17:58.002Z</time></trkpt><trkpt lat="44.54448748184079" lon="11.001881334835147"><ele>57.0</ele><time>2026-03-28T13:17:59.002Z</time></trkpt><trkpt lat="44.54439559077394" lon="11.002085958192678"><ele>57.0</ele><time>2026-03-28T13:18:00.002Z</time></trkpt><trkpt lat="44.544303030055694" lon="11.002302808497182"><ele>57.0</ele><time>2026-03-28T13:18:01.002Z</time></trkpt><trkpt lat="44.54421034806306" lon="11.002514888747635"><ele>57.0</ele><time>2026-03-28T13:18:02.002Z</time></trkpt><trkpt lat="44.54412151510917" lon="11.002712092178863"><ele>58.0</ele><time>2026-03-28T13:18:03.002Z</time></trkpt><trkpt lat="44.544034701023556" lon="11.002903803201074"><ele>59.0</ele><time>2026-03-28T13:18:04.002Z</time></trkpt><trkpt lat="44.54395177971749" lon="11.00308539603094"><ele>60.0</ele><time>2026-03-28T13:18:05.001Z</time></trkpt><trkpt lat="44.54387800752235" lon="11.003255288587116"><ele>60.0</ele><time>2026-03-28T13:18:06.001Z</time></trkpt><trkpt lat="44.5438042420994" lon="11.003414938580075"><ele>60.0</ele><time>2026-03-28T13:18:07.001Z</time></trkpt><trkpt lat="44.54373645573439" lon="11.003567617649376"><ele>60.0</ele><time>2026-03-28T13:18:08.001Z</time></trkpt><trkpt lat="44.54368525811049" lon="11.003697858089849"><ele>60.0</ele><time>2026-03-28T13:18:09.001Z</time></trkpt><trkpt lat="44.543612411314776" lon="11.003785537455258"><ele>60.0</ele><time>2026-03-28T13:18:11.001Z</time></trkpt><trkpt lat="44.543529346308894" lon="11.003706893089497"><ele>60.0</ele><time>2026-03-28T13:18:12.001Z</time></trkpt><trkpt lat="44.543438749162256" lon="11.003669513510227"><ele>60.0</ele><time>2026-03-28T13:18:13.001Z</time></trkpt><trkpt lat="44.54333234680628" lon="11.003598807095344"><ele>60.0</ele><time>2026-03-28T13:18:14.001Z</time></trkpt><trkpt lat="44.543206098956425" lon="11.003519914049809"><ele>60.0</ele><time>2026-03-28T13:18:15.001Z</time></trkpt><trkpt lat="44.543061169938746" lon="11.003446303496604"><ele>60.0</ele><time>2026-03-28T13:18:16.001Z</time></trkpt><trkpt lat="44.542904808626666" lon="11.003362749128195"><ele>60.0</ele><time>2026-03-28T13:18:17.001Z</time></trkpt><trkpt lat="44.542748959534805" lon="11.00327594980089"><ele>60.0</ele><time>2026-03-28T13:18:18.001Z</time></trkpt><trkpt lat="44.54257812809409" lon="11.00319225642273"><ele>60.0</ele><time>2026-03-28T13:18:19.001Z</time></trkpt><trkpt lat="44.54240335974838" lon="11.00309520430415"><ele>60.0</ele><time>2026-03-28T13:18:20.001Z</time></trkpt><trkpt lat="44.54222114311999" lon="11.002994718603857"><ele>59.66666666666667</ele><time>2026-03-28T13:18:21.001Z</time></trkpt><trkpt lat="44.542038011565964" lon="11.002894841502249"><ele>59.333333333333336</ele><time>2026-03-28T13:18:22.001Z</time></trkpt><trkpt lat="44.54185230262007" lon="11.002803826796665"><ele>59.0</ele><time>2026-03-28T13:18:23.001Z</time></trkpt><trkpt lat="44.54167035380182" lon="11.002683803030498"><ele>59.0</ele><time>2026-03-28T13:18:24.001Z</time></trkpt><trkpt lat="44.54148380531947" lon="11.00258597744148"><ele>59.0</ele><time>2026-03-28T13:18:25.001Z</time></trkpt><trkpt lat="44.54128927710069" lon="11.002493348782183"><ele>59.0</ele><time>2026-03-28T13:18:26.001Z</time></trkpt><trkpt lat="44.54109695101571" lon="11.002394809176279"><ele>59.333333333333336</ele><time>2026-03-28T13:18:27.001Z</time></trkpt><trkpt lat="44.54090682758873" lon="11.002281604213433"><ele>59.66666666666667</ele><time>2026-03-28T13:18:28.001Z</time></trkpt><trkpt lat="44.54072156052122" lon="11.002187398567095"><ele>60.0</ele><time>2026-03-28T13:18:29.001Z</time></trkpt><trkpt lat="44.54054033386543" lon="11.002067425327692"><ele>60.66666666666667</ele><time>2026-03-28T13:18:30.001Z</time></trkpt><trkpt lat="44.5403544884669" lon="11.00198132721546"><ele>61.333333333333336</ele><time>2026-03-28T13:18:31.001Z</time></trkpt><trkpt lat="44.54018276889801" lon="11.001879564573047"><ele>62.0</ele><time>2026-03-28T13:18:32.001Z</time></trkpt><trkpt lat="44.54001101115842" lon="11.001787363867136"><ele>62.0</ele><time>2026-03-28T13:18:33.001Z</time></trkpt><trkpt lat="44.53984152246245" lon="11.001702438754236"><ele>62.0</ele><time>2026-03-28T13:18:34.001Z</time></trkpt><trkpt lat="44.53967858254291" lon="11.001613705005294"><ele>62.0</ele><time>2026-03-28T13:18:35.001Z</time></trkpt><trkpt lat="44.53951677618661" lon="11.001545275196818"><ele>62.0</ele><time>2026-03-28T13:18:36.001Z</time></trkpt><trkpt lat="44.53935881223202" lon="11.00149102366847"><ele>62.0</ele><time>2026-03-28T13:18:37.001Z</time></trkpt><trkpt lat="44.53920576000535" lon="11.001447714414617"><ele>62.0</ele><time>2026-03-28T13:18:38.001Z</time></trkpt><trkpt lat="44.53903309345048" lon="11.001378016582528"><ele>62.0</ele><time>2026-03-28T13:18:39.001Z</time></trkpt><trkpt lat="44.53881383761571" lon="11.00130495963829"><ele>62.0</ele><time>2026-03-28T13:18:40.001Z</time></trkpt><trkpt lat="44.53858081744967" lon="11.001251045261485"><ele>61.66666666666667</ele><time>2026-03-28T13:18:41.001Z</time></trkpt><trkpt lat="44.5383603926138" lon="11.001162187793804"><ele>61.33333333333333</ele><time>2026-03-28T13:18:42.001Z</time></trkpt><trkpt lat="44.53814977541054" lon="11.001093506893033"><ele>61.0</ele><time>2026-03-28T13:18:43.001Z</time></trkpt><trkpt lat="44.537948897399595" lon="11.001029036983764"><ele>61.666666666666664</ele><time>2026-03-28T13:18:44.001Z</time></trkpt><trkpt lat="44.53775756005972" lon="11.000970685386395"><ele>62.33333333333333</ele><time>2026-03-28T13:18:45.001Z</time></trkpt><trkpt lat="44.53757275587869" lon="11.000917706604382"><ele>63.0</ele><time>2026-03-28T13:18:46.001Z</time></trkpt><trkpt lat="44.53739961361921" lon="11.000854693247765"><ele>62.66666666666667</ele><time>2026-03-28T13:18:47.001Z</time></trkpt><trkpt lat="44.53723769174452" lon="11.000799899727863"><ele>62.333333333333336</ele><time>2026-03-28T13:18:48.001Z</time></trkpt><trkpt lat="44.537099036656905" lon="11.000743062452715"><ele>62.0</ele><time>2026-03-28T13:18:49.001Z</time></trkpt><trkpt lat="44.53696664518242" lon="11.000685724699624"><ele>62.0</ele><time>2026-03-28T13:18:50.001Z</time></trkpt><trkpt lat="44.536847041152505" lon="11.000633185611818"><ele>62.0</ele><time>2026-03-28T13:18:51.001Z</time></trkpt><trkpt lat="44.5367389610727" lon="11.000578795620408"><ele>62.0</ele><time>2026-03-28T13:18:52.001Z</time></trkpt><trkpt lat="44.536649916248976" lon="11.000519931588949"><ele>62.0</ele><time>2026-03-28T13:18:53.001Z</time></trkpt><trkpt lat="44.53657708694616" lon="11.000465579089918"><ele>62.0</ele><time>2026-03-28T13:18:54.001Z</time></trkpt><trkpt lat="44.53656457293729" lon="11.000288349586917"><ele>62.0</ele><time>2026-03-28T13:18:55.001Z</time></trkpt><trkpt lat="44.53657202737559" lon="11.000134666027064"><ele>62.0</ele><time>2026-03-28T13:18:56.001Z</time></trkpt><trkpt lat="44.536574872630446" lon="10.999947071218312"><ele>62.0</ele><time>2026-03-28T13:18:57.001Z</time></trkpt><trkpt lat="44.536685544632334" lon="10.999713659872286"><ele>62.0</ele><time>2026-03-28T13:18:58.001Z</time></trkpt><trkpt lat="44.53678024744213" lon="10.999442407224285"><ele>62.0</ele><time>2026-03-28T13:18:59.001Z</time></trkpt><trkpt lat="44.53688203449031" lon="10.999159994567217"><ele>62.0</ele><time>2026-03-28T13:19:00.001Z</time></trkpt><trkpt lat="44.53698762040863" lon="10.998856627452945"><ele>62.0</ele><time>2026-03-28T13:19:01.001Z</time></trkpt><trkpt lat="44.5370850661397" lon="10.998559397249537"><ele>62.0</ele><time>2026-03-28T13:19:02.001Z</time></trkpt><trkpt lat="44.53716704710756" lon="10.998290443664299"><ele>62.0</ele><time>2026-03-28T13:19:03.001Z</time></trkpt><trkpt lat="44.53723679147192" lon="10.998013943505958"><ele>62.0</ele><time>2026-03-28T13:19:04.001Z</time></trkpt><trkpt lat="44.53727668902622" lon="10.997703369096763"><ele>62.0</ele><time>2026-03-28T13:19:05.001Z</time></trkpt><trkpt lat="44.53728326930977" lon="10.997381616287697"><ele>62.0</ele><time>2026-03-28T13:19:06.001Z</time></trkpt><trkpt lat="44.53726244716952" lon="10.997068715567377"><ele>62.0</ele><time>2026-03-28T13:19:07.001Z</time></trkpt><trkpt lat="44.537218609233676" lon="10.996777958714159"><ele>62.0</ele><time>2026-03-28T13:19:08.001Z</time></trkpt><trkpt lat="44.53714921452091" lon="10.99652636120294"><ele>62.66666666666667</ele><time>2026-03-28T13:19:09.001Z</time></trkpt><trkpt lat="44.53706307792961" lon="10.996291479869262"><ele>63.33333333333333</ele><time>2026-03-28T13:19:10.001Z</time></trkpt><trkpt lat="44.53691571556223" lon="10.996026771328069"><ele>64.0</ele><time>2026-03-28T13:19:11.001Z</time></trkpt><trkpt lat="44.53676161696847" lon="10.995711660580456"><ele>65.0</ele><time>2026-03-28T13:19:12.001Z</time></trkpt><trkpt lat="44.53658488419362" lon="10.995364835273653"><ele>66.0</ele><time>2026-03-28T13:19:13.001Z</time></trkpt><trkpt lat="44.536411546945146" lon="10.995007308083016"><ele>65.5</ele><time>2026-03-28T13:19:14.001Z</time></trkpt><trkpt lat="44.53625406061685" lon="10.994647150651605"><ele>65.0</ele><time>2026-03-28T13:19:15.001Z</time></trkpt><trkpt lat="44.53609125902854" lon="10.994310105955371"><ele>65.5</ele><time>2026-03-28T13:19:16.001Z</time></trkpt><trkpt lat="44.535938240197666" lon="10.99397142834424"><ele>66.0</ele><time>2026-03-28T13:19:17.001Z</time></trkpt><trkpt lat="44.535796746873714" lon="10.99362193212984"><ele>66.0</ele><time>2026-03-28T13:19:18.001Z</time></trkpt><trkpt lat="44.535669836533536" lon="10.993279109749434"><ele>66.0</ele><time>2026-03-28T13:19:19.001Z</time></trkpt><trkpt lat="44.535551518896526" lon="10.992957247739845"><ele>66.0</ele><time>2026-03-28T13:19:20.001Z</time></trkpt><trkpt lat="44.53543464787336" lon="10.992653482747107"><ele>66.0</ele><time>2026-03-28T13:19:21.001Z</time></trkpt><trkpt lat="44.535312274326486" lon="10.992348618616914"><ele>66.5</ele><time>2026-03-28T13:19:22.001Z</time></trkpt><trkpt lat="44.53516926038572" lon="10.992050301118047"><ele>67.0</ele><time>2026-03-28T13:19:23.001Z</time></trkpt><trkpt lat="44.535024058936756" lon="10.991763543185703"><ele>67.0</ele><time>2026-03-28T13:19:24.001Z</time></trkpt><trkpt lat="44.53486667886822" lon="10.991479352918871"><ele>67.0</ele><time>2026-03-28T13:19:25.001Z</time></trkpt><trkpt lat="44.53468192161675" lon="10.991152741511799"><ele>67.5</ele><time>2026-03-28T13:19:26.001Z</time></trkpt><trkpt lat="44.53448614094004" lon="10.990818580602125"><ele>68.0</ele><time>2026-03-28T13:19:27.001Z</time></trkpt><trkpt lat="44.534304610828634" lon="10.990547491581111"><ele>68.0</ele><time>2026-03-28T13:19:28.001Z</time></trkpt><trkpt lat="44.53412474022327" lon="10.990341382009865"><ele>68.0</ele><time>2026-03-28T13:19:29.001Z</time></trkpt><trkpt lat="44.53394582693231" lon="10.990159142483652"><ele>68.0</ele><time>2026-03-28T13:19:30.001Z</time></trkpt><trkpt lat="44.53377395635564" lon="10.990006796839632"><ele>68.0</ele><time>2026-03-28T13:19:31.001Z</time></trkpt><trkpt lat="44.533663546634344" lon="10.989833138490004"><ele>68.0</ele><time>2026-03-28T13:19:32.001Z</time></trkpt><trkpt lat="44.533592045740974" lon="10.989654252473402"><ele>68.25</ele><time>2026-03-28T13:19:33.001Z</time></trkpt><trkpt lat="44.53356698848853" lon="10.989483820993874"><ele>68.5</ele><time>2026-03-28T13:19:34.001Z</time></trkpt><trkpt lat="44.53354726719435" lon="10.989346045192155"><ele>68.75</ele><time>2026-03-28T13:19:35.001Z</time></trkpt><trkpt lat="44.533527358884236" lon="10.989192343419836"><ele>69.0</ele><time>2026-03-28T13:19:36.001Z</time></trkpt><trkpt lat="44.53349974603792" lon="10.98895915673295"><ele>69.0</ele><time>2026-03-28T13:19:37.001Z</time></trkpt><trkpt lat="44.533457784007645" lon="10.988604793124338"><ele>69.0</ele><time>2026-03-28T13:19:38.001Z</time></trkpt><trkpt lat="44.53342116972862" lon="10.988295590817554"><ele>69.33333333333333</ele><time>2026-03-28T13:19:39.001Z</time></trkpt><trkpt lat="44.53337633911214" lon="10.988020361741604"><ele>69.66666666666666</ele><time>2026-03-28T13:19:40.001Z</time></trkpt><trkpt lat="44.53335471986228" lon="10.987780664841923"><ele>70.0</ele><time>2026-03-28T13:19:41.001Z</time></trkpt><trkpt lat="44.533318913797785" lon="10.987570337702499"><ele>70.75</ele><time>2026-03-28T13:19:42.001Z</time></trkpt><trkpt lat="44.533281394048345" lon="10.987376406626371"><ele>71.5</ele><time>2026-03-28T13:19:43.001Z</time></trkpt><trkpt lat="44.53324606551226" lon="10.987199446119371"><ele>72.25</ele><time>2026-03-28T13:19:44.001Z</time></trkpt><trkpt lat="44.533211282818804" lon="10.987031603962254"><ele>73.0</ele><time>2026-03-28T13:19:45.001Z</time></trkpt><trkpt lat="44.533184139245755" lon="10.9868761657848"><ele>73.0</ele><time>2026-03-28T13:19:46.001Z</time></trkpt><trkpt lat="44.53318619577353" lon="10.986739822557318"><ele>73.0</ele><time>2026-03-28T13:19:47.001Z</time></trkpt><trkpt lat="44.533124348970155" lon="10.986637795293252"><ele>73.0</ele><time>2026-03-28T13:19:48.001Z</time></trkpt><trkpt lat="44.533083573235196" lon="10.986553950725188"><ele>73.0</ele><time>2026-03-28T13:19:49.001Z</time></trkpt><trkpt lat="44.53302164674287" lon="10.986426950835897"><ele>73.0</ele><time>2026-03-28T13:19:51.001Z</time></trkpt><trkpt lat="44.533069454692026" lon="10.986506691442369"><ele>73.0</ele><time>2026-03-28T13:20:10.002Z</time></trkpt><trkpt lat="44.5331689385442" lon="10.986599592769721"><ele>73.0</ele><time>2026-03-28T13:20:11.001Z</time></trkpt><trkpt lat="44.5331318089588" lon="10.98677869041269"><ele>73.0</ele><time>2026-03-28T13:20:13.001Z</time></trkpt><trkpt lat="44.53315577751842" lon="10.986905513017925"><ele>73.0</ele><time>2026-03-28T13:20:14.001Z</time></trkpt><trkpt lat="44.533181168084504" lon="10.987045914246742"><ele>73.0</ele><time>2026-03-28T13:20:15.001Z</time></trkpt><trkpt lat="44.533211873105785" lon="10.98719943894968"><ele>73.0</ele><time>2026-03-28T13:20:16.001Z</time></trkpt><trkpt lat="44.53324176745769" lon="10.987354288962255"><ele>72.25</ele><time>2026-03-28T13:20:17.001Z</time></trkpt><trkpt lat="44.53326726038433" lon="10.987515388299814"><ele>71.5</ele><time>2026-03-28T13:20:18.001Z</time></trkpt><trkpt lat="44.53329446252474" lon="10.987680770569842"><ele>70.75</ele><time>2026-03-28T13:20:19.001Z</time></trkpt><trkpt lat="44.53332211944533" lon="10.987841813604074"><ele>70.0</ele><time>2026-03-28T13:20:20.001Z</time></trkpt><trkpt lat="44.53334638479622" lon="10.987980980730441"><ele>70.0</ele><time>2026-03-28T13:20:21.001Z</time></trkpt><trkpt lat="44.53336562694028" lon="10.988104676250135"><ele>70.0</ele><time>2026-03-28T13:20:22.001Z</time></trkpt><trkpt lat="44.53337658077289" lon="10.988204295817992"><ele>70.0</ele><time>2026-03-28T13:20:23.001Z</time></trkpt><trkpt lat="44.53335367866836" lon="10.988339332547907"><ele>70.0</ele><time>2026-03-28T13:20:25.001Z</time></trkpt><trkpt lat="44.53329022376238" lon="10.988350065435837"><ele>70.0</ele><time>2026-03-28T13:20:26.001Z</time></trkpt><trkpt lat="44.533217462125016" lon="10.988406130990795"><ele>70.0</ele><time>2026-03-28T13:20:27.001Z</time></trkpt><trkpt lat="44.53312226901762" lon="10.988434250771252"><ele>69.75</ele><time>2026-03-28T13:20:28.001Z</time></trkpt><trkpt lat="44.53300834669508" lon="10.988462182892887"><ele>69.5</ele><time>2026-03-28T13:20:29.001Z</time></trkpt><trkpt lat="44.532888288113476" lon="10.988501880992237"><ele>69.25</ele><time>2026-03-28T13:20:30.001Z</time></trkpt><trkpt lat="44.53277820748122" lon="10.988543714583368"><ele>69.0</ele><time>2026-03-28T13:20:31.001Z</time></trkpt><trkpt lat="44.5326671895347" lon="10.988584853695196"><ele>68.75</ele><time>2026-03-28T13:20:32.001Z</time></trkpt><trkpt lat="44.53255342435978" lon="10.98864333851952"><ele>68.5</ele><time>2026-03-28T13:20:33.001Z</time></trkpt><trkpt lat="44.53243856478554" lon="10.988729860733592"><ele>68.25</ele><time>2026-03-28T13:20:34.001Z</time></trkpt><trkpt lat="44.53233089475148" lon="10.98883147255257"><ele>68.0</ele><time>2026-03-28T13:20:35.001Z</time></trkpt><trkpt lat="44.53222254467995" lon="10.988945498980462"><ele>68.0</ele><time>2026-03-28T13:20:36.001Z</time></trkpt><trkpt lat="44.532082694605705" lon="10.989086555778488"><ele>68.0</ele><time>2026-03-28T13:20:37.001Z</time></trkpt><trkpt lat="44.531915320566846" lon="10.989256204870463"><ele>68.0</ele><time>2026-03-28T13:20:38.001Z</time></trkpt><trkpt lat="44.53173431441103" lon="10.989423304436064"><ele>68.5</ele><time>2026-03-28T13:20:39.001Z</time></trkpt><trkpt lat="44.531554114898036" lon="10.989600514738388"><ele>69.0</ele><time>2026-03-28T13:20:40.001Z</time></trkpt><trkpt lat="44.53134104902193" lon="10.989757322296773"><ele>68.5</ele><time>2026-03-28T13:20:41.001Z</time></trkpt><trkpt lat="44.53112055706039" lon="10.989963192448986"><ele>68.0</ele><time>2026-03-28T13:20:42.001Z</time></trkpt><trkpt lat="44.53093169162901" lon="10.990156626127241"><ele>68.0</ele><time>2026-03-28T13:20:43.001Z</time></trkpt><trkpt lat="44.53076472434655" lon="10.990297122515551"><ele>68.0</ele><time>2026-03-28T13:20:44.001Z</time></trkpt><trkpt lat="44.530609892923316" lon="10.990402007312737"><ele>68.0</ele><time>2026-03-28T13:20:45.001Z</time></trkpt><trkpt lat="44.530448598478905" lon="10.990466094286687"><ele>68.33333333333334</ele><time>2026-03-28T13:20:46.001Z</time></trkpt><trkpt lat="44.53029467092512" lon="10.990528866157035"><ele>68.66666666666667</ele><time>2026-03-28T13:20:47.001Z</time></trkpt><trkpt lat="44.53012159935962" lon="10.990594874088087"><ele>69.0</ele><time>2026-03-28T13:20:48.001Z</time></trkpt><trkpt lat="44.52991015285312" lon="10.99067045692209"><ele>69.0</ele><time>2026-03-28T13:20:49.001Z</time></trkpt><trkpt lat="44.529702345250335" lon="10.990744739110648"><ele>69.0</ele><time>2026-03-28T13:20:50.001Z</time></trkpt><trkpt lat="44.52951277158083" lon="10.990812047481198"><ele>69.0</ele><time>2026-03-28T13:20:51.001Z</time></trkpt><trkpt lat="44.52933420756846" lon="10.990872875019784"><ele>69.33333333333333</ele><time>2026-03-28T13:20:52.001Z</time></trkpt><trkpt lat="44.52916533078238" lon="10.990930400779337"><ele>69.66666666666666</ele><time>2026-03-28T13:20:53.001Z</time></trkpt><trkpt lat="44.52896593228809" lon="10.990998323376704"><ele>70.0</ele><time>2026-03-28T13:20:54.001Z</time></trkpt><trkpt lat="44.52872217177276" lon="10.99108452954456"><ele>70.5</ele><time>2026-03-28T13:20:55.001Z</time></trkpt><trkpt lat="44.52848273074693" lon="10.991173755592335"><ele>71.0</ele><time>2026-03-28T13:20:56.001Z</time></trkpt><trkpt lat="44.52828132589448" lon="10.991250920056132"><ele>71.0</ele><time>2026-03-28T13:20:57.001Z</time></trkpt><trkpt lat="44.52808970324117" lon="10.991312999234403"><ele>71.0</ele><time>2026-03-28T13:20:58.001Z</time></trkpt><trkpt lat="44.527887395380006" lon="10.99140553774469"><ele>71.0</ele><time>2026-03-28T13:20:59.001Z</time></trkpt><trkpt lat="44.52764909007519" lon="10.991529054550975"><ele>71.5</ele><time>2026-03-28T13:21:00.001Z</time></trkpt><trkpt lat="44.527386291554215" lon="10.991684444695313"><ele>72.0</ele><time>2026-03-28T13:21:01.001Z</time></trkpt><trkpt lat="44.52711905958998" lon="10.991839211292326"><ele>72.5</ele><time>2026-03-28T13:21:02.001Z</time></trkpt><trkpt lat="44.52684604422572" lon="10.99199802582291"><ele>73.0</ele><time>2026-03-28T13:21:03.001Z</time></trkpt><trkpt lat="44.52655938225937" lon="10.992160747667526"><ele>73.0</ele><time>2026-03-28T13:21:04.001Z</time></trkpt><trkpt lat="44.52627638788338" lon="10.992317182106774"><ele>73.0</ele><time>2026-03-28T13:21:05.001Z</time></trkpt><trkpt lat="44.526000890018864" lon="10.99247778886836"><ele>73.0</ele><time>2026-03-28T13:21:06.001Z</time></trkpt><trkpt lat="44.52571714212414" lon="10.992645361051329"><ele>73.0</ele><time>2026-03-28T13:21:07.001Z</time></trkpt><trkpt lat="44.52542459406056" lon="10.992812037805301"><ele>74.0</ele><time>2026-03-28T13:21:08.001Z</time></trkpt><trkpt lat="44.52512977593244" lon="10.992977041495509"><ele>75.0</ele><time>2026-03-28T13:21:09.001Z</time></trkpt><trkpt lat="44.52484181860617" lon="10.993137114806165"><ele>75.0</ele><time>2026-03-28T13:21:10.001Z</time></trkpt><trkpt lat="44.52456363830928" lon="10.993296366867048"><ele>75.0</ele><time>2026-03-28T13:21:11.001Z</time></trkpt><trkpt lat="44.52429250055724" lon="10.993444255029704"><ele>75.0</ele><time>2026-03-28T13:21:12.001Z</time></trkpt><trkpt lat="44.52403668508977" lon="10.993584157467676"><ele>75.0</ele><time>2026-03-28T13:21:13.001Z</time></trkpt><trkpt lat="44.52379479068678" lon="10.993725183251286"><ele>75.5</ele><time>2026-03-28T13:21:14.001Z</time></trkpt><trkpt lat="44.52355868585891" lon="10.993863532218086"><ele>76.0</ele><time>2026-03-28T13:21:15.001Z</time></trkpt><trkpt lat="44.5233357627568" lon="10.993997043192486"><ele>76.0</ele><time>2026-03-28T13:21:16.001Z</time></trkpt><trkpt lat="44.5231272774046" lon="10.994114507986875"><ele>76.0</ele><time>2026-03-28T13:21:17.001Z</time></trkpt><trkpt lat="44.52292570036658" lon="10.994236136646286"><ele>76.0</ele><time>2026-03-28T13:21:18.001Z</time></trkpt><trkpt lat="44.52272457878568" lon="10.994338811837391"><ele>76.33333333333333</ele><time>2026-03-28T13:21:19.001Z</time></trkpt><trkpt lat="44.52252738694524" lon="10.994446199925685"><ele>76.66666666666667</ele><time>2026-03-28T13:21:20.001Z</time></trkpt><trkpt lat="44.52233300739392" lon="10.994554737843126"><ele>77.0</ele><time>2026-03-28T13:21:21.001Z</time></trkpt><trkpt lat="44.522142651323236" lon="10.994659103500547"><ele>78.0</ele><time>2026-03-28T13:21:22.001Z</time></trkpt><trkpt lat="44.52195397699096" lon="10.994764974102948"><ele>79.0</ele><time>2026-03-28T13:21:23.001Z</time></trkpt><trkpt lat="44.52176750688686" lon="10.994869768819447"><ele>80.0</ele><time>2026-03-28T13:21:24.001Z</time></trkpt><trkpt lat="44.521582221610586" lon="10.994976457162936"><ele>80.0</ele><time>2026-03-28T13:21:25.001Z</time></trkpt><trkpt lat="44.52141213161482" lon="10.995075202927499"><ele>80.0</ele><time>2026-03-28T13:21:26.001Z</time></trkpt><trkpt lat="44.521256194634155" lon="10.995172720671535"><ele>80.0</ele><time>2026-03-28T13:21:27.001Z</time></trkpt><trkpt lat="44.5211082671366" lon="10.995261924418035"><ele>80.0</ele><time>2026-03-28T13:21:28.001Z</time></trkpt><trkpt lat="44.520972043178475" lon="10.995341817881725"><ele>80.0</ele><time>2026-03-28T13:21:29.001Z</time></trkpt><trkpt lat="44.52084241805068" lon="10.99541273615613"><ele>80.0</ele><time>2026-03-28T13:21:30.001Z</time></trkpt><trkpt lat="44.520727607294596" lon="10.995476045076948"><ele>80.0</ele><time>2026-03-28T13:21:31.001Z</time></trkpt><trkpt lat="44.52063110114611" lon="10.995530352140893"><ele>80.0</ele><time>2026-03-28T13:21:32.001Z</time></trkpt><trkpt lat="44.52054678937083" lon="10.995577523157813"><ele>80.0</ele><time>2026-03-28T13:21:33.001Z</time></trkpt><trkpt lat="44.52046951355416" lon="10.995628426095037"><ele>80.0</ele><time>2026-03-28T13:21:34.001Z</time></trkpt><trkpt lat="44.52039909052349" lon="10.995676376631167"><ele>80.0</ele><time>2026-03-28T13:21:35.001Z</time></trkpt><trkpt lat="44.52033959727475" lon="10.995722847620621"><ele>80.0</ele><time>2026-03-28T13:21:40.001Z</time></trkpt><trkpt lat="44.5202546674565" lon="10.99577220873004"><ele>80.0</ele><time>2026-03-28T13:21:42.001Z</time></trkpt><trkpt lat="44.520198932298044" lon="10.99581806041493"><ele>80.5</ele><time>2026-03-28T13:21:43.001Z</time></trkpt><trkpt lat="44.520092848600136" lon="10.995868166580651"><ele>81.0</ele><time>2026-03-28T13:21:44.001Z</time></trkpt><trkpt lat="44.51996080359871" lon="10.995950409776464"><ele>81.5</ele><time>2026-03-28T13:21:45.001Z</time></trkpt><trkpt lat="44.51979496872428" lon="10.99603339005641"><ele>82.0</ele><time>2026-03-28T13:21:46.001Z</time></trkpt><trkpt lat="44.5196233929749" lon="10.996128250528082"><ele>81.66666666666666</ele><time>2026-03-28T13:21:47.001Z</time></trkpt><trkpt lat="44.51943787981173" lon="10.99621292381864"><ele>81.33333333333333</ele><time>2026-03-28T13:21:48.001Z</time></trkpt><trkpt lat="44.51926163109663" lon="10.996305547783441"><ele>81.0</ele><time>2026-03-28T13:21:49.001Z</time></trkpt><trkpt lat="44.51910885751874" lon="10.99640206992035"><ele>81.0</ele><time>2026-03-28T13:21:50.001Z</time></trkpt><trkpt lat="44.518970152898156" lon="10.996508264150616"><ele>81.0</ele><time>2026-03-28T13:21:51.001Z</time></trkpt><trkpt lat="44.51884519052773" lon="10.996626990388995"><ele>81.0</ele><time>2026-03-28T13:21:52.001Z</time></trkpt><trkpt lat="44.51871909847708" lon="10.996735954311568"><ele>81.0</ele><time>2026-03-28T13:21:53.001Z</time></trkpt><trkpt lat="44.51858532366201" lon="10.996812038852323"><ele>81.0</ele><time>2026-03-28T13:21:54.001Z</time></trkpt><trkpt lat="44.51844943077292" lon="10.996872820050708"><ele>81.0</ele><time>2026-03-28T13:21:55.001Z</time></trkpt><trkpt lat="44.51830216459967" lon="10.996941427129372"><ele>81.0</ele><time>2026-03-28T13:21:56.001Z</time></trkpt><trkpt lat="44.51816145854072" lon="10.997000583255007"><ele>81.0</ele><time>2026-03-28T13:21:57.001Z</time></trkpt><trkpt lat="44.518028549702436" lon="10.997074404189986"><ele>81.0</ele><time>2026-03-28T13:21:58.001Z</time></trkpt><trkpt lat="44.51788700985326" lon="10.997148443183073"><ele>81.0</ele><time>2026-03-28T13:21:59.001Z</time></trkpt><trkpt lat="44.51774801955802" lon="10.997219706107359"><ele>81.0</ele><time>2026-03-28T13:22:00.001Z</time></trkpt><trkpt lat="44.517605557031644" lon="10.997290317200292"><ele>81.66666666666667</ele><time>2026-03-28T13:22:01.001Z</time></trkpt><trkpt lat="44.517445576477115" lon="10.997368611570062"><ele>82.33333333333334</ele><time>2026-03-28T13:22:02.001Z</time></trkpt><trkpt lat="44.51727402250419" lon="10.997486977221802"><ele>83.0</ele><time>2026-03-28T13:22:03.001Z</time></trkpt><trkpt lat="44.51710665294045" lon="10.997632727019994"><ele>83.66666666666667</ele><time>2026-03-28T13:22:04.001Z</time></trkpt><trkpt lat="44.51693997072822" lon="10.997777231499079"><ele>84.33333333333333</ele><time>2026-03-28T13:22:05.001Z</time></trkpt><trkpt lat="44.516776182228014" lon="10.99790997001548"><ele>85.0</ele><time>2026-03-28T13:22:06.001Z</time></trkpt><trkpt lat="44.5166149669365" lon="10.998035980938921"><ele>85.0</ele><time>2026-03-28T13:22:07.001Z</time></trkpt><trkpt lat="44.51644561704975" lon="10.998149474454458"><ele>85.0</ele><time>2026-03-28T13:22:08.001Z</time></trkpt><trkpt lat="44.51627057373166" lon="10.998258278513402"><ele>85.0</ele><time>2026-03-28T13:22:09.001Z</time></trkpt><trkpt lat="44.51609624663474" lon="10.998363551888307"><ele>84.66666666666666</ele><time>2026-03-28T13:22:10.001Z</time></trkpt><trkpt lat="44.51591162196308" lon="10.998436662091148"><ele>84.33333333333333</ele><time>2026-03-28T13:22:11.001Z</time></trkpt><trkpt lat="44.51572851810978" lon="10.998536763769492"><ele>84.0</ele><time>2026-03-28T13:22:12.001Z</time></trkpt><trkpt lat="44.51553857211905" lon="10.99860596989845"><ele>84.33333333333333</ele><time>2026-03-28T13:22:13.001Z</time></trkpt><trkpt lat="44.515345446538085" lon="10.998669829426781"><ele>84.66666666666666</ele><time>2026-03-28T13:22:14.001Z</time></trkpt><trkpt lat="44.51515200111904" lon="10.998734550797552"><ele>85.0</ele><time>2026-03-28T13:22:15.001Z</time></trkpt><trkpt lat="44.514961165581504" lon="10.998805543364988"><ele>85.0</ele><time>2026-03-28T13:22:16.001Z</time></trkpt><trkpt lat="44.514780857148544" lon="10.998877355939891"><ele>85.0</ele><time>2026-03-28T13:22:17.001Z</time></trkpt><trkpt lat="44.51461094164679" lon="10.998943956476001"><ele>85.0</ele><time>2026-03-28T13:22:18.001Z</time></trkpt><trkpt lat="44.51445848514657" lon="10.99899734739703"><ele>85.25</ele><time>2026-03-28T13:22:19.001Z</time></trkpt><trkpt lat="44.51431612625116" lon="10.999049460424905"><ele>85.5</ele><time>2026-03-28T13:22:20.001Z</time></trkpt><trkpt lat="44.51418593616299" lon="10.999094149606245"><ele>85.75</ele><time>2026-03-28T13:22:21.001Z</time></trkpt><trkpt lat="44.51406407480102" lon="10.999126842813062"><ele>86.0</ele><time>2026-03-28T13:22:22.001Z</time></trkpt><trkpt lat="44.51395003979297" lon="10.999141581520979"><ele>86.0</ele><time>2026-03-28T13:22:23.001Z</time></trkpt><trkpt lat="44.51384819256703" lon="10.99913563967292"><ele>86.0</ele><time>2026-03-28T13:22:24.001Z</time></trkpt><trkpt lat="44.5137517242312" lon="10.999125805339116"><ele>86.0</ele><time>2026-03-28T13:22:25.001Z</time></trkpt><trkpt lat="44.51366826068921" lon="10.999160521080952"><ele>86.0</ele><time>2026-03-28T13:22:26.001Z</time></trkpt><trkpt lat="44.51361222775125" lon="10.99925087248119"><ele>86.0</ele><time>2026-03-28T13:22:27.001Z</time></trkpt><trkpt lat="44.513593779150405" lon="10.999366413446099"><ele>86.25</ele><time>2026-03-28T13:22:28.001Z</time></trkpt><trkpt lat="44.51362528480882" lon="10.999493852039228"><ele>86.5</ele><time>2026-03-28T13:22:29Z</time></trkpt><trkpt lat="44.5136918422672" lon="10.999616881946448"><ele>86.75</ele><time>2026-03-28T13:22:30Z</time></trkpt><trkpt lat="44.513747261594894" lon="10.999777038248945"><ele>87.0</ele><time>2026-03-28T13:22:31Z</time></trkpt><trkpt lat="44.513757432192214" lon="10.99996059050281"><ele>87.33333333333333</ele><time>2026-03-28T13:22:32Z</time></trkpt><trkpt lat="44.513726065687116" lon="11.000191214389185"><ele>87.66666666666666</ele><time>2026-03-28T13:22:33Z</time></trkpt><trkpt lat="44.51368584272351" lon="11.000458038798497"><ele>88.0</ele><time>2026-03-28T13:22:34Z</time></trkpt><trkpt lat="44.51364892643967" lon="11.000724208407169"><ele>87.66666666666666</ele><time>2026-03-28T13:22:35Z</time></trkpt><trkpt lat="44.51358064105039" lon="11.000975124718352"><ele>87.33333333333333</ele><time>2026-03-28T13:22:36Z</time></trkpt><trkpt lat="44.51345345605937" lon="11.001179828997108"><ele>87.0</ele><time>2026-03-28T13:22:37Z</time></trkpt><trkpt lat="44.51329672266798" lon="11.00133743203184"><ele>87.0</ele><time>2026-03-28T13:22:38Z</time></trkpt><trkpt lat="44.51311007345552" lon="11.001416689318162"><ele>87.0</ele><time>2026-03-28T13:22:39Z</time></trkpt><trkpt lat="44.512912213180364" lon="11.001374527030103"><ele>87.0</ele><time>2026-03-28T13:22:40Z</time></trkpt><trkpt lat="44.51270333748931" lon="11.001313414220794"><ele>87.5</ele><time>2026-03-28T13:22:41Z</time></trkpt><trkpt lat="44.512479479954166" lon="11.001174826207176"><ele>88.0</ele><time>2026-03-28T13:22:42Z</time></trkpt><trkpt lat="44.51224011740773" lon="11.00102331519606"><ele>88.0</ele><time>2026-03-28T13:22:43Z</time></trkpt><trkpt lat="44.51213064580139" lon="11.001014751775982"><ele>88.0</ele><time>2026-03-28T13:22:44Z</time></trkpt><trkpt lat="44.51194714046357" lon="11.00089959162647"><ele>88.0</ele><time>2026-03-28T13:22:45Z</time></trkpt><trkpt lat="44.511777949832116" lon="11.000821714450426"><ele>88.66666666666666</ele><time>2026-03-28T13:22:46Z</time></trkpt><trkpt lat="44.511618755224596" lon="11.000753016992315"><ele>89.33333333333333</ele><time>2026-03-28T13:22:47Z</time></trkpt><trkpt lat="44.51144018868176" lon="11.000748105111407"><ele>90.0</ele><time>2026-03-28T13:22:48Z</time></trkpt><trkpt lat="44.511239315918964" lon="11.000826346563228"><ele>90.0</ele><time>2026-03-28T13:22:49Z</time></trkpt><trkpt lat="44.51101729363727" lon="11.000968872777188"><ele>90.0</ele><time>2026-03-28T13:22:50Z</time></trkpt><trkpt lat="44.51079365317658" lon="11.001107428251032"><ele>90.0</ele><time>2026-03-28T13:22:51Z</time></trkpt><trkpt lat="44.51056984822063" lon="11.001253556966425"><ele>90.0</ele><time>2026-03-28T13:22:52Z</time></trkpt><trkpt lat="44.51035451132094" lon="11.001420292170089"><ele>90.5</ele><time>2026-03-28T13:22:53Z</time></trkpt><trkpt lat="44.51014472615306" lon="11.00159310171678"><ele>91.0</ele><time>2026-03-28T13:22:54Z</time></trkpt><trkpt lat="44.509940020900906" lon="11.001760752256017"><ele>91.0</ele><time>2026-03-28T13:22:55Z</time></trkpt><trkpt lat="44.50974803624296" lon="11.001915863896405"><ele>91.0</ele><time>2026-03-28T13:22:56Z</time></trkpt><trkpt lat="44.509567655417996" lon="11.002059944875061"><ele>91.0</ele><time>2026-03-28T13:22:57Z</time></trkpt><trkpt lat="44.50939457782238" lon="11.002189455294205"><ele>91.33333333333333</ele><time>2026-03-28T13:22:58Z</time></trkpt><trkpt lat="44.509227882426785" lon="11.002312831718374"><ele>91.66666666666667</ele><time>2026-03-28T13:22:59.001Z</time></trkpt><trkpt lat="44.509073579841676" lon="11.00243740345613"><ele>92.0</ele><time>2026-03-28T13:23:00.001Z</time></trkpt><trkpt lat="44.50891948821291" lon="11.002551715362996"><ele>92.33333333333334</ele><time>2026-03-28T13:23:01.001Z</time></trkpt><trkpt lat="44.50874653700609" lon="11.00261604293385"><ele>92.66666666666667</ele><time>2026-03-28T13:23:02.001Z</time></trkpt><trkpt lat="44.50856562416459" lon="11.002664527878798"><ele>93.0</ele><time>2026-03-28T13:23:03.001Z</time></trkpt><trkpt lat="44.50837511888599" lon="11.002711484611508"><ele>93.33333333333333</ele><time>2026-03-28T13:23:04.001Z</time></trkpt><trkpt lat="44.508188618675604" lon="11.002764976157357"><ele>93.66666666666666</ele><time>2026-03-28T13:23:05.001Z</time></trkpt><trkpt lat="44.50799901281941" lon="11.002843804542767"><ele>94.0</ele><time>2026-03-28T13:23:06.001Z</time></trkpt><trkpt lat="44.50778144088812" lon="11.002927677864157"><ele>95.0</ele><time>2026-03-28T13:23:07.001Z</time></trkpt><trkpt lat="44.50755461584671" lon="11.003067084206242"><ele>96.0</ele><time>2026-03-28T13:23:08.001Z</time></trkpt><trkpt lat="44.507311539449844" lon="11.00322552879199"><ele>95.0</ele><time>2026-03-28T13:23:09.001Z</time></trkpt><trkpt lat="44.50706717310563" lon="11.003381300060829"><ele>94.0</ele><time>2026-03-28T13:23:10.001Z</time></trkpt><trkpt lat="44.5068168056393" lon="11.003528230175952"><ele>94.0</ele><time>2026-03-28T13:23:11.001Z</time></trkpt><trkpt lat="44.50656734785275" lon="11.003661156904633"><ele>94.0</ele><time>2026-03-28T13:23:12.001Z</time></trkpt><trkpt lat="44.506310297929005" lon="11.00378217501058"><ele>94.5</ele><time>2026-03-28T13:23:13.001Z</time></trkpt><trkpt lat="44.506053051237714" lon="11.003881407241215"><ele>95.0</ele><time>2026-03-28T13:23:14.001Z</time></trkpt><trkpt lat="44.505822461577175" lon="11.004005682995194"><ele>95.0</ele><time>2026-03-28T13:23:15.001Z</time></trkpt><trkpt lat="44.505600825002695" lon="11.004109504858588"><ele>95.0</ele><time>2026-03-28T13:23:16.001Z</time></trkpt><trkpt lat="44.505399710613524" lon="11.004213628683367"><ele>95.0</ele><time>2026-03-28T13:23:17.001Z</time></trkpt><trkpt lat="44.50519100210273" lon="11.004284605205205"><ele>96.0</ele><time>2026-03-28T13:23:18.001Z</time></trkpt><trkpt lat="44.504942205868424" lon="11.004390744775122"><ele>97.0</ele><time>2026-03-28T13:23:19.001Z</time></trkpt><trkpt lat="44.5046579876318" lon="11.004526591265515"><ele>97.0</ele><time>2026-03-28T13:23:20.001Z</time></trkpt><trkpt lat="44.50437013170995" lon="11.004690497994137"><ele>97.0</ele><time>2026-03-28T13:23:21.001Z</time></trkpt><trkpt lat="44.50408670613281" lon="11.004834935655698"><ele>97.0</ele><time>2026-03-28T13:23:22.001Z</time></trkpt><trkpt lat="44.50381992177155" lon="11.00498344905758"><ele>97.0</ele><time>2026-03-28T13:23:23.001Z</time></trkpt><trkpt lat="44.50356065582604" lon="11.005131518400098"><ele>97.5</ele><time>2026-03-28T13:23:24.001Z</time></trkpt><trkpt lat="44.50330948916649" lon="11.005272219033705"><ele>98.0</ele><time>2026-03-28T13:23:25.001Z</time></trkpt><trkpt lat="44.503063019640436" lon="11.005411808455657"><ele>97.5</ele><time>2026-03-28T13:23:26.001Z</time></trkpt><trkpt lat="44.502814784476065" lon="11.005551871630404"><ele>97.0</ele><time>2026-03-28T13:23:27.001Z</time></trkpt><trkpt lat="44.502579007463105" lon="11.005685685591413"><ele>97.0</ele><time>2026-03-28T13:23:28.001Z</time></trkpt><trkpt lat="44.50235124364175" lon="11.005814438823881"><ele>97.0</ele><time>2026-03-28T13:23:29.001Z</time></trkpt><trkpt lat="44.502119694079035" lon="11.005943530260485"><ele>99.0</ele><time>2026-03-28T13:23:30.001Z</time></trkpt><trkpt lat="44.501887727004224" lon="11.006068158781993"><ele>101.0</ele><time>2026-03-28T13:23:31.001Z</time></trkpt><trkpt lat="44.50166465337799" lon="11.006199911459525"><ele>101.0</ele><time>2026-03-28T13:23:32.001Z</time></trkpt><trkpt lat="44.50143829991427" lon="11.006326021992805"><ele>101.0</ele><time>2026-03-28T13:23:33.001Z</time></trkpt><trkpt lat="44.501212981233195" lon="11.00645017009131"><ele>100.0</ele><time>2026-03-28T13:23:34.001Z</time></trkpt><trkpt lat="44.50098973148265" lon="11.0065747592295"><ele>99.0</ele><time>2026-03-28T13:23:35.001Z</time></trkpt><trkpt lat="44.50076972505229" lon="11.00670035263376"><ele>99.0</ele><time>2026-03-28T13:23:36.001Z</time></trkpt><trkpt lat="44.50055307968522" lon="11.006822634693728"><ele>99.0</ele><time>2026-03-28T13:23:37.001Z</time></trkpt><trkpt lat="44.500342657309304" lon="11.006939756406766"><ele>99.33333333333334</ele><time>2026-03-28T13:23:38.001Z</time></trkpt><trkpt lat="44.5001379169548" lon="11.007054417170526"><ele>99.66666666666667</ele><time>2026-03-28T13:23:39.001Z</time></trkpt><trkpt lat="44.49993716817505" lon="11.00716425749843"><ele>100.0</ele><time>2026-03-28T13:23:40.001Z</time></trkpt><trkpt lat="44.49974204885799" lon="11.007271952225869"><ele>100.33333333333334</ele><time>2026-03-28T13:23:41.001Z</time></trkpt><trkpt lat="44.49955546093329" lon="11.007369893079467"><ele>100.66666666666666</ele><time>2026-03-28T13:23:42.001Z</time></trkpt><trkpt lat="44.49937463001879" lon="11.007467138938788"><ele>101.0</ele><time>2026-03-28T13:23:43.001Z</time></trkpt><trkpt lat="44.49920145859911" lon="11.007560158321663"><ele>101.33333333333333</ele><time>2026-03-28T13:23:44.001Z</time></trkpt><trkpt lat="44.49903562370359" lon="11.007636035017418"><ele>101.66666666666666</ele><time>2026-03-28T13:23:45.001Z</time></trkpt><trkpt lat="44.498870388464326" lon="11.007704136539843"><ele>102.0</ele><time>2026-03-28T13:23:46.001Z</time></trkpt><trkpt lat="44.498718807608036" lon="11.007770064217233"><ele>102.33333333333334</ele><time>2026-03-28T13:23:47.001Z</time></trkpt><trkpt lat="44.49856548039676" lon="11.007832867953763"><ele>102.66666666666667</ele><time>2026-03-28T13:23:48.001Z</time></trkpt><trkpt lat="44.498418530014874" lon="11.007892576337547"><ele>103.0</ele><time>2026-03-28T13:23:49.001Z</time></trkpt><trkpt lat="44.49826965737909" lon="11.007950655919883"><ele>103.0</ele><time>2026-03-28T13:23:50.001Z</time></trkpt><trkpt lat="44.498117417577994" lon="11.00800306162061"><ele>103.0</ele><time>2026-03-28T13:23:51.001Z</time></trkpt><trkpt lat="44.49796570330274" lon="11.008040877951347"><ele>103.0</ele><time>2026-03-28T13:23:52.001Z</time></trkpt><trkpt lat="44.49780465068026" lon="11.008055975180321"><ele>102.66666666666667</ele><time>2026-03-28T13:23:53.001Z</time></trkpt><trkpt lat="44.49763816463905" lon="11.008038633001279"><ele>102.33333333333334</ele><time>2026-03-28T13:23:54.001Z</time></trkpt><trkpt lat="44.49746702889296" lon="11.007996558409987"><ele>102.0</ele><time>2026-03-28T13:23:55.001Z</time></trkpt><trkpt lat="44.49729526225346" lon="11.008016777151791"><ele>102.0</ele><time>2026-03-28T13:23:56.001Z</time></trkpt><trkpt lat="44.49712249835485" lon="11.00785173853197"><ele>102.0</ele><time>2026-03-28T13:23:57.001Z</time></trkpt><trkpt lat="44.496945107569815" lon="11.007747166225244"><ele>102.0</ele><time>2026-03-28T13:23:58.001Z</time></trkpt><trkpt lat="44.49676285330751" lon="11.007631521348408"><ele>102.0</ele><time>2026-03-28T13:23:59.001Z</time></trkpt><trkpt lat="44.49657020715388" lon="11.007512889906875"><ele>102.0</ele><time>2026-03-28T13:24:00.001Z</time></trkpt><trkpt lat="44.49637261885717" lon="11.007400803641975"><ele>102.0</ele><time>2026-03-28T13:24:01.001Z</time></trkpt><trkpt lat="44.49617318097121" lon="11.00729223994557"><ele>102.33333333333334</ele><time>2026-03-28T13:24:02.001Z</time></trkpt><trkpt lat="44.49596744060443" lon="11.007198487944352"><ele>102.66666666666667</ele><time>2026-03-28T13:24:03.001Z</time></trkpt><trkpt lat="44.49576012047143" lon="11.007125667677013"><ele>103.0</ele><time>2026-03-28T13:24:04.001Z</time></trkpt><trkpt lat="44.495549048893146" lon="11.007064683299598"><ele>104.0</ele><time>2026-03-28T13:24:05.001Z</time></trkpt><trkpt lat="44.49534491792507" lon="11.006992764379941"><ele>105.0</ele><time>2026-03-28T13:24:06.001Z</time></trkpt><trkpt lat="44.495145418331866" lon="11.006917137157016"><ele>106.0</ele><time>2026-03-28T13:24:07.001Z</time></trkpt><trkpt lat="44.49493895599147" lon="11.00684778566701"><ele>106.0</ele><time>2026-03-28T13:24:08.001Z</time></trkpt><trkpt lat="44.49472739606488" lon="11.006796455939151"><ele>106.0</ele><time>2026-03-28T13:24:09.001Z</time></trkpt><trkpt lat="44.494511290011" lon="11.006757435787524"><ele>106.0</ele><time>2026-03-28T13:24:10.001Z</time></trkpt><trkpt lat="44.49429919916803" lon="11.006725217564572"><ele>106.0</ele><time>2026-03-28T13:24:11.001Z</time></trkpt><trkpt lat="44.49409456147256" lon="11.006690070851565"><ele>106.0</ele><time>2026-03-28T13:24:12.001Z</time></trkpt><trkpt lat="44.49389035130024" lon="11.006650622806108"><ele>106.0</ele><time>2026-03-28T13:24:13.001Z</time></trkpt><trkpt lat="44.49368654129998" lon="11.006613727122831"><ele>107.33333333333334</ele><time>2026-03-28T13:24:14.001Z</time></trkpt><trkpt lat="44.49347684664429" lon="11.006584411865752"><ele>108.66666666666666</ele><time>2026-03-28T13:24:15.001Z</time></trkpt><trkpt lat="44.493258895741995" lon="11.006593389583538"><ele>110.0</ele><time>2026-03-28T13:24:16.001Z</time></trkpt><trkpt lat="44.4930361370728" lon="11.006670267492714"><ele>109.66666666666666</ele><time>2026-03-28T13:24:17.001Z</time></trkpt><trkpt lat="44.49282022835833" lon="11.006764491764228"><ele>109.33333333333334</ele><time>2026-03-28T13:24:18.001Z</time></trkpt><trkpt lat="44.492624142704784" lon="11.006827517005647"><ele>109.0</ele><time>2026-03-28T13:24:19.001Z</time></trkpt><trkpt lat="44.492434345642266" lon="11.00688056405677"><ele>109.0</ele><time>2026-03-28T13:24:20.001Z</time></trkpt><trkpt lat="44.49224554328911" lon="11.006925587080094"><ele>109.0</ele><time>2026-03-28T13:24:21.001Z</time></trkpt><trkpt lat="44.492059254853274" lon="11.006955353959349"><ele>109.0</ele><time>2026-03-28T13:24:22.001Z</time></trkpt><trkpt lat="44.4918752073184" lon="11.006962439074444"><ele>109.0</ele><time>2026-03-28T13:24:23Z</time></trkpt><trkpt lat="44.49170333262254" lon="11.006947976329695"><ele>109.0</ele><time>2026-03-28T13:24:24Z</time></trkpt><trkpt lat="44.491537955945695" lon="11.006944041978999"><ele>109.0</ele><time>2026-03-28T13:24:25Z</time></trkpt><trkpt lat="44.49139092329861" lon="11.006941454804922"><ele>109.5</ele><time>2026-03-28T13:24:26Z</time></trkpt><trkpt lat="44.49125236885567" lon="11.006940553810598"><ele>110.0</ele><time>2026-03-28T13:24:27Z</time></trkpt><trkpt lat="44.491122556038675" lon="11.006937827773147"><ele>110.5</ele><time>2026-03-28T13:24:28Z</time></trkpt><trkpt lat="44.49100285072738" lon="11.00693484953434"><ele>111.0</ele><time>2026-03-28T13:24:29Z</time></trkpt><trkpt lat="44.490891179173616" lon="11.006941243676858"><ele>111.0</ele><time>2026-03-28T13:24:30Z</time></trkpt><trkpt lat="44.490787400453584" lon="11.006951329189404"><ele>111.0</ele><time>2026-03-28T13:24:31Z</time></trkpt><trkpt lat="44.49068987265472" lon="11.00696118170769"><ele>111.0</ele><time>2026-03-28T13:24:32Z</time></trkpt><trkpt lat="44.49059896112915" lon="11.006971827108522"><ele>111.0</ele><time>2026-03-28T13:24:33Z</time></trkpt><trkpt lat="44.49052047289496" lon="11.00697554854252"><ele>111.0</ele><time>2026-03-28T13:24:34Z</time></trkpt><trkpt lat="44.490439838428955" lon="11.006967770868526"><ele>111.0</ele><time>2026-03-28T13:24:36Z</time></trkpt><trkpt lat="44.49036656866745" lon="11.006921566408977"><ele>111.0</ele><time>2026-03-28T13:24:38Z</time></trkpt><trkpt lat="44.49028531450485" lon="11.006838042354312"><ele>111.0</ele><time>2026-03-28T13:24:40Z</time></trkpt><trkpt lat="44.49019689246933" lon="11.006717892189068"><ele>111.0</ele><time>2026-03-28T13:24:42Z</time></trkpt><trkpt lat="44.490160254656864" lon="11.00663537870906"><ele>111.0</ele><time>2026-03-28T13:24:43Z</time></trkpt><trkpt lat="44.49013380208638" lon="11.00652968314919"><ele>111.4</ele><time>2026-03-28T13:24:44Z</time></trkpt><trkpt lat="44.49011161795738" lon="11.006409357095071"><ele>111.8</ele><time>2026-03-28T13:24:45Z</time></trkpt><trkpt lat="44.49007233036736" lon="11.006282448109685"><ele>112.20000000000002</ele><time>2026-03-28T13:24:46Z</time></trkpt><trkpt lat="44.49006225287164" lon="11.006121600507255"><ele>112.60000000000001</ele><time>2026-03-28T13:24:47Z</time></trkpt><trkpt lat="44.4900347553475" lon="11.005969204723403"><ele>113.0</ele><time>2026-03-28T13:24:48Z</time></trkpt><trkpt lat="44.49000966472982" lon="11.005811451307288"><ele>113.5</ele><time>2026-03-28T13:24:49Z</time></trkpt><trkpt lat="44.48998554608776" lon="11.005652986159184"><ele>114.0</ele><time>2026-03-28T13:24:50Z</time></trkpt><trkpt lat="44.489954818945726" lon="11.005492981112056"><ele>114.5</ele><time>2026-03-28T13:24:51Z</time></trkpt><trkpt lat="44.48991868963543" lon="11.00533689202359"><ele>115.0</ele><time>2026-03-28T13:24:52Z</time></trkpt><trkpt lat="44.48988804931272" lon="11.005176897121219"><ele>115.0</ele><time>2026-03-28T13:24:53Z</time></trkpt><trkpt lat="44.4898469100779" lon="11.00501435115047"><ele>115.0</ele><time>2026-03-28T13:24:54Z</time></trkpt><trkpt lat="44.489797506158105" lon="11.004845812153581"><ele>115.0</ele><time>2026-03-28T13:24:55Z</time></trkpt><trkpt lat="44.48976411784704" lon="11.004676940810537"><ele>115.0</ele><time>2026-03-28T13:24:56Z</time></trkpt><trkpt lat="44.48972243600194" lon="11.004520972404332"><ele>114.5</ele><time>2026-03-28T13:24:57Z</time></trkpt><trkpt lat="44.489689786412356" lon="11.00435967643871"><ele>114.0</ele><time>2026-03-28T13:24:58Z</time></trkpt><trkpt lat="44.48964872585374" lon="11.004206852920346"><ele>113.5</ele><time>2026-03-28T13:24:59Z</time></trkpt><trkpt lat="44.4896207080016" lon="11.004043277646264"><ele>113.0</ele><time>2026-03-28T13:25:00Z</time></trkpt><trkpt lat="44.489583182717425" lon="11.00388738807737"><ele>113.0</ele><time>2026-03-28T13:25:01Z</time></trkpt><trkpt lat="44.48954435557089" lon="11.003731009469654"><ele>113.00000000000001</ele><time>2026-03-28T13:25:02Z</time></trkpt><trkpt lat="44.48951525635211" lon="11.003579184362977"><ele>113.00000000000001</ele><time>2026-03-28T13:25:03Z</time></trkpt><trkpt lat="44.48948654382983" lon="11.00342882870181"><ele>113.0</ele><time>2026-03-28T13:25:04Z</time></trkpt><trkpt lat="44.4894721944627" lon="11.003284551579302"><ele>113.0</ele><time>2026-03-28T13:25:05Z</time></trkpt><trkpt lat="44.48944341777287" lon="11.003166663561496"><ele>113.0</ele><time>2026-03-28T13:25:06Z</time></trkpt><trkpt lat="44.48942342319706" lon="11.003068497562793"><ele>113.0</ele><time>2026-03-28T13:25:07Z</time></trkpt><trkpt lat="44.489395525616644" lon="11.002975023835166"><ele>113.0</ele><time>2026-03-28T13:25:08Z</time></trkpt><trkpt lat="44.489397592906734" lon="11.00286669017188"><ele>113.0</ele><time>2026-03-28T13:25:09Z</time></trkpt><trkpt lat="44.489388711163485" lon="11.002763436440352"><ele>113.0</ele><time>2026-03-28T13:25:10Z</time></trkpt><trkpt lat="44.48936643807105" lon="11.002665083277378"><ele>113.0</ele><time>2026-03-28T13:25:11Z</time></trkpt><trkpt lat="44.48937956685857" lon="11.002558174838983"><ele>113.0</ele><time>2026-03-28T13:25:12Z</time></trkpt><trkpt lat="44.48944147728176" lon="11.002466038100799"><ele>113.0</ele><time>2026-03-28T13:25:13Z</time></trkpt><trkpt lat="44.48946172260273" lon="11.002369344655433"><ele>113.00000000000001</ele><time>2026-03-28T13:25:14Z</time></trkpt><trkpt lat="44.489440923076295" lon="11.002261563750624"><ele>113.00000000000001</ele><time>2026-03-28T13:25:15Z</time></trkpt><trkpt lat="44.48943143988213" lon="11.002166060961828"><ele>113.0</ele><time>2026-03-28T13:25:16Z</time></trkpt><trkpt lat="44.489286923124354" lon="11.002104207375979"><ele>113.0</ele><time>2026-03-28T13:25:17Z</time></trkpt><trkpt lat="44.48920338322119" lon="11.002023772351707"><ele>113.0</ele><time>2026-03-28T13:25:18Z</time></trkpt><trkpt lat="44.48913337592484" lon="11.001911397493759"><ele>113.0</ele><time>2026-03-28T13:25:19Z</time></trkpt><trkpt lat="44.489082368777694" lon="11.001756560588277"><ele>113.0</ele><time>2026-03-28T13:25:20.001Z</time></trkpt><trkpt lat="44.48903994694918" lon="11.001581820418973"><ele>113.0</ele><time>2026-03-28T13:25:21.001Z</time></trkpt><trkpt lat="44.48899678676804" lon="11.00140021211128"><ele>113.5</ele><time>2026-03-28T13:25:22.001Z</time></trkpt><trkpt lat="44.48895808466806" lon="11.001216945460143"><ele>114.0</ele><time>2026-03-28T13:25:23.001Z</time></trkpt><trkpt lat="44.48891171468264" lon="11.001037483344811"><ele>114.5</ele><time>2026-03-28T13:25:24.001Z</time></trkpt><trkpt lat="44.48886437843662" lon="11.000861396240428"><ele>115.0</ele><time>2026-03-28T13:25:25.001Z</time></trkpt><trkpt lat="44.488826641206394" lon="11.000693634553933"><ele>115.0</ele><time>2026-03-28T13:25:26.001Z</time></trkpt><trkpt lat="44.48879761782587" lon="11.000533514348653"><ele>115.0</ele><time>2026-03-28T13:25:27.001Z</time></trkpt><trkpt lat="44.488743356675165" lon="11.000391056513742"><ele>115.0</ele><time>2026-03-28T13:25:28.001Z</time></trkpt><trkpt lat="44.48868465530792" lon="11.000233657713087"><ele>115.0</ele><time>2026-03-28T13:25:29.001Z</time></trkpt><trkpt lat="44.48862925800478" lon="11.000076138168179"><ele>116.25</ele><time>2026-03-28T13:25:30.001Z</time></trkpt><trkpt lat="44.48856452214423" lon="10.999926374891885"><ele>117.5</ele><time>2026-03-28T13:25:31.001Z</time></trkpt><trkpt lat="44.48849375362092" lon="10.999778158577147"><ele>118.75</ele><time>2026-03-28T13:25:32.001Z</time></trkpt><trkpt lat="44.48841606081808" lon="10.999631543277014"><ele>120.0</ele><time>2026-03-28T13:25:33.001Z</time></trkpt><trkpt lat="44.48831182853607" lon="10.999479730607558"><ele>120.0</ele><time>2026-03-28T13:25:34.001Z</time></trkpt><trkpt lat="44.488178765540496" lon="10.999280820767966"><ele>120.0</ele><time>2026-03-28T13:25:35.001Z</time></trkpt><trkpt lat="44.4880624155562" lon="10.999147346809302"><ele>120.0</ele><time>2026-03-28T13:25:36.001Z</time></trkpt><trkpt lat="44.48796011266694" lon="10.999023533779834"><ele>119.0</ele><time>2026-03-28T13:25:37.001Z</time></trkpt><trkpt lat="44.48781323424478" lon="10.998919961116568"><ele>118.0</ele><time>2026-03-28T13:25:38.001Z</time></trkpt><trkpt lat="44.487635993989755" lon="10.998766871826694"><ele>117.0</ele><time>2026-03-28T13:25:39.001Z</time></trkpt><trkpt lat="44.48744856155023" lon="10.998588883345299"><ele>117.0</ele><time>2026-03-28T13:25:40.001Z</time></trkpt><trkpt lat="44.48721795604994" lon="10.998459617558511"><ele>117.0</ele><time>2026-03-28T13:25:41.001Z</time></trkpt><trkpt lat="44.48696099104836" lon="10.998368913542114"><ele>118.5</ele><time>2026-03-28T13:25:42.001Z</time></trkpt><trkpt lat="44.48670980522239" lon="10.998295542902389"><ele>120.0</ele><time>2026-03-28T13:25:43.001Z</time></trkpt><trkpt lat="44.486494122814754" lon="10.99823738180607"><ele>120.0</ele><time>2026-03-28T13:25:44.001Z</time></trkpt><trkpt lat="44.48630276078233" lon="10.998177322156542"><ele>120.0</ele><time>2026-03-28T13:25:45.001Z</time></trkpt><trkpt lat="44.48612310982634" lon="10.99813121245573"><ele>120.0</ele><time>2026-03-28T13:25:46.001Z</time></trkpt><trkpt lat="44.48594162926363" lon="10.99808235570043"><ele>120.33333333333334</ele><time>2026-03-28T13:25:47.001Z</time></trkpt><trkpt lat="44.48575341849349" lon="10.998022338342395"><ele>120.66666666666667</ele><time>2026-03-28T13:25:48.001Z</time></trkpt><trkpt lat="44.48556310380069" lon="10.997939424073774"><ele>121.0</ele><time>2026-03-28T13:25:49.001Z</time></trkpt><trkpt lat="44.485381529907556" lon="10.997861067892494"><ele>121.33333333333334</ele><time>2026-03-28T13:25:50.001Z</time></trkpt><trkpt lat="44.485208454855645" lon="10.997806546575424"><ele>121.66666666666666</ele><time>2026-03-28T13:25:51.001Z</time></trkpt><trkpt lat="44.48505545510015" lon="10.997762519100409"><ele>122.0</ele><time>2026-03-28T13:25:52.001Z</time></trkpt><trkpt lat="44.484920123062615" lon="10.997723108097201"><ele>122.0</ele><time>2026-03-28T13:25:53.001Z</time></trkpt><trkpt lat="44.48481246000107" lon="10.997695153008241"><ele>121.99999999999999</ele><time>2026-03-28T13:25:54.001Z</time></trkpt><trkpt lat="44.48473223786954" lon="10.997680255562075"><ele>121.99999999999999</ele><time>2026-03-28T13:25:55.001Z</time></trkpt><trkpt lat="44.48463098184543" lon="10.997655144336164"><ele>122.0</ele><time>2026-03-28T13:25:57.001Z</time></trkpt><trkpt lat="44.484561353957716" lon="10.997633917729086"><ele>122.0</ele><time>2026-03-28T13:26:32Z</time></trkpt><trkpt lat="44.48447442137857" lon="10.997590424802988"><ele>122.0</ele><time>2026-03-28T13:26:34Z</time></trkpt><trkpt lat="44.484350806573595" lon="10.997544436912104"><ele>121.99999999999999</ele><time>2026-03-28T13:26:36Z</time></trkpt><trkpt lat="44.484278770626865" lon="10.997519091095935"><ele>121.99999999999999</ele><time>2026-03-28T13:26:37Z</time></trkpt><trkpt lat="44.48420357799791" lon="10.997491190863087"><ele>122.0</ele><time>2026-03-28T13:26:38Z</time></trkpt><trkpt lat="44.48411068765988" lon="10.997455465548153"><ele>122.0</ele><time>2026-03-28T13:26:39Z</time></trkpt><trkpt lat="44.483991644179895" lon="10.997413577440891"><ele>122.0</ele><time>2026-03-28T13:26:40Z</time></trkpt><trkpt lat="44.48385381288543" lon="10.997368703457626"><ele>122.0</ele><time>2026-03-28T13:26:41Z</time></trkpt><trkpt lat="44.48370450032696" lon="10.997316591270675"><ele>122.0</ele><time>2026-03-28T13:26:42Z</time></trkpt><trkpt lat="44.48354969909654" lon="10.997268238294614"><ele>122.66666666666666</ele><time>2026-03-28T13:26:43Z</time></trkpt><trkpt lat="44.48339408634044" lon="10.997225933896042"><ele>123.33333333333334</ele><time>2026-03-28T13:26:44Z</time></trkpt><trkpt lat="44.4832425202236" lon="10.99718186609438"><ele>124.0</ele><time>2026-03-28T13:26:45Z</time></trkpt><trkpt lat="44.4830975731761" lon="10.997136269626006"><ele>124.0</ele><time>2026-03-28T13:26:46Z</time></trkpt><trkpt lat="44.48296445056031" lon="10.997101922392801"><ele>124.0</ele><time>2026-03-28T13:26:47Z</time></trkpt><trkpt lat="44.48284592975315" lon="10.997072852133922"><ele>124.0</ele><time>2026-03-28T13:26:48Z</time></trkpt><trkpt lat="44.48274148834628" lon="10.997048243735799"><ele>124.0</ele><time>2026-03-28T13:26:49Z</time></trkpt><trkpt lat="44.48264696040491" lon="10.997028167587173"><ele>123.80000000000001</ele><time>2026-03-28T13:26:50Z</time></trkpt><trkpt lat="44.482563169983464" lon="10.996989006212857"><ele>123.60000000000001</ele><time>2026-03-28T13:26:51Z</time></trkpt><trkpt lat="44.48248546494025" lon="10.996929424858902"><ele>123.4</ele><time>2026-03-28T13:26:52Z</time></trkpt><trkpt lat="44.482405848844515" lon="10.996856105431286"><ele>123.2</ele><time>2026-03-28T13:26:53Z</time></trkpt><trkpt lat="44.482319311595006" lon="10.996770170826677"><ele>123.0</ele><time>2026-03-28T13:26:54Z</time></trkpt><trkpt lat="44.48223087918124" lon="10.996669283266863"><ele>123.5</ele><time>2026-03-28T13:26:55Z</time></trkpt><trkpt lat="44.4821388247992" lon="10.996552598836438"><ele>124.0</ele><time>2026-03-28T13:26:56Z</time></trkpt><trkpt lat="44.48204271058587" lon="10.996434885087211"><ele>124.5</ele><time>2026-03-28T13:26:57Z</time></trkpt><trkpt lat="44.481942763055905" lon="10.99631169830354"><ele>125.0</ele><time>2026-03-28T13:26:58Z</time></trkpt><trkpt lat="44.4818367913569" lon="10.996181884306944"><ele>125.0</ele><time>2026-03-28T13:26:59Z</time></trkpt><trkpt lat="44.48172406084895" lon="10.996043307639285"><ele>125.0</ele><time>2026-03-28T13:27:00Z</time></trkpt><trkpt lat="44.4816084610191" lon="10.995898276503198"><ele>125.0</ele><time>2026-03-28T13:27:01Z</time></trkpt><trkpt lat="44.4814829129816" lon="10.995760136147144"><ele>125.66666666666666</ele><time>2026-03-28T13:27:02Z</time></trkpt><trkpt lat="44.4813606897384" lon="10.995615274080532"><ele>126.33333333333334</ele><time>2026-03-28T13:27:03Z</time></trkpt><trkpt lat="44.48124088653386" lon="10.99547009122912"><ele>127.0</ele><time>2026-03-28T13:27:04Z</time></trkpt><trkpt lat="44.48112251272901" lon="10.995330111256123"><ele>127.0</ele><time>2026-03-28T13:27:05Z</time></trkpt><trkpt lat="44.48100167155125" lon="10.995189128584085"><ele>127.0</ele><time>2026-03-28T13:27:06Z</time></trkpt><trkpt lat="44.48089675761277" lon="10.995035390031408"><ele>127.0</ele><time>2026-03-28T13:27:07Z</time></trkpt><trkpt lat="44.48078767811487" lon="10.99490215023702"><ele>127.6</ele><time>2026-03-28T13:27:08Z</time></trkpt><trkpt lat="44.48067760692167" lon="10.994797816410799"><ele>128.2</ele><time>2026-03-28T13:27:09Z</time></trkpt><trkpt lat="44.48059232093285" lon="10.99467965506064"><ele>128.8</ele><time>2026-03-28T13:27:10Z</time></trkpt><trkpt lat="44.48052935092973" lon="10.994612695891243"><ele>129.4</ele><time>2026-03-28T13:27:11Z</time></trkpt><trkpt lat="44.480473938316564" lon="10.994541568884712"><ele>130.0</ele><time>2026-03-28T13:27:12Z</time></trkpt><trkpt lat="44.48041707251891" lon="10.994470417311607"><ele>130.16666666666669</ele><time>2026-03-28T13:27:13Z</time></trkpt><trkpt lat="44.480353509175806" lon="10.994397997867601"><ele>130.33333333333334</ele><time>2026-03-28T13:27:14Z</time></trkpt><trkpt lat="44.480285321976346" lon="10.994316518713278"><ele>130.5</ele><time>2026-03-28T13:27:15Z</time></trkpt><trkpt lat="44.48022212823904" lon="10.994232936139857"><ele>130.66666666666666</ele><time>2026-03-28T13:27:16Z</time></trkpt><trkpt lat="44.480153255139435" lon="10.994152745175207"><ele>130.83333333333331</ele><time>2026-03-28T13:27:17Z</time></trkpt><trkpt lat="44.48008346170014" lon="10.99406869896401"><ele>131.0</ele><time>2026-03-28T13:27:18Z</time></trkpt><trkpt lat="44.4800169558887" lon="10.993985936359428"><ele>131.0</ele><time>2026-03-28T13:27:19Z</time></trkpt><trkpt lat="44.47995226672045" lon="10.993906917655007"><ele>131.0</ele><time>2026-03-28T13:27:20Z</time></trkpt><trkpt lat="44.479892997631524" lon="10.993832592240036"><ele>131.0</ele><time>2026-03-28T13:27:21Z</time></trkpt><trkpt lat="44.47983718183053" lon="10.993765247106698"><ele>131.0</ele><time>2026-03-28T13:27:22Z</time></trkpt><trkpt lat="44.47976333098608" lon="10.993668026317364"><ele>131.0</ele><time>2026-03-28T13:27:24Z</time></trkpt><trkpt lat="44.4796959213781" lon="10.99358896037967"><ele>131.0</ele><time>2026-03-28T13:27:30Z</time></trkpt><trkpt lat="44.47964987680392" lon="10.993507928580863"><ele>131.0</ele><time>2026-03-28T13:27:32Z</time></trkpt><trkpt lat="44.47963246667594" lon="10.993413022776304"><ele>131.0</ele><time>2026-03-28T13:27:34Z</time></trkpt><trkpt lat="44.47954653211388" lon="10.993327184256446"><ele>131.0</ele><time>2026-03-28T13:27:36Z</time></trkpt><trkpt lat="44.479467848500626" lon="10.993308152359106"><ele>131.0</ele><time>2026-03-28T13:27:37Z</time></trkpt><trkpt lat="44.479401205758" lon="10.993251489488134"><ele>131.0</ele><time>2026-03-28T13:27:38.001Z</time></trkpt><trkpt lat="44.47933732587226" lon="10.993187253964987"><ele>131.0</ele><time>2026-03-28T13:27:39.001Z</time></trkpt><trkpt lat="44.47928817877407" lon="10.993082499602336"><ele>131.0</ele><time>2026-03-28T13:27:40.001Z</time></trkpt><trkpt lat="44.479215314232064" lon="10.992996441312973"><ele>131.0</ele><time>2026-03-28T13:27:41.001Z</time></trkpt><trkpt lat="44.47913745488411" lon="10.992904364793159"><ele>131.0</ele><time>2026-03-28T13:27:42.001Z</time></trkpt><trkpt lat="44.47905816442592" lon="10.992810507826027"><ele>131.0</ele><time>2026-03-28T13:27:43.001Z</time></trkpt><trkpt lat="44.47898136230831" lon="10.992719596332009"><ele>131.0</ele><time>2026-03-28T13:27:44.001Z</time></trkpt><trkpt lat="44.478898511978755" lon="10.992620113817337"><ele>131.0</ele><time>2026-03-28T13:27:45.001Z</time></trkpt><trkpt lat="44.47880235987001" lon="10.99253313653045"><ele>131.0</ele><time>2026-03-28T13:27:46.001Z</time></trkpt><trkpt lat="44.478685547082996" lon="10.992387913208143"><ele>131.0</ele><time>2026-03-28T13:27:47.001Z</time></trkpt><trkpt lat="44.478519787743565" lon="10.992192126470854"><ele>131.0</ele><time>2026-03-28T13:27:48.001Z</time></trkpt><trkpt lat="44.47833364386711" lon="10.991962264937511"><ele>131.0</ele><time>2026-03-28T13:27:49.001Z</time></trkpt><trkpt lat="44.47813514911262" lon="10.99168981589525"><ele>132.0</ele><time>2026-03-28T13:27:50.001Z</time></trkpt><trkpt lat="44.47792107587051" lon="10.991402071719296"><ele>133.0</ele><time>2026-03-28T13:27:51.001Z</time></trkpt><trkpt lat="44.47768744629584" lon="10.991119124627216"><ele>133.0</ele><time>2026-03-28T13:27:52.001Z</time></trkpt><trkpt lat="44.47745125512328" lon="10.990843463783735"><ele>133.0</ele><time>2026-03-28T13:27:53.001Z</time></trkpt><trkpt lat="44.47721900543839" lon="10.990569252923887"><ele>134.5</ele><time>2026-03-28T13:27:54.001Z</time></trkpt><trkpt lat="44.47699260908476" lon="10.990300343582815"><ele>136.0</ele><time>2026-03-28T13:27:55.001Z</time></trkpt><trkpt lat="44.476788758554925" lon="10.990054926887595"><ele>135.0</ele><time>2026-03-28T13:27:56.001Z</time></trkpt><trkpt lat="44.47659390758676" lon="10.989822742327705"><ele>134.0</ele><time>2026-03-28T13:27:57.001Z</time></trkpt><trkpt lat="44.476405693464315" lon="10.989600397345507"><ele>134.0</ele><time>2026-03-28T13:27:58.001Z</time></trkpt><trkpt lat="44.476220213548736" lon="10.989373080453584"><ele>134.0</ele><time>2026-03-28T13:27:59.001Z</time></trkpt><trkpt lat="44.476033761611944" lon="10.989143424416097"><ele>133.5</ele><time>2026-03-28T13:28:00.001Z</time></trkpt><trkpt lat="44.47584631881955" lon="10.988912247999156"><ele>133.0</ele><time>2026-03-28T13:28:01.001Z</time></trkpt><trkpt lat="44.47565635603842" lon="10.98868674314322"><ele>133.0</ele><time>2026-03-28T13:28:02.001Z</time></trkpt><trkpt lat="44.47546738285493" lon="10.988467722684405"><ele>133.0</ele><time>2026-03-28T13:28:03.001Z</time></trkpt><trkpt lat="44.47528833569459" lon="10.988252488031636"><ele>133.5</ele><time>2026-03-28T13:28:04.001Z</time></trkpt><trkpt lat="44.47511341919115" lon="10.988036361176269"><ele>134.0</ele><time>2026-03-28T13:28:05.001Z</time></trkpt><trkpt lat="44.47494438281323" lon="10.987827087914065"><ele>134.0</ele><time>2026-03-28T13:28:06.001Z</time></trkpt><trkpt lat="44.47477536589668" lon="10.987626367402353"><ele>134.0</ele><time>2026-03-28T13:28:07.001Z</time></trkpt><trkpt lat="44.474608355524204" lon="10.987430786266769"><ele>134.0</ele><time>2026-03-28T13:28:08.001Z</time></trkpt><trkpt lat="44.474447030238025" lon="10.987232968084431"><ele>134.0</ele><time>2026-03-28T13:28:09.001Z</time></trkpt><trkpt lat="44.47429139270263" lon="10.987039661347476"><ele>134.0</ele><time>2026-03-28T13:28:10.001Z</time></trkpt><trkpt lat="44.474148523199226" lon="10.986860621837565"><ele>134.0</ele><time>2026-03-28T13:28:11.001Z</time></trkpt><trkpt lat="44.474015534547725" lon="10.986690570657062"><ele>134.75</ele><time>2026-03-28T13:28:12.001Z</time></trkpt><trkpt lat="44.473898483705945" lon="10.986544514103567"><ele>135.5</ele><time>2026-03-28T13:28:13.001Z</time></trkpt><trkpt lat="44.473796645883496" lon="10.986436264034202"><ele>136.25</ele><time>2026-03-28T13:28:14.001Z</time></trkpt><trkpt lat="44.473666936094986" lon="10.986411232849036"><ele>137.0</ele><time>2026-03-28T13:28:15.001Z</time></trkpt><trkpt lat="44.47358213956264" lon="10.9863177014891"><ele>136.0</ele><time>2026-03-28T13:28:16.001Z</time></trkpt><trkpt lat="44.47349421368719" lon="10.986220707281749"><ele>135.0</ele><time>2026-03-28T13:28:17.001Z</time></trkpt><trkpt lat="44.47343425372034" lon="10.986035544280748"><ele>134.0</ele><time>2026-03-28T13:28:18.001Z</time></trkpt><trkpt lat="44.47335562678662" lon="10.985830092961066"><ele>133.0</ele><time>2026-03-28T13:28:19.001Z</time></trkpt><trkpt lat="44.473242214665106" lon="10.985631923937198"><ele>133.0</ele><time>2026-03-28T13:28:20.001Z</time></trkpt><trkpt lat="44.473132056807735" lon="10.9853933002889"><ele>133.0</ele><time>2026-03-28T13:28:21.001Z</time></trkpt><trkpt lat="44.47303997420844" lon="10.985115625524656"><ele>133.0</ele><time>2026-03-28T13:28:22.001Z</time></trkpt><trkpt lat="44.472982184837534" lon="10.984820847590841"><ele>130.66666666666669</ele><time>2026-03-28T13:28:23.001Z</time></trkpt><trkpt lat="44.47290354186417" lon="10.98453161911801"><ele>128.33333333333334</ele><time>2026-03-28T13:28:24.001Z</time></trkpt><trkpt lat="44.47283700276907" lon="10.984226385642016"><ele>126.0</ele><time>2026-03-28T13:28:25.001Z</time></trkpt><trkpt lat="44.47276195111811" lon="10.983917250992562"><ele>126.0</ele><time>2026-03-28T13:28:26.001Z</time></trkpt><trkpt lat="44.47268872597848" lon="10.983617670734299"><ele>126.0</ele><time>2026-03-28T13:28:27.001Z</time></trkpt><trkpt lat="44.47262060343829" lon="10.983325365594448"><ele>126.0</ele><time>2026-03-28T13:28:28.001Z</time></trkpt><trkpt lat="44.47254836142423" lon="10.98301729368647"><ele>128.0</ele><time>2026-03-28T13:28:29.001Z</time></trkpt><trkpt lat="44.472473944121894" lon="10.982699764838122"><ele>130.0</ele><time>2026-03-28T13:28:30.001Z</time></trkpt><trkpt lat="44.47241040683366" lon="10.982369746855886"><ele>131.5</ele><time>2026-03-28T13:28:31.001Z</time></trkpt><trkpt lat="44.47232378308222" lon="10.982036193771206"><ele>133.0</ele><time>2026-03-28T13:28:32.001Z</time></trkpt><trkpt lat="44.47223795141376" lon="10.981710331840752"><ele>136.0</ele><time>2026-03-28T13:28:33.001Z</time></trkpt><trkpt lat="44.47214007409647" lon="10.98138210136733"><ele>139.0</ele><time>2026-03-28T13:28:34Z</time></trkpt><trkpt lat="44.47202287977493" lon="10.981077700964532"><ele>134.0</ele><time>2026-03-28T13:28:35Z</time></trkpt><trkpt lat="44.47189092872237" lon="10.98078365926401"><ele>129.0</ele><time>2026-03-28T13:28:36Z</time></trkpt><trkpt lat="44.47175849326364" lon="10.980501498950582"><ele>129.0</ele><time>2026-03-28T13:28:37Z</time></trkpt><trkpt lat="44.47162417006873" lon="10.98021885505793"><ele>129.0</ele><time>2026-03-28T13:28:38Z</time></trkpt><trkpt lat="44.47147986944595" lon="10.979952490815394"><ele>127.5</ele><time>2026-03-28T13:28:39Z</time></trkpt><trkpt lat="44.471305149075164" lon="10.979704756959343"><ele>126.0</ele><time>2026-03-28T13:28:40Z</time></trkpt><trkpt lat="44.47111245616493" lon="10.979471025880141"><ele>126.0</ele><time>2026-03-28T13:28:41Z</time></trkpt><trkpt lat="44.4709111043361" lon="10.97925241850208"><ele>126.0</ele><time>2026-03-28T13:28:42Z</time></trkpt><trkpt lat="44.4707112366127" lon="10.979037908806944"><ele>125.5</ele><time>2026-03-28T13:28:43Z</time></trkpt><trkpt lat="44.47053018173069" lon="10.978806531008189"><ele>125.0</ele><time>2026-03-28T13:28:44Z</time></trkpt><trkpt lat="44.47034146903812" lon="10.978618218503462"><ele>125.0</ele><time>2026-03-28T13:28:45Z</time></trkpt><trkpt lat="44.47016282828868" lon="10.978418199637062"><ele>125.0</ele><time>2026-03-28T13:28:46Z</time></trkpt><trkpt lat="44.4699972325132" lon="10.978201889013366"><ele>125.0</ele><time>2026-03-28T13:28:47Z</time></trkpt><trkpt lat="44.4698150506042" lon="10.978021191386283"><ele>125.0</ele><time>2026-03-28T13:28:48Z</time></trkpt><trkpt lat="44.46964247340275" lon="10.977818755501461"><ele>125.0</ele><time>2026-03-28T13:28:49Z</time></trkpt><trkpt lat="44.469460042089175" lon="10.977633302239344"><ele>126.0</ele><time>2026-03-28T13:28:50Z</time></trkpt><trkpt lat="44.469292260120774" lon="10.977428824393197"><ele>127.0</ele><time>2026-03-28T13:28:51Z</time></trkpt><trkpt lat="44.46912607172407" lon="10.977231326870543"><ele>128.0</ele><time>2026-03-28T13:28:52Z</time></trkpt><trkpt lat="44.46896530470066" lon="10.977029321514337"><ele>128.0</ele><time>2026-03-28T13:28:53Z</time></trkpt><trkpt lat="44.46879623054854" lon="10.97683634794862"><ele>128.0</ele><time>2026-03-28T13:28:54Z</time></trkpt><trkpt lat="44.468615386282295" lon="10.976656285799564"><ele>128.0</ele><time>2026-03-28T13:28:55Z</time></trkpt><trkpt lat="44.46843663021117" lon="10.976473810685407"><ele>128.33333333333331</ele><time>2026-03-28T13:28:56Z</time></trkpt><trkpt lat="44.468251514443516" lon="10.976300862476972"><ele>128.66666666666666</ele><time>2026-03-28T13:28:57Z</time></trkpt><trkpt lat="44.468055074676464" lon="10.976155840645017"><ele>129.0</ele><time>2026-03-28T13:28:58Z</time></trkpt><trkpt lat="44.46784791379231" lon="10.976032950023454"><ele>128.0</ele><time>2026-03-28T13:28:59Z</time></trkpt><trkpt lat="44.46763667827849" lon="10.975914494882357"><ele>127.0</ele><time>2026-03-28T13:29:00Z</time></trkpt><trkpt lat="44.467428088590346" lon="10.975797417666964"><ele>127.33333333333334</ele><time>2026-03-28T13:29:01Z</time></trkpt><trkpt lat="44.46722227607429" lon="10.975681368408992"><ele>127.66666666666666</ele><time>2026-03-28T13:29:02Z</time></trkpt><trkpt lat="44.46701171046583" lon="10.975565147297697"><ele>128.0</ele><time>2026-03-28T13:29:03Z</time></trkpt><trkpt lat="44.46679790955847" lon="10.975423988788195"><ele>128.0</ele><time>2026-03-28T13:29:04Z</time></trkpt><trkpt lat="44.466574802029996" lon="10.975299124482284"><ele>128.0</ele><time>2026-03-28T13:29:05Z</time></trkpt><trkpt lat="44.46636132344708" lon="10.975178688978628"><ele>128.33333333333331</ele><time>2026-03-28T13:29:06Z</time></trkpt><trkpt lat="44.46615756292983" lon="10.975063735934228"><ele>128.66666666666666</ele><time>2026-03-28T13:29:07Z</time></trkpt><trkpt lat="44.465958523467215" lon="10.974970666948872"><ele>129.0</ele><time>2026-03-28T13:29:08Z</time></trkpt><trkpt lat="44.46576615404816" lon="10.974867709397177"><ele>129.0</ele><time>2026-03-28T13:29:09Z</time></trkpt><trkpt lat="44.4655861687888" lon="10.974742426576531"><ele>129.0</ele><time>2026-03-28T13:29:10Z</time></trkpt><trkpt lat="44.46538952644918" lon="10.974632224639867"><ele>129.0</ele><time>2026-03-28T13:29:11Z</time></trkpt><trkpt lat="44.46518851635475" lon="10.974519574960409"><ele>129.0</ele><time>2026-03-28T13:29:12Z</time></trkpt><trkpt lat="44.46499995660075" lon="10.974411459885202"><ele>129.0</ele><time>2026-03-28T13:29:13Z</time></trkpt><trkpt lat="44.46480183583986" lon="10.974307784753881"><ele>129.0</ele><time>2026-03-28T13:29:14Z</time></trkpt><trkpt lat="44.46460331289649" lon="10.97417853746946"><ele>129.0</ele><time>2026-03-28T13:29:15Z</time></trkpt><trkpt lat="44.46439451967351" lon="10.974058297091318"><ele>129.0</ele><time>2026-03-28T13:29:16Z</time></trkpt><trkpt lat="44.464186845323226" lon="10.97395118812457"><ele>129.0</ele><time>2026-03-28T13:29:17Z</time></trkpt><trkpt lat="44.46397512035179" lon="10.973830860125345"><ele>130.0</ele><time>2026-03-28T13:29:18Z</time></trkpt><trkpt lat="44.4637670293353" lon="10.973699108750216"><ele>131.0</ele><time>2026-03-28T13:29:19Z</time></trkpt><trkpt lat="44.463551369644236" lon="10.973546266975447"><ele>131.0</ele><time>2026-03-28T13:29:20Z</time></trkpt><trkpt lat="44.46335180610138" lon="10.97339410951174"><ele>131.0</ele><time>2026-03-28T13:29:21Z</time></trkpt><trkpt lat="44.46314628468874" lon="10.97323088727861"><ele>130.5</ele><time>2026-03-28T13:29:22Z</time></trkpt><trkpt lat="44.46293991077031" lon="10.973066178637382"><ele>130.0</ele><time>2026-03-28T13:29:23Z</time></trkpt><trkpt lat="44.462727600190135" lon="10.97290182157946"><ele>130.0</ele><time>2026-03-28T13:29:24Z</time></trkpt><trkpt lat="44.46251566038831" lon="10.972736548604429"><ele>130.0</ele><time>2026-03-28T13:29:25Z</time></trkpt><trkpt lat="44.46230490533171" lon="10.972575027605188"><ele>131.5</ele><time>2026-03-28T13:29:26Z</time></trkpt><trkpt lat="44.46209997717513" lon="10.972417840321526"><ele>133.0</ele><time>2026-03-28T13:29:27Z</time></trkpt><trkpt lat="44.46189362368568" lon="10.972269927903488"><ele>133.0</ele><time>2026-03-28T13:29:28Z</time></trkpt><trkpt lat="44.461685491803536" lon="10.972140306280536"><ele>133.0</ele><time>2026-03-28T13:29:29Z</time></trkpt><trkpt lat="44.46147439960761" lon="10.972060757193498"><ele>133.0</ele><time>2026-03-28T13:29:30Z</time></trkpt><trkpt lat="44.46126565645575" lon="10.97200870684272"><ele>133.33333333333334</ele><time>2026-03-28T13:29:31Z</time></trkpt><trkpt lat="44.461064059694124" lon="10.971960456602169"><ele>133.66666666666666</ele><time>2026-03-28T13:29:32Z</time></trkpt><trkpt lat="44.460877687535316" lon="10.971901923093109"><ele>134.0</ele><time>2026-03-28T13:29:33Z</time></trkpt><trkpt lat="44.46070679392762" lon="10.971843715980674"><ele>134.0</ele><time>2026-03-28T13:29:34Z</time></trkpt><trkpt lat="44.46054724947185" lon="10.971777031776732"><ele>134.0</ele><time>2026-03-28T13:29:35Z</time></trkpt><trkpt lat="44.460398714101714" lon="10.971717415935542"><ele>134.0</ele><time>2026-03-28T13:29:36Z</time></trkpt><trkpt lat="44.460279811190674" lon="10.971658015948963"><ele>134.0</ele><time>2026-03-28T13:29:37Z</time></trkpt><trkpt lat="44.46018556984541" lon="10.9715700101601"><ele>134.0</ele><time>2026-03-28T13:29:38Z</time></trkpt><trkpt lat="44.46011003941822" lon="10.971467952381012"><ele>134.0</ele><time>2026-03-28T13:29:39Z</time></trkpt><trkpt lat="44.4600267563387" lon="10.971440865443446"><ele>134.0</ele><time>2026-03-28T13:29:40Z</time></trkpt><trkpt lat="44.45992124097323" lon="10.971476746710099"><ele>134.0</ele><time>2026-03-28T13:29:41Z</time></trkpt><trkpt lat="44.4597872134024" lon="10.971487733405676"><ele>134.0</ele><time>2026-03-28T13:29:42Z</time></trkpt><trkpt lat="44.45964376539439" lon="10.971426153563659"><ele>134.0</ele><time>2026-03-28T13:29:43Z</time></trkpt><trkpt lat="44.459488265848215" lon="10.971353558293437"><ele>134.0</ele><time>2026-03-28T13:29:44Z</time></trkpt><trkpt lat="44.459314989021905" lon="10.971290053689048"><ele>134.0</ele><time>2026-03-28T13:29:45Z</time></trkpt><trkpt lat="44.4591345176658" lon="10.97122844929735"><ele>134.0</ele><time>2026-03-28T13:29:46Z</time></trkpt><trkpt lat="44.45894998577311" lon="10.971149369845211"><ele>134.0</ele><time>2026-03-28T13:29:47.001Z</time></trkpt><trkpt lat="44.45876288550125" lon="10.971064218653858"><ele>134.0</ele><time>2026-03-28T13:29:48.001Z</time></trkpt><trkpt lat="44.45857145156128" lon="10.970974791394827"><ele>134.33333333333331</ele><time>2026-03-28T13:29:49.001Z</time></trkpt><trkpt lat="44.4583824770872" lon="10.970891061632136"><ele>134.66666666666666</ele><time>2026-03-28T13:29:50.001Z</time></trkpt><trkpt lat="44.45820041180936" lon="10.970812496959628"><ele>135.0</ele><time>2026-03-28T13:29:51.001Z</time></trkpt><trkpt lat="44.45802231036255" lon="10.97073740931638"><ele>135.33333333333334</ele><time>2026-03-28T13:29:52.001Z</time></trkpt><trkpt lat="44.45785283074651" lon="10.970660258541542"><ele>135.66666666666669</ele><time>2026-03-28T13:29:53.001Z</time></trkpt><trkpt lat="44.45771423804246" lon="10.970509408862405"><ele>136.0</ele><time>2026-03-28T13:29:54.001Z</time></trkpt><trkpt lat="44.457557626303974" lon="10.970368318254966"><ele>136.0</ele><time>2026-03-28T13:29:55.001Z</time></trkpt><trkpt lat="44.4573896630229" lon="10.97023896708243"><ele>136.0</ele><time>2026-03-28T13:29:56.001Z</time></trkpt><trkpt lat="44.457228015833884" lon="10.970088747480979"><ele>136.0</ele><time>2026-03-28T13:29:57.001Z</time></trkpt><trkpt lat="44.45706628627918" lon="10.969951964071353"><ele>136.33333333333334</ele><time>2026-03-28T13:29:58.001Z</time></trkpt><trkpt lat="44.4569065503119" lon="10.969813512599853"><ele>136.66666666666666</ele><time>2026-03-28T13:29:59.001Z</time></trkpt><trkpt lat="44.45676391941135" lon="10.969690492424466"><ele>137.0</ele><time>2026-03-28T13:30:00.001Z</time></trkpt><trkpt lat="44.45662735974841" lon="10.969569887409103"><ele>137.0</ele><time>2026-03-28T13:30:01.001Z</time></trkpt><trkpt lat="44.45650035239365" lon="10.969457909891695"><ele>137.0</ele><time>2026-03-28T13:30:02.001Z</time></trkpt><trkpt lat="44.45636501446876" lon="10.969342737237328"><ele>137.0</ele><time>2026-03-28T13:30:03.001Z</time></trkpt><trkpt lat="44.45622800048599" lon="10.96921655643694"><ele>137.0</ele><time>2026-03-28T13:30:04.001Z</time></trkpt><trkpt lat="44.45609056525006" lon="10.969070744465029"><ele>137.0</ele><time>2026-03-28T13:30:05.001Z</time></trkpt><trkpt lat="44.45595923477611" lon="10.968902129479462"><ele>137.0</ele><time>2026-03-28T13:30:06.001Z</time></trkpt><trkpt lat="44.455839094616486" lon="10.968727347861298"><ele>137.0</ele><time>2026-03-28T13:30:07.001Z</time></trkpt><trkpt lat="44.45571846479646" lon="10.968549496021886"><ele>137.0</ele><time>2026-03-28T13:30:08.001Z</time></trkpt><trkpt lat="44.45559196621702" lon="10.968373615412267"><ele>137.0</ele><time>2026-03-28T13:30:09.001Z</time></trkpt><trkpt lat="44.45547709045249" lon="10.968167760555591"><ele>138.0</ele><time>2026-03-28T13:30:10.001Z</time></trkpt><trkpt lat="44.45531765880455" lon="10.967988844696265"><ele>139.0</ele><time>2026-03-28T13:30:11.001Z</time></trkpt><trkpt lat="44.455166932950355" lon="10.967776036344477"><ele>140.0</ele><time>2026-03-28T13:30:12.001Z</time></trkpt><trkpt lat="44.455013087518296" lon="10.967560979175207"><ele>140.0</ele><time>2026-03-28T13:30:13.001Z</time></trkpt><trkpt lat="44.45486507037108" lon="10.967361941593238"><ele>140.0</ele><time>2026-03-28T13:30:14.001Z</time></trkpt><trkpt lat="44.454709972210644" lon="10.96718029664663"><ele>140.0</ele><time>2026-03-28T13:30:15.001Z</time></trkpt><trkpt lat="44.45456663830618" lon="10.967000937139138"><ele>140.0</ele><time>2026-03-28T13:30:16.001Z</time></trkpt><trkpt lat="44.4545238562793" lon="10.966737987186546"><ele>140.0</ele><time>2026-03-28T13:30:17.001Z</time></trkpt><trkpt lat="44.454449725952344" lon="10.966563135446536"><ele>140.0</ele><time>2026-03-28T13:30:18.001Z</time></trkpt><trkpt lat="44.454405279727105" lon="10.966361475359674"><ele>140.0</ele><time>2026-03-28T13:30:19.001Z</time></trkpt><trkpt lat="44.45436464393761" lon="10.96616374514415"><ele>140.0</ele><time>2026-03-28T13:30:20.001Z</time></trkpt><trkpt lat="44.45432283065013" lon="10.965959247221784"><ele>140.0</ele><time>2026-03-28T13:30:21.001Z</time></trkpt><trkpt lat="44.45427977755586" lon="10.965749775378457"><ele>139.66666666666666</ele><time>2026-03-28T13:30:22.001Z</time></trkpt><trkpt lat="44.45423712066613" lon="10.965542595848687"><ele>139.33333333333334</ele><time>2026-03-28T13:30:23.001Z</time></trkpt><trkpt lat="44.45417637947598" lon="10.96535096022682"><ele>139.0</ele><time>2026-03-28T13:30:24.001Z</time></trkpt><trkpt lat="44.4541281033331" lon="10.965132013152445"><ele>140.33333333333334</ele><time>2026-03-28T13:30:25.001Z</time></trkpt><trkpt lat="44.45405048181308" lon="10.964860344711196"><ele>141.66666666666666</ele><time>2026-03-28T13:30:26.001Z</time></trkpt><trkpt lat="44.45396433885339" lon="10.964557520124165"><ele>143.0</ele><time>2026-03-28T13:30:27.001Z</time></trkpt><trkpt lat="44.45386895503759" lon="10.964258563828073"><ele>140.5</ele><time>2026-03-28T13:30:28.001Z</time></trkpt><trkpt lat="44.45375167815928" lon="10.963971187518892"><ele>138.0</ele><time>2026-03-28T13:30:29.001Z</time></trkpt><trkpt lat="44.45362848402843" lon="10.963692224353661"><ele>138.0</ele><time>2026-03-28T13:30:30.001Z</time></trkpt><trkpt lat="44.45350744672086" lon="10.963414227752946"><ele>138.0</ele><time>2026-03-28T13:30:31.001Z</time></trkpt><trkpt lat="44.45339367185211" lon="10.963137396488142"><ele>139.0</ele><time>2026-03-28T13:30:32.001Z</time></trkpt><trkpt lat="44.45328601609815" lon="10.962870478807115"><ele>140.0</ele><time>2026-03-28T13:30:33.001Z</time></trkpt><trkpt lat="44.453179456142024" lon="10.962590016384446"><ele>141.0</ele><time>2026-03-28T13:30:34.001Z</time></trkpt><trkpt lat="44.45307940409019" lon="10.962316025373305"><ele>142.66666666666666</ele><time>2026-03-28T13:30:35.001Z</time></trkpt><trkpt lat="44.453016809902884" lon="10.962015929682705"><ele>144.33333333333331</ele><time>2026-03-28T13:30:36.001Z</time></trkpt><trkpt lat="44.4529723392553" lon="10.961712801930004"><ele>146.0</ele><time>2026-03-28T13:30:37.001Z</time></trkpt><trkpt lat="44.45296579607703" lon="10.96141570347441"><ele>147.0</ele><time>2026-03-28T13:30:38.001Z</time></trkpt><trkpt lat="44.45299292832458" lon="10.961118270916282"><ele>148.0</ele><time>2026-03-28T13:30:39.001Z</time></trkpt><trkpt lat="44.45303304022766" lon="10.96080297992206"><ele>149.0</ele><time>2026-03-28T13:30:40Z</time></trkpt><trkpt lat="44.45302908559256" lon="10.960472129604799"><ele>149.0</ele><time>2026-03-28T13:30:41Z</time></trkpt><trkpt lat="44.45307830718991" lon="10.960154926236953"><ele>149.0</ele><time>2026-03-28T13:30:42Z</time></trkpt><trkpt lat="44.453125002239354" lon="10.959849695274997"><ele>148.66666666666666</ele><time>2026-03-28T13:30:43Z</time></trkpt><trkpt lat="44.45316243670257" lon="10.959563085547117"><ele>148.33333333333334</ele><time>2026-03-28T13:30:44Z</time></trkpt><trkpt lat="44.45318388580869" lon="10.959280339060689"><ele>148.0</ele><time>2026-03-28T13:30:45Z</time></trkpt><trkpt lat="44.453180474768196" lon="10.959002384429834"><ele>149.33333333333334</ele><time>2026-03-28T13:30:46Z</time></trkpt><trkpt lat="44.453160243802046" lon="10.958719550350025"><ele>150.66666666666666</ele><time>2026-03-28T13:30:47Z</time></trkpt><trkpt lat="44.453136056726365" lon="10.958448636946004"><ele>152.0</ele><time>2026-03-28T13:30:48Z</time></trkpt><trkpt lat="44.453110290239685" lon="10.958203958434934"><ele>152.66666666666666</ele><time>2026-03-28T13:30:49Z</time></trkpt><trkpt lat="44.45308901786229" lon="10.957946272720042"><ele>153.33333333333334</ele><time>2026-03-28T13:30:50Z</time></trkpt><trkpt lat="44.45307120021159" lon="10.957631823693527"><ele>154.0</ele><time>2026-03-28T13:30:51Z</time></trkpt><trkpt lat="44.45304426717365" lon="10.957301035202503"><ele>154.5</ele><time>2026-03-28T13:30:52Z</time></trkpt><trkpt lat="44.453016384509915" lon="10.95695875662275"><ele>155.0</ele><time>2026-03-28T13:30:53Z</time></trkpt><trkpt lat="44.45298304687691" lon="10.956596082785637"><ele>154.0</ele><time>2026-03-28T13:30:54Z</time></trkpt><trkpt lat="44.45295631411057" lon="10.956247124563783"><ele>153.0</ele><time>2026-03-28T13:30:55Z</time></trkpt><trkpt lat="44.45292029139105" lon="10.955901460354879"><ele>147.0</ele><time>2026-03-28T13:30:56Z</time></trkpt><trkpt lat="44.45288653608586" lon="10.955556853229602"><ele>141.0</ele><time>2026-03-28T13:30:57Z</time></trkpt><trkpt lat="44.45283552365586" lon="10.955223464898182"><ele>142.0</ele><time>2026-03-28T13:30:58Z</time></trkpt><trkpt lat="44.45276255636447" lon="10.954897023956185"><ele>143.0</ele><time>2026-03-28T13:30:59Z</time></trkpt><trkpt lat="44.452667121796495" lon="10.954582210352143"><ele>143.0</ele><time>2026-03-28T13:31:00Z</time></trkpt><trkpt lat="44.45255266953596" lon="10.95428325132538"><ele>143.0</ele><time>2026-03-28T13:31:01Z</time></trkpt><trkpt lat="44.45242901757024" lon="10.953994079867941"><ele>144.0</ele><time>2026-03-28T13:31:02Z</time></trkpt><trkpt lat="44.45230542233962" lon="10.953703633202558"><ele>145.0</ele><time>2026-03-28T13:31:03Z</time></trkpt><trkpt lat="44.45218886670508" lon="10.953413017723546"><ele>144.5</ele><time>2026-03-28T13:31:04Z</time></trkpt><trkpt lat="44.452073356804526" lon="10.953125225150304"><ele>144.0</ele><time>2026-03-28T13:31:05Z</time></trkpt><trkpt lat="44.45196321621321" lon="10.952841695825663"><ele>144.0</ele><time>2026-03-28T13:31:06Z</time></trkpt><trkpt lat="44.45185025546138" lon="10.952553168849214"><ele>144.0</ele><time>2026-03-28T13:31:07Z</time></trkpt><trkpt lat="44.45173500031295" lon="10.95226901128515"><ele>145.0</ele><time>2026-03-28T13:31:08Z</time></trkpt><trkpt lat="44.45161760862041" lon="10.951985025793489"><ele>146.0</ele><time>2026-03-28T13:31:09Z</time></trkpt><trkpt lat="44.45150167809643" lon="10.951696331049856"><ele>146.5</ele><time>2026-03-28T13:31:10Z</time></trkpt><trkpt lat="44.45138640640334" lon="10.951411720451866"><ele>147.0</ele><time>2026-03-28T13:31:11Z</time></trkpt><trkpt lat="44.45127008743494" lon="10.951127152292573"><ele>146.0</ele><time>2026-03-28T13:31:12Z</time></trkpt><trkpt lat="44.45115447389709" lon="10.950843026980825"><ele>145.0</ele><time>2026-03-28T13:31:13Z</time></trkpt><trkpt lat="44.45103939601172" lon="10.950560812144245"><ele>145.0</ele><time>2026-03-28T13:31:14Z</time></trkpt><trkpt lat="44.45092626490944" lon="10.950278083428593"><ele>145.0</ele><time>2026-03-28T13:31:15Z</time></trkpt><trkpt lat="44.4508081983427" lon="10.949989650059196"><ele>145.0</ele><time>2026-03-28T13:31:16Z</time></trkpt><trkpt lat="44.45069376488324" lon="10.949704352696326"><ele>145.0</ele><time>2026-03-28T13:31:17Z</time></trkpt><trkpt lat="44.45057829119306" lon="10.949417996637052"><ele>145.5</ele><time>2026-03-28T13:31:18Z</time></trkpt><trkpt lat="44.45045766875664" lon="10.949124554361891"><ele>146.0</ele><time>2026-03-28T13:31:19Z</time></trkpt><trkpt lat="44.450338997970135" lon="10.948837819822295"><ele>146.0</ele><time>2026-03-28T13:31:20Z</time></trkpt><trkpt lat="44.45022048050813" lon="10.94855444323088"><ele>146.0</ele><time>2026-03-28T13:31:21Z</time></trkpt><trkpt lat="44.45008992269447" lon="10.948276100763989"><ele>148.5</ele><time>2026-03-28T13:31:22Z</time></trkpt><trkpt lat="44.44992224846246" lon="10.948019061413152"><ele>151.0</ele><time>2026-03-28T13:31:23Z</time></trkpt><trkpt lat="44.44971662324717" lon="10.947781023341514"><ele>152.0</ele><time>2026-03-28T13:31:24Z</time></trkpt><trkpt lat="44.44949952265413" lon="10.947576847036851"><ele>153.0</ele><time>2026-03-28T13:31:25Z</time></trkpt><trkpt lat="44.44928801688939" lon="10.947408288903612"><ele>153.0</ele><time>2026-03-28T13:31:26Z</time></trkpt><trkpt lat="44.44908100049538" lon="10.947274770755216"><ele>153.0</ele><time>2026-03-28T13:31:27Z</time></trkpt><trkpt lat="44.44888546788872" lon="10.947145567100744"><ele>153.0</ele><time>2026-03-28T13:31:28Z</time></trkpt><trkpt lat="44.44869907444075" lon="10.947009874864827"><ele>152.33333333333334</ele><time>2026-03-28T13:31:29Z</time></trkpt><trkpt lat="44.44851141128552" lon="10.946877413395779"><ele>151.66666666666669</ele><time>2026-03-28T13:31:30Z</time></trkpt><trkpt lat="44.44831026131752" lon="10.946734796344366"><ele>151.0</ele><time>2026-03-28T13:31:31Z</time></trkpt><trkpt lat="44.44809650962889" lon="10.946556592033595"><ele>153.5</ele><time>2026-03-28T13:31:32Z</time></trkpt><trkpt lat="44.44786236914101" lon="10.946373225030426"><ele>156.0</ele><time>2026-03-28T13:31:33Z</time></trkpt><trkpt lat="44.4476379189131" lon="10.946198662600128"><ele>156.0</ele><time>2026-03-28T13:31:34Z</time></trkpt><trkpt lat="44.447422543008095" lon="10.946068159667162"><ele>156.0</ele><time>2026-03-28T13:31:35Z</time></trkpt><trkpt lat="44.44723938498378" lon="10.945925418962581"><ele>156.0</ele><time>2026-03-28T13:31:36Z</time></trkpt><trkpt lat="44.44706087971151" lon="10.945795119568357"><ele>156.0</ele><time>2026-03-28T13:31:37Z</time></trkpt><trkpt lat="44.44690288350548" lon="10.945646901970248"><ele>156.0</ele><time>2026-03-28T13:31:38Z</time></trkpt><trkpt lat="44.44676080338138" lon="10.945465388401603"><ele>156.0</ele><time>2026-03-28T13:31:39Z</time></trkpt><trkpt lat="44.44667494146675" lon="10.945208181059186"><ele>157.66666666666666</ele><time>2026-03-28T13:31:40Z</time></trkpt><trkpt lat="44.4465804572395" lon="10.944946205538802"><ele>159.33333333333331</ele><time>2026-03-28T13:31:41Z</time></trkpt><trkpt lat="44.44647344341491" lon="10.944672427607143"><ele>161.0</ele><time>2026-03-28T13:31:42Z</time></trkpt><trkpt lat="44.44638238384331" lon="10.944380339157792"><ele>163.0</ele><time>2026-03-28T13:31:43Z</time></trkpt><trkpt lat="44.44629761616455" lon="10.944077955437654"><ele>165.0</ele><time>2026-03-28T13:31:44Z</time></trkpt><trkpt lat="44.44619341823788" lon="10.943794734968733"><ele>162.0</ele><time>2026-03-28T13:31:45Z</time></trkpt><trkpt lat="44.44609407982309" lon="10.94351928166323"><ele>159.0</ele><time>2026-03-28T13:31:46Z</time></trkpt><trkpt lat="44.44599261216756" lon="10.9432414248129"><ele>156.0</ele><time>2026-03-28T13:31:47Z</time></trkpt><trkpt lat="44.44589304106844" lon="10.942968408843576"><ele>156.0</ele><time>2026-03-28T13:31:48Z</time></trkpt><trkpt lat="44.44577422186474" lon="10.94271396006682"><ele>156.0</ele><time>2026-03-28T13:31:49Z</time></trkpt><trkpt lat="44.4456593238088" lon="10.942456116974641"><ele>156.0</ele><time>2026-03-28T13:31:50Z</time></trkpt><trkpt lat="44.44553886681493" lon="10.94220428878832"><ele>155.33333333333334</ele><time>2026-03-28T13:31:51Z</time></trkpt><trkpt lat="44.445396333664014" lon="10.941964261857153"><ele>154.66666666666669</ele><time>2026-03-28T13:31:52Z</time></trkpt><trkpt lat="44.44525014563926" lon="10.941722351444753"><ele>154.0</ele><time>2026-03-28T13:31:53Z</time></trkpt><trkpt lat="44.44509282995359" lon="10.941480107927529"><ele>156.0</ele><time>2026-03-28T13:31:54Z</time></trkpt><trkpt lat="44.44492962154656" lon="10.941242956482485"><ele>158.0</ele><time>2026-03-28T13:31:55Z</time></trkpt><trkpt lat="44.44475578745146" lon="10.941010756623243"><ele>157.0</ele><time>2026-03-28T13:31:56.001Z</time></trkpt><trkpt lat="44.44457007383283" lon="10.940793199237044"><ele>156.0</ele><time>2026-03-28T13:31:57.001Z</time></trkpt><trkpt lat="44.44437535820752" lon="10.940585696695903"><ele>156.0</ele><time>2026-03-28T13:31:58.001Z</time></trkpt><trkpt lat="44.44418229395633" lon="10.940373208518986"><ele>156.0</ele><time>2026-03-28T13:31:59.001Z</time></trkpt><trkpt lat="44.44398656062326" lon="10.940159115265136"><ele>157.0</ele><time>2026-03-28T13:32:00.001Z</time></trkpt><trkpt lat="44.44378810098989" lon="10.939952041849992"><ele>158.0</ele><time>2026-03-28T13:32:01.001Z</time></trkpt><trkpt lat="44.44360202921154" lon="10.939739128611397"><ele>158.0</ele><time>2026-03-28T13:32:02.001Z</time></trkpt><trkpt lat="44.443416980690934" lon="10.93953931723936"><ele>158.0</ele><time>2026-03-28T13:32:03.001Z</time></trkpt><trkpt lat="44.44323673849071" lon="10.939325127607534"><ele>158.0</ele><time>2026-03-28T13:32:04.001Z</time></trkpt><trkpt lat="44.44307321208877" lon="10.939090814821151"><ele>158.0</ele><time>2026-03-28T13:32:05.001Z</time></trkpt><trkpt lat="44.442913997712466" lon="10.938843726590077"><ele>158.0</ele><time>2026-03-28T13:32:06.001Z</time></trkpt><trkpt lat="44.44275841844121" lon="10.938584713262687"><ele>158.0</ele><time>2026-03-28T13:32:07.001Z</time></trkpt><trkpt lat="44.44260343639246" lon="10.938326749405435"><ele>161.5</ele><time>2026-03-28T13:32:08.001Z</time></trkpt><trkpt lat="44.44244117014421" lon="10.93807088799212"><ele>165.0</ele><time>2026-03-28T13:32:09.001Z</time></trkpt><trkpt lat="44.442274195214466" lon="10.93781353983487"><ele>165.0</ele><time>2026-03-28T13:32:10.001Z</time></trkpt><trkpt lat="44.4421048025191" lon="10.937576850503703"><ele>165.0</ele><time>2026-03-28T13:32:11.001Z</time></trkpt><trkpt lat="44.441913060831986" lon="10.937376739625641"><ele>165.0</ele><time>2026-03-28T13:32:12.001Z</time></trkpt><trkpt lat="44.44170312662086" lon="10.937198498969776"><ele>165.0</ele><time>2026-03-28T13:32:13.001Z</time></trkpt><trkpt lat="44.44148185928565" lon="10.937039170004795"><ele>163.5</ele><time>2026-03-28T13:32:14.001Z</time></trkpt><trkpt lat="44.44126436223136" lon="10.936867738061519"><ele>162.0</ele><time>2026-03-28T13:32:15.001Z</time></trkpt><trkpt lat="44.44104336885382" lon="10.936703686192027"><ele>162.0</ele><time>2026-03-28T13:32:16.001Z</time></trkpt><trkpt lat="44.44082217188706" lon="10.936554107821777"><ele>162.0</ele><time>2026-03-28T13:32:17.001Z</time></trkpt><trkpt lat="44.440604905596366" lon="10.93639264222728"><ele>159.0</ele><time>2026-03-28T13:32:18.001Z</time></trkpt><trkpt lat="44.44038596230068" lon="10.936232792134268"><ele>156.0</ele><time>2026-03-28T13:32:19.001Z</time></trkpt><trkpt lat="44.44016582242414" lon="10.936064204188943"><ele>156.0</ele><time>2026-03-28T13:32:20.001Z</time></trkpt><trkpt lat="44.43994750741081" lon="10.9358998364207"><ele>156.0</ele><time>2026-03-28T13:32:21.001Z</time></trkpt><trkpt lat="44.43973294112703" lon="10.935736745891607"><ele>158.0</ele><time>2026-03-28T13:32:22.001Z</time></trkpt><trkpt lat="44.43952565962505" lon="10.93556473666426"><ele>160.0</ele><time>2026-03-28T13:32:23.001Z</time></trkpt><trkpt lat="44.43933671509612" lon="10.935385166425228"><ele>160.0</ele><time>2026-03-28T13:32:24.001Z</time></trkpt><trkpt lat="44.439158753061605" lon="10.935179338204591"><ele>160.0</ele><time>2026-03-28T13:32:25.001Z</time></trkpt><trkpt lat="44.43901663880524" lon="10.934921182373637"><ele>159.5</ele><time>2026-03-28T13:32:26.001Z</time></trkpt><trkpt lat="44.43886507583093" lon="10.934667478246391"><ele>159.0</ele><time>2026-03-28T13:32:27.001Z</time></trkpt><trkpt lat="44.438708249464085" lon="10.934412281973394"><ele>161.5</ele><time>2026-03-28T13:32:28.001Z</time></trkpt><trkpt lat="44.43856663172392" lon="10.934142601534901"><ele>164.0</ele><time>2026-03-28T13:32:29.001Z</time></trkpt><trkpt lat="44.43842115181378" lon="10.933883557141401"><ele>164.0</ele><time>2026-03-28T13:32:30.001Z</time></trkpt><trkpt lat="44.43827374238267" lon="10.933624298248358"><ele>164.0</ele><time>2026-03-28T13:32:31.001Z</time></trkpt><trkpt lat="44.43812314842114" lon="10.933378735733433"><ele>162.0</ele><time>2026-03-28T13:32:32.001Z</time></trkpt><trkpt lat="44.43796166208097" lon="10.93315424221315"><ele>160.0</ele><time>2026-03-28T13:32:33.001Z</time></trkpt><trkpt lat="44.43777530955614" lon="10.932960105029107"><ele>160.0</ele><time>2026-03-28T13:32:34.001Z</time></trkpt><trkpt lat="44.43758307080102" lon="10.932791565602674"><ele>160.0</ele><time>2026-03-28T13:32:35.001Z</time></trkpt><trkpt lat="44.43737927177464" lon="10.932648548721762"><ele>161.0</ele><time>2026-03-28T13:32:36.001Z</time></trkpt><trkpt lat="44.43716850259809" lon="10.932505442505576"><ele>162.0</ele><time>2026-03-28T13:32:37.001Z</time></trkpt><trkpt lat="44.436972321981436" lon="10.932331253465057"><ele>162.0</ele><time>2026-03-28T13:32:38.001Z</time></trkpt><trkpt lat="44.43676459534939" lon="10.932160307976295"><ele>162.0</ele><time>2026-03-28T13:32:39.001Z</time></trkpt><trkpt lat="44.436558027247266" lon="10.932012100698646"><ele>162.0</ele><time>2026-03-28T13:32:40.001Z</time></trkpt><trkpt lat="44.43635665824303" lon="10.931837438650081"><ele>162.0</ele><time>2026-03-28T13:32:41.001Z</time></trkpt><trkpt lat="44.43615288116181" lon="10.931658868431724"><ele>164.0</ele><time>2026-03-28T13:32:42.001Z</time></trkpt><trkpt lat="44.4359410784865" lon="10.931491348520007"><ele>166.0</ele><time>2026-03-28T13:32:43.001Z</time></trkpt><trkpt lat="44.43572849728076" lon="10.931323063882413"><ele>166.0</ele><time>2026-03-28T13:32:44.001Z</time></trkpt><trkpt lat="44.43551939405927" lon="10.93114647361927"><ele>166.0</ele><time>2026-03-28T13:32:45.001Z</time></trkpt><trkpt lat="44.43530922312628" lon="10.930985946670967"><ele>166.0</ele><time>2026-03-28T13:32:46Z</time></trkpt><trkpt lat="44.43509913919417" lon="10.930812588442196"><ele>166.0</ele><time>2026-03-28T13:32:47Z</time></trkpt><trkpt lat="44.434901343190724" lon="10.930631762919141"><ele>166.0</ele><time>2026-03-28T13:32:48Z</time></trkpt><trkpt lat="44.43469153756239" lon="10.930474551836973"><ele>166.0</ele><time>2026-03-28T13:32:49Z</time></trkpt><trkpt lat="44.43449476224128" lon="10.930307374056497"><ele>166.0</ele><time>2026-03-28T13:32:50Z</time></trkpt><trkpt lat="44.43430782818173" lon="10.93014878460862"><ele>166.0</ele><time>2026-03-28T13:32:51Z</time></trkpt><trkpt lat="44.434121642660905" lon="10.929999940889928"><ele>166.0</ele><time>2026-03-28T13:32:52Z</time></trkpt><trkpt lat="44.43393292320891" lon="10.92984688915496"><ele>164.5</ele><time>2026-03-28T13:32:53Z</time></trkpt><trkpt lat="44.433729866641926" lon="10.929700243898065"><ele>163.0</ele><time>2026-03-28T13:32:54Z</time></trkpt><trkpt lat="44.43351726084509" lon="10.929556651407418"><ele>163.0</ele><time>2026-03-28T13:32:55Z</time></trkpt><trkpt lat="44.43331340676816" lon="10.929407043297537"><ele>163.0</ele><time>2026-03-28T13:32:56Z</time></trkpt><trkpt lat="44.433110806786" lon="10.92926662845637"><ele>166.0</ele><time>2026-03-28T13:32:57Z</time></trkpt><trkpt lat="44.43288627782423" lon="10.929166574586555"><ele>169.0</ele><time>2026-03-28T13:32:58Z</time></trkpt><trkpt lat="44.43266820722037" lon="10.929060752225896"><ele>169.0</ele><time>2026-03-28T13:32:59Z</time></trkpt><trkpt lat="44.43245348732554" lon="10.928953793555204"><ele>169.0</ele><time>2026-03-28T13:33:00Z</time></trkpt><trkpt lat="44.43224100142542" lon="10.928852431389018"><ele>167.66666666666669</ele><time>2026-03-28T13:33:01Z</time></trkpt><trkpt lat="44.43203222876275" lon="10.928754436095325"><ele>166.33333333333334</ele><time>2026-03-28T13:33:02Z</time></trkpt><trkpt lat="44.43181604880704" lon="10.928648289911362"><ele>165.0</ele><time>2026-03-28T13:33:03Z</time></trkpt><trkpt lat="44.43160412466299" lon="10.928542023728275"><ele>165.0</ele><time>2026-03-28T13:33:04Z</time></trkpt><trkpt lat="44.431394598751716" lon="10.92844558546383"><ele>165.0</ele><time>2026-03-28T13:33:05Z</time></trkpt><trkpt lat="44.43119377745141" lon="10.928339379335885"><ele>165.0</ele><time>2026-03-28T13:33:06Z</time></trkpt><trkpt lat="44.43099820038525" lon="10.928227133629997"><ele>164.33333333333334</ele><time>2026-03-28T13:33:07Z</time></trkpt><trkpt lat="44.430815536616734" lon="10.928081869951043"><ele>163.66666666666669</ele><time>2026-03-28T13:33:08Z</time></trkpt><trkpt lat="44.43063224149299" lon="10.927959568443308"><ele>163.0</ele><time>2026-03-28T13:33:09Z</time></trkpt><trkpt lat="44.43047299632832" lon="10.927808414445384"><ele>163.0</ele><time>2026-03-28T13:33:10Z</time></trkpt><trkpt lat="44.43033442398592" lon="10.927621942356414"><ele>163.0</ele><time>2026-03-28T13:33:11Z</time></trkpt><trkpt lat="44.43019964176889" lon="10.927434757136785"><ele>163.0</ele><time>2026-03-28T13:33:12Z</time></trkpt><trkpt lat="44.43008285121284" lon="10.927230114825665"><ele>164.66666666666669</ele><time>2026-03-28T13:33:13Z</time></trkpt><trkpt lat="44.4299835430815" lon="10.927011062191774"><ele>166.33333333333334</ele><time>2026-03-28T13:33:14Z</time></trkpt><trkpt lat="44.42989420685242" lon="10.926783132357922"><ele>168.0</ele><time>2026-03-28T13:33:15Z</time></trkpt><trkpt lat="44.42979991426324" lon="10.926560975935745"><ele>168.0</ele><time>2026-03-28T13:33:16Z</time></trkpt><trkpt lat="44.42971446221002" lon="10.926333970095936"><ele>168.0</ele><time>2026-03-28T13:33:17Z</time></trkpt><trkpt lat="44.42963106918886" lon="10.92610406697167"><ele>168.0</ele><time>2026-03-28T13:33:18Z</time></trkpt><trkpt lat="44.42954508071017" lon="10.925874242018732"><ele>168.0</ele><time>2026-03-28T13:33:19Z</time></trkpt><trkpt lat="44.42945760149413" lon="10.925647084807483"><ele>168.0</ele><time>2026-03-28T13:33:20Z</time></trkpt><trkpt lat="44.42936621017902" lon="10.925431159997144"><ele>168.0</ele><time>2026-03-28T13:33:21Z</time></trkpt><trkpt lat="44.429262857410734" lon="10.925242300551947"><ele>168.0</ele><time>2026-03-28T13:33:22Z</time></trkpt><trkpt lat="44.429132662663655" lon="10.925084466440946"><ele>168.0</ele><time>2026-03-28T13:33:23Z</time></trkpt><trkpt lat="44.428985119425725" lon="10.924954669365823"><ele>168.0</ele><time>2026-03-28T13:33:24Z</time></trkpt><trkpt lat="44.42882213892187" lon="10.924860377237634"><ele>168.0</ele><time>2026-03-28T13:33:25Z</time></trkpt><trkpt lat="44.428647003944995" lon="10.924795017659477"><ele>168.0</ele><time>2026-03-28T13:33:26Z</time></trkpt><trkpt lat="44.42846561593216" lon="10.9247482428469"><ele>168.0</ele><time>2026-03-28T13:33:27Z</time></trkpt><trkpt lat="44.42826185201463" lon="10.92467348782226"><ele>168.0</ele><time>2026-03-28T13:33:28Z</time></trkpt><trkpt lat="44.42801001002773" lon="10.924613818457622"><ele>168.0</ele><time>2026-03-28T13:33:29Z</time></trkpt><trkpt lat="44.42772615237972" lon="10.924562125709745"><ele>167.0</ele><time>2026-03-28T13:33:30Z</time></trkpt><trkpt lat="44.42742237188372" lon="10.924509213090266"><ele>166.0</ele><time>2026-03-28T13:33:31Z</time></trkpt><trkpt lat="44.427083460807935" lon="10.924451158308074"><ele>166.0</ele><time>2026-03-28T13:33:32Z</time></trkpt><trkpt lat="44.426753747751974" lon="10.924395367012815"><ele>166.0</ele><time>2026-03-28T13:33:33Z</time></trkpt><trkpt lat="44.42643150540497" lon="10.92435748871994"><ele>166.5</ele><time>2026-03-28T13:33:34Z</time></trkpt><trkpt lat="44.42612396186277" lon="10.92429883173362"><ele>167.0</ele><time>2026-03-28T13:33:35Z</time></trkpt><trkpt lat="44.425837518431344" lon="10.924254720526305"><ele>167.5</ele><time>2026-03-28T13:33:36Z</time></trkpt><trkpt lat="44.42557616349695" lon="10.924218519821398"><ele>168.0</ele><time>2026-03-28T13:33:37Z</time></trkpt><trkpt lat="44.425325375719176" lon="10.924180243572037"><ele>169.0</ele><time>2026-03-28T13:33:38Z</time></trkpt><trkpt lat="44.42508874207475" lon="10.924119164099615"><ele>170.0</ele><time>2026-03-28T13:33:39Z</time></trkpt><trkpt lat="44.42486527917317" lon="10.924086165939316"><ele>171.5</ele><time>2026-03-28T13:33:40Z</time></trkpt><trkpt lat="44.424639134186776" lon="10.924071117368202"><ele>173.0</ele><time>2026-03-28T13:33:41Z</time></trkpt><trkpt lat="44.42438428401463" lon="10.924079595955952"><ele>173.0</ele><time>2026-03-28T13:33:42Z</time></trkpt><trkpt lat="44.424122215756626" lon="10.92410938673174"><ele>173.0</ele><time>2026-03-28T13:33:43Z</time></trkpt><trkpt lat="44.42385968766578" lon="10.924143488834842"><ele>172.5</ele><time>2026-03-28T13:33:44Z</time></trkpt><trkpt lat="44.42360795855613" lon="10.924179127903647"><ele>172.0</ele><time>2026-03-28T13:33:45Z</time></trkpt><trkpt lat="44.42335674231989" lon="10.92422578024918"><ele>170.5</ele><time>2026-03-28T13:33:46Z</time></trkpt><trkpt lat="44.4231136376283" lon="10.924266422500965"><ele>169.0</ele><time>2026-03-28T13:33:47Z</time></trkpt><trkpt lat="44.42287348458098" lon="10.924289870165724"><ele>169.0</ele><time>2026-03-28T13:33:48Z</time></trkpt><trkpt lat="44.422644649569726" lon="10.924287997400102"><ele>169.0</ele><time>2026-03-28T13:33:49Z</time></trkpt><trkpt lat="44.42241553330004" lon="10.924276224290592"><ele>170.0</ele><time>2026-03-28T13:33:50Z</time></trkpt><trkpt lat="44.42219562123789" lon="10.924226459606901"><ele>171.0</ele><time>2026-03-28T13:33:51Z</time></trkpt><trkpt lat="44.421973974633126" lon="10.924169981842189"><ele>172.0</ele><time>2026-03-28T13:33:52Z</time></trkpt><trkpt lat="44.42175557212373" lon="10.924114772386945"><ele>172.0</ele><time>2026-03-28T13:33:53Z</time></trkpt><trkpt lat="44.4215393709416" lon="10.924037980257156"><ele>172.0</ele><time>2026-03-28T13:33:54Z</time></trkpt><trkpt lat="44.421314726200286" lon="10.923965123469811"><ele>171.5</ele><time>2026-03-28T13:33:55Z</time></trkpt><trkpt lat="44.4210910664082" lon="10.923894918806358"><ele>171.0</ele><time>2026-03-28T13:33:56Z</time></trkpt><trkpt lat="44.42086996914059" lon="10.923826710113472"><ele>171.0</ele><time>2026-03-28T13:33:57Z</time></trkpt><trkpt lat="44.4206556620465" lon="10.923759662087582"><ele>171.0</ele><time>2026-03-28T13:33:58Z</time></trkpt><trkpt lat="44.42044027092557" lon="10.923689515361996"><ele>171.0</ele><time>2026-03-28T13:33:59.001Z</time></trkpt><trkpt lat="44.42023470373782" lon="10.923583885822186"><ele>170.0</ele><time>2026-03-28T13:34:00.001Z</time></trkpt><trkpt lat="44.42002815295583" lon="10.923507662673376"><ele>169.0</ele><time>2026-03-28T13:34:01.001Z</time></trkpt><trkpt lat="44.41982850743653" lon="10.923408047288486"><ele>168.0</ele><time>2026-03-28T13:34:02.001Z</time></trkpt><trkpt lat="44.41963067184984" lon="10.923312179697298"><ele>170.0</ele><time>2026-03-28T13:34:03.001Z</time></trkpt><trkpt lat="44.41943647305973" lon="10.923209370282999"><ele>172.0</ele><time>2026-03-28T13:34:04.001Z</time></trkpt><trkpt lat="44.41924666342259" lon="10.92308595862874"><ele>174.0</ele><time>2026-03-28T13:34:05.001Z</time></trkpt><trkpt lat="44.41906714237154" lon="10.922941635026845"><ele>174.0</ele><time>2026-03-28T13:34:06.001Z</time></trkpt><trkpt lat="44.418900179783286" lon="10.922770133146269"><ele>174.0</ele><time>2026-03-28T13:34:07.001Z</time></trkpt><trkpt lat="44.41875148013281" lon="10.922573289943278"><ele>174.0</ele><time>2026-03-28T13:34:08.001Z</time></trkpt><trkpt lat="44.418612664182554" lon="10.922355263602993"><ele>174.66666666666666</ele><time>2026-03-28T13:34:09.001Z</time></trkpt><trkpt lat="44.4184825880529" lon="10.922115412637835"><ele>175.33333333333331</ele><time>2026-03-28T13:34:10.001Z</time></trkpt><trkpt lat="44.418340608112366" lon="10.92187066522714"><ele>176.0</ele><time>2026-03-28T13:34:11.001Z</time></trkpt><trkpt lat="44.41818329151082" lon="10.921646989614958"><ele>177.0</ele><time>2026-03-28T13:34:12.001Z</time></trkpt><trkpt lat="44.41800688354549" lon="10.921437033805491"><ele>178.0</ele><time>2026-03-28T13:34:13.001Z</time></trkpt><trkpt lat="44.417822299286726" lon="10.92124553011363"><ele>178.0</ele><time>2026-03-28T13:34:14.001Z</time></trkpt><trkpt lat="44.41764191053212" lon="10.921065870223583"><ele>178.0</ele><time>2026-03-28T13:34:15.001Z</time></trkpt><trkpt lat="44.417477557666366" lon="10.920902083253294"><ele>178.0</ele><time>2026-03-28T13:34:16.001Z</time></trkpt><trkpt lat="44.4173094507221" lon="10.920747603670915"><ele>178.66666666666669</ele><time>2026-03-28T13:34:17.001Z</time></trkpt><trkpt lat="44.4171208870183" lon="10.920632409892116"><ele>179.33333333333334</ele><time>2026-03-28T13:34:18.001Z</time></trkpt><trkpt lat="44.41691952013994" lon="10.920566983092197"><ele>180.0</ele><time>2026-03-28T13:34:19.001Z</time></trkpt><trkpt lat="44.4167106853085" lon="10.92049743152314"><ele>180.0</ele><time>2026-03-28T13:34:20.001Z</time></trkpt><trkpt lat="44.41651445820361" lon="10.9204246250962"><ele>180.0</ele><time>2026-03-28T13:34:21.001Z</time></trkpt><trkpt lat="44.416341241960346" lon="10.92036039535381"><ele>180.0</ele><time>2026-03-28T13:34:22.001Z</time></trkpt><trkpt lat="44.41619220489322" lon="10.920243988857683"><ele>180.33333333333334</ele><time>2026-03-28T13:34:23.001Z</time></trkpt><trkpt lat="44.41605873050554" lon="10.920108740946548"><ele>180.66666666666669</ele><time>2026-03-28T13:34:24.001Z</time></trkpt><trkpt lat="44.41593830997708" lon="10.919930335333994"><ele>181.0</ele><time>2026-03-28T13:34:25.001Z</time></trkpt><trkpt lat="44.415819416338806" lon="10.91972584318016"><ele>181.0</ele><time>2026-03-28T13:34:26.001Z</time></trkpt><trkpt lat="44.41570577139777" lon="10.919541617296026"><ele>181.0</ele><time>2026-03-28T13:34:27.001Z</time></trkpt><trkpt lat="44.41560031794423" lon="10.919388213835344"><ele>181.0</ele><time>2026-03-28T13:34:28.001Z</time></trkpt><trkpt lat="44.415470905598866" lon="10.91930160724165"><ele>180.66666666666669</ele><time>2026-03-28T13:34:29.001Z</time></trkpt><trkpt lat="44.415306429664774" lon="10.919240414378107"><ele>180.33333333333334</ele><time>2026-03-28T13:34:30.001Z</time></trkpt><trkpt lat="44.41512162612375" lon="10.919179513903472"><ele>180.0</ele><time>2026-03-28T13:34:31.001Z</time></trkpt><trkpt lat="44.414961012605325" lon="10.91914227220988"><ele>180.0</ele><time>2026-03-28T13:34:32.001Z</time></trkpt><trkpt lat="44.41482137024015" lon="10.919094876662708"><ele>180.0</ele><time>2026-03-28T13:34:33.001Z</time></trkpt><trkpt lat="44.414700451115856" lon="10.91906579791666"><ele>180.0</ele><time>2026-03-28T13:34:34.001Z</time></trkpt><trkpt lat="44.414602078362435" lon="10.919086087078567"><ele>180.0</ele><time>2026-03-28T13:34:35.001Z</time></trkpt><trkpt lat="44.414517804722536" lon="10.919162502929568"><ele>185.0</ele><time>2026-03-28T13:34:36.001Z</time></trkpt><trkpt lat="44.414453439238486" lon="10.919282631326073"><ele>190.0</ele><time>2026-03-28T13:34:37.001Z</time></trkpt><trkpt lat="44.41441681036492" lon="10.9194573917539"><ele>195.0</ele><time>2026-03-28T13:34:38.001Z</time></trkpt><trkpt lat="44.41439363386446" lon="10.919680955197862"><ele>200.0</ele><time>2026-03-28T13:34:39.001Z</time></trkpt><trkpt lat="44.41437851585141" lon="10.919932394405905"><ele>196.33333333333334</ele><time>2026-03-28T13:34:40.001Z</time></trkpt><trkpt lat="44.414311786848266" lon="10.920165519291029"><ele>192.66666666666669</ele><time>2026-03-28T13:34:41.001Z</time></trkpt><trkpt lat="44.41424912203783" lon="10.920385116173579"><ele>189.0</ele><time>2026-03-28T13:34:42.001Z</time></trkpt><trkpt lat="44.41419321079654" lon="10.920583607342277"><ele>189.0</ele><time>2026-03-28T13:34:43.001Z</time></trkpt><trkpt lat="44.41409410606627" lon="10.92072289256221"><ele>189.0</ele><time>2026-03-28T13:34:44.001Z</time></trkpt><trkpt lat="44.413976030562964" lon="10.920813436178793"><ele>189.0</ele><time>2026-03-28T13:34:45.001Z</time></trkpt><trkpt lat="44.41384118503977" lon="10.920915024532983"><ele>189.0</ele><time>2026-03-28T13:34:46.001Z</time></trkpt><trkpt lat="44.41371767879561" lon="10.921040672284606"><ele>188.75</ele><time>2026-03-28T13:34:47.001Z</time></trkpt><trkpt lat="44.41359401578088" lon="10.921132316627745"><ele>188.5</ele><time>2026-03-28T13:34:48.001Z</time></trkpt><trkpt lat="44.41347527131819" lon="10.92117171064566"><ele>188.25</ele><time>2026-03-28T13:34:49.001Z</time></trkpt><trkpt lat="44.4133600402117" lon="10.921188030242433"><ele>188.0</ele><time>2026-03-28T13:34:50.001Z</time></trkpt><trkpt lat="44.413241963629794" lon="10.921158552425336"><ele>188.0</ele><time>2026-03-28T13:34:51.001Z</time></trkpt><trkpt lat="44.413131149839224" lon="10.921113864754378"><ele>188.0</ele><time>2026-03-28T13:34:52Z</time></trkpt><trkpt lat="44.41303225971152" lon="10.921058324724502"><ele>188.0</ele><time>2026-03-28T13:34:53Z</time></trkpt><trkpt lat="44.412937718319036" lon="10.921008895201656"><ele>188.0</ele><time>2026-03-28T13:34:54Z</time></trkpt><trkpt lat="44.41283716088597" lon="10.92096511904901"><ele>188.0</ele><time>2026-03-28T13:34:55Z</time></trkpt><trkpt lat="44.41273021881728" lon="10.920932896837714"><ele>191.75</ele><time>2026-03-28T13:34:56Z</time></trkpt><trkpt lat="44.41261769857885" lon="10.92089443329561"><ele>195.5</ele><time>2026-03-28T13:34:57Z</time></trkpt><trkpt lat="44.412498202046" lon="10.920844126217133"><ele>199.25</ele><time>2026-03-28T13:34:58Z</time></trkpt><trkpt lat="44.4123780034024" lon="10.920766758178306"><ele>203.0</ele><time>2026-03-28T13:34:59Z</time></trkpt><trkpt lat="44.41225778404582" lon="10.92068552637153"><ele>202.5</ele><time>2026-03-28T13:35:00Z</time></trkpt><trkpt lat="44.412142942720976" lon="10.920618657839382"><ele>202.0</ele><time>2026-03-28T13:35:01Z</time></trkpt><trkpt lat="44.41203275578105" lon="10.92058273799437"><ele>201.5</ele><time>2026-03-28T13:35:02Z</time></trkpt><trkpt lat="44.41192014785467" lon="10.920588613905876"><ele>201.0</ele><time>2026-03-28T13:35:03Z</time></trkpt><trkpt lat="44.41181993662677" lon="10.920638255091918"><ele>201.0</ele><time>2026-03-28T13:35:04Z</time></trkpt><trkpt lat="44.41173056038474" lon="10.92071855442337"><ele>201.0</ele><time>2026-03-28T13:35:05Z</time></trkpt><trkpt lat="44.41164080290348" lon="10.920830217382782"><ele>201.0</ele><time>2026-03-28T13:35:06Z</time></trkpt><trkpt lat="44.411546916447165" lon="10.920943352882896"><ele>201.0</ele><time>2026-03-28T13:35:07Z</time></trkpt><trkpt lat="44.41145540288437" lon="10.921055362682026"><ele>200.4</ele><time>2026-03-28T13:35:08Z</time></trkpt><trkpt lat="44.41137068053663" lon="10.921157484587384"><ele>199.8</ele><time>2026-03-28T13:35:09Z</time></trkpt><trkpt lat="44.411289273008435" lon="10.921257404330197"><ele>199.20000000000002</ele><time>2026-03-28T13:35:10Z</time></trkpt><trkpt lat="44.41120684151748" lon="10.921357449395362"><ele>198.60000000000002</ele><time>2026-03-28T13:35:11Z</time></trkpt><trkpt lat="44.411123694509634" lon="10.92146304111272"><ele>198.0</ele><time>2026-03-28T13:35:12Z</time></trkpt><trkpt lat="44.41104418237614" lon="10.921560638614869"><ele>197.75</ele><time>2026-03-28T13:35:13Z</time></trkpt><trkpt lat="44.41095255803398" lon="10.921638386589951"><ele>197.5</ele><time>2026-03-28T13:35:14Z</time></trkpt><trkpt lat="44.41084131591409" lon="10.921696787073856"><ele>197.25</ele><time>2026-03-28T13:35:15Z</time></trkpt><trkpt lat="44.41071717847414" lon="10.921716709337476"><ele>197.0</ele><time>2026-03-28T13:35:16Z</time></trkpt><trkpt lat="44.41059108370774" lon="10.921685457518526"><ele>194.25</ele><time>2026-03-28T13:35:17Z</time></trkpt><trkpt lat="44.41047756303533" lon="10.92160880561977"><ele>191.5</ele><time>2026-03-28T13:35:18Z</time></trkpt><trkpt lat="44.41037784318341" lon="10.921512967523745"><ele>188.75</ele><time>2026-03-28T13:35:19Z</time></trkpt><trkpt lat="44.41030774871175" lon="10.921370180369424"><ele>186.0</ele><time>2026-03-28T13:35:20Z</time></trkpt><trkpt lat="44.41023377806274" lon="10.921203001728212"><ele>186.0</ele><time>2026-03-28T13:35:21Z</time></trkpt><trkpt lat="44.41014906534149" lon="10.921042140840596"><ele>186.0</ele><time>2026-03-28T13:35:22Z</time></trkpt><trkpt lat="44.41008050373608" lon="10.920890569728337"><ele>186.0</ele><time>2026-03-28T13:35:23Z</time></trkpt><trkpt lat="44.410001628273584" lon="10.920765691785212"><ele>186.0</ele><time>2026-03-28T13:35:24Z</time></trkpt><trkpt lat="44.40990297685716" lon="10.92066892117824"><ele>187.25</ele><time>2026-03-28T13:35:25Z</time></trkpt><trkpt lat="44.40978578880809" lon="10.920601392303904"><ele>188.5</ele><time>2026-03-28T13:35:26Z</time></trkpt><trkpt lat="44.40965577753428" lon="10.920563703867154"><ele>189.75</ele><time>2026-03-28T13:35:27Z</time></trkpt><trkpt lat="44.4094933878468" lon="10.920544098289866"><ele>191.0</ele><time>2026-03-28T13:35:28Z</time></trkpt><trkpt lat="44.40928401727172" lon="10.92055873052015"><ele>191.0</ele><time>2026-03-28T13:35:29Z</time></trkpt><trkpt lat="44.409025906991786" lon="10.920605757703166"><ele>191.0</ele><time>2026-03-28T13:35:30Z</time></trkpt><trkpt lat="44.40876553561579" lon="10.920678001587817"><ele>193.0</ele><time>2026-03-28T13:35:31Z</time></trkpt><trkpt lat="44.40848776195716" lon="10.92072000859973"><ele>195.0</ele><time>2026-03-28T13:35:32Z</time></trkpt><trkpt lat="44.4081868254435" lon="10.920754922572575"><ele>194.5</ele><time>2026-03-28T13:35:33Z</time></trkpt><trkpt lat="44.40788981858158" lon="10.920736663924309"><ele>194.0</ele><time>2026-03-28T13:35:34Z</time></trkpt><trkpt lat="44.407635740929365" lon="10.920735868336362"><ele>194.0</ele><time>2026-03-28T13:35:35Z</time></trkpt><trkpt lat="44.40741336939913" lon="10.920703982470533"><ele>194.0</ele><time>2026-03-28T13:35:36Z</time></trkpt><trkpt lat="44.40720511203715" lon="10.92061005768466"><ele>194.0</ele><time>2026-03-28T13:35:37Z</time></trkpt><trkpt lat="44.40700341377767" lon="10.920477533845597"><ele>191.66666666666669</ele><time>2026-03-28T13:35:38Z</time></trkpt><trkpt lat="44.406804474171324" lon="10.92036999575689"><ele>189.33333333333334</ele><time>2026-03-28T13:35:39Z</time></trkpt><trkpt lat="44.40662572665649" lon="10.920267057122407"><ele>187.0</ele><time>2026-03-28T13:35:40Z</time></trkpt><trkpt lat="44.40645194785092" lon="10.920216328687127"><ele>186.33333333333334</ele><time>2026-03-28T13:35:41Z</time></trkpt><trkpt lat="44.40628658448291" lon="10.920187926095814"><ele>185.66666666666666</ele><time>2026-03-28T13:35:42Z</time></trkpt><trkpt lat="44.406124288226" lon="10.920161988243152"><ele>185.0</ele><time>2026-03-28T13:35:43Z</time></trkpt><trkpt lat="44.40595990871141" lon="10.920137272227912"><ele>185.0</ele><time>2026-03-28T13:35:44Z</time></trkpt><trkpt lat="44.40575763733273" lon="10.920115694974186"><ele>185.0</ele><time>2026-03-28T13:35:45Z</time></trkpt><trkpt lat="44.4055241725919" lon="10.920076731116442"><ele>185.0</ele><time>2026-03-28T13:35:46Z</time></trkpt><trkpt lat="44.405259246566736" lon="10.920105974530884"><ele>185.5</ele><time>2026-03-28T13:35:47Z</time></trkpt><trkpt lat="44.405019937046845" lon="10.920161003663297"><ele>186.0</ele><time>2026-03-28T13:35:48Z</time></trkpt><trkpt lat="44.404802709907244" lon="10.920198823887391"><ele>186.66666666666666</ele><time>2026-03-28T13:35:49Z</time></trkpt><trkpt lat="44.40460958986086" lon="10.92023915638172"><ele>187.33333333333331</ele><time>2026-03-28T13:35:50Z</time></trkpt><trkpt lat="44.40444582811219" lon="10.920281080414561"><ele>188.0</ele><time>2026-03-28T13:35:51Z</time></trkpt><trkpt lat="44.40428469880822" lon="10.92036886401451"><ele>188.0</ele><time>2026-03-28T13:35:52Z</time></trkpt><trkpt lat="44.40413025437945" lon="10.920549510943541"><ele>188.0</ele><time>2026-03-28T13:35:53Z</time></trkpt><trkpt lat="44.40397001559178" lon="10.920753529508103"><ele>188.0</ele><time>2026-03-28T13:35:54Z</time></trkpt><trkpt lat="44.40381049684717" lon="10.920929148949213"><ele>187.66666666666666</ele><time>2026-03-28T13:35:55Z</time></trkpt><trkpt lat="44.40366946419827" lon="10.921082089405074"><ele>187.33333333333334</ele><time>2026-03-28T13:35:56Z</time></trkpt><trkpt lat="44.4035280930194" lon="10.921204349066436"><ele>187.0</ele><time>2026-03-28T13:35:57Z</time></trkpt><trkpt lat="44.40336903394394" lon="10.921239892748927"><ele>187.0</ele><time>2026-03-28T13:35:58Z</time></trkpt><trkpt lat="44.40320140350742" lon="10.921242566722073"><ele>187.0</ele><time>2026-03-28T13:35:59Z</time></trkpt><trkpt lat="44.40301611327083" lon="10.921255080016191"><ele>187.0</ele><time>2026-03-28T13:36:00Z</time></trkpt><trkpt lat="44.402819088736756" lon="10.921225406631299"><ele>186.0</ele><time>2026-03-28T13:36:01Z</time></trkpt><trkpt lat="44.40259531437503" lon="10.921207491755526"><ele>185.0</ele><time>2026-03-28T13:36:02Z</time></trkpt><trkpt lat="44.402380955316104" lon="10.921202773342346"><ele>184.0</ele><time>2026-03-28T13:36:03Z</time></trkpt><trkpt lat="44.402177682810716" lon="10.921215892944467"><ele>184.33333333333334</ele><time>2026-03-28T13:36:04Z</time></trkpt><trkpt lat="44.40198469738378" lon="10.92123585818335"><ele>184.66666666666666</ele><time>2026-03-28T13:36:05Z</time></trkpt><trkpt lat="44.40179570097195" lon="10.92126257342748"><ele>185.0</ele><time>2026-03-28T13:36:06Z</time></trkpt><trkpt lat="44.401608937683456" lon="10.92129129316503"><ele>185.0</ele><time>2026-03-28T13:36:07Z</time></trkpt><trkpt lat="44.40142839103435" lon="10.921315503624276"><ele>185.0</ele><time>2026-03-28T13:36:08Z</time></trkpt><trkpt lat="44.40124289308124" lon="10.92132373180451"><ele>185.0</ele><time>2026-03-28T13:36:09Z</time></trkpt><trkpt lat="44.40105285957339" lon="10.921275565397616"><ele>185.0</ele><time>2026-03-28T13:36:10Z</time></trkpt><trkpt lat="44.40086863722434" lon="10.92117724208144"><ele>185.0</ele><time>2026-03-28T13:36:11Z</time></trkpt><trkpt lat="44.400686715213254" lon="10.921058817856693"><ele>185.0</ele><time>2026-03-28T13:36:12Z</time></trkpt><trkpt lat="44.40050499699984" lon="10.920944912827702"><ele>186.33333333333331</ele><time>2026-03-28T13:36:13Z</time></trkpt><trkpt lat="44.40030823692293" lon="10.920840861847212"><ele>187.66666666666666</ele><time>2026-03-28T13:36:14Z</time></trkpt><trkpt lat="44.40012213346164" lon="10.92071497377596"><ele>189.0</ele><time>2026-03-28T13:36:15Z</time></trkpt><trkpt lat="44.399947096203014" lon="10.920556921768885"><ele>189.0</ele><time>2026-03-28T13:36:16Z</time></trkpt><trkpt lat="44.3997853345858" lon="10.920378968575859"><ele>189.0</ele><time>2026-03-28T13:36:17Z</time></trkpt><trkpt lat="44.399614394553645" lon="10.920217602551823"><ele>189.0</ele><time>2026-03-28T13:36:18Z</time></trkpt><trkpt lat="44.39943945295567" lon="10.920083596074997"><ele>189.0</ele><time>2026-03-28T13:36:19Z</time></trkpt><trkpt lat="44.39926102267223" lon="10.919963416258504"><ele>189.0</ele><time>2026-03-28T13:36:20Z</time></trkpt><trkpt lat="44.39908682004256" lon="10.919834856283943"><ele>189.0</ele><time>2026-03-28T13:36:21Z</time></trkpt><trkpt lat="44.39882923133373" lon="10.919821514098473"><ele>189.0</ele><time>2026-03-28T13:36:22Z</time></trkpt><trkpt lat="44.39860989937364" lon="10.919745206223396"><ele>189.0</ele><time>2026-03-28T13:36:23Z</time></trkpt><trkpt lat="44.398389059543454" lon="10.919661664456529"><ele>189.0</ele><time>2026-03-28T13:36:24.001Z</time></trkpt><trkpt lat="44.39817283343306" lon="10.91956570989715"><ele>189.0</ele><time>2026-03-28T13:36:25.001Z</time></trkpt><trkpt lat="44.39796676517841" lon="10.919483261834218"><ele>189.0</ele><time>2026-03-28T13:36:26.001Z</time></trkpt><trkpt lat="44.39777470774314" lon="10.919414359960374"><ele>189.66666666666666</ele><time>2026-03-28T13:36:27.001Z</time></trkpt><trkpt lat="44.397571952723965" lon="10.91938589232354"><ele>190.33333333333331</ele><time>2026-03-28T13:36:28.001Z</time></trkpt><trkpt lat="44.397360631813704" lon="10.91942244809816"><ele>191.0</ele><time>2026-03-28T13:36:29.001Z</time></trkpt><trkpt lat="44.397157827058365" lon="10.919492662385279"><ele>191.66666666666666</ele><time>2026-03-28T13:36:30.001Z</time></trkpt><trkpt lat="44.3969682184123" lon="10.91955692703342"><ele>192.33333333333331</ele><time>2026-03-28T13:36:31.001Z</time></trkpt><trkpt lat="44.3967751846027" lon="10.919542424397132"><ele>193.0</ele><time>2026-03-28T13:36:32.001Z</time></trkpt><trkpt lat="44.39658567264216" lon="10.919488339186117"><ele>193.0</ele><time>2026-03-28T13:36:33.001Z</time></trkpt><trkpt lat="44.39639310360078" lon="10.91940678157953"><ele>193.0</ele><time>2026-03-28T13:36:34.001Z</time></trkpt><trkpt lat="44.39620331225081" lon="10.919296120960258"><ele>193.0</ele><time>2026-03-28T13:36:35.001Z</time></trkpt><trkpt lat="44.39599692093416" lon="10.919166460975797"><ele>199.0</ele><time>2026-03-28T13:36:36.001Z</time></trkpt><trkpt lat="44.3957869281374" lon="10.9190338344999"><ele>205.0</ele><time>2026-03-28T13:36:37.001Z</time></trkpt><trkpt lat="44.39557559884805" lon="10.91889982479775"><ele>203.66666666666666</ele><time>2026-03-28T13:36:38.001Z</time></trkpt><trkpt lat="44.39536208123048" lon="10.918785081521966"><ele>202.33333333333331</ele><time>2026-03-28T13:36:39.001Z</time></trkpt><trkpt lat="44.39515916533815" lon="10.918670423025706"><ele>201.0</ele><time>2026-03-28T13:36:40.001Z</time></trkpt><trkpt lat="44.39495463168059" lon="10.918568639341194"><ele>201.0</ele><time>2026-03-28T13:36:41.001Z</time></trkpt><trkpt lat="44.394759145980444" lon="10.91849722895422"><ele>201.0</ele><time>2026-03-28T13:36:42.001Z</time></trkpt><trkpt lat="44.39456749081896" lon="10.918440897408535"><ele>201.0</ele><time>2026-03-28T13:36:43.001Z</time></trkpt><trkpt lat="44.39436395402183" lon="10.918369908990757"><ele>207.5</ele><time>2026-03-28T13:36:44.001Z</time></trkpt><trkpt lat="44.394140098795724" lon="10.918292551515103"><ele>214.0</ele><time>2026-03-28T13:36:45.001Z</time></trkpt><trkpt lat="44.39390496037455" lon="10.918216882761339"><ele>210.5</ele><time>2026-03-28T13:36:46.001Z</time></trkpt><trkpt lat="44.393666937921076" lon="10.918141830321932"><ele>207.0</ele><time>2026-03-28T13:36:47.001Z</time></trkpt><trkpt lat="44.39342956614594" lon="10.918066372767367"><ele>207.0</ele><time>2026-03-28T13:36:48.001Z</time></trkpt><trkpt lat="44.393187712354155" lon="10.917980043156433"><ele>207.0</ele><time>2026-03-28T13:36:49.001Z</time></trkpt><trkpt lat="44.39295014224496" lon="10.917886318671407"><ele>204.0</ele><time>2026-03-28T13:36:50.001Z</time></trkpt><trkpt lat="44.39271360393339" lon="10.91779973133063"><ele>201.0</ele><time>2026-03-28T13:36:51.001Z</time></trkpt><trkpt lat="44.392467211590905" lon="10.91770769652329"><ele>201.0</ele><time>2026-03-28T13:36:52.001Z</time></trkpt><trkpt lat="44.39222840992858" lon="10.917618081355737"><ele>201.0</ele><time>2026-03-28T13:36:53.001Z</time></trkpt><trkpt lat="44.39198318130694" lon="10.91752025934555"><ele>204.0</ele><time>2026-03-28T13:36:54.001Z</time></trkpt><trkpt lat="44.3917441078096" lon="10.917417117708172"><ele>207.0</ele><time>2026-03-28T13:36:55.001Z</time></trkpt><trkpt lat="44.3914985929928" lon="10.917317083507356"><ele>203.0</ele><time>2026-03-28T13:36:56.001Z</time></trkpt><trkpt lat="44.3912504439186" lon="10.917217098609756"><ele>199.0</ele><time>2026-03-28T13:36:57.001Z</time></trkpt><trkpt lat="44.391001172421035" lon="10.917114459072483"><ele>199.0</ele><time>2026-03-28T13:36:58Z</time></trkpt><trkpt lat="44.390755503757006" lon="10.917023509530038"><ele>199.0</ele><time>2026-03-28T13:36:59Z</time></trkpt><trkpt lat="44.39051171036946" lon="10.916923863974903"><ele>199.5</ele><time>2026-03-28T13:37:00Z</time></trkpt><trkpt lat="44.390278269324604" lon="10.916827179988031"><ele>200.0</ele><time>2026-03-28T13:37:01Z</time></trkpt><trkpt lat="44.390047848918094" lon="10.916725388405785"><ele>200.0</ele><time>2026-03-28T13:37:02Z</time></trkpt><trkpt lat="44.389824345491895" lon="10.916607471451194"><ele>200.0</ele><time>2026-03-28T13:37:03Z</time></trkpt><trkpt lat="44.38960570779655" lon="10.91647902008154"><ele>197.0</ele><time>2026-03-28T13:37:04Z</time></trkpt><trkpt lat="44.38938492903516" lon="10.916360069491404"><ele>194.0</ele><time>2026-03-28T13:37:05Z</time></trkpt><trkpt lat="44.389162784834824" lon="10.916249567491196"><ele>194.0</ele><time>2026-03-28T13:37:06Z</time></trkpt><trkpt lat="44.388964450861266" lon="10.916099468611254"><ele>194.0</ele><time>2026-03-28T13:37:07Z</time></trkpt><trkpt lat="44.38877319416689" lon="10.915940488926458"><ele>194.0</ele><time>2026-03-28T13:37:08Z</time></trkpt><trkpt lat="44.388572427002245" lon="10.915784438278287"><ele>194.5</ele><time>2026-03-28T13:37:09Z</time></trkpt><trkpt lat="44.38838352298723" lon="10.915595721863486"><ele>195.0</ele><time>2026-03-28T13:37:10Z</time></trkpt><trkpt lat="44.388182933725496" lon="10.915410781222807"><ele>195.0</ele><time>2026-03-28T13:37:11Z</time></trkpt><trkpt lat="44.387981539291715" lon="10.915231499406147"><ele>195.0</ele><time>2026-03-28T13:37:12Z</time></trkpt><trkpt lat="44.38778296130968" lon="10.915053216220839"><ele>195.0</ele><time>2026-03-28T13:37:13Z</time></trkpt><trkpt lat="44.387581932805766" lon="10.914868891426957"><ele>195.0</ele><time>2026-03-28T13:37:14Z</time></trkpt><trkpt lat="44.38738168343238" lon="10.914682766537018"><ele>194.5</ele><time>2026-03-28T13:37:15Z</time></trkpt><trkpt lat="44.38717738891535" lon="10.914493035148894"><ele>194.0</ele><time>2026-03-28T13:37:16Z</time></trkpt><trkpt lat="44.38697285861892" lon="10.914305308289608"><ele>196.0</ele><time>2026-03-28T13:37:17Z</time></trkpt><trkpt lat="44.38676688969248" lon="10.91411819279329"><ele>198.0</ele><time>2026-03-28T13:37:18Z</time></trkpt><trkpt lat="44.38656576349317" lon="10.913936012011227"><ele>198.0</ele><time>2026-03-28T13:37:19Z</time></trkpt><trkpt lat="44.38636692307138" lon="10.913755806497504"><ele>198.0</ele><time>2026-03-28T13:37:20Z</time></trkpt><trkpt lat="44.386167307853306" lon="10.913574729037629"><ele>197.5</ele><time>2026-03-28T13:37:21Z</time></trkpt><trkpt lat="44.385971093147134" lon="10.913393838630773"><ele>197.0</ele><time>2026-03-28T13:37:22Z</time></trkpt><trkpt lat="44.385773466633246" lon="10.913211845056022"><ele>197.0</ele><time>2026-03-28T13:37:23Z</time></trkpt><trkpt lat="44.38558252584111" lon="10.91304396465356"><ele>197.0</ele><time>2026-03-28T13:37:24Z</time></trkpt><trkpt lat="44.3854035933961" lon="10.912882324094772"><ele>197.0</ele><time>2026-03-28T13:37:25Z</time></trkpt><trkpt lat="44.38521476140647" lon="10.912747093414666"><ele>197.0</ele><time>2026-03-28T13:37:26Z</time></trkpt><trkpt lat="44.38500873203662" lon="10.912654698288023"><ele>197.0</ele><time>2026-03-28T13:37:27Z</time></trkpt><trkpt lat="44.38479426176282" lon="10.912596770255446"><ele>197.0</ele><time>2026-03-28T13:37:28Z</time></trkpt><trkpt lat="44.3845778054033" lon="10.912548912333033"><ele>200.0</ele><time>2026-03-28T13:37:29Z</time></trkpt><trkpt lat="44.38435544326332" lon="10.912493918843312"><ele>203.0</ele><time>2026-03-28T13:37:30Z</time></trkpt><trkpt lat="44.38412377568943" lon="10.912427468338782"><ele>203.0</ele><time>2026-03-28T13:37:31Z</time></trkpt><trkpt lat="44.383870772911706" lon="10.912348443390758"><ele>203.0</ele><time>2026-03-28T13:37:32Z</time></trkpt><trkpt lat="44.38359729082535" lon="10.91226093250083"><ele>201.0</ele><time>2026-03-28T13:37:33Z</time></trkpt><trkpt lat="44.38331737077209" lon="10.912182475697346"><ele>199.0</ele><time>2026-03-28T13:37:34Z</time></trkpt><trkpt lat="44.383034386759974" lon="10.91212202587142"><ele>200.5</ele><time>2026-03-28T13:37:35Z</time></trkpt><trkpt lat="44.382732208322494" lon="10.912092733419907"><ele>202.0</ele><time>2026-03-28T13:37:36Z</time></trkpt><trkpt lat="44.38241468667817" lon="10.91213004404335"><ele>204.5</ele><time>2026-03-28T13:37:37Z</time></trkpt><trkpt lat="44.382079085620234" lon="10.912196850880779"><ele>207.0</ele><time>2026-03-28T13:37:38Z</time></trkpt><trkpt lat="44.38174318544277" lon="10.912272417798139"><ele>207.0</ele><time>2026-03-28T13:37:39Z</time></trkpt><trkpt lat="44.38140705376932" lon="10.912378439198553"><ele>207.0</ele><time>2026-03-28T13:37:40Z</time></trkpt><trkpt lat="44.381075422076734" lon="10.912488392169266"><ele>203.0</ele><time>2026-03-28T13:37:41Z</time></trkpt><trkpt lat="44.380779530020995" lon="10.912578053150224"><ele>199.0</ele><time>2026-03-28T13:37:42Z</time></trkpt><trkpt lat="44.380520154643506" lon="10.912662165261187"><ele>202.5</ele><time>2026-03-28T13:37:43Z</time></trkpt><trkpt lat="44.380290985424324" lon="10.91274767583176"><ele>206.0</ele><time>2026-03-28T13:37:44Z</time></trkpt><trkpt lat="44.38008526388093" lon="10.912838866197506"><ele>206.0</ele><time>2026-03-28T13:37:45Z</time></trkpt><trkpt lat="44.37988787768069" lon="10.912951945304558"><ele>206.0</ele><time>2026-03-28T13:37:46Z</time></trkpt><trkpt lat="44.37969063681747" lon="10.913126249492262"><ele>206.0</ele><time>2026-03-28T13:37:47Z</time></trkpt><trkpt lat="44.37950929257521" lon="10.913326354100313"><ele>207.0</ele><time>2026-03-28T13:37:48Z</time></trkpt><trkpt lat="44.37934294616837" lon="10.913499313944673"><ele>208.0</ele><time>2026-03-28T13:37:49Z</time></trkpt><trkpt lat="44.37919431939526" lon="10.91363942433281"><ele>209.0</ele><time>2026-03-28T13:37:50Z</time></trkpt><trkpt lat="44.3790593250477" lon="10.913772274524904"><ele>209.0</ele><time>2026-03-28T13:37:51Z</time></trkpt><trkpt lat="44.378936570905914" lon="10.913910402482319"><ele>209.0</ele><time>2026-03-28T13:37:52Z</time></trkpt><trkpt lat="44.378814908191956" lon="10.914061247897196"><ele>209.0</ele><time>2026-03-28T13:37:53Z</time></trkpt><trkpt lat="44.37869446424262" lon="10.914205588433086"><ele>210.0</ele><time>2026-03-28T13:37:54Z</time></trkpt><trkpt lat="44.37856690326301" lon="10.914338383271659"><ele>211.0</ele><time>2026-03-28T13:37:55Z</time></trkpt><trkpt lat="44.37843780868591" lon="10.914470189860657"><ele>212.0</ele><time>2026-03-28T13:37:56Z</time></trkpt><trkpt lat="44.37830874791877" lon="10.914609097602588"><ele>212.0</ele><time>2026-03-28T13:37:57Z</time></trkpt><trkpt lat="44.37818931684426" lon="10.914750330448461"><ele>212.0</ele><time>2026-03-28T13:37:58Z</time></trkpt><trkpt lat="44.37807828073038" lon="10.914887790301364"><ele>212.0</ele><time>2026-03-28T13:37:59Z</time></trkpt><trkpt lat="44.377960459967895" lon="10.915007326509091"><ele>212.5</ele><time>2026-03-28T13:38:00Z</time></trkpt><trkpt lat="44.377833694098875" lon="10.915103495527013"><ele>213.0</ele><time>2026-03-28T13:38:01Z</time></trkpt><trkpt lat="44.377695898664975" lon="10.915189114821112"><ele>213.5</ele><time>2026-03-28T13:38:02Z</time></trkpt><trkpt lat="44.37755521781153" lon="10.915271602549383"><ele>214.0</ele><time>2026-03-28T13:38:03Z</time></trkpt><trkpt lat="44.3774058744114" lon="10.91534699377332"><ele>214.0</ele><time>2026-03-28T13:38:04Z</time></trkpt><trkpt lat="44.37725170631295" lon="10.915416273666512"><ele>214.0</ele><time>2026-03-28T13:38:05Z</time></trkpt><trkpt lat="44.377096274639335" lon="10.915472710895859"><ele>214.0</ele><time>2026-03-28T13:38:06Z</time></trkpt><trkpt lat="44.37695050839582" lon="10.915528921902153"><ele>215.0</ele><time>2026-03-28T13:38:07Z</time></trkpt><trkpt lat="44.37680908064272" lon="10.915594870166924"><ele>216.0</ele><time>2026-03-28T13:38:08Z</time></trkpt><trkpt lat="44.37667358615812" lon="10.915650202845015"><ele>217.0</ele><time>2026-03-28T13:38:09Z</time></trkpt><trkpt lat="44.37652921531629" lon="10.915661194153056"><ele>218.0</ele><time>2026-03-28T13:38:10Z</time></trkpt><trkpt lat="44.37638464523845" lon="10.915673553350276"><ele>216.25</ele><time>2026-03-28T13:38:11Z</time></trkpt><trkpt lat="44.37623914826243" lon="10.915616246531496"><ele>214.5</ele><time>2026-03-28T13:38:12Z</time></trkpt><trkpt lat="44.376110742334966" lon="10.915507238913683"><ele>212.75</ele><time>2026-03-28T13:38:13Z</time></trkpt><trkpt lat="44.3760029157995" lon="10.915372867130252"><ele>211.0</ele><time>2026-03-28T13:38:14Z</time></trkpt><trkpt lat="44.375900265871714" lon="10.915270588942063"><ele>210.99999999999997</ele><time>2026-03-28T13:38:15.001Z</time></trkpt><trkpt lat="44.375833857834905" lon="10.915180265555826"><ele>211.0</ele><time>2026-03-28T13:38:16.001Z</time></trkpt><trkpt lat="44.37577348812492" lon="10.915100468900455"><ele>211.0</ele><time>2026-03-28T13:38:17.001Z</time></trkpt><trkpt lat="44.37571659387318" lon="10.915033092044068"><ele>211.0</ele><time>2026-03-28T13:38:18.001Z</time></trkpt><trkpt lat="44.375656245059034" lon="10.91497328877096"><ele>210.99999999999997</ele><time>2026-03-28T13:38:19.001Z</time></trkpt><trkpt lat="44.37559454125414" lon="10.914913105596062"><ele>211.0</ele><time>2026-03-28T13:38:20.001Z</time></trkpt><trkpt lat="44.375532339188474" lon="10.91485041818534"><ele>211.60000000000002</ele><time>2026-03-28T13:38:21.001Z</time></trkpt><trkpt lat="44.37545820734919" lon="10.914805750499418"><ele>212.2</ele><time>2026-03-28T13:38:22.001Z</time></trkpt><trkpt lat="44.37536859471666" lon="10.914768481051558"><ele>212.79999999999998</ele><time>2026-03-28T13:38:23.001Z</time></trkpt><trkpt lat="44.375272063954256" lon="10.914714730638059"><ele>213.39999999999998</ele><time>2026-03-28T13:38:24.001Z</time></trkpt><trkpt lat="44.37516133610272" lon="10.914663089572755"><ele>214.0</ele><time>2026-03-28T13:38:25.001Z</time></trkpt><trkpt lat="44.375038199947966" lon="10.914597021437414"><ele>214.0</ele><time>2026-03-28T13:38:26.001Z</time></trkpt><trkpt lat="44.37490176434089" lon="10.914513858618024"><ele>214.0</ele><time>2026-03-28T13:38:27.001Z</time></trkpt><trkpt lat="44.374757879500564" lon="10.914420592246524"><ele>214.0</ele><time>2026-03-28T13:38:28.001Z</time></trkpt><trkpt lat="44.37460521837791" lon="10.914330372822686"><ele>211.66666666666666</ele><time>2026-03-28T13:38:29.001Z</time></trkpt><trkpt lat="44.374450732120515" lon="10.914243073735559"><ele>209.33333333333331</ele><time>2026-03-28T13:38:30.001Z</time></trkpt><trkpt lat="44.374290400855564" lon="10.91415793108538"><ele>207.0</ele><time>2026-03-28T13:38:31.001Z</time></trkpt><trkpt lat="44.3741253801764" lon="10.914076165007597"><ele>210.0</ele><time>2026-03-28T13:38:32.001Z</time></trkpt><trkpt lat="44.373960409668236" lon="10.914001840892016"><ele>213.0</ele><time>2026-03-28T13:38:33.001Z</time></trkpt><trkpt lat="44.373788298020884" lon="10.913942146340997"><ele>216.0</ele><time>2026-03-28T13:38:34.001Z</time></trkpt><trkpt lat="44.373610473659724" lon="10.91393095848442"><ele>216.0</ele><time>2026-03-28T13:38:35.001Z</time></trkpt><trkpt lat="44.37342559858396" lon="10.913960617716333"><ele>216.0</ele><time>2026-03-28T13:38:36.001Z</time></trkpt><trkpt lat="44.373244880384235" lon="10.914009294699165"><ele>216.0</ele><time>2026-03-28T13:38:37.001Z</time></trkpt><trkpt lat="44.37305735988112" lon="10.91406681814805"><ele>217.0</ele><time>2026-03-28T13:38:38.001Z</time></trkpt><trkpt lat="44.372863176906485" lon="10.914125525567483"><ele>218.0</ele><time>2026-03-28T13:38:39.001Z</time></trkpt><trkpt lat="44.372658431481454" lon="10.914185682974422"><ele>219.0</ele><time>2026-03-28T13:38:40.001Z</time></trkpt><trkpt lat="44.37245161835649" lon="10.914241505051958"><ele>215.66666666666669</ele><time>2026-03-28T13:38:41.001Z</time></trkpt><trkpt lat="44.37224931563667" lon="10.914289120711517"><ele>212.33333333333334</ele><time>2026-03-28T13:38:42.001Z</time></trkpt><trkpt lat="44.37204633874565" lon="10.914322370662275"><ele>209.0</ele><time>2026-03-28T13:38:43.001Z</time></trkpt><trkpt lat="44.37184412824689" lon="10.914345457768976"><ele>209.0</ele><time>2026-03-28T13:38:44.001Z</time></trkpt><trkpt lat="44.37163532189623" lon="10.914349401961022"><ele>209.0</ele><time>2026-03-28T13:38:45.001Z</time></trkpt><trkpt lat="44.37142379501313" lon="10.914335532757713"><ele>209.0</ele><time>2026-03-28T13:38:46.001Z</time></trkpt><trkpt lat="44.371210295172844" lon="10.914316774291535"><ele>209.66666666666669</ele><time>2026-03-28T13:38:47.001Z</time></trkpt><trkpt lat="44.37100847424408" lon="10.914294663189537"><ele>210.33333333333331</ele><time>2026-03-28T13:38:48.001Z</time></trkpt><trkpt lat="44.37081634416659" lon="10.91427526663731"><ele>211.0</ele><time>2026-03-28T13:38:49.001Z</time></trkpt><trkpt lat="44.37063147141491" lon="10.91425888221639"><ele>211.33333333333331</ele><time>2026-03-28T13:38:50.001Z</time></trkpt><trkpt lat="44.37045927047534" lon="10.914245050958893"><ele>211.66666666666669</ele><time>2026-03-28T13:38:51.001Z</time></trkpt><trkpt lat="44.37029206150886" lon="10.914246543897887"><ele>212.0</ele><time>2026-03-28T13:38:52.001Z</time></trkpt><trkpt lat="44.3701222087101" lon="10.914277378987391"><ele>212.0</ele><time>2026-03-28T13:38:53.001Z</time></trkpt><trkpt lat="44.3699506192324" lon="10.91434897415237"><ele>212.0</ele><time>2026-03-28T13:38:54.001Z</time></trkpt><trkpt lat="44.36977051946252" lon="10.914424920213548"><ele>212.0</ele><time>2026-03-28T13:38:55.001Z</time></trkpt><trkpt lat="44.36958461634655" lon="10.914500680545805"><ele>213.0</ele><time>2026-03-28T13:38:56.001Z</time></trkpt><trkpt lat="44.369392794887354" lon="10.914570744022814"><ele>214.0</ele><time>2026-03-28T13:38:57.001Z</time></trkpt><trkpt lat="44.36919528402428" lon="10.91465325698092"><ele>215.0</ele><time>2026-03-28T13:38:58.001Z</time></trkpt><trkpt lat="44.36899450646241" lon="10.914739720196643"><ele>217.0</ele><time>2026-03-28T13:38:59.001Z</time></trkpt><trkpt lat="44.36879868217555" lon="10.914817144478532"><ele>219.0</ele><time>2026-03-28T13:39:00.001Z</time></trkpt><trkpt lat="44.36861052422526" lon="10.914893679335087"><ele>221.0</ele><time>2026-03-28T13:39:01.001Z</time></trkpt><trkpt lat="44.368428003867486" lon="10.914969638244585"><ele>221.0</ele><time>2026-03-28T13:39:02.001Z</time></trkpt><trkpt lat="44.36824670948969" lon="10.91504458849197"><ele>221.0</ele><time>2026-03-28T13:39:03.001Z</time></trkpt><trkpt lat="44.36806448312572" lon="10.915126964671451"><ele>221.0</ele><time>2026-03-28T13:39:04Z</time></trkpt><trkpt lat="44.36788396458883" lon="10.915214553518766"><ele>217.66666666666669</ele><time>2026-03-28T13:39:05Z</time></trkpt><trkpt lat="44.36769776595477" lon="10.915308152015301"><ele>214.33333333333331</ele><time>2026-03-28T13:39:06Z</time></trkpt><trkpt lat="44.367481571032755" lon="10.915430480872702"><ele>211.0</ele><time>2026-03-28T13:39:07Z</time></trkpt><trkpt lat="44.367250736470254" lon="10.91555969331446"><ele>213.0</ele><time>2026-03-28T13:39:08Z</time></trkpt><trkpt lat="44.36701590534586" lon="10.915668495300187"><ele>215.0</ele><time>2026-03-28T13:39:09Z</time></trkpt><trkpt lat="44.36679417239528" lon="10.915765271310562"><ele>215.0</ele><time>2026-03-28T13:39:10Z</time></trkpt><trkpt lat="44.36657656516191" lon="10.915856115213433"><ele>215.0</ele><time>2026-03-28T13:39:11Z</time></trkpt><trkpt lat="44.36635415459375" lon="10.915967778547165"><ele>216.5</ele><time>2026-03-28T13:39:12Z</time></trkpt><trkpt lat="44.3661160484903" lon="10.916129875070258"><ele>218.0</ele><time>2026-03-28T13:39:13Z</time></trkpt><trkpt lat="44.36589408088356" lon="10.916172301038582"><ele>218.0</ele><time>2026-03-28T13:39:14Z</time></trkpt><trkpt lat="44.365657015624436" lon="10.916260009845791"><ele>218.0</ele><time>2026-03-28T13:39:15Z</time></trkpt><trkpt lat="44.36541214220601" lon="10.91632797809017"><ele>221.0</ele><time>2026-03-28T13:39:16Z</time></trkpt><trkpt lat="44.365168903306355" lon="10.916409623911047"><ele>224.0</ele><time>2026-03-28T13:39:17Z</time></trkpt><trkpt lat="44.36492662241011" lon="10.916481665141914"><ele>231.0</ele><time>2026-03-28T13:39:18Z</time></trkpt><trkpt lat="44.364684664771204" lon="10.916555050239717"><ele>238.0</ele><time>2026-03-28T13:39:19Z</time></trkpt><trkpt lat="44.36444734050871" lon="10.916625476973252"><ele>238.0</ele><time>2026-03-28T13:39:20Z</time></trkpt><trkpt lat="44.36421030084285" lon="10.916699119051165"><ele>238.0</ele><time>2026-03-28T13:39:21Z</time></trkpt><trkpt lat="44.36397665363773" lon="10.91677227224946"><ele>235.66666666666666</ele><time>2026-03-28T13:39:22Z</time></trkpt><trkpt lat="44.36375695998394" lon="10.916840114222136"><ele>233.33333333333331</ele><time>2026-03-28T13:39:23Z</time></trkpt><trkpt lat="44.363550598578996" lon="10.916903504429749"><ele>231.0</ele><time>2026-03-28T13:39:24Z</time></trkpt><trkpt lat="44.36335285110943" lon="10.916962939658248"><ele>231.0</ele><time>2026-03-28T13:39:25Z</time></trkpt><trkpt lat="44.363163826647" lon="10.91697383377288"><ele>231.0</ele><time>2026-03-28T13:39:26Z</time></trkpt><trkpt lat="44.362980292409524" lon="10.91697084241915"><ele>231.0</ele><time>2026-03-28T13:39:27Z</time></trkpt><trkpt lat="44.36279463600755" lon="10.916954200078806"><ele>231.33333333333331</ele><time>2026-03-28T13:39:28Z</time></trkpt><trkpt lat="44.3626124823901" lon="10.916932307143803"><ele>231.66666666666666</ele><time>2026-03-28T13:39:29Z</time></trkpt><trkpt lat="44.36243353499526" lon="10.916909371911057"><ele>232.0</ele><time>2026-03-28T13:39:30Z</time></trkpt><trkpt lat="44.36225248837979" lon="10.916882680349952"><ele>232.0</ele><time>2026-03-28T13:39:31Z</time></trkpt><trkpt lat="44.36206664059983" lon="10.916881055124135"><ele>232.0</ele><time>2026-03-28T13:39:32Z</time></trkpt><trkpt lat="44.361889068470816" lon="10.916876138864883"><ele>232.0</ele><time>2026-03-28T13:39:33Z</time></trkpt><trkpt lat="44.36171430082196" lon="10.91691693439518"><ele>232.0</ele><time>2026-03-28T13:39:34Z</time></trkpt><trkpt lat="44.36154718873603" lon="10.917006995222957"><ele>232.0</ele><time>2026-03-28T13:39:35Z</time></trkpt><trkpt lat="44.36139420845456" lon="10.917150765434116"><ele>232.0</ele><time>2026-03-28T13:39:36Z</time></trkpt><trkpt lat="44.36124882713222" lon="10.917354516812201"><ele>237.5</ele><time>2026-03-28T13:39:37Z</time></trkpt><trkpt lat="44.36108863095286" lon="10.917619123190692"><ele>243.0</ele><time>2026-03-28T13:39:38Z</time></trkpt><trkpt lat="44.36089217584463" lon="10.917886442088848"><ele>243.0</ele><time>2026-03-28T13:39:39Z</time></trkpt><trkpt lat="44.36071592751936" lon="10.91806948269696"><ele>243.0</ele><time>2026-03-28T13:39:40Z</time></trkpt><trkpt lat="44.36053045683447" lon="10.918274805082426"><ele>241.0</ele><time>2026-03-28T13:39:41Z</time></trkpt><trkpt lat="44.36026901238971" lon="10.918569861047912"><ele>239.0</ele><time>2026-03-28T13:39:42Z</time></trkpt><trkpt lat="44.36008043862083" lon="10.91877691526012"><ele>239.0</ele><time>2026-03-28T13:39:43Z</time></trkpt><trkpt lat="44.359903172299106" lon="10.918955599145773"><ele>239.0</ele><time>2026-03-28T13:39:44Z</time></trkpt><trkpt lat="44.359710377833565" lon="10.919121883459983"><ele>239.0</ele><time>2026-03-28T13:39:45Z</time></trkpt><trkpt lat="44.35951077634558" lon="10.919216714439418"><ele>236.33333333333334</ele><time>2026-03-28T13:39:46Z</time></trkpt><trkpt lat="44.359322991916535" lon="10.919310426376995"><ele>233.66666666666669</ele><time>2026-03-28T13:39:47Z</time></trkpt><trkpt lat="44.35913097715234" lon="10.919405524965091"><ele>231.0</ele><time>2026-03-28T13:39:48Z</time></trkpt><trkpt lat="44.35894856388236" lon="10.91953098842179"><ele>235.66666666666669</ele><time>2026-03-28T13:39:49Z</time></trkpt><trkpt lat="44.3587505691355" lon="10.91965564792587"><ele>240.33333333333334</ele><time>2026-03-28T13:39:50Z</time></trkpt><trkpt lat="44.358551986329715" lon="10.91982100211388"><ele>245.0</ele><time>2026-03-28T13:39:51Z</time></trkpt><trkpt lat="44.35836434577285" lon="10.920014163982895"><ele>240.5</ele><time>2026-03-28T13:39:52Z</time></trkpt><trkpt lat="44.3581844595872" lon="10.920231054025352"><ele>236.0</ele><time>2026-03-28T13:39:53Z</time></trkpt><trkpt lat="44.358006155938554" lon="10.920425651463145"><ele>236.0</ele><time>2026-03-28T13:39:54Z</time></trkpt><trkpt lat="44.357819302890356" lon="10.920603761044388"><ele>236.0</ele><time>2026-03-28T13:39:55Z</time></trkpt><trkpt lat="44.35763986359742" lon="10.920767146383344"><ele>236.0</ele><time>2026-03-28T13:39:56Z</time></trkpt><trkpt lat="44.35746880235327" lon="10.920822687330187"><ele>233.0</ele><time>2026-03-28T13:39:57Z</time></trkpt><trkpt lat="44.35728780355814" lon="10.920929147182465"><ele>230.0</ele><time>2026-03-28T13:39:58Z</time></trkpt><trkpt lat="44.35706917618391" lon="10.920990103277202"><ele>227.0</ele><time>2026-03-28T13:39:59Z</time></trkpt><trkpt lat="44.356844988310336" lon="10.92110716405196"><ele>227.0</ele><time>2026-03-28T13:40:00Z</time></trkpt><trkpt lat="44.356628805406245" lon="10.9212439222625"><ele>227.0</ele><time>2026-03-28T13:40:01Z</time></trkpt><trkpt lat="44.35642305221296" lon="10.921365802146981"><ele>228.33333333333334</ele><time>2026-03-28T13:40:02Z</time></trkpt><trkpt lat="44.35622670735439" lon="10.921474469797932"><ele>229.66666666666669</ele><time>2026-03-28T13:40:03Z</time></trkpt><trkpt lat="44.356047885787284" lon="10.921535191959283"><ele>231.0</ele><time>2026-03-28T13:40:04Z</time></trkpt><trkpt lat="44.35587644038558" lon="10.921572086733214"><ele>231.0</ele><time>2026-03-28T13:40:05Z</time></trkpt><trkpt lat="44.355712867943986" lon="10.921560543504965"><ele>231.0</ele><time>2026-03-28T13:40:06Z</time></trkpt><trkpt lat="44.35552787287676" lon="10.92150699132631"><ele>231.0</ele><time>2026-03-28T13:40:07Z</time></trkpt><trkpt lat="44.35531833794066" lon="10.921426441223085"><ele>226.5</ele><time>2026-03-28T13:40:08Z</time></trkpt><trkpt lat="44.355105258177296" lon="10.92130537723558"><ele>222.0</ele><time>2026-03-28T13:40:09Z</time></trkpt><trkpt lat="44.35489618935693" lon="10.921194700057463"><ele>221.66666666666669</ele><time>2026-03-28T13:40:10Z</time></trkpt><trkpt lat="44.35469826993112" lon="10.921097280117644"><ele>221.33333333333334</ele><time>2026-03-28T13:40:11Z</time></trkpt><trkpt lat="44.35451322923478" lon="10.921012498569153"><ele>221.0</ele><time>2026-03-28T13:40:12Z</time></trkpt><trkpt lat="44.35432729590927" lon="10.920964706310745"><ele>221.0</ele><time>2026-03-28T13:40:13Z</time></trkpt><trkpt lat="44.35412034866325" lon="10.921007529302125"><ele>221.0</ele><time>2026-03-28T13:40:14Z</time></trkpt><trkpt lat="44.35389283617335" lon="10.921102628991056"><ele>221.0</ele><time>2026-03-28T13:40:15Z</time></trkpt><trkpt lat="44.35365246081522" lon="10.921205301099432"><ele>224.0</ele><time>2026-03-28T13:40:16Z</time></trkpt><trkpt lat="44.35340447209578" lon="10.92127784182774"><ele>227.0</ele><time>2026-03-28T13:40:17Z</time></trkpt><trkpt lat="44.35315465495228" lon="10.92134529202497"><ele>233.0</ele><time>2026-03-28T13:40:18Z</time></trkpt><trkpt lat="44.35290991618108" lon="10.921415580429544"><ele>239.0</ele><time>2026-03-28T13:40:19Z</time></trkpt><trkpt lat="44.35266696246997" lon="10.921490667181963"><ele>239.0</ele><time>2026-03-28T13:40:20Z</time></trkpt><trkpt lat="44.35243852475719" lon="10.921565896215553"><ele>239.0</ele><time>2026-03-28T13:40:21Z</time></trkpt><trkpt lat="44.35223140799351" lon="10.921643751223524"><ele>239.0</ele><time>2026-03-28T13:40:22Z</time></trkpt><trkpt lat="44.35204779782543" lon="10.921738486213604"><ele>238.33333333333334</ele><time>2026-03-28T13:40:23Z</time></trkpt><trkpt lat="44.351881258338494" lon="10.921873602529379"><ele>237.66666666666669</ele><time>2026-03-28T13:40:24Z</time></trkpt><trkpt lat="44.35171556308243" lon="10.92205799338556"><ele>237.0</ele><time>2026-03-28T13:40:25Z</time></trkpt><trkpt lat="44.35156297145338" lon="10.922269433163585"><ele>237.0</ele><time>2026-03-28T13:40:26Z</time></trkpt><trkpt lat="44.351429184930524" lon="10.922470571925881"><ele>237.0</ele><time>2026-03-28T13:40:27Z</time></trkpt><trkpt lat="44.351279318785714" lon="10.922585713355858"><ele>237.0</ele><time>2026-03-28T13:40:28Z</time></trkpt><trkpt lat="44.35111286811901" lon="10.92267849493752"><ele>238.33333333333331</ele><time>2026-03-28T13:40:29Z</time></trkpt><trkpt lat="44.350915186196616" lon="10.922770039949016"><ele>239.66666666666666</ele><time>2026-03-28T13:40:30Z</time></trkpt><trkpt lat="44.35070346387061" lon="10.922883007819964"><ele>241.0</ele><time>2026-03-28T13:40:31Z</time></trkpt><trkpt lat="44.350478402560825" lon="10.922975418650239"><ele>241.0</ele><time>2026-03-28T13:40:32Z</time></trkpt><trkpt lat="44.35026249305757" lon="10.923091235960856"><ele>241.0</ele><time>2026-03-28T13:40:33Z</time></trkpt><trkpt lat="44.3500672354257" lon="10.923196298589653"><ele>241.0</ele><time>2026-03-28T13:40:34Z</time></trkpt><trkpt lat="44.34988401214854" lon="10.923290112483206"><ele>241.0</ele><time>2026-03-28T13:40:35Z</time></trkpt><trkpt lat="44.34971873697522" lon="10.923392522338405"><ele>241.0</ele><time>2026-03-28T13:40:36Z</time></trkpt><trkpt lat="44.349558793428585" lon="10.923560146319547"><ele>241.0</ele><time>2026-03-28T13:40:37Z</time></trkpt><trkpt lat="44.34942541969329" lon="10.923777105705176"><ele>241.0</ele><time>2026-03-28T13:40:38Z</time></trkpt><trkpt lat="44.349318017231084" lon="10.924015370253846"><ele>241.0</ele><time>2026-03-28T13:40:39.001Z</time></trkpt><trkpt lat="44.34919554875319" lon="10.924187252993798"><ele>241.0</ele><time>2026-03-28T13:40:40.001Z</time></trkpt><trkpt lat="44.34905253455088" lon="10.924316721705937"><ele>240.0</ele><time>2026-03-28T13:40:41.001Z</time></trkpt><trkpt lat="44.3488796058098" lon="10.924425801838863"><ele>239.0</ele><time>2026-03-28T13:40:42.001Z</time></trkpt><trkpt lat="44.34868619965212" lon="10.924534069741382"><ele>238.0</ele><time>2026-03-28T13:40:43.001Z</time></trkpt><trkpt lat="44.34848507837816" lon="10.924620394608644"><ele>238.0</ele><time>2026-03-28T13:40:44.001Z</time></trkpt><trkpt lat="44.348286320991" lon="10.924731259078492"><ele>238.0</ele><time>2026-03-28T13:40:45.001Z</time></trkpt><trkpt lat="44.348086524820864" lon="10.92484169599139"><ele>238.0</ele><time>2026-03-28T13:40:46.001Z</time></trkpt><trkpt lat="44.347893236904326" lon="10.924946623238391"><ele>240.33333333333331</ele><time>2026-03-28T13:40:47.001Z</time></trkpt><trkpt lat="44.34770808384437" lon="10.925046612413784"><ele>242.66666666666669</ele><time>2026-03-28T13:40:48.001Z</time></trkpt><trkpt lat="44.34750759171121" lon="10.925086543481576"><ele>245.0</ele><time>2026-03-28T13:40:49.001Z</time></trkpt><trkpt lat="44.34729398835978" lon="10.925096653564124"><ele>236.0</ele><time>2026-03-28T13:40:50.001Z</time></trkpt><trkpt lat="44.34706015091714" lon="10.92511045191225"><ele>227.0</ele><time>2026-03-28T13:40:51.001Z</time></trkpt><trkpt lat="44.346832312963805" lon="10.925093698882373"><ele>227.0</ele><time>2026-03-28T13:40:52.001Z</time></trkpt><trkpt lat="44.34662337517497" lon="10.925084434863814"><ele>227.0</ele><time>2026-03-28T13:40:53.001Z</time></trkpt><trkpt lat="44.34643115098838" lon="10.925071430799937"><ele>227.0</ele><time>2026-03-28T13:40:54.001Z</time></trkpt><trkpt lat="44.34624310613287" lon="10.925043015857957"><ele>230.33333333333334</ele><time>2026-03-28T13:40:55.001Z</time></trkpt><trkpt lat="44.346053144239875" lon="10.924995620509671"><ele>233.66666666666669</ele><time>2026-03-28T13:40:56.001Z</time></trkpt><trkpt lat="44.345870442405534" lon="10.924869814016569"><ele>237.0</ele><time>2026-03-28T13:40:57.001Z</time></trkpt><trkpt lat="44.34569572006635" lon="10.924715373370104"><ele>238.0</ele><time>2026-03-28T13:40:58.001Z</time></trkpt><trkpt lat="44.345509862221874" lon="10.924560818735912"><ele>239.0</ele><time>2026-03-28T13:40:59.001Z</time></trkpt><trkpt lat="44.34533452940124" lon="10.924381735661491"><ele>240.0</ele><time>2026-03-28T13:41:00.001Z</time></trkpt><trkpt lat="44.34517365941409" lon="10.92422765056357"><ele>240.0</ele><time>2026-03-28T13:41:01.001Z</time></trkpt><trkpt lat="44.345007652464965" lon="10.924096419176383"><ele>240.0</ele><time>2026-03-28T13:41:02.001Z</time></trkpt><trkpt lat="44.34482583431101" lon="10.923996307772159"><ele>240.0</ele><time>2026-03-28T13:41:03.001Z</time></trkpt><trkpt lat="44.34461917975903" lon="10.923940311472986"><ele>239.33333333333331</ele><time>2026-03-28T13:41:04.001Z</time></trkpt><trkpt lat="44.34440272801288" lon="10.923927152350183"><ele>238.66666666666666</ele><time>2026-03-28T13:41:05.001Z</time></trkpt><trkpt lat="44.34419243621157" lon="10.923934550043894"><ele>238.0</ele><time>2026-03-28T13:41:06.001Z</time></trkpt><trkpt lat="44.344006251863945" lon="10.923965486069717"><ele>239.0</ele><time>2026-03-28T13:41:07.001Z</time></trkpt><trkpt lat="44.34382914441635" lon="10.924028690979814"><ele>240.0</ele><time>2026-03-28T13:41:08.001Z</time></trkpt><trkpt lat="44.343666294370124" lon="10.924101458927646"><ele>241.0</ele><time>2026-03-28T13:41:09Z</time></trkpt><trkpt lat="44.34352093289595" lon="10.924108979396483"><ele>241.0</ele><time>2026-03-28T13:41:10Z</time></trkpt><trkpt lat="44.34337820533877" lon="10.9240700874975"><ele>241.0</ele><time>2026-03-28T13:41:11Z</time></trkpt><trkpt lat="44.34319057894211" lon="10.924001271752719"><ele>241.0</ele><time>2026-03-28T13:41:12Z</time></trkpt><trkpt lat="44.342966823118275" lon="10.92392879633477"><ele>239.0</ele><time>2026-03-28T13:41:13Z</time></trkpt><trkpt lat="44.342721347060944" lon="10.923843004030507"><ele>237.0</ele><time>2026-03-28T13:41:14Z</time></trkpt><trkpt lat="44.342462720047344" lon="10.923773085309564"><ele>237.0</ele><time>2026-03-28T13:41:15Z</time></trkpt><trkpt lat="44.34222818194239" lon="10.923702787066622"><ele>237.0</ele><time>2026-03-28T13:41:16Z</time></trkpt><trkpt lat="44.34202367610415" lon="10.923639122973189"><ele>237.0</ele><time>2026-03-28T13:41:17Z</time></trkpt><trkpt lat="44.34184498578982" lon="10.923612435036972"><ele>236.66666666666669</ele><time>2026-03-28T13:41:18Z</time></trkpt><trkpt lat="44.34166904432497" lon="10.923653386075644"><ele>236.33333333333334</ele><time>2026-03-28T13:41:19Z</time></trkpt><trkpt lat="44.341486989711264" lon="10.923789854291897"><ele>236.0</ele><time>2026-03-28T13:41:20Z</time></trkpt><trkpt lat="44.34129668778407" lon="10.923939674163629"><ele>240.5</ele><time>2026-03-28T13:41:21Z</time></trkpt><trkpt lat="44.34108999562293" lon="10.924072903644188"><ele>245.0</ele><time>2026-03-28T13:41:22Z</time></trkpt><trkpt lat="44.34087458401281" lon="10.92420152803179"><ele>243.66666666666669</ele><time>2026-03-28T13:41:23Z</time></trkpt><trkpt lat="44.34066580451767" lon="10.924326085826886"><ele>242.33333333333331</ele><time>2026-03-28T13:41:24Z</time></trkpt><trkpt lat="44.34047040138206" lon="10.924441843579967"><ele>241.0</ele><time>2026-03-28T13:41:25Z</time></trkpt><trkpt lat="44.34028010157515" lon="10.924547866978074"><ele>241.0</ele><time>2026-03-28T13:41:26Z</time></trkpt><trkpt lat="44.34009155251345" lon="10.92465001670983"><ele>241.0</ele><time>2026-03-28T13:41:27Z</time></trkpt><trkpt lat="44.339864683914946" lon="10.924743527883257"><ele>241.0</ele><time>2026-03-28T13:41:28Z</time></trkpt><trkpt lat="44.33960101037259" lon="10.924880188711324"><ele>243.0</ele><time>2026-03-28T13:41:29Z</time></trkpt><trkpt lat="44.3393228217418" lon="10.925041406199009"><ele>245.0</ele><time>2026-03-28T13:41:30Z</time></trkpt><trkpt lat="44.33910027817306" lon="10.925199717713802"><ele>242.5</ele><time>2026-03-28T13:41:31Z</time></trkpt><trkpt lat="44.33889483586557" lon="10.925343769925698"><ele>240.0</ele><time>2026-03-28T13:41:32Z</time></trkpt><trkpt lat="44.33869018741941" lon="10.925493394050482"><ele>240.0</ele><time>2026-03-28T13:41:33Z</time></trkpt><trkpt lat="44.338474193688974" lon="10.925588442834249"><ele>240.0</ele><time>2026-03-28T13:41:34Z</time></trkpt><trkpt lat="44.33824614876551" lon="10.925658749226045"><ele>241.0</ele><time>2026-03-28T13:41:35Z</time></trkpt><trkpt lat="44.33800988489263" lon="10.925742684786302"><ele>242.0</ele><time>2026-03-28T13:41:36Z</time></trkpt><trkpt lat="44.337770100447294" lon="10.925802668581724"><ele>242.0</ele><time>2026-03-28T13:41:37Z</time></trkpt><trkpt lat="44.33754685630996" lon="10.925865790554965"><ele>242.0</ele><time>2026-03-28T13:41:38Z</time></trkpt><trkpt lat="44.33732374071264" lon="10.925925187822456"><ele>238.5</ele><time>2026-03-28T13:41:39Z</time></trkpt><trkpt lat="44.33709757997412" lon="10.925982968698195"><ele>235.0</ele><time>2026-03-28T13:41:40Z</time></trkpt><trkpt lat="44.33687350907755" lon="10.926035869442252"><ele>235.0</ele><time>2026-03-28T13:41:41Z</time></trkpt><trkpt lat="44.33664865878766" lon="10.926082605615495"><ele>235.0</ele><time>2026-03-28T13:41:42Z</time></trkpt><trkpt lat="44.33642291395627" lon="10.926148746187009"><ele>239.0</ele><time>2026-03-28T13:41:43Z</time></trkpt><trkpt lat="44.33619813927139" lon="10.926254347953838"><ele>243.0</ele><time>2026-03-28T13:41:44Z</time></trkpt><trkpt lat="44.33598174833642" lon="10.926395201330656"><ele>243.0</ele><time>2026-03-28T13:41:45Z</time></trkpt><trkpt lat="44.33576879156548" lon="10.926563238508834"><ele>243.0</ele><time>2026-03-28T13:41:46Z</time></trkpt><trkpt lat="44.335567131784295" lon="10.926733413079747"><ele>243.5</ele><time>2026-03-28T13:41:47Z</time></trkpt><trkpt lat="44.33537303945801" lon="10.926909222337923"><ele>244.0</ele><time>2026-03-28T13:41:48Z</time></trkpt><trkpt lat="44.33519577779902" lon="10.927104270303618"><ele>244.0</ele><time>2026-03-28T13:41:49Z</time></trkpt><trkpt lat="44.33503921963217" lon="10.92732139488539"><ele>244.0</ele><time>2026-03-28T13:41:50Z</time></trkpt><trkpt lat="44.33489462976729" lon="10.927517109376154"><ele>244.0</ele><time>2026-03-28T13:41:51Z</time></trkpt><trkpt lat="44.334760581057935" lon="10.92768370326802"><ele>243.33333333333331</ele><time>2026-03-28T13:41:52Z</time></trkpt><trkpt lat="44.33463108031557" lon="10.927825498150945"><ele>242.66666666666669</ele><time>2026-03-28T13:41:53Z</time></trkpt><trkpt lat="44.33447291426354" lon="10.92791247460948"><ele>242.0</ele><time>2026-03-28T13:41:54Z</time></trkpt><trkpt lat="44.33429861407778" lon="10.927958396289549"><ele>242.0</ele><time>2026-03-28T13:41:55Z</time></trkpt><trkpt lat="44.33410870859303" lon="10.927992885371735"><ele>242.0</ele><time>2026-03-28T13:41:56Z</time></trkpt><trkpt lat="44.333911678198504" lon="10.927969117975243"><ele>242.0</ele><time>2026-03-28T13:41:57Z</time></trkpt><trkpt lat="44.33370223501369" lon="10.92795843123763"><ele>242.66666666666669</ele><time>2026-03-28T13:41:58Z</time></trkpt><trkpt lat="44.333487900930926" lon="10.927955436534079"><ele>243.33333333333331</ele><time>2026-03-28T13:41:59Z</time></trkpt><trkpt lat="44.3332703564162" lon="10.927953461642316"><ele>244.0</ele><time>2026-03-28T13:42:00Z</time></trkpt><trkpt lat="44.33306809685194" lon="10.927954843617572"><ele>245.0</ele><time>2026-03-28T13:42:01Z</time></trkpt><trkpt lat="44.33287060858404" lon="10.927975716065914"><ele>246.0</ele><time>2026-03-28T13:42:02Z</time></trkpt><trkpt lat="44.33266708568617" lon="10.92804247818692"><ele>247.0</ele><time>2026-03-28T13:42:03Z</time></trkpt><trkpt lat="44.33245679808055" lon="10.928144275432059"><ele>247.0</ele><time>2026-03-28T13:42:04Z</time></trkpt><trkpt lat="44.332232691311006" lon="10.92826258749942"><ele>247.0</ele><time>2026-03-28T13:42:05Z</time></trkpt><trkpt lat="44.33199546043476" lon="10.928368920930895"><ele>242.5</ele><time>2026-03-28T13:42:06Z</time></trkpt><trkpt lat="44.33175452341736" lon="10.928462934438244"><ele>238.0</ele><time>2026-03-28T13:42:07Z</time></trkpt><trkpt lat="44.331506146074624" lon="10.928534105189392"><ele>238.5</ele><time>2026-03-28T13:42:08Z</time></trkpt><trkpt lat="44.33125813832859" lon="10.92859471879352"><ele>239.0</ele><time>2026-03-28T13:42:09Z</time></trkpt><trkpt lat="44.33101821517603" lon="10.92864834820747"><ele>239.0</ele><time>2026-03-28T13:42:10Z</time></trkpt><trkpt lat="44.330785871166135" lon="10.928695557031284"><ele>239.0</ele><time>2026-03-28T13:42:11Z</time></trkpt><trkpt lat="44.33055938674324" lon="10.92867998962018"><ele>239.0</ele><time>2026-03-28T13:42:12Z</time></trkpt><trkpt lat="44.33033979008973" lon="10.928627089290883"><ele>239.0</ele><time>2026-03-28T13:42:13Z</time></trkpt><trkpt lat="44.330100193551104" lon="10.928565935157506"><ele>239.0</ele><time>2026-03-28T13:42:14Z</time></trkpt><trkpt lat="44.329863148306856" lon="10.92846479081988"><ele>239.0</ele><time>2026-03-28T13:42:15Z</time></trkpt><trkpt lat="44.32962509723692" lon="10.928356411664131"><ele>241.0</ele><time>2026-03-28T13:42:16Z</time></trkpt><trkpt lat="44.32938438402151" lon="10.928244544545137"><ele>243.0</ele><time>2026-03-28T13:42:17Z</time></trkpt><trkpt lat="44.329142330933074" lon="10.928138499330233"><ele>243.0</ele><time>2026-03-28T13:42:18Z</time></trkpt><trkpt lat="44.32889601223458" lon="10.928028715997613"><ele>243.0</ele><time>2026-03-28T13:42:19Z</time></trkpt><trkpt lat="44.32865331731131" lon="10.927924937716323"><ele>242.5</ele><time>2026-03-28T13:42:20Z</time></trkpt><trkpt lat="44.328411309572694" lon="10.927783745190665"><ele>242.0</ele><time>2026-03-28T13:42:21Z</time></trkpt><trkpt lat="44.32816661927746" lon="10.927613598349293"><ele>243.0</ele><time>2026-03-28T13:42:22Z</time></trkpt><trkpt lat="44.327926008950904" lon="10.927401426218427"><ele>244.0</ele><time>2026-03-28T13:42:23Z</time></trkpt><trkpt lat="44.32767434661889" lon="10.927205081756952"><ele>244.0</ele><time>2026-03-28T13:42:24Z</time></trkpt><trkpt lat="44.327432657822406" lon="10.92698855134396"><ele>244.0</ele><time>2026-03-28T13:42:25Z</time></trkpt><trkpt lat="44.32719302474897" lon="10.926777089111296"><ele>244.5</ele><time>2026-03-28T13:42:26Z</time></trkpt><trkpt lat="44.32695769557092" lon="10.926575549287335"><ele>245.0</ele><time>2026-03-28T13:42:27Z</time></trkpt><trkpt lat="44.32673698400023" lon="10.926385278403998"><ele>245.0</ele><time>2026-03-28T13:42:28.001Z</time></trkpt><trkpt lat="44.32653907956088" lon="10.926216529156815"><ele>245.0</ele><time>2026-03-28T13:42:29.001Z</time></trkpt><trkpt lat="44.32635587921155" lon="10.926066045215123"><ele>245.0</ele><time>2026-03-28T13:42:30.001Z</time></trkpt><trkpt lat="44.326175022769775" lon="10.925956850606438"><ele>245.33333333333334</ele><time>2026-03-28T13:42:31.001Z</time></trkpt><trkpt lat="44.32599081578164" lon="10.925913116316089"><ele>245.66666666666669</ele><time>2026-03-28T13:42:32.001Z</time></trkpt><trkpt lat="44.32579480496422" lon="10.925930473121873"><ele>246.0</ele><time>2026-03-28T13:42:33.001Z</time></trkpt><trkpt lat="44.32559526808998" lon="10.926007819231"><ele>246.33333333333331</ele><time>2026-03-28T13:42:34.001Z</time></trkpt><trkpt lat="44.32539626942878" lon="10.926061804502972"><ele>246.66666666666666</ele><time>2026-03-28T13:42:35.001Z</time></trkpt><trkpt lat="44.32522777177283" lon="10.926089235213443"><ele>247.0</ele><time>2026-03-28T13:42:36.001Z</time></trkpt><trkpt lat="44.32506815407924" lon="10.926111807353964"><ele>247.0</ele><time>2026-03-28T13:42:37.001Z</time></trkpt><trkpt lat="44.32490615280653" lon="10.926120282076395"><ele>247.0</ele><time>2026-03-28T13:42:38.001Z</time></trkpt><trkpt lat="44.32473965905002" lon="10.926097400373088"><ele>247.0</ele><time>2026-03-28T13:42:39.001Z</time></trkpt><trkpt lat="44.3245805701992" lon="10.92605567992901"><ele>247.0</ele><time>2026-03-28T13:42:40.001Z</time></trkpt><trkpt lat="44.32442437344011" lon="10.926012510656847"><ele>247.0</ele><time>2026-03-28T13:42:41.001Z</time></trkpt><trkpt lat="44.324269455871665" lon="10.925983339315623"><ele>247.0</ele><time>2026-03-28T13:42:42.001Z</time></trkpt><trkpt lat="44.324112212739955" lon="10.925963416423826"><ele>247.0</ele><time>2026-03-28T13:42:43.001Z</time></trkpt><trkpt lat="44.32395917055477" lon="10.925958211669307"><ele>247.0</ele><time>2026-03-28T13:42:44.001Z</time></trkpt><trkpt lat="44.323795373467874" lon="10.925944739708168"><ele>247.0</ele><time>2026-03-28T13:42:45.001Z</time></trkpt><trkpt lat="44.323632404334035" lon="10.92596548418447"><ele>247.0</ele><time>2026-03-28T13:42:46.001Z</time></trkpt><trkpt lat="44.32348310409811" lon="10.926012458249895"><ele>247.0</ele><time>2026-03-28T13:42:47.001Z</time></trkpt><trkpt lat="44.32332988388292" lon="10.926018841939833"><ele>247.0</ele><time>2026-03-28T13:42:48.001Z</time></trkpt><trkpt lat="44.32317928041117" lon="10.92607017533385"><ele>246.66666666666666</ele><time>2026-03-28T13:42:49.001Z</time></trkpt><trkpt lat="44.32302401997975" lon="10.9260878585014"><ele>246.33333333333331</ele><time>2026-03-28T13:42:50.001Z</time></trkpt><trkpt lat="44.322866292429325" lon="10.926092030534802"><ele>246.0</ele><time>2026-03-28T13:42:51.001Z</time></trkpt><trkpt lat="44.322713340210235" lon="10.926076731031806"><ele>246.0</ele><time>2026-03-28T13:42:52.001Z</time></trkpt><trkpt lat="44.32256564351314" lon="10.926039289264361"><ele>246.0</ele><time>2026-03-28T13:42:53.001Z</time></trkpt><trkpt lat="44.32242311131863" lon="10.925995761188592"><ele>246.0</ele><time>2026-03-28T13:42:54.001Z</time></trkpt><trkpt lat="44.32228736979482" lon="10.925947356468312"><ele>246.0</ele><time>2026-03-28T13:42:55.001Z</time></trkpt><trkpt lat="44.32216334298686" lon="10.925904081676062"><ele>247.75</ele><time>2026-03-28T13:42:56.001Z</time></trkpt><trkpt lat="44.32204028099985" lon="10.925860340557115"><ele>249.5</ele><time>2026-03-28T13:42:57.001Z</time></trkpt><trkpt lat="44.32191200145575" lon="10.925800384139615"><ele>251.25</ele><time>2026-03-28T13:42:58.001Z</time></trkpt><trkpt lat="44.321766627008856" lon="10.925685928483075"><ele>253.0</ele><time>2026-03-28T13:42:59.001Z</time></trkpt><trkpt lat="44.32159878887383" lon="10.925534665332243"><ele>253.0</ele><time>2026-03-28T13:43:00.001Z</time></trkpt><trkpt lat="44.32143123496889" lon="10.925332923060692"><ele>253.0</ele><time>2026-03-28T13:43:01.001Z</time></trkpt><trkpt lat="44.32122139826145" lon="10.925145759942966"><ele>255.0</ele><time>2026-03-28T13:43:02.001Z</time></trkpt><trkpt lat="44.32103733687749" lon="10.924923839031024"><ele>257.0</ele><time>2026-03-28T13:43:03.001Z</time></trkpt><trkpt lat="44.320855966614126" lon="10.924688876269864"><ele>257.0</ele><time>2026-03-28T13:43:04.001Z</time></trkpt><trkpt lat="44.32068863478646" lon="10.92444167321434"><ele>257.0</ele><time>2026-03-28T13:43:05.001Z</time></trkpt><trkpt lat="44.32052002025503" lon="10.924241062911749"><ele>258.0</ele><time>2026-03-28T13:43:06.001Z</time></trkpt><trkpt lat="44.320350910346264" lon="10.924045598676342"><ele>259.0</ele><time>2026-03-28T13:43:07.001Z</time></trkpt><trkpt lat="44.32019507294497" lon="10.923806641206887"><ele>259.0</ele><time>2026-03-28T13:43:08.001Z</time></trkpt><trkpt lat="44.32002159038763" lon="10.923548196785966"><ele>259.0</ele><time>2026-03-28T13:43:09.001Z</time></trkpt><trkpt lat="44.31985171592721" lon="10.923266632714908"><ele>256.5</ele><time>2026-03-28T13:43:10.001Z</time></trkpt><trkpt lat="44.319681750683586" lon="10.923010254889952"><ele>254.0</ele><time>2026-03-28T13:43:11.001Z</time></trkpt><trkpt lat="44.31954651140438" lon="10.922760738127485"><ele>257.6666666666667</ele><time>2026-03-28T13:43:12.001Z</time></trkpt><trkpt lat="44.3194254545509" lon="10.922538145140374"><ele>261.3333333333333</ele><time>2026-03-28T13:43:13.001Z</time></trkpt><trkpt lat="44.31930324275553" lon="10.922331312880896"><ele>265.0</ele><time>2026-03-28T13:43:14.001Z</time></trkpt><trkpt lat="44.319155035562424" lon="10.922147516247138"><ele>265.0</ele><time>2026-03-28T13:43:15Z</time></trkpt><trkpt lat="44.31897730911531" lon="10.922003462087032"><ele>265.0</ele><time>2026-03-28T13:43:16Z</time></trkpt><trkpt lat="44.31879125603794" lon="10.921850426691982"><ele>265.0</ele><time>2026-03-28T13:43:17Z</time></trkpt><trkpt lat="44.318607497576934" lon="10.921661216882345"><ele>265.66666666666663</ele><time>2026-03-28T13:43:18Z</time></trkpt><trkpt lat="44.3184442858223" lon="10.921454261879353"><ele>266.3333333333333</ele><time>2026-03-28T13:43:19Z</time></trkpt><trkpt lat="44.318285980093094" lon="10.92123862878003"><ele>267.0</ele><time>2026-03-28T13:43:20Z</time></trkpt><trkpt lat="44.318116577622106" lon="10.921018199608444"><ele>270.0</ele><time>2026-03-28T13:43:21Z</time></trkpt><trkpt lat="44.31791434894442" lon="10.920824084735045"><ele>273.0</ele><time>2026-03-28T13:43:22Z</time></trkpt><trkpt lat="44.31767258474078" lon="10.920663301583762"><ele>273.0</ele><time>2026-03-28T13:43:23Z</time></trkpt><trkpt lat="44.317403745384055" lon="10.920516336704281"><ele>273.0</ele><time>2026-03-28T13:43:24Z</time></trkpt><trkpt lat="44.317125855566374" lon="10.920373073856327"><ele>270.0</ele><time>2026-03-28T13:43:25Z</time></trkpt><trkpt lat="44.31685636885676" lon="10.920222513233002"><ele>267.0</ele><time>2026-03-28T13:43:26Z</time></trkpt><trkpt lat="44.31659856729251" lon="10.920080945501958"><ele>272.5</ele><time>2026-03-28T13:43:27Z</time></trkpt><trkpt lat="44.316377733306794" lon="10.919919837733666"><ele>278.0</ele><time>2026-03-28T13:43:28Z</time></trkpt><trkpt lat="44.316184140637624" lon="10.919752610703066"><ele>278.0</ele><time>2026-03-28T13:43:29Z</time></trkpt><trkpt lat="44.31600665449425" lon="10.919546865301676"><ele>278.0</ele><time>2026-03-28T13:43:30Z</time></trkpt><trkpt lat="44.31583542461006" lon="10.919297415846916"><ele>281.5</ele><time>2026-03-28T13:43:31Z</time></trkpt><trkpt lat="44.31565847127707" lon="10.919039752637874"><ele>285.0</ele><time>2026-03-28T13:43:32Z</time></trkpt><trkpt lat="44.31548916411739" lon="10.918761117950634"><ele>283.0</ele><time>2026-03-28T13:43:33Z</time></trkpt><trkpt lat="44.3153235233038" lon="10.918505823855446"><ele>281.0</ele><time>2026-03-28T13:43:34Z</time></trkpt><trkpt lat="44.31516795606539" lon="10.918273682275613"><ele>281.0</ele><time>2026-03-28T13:43:35Z</time></trkpt><trkpt lat="44.315017674431516" lon="10.918054515479644"><ele>281.0</ele><time>2026-03-28T13:43:36Z</time></trkpt><trkpt lat="44.31488686042325" lon="10.917810642895418"><ele>281.0</ele><time>2026-03-28T13:43:37Z</time></trkpt><trkpt lat="44.314749433243406" lon="10.917588406692126"><ele>280.33333333333337</ele><time>2026-03-28T13:43:38Z</time></trkpt><trkpt lat="44.31464637148944" lon="10.917363339954475"><ele>279.6666666666667</ele><time>2026-03-28T13:43:39Z</time></trkpt><trkpt lat="44.31456913910389" lon="10.917137310331826"><ele>279.0</ele><time>2026-03-28T13:43:40Z</time></trkpt><trkpt lat="44.314502514180255" lon="10.916929879654194"><ele>279.6666666666667</ele><time>2026-03-28T13:43:41Z</time></trkpt><trkpt lat="44.314456328208074" lon="10.916702533496387"><ele>280.33333333333337</ele><time>2026-03-28T13:43:42Z</time></trkpt><trkpt lat="44.3144572460613" lon="10.916480801197961"><ele>281.0</ele><time>2026-03-28T13:43:43Z</time></trkpt><trkpt lat="44.31448785341282" lon="10.91628903191344"><ele>281.0</ele><time>2026-03-28T13:43:44Z</time></trkpt><trkpt lat="44.31453596481357" lon="10.916107774563098"><ele>281.0</ele><time>2026-03-28T13:43:45Z</time></trkpt><trkpt lat="44.31462404881365" lon="10.915927421573887"><ele>281.0</ele><time>2026-03-28T13:43:46Z</time></trkpt><trkpt lat="44.31473704294382" lon="10.915744880810859"><ele>286.0</ele><time>2026-03-28T13:43:47Z</time></trkpt><trkpt lat="44.314827325560294" lon="10.915549323908778"><ele>291.0</ele><time>2026-03-28T13:43:48Z</time></trkpt><trkpt lat="44.31487436561835" lon="10.915327015315262"><ele>296.0</ele><time>2026-03-28T13:43:49Z</time></trkpt><trkpt lat="44.31487505903895" lon="10.915108758922809"><ele>295.25</ele><time>2026-03-28T13:43:50Z</time></trkpt><trkpt lat="44.31486377538308" lon="10.914914926353948"><ele>294.5</ele><time>2026-03-28T13:43:51Z</time></trkpt><trkpt lat="44.3148766144907" lon="10.914735185499696"><ele>293.75</ele><time>2026-03-28T13:43:52Z</time></trkpt><trkpt lat="44.314910405786776" lon="10.914566067814427"><ele>293.0</ele><time>2026-03-28T13:43:53Z</time></trkpt><trkpt lat="44.31494219893138" lon="10.914402262311553"><ele>293.5</ele><time>2026-03-28T13:43:54Z</time></trkpt><trkpt lat="44.31496024238852" lon="10.914228134456929"><ele>294.0</ele><time>2026-03-28T13:43:55Z</time></trkpt><trkpt lat="44.31497359452058" lon="10.914037465028555"><ele>294.5</ele><time>2026-03-28T13:43:56Z</time></trkpt><trkpt lat="44.31497558496322" lon="10.913840031452585"><ele>295.0</ele><time>2026-03-28T13:43:57Z</time></trkpt><trkpt lat="44.314940967788516" lon="10.913644282766354"><ele>295.0</ele><time>2026-03-28T13:43:58Z</time></trkpt><trkpt lat="44.31485207413977" lon="10.913454844432048"><ele>295.0</ele><time>2026-03-28T13:43:59Z</time></trkpt><trkpt lat="44.314733139349414" lon="10.913283409491914"><ele>295.0</ele><time>2026-03-28T13:44:00Z</time></trkpt><trkpt lat="44.314589409810054" lon="10.91313173420266"><ele>293.66666666666663</ele><time>2026-03-28T13:44:01Z</time></trkpt><trkpt lat="44.31444307911751" lon="10.912996846853025"><ele>292.3333333333333</ele><time>2026-03-28T13:44:02Z</time></trkpt><trkpt lat="44.3143004366714" lon="10.912874687226699"><ele>291.0</ele><time>2026-03-28T13:44:03Z</time></trkpt><trkpt lat="44.314177896025875" lon="10.91274877152981"><ele>291.0</ele><time>2026-03-28T13:44:04Z</time></trkpt><trkpt lat="44.314062377297695" lon="10.912605050158685"><ele>291.0</ele><time>2026-03-28T13:44:05Z</time></trkpt><trkpt lat="44.313952847543966" lon="10.912426111521668"><ele>291.0</ele><time>2026-03-28T13:44:06Z</time></trkpt><trkpt lat="44.313846350035206" lon="10.91220832615028"><ele>290.0</ele><time>2026-03-28T13:44:07Z</time></trkpt><trkpt lat="44.313739421612865" lon="10.911981026930915"><ele>289.0</ele><time>2026-03-28T13:44:08Z</time></trkpt><trkpt lat="44.3136260593662" lon="10.911747563517801"><ele>288.0</ele><time>2026-03-28T13:44:09Z</time></trkpt><trkpt lat="44.31351688712528" lon="10.911520229813426"><ele>291.6666666666667</ele><time>2026-03-28T13:44:10Z</time></trkpt><trkpt lat="44.31339663652811" lon="10.911307745282427"><ele>295.33333333333337</ele><time>2026-03-28T13:44:11Z</time></trkpt><trkpt lat="44.31327396477008" lon="10.911142659260623"><ele>299.0</ele><time>2026-03-28T13:44:12Z</time></trkpt><trkpt lat="44.31315285246751" lon="10.910998725012812"><ele>298.5</ele><time>2026-03-28T13:44:13Z</time></trkpt><trkpt lat="44.313048291705925" lon="10.91086540608744"><ele>298.0</ele><time>2026-03-28T13:44:14Z</time></trkpt><trkpt lat="44.31296465854436" lon="10.910734507636693"><ele>297.5</ele><time>2026-03-28T13:44:15Z</time></trkpt><trkpt lat="44.31292190290598" lon="10.91057980611647"><ele>297.0</ele><time>2026-03-28T13:44:16Z</time></trkpt><trkpt lat="44.312893562289936" lon="10.910433228826015"><ele>297.0</ele><time>2026-03-28T13:44:17Z</time></trkpt><trkpt lat="44.31285891920624" lon="10.9103009946158"><ele>297.0</ele><time>2026-03-28T13:44:18Z</time></trkpt><trkpt lat="44.312876328770685" lon="10.910208213819828"><ele>297.0</ele><time>2026-03-28T13:44:19Z</time></trkpt><trkpt lat="44.3129384277946" lon="10.910175279547524"><ele>297.0</ele><time>2026-03-28T13:44:20Z</time></trkpt><trkpt lat="44.313003031124" lon="10.910196754732963"><ele>297.0</ele><time>2026-03-28T13:44:21Z</time></trkpt><trkpt lat="44.31303474746667" lon="10.910299291008911"><ele>297.0</ele><time>2026-03-28T13:44:22Z</time></trkpt><trkpt lat="44.31306377151546" lon="10.91041410802132"><ele>299.0</ele><time>2026-03-28T13:44:23Z</time></trkpt><trkpt lat="44.3131217924631" lon="10.910528763406642"><ele>301.0</ele><time>2026-03-28T13:44:24Z</time></trkpt><trkpt lat="44.31318817091701" lon="10.91062479978953"><ele>303.0</ele><time>2026-03-28T13:44:25Z</time></trkpt><trkpt lat="44.313275156342904" lon="10.910678866448848"><ele>305.0</ele><time>2026-03-28T13:44:26Z</time></trkpt><trkpt lat="44.3133842410026" lon="10.910706292602233"><ele>307.0</ele><time>2026-03-28T13:44:27Z</time></trkpt><trkpt lat="44.313517387797134" lon="10.910753387028588"><ele>307.0</ele><time>2026-03-28T13:44:28Z</time></trkpt><trkpt lat="44.31363496124998" lon="10.910854152351952"><ele>307.0</ele><time>2026-03-28T13:44:29Z</time></trkpt><trkpt lat="44.31373976492771" lon="10.91098864514399"><ele>307.0</ele><time>2026-03-28T13:44:30Z</time></trkpt><trkpt lat="44.31383790345275" lon="10.911120663919363"><ele>307.0</ele><time>2026-03-28T13:44:31Z</time></trkpt><trkpt lat="44.31394288318967" lon="10.9112291026949"><ele>307.75</ele><time>2026-03-28T13:44:32Z</time></trkpt><trkpt lat="44.31406267482115" lon="10.911299275670508"><ele>308.5</ele><time>2026-03-28T13:44:33Z</time></trkpt><trkpt lat="44.31419763002952" lon="10.911332312486095"><ele>309.25</ele><time>2026-03-28T13:44:34Z</time></trkpt><trkpt lat="44.31434369605028" lon="10.911363095752275"><ele>310.0</ele><time>2026-03-28T13:44:35Z</time></trkpt><trkpt lat="44.31447276808846" lon="10.911439030166877"><ele>310.0</ele><time>2026-03-28T13:44:36.001Z</time></trkpt><trkpt lat="44.314600896308974" lon="10.91156682605662"><ele>310.0</ele><time>2026-03-28T13:44:37.001Z</time></trkpt><trkpt lat="44.314739693492655" lon="10.911712595478072"><ele>310.0</ele><time>2026-03-28T13:44:38.001Z</time></trkpt><trkpt lat="44.31489163107115" lon="10.911851290144229"><ele>310.75</ele><time>2026-03-28T13:44:39.001Z</time></trkpt><trkpt lat="44.31503311622989" lon="10.911953186931544"><ele>311.5</ele><time>2026-03-28T13:44:40.001Z</time></trkpt><trkpt lat="44.31515554177867" lon="10.912046265076523"><ele>312.25</ele><time>2026-03-28T13:44:41.001Z</time></trkpt><trkpt lat="44.31526381605518" lon="10.912135880298571"><ele>313.0</ele><time>2026-03-28T13:44:42.001Z</time></trkpt><trkpt lat="44.31538953669085" lon="10.912230369034425"><ele>313.0</ele><time>2026-03-28T13:44:43.001Z</time></trkpt><trkpt lat="44.31553210055616" lon="10.912331021569297"><ele>313.0</ele><time>2026-03-28T13:44:44.001Z</time></trkpt><trkpt lat="44.315693314822475" lon="10.91243264032149"><ele>313.0</ele><time>2026-03-28T13:44:45.001Z</time></trkpt><trkpt lat="44.315885452508454" lon="10.912531926227244"><ele>314.5</ele><time>2026-03-28T13:44:46.001Z</time></trkpt><trkpt lat="44.316107081583404" lon="10.912642810204142"><ele>316.0</ele><time>2026-03-28T13:44:47.001Z</time></trkpt><trkpt lat="44.31633458414547" lon="10.912766223698755"><ele>321.3333333333333</ele><time>2026-03-28T13:44:48.001Z</time></trkpt><trkpt lat="44.31654394718907" lon="10.912876807083702"><ele>326.6666666666667</ele><time>2026-03-28T13:44:49.001Z</time></trkpt><trkpt lat="44.31672308975605" lon="10.912971227728498"><ele>332.0</ele><time>2026-03-28T13:44:50.001Z</time></trkpt><trkpt lat="44.316869662434165" lon="10.913042600256182"><ele>332.0</ele><time>2026-03-28T13:44:51.001Z</time></trkpt><trkpt lat="44.31702818833851" lon="10.913100919601474"><ele>332.0</ele><time>2026-03-28T13:44:52.001Z</time></trkpt><trkpt lat="44.317179576021175" lon="10.91314518639467"><ele>332.0</ele><time>2026-03-28T13:44:53.001Z</time></trkpt><trkpt lat="44.3173199892844" lon="10.913196305458149"><ele>334.0</ele><time>2026-03-28T13:44:54.001Z</time></trkpt><trkpt lat="44.317445288940874" lon="10.91327101958085"><ele>336.0</ele><time>2026-03-28T13:44:55.001Z</time></trkpt><trkpt lat="44.317548656695415" lon="10.913389552367192"><ele>338.0</ele><time>2026-03-28T13:44:56.001Z</time></trkpt><trkpt lat="44.31762770144131" lon="10.91354672782118"><ele>340.0</ele><time>2026-03-28T13:44:57.001Z</time></trkpt><trkpt lat="44.31768435881602" lon="10.913731813552264"><ele>340.0</ele><time>2026-03-28T13:44:58.001Z</time></trkpt><trkpt lat="44.31773816481351" lon="10.91392730947477"><ele>340.0</ele><time>2026-03-28T13:44:59.001Z</time></trkpt><trkpt lat="44.317812290009854" lon="10.914098736828551"><ele>340.0</ele><time>2026-03-28T13:45:00.001Z</time></trkpt><trkpt lat="44.317916973026726" lon="10.914237084135266"><ele>340.0</ele><time>2026-03-28T13:45:01.001Z</time></trkpt><trkpt lat="44.31803415476043" lon="10.914360598851248"><ele>344.3333333333333</ele><time>2026-03-28T13:45:02.001Z</time></trkpt><trkpt lat="44.31816247615964" lon="10.914478575143281"><ele>348.6666666666667</ele><time>2026-03-28T13:45:03.001Z</time></trkpt><trkpt lat="44.318299641026705" lon="10.914605396847689"><ele>353.0</ele><time>2026-03-28T13:45:04.001Z</time></trkpt><trkpt lat="44.31844670190571" lon="10.914710960090419"><ele>353.0</ele><time>2026-03-28T13:45:05.001Z</time></trkpt><trkpt lat="44.318612240282384" lon="10.914778841531218"><ele>353.0</ele><time>2026-03-28T13:45:06.001Z</time></trkpt><trkpt lat="44.318774246308735" lon="10.914846673439781"><ele>353.0</ele><time>2026-03-28T13:45:07.001Z</time></trkpt><trkpt lat="44.3189332539573" lon="10.91492772548991"><ele>354.25</ele><time>2026-03-28T13:45:08.001Z</time></trkpt><trkpt lat="44.31907023800458" lon="10.915018822565537"><ele>355.5</ele><time>2026-03-28T13:45:09.001Z</time></trkpt><trkpt lat="44.31919095464672" lon="10.915128077300311"><ele>356.75</ele><time>2026-03-28T13:45:10.001Z</time></trkpt><trkpt lat="44.319302211349765" lon="10.915230499050079"><ele>358.0</ele><time>2026-03-28T13:45:11.001Z</time></trkpt><trkpt lat="44.319415165799036" lon="10.915277882212438"><ele>358.0</ele><time>2026-03-28T13:45:12.001Z</time></trkpt><trkpt lat="44.31953920296345" lon="10.915281849343856"><ele>358.0</ele><time>2026-03-28T13:45:13.001Z</time></trkpt><trkpt lat="44.31968544036457" lon="10.915255347130504"><ele>358.0</ele><time>2026-03-28T13:45:14.001Z</time></trkpt><trkpt lat="44.31983419793572" lon="10.91521030848699"><ele>358.0</ele><time>2026-03-28T13:45:15.001Z</time></trkpt><trkpt lat="44.31998329447064" lon="10.915159978958632"><ele>359.75</ele><time>2026-03-28T13:45:16.001Z</time></trkpt><trkpt lat="44.32012009024201" lon="10.915104188916802"><ele>361.5</ele><time>2026-03-28T13:45:17.001Z</time></trkpt><trkpt lat="44.320241495795" lon="10.915025391991446"><ele>363.25</ele><time>2026-03-28T13:45:18.001Z</time></trkpt><trkpt lat="44.320363334279826" lon="10.914915595293827"><ele>365.0</ele><time>2026-03-28T13:45:19.001Z</time></trkpt><trkpt lat="44.32046644454157" lon="10.914791499756614"><ele>366.25</ele><time>2026-03-28T13:45:20.001Z</time></trkpt><trkpt lat="44.32055795033704" lon="10.914684950581863"><ele>367.5</ele><time>2026-03-28T13:45:21Z</time></trkpt><trkpt lat="44.320640820195294" lon="10.914568324300467"><ele>368.75</ele><time>2026-03-28T13:45:22Z</time></trkpt><trkpt lat="44.320683247834" lon="10.914427624841435"><ele>370.0</ele><time>2026-03-28T13:45:23Z</time></trkpt><trkpt lat="44.32066883397617" lon="10.914274747951154"><ele>371.5</ele><time>2026-03-28T13:45:24Z</time></trkpt><trkpt lat="44.3206047949451" lon="10.914134004228291"><ele>373.0</ele><time>2026-03-28T13:45:25Z</time></trkpt><trkpt lat="44.32049595350869" lon="10.91405215650235"><ele>374.5</ele><time>2026-03-28T13:45:26Z</time></trkpt><trkpt lat="44.320366476110216" lon="10.914012865695879"><ele>376.0</ele><time>2026-03-28T13:45:27Z</time></trkpt><trkpt lat="44.320212154320714" lon="10.914097489204249"><ele>376.0</ele><time>2026-03-28T13:45:28Z</time></trkpt><trkpt lat="44.32006513811776" lon="10.914184004384134"><ele>376.0</ele><time>2026-03-28T13:45:29Z</time></trkpt><trkpt lat="44.31992104881231" lon="10.914244056971665"><ele>376.0</ele><time>2026-03-28T13:45:30Z</time></trkpt><trkpt lat="44.319785541147525" lon="10.914218693511465"><ele>376.0</ele><time>2026-03-28T13:45:31Z</time></trkpt><trkpt lat="44.31966908760458" lon="10.914168447317198"><ele>374.75</ele><time>2026-03-28T13:45:32Z</time></trkpt><trkpt lat="44.3195959795994" lon="10.914049518811748"><ele>373.5</ele><time>2026-03-28T13:45:33Z</time></trkpt><trkpt lat="44.31957386953489" lon="10.913881039469507"><ele>372.25</ele><time>2026-03-28T13:45:34Z</time></trkpt><trkpt lat="44.31957381405359" lon="10.913686653334363"><ele>371.0</ele><time>2026-03-28T13:45:35Z</time></trkpt><trkpt lat="44.319556494196405" lon="10.913455836371542"><ele>372.33333333333337</ele><time>2026-03-28T13:45:36Z</time></trkpt><trkpt lat="44.31956614070109" lon="10.913203730453612"><ele>373.6666666666667</ele><time>2026-03-28T13:45:37Z</time></trkpt><trkpt lat="44.319563839339935" lon="10.912958174922693"><ele>375.0</ele><time>2026-03-28T13:45:38Z</time></trkpt><trkpt lat="44.3195679189263" lon="10.912753721498543"><ele>375.0</ele><time>2026-03-28T13:45:39Z</time></trkpt><trkpt lat="44.31956068710516" lon="10.912574454322627"><ele>375.0</ele><time>2026-03-28T13:45:40Z</time></trkpt><trkpt lat="44.319517541762345" lon="10.912410815961287"><ele>375.0</ele><time>2026-03-28T13:45:41Z</time></trkpt><trkpt lat="44.319417605047065" lon="10.912263099343255"><ele>375.0</ele><time>2026-03-28T13:45:42Z</time></trkpt><trkpt lat="44.31929042686765" lon="10.912144055431119"><ele>374.0</ele><time>2026-03-28T13:45:43Z</time></trkpt><trkpt lat="44.319131381191276" lon="10.912043066024067"><ele>373.0</ele><time>2026-03-28T13:45:44Z</time></trkpt><trkpt lat="44.31897079095754" lon="10.911953395682213"><ele>372.0</ele><time>2026-03-28T13:45:45Z</time></trkpt><trkpt lat="44.3188399799982" lon="10.911840141582172"><ele>375.25</ele><time>2026-03-28T13:45:46Z</time></trkpt><trkpt lat="44.31872949801849" lon="10.91172495282884"><ele>378.5</ele><time>2026-03-28T13:45:47Z</time></trkpt><trkpt lat="44.31863804699587" lon="10.911599395935303"><ele>381.75</ele><time>2026-03-28T13:45:48Z</time></trkpt><trkpt lat="44.31856799042826" lon="10.9114421903434"><ele>385.0</ele><time>2026-03-28T13:45:49Z</time></trkpt><trkpt lat="44.31851849560321" lon="10.911243187435547"><ele>385.0</ele><time>2026-03-28T13:45:50Z</time></trkpt><trkpt lat="44.31848324915316" lon="10.911028485380047"><ele>385.0</ele><time>2026-03-28T13:45:51Z</time></trkpt><trkpt lat="44.31843105166716" lon="10.910821791503828"><ele>385.0</ele><time>2026-03-28T13:45:52Z</time></trkpt><trkpt lat="44.31835826822825" lon="10.910597443737434"><ele>388.0</ele><time>2026-03-28T13:45:53Z</time></trkpt><trkpt lat="44.31825288440972" lon="10.910371640782424"><ele>391.0</ele><time>2026-03-28T13:45:54Z</time></trkpt><trkpt lat="44.31814545492541" lon="10.910172620346863"><ele>394.0</ele><time>2026-03-28T13:45:55Z</time></trkpt><trkpt lat="44.31804098636452" lon="10.910023260879468"><ele>394.75</ele><time>2026-03-28T13:45:56Z</time></trkpt><trkpt lat="44.31794143865652" lon="10.909906037237878"><ele>395.5</ele><time>2026-03-28T13:45:57Z</time></trkpt><trkpt lat="44.317891151361486" lon="10.909773396045704"><ele>396.25</ele><time>2026-03-28T13:45:58Z</time></trkpt><trkpt lat="44.317875580352535" lon="10.909632930790409"><ele>397.0</ele><time>2026-03-28T13:45:59Z</time></trkpt><trkpt lat="44.317866216091296" lon="10.909454443838792"><ele>397.0</ele><time>2026-03-28T13:46:00Z</time></trkpt><trkpt lat="44.31785398599088" lon="10.90925169611743"><ele>397.0</ele><time>2026-03-28T13:46:01Z</time></trkpt><trkpt lat="44.31780973032111" lon="10.90905554025983"><ele>397.0</ele><time>2026-03-28T13:46:02Z</time></trkpt><trkpt lat="44.31774300839873" lon="10.908901222831808"><ele>397.0</ele><time>2026-03-28T13:46:03Z</time></trkpt><trkpt lat="44.31768017690008" lon="10.908772185712888"><ele>398.0</ele><time>2026-03-28T13:46:04Z</time></trkpt><trkpt lat="44.317650901576116" lon="10.908650200972179"><ele>399.0</ele><time>2026-03-28T13:46:05Z</time></trkpt><trkpt lat="44.317691496536774" lon="10.908546458128368"><ele>400.0</ele><time>2026-03-28T13:46:06Z</time></trkpt><trkpt lat="44.317769887736596" lon="10.908470404923564"><ele>401.0</ele><time>2026-03-28T13:46:07Z</time></trkpt><trkpt lat="44.317880442378645" lon="10.908463111134905"><ele>402.0</ele><time>2026-03-28T13:46:08Z</time></trkpt><trkpt lat="44.31797808327262" lon="10.908538351184166"><ele>402.0</ele><time>2026-03-28T13:46:09Z</time></trkpt><trkpt lat="44.31801637576992" lon="10.908726732636435"><ele>402.0</ele><time>2026-03-28T13:46:10Z</time></trkpt><trkpt lat="44.31807642705683" lon="10.908888769694247"><ele>402.0</ele><time>2026-03-28T13:46:11Z</time></trkpt><trkpt lat="44.318139158582234" lon="10.909090449973009"><ele>402.0</ele><time>2026-03-28T13:46:12Z</time></trkpt><trkpt lat="44.318226974304146" lon="10.909296535944188"><ele>403.0</ele><time>2026-03-28T13:46:13Z</time></trkpt><trkpt lat="44.31832741492331" lon="10.909484589782453"><ele>404.0</ele><time>2026-03-28T13:46:14Z</time></trkpt><trkpt lat="44.31846412879255" lon="10.909666306721839"><ele>405.0</ele><time>2026-03-28T13:46:15Z</time></trkpt><trkpt lat="44.31863194652823" lon="10.9098355165183"><ele>405.0</ele><time>2026-03-28T13:46:16Z</time></trkpt><trkpt lat="44.318793230379285" lon="10.910005839050639"><ele>405.0</ele><time>2026-03-28T13:46:17Z</time></trkpt><trkpt lat="44.31892166796983" lon="10.91016497612049"><ele>405.0</ele><time>2026-03-28T13:46:18Z</time></trkpt><trkpt lat="44.319044871613436" lon="10.910298907431336"><ele>405.5</ele><time>2026-03-28T13:46:19Z</time></trkpt><trkpt lat="44.31916673182947" lon="10.910356208034747"><ele>406.0</ele><time>2026-03-28T13:46:20Z</time></trkpt><trkpt lat="44.31928221880934" lon="10.910377721324274"><ele>406.5</ele><time>2026-03-28T13:46:21Z</time></trkpt><trkpt lat="44.31939260411929" lon="10.91026234707457"><ele>407.0</ele><time>2026-03-28T13:46:22Z</time></trkpt><trkpt lat="44.319475198195704" lon="10.910129518440696"><ele>410.66666666666663</ele><time>2026-03-28T13:46:23Z</time></trkpt><trkpt lat="44.31957904530569" lon="10.90996163472734"><ele>414.33333333333337</ele><time>2026-03-28T13:46:24Z</time></trkpt><trkpt lat="44.31969856271917" lon="10.909801517274007"><ele>418.0</ele><time>2026-03-28T13:46:25Z</time></trkpt><trkpt lat="44.319847800655694" lon="10.909613079779367"><ele>418.0</ele><time>2026-03-28T13:46:26Z</time></trkpt><trkpt lat="44.319983627043996" lon="10.909419308292252"><ele>418.0</ele><time>2026-03-28T13:46:27Z</time></trkpt><trkpt lat="44.32009779795634" lon="10.90925826214366"><ele>418.0</ele><time>2026-03-28T13:46:28Z</time></trkpt><trkpt lat="44.320187494682486" lon="10.909122834572038"><ele>419.79999999999995</ele><time>2026-03-28T13:46:29Z</time></trkpt><trkpt lat="44.320256092057626" lon="10.908996988389957"><ele>421.6</ele><time>2026-03-28T13:46:30Z</time></trkpt><trkpt lat="44.320280184914765" lon="10.908869465346568"><ele>423.40000000000003</ele><time>2026-03-28T13:46:31Z</time></trkpt><trkpt lat="44.32026520551204" lon="10.908739794848497"><ele>425.20000000000005</ele><time>2026-03-28T13:46:32Z</time></trkpt><trkpt lat="44.32019305213712" lon="10.9086206446409"><ele>427.0</ele><time>2026-03-28T13:46:33Z</time></trkpt><trkpt lat="44.32009101545252" lon="10.908536832125412"><ele>427.0</ele><time>2026-03-28T13:46:34Z</time></trkpt><trkpt lat="44.319970380751286" lon="10.908510032217007"><ele>427.0</ele><time>2026-03-28T13:46:35Z</time></trkpt><trkpt lat="44.31985697490491" lon="10.908565315002633"><ele>427.0</ele><time>2026-03-28T13:46:36Z</time></trkpt><trkpt lat="44.31973000768109" lon="10.908688628170989"><ele>427.0</ele><time>2026-03-28T13:46:37Z</time></trkpt><trkpt lat="44.31959760067196" lon="10.908774139691229"><ele>426.75</ele><time>2026-03-28T13:46:38Z</time></trkpt><trkpt lat="44.31946475755795" lon="10.908781048424666"><ele>426.5</ele><time>2026-03-28T13:46:39Z</time></trkpt><trkpt lat="44.31934519124915" lon="10.908759490912928"><ele>426.25</ele><time>2026-03-28T13:46:40Z</time></trkpt><trkpt lat="44.319268224039234" lon="10.908657052857343"><ele>426.0</ele><time>2026-03-28T13:46:41Z</time></trkpt><trkpt lat="44.319234064091866" lon="10.908526541676162"><ele>428.6</ele><time>2026-03-28T13:46:42Z</time></trkpt><trkpt lat="44.319241254597415" lon="10.908378436987775"><ele>431.20000000000005</ele><time>2026-03-28T13:46:43Z</time></trkpt><trkpt lat="44.319313047526705" lon="10.908259569309102"><ele>433.79999999999995</ele><time>2026-03-28T13:46:44Z</time></trkpt><trkpt lat="44.3194131209512" lon="10.908212002693574"><ele>436.4</ele><time>2026-03-28T13:46:45.001Z</time></trkpt><trkpt lat="44.31953387644091" lon="10.908194795769353"><ele>439.0</ele><time>2026-03-28T13:46:46Z</time></trkpt><trkpt lat="44.31967379082808" lon="10.90814980899631"><ele>441.0</ele><time>2026-03-28T13:46:47.001Z</time></trkpt><trkpt lat="44.319841060694735" lon="10.908094768863664"><ele>443.0</ele><time>2026-03-28T13:46:48.001Z</time></trkpt><trkpt lat="44.32000460896109" lon="10.908026443556874"><ele>445.0</ele><time>2026-03-28T13:46:49.001Z</time></trkpt><trkpt lat="44.32013492584109" lon="10.907975935353667"><ele>445.0</ele><time>2026-03-28T13:46:50.001Z</time></trkpt><trkpt lat="44.32024382730647" lon="10.907940373637297"><ele>445.0</ele><time>2026-03-28T13:46:51.001Z</time></trkpt><trkpt lat="44.320343229419386" lon="10.907933597496347"><ele>445.0</ele><time>2026-03-28T13:46:52.001Z</time></trkpt><trkpt lat="44.32043043750202" lon="10.907990413663391"><ele>445.0</ele><time>2026-03-28T13:46:53.001Z</time></trkpt><trkpt lat="44.32048659260952" lon="10.90812661589738"><ele>445.0</ele><time>2026-03-28T13:46:54.001Z</time></trkpt><trkpt lat="44.320572306157715" lon="10.90825253667881"><ele>446.75</ele><time>2026-03-28T13:46:55.001Z</time></trkpt><trkpt lat="44.32065733516788" lon="10.90835928271073"><ele>448.5</ele><time>2026-03-28T13:46:56.001Z</time></trkpt><trkpt lat="44.32076423044227" lon="10.908395883387389"><ele>450.25</ele><time>2026-03-28T13:46:57.001Z</time></trkpt><trkpt lat="44.32088575642446" lon="10.908358327160151"><ele>452.0</ele><time>2026-03-28T13:46:58.001Z</time></trkpt><trkpt lat="44.32101000275901" lon="10.90830260648801"><ele>452.0</ele><time>2026-03-28T13:46:59.001Z</time></trkpt><trkpt lat="44.321137274936184" lon="10.90826681896622"><ele>452.0</ele><time>2026-03-28T13:47:00.001Z</time></trkpt><trkpt lat="44.32126994936804" lon="10.908241549439817"><ele>452.0</ele><time>2026-03-28T13:47:01.001Z</time></trkpt><trkpt lat="44.32140645270448" lon="10.908210558103512"><ele>452.0</ele><time>2026-03-28T13:47:02.001Z</time></trkpt><trkpt lat="44.32154069514432" lon="10.90818711574593"><ele>455.75</ele><time>2026-03-28T13:47:03.001Z</time></trkpt><trkpt lat="44.32166602749024" lon="10.908178206503544"><ele>459.5</ele><time>2026-03-28T13:47:04.001Z</time></trkpt><trkpt lat="44.32178843248156" lon="10.908204191611848"><ele>463.25</ele><time>2026-03-28T13:47:05.001Z</time></trkpt><trkpt lat="44.32189511608479" lon="10.908313930366049"><ele>467.0</ele><time>2026-03-28T13:47:06.001Z</time></trkpt><trkpt lat="44.32201411852498" lon="10.908405969251854"><ele>465.20000000000005</ele><time>2026-03-28T13:47:07.001Z</time></trkpt><trkpt lat="44.32211540170236" lon="10.908515914640281"><ele>463.40000000000003</ele><time>2026-03-28T13:47:08.001Z</time></trkpt><trkpt lat="44.3222104102292" lon="10.9086042993301"><ele>461.59999999999997</ele><time>2026-03-28T13:47:09.001Z</time></trkpt><trkpt lat="44.322300656752525" lon="10.908665901509304"><ele>459.79999999999995</ele><time>2026-03-28T13:47:10.001Z</time></trkpt><trkpt lat="44.32238380348146" lon="10.908705323938891"><ele>458.0</ele><time>2026-03-28T13:47:11.001Z</time></trkpt><trkpt lat="44.322464345211245" lon="10.908732541669591"><ele>458.0</ele><time>2026-03-28T13:47:12.001Z</time></trkpt><trkpt lat="44.322557021218564" lon="10.90875070998982"><ele>457.99999999999994</ele><time>2026-03-28T13:47:13.001Z</time></trkpt><trkpt lat="44.32265323215543" lon="10.908761118306824"><ele>457.99999999999994</ele><time>2026-03-28T13:47:14.001Z</time></trkpt><trkpt lat="44.32274675507783" lon="10.908763616063995"><ele>458.0</ele><time>2026-03-28T13:47:15.001Z</time></trkpt><trkpt lat="44.32285048058465" lon="10.90873718924987"><ele>458.0</ele><time>2026-03-28T13:47:16.001Z</time></trkpt><trkpt lat="44.322968630442624" lon="10.908685200709423"><ele>459.59999999999997</ele><time>2026-03-28T13:47:17.001Z</time></trkpt><trkpt lat="44.3230793090328" lon="10.908645871192991"><ele>461.19999999999993</ele><time>2026-03-28T13:47:18.001Z</time></trkpt><trkpt lat="44.323173819141516" lon="10.908635096965163"><ele>462.8</ele><time>2026-03-28T13:47:19.001Z</time></trkpt><trkpt lat="44.323242004645216" lon="10.908665231132446"><ele>464.4</ele><time>2026-03-28T13:47:20.001Z</time></trkpt><trkpt lat="44.32330435849888" lon="10.908714426865641"><ele>466.0</ele><time>2026-03-28T13:47:21.001Z</time></trkpt><trkpt lat="44.323412375188255" lon="10.908760250733305"><ele>466.00000000000006</ele><time>2026-03-28T13:47:23.001Z</time></trkpt><trkpt lat="44.32348005472064" lon="10.908748567903753"><ele>466.0</ele><time>2026-03-28T13:47:25.001Z</time></trkpt><trkpt lat="44.32357833101337" lon="10.908681963885694"><ele>466.0</ele><time>2026-03-28T13:49:17.001Z</time></trkpt><trkpt lat="44.323643874391834" lon="10.908652566824381"><ele>466.0</ele><time>2026-03-28T13:49:18.001Z</time></trkpt><trkpt lat="44.32372552044042" lon="10.908630713446602"><ele>466.00000000000006</ele><time>2026-03-28T13:49:19.001Z</time></trkpt><trkpt lat="44.323818280333946" lon="10.908630041015952"><ele>466.0</ele><time>2026-03-28T13:49:20.001Z</time></trkpt><trkpt lat="44.32392304686383" lon="10.908651866688418"><ele>468.75</ele><time>2026-03-28T13:49:21.001Z</time></trkpt><trkpt lat="44.32403381585361" lon="10.908686102656093"><ele>471.5</ele><time>2026-03-28T13:49:22.001Z</time></trkpt><trkpt lat="44.32415573854237" lon="10.908723588855073"><ele>474.25</ele><time>2026-03-28T13:49:23.001Z</time></trkpt><trkpt lat="44.32427935307633" lon="10.908785382706892"><ele>477.0</ele><time>2026-03-28T13:49:24.001Z</time></trkpt><trkpt lat="44.32438690843543" lon="10.908861303399819"><ele>477.0</ele><time>2026-03-28T13:49:25.001Z</time></trkpt><trkpt lat="44.32450104825028" lon="10.908977736155846"><ele>477.0</ele><time>2026-03-28T13:49:26.001Z</time></trkpt><trkpt lat="44.3246203714902" lon="10.909103375033986"><ele>477.0</ele><time>2026-03-28T13:49:27.001Z</time></trkpt><trkpt lat="44.32474941674362" lon="10.90923726317782"><ele>480.25</ele><time>2026-03-28T13:49:28.001Z</time></trkpt><trkpt lat="44.32486278981732" lon="10.909342131988776"><ele>483.5</ele><time>2026-03-28T13:49:29.001Z</time></trkpt><trkpt lat="44.32495952748788" lon="10.909475101321313"><ele>486.75</ele><time>2026-03-28T13:49:30.001Z</time></trkpt><trkpt lat="44.32504852902384" lon="10.90965501591509"><ele>490.0</ele><time>2026-03-28T13:49:31.001Z</time></trkpt><trkpt lat="44.32514026756997" lon="10.909851021150148"><ele>490.0</ele><time>2026-03-28T13:49:32.001Z</time></trkpt><trkpt lat="44.32523017600119" lon="10.91003905992498"><ele>490.0</ele><time>2026-03-28T13:49:33Z</time></trkpt><trkpt lat="44.32532756407616" lon="10.91021173675583"><ele>490.0</ele><time>2026-03-28T13:49:34Z</time></trkpt><trkpt lat="44.32543419835729" lon="10.910366390139005"><ele>492.5</ele><time>2026-03-28T13:49:35Z</time></trkpt><trkpt lat="44.325546347033836" lon="10.910507299709165"><ele>495.0</ele><time>2026-03-28T13:49:36Z</time></trkpt><trkpt lat="44.325658478791695" lon="10.910636179161777"><ele>497.5</ele><time>2026-03-28T13:49:37Z</time></trkpt><trkpt lat="44.325762845161975" lon="10.91075221414558"><ele>500.0</ele><time>2026-03-28T13:49:38Z</time></trkpt><trkpt lat="44.325865728232145" lon="10.910845119169151"><ele>496.6</ele><time>2026-03-28T13:49:39Z</time></trkpt><trkpt lat="44.325970134592055" lon="10.9109266462277"><ele>493.2</ele><time>2026-03-28T13:49:40Z</time></trkpt><trkpt lat="44.326066742455836" lon="10.910990572521259"><ele>489.79999999999995</ele><time>2026-03-28T13:49:41Z</time></trkpt><trkpt lat="44.326160876460584" lon="10.91104543721893"><ele>486.4</ele><time>2026-03-28T13:49:42Z</time></trkpt><trkpt lat="44.32624894084063" lon="10.911084569427077"><ele>483.0</ele><time>2026-03-28T13:49:43Z</time></trkpt><trkpt lat="44.32632270906097" lon="10.911099541679203"><ele>483.0</ele><time>2026-03-28T13:49:44Z</time></trkpt><trkpt lat="44.32638334322467" lon="10.911124410977546"><ele>482.99999999999994</ele><time>2026-03-28T13:49:46Z</time></trkpt><trkpt lat="44.32634620509892" lon="10.911281606379614"><ele>482.99999999999994</ele><time>2026-03-28T13:49:49Z</time></trkpt><trkpt lat="44.3263449156795" lon="10.911433998071528"><ele>483.0</ele><time>2026-03-28T13:49:51Z</time></trkpt><trkpt lat="44.32636463057691" lon="10.911574060596102"><ele>483.0</ele><time>2026-03-28T13:49:53Z</time></trkpt><trkpt lat="44.32642001864133" lon="10.911689885181186"><ele>481.59999999999997</ele><time>2026-03-28T13:49:55Z</time></trkpt><trkpt lat="44.32647644987929" lon="10.91178324106679"><ele>480.19999999999993</ele><time>2026-03-28T13:49:57Z</time></trkpt><trkpt lat="44.326458345539" lon="10.911957896291652"><ele>478.8</ele><time>2026-03-28T13:49:59Z</time></trkpt><trkpt lat="44.32643032178105" lon="10.91208142815314"><ele>477.4</ele><time>2026-03-28T13:50:00Z</time></trkpt><trkpt lat="44.3264104906116" lon="10.912229084733054"><ele>476.0</ele><time>2026-03-28T13:50:01Z</time></trkpt><trkpt lat="44.32639483655938" lon="10.912400037117614"><ele>475.75</ele><time>2026-03-28T13:50:02Z</time></trkpt><trkpt lat="44.32638140039387" lon="10.912583944433319"><ele>475.5</ele><time>2026-03-28T13:50:03Z</time></trkpt><trkpt lat="44.326374012783795" lon="10.912760837821658"><ele>475.25</ele><time>2026-03-28T13:50:04Z</time></trkpt><trkpt lat="44.32637043397728" lon="10.912928844015134"><ele>475.0</ele><time>2026-03-28T13:50:05Z</time></trkpt><trkpt lat="44.32636406669622" lon="10.913074425565746"><ele>475.00000000000006</ele><time>2026-03-28T13:50:06Z</time></trkpt><trkpt lat="44.326358321044765" lon="10.913200625220364"><ele>475.0</ele><time>2026-03-28T13:50:07Z</time></trkpt><trkpt lat="44.32634672126599" lon="10.913314639937933"><ele>475.0</ele><time>2026-03-28T13:50:08Z</time></trkpt><trkpt lat="44.326315599690226" lon="10.913436110638015"><ele>475.0</ele><time>2026-03-28T13:50:09Z</time></trkpt><trkpt lat="44.326281537217135" lon="10.913556685899318"><ele>475.00000000000006</ele><time>2026-03-28T13:50:10Z</time></trkpt><trkpt lat="44.32624678263802" lon="10.913672304028646"><ele>475.0</ele><time>2026-03-28T13:50:11Z</time></trkpt><trkpt lat="44.32621571760557" lon="10.913785253471524"><ele>474.6666666666667</ele><time>2026-03-28T13:50:12Z</time></trkpt><trkpt lat="44.326186758004475" lon="10.913895695748828"><ele>474.33333333333337</ele><time>2026-03-28T13:50:13Z</time></trkpt><trkpt lat="44.32615215489635" lon="10.91400250911563"><ele>474.0</ele><time>2026-03-28T13:50:14Z</time></trkpt><trkpt lat="44.326114385817824" lon="10.914106206862169"><ele>473.66666666666663</ele><time>2026-03-28T13:50:15Z</time></trkpt><trkpt lat="44.32607736914246" lon="10.914203285083863"><ele>473.3333333333333</ele><time>2026-03-28T13:50:16Z</time></trkpt><trkpt lat="44.32604125845805" lon="10.914309773493768"><ele>473.0</ele><time>2026-03-28T13:50:17Z</time></trkpt><trkpt lat="44.326002678810134" lon="10.914413290990208"><ele>472.99999999999994</ele><time>2026-03-28T13:50:18Z</time></trkpt><trkpt lat="44.325951964411416" lon="10.91450498118247"><ele>473.0</ele><time>2026-03-28T13:50:19Z</time></trkpt><trkpt lat="44.32592367102597" lon="10.914611715854315"><ele>473.0</ele><time>2026-03-28T13:50:20Z</time></trkpt><trkpt lat="44.32590336872758" lon="10.914715670781451"><ele>473.0</ele><time>2026-03-28T13:50:21Z</time></trkpt><trkpt lat="44.32589876859545" lon="10.914825822188444"><ele>472.99999999999994</ele><time>2026-03-28T13:50:22Z</time></trkpt><trkpt lat="44.325879489838066" lon="10.914923439086703"><ele>473.0</ele><time>2026-03-28T13:50:23Z</time></trkpt><trkpt lat="44.325844540970316" lon="10.91501746612541"><ele>472.16666666666663</ele><time>2026-03-28T13:50:24Z</time></trkpt><trkpt lat="44.325816524702546" lon="10.91510882125713"><ele>471.3333333333333</ele><time>2026-03-28T13:50:25Z</time></trkpt><trkpt lat="44.325763094372924" lon="10.91525655512467"><ele>470.5</ele><time>2026-03-28T13:50:27Z</time></trkpt><trkpt lat="44.32569108638876" lon="10.915394954458794"><ele>469.66666666666663</ele><time>2026-03-28T13:50:29Z</time></trkpt><trkpt lat="44.32565270241539" lon="10.915477876531998"><ele>468.8333333333333</ele><time>2026-03-28T13:50:30Z</time></trkpt><trkpt lat="44.325625454582365" lon="10.915561495790165"><ele>468.0</ele><time>2026-03-28T13:50:31Z</time></trkpt><trkpt lat="44.32560257636515" lon="10.915646923783083"><ele>468.0</ele><time>2026-03-28T13:50:32Z</time></trkpt><trkpt lat="44.32557477173775" lon="10.9157505792217"><ele>468.0</ele><time>2026-03-28T13:50:33Z</time></trkpt><trkpt lat="44.325537630031256" lon="10.915830636133967"><ele>468.0</ele><time>2026-03-28T13:50:34Z</time></trkpt><trkpt lat="44.32550571883981" lon="10.915927323339053"><ele>468.0</ele><time>2026-03-28T13:50:35Z</time></trkpt><trkpt lat="44.3254832085028" lon="10.916034729098115"><ele>468.0</ele><time>2026-03-28T13:50:36Z</time></trkpt><trkpt lat="44.3254463611037" lon="10.916131817996904"><ele>468.0</ele><time>2026-03-28T13:50:37Z</time></trkpt><trkpt lat="44.325414450863384" lon="10.91622344585551"><ele>467.0</ele><time>2026-03-28T13:50:38Z</time></trkpt><trkpt lat="44.32538956918116" lon="10.916322723893188"><ele>465.99999999999994</ele><time>2026-03-28T13:50:39Z</time></trkpt><trkpt lat="44.32537133013934" lon="10.916415034314133"><ele>464.99999999999994</ele><time>2026-03-28T13:50:40Z</time></trkpt><trkpt lat="44.325354087294116" lon="10.916500553952527"><ele>464.0</ele><time>2026-03-28T13:50:41Z</time></trkpt><trkpt lat="44.325329477000444" lon="10.916662340477691"><ele>463.0</ele><time>2026-03-28T13:50:43Z</time></trkpt><trkpt lat="44.32534720809432" lon="10.916837698260684"><ele>463.00000000000006</ele><time>2026-03-28T13:50:45Z</time></trkpt><trkpt lat="44.32537330277653" lon="10.916927535289402"><ele>463.0</ele><time>2026-03-28T13:50:46Z</time></trkpt><trkpt lat="44.32539416693457" lon="10.917021596694502"><ele>463.0</ele><time>2026-03-28T13:50:47Z</time></trkpt><trkpt lat="44.32541583329121" lon="10.917119274718832"><ele>463.0</ele><time>2026-03-28T13:50:48Z</time></trkpt><trkpt lat="44.32545879979958" lon="10.917272523504883"><ele>463.00000000000006</ele><time>2026-03-28T13:50:50Z</time></trkpt><trkpt lat="44.32547547104518" lon="10.917371109609054"><ele>463.0</ele><time>2026-03-28T13:50:52Z</time></trkpt><trkpt lat="44.32554316032332" lon="10.917432219899956"><ele>460.33333333333337</ele><time>2026-03-28T13:50:55Z</time></trkpt><trkpt lat="44.3256193370208" lon="10.917438035976193"><ele>457.6666666666667</ele><time>2026-03-28T13:50:57Z</time></trkpt><trkpt lat="44.325723404570944" lon="10.917399781805292"><ele>455.0</ele><time>2026-03-28T13:50:59Z</time></trkpt><trkpt lat="44.325841337380666" lon="10.917368120468579"><ele>452.33333333333337</ele><time>2026-03-28T13:51:01Z</time></trkpt><trkpt lat="44.32590566387579" lon="10.917355085233304"><ele>449.6666666666667</ele><time>2026-03-28T13:51:02Z</time></trkpt><trkpt lat="44.32597398315137" lon="10.917333851941631"><ele>447.0</ele><time>2026-03-28T13:51:03Z</time></trkpt><trkpt lat="44.32604417436263" lon="10.917312244834179"><ele>447.0</ele><time>2026-03-28T13:51:04Z</time></trkpt><trkpt lat="44.32611275715226" lon="10.917299597612745"><ele>447.00000000000006</ele><time>2026-03-28T13:51:05Z</time></trkpt><trkpt lat="44.326225366239754" lon="10.917273302758767"><ele>447.00000000000006</ele><time>2026-03-28T13:51:07Z</time></trkpt><trkpt lat="44.326324720212966" lon="10.917245447394118"><ele>447.0</ele><time>2026-03-28T13:51:09Z</time></trkpt><trkpt lat="44.32644167764948" lon="10.917175390033975"><ele>447.0</ele><time>2026-03-28T13:51:11.001Z</time></trkpt><trkpt lat="44.32656113429384" lon="10.917127255891437"><ele>444.0</ele><time>2026-03-28T13:51:13.001Z</time></trkpt><trkpt lat="44.32662395386474" lon="10.917106054168478"><ele>441.0</ele><time>2026-03-28T13:51:14.001Z</time></trkpt><trkpt lat="44.32668778566067" lon="10.917093498229743"><ele>438.0</ele><time>2026-03-28T13:51:15.001Z</time></trkpt><trkpt lat="44.326752639693666" lon="10.917084246822585"><ele>435.0</ele><time>2026-03-28T13:51:16.001Z</time></trkpt><trkpt lat="44.32687770442303" lon="10.917110179215072"><ele>432.0</ele><time>2026-03-28T13:51:18.001Z</time></trkpt><trkpt lat="44.3269998133452" lon="10.91715026567424"><ele>429.0</ele><time>2026-03-28T13:51:20.001Z</time></trkpt><trkpt lat="44.32706691572074" lon="10.917164512456973"><ele>429.0</ele><time>2026-03-28T13:51:21.001Z</time></trkpt><trkpt lat="44.32713124625459" lon="10.917172780878593"><ele>429.0</ele><time>2026-03-28T13:51:22.001Z</time></trkpt><trkpt lat="44.3272525844912" lon="10.917193518805117"><ele>429.0</ele><time>2026-03-28T13:51:24.001Z</time></trkpt><trkpt lat="44.327370529485314" lon="10.917202102726005"><ele>429.0</ele><time>2026-03-28T13:51:26.001Z</time></trkpt><trkpt lat="44.327493816862614" lon="10.917206548838601"><ele>429.0</ele><time>2026-03-28T13:51:28.001Z</time></trkpt><trkpt lat="44.32761490580296" lon="10.917209477072479"><ele>426.5</ele><time>2026-03-28T13:51:30.001Z</time></trkpt><trkpt lat="44.32773518807175" lon="10.917219453042751"><ele>424.0</ele><time>2026-03-28T13:51:32.001Z</time></trkpt><trkpt lat="44.32785657370601" lon="10.917225916797898"><ele>421.5</ele><time>2026-03-28T13:51:34.001Z</time></trkpt><trkpt lat="44.32798004007702" lon="10.917216290882134"><ele>419.0</ele><time>2026-03-28T13:51:36.001Z</time></trkpt><trkpt lat="44.328111615224984" lon="10.917215015213479"><ele>418.3333333333333</ele><time>2026-03-28T13:51:38.001Z</time></trkpt><trkpt lat="44.328180651329895" lon="10.917217884967778"><ele>417.66666666666663</ele><time>2026-03-28T13:51:39Z</time></trkpt><trkpt lat="44.328248765785915" lon="10.91722125846353"><ele>417.0</ele><time>2026-03-28T13:51:40Z</time></trkpt><trkpt lat="44.32836785376336" lon="10.917245373953458"><ele>416.33333333333337</ele><time>2026-03-28T13:51:42Z</time></trkpt><trkpt lat="44.328429752983496" lon="10.917269603409986"><ele>415.6666666666667</ele><time>2026-03-28T13:51:43Z</time></trkpt><trkpt lat="44.328492392840445" lon="10.91729530849873"><ele>415.0</ele><time>2026-03-28T13:51:44Z</time></trkpt><trkpt lat="44.32855663368065" lon="10.917323895580102"><ele>415.00000000000006</ele><time>2026-03-28T13:51:45Z</time></trkpt><trkpt lat="44.32862343873508" lon="10.917357166765115"><ele>415.0</ele><time>2026-03-28T13:51:46Z</time></trkpt><trkpt lat="44.328687453688744" lon="10.917394468344707"><ele>415.0</ele><time>2026-03-28T13:51:47Z</time></trkpt><trkpt lat="44.32874318403922" lon="10.91743793814943"><ele>415.0</ele><time>2026-03-28T13:51:48Z</time></trkpt><trkpt lat="44.32883412427444" lon="10.91751905641223"><ele>415.00000000000006</ele><time>2026-03-28T13:51:50Z</time></trkpt><trkpt lat="44.328916447708586" lon="10.917580262081321"><ele>415.0</ele><time>2026-03-28T13:51:52Z</time></trkpt><trkpt lat="44.328992648641126" lon="10.917641167498429"><ele>411.6666666666667</ele><time>2026-03-28T13:51:54Z</time></trkpt><trkpt lat="44.32905675997107" lon="10.917724476696925"><ele>408.33333333333337</ele><time>2026-03-28T13:51:56Z</time></trkpt><trkpt lat="44.32911251275182" lon="10.917809593913582"><ele>405.0</ele><time>2026-03-28T13:51:58Z</time></trkpt><trkpt lat="44.32917161957788" lon="10.917906898929997"><ele>401.66666666666663</ele><time>2026-03-28T13:52:00Z</time></trkpt><trkpt lat="44.329231664673394" lon="10.918003839200153"><ele>398.3333333333333</ele><time>2026-03-28T13:52:02Z</time></trkpt><trkpt lat="44.32927072154439" lon="10.918082612883495"><ele>395.0</ele><time>2026-03-28T13:52:04Z</time></trkpt><trkpt lat="44.329256202036255" lon="10.918179068083107"><ele>394.99999999999994</ele><time>2026-03-28T13:52:07Z</time></trkpt><trkpt lat="44.3292351534656" lon="10.91827220341576"><ele>395.0</ele><time>2026-03-28T13:52:10Z</time></trkpt><trkpt lat="44.32926945987278" lon="10.918196577523132"><ele>395.0</ele><time>2026-03-28T13:53:40.001Z</time></trkpt><trkpt lat="44.32926994296064" lon="10.918089430270856"><ele>395.0</ele><time>2026-03-28T13:53:43.001Z</time></trkpt><trkpt lat="44.32923061957188" lon="10.918019482698035"><ele>394.99999999999994</ele><time>2026-03-28T13:54:20Z</time></trkpt><trkpt lat="44.32918762262488" lon="10.91793678764865"><ele>395.0</ele><time>2026-03-28T13:54:22Z</time></trkpt><trkpt lat="44.329124312547826" lon="10.91779602007809"><ele>395.0</ele><time>2026-03-28T13:54:24Z</time></trkpt><trkpt lat="44.32907120315877" lon="10.91774350416189"><ele>395.0</ele><time>2026-03-28T13:54:26Z</time></trkpt><trkpt lat="44.32917504392155" lon="10.917565034771396"><ele>395.0</ele><time>2026-03-28T13:54:39Z</time></trkpt><trkpt lat="44.329229441476635" lon="10.917492777465533"><ele>395.0</ele><time>2026-03-28T13:54:42Z</time></trkpt><trkpt lat="44.32927320556862" lon="10.917405050733318"><ele>395.0</ele><time>2026-03-28T13:54:45Z</time></trkpt><trkpt lat="44.32932253370523" lon="10.917305640057911"><ele>393.66666666666663</ele><time>2026-03-28T13:54:48Z</time></trkpt><trkpt lat="44.32936987865574" lon="10.917219810804056"><ele>392.3333333333333</ele><time>2026-03-28T13:54:51Z</time></trkpt><trkpt lat="44.32942982031618" lon="10.91714585210048"><ele>391.0</ele><time>2026-03-28T13:54:54Z</time></trkpt><trkpt lat="44.3295022401256" lon="10.917103399504686"><ele>389.66666666666663</ele><time>2026-03-28T13:54:57Z</time></trkpt><trkpt lat="44.32959016285896" lon="10.91710699247622"><ele>388.3333333333333</ele><time>2026-03-28T13:55:00Z</time></trkpt><trkpt lat="44.32967225740067" lon="10.917129347763932"><ele>387.0</ele><time>2026-03-28T13:55:03Z</time></trkpt><trkpt lat="44.329736774452265" lon="10.917146837074837"><ele>387.0</ele><time>2026-03-28T13:55:05Z</time></trkpt><trkpt lat="44.32980869142051" lon="10.91715774717131"><ele>387.0</ele><time>2026-03-28T13:55:07Z</time></trkpt><trkpt lat="44.32987806190581" lon="10.91715829931588"><ele>387.0</ele><time>2026-03-28T13:55:09Z</time></trkpt><trkpt lat="44.32994204900916" lon="10.917155077825477"><ele>387.0</ele><time>2026-03-28T13:55:11Z</time></trkpt><trkpt lat="44.330009962745876" lon="10.917132260217501"><ele>387.0</ele><time>2026-03-28T13:55:13Z</time></trkpt><trkpt lat="44.330074896931905" lon="10.917118686211925"><ele>387.0</ele><time>2026-03-28T13:55:15Z</time></trkpt><trkpt lat="44.33014179010283" lon="10.917108041839763"><ele>387.0</ele><time>2026-03-28T13:55:17Z</time></trkpt><trkpt lat="44.33022431079887" lon="10.917081511469643"><ele>387.0</ele><time>2026-03-28T13:55:20Z</time></trkpt><trkpt lat="44.33029732517349" lon="10.917020780134795"><ele>387.0</ele><time>2026-03-28T13:55:23.001Z</time></trkpt><trkpt lat="44.33038044880611" lon="10.916957043901421"><ele>387.0</ele><time>2026-03-28T13:55:26.001Z</time></trkpt><trkpt lat="44.33043837213415" lon="10.916920749888975"><ele>387.0</ele><time>2026-03-28T13:55:28.001Z</time></trkpt><trkpt lat="44.33051980925802" lon="10.916862466265107"><ele>387.0</ele><time>2026-03-28T13:55:31.001Z</time></trkpt><trkpt lat="44.33059201524604" lon="10.916830698820933"><ele>387.0</ele><time>2026-03-28T13:55:33.001Z</time></trkpt><trkpt lat="44.33064340630859" lon="10.916774411465088"><ele>384.5</ele><time>2026-03-28T13:55:35.001Z</time></trkpt><trkpt lat="44.33069064583049" lon="10.916683350968922"><ele>382.0</ele><time>2026-03-28T13:55:37.001Z</time></trkpt><trkpt lat="44.33073598579277" lon="10.916605587274722"><ele>379.5</ele><time>2026-03-28T13:55:39.001Z</time></trkpt><trkpt lat="44.33079120077386" lon="10.916517309132997"><ele>377.0</ele><time>2026-03-28T13:55:41.001Z</time></trkpt><trkpt lat="44.33085485991731" lon="10.916420877660732"><ele>374.5</ele><time>2026-03-28T13:55:43.001Z</time></trkpt><trkpt lat="44.33090128969292" lon="10.916328247934324"><ele>372.0</ele><time>2026-03-28T13:55:45.001Z</time></trkpt><trkpt lat="44.3309888409989" lon="10.916252228969793"><ele>372.00000000000006</ele><time>2026-03-28T13:55:47.001Z</time></trkpt><trkpt lat="44.3310373506621" lon="10.916191462781487"><ele>372.0</ele><time>2026-03-28T13:55:49.001Z</time></trkpt><trkpt lat="44.331084906051295" lon="10.91612247001107"><ele>372.0</ele><time>2026-03-28T13:55:52Z</time></trkpt><trkpt lat="44.33113471008415" lon="10.916054458636351"><ele>372.0</ele><time>2026-03-28T13:56:01Z</time></trkpt><trkpt lat="44.331163403245185" lon="10.915956927685531"><ele>372.0</ele><time>2026-03-28T13:56:04Z</time></trkpt><trkpt lat="44.331200201578326" lon="10.915884260380757"><ele>372.00000000000006</ele><time>2026-03-28T13:56:07Z</time></trkpt><trkpt lat="44.331240821710786" lon="10.915816310215584"><ele>372.0</ele><time>2026-03-28T13:56:10Z</time></trkpt><trkpt lat="44.331316208313496" lon="10.915721851704877"><ele>371.8</ele><time>2026-03-28T13:56:13Z</time></trkpt><trkpt lat="44.331359004218484" lon="10.915622265270109"><ele>371.6</ele><time>2026-03-28T13:56:15Z</time></trkpt><trkpt lat="44.331409404806394" lon="10.915506113487268"><ele>371.40000000000003</ele><time>2026-03-28T13:56:17Z</time></trkpt><trkpt lat="44.331480885000474" lon="10.915399203163004"><ele>371.20000000000005</ele><time>2026-03-28T13:56:19Z</time></trkpt><trkpt lat="44.331528133709206" lon="10.915297468779928"><ele>371.0</ele><time>2026-03-28T13:56:21Z</time></trkpt><trkpt lat="44.33158859314284" lon="10.915210563382562"><ele>371.0</ele><time>2026-03-28T13:56:23Z</time></trkpt><trkpt lat="44.331660300282984" lon="10.915128507430154"><ele>371.0</ele><time>2026-03-28T13:56:26Z</time></trkpt><trkpt lat="44.33171804477698" lon="10.915066705819497"><ele>371.0</ele><time>2026-03-28T13:56:29Z</time></trkpt><trkpt lat="44.33177545284338" lon="10.91499480029796"><ele>371.0</ele><time>2026-03-28T13:56:32Z</time></trkpt><trkpt lat="44.33184126851023" lon="10.914970942058542"><ele>371.0</ele><time>2026-03-28T13:56:34Z</time></trkpt><trkpt lat="44.331919741219494" lon="10.91499271940932"><ele>371.0</ele><time>2026-03-28T13:56:36Z</time></trkpt><trkpt lat="44.33199037816887" lon="10.915035732059932"><ele>371.0</ele><time>2026-03-28T13:56:38Z</time></trkpt><trkpt lat="44.33205877109528" lon="10.915079295739277"><ele>371.0</ele><time>2026-03-28T13:56:40Z</time></trkpt><trkpt lat="44.33213015558702" lon="10.915110807200714"><ele>371.0</ele><time>2026-03-28T13:56:42Z</time></trkpt><trkpt lat="44.33220078395606" lon="10.915136875402302"><ele>371.0</ele><time>2026-03-28T13:56:44Z</time></trkpt><trkpt lat="44.332277410354315" lon="10.915184044290395"><ele>371.0</ele><time>2026-03-28T13:56:46Z</time></trkpt><trkpt lat="44.33237940932145" lon="10.915253292049508"><ele>371.0</ele><time>2026-03-28T13:56:48Z</time></trkpt><trkpt lat="44.33243425406149" lon="10.915299018514775"><ele>373.20000000000005</ele><time>2026-03-28T13:56:49Z</time></trkpt><trkpt lat="44.332488369196135" lon="10.915352883560502"><ele>375.40000000000003</ele><time>2026-03-28T13:56:50Z</time></trkpt><trkpt lat="44.33256304060116" lon="10.915444335342105"><ele>377.6</ele><time>2026-03-28T13:56:52Z</time></trkpt><trkpt lat="44.332627428100054" lon="10.915538323766407"><ele>379.8</ele><time>2026-03-28T13:56:54Z</time></trkpt><trkpt lat="44.332690066063634" lon="10.915650125774253"><ele>382.0</ele><time>2026-03-28T13:56:56Z</time></trkpt><trkpt lat="44.33276400726901" lon="10.915721706992985"><ele>382.0</ele><time>2026-03-28T13:56:58Z</time></trkpt><trkpt lat="44.3328686230115" lon="10.915754767030872"><ele>382.0</ele><time>2026-03-28T13:57:00Z</time></trkpt><trkpt lat="44.33294507755039" lon="10.915755523406624"><ele>382.0</ele><time>2026-03-28T13:57:02Z</time></trkpt><trkpt lat="44.33300072638472" lon="10.915826443406525"><ele>382.0</ele><time>2026-03-28T13:57:05Z</time></trkpt><trkpt lat="44.33302338170906" lon="10.915920655065342"><ele>382.0</ele><time>2026-03-28T13:57:08Z</time></trkpt><trkpt lat="44.333060536917216" lon="10.916019557781429"><ele>382.0</ele><time>2026-03-28T13:57:11Z</time></trkpt><trkpt lat="44.333095788923835" lon="10.916101355631525"><ele>384.16666666666663</ele><time>2026-03-28T13:57:14Z</time></trkpt><trkpt lat="44.33313730500504" lon="10.916190710661832"><ele>386.3333333333333</ele><time>2026-03-28T13:57:17Z</time></trkpt><trkpt lat="44.33318338576451" lon="10.916257970313064"><ele>388.5</ele><time>2026-03-28T13:57:19.001Z</time></trkpt><trkpt lat="44.33325303040703" lon="10.91632817381118"><ele>390.66666666666663</ele><time>2026-03-28T13:57:21.001Z</time></trkpt><trkpt lat="44.333318179695645" lon="10.916376513908315"><ele>392.8333333333333</ele><time>2026-03-28T13:57:23.001Z</time></trkpt><trkpt lat="44.333386490094355" lon="10.916449473934179"><ele>395.0</ele><time>2026-03-28T13:57:26.001Z</time></trkpt><trkpt lat="44.333463461449355" lon="10.91647814044611"><ele>395.0</ele><time>2026-03-28T13:57:29.001Z</time></trkpt><trkpt lat="44.33352176940476" lon="10.916533549007534"><ele>395.0</ele><time>2026-03-28T13:57:31.001Z</time></trkpt><trkpt lat="44.3335903046453" lon="10.916592643511832"><ele>395.0</ele><time>2026-03-28T13:57:33.001Z</time></trkpt><trkpt lat="44.333641024272886" lon="10.916659205957085"><ele>395.0</ele><time>2026-03-28T13:57:35.001Z</time></trkpt><trkpt lat="44.333703439264006" lon="10.916744416486328"><ele>395.0</ele><time>2026-03-28T13:57:37.001Z</time></trkpt><trkpt lat="44.33374991190149" lon="10.916806640746868"><ele>395.0</ele><time>2026-03-28T13:57:39.001Z</time></trkpt><trkpt lat="44.33380482898399" lon="10.916865072392852"><ele>395.0</ele><time>2026-03-28T13:57:52.001Z</time></trkpt><trkpt lat="44.33388837377839" lon="10.916918805222153"><ele>397.16666666666663</ele><time>2026-03-28T13:57:55.001Z</time></trkpt><trkpt lat="44.333953099153014" lon="10.916960353140373"><ele>399.3333333333333</ele><time>2026-03-28T13:57:57Z</time></trkpt><trkpt lat="44.33401280944429" lon="10.917004226998001"><ele>401.5</ele><time>2026-03-28T13:57:59Z</time></trkpt><trkpt lat="44.33407600829582" lon="10.917061245007156"><ele>403.66666666666663</ele><time>2026-03-28T13:58:01Z</time></trkpt><trkpt lat="44.334128681492935" lon="10.917143477433397"><ele>405.8333333333333</ele><time>2026-03-28T13:58:03Z</time></trkpt><trkpt lat="44.334124102055064" lon="10.917259873518699"><ele>408.0</ele><time>2026-03-28T13:58:05Z</time></trkpt><trkpt lat="44.33417092599909" lon="10.917405820418518"><ele>408.0</ele><time>2026-03-28T13:58:07Z</time></trkpt><trkpt lat="44.33419501107253" lon="10.917520747536393"><ele>408.0</ele><time>2026-03-28T13:58:09Z</time></trkpt><trkpt lat="44.33421761312406" lon="10.917626465607052"><ele>408.0</ele><time>2026-03-28T13:58:11Z</time></trkpt><trkpt lat="44.33426405028377" lon="10.917742882977628"><ele>408.0</ele><time>2026-03-28T13:58:14Z</time></trkpt><trkpt lat="44.33427456911824" lon="10.917835779072671"><ele>408.0</ele><time>2026-03-28T13:58:16Z</time></trkpt><trkpt lat="44.33429245681159" lon="10.917942683747398"><ele>408.0</ele><time>2026-03-28T13:58:18Z</time></trkpt><trkpt lat="44.33430308183246" lon="10.918057421586292"><ele>406.8333333333333</ele><time>2026-03-28T13:58:20Z</time></trkpt><trkpt lat="44.33431565367441" lon="10.918159902917951"><ele>405.66666666666663</ele><time>2026-03-28T13:58:22Z</time></trkpt><trkpt lat="44.33437442210731" lon="10.918264519512523"><ele>404.5</ele><time>2026-03-28T13:58:24Z</time></trkpt><trkpt lat="44.334436544524166" lon="10.918339465208625"><ele>403.3333333333333</ele><time>2026-03-28T13:58:26Z</time></trkpt><trkpt lat="44.33451290814754" lon="10.918369847786137"><ele>402.16666666666663</ele><time>2026-03-28T13:58:28Z</time></trkpt><trkpt lat="44.33459288892396" lon="10.918420584219394"><ele>401.0</ele><time>2026-03-28T13:58:30Z</time></trkpt><trkpt lat="44.334671372824864" lon="10.918446894317833"><ele>399.16666666666663</ele><time>2026-03-28T13:58:32Z</time></trkpt><trkpt lat="44.334734457178556" lon="10.918441568638581"><ele>397.3333333333333</ele><time>2026-03-28T13:58:34Z</time></trkpt><trkpt lat="44.334806271830324" lon="10.91847096726111"><ele>395.5</ele><time>2026-03-28T13:58:36Z</time></trkpt><trkpt lat="44.334878156380235" lon="10.918431838504558"><ele>393.66666666666663</ele><time>2026-03-28T13:58:38Z</time></trkpt><trkpt lat="44.33497774463556" lon="10.918425095192863"><ele>391.8333333333333</ele><time>2026-03-28T13:58:40Z</time></trkpt><trkpt lat="44.33506637856372" lon="10.918419093617349"><ele>390.0</ele><time>2026-03-28T13:58:42Z</time></trkpt><trkpt lat="44.335162546668364" lon="10.918412581886086"><ele>390.0</ele><time>2026-03-28T13:58:44Z</time></trkpt><trkpt lat="44.33521514823804" lon="10.918613985245958"><ele>390.0</ele><time>2026-03-28T13:58:45Z</time></trkpt><trkpt lat="44.3352996638076" lon="10.918635106858282"><ele>390.0</ele><time>2026-03-28T13:58:47Z</time></trkpt><trkpt lat="44.33539668568709" lon="10.918658368589323"><ele>390.0</ele><time>2026-03-28T13:58:49Z</time></trkpt><trkpt lat="44.33549291428098" lon="10.918672424560498"><ele>390.0</ele><time>2026-03-28T13:58:51Z</time></trkpt><trkpt lat="44.33558800683414" lon="10.918686692225894"><ele>391.2</ele><time>2026-03-28T13:58:53Z</time></trkpt><trkpt lat="44.33567493392736" lon="10.918671370035632"><ele>392.4</ele><time>2026-03-28T13:58:55Z</time></trkpt><trkpt lat="44.33577339489994" lon="10.918625340869916"><ele>393.6</ele><time>2026-03-28T13:58:57Z</time></trkpt><trkpt lat="44.33587113041802" lon="10.918600332824846"><ele>394.8</ele><time>2026-03-28T13:58:59Z</time></trkpt><trkpt lat="44.33594582099295" lon="10.918584994343933"><ele>396.0</ele><time>2026-03-28T13:59:01Z</time></trkpt><trkpt lat="44.33603316634601" lon="10.91859897474165"><ele>396.0</ele><time>2026-03-28T13:59:03Z</time></trkpt><trkpt lat="44.336114252295786" lon="10.918640253747643"><ele>396.0</ele><time>2026-03-28T13:59:05Z</time></trkpt><trkpt lat="44.336179253174784" lon="10.91866996781275"><ele>396.0</ele><time>2026-03-28T13:59:08Z</time></trkpt><trkpt lat="44.33621495461977" lon="10.918779470293588"><ele>396.0</ele><time>2026-03-28T13:59:12Z</time></trkpt><trkpt lat="44.33621430702051" lon="10.918899207342122"><ele>396.0</ele><time>2026-03-28T13:59:14Z</time></trkpt><trkpt lat="44.336219823024365" lon="10.918995775221532"><ele>396.0</ele><time>2026-03-28T13:59:16Z</time></trkpt><trkpt lat="44.336235541132126" lon="10.919089735245445"><ele>396.0</ele><time>2026-03-28T13:59:19Z</time></trkpt><trkpt lat="44.336306049847124" lon="10.919152087268257"><ele>396.0</ele><time>2026-03-28T13:59:23Z</time></trkpt><trkpt lat="44.336396383299274" lon="10.919141599501623"><ele>396.0</ele><time>2026-03-28T13:59:26Z</time></trkpt><trkpt lat="44.33648176818702" lon="10.919132937643663"><ele>396.0</ele><time>2026-03-28T13:59:28Z</time></trkpt><trkpt lat="44.33654978125403" lon="10.919152124793507"><ele>396.0</ele><time>2026-03-28T13:59:30Z</time></trkpt><trkpt lat="44.33662555799655" lon="10.91913819978549"><ele>396.0</ele><time>2026-03-28T13:59:33.001Z</time></trkpt><trkpt lat="44.336669430229364" lon="10.919207950634812"><ele>392.3333333333333</ele><time>2026-03-28T13:59:35.001Z</time></trkpt><trkpt lat="44.33667122006576" lon="10.919316772834925"><ele>388.6666666666667</ele><time>2026-03-28T13:59:37.001Z</time></trkpt><trkpt lat="44.33661907970878" lon="10.919406202472729"><ele>385.0</ele><time>2026-03-28T13:59:39.001Z</time></trkpt><trkpt lat="44.33655568715522" lon="10.91950489883962"><ele>381.33333333333337</ele><time>2026-03-28T13:59:41.001Z</time></trkpt><trkpt lat="44.336478536789265" lon="10.919573222278494"><ele>377.6666666666667</ele><time>2026-03-28T13:59:43.001Z</time></trkpt><trkpt lat="44.336395920710125" lon="10.919616762284521"><ele>374.0</ele><time>2026-03-28T13:59:45.001Z</time></trkpt><trkpt lat="44.336312211149036" lon="10.919657195769007"><ele>373.79999999999995</ele><time>2026-03-28T13:59:47.001Z</time></trkpt><trkpt lat="44.33622632793426" lon="10.919685270050826"><ele>373.59999999999997</ele><time>2026-03-28T13:59:49.001Z</time></trkpt><trkpt lat="44.336135629421484" lon="10.919719729052574"><ele>373.4</ele><time>2026-03-28T13:59:51.001Z</time></trkpt><trkpt lat="44.336049405813675" lon="10.919770756125413"><ele>373.2</ele><time>2026-03-28T13:59:53.001Z</time></trkpt><trkpt lat="44.33594749564183" lon="10.919816341822292"><ele>373.0</ele><time>2026-03-28T13:59:55.001Z</time></trkpt><trkpt lat="44.33584019752019" lon="10.91985883772814"><ele>373.0</ele><time>2026-03-28T13:59:57.001Z</time></trkpt><trkpt lat="44.33573160715419" lon="10.919882661330332"><ele>373.0</ele><time>2026-03-28T13:59:59.001Z</time></trkpt><trkpt lat="44.33566669083116" lon="10.919849105552627"><ele>373.0</ele><time>2026-03-28T14:00:00.001Z</time></trkpt><trkpt lat="44.33560226848915" lon="10.91984910554991"><ele>373.0</ele><time>2026-03-28T14:00:01.001Z</time></trkpt><trkpt lat="44.33554117415528" lon="10.919872144966531"><ele>373.0</ele><time>2026-03-28T14:00:02.001Z</time></trkpt><trkpt lat="44.33542140049772" lon="10.919891216890688"><ele>373.0</ele><time>2026-03-28T14:00:03.999Z</time></trkpt><trkpt lat="44.33536018959299" lon="10.919917356071627"><ele>372.0</ele><time>2026-03-28T14:00:04.999Z</time></trkpt><trkpt lat="44.335298848718445" lon="10.919944415436685"><ele>371.0</ele><time>2026-03-28T14:00:05.999Z</time></trkpt><trkpt lat="44.335234893905394" lon="10.919963519843764"><ele>370.0</ele><time>2026-03-28T14:00:06.999Z</time></trkpt><trkpt lat="44.33517067667151" lon="10.91997965004156"><ele>369.0</ele><time>2026-03-28T14:00:07.999Z</time></trkpt><trkpt lat="44.33505739673433" lon="10.920030113251528"><ele>368.0</ele><time>2026-03-28T14:00:09.999Z</time></trkpt><trkpt lat="44.33494155446265" lon="10.920028779035226"><ele>367.0</ele><time>2026-03-28T14:00:12Z</time></trkpt><trkpt lat="44.33485078052675" lon="10.920075534270726"><ele>364.5</ele><time>2026-03-28T14:00:14Z</time></trkpt><trkpt lat="44.334772357271255" lon="10.920092149425987"><ele>362.0</ele><time>2026-03-28T14:00:16Z</time></trkpt><trkpt lat="44.33474708237927" lon="10.9202000499823"><ele>359.5</ele><time>2026-03-28T14:00:18Z</time></trkpt><trkpt lat="44.33477094681136" lon="10.920324711917651"><ele>357.0</ele><time>2026-03-28T14:00:20Z</time></trkpt><trkpt lat="44.33481875482681" lon="10.92047625697904"><ele>354.5</ele><time>2026-03-28T14:00:22Z</time></trkpt><trkpt lat="44.3348546102069" lon="10.920558899482177"><ele>352.0</ele><time>2026-03-28T14:00:23Z</time></trkpt><trkpt lat="44.33488807265064" lon="10.920654846751173"><ele>352.0</ele><time>2026-03-28T14:00:24Z</time></trkpt><trkpt lat="44.334918547394125" lon="10.920764447202641"><ele>352.0</ele><time>2026-03-28T14:00:25Z</time></trkpt><trkpt lat="44.33494804902871" lon="10.920869226349664"><ele>352.0</ele><time>2026-03-28T14:00:26Z</time></trkpt><trkpt lat="44.334981056401546" lon="10.920975976855491"><ele>352.0</ele><time>2026-03-28T14:00:27Z</time></trkpt><trkpt lat="44.33501582966856" lon="10.921083416768312"><ele>352.0</ele><time>2026-03-28T14:00:28Z</time></trkpt><trkpt lat="44.33504314189747" lon="10.921178383051334"><ele>352.0</ele><time>2026-03-28T14:00:29Z</time></trkpt><trkpt lat="44.33507006104396" lon="10.921274150168067"><ele>351.0</ele><time>2026-03-28T14:00:30Z</time></trkpt><trkpt lat="44.33509768124382" lon="10.921363197721668"><ele>350.0</ele><time>2026-03-28T14:00:31Z</time></trkpt><trkpt lat="44.33513928251015" lon="10.921438703078172"><ele>349.0</ele><time>2026-03-28T14:00:32Z</time></trkpt><trkpt lat="44.3351848833169" lon="10.921511054752843"><ele>348.0</ele><time>2026-03-28T14:00:33Z</time></trkpt><trkpt lat="44.335244925390896" lon="10.921578657217918"><ele>347.0</ele><time>2026-03-28T14:00:34Z</time></trkpt><trkpt lat="44.3353146482628" lon="10.921630581119706"><ele>346.0</ele><time>2026-03-28T14:00:35Z</time></trkpt><trkpt lat="44.335388838110376" lon="10.921656980918502"><ele>345.0</ele><time>2026-03-28T14:00:36Z</time></trkpt><trkpt lat="44.33546146103909" lon="10.92166501230733"><ele>345.0</ele><time>2026-03-28T14:00:37Z</time></trkpt><trkpt lat="44.33552460461007" lon="10.921656230312916"><ele>345.0</ele><time>2026-03-28T14:00:38Z</time></trkpt><trkpt lat="44.33559079280993" lon="10.92163920888257"><ele>345.0</ele><time>2026-03-28T14:00:39Z</time></trkpt><trkpt lat="44.335692276453074" lon="10.921619307517565"><ele>345.0</ele><time>2026-03-28T14:00:41Z</time></trkpt><trkpt lat="44.33576777909055" lon="10.921641156865231"><ele>345.0</ele><time>2026-03-28T14:00:43Z</time></trkpt><trkpt lat="44.33581604729854" lon="10.921711285140816"><ele>345.0</ele><time>2026-03-28T14:00:45Z</time></trkpt><trkpt lat="44.3358307131334" lon="10.921808135917065"><ele>342.6666666666667</ele><time>2026-03-28T14:00:47Z</time></trkpt><trkpt lat="44.33581134642253" lon="10.921927791607924"><ele>340.3333333333333</ele><time>2026-03-28T14:00:49Z</time></trkpt><trkpt lat="44.33577932623259" lon="10.922061373718375"><ele>338.0</ele><time>2026-03-28T14:00:51Z</time></trkpt><trkpt lat="44.33575232825508" lon="10.922218400933073"><ele>335.66666666666663</ele><time>2026-03-28T14:00:53Z</time></trkpt><trkpt lat="44.33573360967176" lon="10.922310850830378"><ele>333.3333333333333</ele><time>2026-03-28T14:00:54Z</time></trkpt><trkpt lat="44.33569355312995" lon="10.92238871279952"><ele>331.0</ele><time>2026-03-28T14:00:55Z</time></trkpt><trkpt lat="44.335643280574445" lon="10.922526272717821"><ele>326.8</ele><time>2026-03-28T14:00:57Z</time></trkpt><trkpt lat="44.335595388559234" lon="10.922651583557352"><ele>322.6</ele><time>2026-03-28T14:00:59Z</time></trkpt><trkpt lat="44.33551835373296" lon="10.92271967171831"><ele>318.4</ele><time>2026-03-28T14:01:01Z</time></trkpt><trkpt lat="44.33541895700164" lon="10.922687871317143"><ele>314.2</ele><time>2026-03-28T14:01:03Z</time></trkpt><trkpt lat="44.335303442524385" lon="10.922643461933559"><ele>310.0</ele><time>2026-03-28T14:01:05Z</time></trkpt><trkpt lat="44.33519439458673" lon="10.922600827317716"><ele>309.4</ele><time>2026-03-28T14:01:07Z</time></trkpt><trkpt lat="44.335101118447774" lon="10.922571561445773"><ele>308.8</ele><time>2026-03-28T14:01:09Z</time></trkpt><trkpt lat="44.335025332351094" lon="10.922601781234597"><ele>308.2</ele><time>2026-03-28T14:01:11Z</time></trkpt><trkpt lat="44.3349883064993" lon="10.922710698889615"><ele>307.6</ele><time>2026-03-28T14:01:13Z</time></trkpt><trkpt lat="44.335042435695485" lon="10.922821784408917"><ele>307.0</ele><time>2026-03-28T14:01:15Z</time></trkpt><trkpt lat="44.335128443152946" lon="10.922893397244865"><ele>307.0</ele><time>2026-03-28T14:01:17Z</time></trkpt><trkpt lat="44.335222628907616" lon="10.923007027837208"><ele>307.0</ele><time>2026-03-28T14:01:19Z</time></trkpt><trkpt lat="44.3352581539642" lon="10.9230948783819"><ele>307.0</ele><time>2026-03-28T14:01:20Z</time></trkpt><trkpt lat="44.33528585267403" lon="10.923191478051045"><ele>307.0</ele><time>2026-03-28T14:01:21Z</time></trkpt><trkpt lat="44.33531342795492" lon="10.92329779879121"><ele>307.0</ele><time>2026-03-28T14:01:22Z</time></trkpt><trkpt lat="44.33533963112859" lon="10.923398805689287"><ele>307.0</ele><time>2026-03-28T14:01:23Z</time></trkpt><trkpt lat="44.33537358363389" lon="10.923481129451147"><ele>304.8</ele><time>2026-03-28T14:01:24Z</time></trkpt><trkpt lat="44.33541076860742" lon="10.92355888709106"><ele>302.6</ele><time>2026-03-28T14:01:25Z</time></trkpt><trkpt lat="44.335472746001116" lon="10.923692013863148"><ele>300.40000000000003</ele><time>2026-03-28T14:01:27Z</time></trkpt><trkpt lat="44.33548359968384" lon="10.923809147696245"><ele>298.2</ele><time>2026-03-28T14:01:29.001Z</time></trkpt><trkpt lat="44.33543568021218" lon="10.923928824656631"><ele>296.0</ele><time>2026-03-28T14:01:31.001Z</time></trkpt><trkpt lat="44.335349764443556" lon="10.924017456485915"><ele>296.0</ele><time>2026-03-28T14:01:33.001Z</time></trkpt><trkpt lat="44.33523595742158" lon="10.924045287258153"><ele>296.0</ele><time>2026-03-28T14:01:35.001Z</time></trkpt><trkpt lat="44.33513906801107" lon="10.92406092304415"><ele>296.0</ele><time>2026-03-28T14:01:37.001Z</time></trkpt><trkpt lat="44.33503396805558" lon="10.924013980526473"><ele>296.0</ele><time>2026-03-28T14:01:39.001Z</time></trkpt><trkpt lat="44.334974560335844" lon="10.923973502179205"><ele>296.0</ele><time>2026-03-28T14:01:40.001Z</time></trkpt><trkpt lat="44.33490707515279" lon="10.923916970218324"><ele>296.0</ele><time>2026-03-28T14:01:41.001Z</time></trkpt><trkpt lat="44.334830104726215" lon="10.923854581998155"><ele>296.0</ele><time>2026-03-28T14:01:42.001Z</time></trkpt><trkpt lat="44.334752885112444" lon="10.92379199182753"><ele>296.0</ele><time>2026-03-28T14:01:43.001Z</time></trkpt><trkpt lat="44.334680296901205" lon="10.92373382779078"><ele>296.0</ele><time>2026-03-28T14:01:44.001Z</time></trkpt><trkpt lat="44.33460432281371" lon="10.923676178681765"><ele>296.0</ele><time>2026-03-28T14:01:45.001Z</time></trkpt><trkpt lat="44.33452303513356" lon="10.92362228869547"><ele>296.0</ele><time>2026-03-28T14:01:46.001Z</time></trkpt><trkpt lat="44.334441988385116" lon="10.923582173406922"><ele>294.0</ele><time>2026-03-28T14:01:47.001Z</time></trkpt><trkpt lat="44.33436126940647" lon="10.923600084765722"><ele>292.0</ele><time>2026-03-28T14:01:48.001Z</time></trkpt><trkpt lat="44.334290082301294" lon="10.923583499807167"><ele>290.0</ele><time>2026-03-28T14:01:49.001Z</time></trkpt><trkpt lat="44.33421723672864" lon="10.92357379690862"><ele>288.0</ele><time>2026-03-28T14:01:50.001Z</time></trkpt><trkpt lat="44.334148099761535" lon="10.923570078186259"><ele>286.0</ele><time>2026-03-28T14:01:51.001Z</time></trkpt><trkpt lat="44.3340869364341" lon="10.92351087749037"><ele>284.0</ele><time>2026-03-28T14:01:52.001Z</time></trkpt><trkpt lat="44.333984327888075" lon="10.923521551920583"><ele>284.0</ele><time>2026-03-28T14:01:54.001Z</time></trkpt><trkpt lat="44.33389573628101" lon="10.923587486756622"><ele>284.0</ele><time>2026-03-28T14:01:56.001Z</time></trkpt><trkpt lat="44.33384983577087" lon="10.923719689041995"><ele>284.0</ele><time>2026-03-28T14:01:58.001Z</time></trkpt><trkpt lat="44.33382834967925" lon="10.923830890425421"><ele>284.0</ele><time>2026-03-28T14:02:00.001Z</time></trkpt><trkpt lat="44.3338515874366" lon="10.923961035540449"><ele>284.0</ele><time>2026-03-28T14:02:02.001Z</time></trkpt><trkpt lat="44.33389336510969" lon="10.924099185823797"><ele>284.0</ele><time>2026-03-28T14:02:04.001Z</time></trkpt><trkpt lat="44.33393237141797" lon="10.9241700810831"><ele>284.0</ele><time>2026-03-28T14:02:05.001Z</time></trkpt><trkpt lat="44.33399348086602" lon="10.924296806630043"><ele>284.0</ele><time>2026-03-28T14:02:07.001Z</time></trkpt><trkpt lat="44.334049246036216" lon="10.924397385124237"><ele>284.0</ele><time>2026-03-28T14:02:09Z</time></trkpt><trkpt lat="44.334070545099664" lon="10.924529865224669"><ele>284.0</ele><time>2026-03-28T14:02:11Z</time></trkpt><trkpt lat="44.33399263887187" lon="10.924642635681188"><ele>281.0</ele><time>2026-03-28T14:02:13Z</time></trkpt><trkpt lat="44.33386384736247" lon="10.924684291027162"><ele>278.0</ele><time>2026-03-28T14:02:15Z</time></trkpt><trkpt lat="44.33377531124756" lon="10.924710711762485"><ele>275.0</ele><time>2026-03-28T14:02:16Z</time></trkpt><trkpt lat="44.3337034002839" lon="10.924738552512617"><ele>272.0</ele><time>2026-03-28T14:02:17Z</time></trkpt><trkpt lat="44.33364475787022" lon="10.924792905230625"><ele>269.0</ele><time>2026-03-28T14:02:18Z</time></trkpt><trkpt lat="44.33358231383972" lon="10.924908059685448"><ele>269.0</ele><time>2026-03-28T14:02:20Z</time></trkpt><trkpt lat="44.333615305366926" lon="10.925016191357855"><ele>269.0</ele><time>2026-03-28T14:02:21Z</time></trkpt><trkpt lat="44.33362648264793" lon="10.9251092065058"><ele>269.0</ele><time>2026-03-28T14:02:22Z</time></trkpt><trkpt lat="44.333651891822306" lon="10.925243218617638"><ele>269.0</ele><time>2026-03-28T14:02:23Z</time></trkpt><trkpt lat="44.33368964048484" lon="10.925399325795821"><ele>269.0</ele><time>2026-03-28T14:02:24Z</time></trkpt><trkpt lat="44.33373345165555" lon="10.925560723959087"><ele>268.59999999999997</ele><time>2026-03-28T14:02:25Z</time></trkpt><trkpt lat="44.333769923794975" lon="10.925695808837345"><ele>268.2</ele><time>2026-03-28T14:02:26Z</time></trkpt><trkpt lat="44.33380906634075" lon="10.92581336350464"><ele>267.79999999999995</ele><time>2026-03-28T14:02:27Z</time></trkpt><trkpt lat="44.33385783216654" lon="10.925912768341055"><ele>267.4</ele><time>2026-03-28T14:02:28Z</time></trkpt><trkpt lat="44.33391174995671" lon="10.926000730648282"><ele>267.0</ele><time>2026-03-28T14:02:29Z</time></trkpt><trkpt lat="44.333968895619215" lon="10.926088619174699"><ele>265.1666666666667</ele><time>2026-03-28T14:02:30Z</time></trkpt><trkpt lat="44.334023901382935" lon="10.92618083368702"><ele>263.3333333333333</ele><time>2026-03-28T14:02:31Z</time></trkpt><trkpt lat="44.33407577619198" lon="10.926279564635157"><ele>261.5</ele><time>2026-03-28T14:02:32Z</time></trkpt><trkpt lat="44.33408541920108" lon="10.926382464884906"><ele>259.66666666666663</ele><time>2026-03-28T14:02:33Z</time></trkpt><trkpt lat="44.33407141855144" lon="10.926545761623467"><ele>257.8333333333333</ele><time>2026-03-28T14:02:35Z</time></trkpt><trkpt lat="44.334059142249664" lon="10.926653282473302"><ele>256.0</ele><time>2026-03-28T14:02:36Z</time></trkpt><trkpt lat="44.33404552870517" lon="10.92677450155912"><ele>254.99999999999997</ele><time>2026-03-28T14:02:37Z</time></trkpt><trkpt lat="44.33403087027942" lon="10.926905241157883"><ele>254.0</ele><time>2026-03-28T14:02:38Z</time></trkpt><trkpt lat="44.33403546590729" lon="10.927037066519794"><ele>253.0</ele><time>2026-03-28T14:02:39Z</time></trkpt><trkpt lat="44.33402050083068" lon="10.927157918457558"><ele>252.0</ele><time>2026-03-28T14:02:40Z</time></trkpt><trkpt lat="44.33402010412557" lon="10.927266533360772"><ele>250.99999999999997</ele><time>2026-03-28T14:02:41Z</time></trkpt><trkpt lat="44.334023964290644" lon="10.927375857914207"><ele>250.0</ele><time>2026-03-28T14:02:42Z</time></trkpt><trkpt lat="44.33403152469204" lon="10.927471449492037"><ele>248.99999999999997</ele><time>2026-03-28T14:02:43Z</time></trkpt><trkpt lat="44.333979966315226" lon="10.927595673455794"><ele>248.0</ele><time>2026-03-28T14:02:45Z</time></trkpt><trkpt lat="44.333938397282374" lon="10.927683882564425"><ele>247.0</ele><time>2026-03-28T14:02:47Z</time></trkpt><trkpt lat="44.33390049595754" lon="10.92778730820164"><ele>246.0</ele><time>2026-03-28T14:03:15Z</time></trkpt><trkpt lat="44.333868113249686" lon="10.927874803611905"><ele>244.99999999999997</ele><time>2026-03-28T14:03:17.001Z</time></trkpt><trkpt lat="44.33384922206698" lon="10.927959790497384"><ele>244.0</ele><time>2026-03-28T14:03:19.001Z</time></trkpt><trkpt lat="44.33369586764426" lon="10.927969695373005"><ele>244.0</ele><time>2026-03-28T14:03:21.001Z</time></trkpt><trkpt lat="44.33354617699447" lon="10.927966629007125"><ele>244.0</ele><time>2026-03-28T14:03:22.001Z</time></trkpt><trkpt lat="44.33337055319983" lon="10.927971553973205"><ele>244.0</ele><time>2026-03-28T14:03:23.001Z</time></trkpt><trkpt lat="44.333201281477365" lon="10.927974335537277"><ele>245.0</ele><time>2026-03-28T14:03:24.001Z</time></trkpt><trkpt lat="44.33302659111954" lon="10.927979134812874"><ele>246.0</ele><time>2026-03-28T14:03:25.001Z</time></trkpt><trkpt lat="44.33284388878867" lon="10.928012830783535"><ele>247.0</ele><time>2026-03-28T14:03:26.001Z</time></trkpt><trkpt lat="44.332657125733455" lon="10.928066157192326"><ele>247.0</ele><time>2026-03-28T14:03:27.001Z</time></trkpt><trkpt lat="44.33247364247767" lon="10.928144792991288"><ele>247.0</ele><time>2026-03-28T14:03:28.001Z</time></trkpt><trkpt lat="44.33229542651095" lon="10.92823687358915"><ele>247.0</ele><time>2026-03-28T14:03:29.001Z</time></trkpt><trkpt lat="44.33208867060833" lon="10.928339219357033"><ele>242.5</ele><time>2026-03-28T14:03:30.001Z</time></trkpt><trkpt lat="44.33185350760496" lon="10.92841199096715"><ele>238.0</ele><time>2026-03-28T14:03:31.001Z</time></trkpt><trkpt lat="44.331627735983275" lon="10.928479878892496"><ele>238.0</ele><time>2026-03-28T14:03:32.001Z</time></trkpt><trkpt lat="44.331425088015685" lon="10.928534992508519"><ele>238.0</ele><time>2026-03-28T14:03:33.001Z</time></trkpt><trkpt lat="44.331229799999406" lon="10.928588104451816"><ele>238.0</ele><time>2026-03-28T14:03:34.001Z</time></trkpt><trkpt lat="44.33104597598469" lon="10.928653325070458"><ele>238.33333333333331</ele><time>2026-03-28T14:03:35.001Z</time></trkpt><trkpt lat="44.33085807894944" lon="10.928691822376964"><ele>238.66666666666669</ele><time>2026-03-28T14:03:36.001Z</time></trkpt><trkpt lat="44.330667792779586" lon="10.928686347516901"><ele>239.0</ele><time>2026-03-28T14:03:37.001Z</time></trkpt><trkpt lat="44.33046628502284" lon="10.92866142751039"><ele>239.0</ele><time>2026-03-28T14:03:38.001Z</time></trkpt><trkpt lat="44.33024487467571" lon="10.92859631792516"><ele>239.0</ele><time>2026-03-28T14:03:39.001Z</time></trkpt><trkpt lat="44.33001008622377" lon="10.928508284968247"><ele>239.0</ele><time>2026-03-28T14:03:40.001Z</time></trkpt><trkpt lat="44.3297626861388" lon="10.928400101010752"><ele>239.0</ele><time>2026-03-28T14:03:41.001Z</time></trkpt><trkpt lat="44.32951179646212" lon="10.928306617994354"><ele>241.0</ele><time>2026-03-28T14:03:42.001Z</time></trkpt><trkpt lat="44.3292864429663" lon="10.928199600726268"><ele>243.0</ele><time>2026-03-28T14:03:43.001Z</time></trkpt><trkpt lat="44.32906918381658" lon="10.928103279958462"><ele>242.66666666666669</ele><time>2026-03-28T14:03:44.001Z</time></trkpt><trkpt lat="44.328856724242186" lon="10.928010877516408"><ele>242.33333333333334</ele><time>2026-03-28T14:03:45.001Z</time></trkpt><trkpt lat="44.328645429623116" lon="10.927919661122875"><ele>242.0</ele><time>2026-03-28T14:03:46.001Z</time></trkpt><trkpt lat="44.328419158660886" lon="10.927811155521091"><ele>242.0</ele><time>2026-03-28T14:03:47.001Z</time></trkpt><trkpt lat="44.32818914521775" lon="10.927630003533135"><ele>242.0</ele><time>2026-03-28T14:03:48.001Z</time></trkpt><trkpt lat="44.32793271353059" lon="10.927407176231117"><ele>243.0</ele><time>2026-03-28T14:03:49.001Z</time></trkpt><trkpt lat="44.32764841051153" lon="10.927163356140758"><ele>244.0</ele><time>2026-03-28T14:03:50.001Z</time></trkpt><trkpt lat="44.327346589882794" lon="10.926903153438538"><ele>244.5</ele><time>2026-03-28T14:03:51.001Z</time></trkpt><trkpt lat="44.327042270125" lon="10.926636340882695"><ele>245.0</ele><time>2026-03-28T14:03:52.001Z</time></trkpt><trkpt lat="44.326777121104236" lon="10.926403871295461"><ele>245.0</ele><time>2026-03-28T14:03:53.001Z</time></trkpt><trkpt lat="44.326541547737826" lon="10.92622146776427"><ele>245.0</ele><time>2026-03-28T14:03:54.001Z</time></trkpt><trkpt lat="44.32634666350729" lon="10.926056256221834"><ele>245.33333333333334</ele><time>2026-03-28T14:03:55.001Z</time></trkpt><trkpt lat="44.3261752509667" lon="10.925947990693693"><ele>245.66666666666669</ele><time>2026-03-28T14:03:56.001Z</time></trkpt><trkpt lat="44.3259902711028" lon="10.92589844248701"><ele>246.0</ele><time>2026-03-28T14:03:57.001Z</time></trkpt><trkpt lat="44.32577657938574" lon="10.925942361510408"><ele>246.5</ele><time>2026-03-28T14:03:58.001Z</time></trkpt><trkpt lat="44.32553452023124" lon="10.926014675729267"><ele>247.0</ele><time>2026-03-28T14:03:59.001Z</time></trkpt><trkpt lat="44.32528050860493" lon="10.926089552410998"><ele>247.0</ele><time>2026-03-28T14:04:00.001Z</time></trkpt><trkpt lat="44.32505404760598" lon="10.926121258771815"><ele>247.0</ele><time>2026-03-28T14:04:01.001Z</time></trkpt><trkpt lat="44.32484186829135" lon="10.926122335919425"><ele>247.0</ele><time>2026-03-28T14:04:02.001Z</time></trkpt><trkpt lat="44.32460626774331" lon="10.926048704146792"><ele>247.0</ele><time>2026-03-28T14:04:03.001Z</time></trkpt><trkpt lat="44.324333358210204" lon="10.926006382716219"><ele>247.0</ele><time>2026-03-28T14:04:04.001Z</time></trkpt><trkpt lat="44.3240667835181" lon="10.92595300843531"><ele>247.0</ele><time>2026-03-28T14:04:05.001Z</time></trkpt><trkpt lat="44.32381489036961" lon="10.925939361373862"><ele>247.0</ele><time>2026-03-28T14:04:06.001Z</time></trkpt><trkpt lat="44.3235715666972" lon="10.92597389241628"><ele>247.0</ele><time>2026-03-28T14:04:07.001Z</time></trkpt><trkpt lat="44.32333443852946" lon="10.926018034156783"><ele>247.0</ele><time>2026-03-28T14:04:08.001Z</time></trkpt><trkpt lat="44.32311650714576" lon="10.926067817687109"><ele>246.66666666666666</ele><time>2026-03-28T14:04:09.001Z</time></trkpt><trkpt lat="44.322911593786735" lon="10.926102151721404"><ele>246.33333333333331</ele><time>2026-03-28T14:04:10.001Z</time></trkpt><trkpt lat="44.322684671458546" lon="10.926091035853783"><ele>246.0</ele><time>2026-03-28T14:04:11.001Z</time></trkpt><trkpt lat="44.32244027654476" lon="10.925986182683463"><ele>246.0</ele><time>2026-03-28T14:04:12.001Z</time></trkpt><trkpt lat="44.322192688543346" lon="10.925918819824705"><ele>246.0</ele><time>2026-03-28T14:04:13.001Z</time></trkpt><trkpt lat="44.32197691800079" lon="10.925834917925593"><ele>248.33333333333331</ele><time>2026-03-28T14:04:14.001Z</time></trkpt><trkpt lat="44.32180990306495" lon="10.925713357326764"><ele>250.66666666666666</ele><time>2026-03-28T14:04:15Z</time></trkpt><trkpt lat="44.32163645266999" lon="10.9255473216234"><ele>253.0</ele><time>2026-03-28T14:04:16Z</time></trkpt><trkpt lat="44.321425970444615" lon="10.92535220249841"><ele>251.0</ele><time>2026-03-28T14:04:17Z</time></trkpt><trkpt lat="44.321203995966854" lon="10.925124157872528"><ele>249.0</ele><time>2026-03-28T14:04:18Z</time></trkpt><trkpt lat="44.32099431853911" lon="10.924876939779937"><ele>253.0</ele><time>2026-03-28T14:04:19Z</time></trkpt><trkpt lat="44.320792680274984" lon="10.924630267496498"><ele>257.0</ele><time>2026-03-28T14:04:20Z</time></trkpt><trkpt lat="44.32060361473613" lon="10.924355356387201"><ele>258.0</ele><time>2026-03-28T14:04:21Z</time></trkpt><trkpt lat="44.32040206267394" lon="10.924115802496596"><ele>259.0</ele><time>2026-03-28T14:04:22Z</time></trkpt><trkpt lat="44.32024491222828" lon="10.923876085487136"><ele>259.0</ele><time>2026-03-28T14:04:23Z</time></trkpt><trkpt lat="44.32008588775296" lon="10.92364750873224"><ele>259.0</ele><time>2026-03-28T14:04:24Z</time></trkpt><trkpt lat="44.31992561477442" lon="10.923391158135038"><ele>256.5</ele><time>2026-03-28T14:04:25Z</time></trkpt><trkpt lat="44.31976816019067" lon="10.923123100725212"><ele>254.0</ele><time>2026-03-28T14:04:26Z</time></trkpt><trkpt lat="44.31959671151952" lon="10.922858974078146"><ele>254.0</ele><time>2026-03-28T14:04:27Z</time></trkpt><trkpt lat="44.31945619940873" lon="10.922602558469608"><ele>254.0</ele><time>2026-03-28T14:04:28Z</time></trkpt><trkpt lat="44.31932837348833" lon="10.922379762583601"><ele>254.0</ele><time>2026-03-28T14:04:29Z</time></trkpt><trkpt lat="44.319179444108094" lon="10.922180797137585"><ele>253.66666666666669</ele><time>2026-03-28T14:04:30Z</time></trkpt><trkpt lat="44.31899592378619" lon="10.92202028000879"><ele>253.33333333333331</ele><time>2026-03-28T14:04:31Z</time></trkpt><trkpt lat="44.31879663299029" lon="10.921870815364393"><ele>253.0</ele><time>2026-03-28T14:04:32Z</time></trkpt><trkpt lat="44.31862254461643" lon="10.921663444893559"><ele>260.0</ele><time>2026-03-28T14:04:33Z</time></trkpt><trkpt lat="44.31844075529613" lon="10.921467364704313"><ele>267.0</ele><time>2026-03-28T14:04:34Z</time></trkpt><trkpt lat="44.31828037072341" lon="10.921243823463577"><ele>267.0</ele><time>2026-03-28T14:04:35Z</time></trkpt><trkpt lat="44.31810926327334" lon="10.921022961496071"><ele>267.0</ele><time>2026-03-28T14:04:36Z</time></trkpt><trkpt lat="44.31790990691132" lon="10.920826167199424"><ele>270.0</ele><time>2026-03-28T14:04:37Z</time></trkpt><trkpt lat="44.31767018164614" lon="10.920665807138702"><ele>273.0</ele><time>2026-03-28T14:04:38Z</time></trkpt><trkpt lat="44.317411976384" lon="10.920531297913579"><ele>270.0</ele><time>2026-03-28T14:04:39Z</time></trkpt><trkpt lat="44.317154191634145" lon="10.920395658959105"><ele>267.0</ele><time>2026-03-28T14:04:40Z</time></trkpt><trkpt lat="44.31689567700229" lon="10.920259417445406"><ele>267.0</ele><time>2026-03-28T14:04:41Z</time></trkpt><trkpt lat="44.316661185349325" lon="10.920102422270427"><ele>267.0</ele><time>2026-03-28T14:04:42Z</time></trkpt><trkpt lat="44.31644014301122" lon="10.9199642813479"><ele>272.5</ele><time>2026-03-28T14:04:43Z</time></trkpt><trkpt lat="44.316232699825974" lon="10.919799196775918"><ele>278.0</ele><time>2026-03-28T14:04:44Z</time></trkpt><trkpt lat="44.31605212501557" lon="10.919604820098996"><ele>278.0</ele><time>2026-03-28T14:04:45Z</time></trkpt><trkpt lat="44.31587968059688" lon="10.919363705666019"><ele>278.0</ele><time>2026-03-28T14:04:46Z</time></trkpt><trkpt lat="44.31570945498382" lon="10.919096543252232"><ele>274.5</ele><time>2026-03-28T14:04:47Z</time></trkpt><trkpt lat="44.315526040788036" lon="10.918834667464091"><ele>271.0</ele><time>2026-03-28T14:04:48Z</time></trkpt><trkpt lat="44.31535835408651" lon="10.918572470107863"><ele>274.3333333333333</ele><time>2026-03-28T14:04:49Z</time></trkpt><trkpt lat="44.31520074490247" lon="10.91833156016505"><ele>277.6666666666667</ele><time>2026-03-28T14:04:50Z</time></trkpt><trkpt lat="44.31505408832723" lon="10.91811244844349"><ele>281.0</ele><time>2026-03-28T14:04:51Z</time></trkpt><trkpt lat="44.314923955744206" lon="10.917874665245218"><ele>281.0</ele><time>2026-03-28T14:04:52Z</time></trkpt><trkpt lat="44.31480013886107" lon="10.917651377969989"><ele>281.0</ele><time>2026-03-28T14:04:53Z</time></trkpt><trkpt lat="44.31468199525043" lon="10.917450217182862"><ele>281.0</ele><time>2026-03-28T14:04:54Z</time></trkpt><trkpt lat="44.314593611567624" lon="10.917244079605352"><ele>281.0</ele><time>2026-03-28T14:04:55Z</time></trkpt><trkpt lat="44.31453483552532" lon="10.917035940656902"><ele>281.0</ele><time>2026-03-28T14:04:56Z</time></trkpt><trkpt lat="44.31447989471886" lon="10.91683517656584"><ele>281.0</ele><time>2026-03-28T14:04:57Z</time></trkpt><trkpt lat="44.314460229203235" lon="10.916609761137462"><ele>281.0</ele><time>2026-03-28T14:04:58Z</time></trkpt><trkpt lat="44.314465066092346" lon="10.91639077273731"><ele>281.0</ele><time>2026-03-28T14:04:59Z</time></trkpt><trkpt lat="44.31450908985907" lon="10.916212318552843"><ele>281.0</ele><time>2026-03-28T14:05:00Z</time></trkpt><trkpt lat="44.31456631212888" lon="10.916032822480789"><ele>281.0</ele><time>2026-03-28T14:05:01Z</time></trkpt><trkpt lat="44.31467013994212" lon="10.915852730575615"><ele>286.0</ele><time>2026-03-28T14:05:02Z</time></trkpt><trkpt lat="44.314780448179874" lon="10.915664073618382"><ele>291.0</ele><time>2026-03-28T14:05:03Z</time></trkpt><trkpt lat="44.31484198428469" lon="10.915427886732036"><ele>296.0</ele><time>2026-03-28T14:05:04Z</time></trkpt><trkpt lat="44.314856352248476" lon="10.915201832234297"><ele>295.25</ele><time>2026-03-28T14:05:05Z</time></trkpt><trkpt lat="44.31484359851923" lon="10.91499018147186"><ele>294.5</ele><time>2026-03-28T14:05:06Z</time></trkpt><trkpt lat="44.31480452707907" lon="10.91480662331374"><ele>293.75</ele><time>2026-03-28T14:05:07Z</time></trkpt><trkpt lat="44.31474630385232" lon="10.914608171751244"><ele>293.0</ele><time>2026-03-28T14:05:08Z</time></trkpt><trkpt lat="44.31466231049296" lon="10.914357241359827"><ele>288.0</ele><time>2026-03-28T14:05:09Z</time></trkpt><trkpt lat="44.314546569062536" lon="10.91409069605967"><ele>283.0</ele><time>2026-03-28T14:05:10Z</time></trkpt><trkpt lat="44.314397949231356" lon="10.913846997235185"><ele>283.0</ele><time>2026-03-28T14:05:11Z</time></trkpt><trkpt lat="44.31425064276015" lon="10.91365569783093"><ele>283.0</ele><time>2026-03-28T14:05:12Z</time></trkpt><trkpt lat="44.31408087769241" lon="10.913488498040834"><ele>283.0</ele><time>2026-03-28T14:05:13Z</time></trkpt><trkpt lat="44.31391761299727" lon="10.913317556121987"><ele>280.66666666666663</ele><time>2026-03-28T14:05:14Z</time></trkpt><trkpt lat="44.313797643104856" lon="10.91310278529622"><ele>278.3333333333333</ele><time>2026-03-28T14:05:15Z</time></trkpt><trkpt lat="44.31367520518241" lon="10.912912333936127"><ele>276.0</ele><time>2026-03-28T14:05:16.001Z</time></trkpt><trkpt lat="44.313575741271116" lon="10.912717350297747"><ele>275.5</ele><time>2026-03-28T14:05:17.001Z</time></trkpt><trkpt lat="44.31347051453475" lon="10.91254424874922"><ele>275.0</ele><time>2026-03-28T14:05:18.001Z</time></trkpt><trkpt lat="44.31336266515077" lon="10.912422011009035"><ele>274.5</ele><time>2026-03-28T14:05:19.001Z</time></trkpt><trkpt lat="44.31322180451097" lon="10.912365922220074"><ele>274.0</ele><time>2026-03-28T14:05:20.001Z</time></trkpt><trkpt lat="44.313052690408426" lon="10.912375096542199"><ele>274.0</ele><time>2026-03-28T14:05:21.001Z</time></trkpt><trkpt lat="44.31288419808131" lon="10.912386483051291"><ele>274.0</ele><time>2026-03-28T14:05:22.001Z</time></trkpt><trkpt lat="44.31274123709601" lon="10.912313247426685"><ele>274.0</ele><time>2026-03-28T14:05:23.001Z</time></trkpt><trkpt lat="44.312597005562196" lon="10.912201314384502"><ele>274.0</ele><time>2026-03-28T14:05:24.001Z</time></trkpt><trkpt lat="44.31245599904196" lon="10.91206593008543"><ele>274.0</ele><time>2026-03-28T14:05:25.001Z</time></trkpt><trkpt lat="44.31231196067167" lon="10.911948043948488"><ele>274.0</ele><time>2026-03-28T14:05:26.001Z</time></trkpt><trkpt lat="44.31217367077097" lon="10.911826836968936"><ele>274.75</ele><time>2026-03-28T14:05:27.001Z</time></trkpt><trkpt lat="44.312028935233734" lon="10.91174439091454"><ele>275.5</ele><time>2026-03-28T14:05:28.001Z</time></trkpt><trkpt lat="44.31188382001779" lon="10.911716130197071"><ele>276.25</ele><time>2026-03-28T14:05:29.001Z</time></trkpt><trkpt lat="44.31174470025098" lon="10.911683761794997"><ele>277.0</ele><time>2026-03-28T14:05:30.001Z</time></trkpt><trkpt lat="44.31161409009239" lon="10.911599280314269"><ele>277.0</ele><time>2026-03-28T14:05:31.001Z</time></trkpt><trkpt lat="44.31150555881395" lon="10.911489766597983"><ele>277.0</ele><time>2026-03-28T14:05:32.001Z</time></trkpt><trkpt lat="44.31141076031418" lon="10.911364990439866"><ele>277.0</ele><time>2026-03-28T14:05:33.001Z</time></trkpt><trkpt lat="44.3113392620939" lon="10.911241543293373"><ele>277.0</ele><time>2026-03-28T14:05:34.001Z</time></trkpt><trkpt lat="44.31129507310991" lon="10.911153696833818"><ele>272.3333333333333</ele><time>2026-03-28T14:05:35.001Z</time></trkpt><trkpt lat="44.311087238969776" lon="10.911208464756426"><ele>267.6666666666667</ele><time>2026-03-28T14:05:37.001Z</time></trkpt><trkpt lat="44.310980876419976" lon="10.911271427678837"><ele>263.0</ele><time>2026-03-28T14:05:38.001Z</time></trkpt><trkpt lat="44.31085663950418" lon="10.91135000539018"><ele>263.0</ele><time>2026-03-28T14:05:39.001Z</time></trkpt><trkpt lat="44.310717360009605" lon="10.91142217229929"><ele>263.0</ele><time>2026-03-28T14:05:40.001Z</time></trkpt><trkpt lat="44.31056412888659" lon="10.911499618698256"><ele>263.0</ele><time>2026-03-28T14:05:41.001Z</time></trkpt><trkpt lat="44.31040847055282" lon="10.911565637201162"><ele>264.0</ele><time>2026-03-28T14:05:42.001Z</time></trkpt><trkpt lat="44.31024690775633" lon="10.91155341289246"><ele>265.0</ele><time>2026-03-28T14:05:43.001Z</time></trkpt><trkpt lat="44.310080512163516" lon="10.911512699930041"><ele>266.0</ele><time>2026-03-28T14:05:44.001Z</time></trkpt><trkpt lat="44.309907164163654" lon="10.911424261389538"><ele>266.0</ele><time>2026-03-28T14:05:45.001Z</time></trkpt><trkpt lat="44.309760735762" lon="10.911283269321418"><ele>266.0</ele><time>2026-03-28T14:05:46.001Z</time></trkpt><trkpt lat="44.30965496791195" lon="10.911113212034365"><ele>266.0</ele><time>2026-03-28T14:05:47.001Z</time></trkpt><trkpt lat="44.30957094702861" lon="10.910906799457974"><ele>273.0</ele><time>2026-03-28T14:05:48.001Z</time></trkpt><trkpt lat="44.30950437035497" lon="10.910668369586324"><ele>280.0</ele><time>2026-03-28T14:05:49.001Z</time></trkpt><trkpt lat="44.309460353837146" lon="10.910489074075599"><ele>287.0</ele><time>2026-03-28T14:05:50.001Z</time></trkpt><trkpt lat="44.30937204629527" lon="10.910353880555412"><ele>287.0</ele><time>2026-03-28T14:05:51.001Z</time></trkpt><trkpt lat="44.30925612147257" lon="10.910233020844277"><ele>287.0</ele><time>2026-03-28T14:05:52.001Z</time></trkpt><trkpt lat="44.30910121781436" lon="10.910129589352756"><ele>287.0</ele><time>2026-03-28T14:05:53.001Z</time></trkpt><trkpt lat="44.30892274897245" lon="10.910040599478254"><ele>288.6666666666667</ele><time>2026-03-28T14:05:54.001Z</time></trkpt><trkpt lat="44.308720205034696" lon="10.909948484556322"><ele>290.3333333333333</ele><time>2026-03-28T14:05:55.001Z</time></trkpt><trkpt lat="44.30851713202591" lon="10.90985609774845"><ele>292.0</ele><time>2026-03-28T14:05:56.001Z</time></trkpt><trkpt lat="44.308343485009665" lon="10.909726604156985"><ele>292.0</ele><time>2026-03-28T14:05:57.001Z</time></trkpt><trkpt lat="44.30820665905467" lon="10.90959488331201"><ele>292.0</ele><time>2026-03-28T14:05:58.001Z</time></trkpt><trkpt lat="44.30807208921932" lon="10.909462114155208"><ele>292.0</ele><time>2026-03-28T14:05:59.001Z</time></trkpt><trkpt lat="44.3079240187296" lon="10.909324138757983"><ele>291.0</ele><time>2026-03-28T14:06:00.001Z</time></trkpt><trkpt lat="44.3077854248554" lon="10.90919269088914"><ele>290.0</ele><time>2026-03-28T14:06:01.001Z</time></trkpt><trkpt lat="44.307649648150615" lon="10.909093603889842"><ele>289.0</ele><time>2026-03-28T14:06:02.001Z</time></trkpt><trkpt lat="44.30754159414055" lon="10.909001307116753"><ele>288.0</ele><time>2026-03-28T14:06:03.001Z</time></trkpt><trkpt lat="44.30742623192003" lon="10.90894921807955"><ele>288.0</ele><time>2026-03-28T14:06:04.001Z</time></trkpt><trkpt lat="44.30731251627709" lon="10.908962777621802"><ele>288.0</ele><time>2026-03-28T14:06:05.001Z</time></trkpt><trkpt lat="44.30719941969377" lon="10.909048755436126"><ele>288.0</ele><time>2026-03-28T14:06:06.001Z</time></trkpt><trkpt lat="44.30711304872532" lon="10.909209990828089"><ele>288.0</ele><time>2026-03-28T14:06:07.001Z</time></trkpt><trkpt lat="44.30705579736176" lon="10.909371292431167"><ele>292.5</ele><time>2026-03-28T14:06:08.001Z</time></trkpt><trkpt lat="44.30703801649229" lon="10.909519374103844"><ele>297.0</ele><time>2026-03-28T14:06:09.001Z</time></trkpt><trkpt lat="44.30705267555082" lon="10.909680255297348"><ele>301.5</ele><time>2026-03-28T14:06:10.001Z</time></trkpt><trkpt lat="44.30708466781145" lon="10.909856892597283"><ele>306.0</ele><time>2026-03-28T14:06:11.001Z</time></trkpt><trkpt lat="44.30708796735984" lon="10.910040062558547"><ele>310.5</ele><time>2026-03-28T14:06:12.001Z</time></trkpt><trkpt lat="44.306995549734495" lon="10.91017795807049"><ele>315.0</ele><time>2026-03-28T14:06:13.001Z</time></trkpt><trkpt lat="44.306897846977364" lon="10.910299788837849"><ele>319.5</ele><time>2026-03-28T14:06:14.001Z</time></trkpt><trkpt lat="44.30679187460683" lon="10.910393672372575"><ele>324.0</ele><time>2026-03-28T14:06:15.001Z</time></trkpt><trkpt lat="44.30667678331297" lon="10.910452842113415"><ele>324.0</ele><time>2026-03-28T14:06:16.001Z</time></trkpt><trkpt lat="44.30656860275498" lon="10.910449514962918"><ele>324.0</ele><time>2026-03-28T14:06:17.001Z</time></trkpt><trkpt lat="44.30649144773165" lon="10.91034406447139"><ele>324.0</ele><time>2026-03-28T14:06:18.001Z</time></trkpt><trkpt lat="44.30645158137265" lon="10.910156486624"><ele>324.0</ele><time>2026-03-28T14:06:19.001Z</time></trkpt><trkpt lat="44.30640580158557" lon="10.909986381508878"><ele>325.2</ele><time>2026-03-28T14:06:20.001Z</time></trkpt><trkpt lat="44.3063439598332" lon="10.909846426660899"><ele>326.4</ele><time>2026-03-28T14:06:21Z</time></trkpt><trkpt lat="44.30625371006321" lon="10.909775081527885"><ele>327.6</ele><time>2026-03-28T14:06:22Z</time></trkpt><trkpt lat="44.30614007521084" lon="10.909797041959363"><ele>328.8</ele><time>2026-03-28T14:06:23Z</time></trkpt><trkpt lat="44.306059929689745" lon="10.909896764728517"><ele>330.0</ele><time>2026-03-28T14:06:24Z</time></trkpt><trkpt lat="44.306048374857454" lon="10.910070366839289"><ele>334.25</ele><time>2026-03-28T14:06:25Z</time></trkpt><trkpt lat="44.30608205853969" lon="10.910207465520722"><ele>338.5</ele><time>2026-03-28T14:06:26Z</time></trkpt><trkpt lat="44.30618517053352" lon="10.910344537925157"><ele>342.75</ele><time>2026-03-28T14:06:27Z</time></trkpt><trkpt lat="44.30630452268793" lon="10.910500976867747"><ele>347.0</ele><time>2026-03-28T14:06:28Z</time></trkpt><trkpt lat="44.30640761041143" lon="10.91069978364021"><ele>347.75</ele><time>2026-03-28T14:06:29Z</time></trkpt><trkpt lat="44.30648852001759" lon="10.910863118616074"><ele>348.5</ele><time>2026-03-28T14:06:30Z</time></trkpt><trkpt lat="44.30657732952577" lon="10.910974598345998"><ele>349.25</ele><time>2026-03-28T14:06:31Z</time></trkpt><trkpt lat="44.30670879157761" lon="10.911026590757569"><ele>350.0</ele><time>2026-03-28T14:06:32Z</time></trkpt><trkpt lat="44.30687927339691" lon="10.911042904725159"><ele>350.0</ele><time>2026-03-28T14:06:33Z</time></trkpt><trkpt lat="44.307024615267956" lon="10.911007702880068"><ele>350.0</ele><time>2026-03-28T14:06:34Z</time></trkpt><trkpt lat="44.30713986498738" lon="10.910941328601702"><ele>350.0</ele><time>2026-03-28T14:06:35Z</time></trkpt><trkpt lat="44.307218803885874" lon="10.910859504268261"><ele>350.0</ele><time>2026-03-28T14:06:36Z</time></trkpt><trkpt lat="44.30730098608475" lon="10.910851624219767"><ele>350.0</ele><time>2026-03-28T14:06:37Z</time></trkpt><trkpt lat="44.3073670644133" lon="10.910885097055596"><ele>350.0</ele><time>2026-03-28T14:06:38Z</time></trkpt><trkpt lat="44.307392748762304" lon="10.911007396908971"><ele>350.0</ele><time>2026-03-28T14:06:39Z</time></trkpt><trkpt lat="44.30733984750488" lon="10.911127032601039"><ele>350.0</ele><time>2026-03-28T14:06:40Z</time></trkpt><trkpt lat="44.30725732939936" lon="10.911209699959137"><ele>350.0</ele><time>2026-03-28T14:06:41Z</time></trkpt><trkpt lat="44.30712931397027" lon="10.911186319028774"><ele>350.0</ele><time>2026-03-28T14:06:42Z</time></trkpt><trkpt lat="44.306984287471494" lon="10.911198501088878"><ele>350.0</ele><time>2026-03-28T14:06:43Z</time></trkpt><trkpt lat="44.30682449046517" lon="10.911202919395759"><ele>350.0</ele><time>2026-03-28T14:06:44Z</time></trkpt><trkpt lat="44.306633349482226" lon="10.911232980150093"><ele>350.0</ele><time>2026-03-28T14:06:45Z</time></trkpt><trkpt lat="44.30643207128109" lon="10.911253472975567"><ele>350.0</ele><time>2026-03-28T14:06:46Z</time></trkpt><trkpt lat="44.306246597690134" lon="10.91127583540248"><ele>350.0</ele><time>2026-03-28T14:06:47Z</time></trkpt><trkpt lat="44.30608380989264" lon="10.9112796666336"><ele>349.25</ele><time>2026-03-28T14:06:48Z</time></trkpt><trkpt lat="44.30594351408072" lon="10.91124409356158"><ele>348.5</ele><time>2026-03-28T14:06:49Z</time></trkpt><trkpt lat="44.30582692134043" lon="10.911172837311284"><ele>347.75</ele><time>2026-03-28T14:06:50Z</time></trkpt><trkpt lat="44.305723637330644" lon="10.911062841912045"><ele>347.0</ele><time>2026-03-28T14:06:51Z</time></trkpt><trkpt lat="44.30565080995758" lon="10.910900212175394"><ele>347.0</ele><time>2026-03-28T14:06:52Z</time></trkpt><trkpt lat="44.30560190425074" lon="10.91068490172331"><ele>347.0</ele><time>2026-03-28T14:06:53Z</time></trkpt><trkpt lat="44.305506224556645" lon="10.910469883829746"><ele>347.0</ele><time>2026-03-28T14:06:54Z</time></trkpt><trkpt lat="44.30536390185015" lon="10.910263598802226"><ele>352.6666666666667</ele><time>2026-03-28T14:06:55Z</time></trkpt><trkpt lat="44.30522112991893" lon="10.910055510415633"><ele>358.3333333333333</ele><time>2026-03-28T14:06:56Z</time></trkpt><trkpt lat="44.30507240642484" lon="10.90985637911709"><ele>364.0</ele><time>2026-03-28T14:06:57Z</time></trkpt><trkpt lat="44.30492903389849" lon="10.909652756240693"><ele>364.0</ele><time>2026-03-28T14:06:58Z</time></trkpt><trkpt lat="44.30479745403716" lon="10.909451875937341"><ele>364.0</ele><time>2026-03-28T14:06:59Z</time></trkpt><trkpt lat="44.304704919467135" lon="10.90922869643612"><ele>364.0</ele><time>2026-03-28T14:07:00Z</time></trkpt><trkpt lat="44.30464341664437" lon="10.909012910834365"><ele>366.3333333333333</ele><time>2026-03-28T14:07:01Z</time></trkpt><trkpt lat="44.30456879255739" lon="10.908781511406715"><ele>368.6666666666667</ele><time>2026-03-28T14:07:02Z</time></trkpt><trkpt lat="44.30450447563476" lon="10.908565562301206"><ele>371.0</ele><time>2026-03-28T14:07:03Z</time></trkpt><trkpt lat="44.30442310715642" lon="10.90838084502985"><ele>371.0</ele><time>2026-03-28T14:07:04Z</time></trkpt><trkpt lat="44.30429264709163" lon="10.908234727384064"><ele>371.0</ele><time>2026-03-28T14:07:05Z</time></trkpt><trkpt lat="44.3041311330212" lon="10.90812950101914"><ele>371.0</ele><time>2026-03-28T14:07:06Z</time></trkpt><trkpt lat="44.30395370597845" lon="10.908076063259216"><ele>374.25</ele><time>2026-03-28T14:07:07Z</time></trkpt><trkpt lat="44.30381748805845" lon="10.908000704437637"><ele>377.5</ele><time>2026-03-28T14:07:08Z</time></trkpt><trkpt lat="44.30373528212539" lon="10.907832108813732"><ele>380.75</ele><time>2026-03-28T14:07:09Z</time></trkpt><trkpt lat="44.3037035159486" lon="10.907640021884069"><ele>384.0</ele><time>2026-03-28T14:07:10Z</time></trkpt><trkpt lat="44.303671800064755" lon="10.907428286408221"><ele>384.0</ele><time>2026-03-28T14:07:11Z</time></trkpt><trkpt lat="44.30361333704885" lon="10.90726591411357"><ele>384.0</ele><time>2026-03-28T14:07:12.001Z</time></trkpt><trkpt lat="44.30351253586556" lon="10.90714107850153"><ele>384.0</ele><time>2026-03-28T14:07:13.001Z</time></trkpt><trkpt lat="44.30335028766398" lon="10.907070605547666"><ele>384.0</ele><time>2026-03-28T14:07:14.001Z</time></trkpt><trkpt lat="44.303162322923185" lon="10.907015840593946"><ele>387.0</ele><time>2026-03-28T14:07:15.001Z</time></trkpt><trkpt lat="44.302964215054004" lon="10.90693914847971"><ele>390.0</ele><time>2026-03-28T14:07:16.001Z</time></trkpt><trkpt lat="44.302747889499244" lon="10.906906331922167"><ele>393.0</ele><time>2026-03-28T14:07:17.001Z</time></trkpt><trkpt lat="44.30253369073214" lon="10.906917892813068"><ele>393.0</ele><time>2026-03-28T14:07:18.001Z</time></trkpt><trkpt lat="44.302343189603874" lon="10.90694731765007"><ele>393.0</ele><time>2026-03-28T14:07:19.001Z</time></trkpt><trkpt lat="44.30217714318696" lon="10.90699444672368"><ele>393.0</ele><time>2026-03-28T14:07:20.001Z</time></trkpt><trkpt lat="44.30201856641688" lon="10.907078178119383"><ele>391.75</ele><time>2026-03-28T14:07:21.001Z</time></trkpt><trkpt lat="44.3018741415393" lon="10.90715889308844"><ele>390.5</ele><time>2026-03-28T14:07:22.001Z</time></trkpt><trkpt lat="44.301735822727736" lon="10.907184950508475"><ele>389.25</ele><time>2026-03-28T14:07:23.001Z</time></trkpt><trkpt lat="44.301613918538095" lon="10.907221536995173"><ele>388.0</ele><time>2026-03-28T14:07:24.001Z</time></trkpt><trkpt lat="44.30150577760857" lon="10.907129176636731"><ele>391.2</ele><time>2026-03-28T14:07:25.001Z</time></trkpt><trkpt lat="44.301385959005465" lon="10.90708093134022"><ele>394.4</ele><time>2026-03-28T14:07:26.001Z</time></trkpt><trkpt lat="44.301274270495036" lon="10.90705545415836"><ele>397.59999999999997</ele><time>2026-03-28T14:07:27.001Z</time></trkpt><trkpt lat="44.30119743772583" lon="10.907012178443335"><ele>400.79999999999995</ele><time>2026-03-28T14:07:28.001Z</time></trkpt><trkpt lat="44.30116300241309" lon="10.906929147440424"><ele>404.0</ele><time>2026-03-28T14:07:29.001Z</time></trkpt><trkpt lat="44.3011636104741" lon="10.906788980716938"><ele>406.75</ele><time>2026-03-28T14:07:30.001Z</time></trkpt><trkpt lat="44.30119564062186" lon="10.906618099320749"><ele>409.5</ele><time>2026-03-28T14:07:31.001Z</time></trkpt><trkpt lat="44.301243083238944" lon="10.906430023068696"><ele>412.25</ele><time>2026-03-28T14:07:32.001Z</time></trkpt><trkpt lat="44.30130806582349" lon="10.90622020961898"><ele>415.0</ele><time>2026-03-28T14:07:33.001Z</time></trkpt><trkpt lat="44.30137183943006" lon="10.905983908954681"><ele>402.33333333333337</ele><time>2026-03-28T14:07:34.001Z</time></trkpt><trkpt lat="44.30144078620108" lon="10.905732547274468"><ele>389.6666666666667</ele><time>2026-03-28T14:07:35.001Z</time></trkpt><trkpt lat="44.30150172874755" lon="10.905520166748662"><ele>377.0</ele><time>2026-03-28T14:07:36.001Z</time></trkpt><trkpt lat="44.30154137336479" lon="10.905348657939095"><ele>377.0</ele><time>2026-03-28T14:07:37.001Z</time></trkpt><trkpt lat="44.301551456252035" lon="10.905172781200944"><ele>377.0</ele><time>2026-03-28T14:07:38.001Z</time></trkpt><trkpt lat="44.30150237504204" lon="10.904975707410689"><ele>377.0</ele><time>2026-03-28T14:07:39.001Z</time></trkpt><trkpt lat="44.301414818559465" lon="10.904782982415034"><ele>377.0</ele><time>2026-03-28T14:07:40.001Z</time></trkpt><trkpt lat="44.30139460812358" lon="10.904594020682037"><ele>384.5</ele><time>2026-03-28T14:07:41.001Z</time></trkpt><trkpt lat="44.30135534506843" lon="10.904443736733416"><ele>392.0</ele><time>2026-03-28T14:07:42.001Z</time></trkpt><trkpt lat="44.30129752200617" lon="10.904329847074623"><ele>399.5</ele><time>2026-03-28T14:07:43.001Z</time></trkpt><trkpt lat="44.30117587821834" lon="10.904251067773785"><ele>407.0</ele><time>2026-03-28T14:07:44.001Z</time></trkpt><trkpt lat="44.301006260337914" lon="10.904199451942233"><ele>407.0</ele><time>2026-03-28T14:07:45.001Z</time></trkpt><trkpt lat="44.300847885547476" lon="10.90407717083346"><ele>407.0</ele><time>2026-03-28T14:07:46.001Z</time></trkpt><trkpt lat="44.300744176192346" lon="10.90390922713005"><ele>407.0</ele><time>2026-03-28T14:07:47.001Z</time></trkpt><trkpt lat="44.30063167754986" lon="10.903825878743106"><ele>412.3333333333333</ele><time>2026-03-28T14:07:48.001Z</time></trkpt><trkpt lat="44.30052508396496" lon="10.903750583854634"><ele>417.66666666666663</ele><time>2026-03-28T14:07:49.001Z</time></trkpt><trkpt lat="44.30036632917503" lon="10.903755439292196"><ele>423.0</ele><time>2026-03-28T14:07:50.001Z</time></trkpt><trkpt lat="44.30017638678431" lon="10.903819623535677"><ele>423.0</ele><time>2026-03-28T14:07:51.001Z</time></trkpt><trkpt lat="44.300003666212255" lon="10.903862757826138"><ele>423.0</ele><time>2026-03-28T14:07:52.001Z</time></trkpt><trkpt lat="44.29985736666154" lon="10.903828810022688"><ele>423.0</ele><time>2026-03-28T14:07:53.001Z</time></trkpt><trkpt lat="44.299721845486395" lon="10.903751872747423"><ele>427.0</ele><time>2026-03-28T14:07:54.001Z</time></trkpt><trkpt lat="44.29961139309061" lon="10.903629288890993"><ele>431.0</ele><time>2026-03-28T14:07:55.001Z</time></trkpt><trkpt lat="44.29954017856276" lon="10.903457616309288"><ele>435.0</ele><time>2026-03-28T14:07:56.001Z</time></trkpt><trkpt lat="44.29950207099287" lon="10.903267861862846"><ele>439.0</ele><time>2026-03-28T14:07:57.001Z</time></trkpt><trkpt lat="44.29951336101485" lon="10.903060798778593"><ele>439.0</ele><time>2026-03-28T14:07:58.001Z</time></trkpt><trkpt lat="44.299535266423916" lon="10.902800043701923"><ele>439.0</ele><time>2026-03-28T14:07:59.001Z</time></trkpt><trkpt lat="44.29955368262542" lon="10.902529016003724"><ele>439.0</ele><time>2026-03-28T14:08:00.001Z</time></trkpt><trkpt lat="44.2996004005766" lon="10.902302208372724"><ele>439.25</ele><time>2026-03-28T14:08:01.001Z</time></trkpt><trkpt lat="44.29959552999471" lon="10.902106494551825"><ele>439.5</ele><time>2026-03-28T14:08:02.001Z</time></trkpt><trkpt lat="44.299553804925296" lon="10.901936399538753"><ele>439.75</ele><time>2026-03-28T14:08:03.001Z</time></trkpt><trkpt lat="44.299456085777685" lon="10.901760950431438"><ele>440.0</ele><time>2026-03-28T14:08:04.001Z</time></trkpt><trkpt lat="44.29939713001525" lon="10.901549320880173"><ele>437.5</ele><time>2026-03-28T14:08:05.001Z</time></trkpt><trkpt lat="44.299342752623595" lon="10.901368137051975"><ele>435.0</ele><time>2026-03-28T14:08:06.001Z</time></trkpt><trkpt lat="44.29926551099462" lon="10.901246012655575"><ele>432.5</ele><time>2026-03-28T14:08:07.001Z</time></trkpt><trkpt lat="44.29915253228759" lon="10.901131407888931"><ele>430.0</ele><time>2026-03-28T14:08:08.001Z</time></trkpt><trkpt lat="44.298983097204555" lon="10.901066653444316"><ele>429.33333333333337</ele><time>2026-03-28T14:08:09.001Z</time></trkpt><trkpt lat="44.29877741323711" lon="10.901048582333434"><ele>428.66666666666663</ele><time>2026-03-28T14:08:10.001Z</time></trkpt><trkpt lat="44.298591232256165" lon="10.900967299989999"><ele>428.0</ele><time>2026-03-28T14:08:11.001Z</time></trkpt><trkpt lat="44.29844186230164" lon="10.90088120585323"><ele>428.0</ele><time>2026-03-28T14:08:12.001Z</time></trkpt><trkpt lat="44.298323286182075" lon="10.900765713373465"><ele>428.0</ele><time>2026-03-28T14:08:13.001Z</time></trkpt><trkpt lat="44.298204818675146" lon="10.900709943747326"><ele>428.0</ele><time>2026-03-28T14:08:14.001Z</time></trkpt><trkpt lat="44.298071882552904" lon="10.90068690736273"><ele>428.0</ele><time>2026-03-28T14:08:15.001Z</time></trkpt><trkpt lat="44.29789704582258" lon="10.90076045612954"><ele>430.3333333333333</ele><time>2026-03-28T14:08:16.001Z</time></trkpt><trkpt lat="44.29769997776701" lon="10.900879449061105"><ele>432.66666666666663</ele><time>2026-03-28T14:08:17.001Z</time></trkpt><trkpt lat="44.29750664972276" lon="10.900961043298773"><ele>435.0</ele><time>2026-03-28T14:08:18.001Z</time></trkpt><trkpt lat="44.29733796111292" lon="10.901027024368252"><ele>441.5</ele><time>2026-03-28T14:08:19.001Z</time></trkpt><trkpt lat="44.297191632460645" lon="10.90105539163806"><ele>448.0</ele><time>2026-03-28T14:08:20.001Z</time></trkpt><trkpt lat="44.2970556742385" lon="10.901063266097921"><ele>454.5</ele><time>2026-03-28T14:08:21.001Z</time></trkpt><trkpt lat="44.296917493032176" lon="10.90102788176143"><ele>461.0</ele><time>2026-03-28T14:08:22.001Z</time></trkpt><trkpt lat="44.29675677097437" lon="10.900940024196482"><ele>457.66666666666663</ele><time>2026-03-28T14:08:23.001Z</time></trkpt><trkpt lat="44.296574564409894" lon="10.900830023489439"><ele>454.33333333333337</ele><time>2026-03-28T14:08:24.001Z</time></trkpt><trkpt lat="44.29638172147116" lon="10.900723577825158"><ele>451.0</ele><time>2026-03-28T14:08:25.001Z</time></trkpt><trkpt lat="44.296179700082824" lon="10.900592441373421"><ele>451.0</ele><time>2026-03-28T14:08:26.001Z</time></trkpt><trkpt lat="44.29598768911076" lon="10.900385700684966"><ele>451.0</ele><time>2026-03-28T14:08:27Z</time></trkpt><trkpt lat="44.29576960000528" lon="10.900166000389968"><ele>456.0</ele><time>2026-03-28T14:08:28Z</time></trkpt><trkpt lat="44.29556403601509" lon="10.899979478833673"><ele>461.0</ele><time>2026-03-28T14:08:29Z</time></trkpt><trkpt lat="44.295400158639566" lon="10.899810264999266"><ele>466.0</ele><time>2026-03-28T14:08:30Z</time></trkpt><trkpt lat="44.295278382609474" lon="10.899623586334938"><ele>466.0</ele><time>2026-03-28T14:08:31Z</time></trkpt><trkpt lat="44.29520420562628" lon="10.899415796907201"><ele>466.0</ele><time>2026-03-28T14:08:32Z</time></trkpt><trkpt lat="44.29515160386431" lon="10.89916961387922"><ele>466.0</ele><time>2026-03-28T14:08:33Z</time></trkpt><trkpt lat="44.29507743984309" lon="10.898897403843423"><ele>461.0</ele><time>2026-03-28T14:08:34Z</time></trkpt><trkpt lat="44.29499409412513" lon="10.898601975120707"><ele>456.0</ele><time>2026-03-28T14:08:35Z</time></trkpt><trkpt lat="44.29486315421883" lon="10.898321018377784"><ele>473.5</ele><time>2026-03-28T14:08:36Z</time></trkpt><trkpt lat="44.294690407108895" lon="10.898053955985747"><ele>491.0</ele><time>2026-03-28T14:08:37Z</time></trkpt><trkpt lat="44.29455138695211" lon="10.89778222168903"><ele>484.66666666666663</ele><time>2026-03-28T14:08:38Z</time></trkpt><trkpt lat="44.29447714306655" lon="10.897526498592208"><ele>478.33333333333337</ele><time>2026-03-28T14:08:39Z</time></trkpt><trkpt lat="44.29441896683423" lon="10.897283774825707"><ele>472.0</ele><time>2026-03-28T14:08:40Z</time></trkpt><trkpt lat="44.294366623263016" lon="10.897071983088107"><ele>472.0</ele><time>2026-03-28T14:08:41Z</time></trkpt><trkpt lat="44.29431857764346" lon="10.896899330858098"><ele>472.0</ele><time>2026-03-28T14:08:42Z</time></trkpt><trkpt lat="44.29426834918512" lon="10.896776202600515"><ele>472.0</ele><time>2026-03-28T14:08:43Z</time></trkpt><trkpt lat="44.294168741853504" lon="10.896688957079128"><ele>472.0</ele><time>2026-03-28T14:08:44Z</time></trkpt><trkpt lat="44.29403597850098" lon="10.896669015403651"><ele>466.40000000000003</ele><time>2026-03-28T14:08:45Z</time></trkpt><trkpt lat="44.293925186086476" lon="10.896710881375006"><ele>460.80000000000007</ele><time>2026-03-28T14:08:46Z</time></trkpt><trkpt lat="44.29387509212599" lon="10.89676918994708"><ele>455.2</ele><time>2026-03-28T14:08:47Z</time></trkpt><trkpt lat="44.29379490092061" lon="10.896883226825162"><ele>449.6</ele><time>2026-03-28T14:09:57.001Z</time></trkpt><trkpt lat="44.29372609576507" lon="10.896966594595256"><ele>444.0</ele><time>2026-03-28T14:09:58.001Z</time></trkpt><trkpt lat="44.29361320634802" lon="10.896983200499072"><ele>450.25</ele><time>2026-03-28T14:09:59.001Z</time></trkpt><trkpt lat="44.29349045416386" lon="10.89689416148524"><ele>456.5</ele><time>2026-03-28T14:10:00.001Z</time></trkpt><trkpt lat="44.293349125748996" lon="10.896822359028828"><ele>462.75</ele><time>2026-03-28T14:10:01.001Z</time></trkpt><trkpt lat="44.29323905641479" lon="10.896725291597404"><ele>469.0</ele><time>2026-03-28T14:10:02.001Z</time></trkpt><trkpt lat="44.29314532982458" lon="10.896595022088169"><ele>473.6</ele><time>2026-03-28T14:10:03.001Z</time></trkpt><trkpt lat="44.29306864482953" lon="10.896459978718623"><ele>478.2</ele><time>2026-03-28T14:10:04.001Z</time></trkpt><trkpt lat="44.29301800262721" lon="10.896324663138781"><ele>482.80000000000007</ele><time>2026-03-28T14:10:05.001Z</time></trkpt><trkpt lat="44.2929647430312" lon="10.896211493911231"><ele>487.40000000000003</ele><time>2026-03-28T14:10:06.001Z</time></trkpt><trkpt lat="44.292877960734614" lon="10.896123482446518"><ele>492.0</ele><time>2026-03-28T14:10:07.001Z</time></trkpt><trkpt lat="44.29277209026643" lon="10.896072094216764"><ele>492.0</ele><time>2026-03-28T14:10:08.001Z</time></trkpt><trkpt lat="44.29265575858005" lon="10.896093867439905"><ele>492.0</ele><time>2026-03-28T14:10:09.001Z</time></trkpt><trkpt lat="44.292503551910045" lon="10.896154712688295"><ele>492.0</ele><time>2026-03-28T14:10:10.001Z</time></trkpt><trkpt lat="44.29232829284352" lon="10.896148451090752"><ele>494.33333333333337</ele><time>2026-03-28T14:10:11.001Z</time></trkpt><trkpt lat="44.292117320614416" lon="10.896126273018957"><ele>496.6666666666667</ele><time>2026-03-28T14:10:12.001Z</time></trkpt><trkpt lat="44.291897786380886" lon="10.896095827982732"><ele>499.0</ele><time>2026-03-28T14:10:13.001Z</time></trkpt><trkpt lat="44.291702723071076" lon="10.896050605855912"><ele>499.0</ele><time>2026-03-28T14:10:14.001Z</time></trkpt><trkpt lat="44.29150518963713" lon="10.896064000024236"><ele>499.0</ele><time>2026-03-28T14:10:15.001Z</time></trkpt><trkpt lat="44.29132301894319" lon="10.896140029949258"><ele>499.0</ele><time>2026-03-28T14:10:16.001Z</time></trkpt><trkpt lat="44.29116144673211" lon="10.896187095751433"><ele>502.33333333333337</ele><time>2026-03-28T14:10:17.001Z</time></trkpt><trkpt lat="44.291016742388074" lon="10.896179865871812"><ele>505.66666666666663</ele><time>2026-03-28T14:10:18.001Z</time></trkpt><trkpt lat="44.29086772851111" lon="10.896097073522487"><ele>509.0</ele><time>2026-03-28T14:10:19.001Z</time></trkpt><trkpt lat="44.2906746109714" lon="10.896012293592602"><ele>502.66666666666663</ele><time>2026-03-28T14:10:20.001Z</time></trkpt><trkpt lat="44.29046924948283" lon="10.895918862599753"><ele>496.33333333333337</ele><time>2026-03-28T14:10:21.001Z</time></trkpt><trkpt lat="44.290259339604034" lon="10.895870391055295"><ele>490.0</ele><time>2026-03-28T14:10:22.001Z</time></trkpt><trkpt lat="44.290050917563605" lon="10.895878801927514"><ele>494.33333333333337</ele><time>2026-03-28T14:10:23.001Z</time></trkpt><trkpt lat="44.28983252976289" lon="10.89595427524411"><ele>498.66666666666663</ele><time>2026-03-28T14:10:24.001Z</time></trkpt><trkpt lat="44.28962175596241" lon="10.89605517463854"><ele>503.0</ele><time>2026-03-28T14:10:25.001Z</time></trkpt><trkpt lat="44.28940170919619" lon="10.896215972124008"><ele>503.0</ele><time>2026-03-28T14:10:26.001Z</time></trkpt><trkpt lat="44.289181902168835" lon="10.896400911169549"><ele>503.0</ele><time>2026-03-28T14:10:27.001Z</time></trkpt><trkpt lat="44.28900229364967" lon="10.896569044509173"><ele>499.0</ele><time>2026-03-28T14:10:28.001Z</time></trkpt><trkpt lat="44.28883112760538" lon="10.896674503708452"><ele>495.0</ele><time>2026-03-28T14:10:29.001Z</time></trkpt><trkpt lat="44.28866203026934" lon="10.896744039517667"><ele>491.0</ele><time>2026-03-28T14:10:30.001Z</time></trkpt><trkpt lat="44.288464189317814" lon="10.896841960056229"><ele>488.0</ele><time>2026-03-28T14:10:31.001Z</time></trkpt><trkpt lat="44.28827321273609" lon="10.896903986985622"><ele>485.0</ele><time>2026-03-28T14:10:32.001Z</time></trkpt><trkpt lat="44.28811500141016" lon="10.896971805284764"><ele>482.0</ele><time>2026-03-28T14:10:33.001Z</time></trkpt><trkpt lat="44.28798036113094" lon="10.897046576879578"><ele>482.0</ele><time>2026-03-28T14:10:34Z</time></trkpt><trkpt lat="44.287878909285304" lon="10.897171786751663"><ele>482.0</ele><time>2026-03-28T14:10:35Z</time></trkpt><trkpt lat="44.287827972706594" lon="10.89737448184249"><ele>482.0</ele><time>2026-03-28T14:10:36Z</time></trkpt><trkpt lat="44.28777771880479" lon="10.897627072431455"><ele>482.0</ele><time>2026-03-28T14:10:37Z</time></trkpt><trkpt lat="44.287756842303146" lon="10.897913040754952"><ele>482.0</ele><time>2026-03-28T14:10:38Z</time></trkpt><trkpt lat="44.28775486534604" lon="10.898170344949254"><ele>482.0</ele><time>2026-03-28T14:10:39Z</time></trkpt><trkpt lat="44.28778013815557" lon="10.898379565513196"><ele>481.0</ele><time>2026-03-28T14:10:40Z</time></trkpt><trkpt lat="44.28781340609441" lon="10.898574340811482"><ele>480.0</ele><time>2026-03-28T14:10:41Z</time></trkpt><trkpt lat="44.287887553250776" lon="10.898791825383977"><ele>479.0</ele><time>2026-03-28T14:10:42Z</time></trkpt><trkpt lat="44.28802052661536" lon="10.899028708812393"><ele>493.0</ele><time>2026-03-28T14:10:43Z</time></trkpt><trkpt lat="44.288177548962366" lon="10.899310313792057"><ele>507.0</ele><time>2026-03-28T14:10:44Z</time></trkpt><trkpt lat="44.28833699887312" lon="10.899628727662144"><ele>507.0</ele><time>2026-03-28T14:10:45Z</time></trkpt><trkpt lat="44.28851738195918" lon="10.899949758572882"><ele>507.0</ele><time>2026-03-28T14:10:46Z</time></trkpt><trkpt lat="44.28870661371619" lon="10.900249236335299"><ele>506.0</ele><time>2026-03-28T14:10:47Z</time></trkpt><trkpt lat="44.288916042228784" lon="10.900585421730854"><ele>505.0</ele><time>2026-03-28T14:10:48Z</time></trkpt><trkpt lat="44.289089135196654" lon="10.90096364880543"><ele>513.5</ele><time>2026-03-28T14:10:49Z</time></trkpt><trkpt lat="44.289281227221146" lon="10.901323714346793"><ele>522.0</ele><time>2026-03-28T14:10:50Z</time></trkpt><trkpt lat="44.289465517551086" lon="10.901703663107805"><ele>522.5</ele><time>2026-03-28T14:10:51Z</time></trkpt><trkpt lat="44.28962758918247" lon="10.902019049109304"><ele>523.0</ele><time>2026-03-28T14:10:52Z</time></trkpt><trkpt lat="44.28976488162423" lon="10.90227130729329"><ele>526.3333333333334</ele><time>2026-03-28T14:10:53Z</time></trkpt><trkpt lat="44.289901307430426" lon="10.902483274311018"><ele>529.6666666666666</ele><time>2026-03-28T14:10:54Z</time></trkpt><trkpt lat="44.29005946389248" lon="10.902666128095676"><ele>533.0</ele><time>2026-03-28T14:10:55Z</time></trkpt><trkpt lat="44.290239995054684" lon="10.902811619806322"><ele>534.6666666666666</ele><time>2026-03-28T14:10:56Z</time></trkpt><trkpt lat="44.29040180201423" lon="10.902918268212431"><ele>536.3333333333334</ele><time>2026-03-28T14:10:57Z</time></trkpt><trkpt lat="44.29054352791762" lon="10.903017669450424"><ele>538.0</ele><time>2026-03-28T14:10:58Z</time></trkpt><trkpt lat="44.290654792387755" lon="10.903107888138775"><ele>539.75</ele><time>2026-03-28T14:10:59Z</time></trkpt><trkpt lat="44.29071167691087" lon="10.903216405892802"><ele>541.5</ele><time>2026-03-28T14:11:00Z</time></trkpt><trkpt lat="44.29069914663073" lon="10.90335290895924"><ele>543.25</ele><time>2026-03-28T14:11:01Z</time></trkpt><trkpt lat="44.29062134543917" lon="10.903478656354523"><ele>545.0</ele><time>2026-03-28T14:11:02Z</time></trkpt><trkpt lat="44.290474315233055" lon="10.903528912389472"><ele>546.3333333333333</ele><time>2026-03-28T14:11:03Z</time></trkpt><trkpt lat="44.29031396894947" lon="10.903652477491015"><ele>547.6666666666666</ele><time>2026-03-28T14:11:04Z</time></trkpt><trkpt lat="44.290119832903926" lon="10.90375876384271"><ele>549.0</ele><time>2026-03-28T14:11:05Z</time></trkpt><trkpt lat="44.28990937539329" lon="10.90389218975388"><ele>547.5</ele><time>2026-03-28T14:11:06Z</time></trkpt><trkpt lat="44.28970231056645" lon="10.904054299634064"><ele>546.0</ele><time>2026-03-28T14:11:07Z</time></trkpt><trkpt lat="44.28951315179007" lon="10.904219301418316"><ele>551.0</ele><time>2026-03-28T14:11:08Z</time></trkpt><trkpt lat="44.28936088880925" lon="10.904381068762246"><ele>556.0</ele><time>2026-03-28T14:11:09Z</time></trkpt><trkpt lat="44.2892066432238" lon="10.904509031758028"><ele>561.0</ele><time>2026-03-28T14:11:10Z</time></trkpt><trkpt lat="44.28902802334684" lon="10.904599426567534"><ele>564.6666666666666</ele><time>2026-03-28T14:11:11Z</time></trkpt><trkpt lat="44.288831208671425" lon="10.904611690742348"><ele>568.3333333333333</ele><time>2026-03-28T14:11:12Z</time></trkpt><trkpt lat="44.28862568724367" lon="10.904549551273805"><ele>572.0</ele><time>2026-03-28T14:11:13Z</time></trkpt><trkpt lat="44.288394159985465" lon="10.904459580952254"><ele>572.0</ele><time>2026-03-28T14:11:14Z</time></trkpt><trkpt lat="44.288149482730844" lon="10.904362244779978"><ele>572.0</ele><time>2026-03-28T14:11:15Z</time></trkpt><trkpt lat="44.28791056257077" lon="10.90428318486042"><ele>574.0</ele><time>2026-03-28T14:11:16Z</time></trkpt><trkpt lat="44.28766688765459" lon="10.904241618781217"><ele>576.0</ele><time>2026-03-28T14:11:17Z</time></trkpt><trkpt lat="44.28742921169897" lon="10.904257871991192"><ele>574.3333333333334</ele><time>2026-03-28T14:11:18Z</time></trkpt><trkpt lat="44.287217921224425" lon="10.90427552427504"><ele>572.6666666666667</ele><time>2026-03-28T14:11:19Z</time></trkpt><trkpt lat="44.28704231202915" lon="10.904183842730513"><ele>571.0</ele><time>2026-03-28T14:11:20Z</time></trkpt><trkpt lat="44.28687761995884" lon="10.90407963541575"><ele>568.25</ele><time>2026-03-28T14:11:21Z</time></trkpt><trkpt lat="44.286733792507015" lon="10.904006849156055"><ele>565.5</ele><time>2026-03-28T14:11:22Z</time></trkpt><trkpt lat="44.28660113745295" lon="10.903998044586784"><ele>562.75</ele><time>2026-03-28T14:11:23Z</time></trkpt><trkpt lat="44.28647261037029" lon="10.904069219995591"><ele>560.0</ele><time>2026-03-28T14:11:24Z</time></trkpt><trkpt lat="44.28635261068643" lon="10.904200148579566"><ele>557.25</ele><time>2026-03-28T14:11:25.001Z</time></trkpt><trkpt lat="44.28628454667761" lon="10.904365742587672"><ele>554.5</ele><time>2026-03-28T14:11:26.001Z</time></trkpt><trkpt lat="44.286262965147934" lon="10.90455177876964"><ele>551.75</ele><time>2026-03-28T14:11:27.001Z</time></trkpt><trkpt lat="44.28628292804888" lon="10.904753562386222"><ele>549.0</ele><time>2026-03-28T14:11:28.001Z</time></trkpt><trkpt lat="44.28633430637842" lon="10.904985294944108"><ele>547.6666666666666</ele><time>2026-03-28T14:11:29.001Z</time></trkpt><trkpt lat="44.28640238753071" lon="10.905267025343974"><ele>546.3333333333333</ele><time>2026-03-28T14:11:30.001Z</time></trkpt><trkpt lat="44.28645687124176" lon="10.905519852047721"><ele>545.0</ele><time>2026-03-28T14:11:31.001Z</time></trkpt><trkpt lat="44.28648634667811" lon="10.905734106155261"><ele>546.3333333333333</ele><time>2026-03-28T14:11:32.001Z</time></trkpt><trkpt lat="44.2864658292416" lon="10.905935545295968"><ele>547.6666666666666</ele><time>2026-03-28T14:11:33.001Z</time></trkpt><trkpt lat="44.28636976168807" lon="10.906102866281227"><ele>549.0</ele><time>2026-03-28T14:11:34.001Z</time></trkpt><trkpt lat="44.28624700077079" lon="10.906339003177465"><ele>549.0</ele><time>2026-03-28T14:11:35.001Z</time></trkpt><trkpt lat="44.28612344583076" lon="10.906579236181852"><ele>549.0</ele><time>2026-03-28T14:11:36.001Z</time></trkpt><trkpt lat="44.286045480210035" lon="10.906845240365856"><ele>549.0</ele><time>2026-03-28T14:11:37.001Z</time></trkpt><trkpt lat="44.285980344604916" lon="10.907089285497682"><ele>550.5</ele><time>2026-03-28T14:11:38.001Z</time></trkpt><trkpt lat="44.28591710570416" lon="10.907299536512708"><ele>552.0</ele><time>2026-03-28T14:11:39.001Z</time></trkpt><trkpt lat="44.285845938521724" lon="10.907473129606192"><ele>553.5</ele><time>2026-03-28T14:11:40.001Z</time></trkpt><trkpt lat="44.28572724821854" lon="10.90757870208513"><ele>555.0</ele><time>2026-03-28T14:11:41.001Z</time></trkpt><trkpt lat="44.28556714467711" lon="10.907650189559668"><ele>559.0</ele><time>2026-03-28T14:11:42.001Z</time></trkpt><trkpt lat="44.285375550177285" lon="10.907741560736996"><ele>563.0</ele><time>2026-03-28T14:11:43.001Z</time></trkpt><trkpt lat="44.28521294072878" lon="10.90784172842337"><ele>567.0</ele><time>2026-03-28T14:11:44.001Z</time></trkpt><trkpt lat="44.285061935545926" lon="10.907890229224531"><ele>567.0</ele><time>2026-03-28T14:11:45.001Z</time></trkpt><trkpt lat="44.2849294854715" lon="10.907931663329917"><ele>567.0</ele><time>2026-03-28T14:11:46.001Z</time></trkpt><trkpt lat="44.28480641802498" lon="10.907957233434216"><ele>567.0</ele><time>2026-03-28T14:11:47.001Z</time></trkpt><trkpt lat="44.28469481798208" lon="10.907807859072749"><ele>567.0</ele><time>2026-03-28T14:11:48.001Z</time></trkpt><trkpt lat="44.28452399578449" lon="10.907676260794913"><ele>562.6666666666666</ele><time>2026-03-28T14:11:49.001Z</time></trkpt><trkpt lat="44.28433253366498" lon="10.907538203631953"><ele>558.3333333333333</ele><time>2026-03-28T14:11:50.001Z</time></trkpt><trkpt lat="44.28417082766874" lon="10.907420854342725"><ele>554.0</ele><time>2026-03-28T14:11:51.001Z</time></trkpt><trkpt lat="44.28399910346499" lon="10.907355034108836"><ele>554.3333333333333</ele><time>2026-03-28T14:11:52.001Z</time></trkpt><trkpt lat="44.283820878049525" lon="10.907336980306791"><ele>554.6666666666666</ele><time>2026-03-28T14:11:53.001Z</time></trkpt><trkpt lat="44.28363870648461" lon="10.907397355566221"><ele>555.0</ele><time>2026-03-28T14:11:54.001Z</time></trkpt><trkpt lat="44.28346462935241" lon="10.907528923570323"><ele>557.0</ele><time>2026-03-28T14:11:55.001Z</time></trkpt><trkpt lat="44.28330263461932" lon="10.907728128486156"><ele>559.0</ele><time>2026-03-28T14:11:56.001Z</time></trkpt><trkpt lat="44.2831405604273" lon="10.908014888988987"><ele>557.5</ele><time>2026-03-28T14:11:57.001Z</time></trkpt><trkpt lat="44.282967256899845" lon="10.90832941388715"><ele>556.0</ele><time>2026-03-28T14:11:58.001Z</time></trkpt><trkpt lat="44.28275993898693" lon="10.90863141425713"><ele>562.0</ele><time>2026-03-28T14:11:59.001Z</time></trkpt><trkpt lat="44.28253976463389" lon="10.90888038896499"><ele>568.0</ele><time>2026-03-28T14:12:00.001Z</time></trkpt><trkpt lat="44.28233108980362" lon="10.909063666353319"><ele>566.3333333333334</ele><time>2026-03-28T14:12:01.001Z</time></trkpt><trkpt lat="44.282135333754134" lon="10.909201279440031"><ele>564.6666666666666</ele><time>2026-03-28T14:12:02.001Z</time></trkpt><trkpt lat="44.28197171877194" lon="10.909364055727943"><ele>563.0</ele><time>2026-03-28T14:12:03.001Z</time></trkpt><trkpt lat="44.28183466948166" lon="10.909542242887659"><ele>563.0</ele><time>2026-03-28T14:12:04.001Z</time></trkpt><trkpt lat="44.2817244804365" lon="10.909716657013103"><ele>563.0</ele><time>2026-03-28T14:12:05.001Z</time></trkpt><trkpt lat="44.28163817160447" lon="10.909902509165205"><ele>563.0</ele><time>2026-03-28T14:12:06.001Z</time></trkpt><trkpt lat="44.281589198474" lon="10.910147130446713"><ele>563.6666666666666</ele><time>2026-03-28T14:12:07.001Z</time></trkpt><trkpt lat="44.28155443983557" lon="10.910421164580155"><ele>564.3333333333334</ele><time>2026-03-28T14:12:08.001Z</time></trkpt><trkpt lat="44.28154056618842" lon="10.910676944304083"><ele>565.0</ele><time>2026-03-28T14:12:09.001Z</time></trkpt><trkpt lat="44.281553779667995" lon="10.91091179249924"><ele>565.0</ele><time>2026-03-28T14:12:10.001Z</time></trkpt><trkpt lat="44.28160987510674" lon="10.911168966966642"><ele>565.0</ele><time>2026-03-28T14:12:11.001Z</time></trkpt><trkpt lat="44.28169500790843" lon="10.911424355430837"><ele>565.0</ele><time>2026-03-28T14:12:12.001Z</time></trkpt><trkpt lat="44.28176957138633" lon="10.911644454944792"><ele>565.3333333333334</ele><time>2026-03-28T14:12:13.001Z</time></trkpt><trkpt lat="44.281765938769794" lon="10.911873979746398"><ele>565.6666666666666</ele><time>2026-03-28T14:12:14.001Z</time></trkpt><trkpt lat="44.2817321787554" lon="10.912113228152563"><ele>566.0</ele><time>2026-03-28T14:12:15.001Z</time></trkpt><trkpt lat="44.28164055988661" lon="10.912325030282378"><ele>566.0</ele><time>2026-03-28T14:12:16.001Z</time></trkpt><trkpt lat="44.281535997575226" lon="10.912523329880887"><ele>566.0</ele><time>2026-03-28T14:12:17.001Z</time></trkpt><trkpt lat="44.28146154418486" lon="10.91270614212256"><ele>566.0</ele><time>2026-03-28T14:12:18.001Z</time></trkpt><trkpt lat="44.28141871593782" lon="10.912864811004441"><ele>566.0</ele><time>2026-03-28T14:12:19.001Z</time></trkpt><trkpt lat="44.28143854672207" lon="10.913051999185484"><ele>567.0</ele><time>2026-03-28T14:12:20.001Z</time></trkpt><trkpt lat="44.28153383790719" lon="10.913272581363568"><ele>568.0</ele><time>2026-03-28T14:12:21.001Z</time></trkpt><trkpt lat="44.28162659992675" lon="10.913512974269011"><ele>569.0</ele><time>2026-03-28T14:12:22.001Z</time></trkpt><trkpt lat="44.28164961701343" lon="10.913792569126226"><ele>569.0</ele><time>2026-03-28T14:12:23.001Z</time></trkpt><trkpt lat="44.28168582737586" lon="10.914028545529856"><ele>569.0</ele><time>2026-03-28T14:12:24.001Z</time></trkpt><trkpt lat="44.28173916629283" lon="10.914236017740132"><ele>569.0</ele><time>2026-03-28T14:12:25.001Z</time></trkpt><trkpt lat="44.2818398712855" lon="10.914446096545198"><ele>570.5</ele><time>2026-03-28T14:12:26.001Z</time></trkpt><trkpt lat="44.281922344024636" lon="10.91466422277758"><ele>572.0</ele><time>2026-03-28T14:12:27.001Z</time></trkpt><trkpt lat="44.282005397016015" lon="10.914821247911565"><ele>573.5</ele><time>2026-03-28T14:12:28.001Z</time></trkpt><trkpt lat="44.28205818919782" lon="10.914956305193169"><ele>575.0</ele><time>2026-03-28T14:12:29.001Z</time></trkpt><trkpt lat="44.28205860767649" lon="10.915073938178757"><ele>578.2</ele><time>2026-03-28T14:12:30.001Z</time></trkpt><trkpt lat="44.28200487482115" lon="10.915157281301315"><ele>581.4</ele><time>2026-03-28T14:12:31.001Z</time></trkpt><trkpt lat="44.28191500963764" lon="10.915158542670381"><ele>584.6</ele><time>2026-03-28T14:12:32.001Z</time></trkpt><trkpt lat="44.28181923587256" lon="10.915119854396346"><ele>587.8</ele><time>2026-03-28T14:12:33.001Z</time></trkpt><trkpt lat="44.281673900132084" lon="10.915088097069203"><ele>591.0</ele><time>2026-03-28T14:12:34.001Z</time></trkpt><trkpt lat="44.28152684221904" lon="10.915071855164715"><ele>588.0</ele><time>2026-03-28T14:12:35.001Z</time></trkpt><trkpt lat="44.281380282922136" lon="10.915124364420732"><ele>585.0</ele><time>2026-03-28T14:12:36.001Z</time></trkpt><trkpt lat="44.281237234921974" lon="10.915241617740609"><ele>582.0</ele><time>2026-03-28T14:12:37.001Z</time></trkpt><trkpt lat="44.281058124679525" lon="10.915422227990664"><ele>582.0</ele><time>2026-03-28T14:12:38.001Z</time></trkpt><trkpt lat="44.28085574861613" lon="10.915551918207772"><ele>582.0</ele><time>2026-03-28T14:12:39Z</time></trkpt><trkpt lat="44.28065366989323" lon="10.915647114569884"><ele>582.0</ele><time>2026-03-28T14:12:40Z</time></trkpt><trkpt lat="44.2804690437032" lon="10.915662515074372"><ele>581.0</ele><time>2026-03-28T14:12:41Z</time></trkpt><trkpt lat="44.280289667709184" lon="10.915663933954487"><ele>580.0</ele><time>2026-03-28T14:12:42Z</time></trkpt><trkpt lat="44.2801110696916" lon="10.91567381092688"><ele>579.0</ele><time>2026-03-28T14:12:43Z</time></trkpt><trkpt lat="44.27994621102215" lon="10.915681470990224"><ele>579.0</ele><time>2026-03-28T14:12:44Z</time></trkpt><trkpt lat="44.27978341295663" lon="10.915746648133371"><ele>579.0</ele><time>2026-03-28T14:12:45Z</time></trkpt><trkpt lat="44.27962502466179" lon="10.915882684414893"><ele>579.0</ele><time>2026-03-28T14:12:46Z</time></trkpt><trkpt lat="44.27946326890305" lon="10.916074476198766"><ele>581.5</ele><time>2026-03-28T14:12:47Z</time></trkpt><trkpt lat="44.27927713534334" lon="10.916303048666347"><ele>584.0</ele><time>2026-03-28T14:12:48Z</time></trkpt><trkpt lat="44.27908916675594" lon="10.91651724054541"><ele>584.0</ele><time>2026-03-28T14:12:49Z</time></trkpt><trkpt lat="44.2789392797391" lon="10.916703211514795"><ele>584.0</ele><time>2026-03-28T14:12:50Z</time></trkpt><trkpt lat="44.278832121094084" lon="10.916902995198145"><ele>584.0</ele><time>2026-03-28T14:12:51Z</time></trkpt><trkpt lat="44.27875968997926" lon="10.91713124473623"><ele>584.3333333333333</ele><time>2026-03-28T14:12:52Z</time></trkpt><trkpt lat="44.278718075212716" lon="10.917379512034504"><ele>584.6666666666666</ele><time>2026-03-28T14:12:53Z</time></trkpt><trkpt lat="44.278708577043446" lon="10.917643391585981"><ele>585.0</ele><time>2026-03-28T14:12:54Z</time></trkpt><trkpt lat="44.27872255369361" lon="10.917904570036344"><ele>585.0</ele><time>2026-03-28T14:12:55Z</time></trkpt><trkpt lat="44.2787403956534" lon="10.918160534348038"><ele>585.0</ele><time>2026-03-28T14:12:56Z</time></trkpt><trkpt lat="44.27875644949452" lon="10.918396687133136"><ele>585.0</ele><time>2026-03-28T14:12:57Z</time></trkpt><trkpt lat="44.27877029561056" lon="10.918619687248375"><ele>586.0</ele><time>2026-03-28T14:12:58Z</time></trkpt><trkpt lat="44.27878392892162" lon="10.918847066681346"><ele>587.0</ele><time>2026-03-28T14:12:59Z</time></trkpt><trkpt lat="44.27881509644298" lon="10.919120106723426"><ele>588.0</ele><time>2026-03-28T14:13:00Z</time></trkpt><trkpt lat="44.27885714501856" lon="10.919411177677112"><ele>589.0</ele><time>2026-03-28T14:13:01Z</time></trkpt><trkpt lat="44.27890193245285" lon="10.919693885395795"><ele>590.0</ele><time>2026-03-28T14:13:02Z</time></trkpt><trkpt lat="44.27894319452669" lon="10.919969066685526"><ele>591.0</ele><time>2026-03-28T14:13:03Z</time></trkpt><trkpt lat="44.278979666286936" lon="10.920233038426167"><ele>597.0</ele><time>2026-03-28T14:13:04Z</time></trkpt><trkpt lat="44.279014352594814" lon="10.920500308527588"><ele>603.0</ele><time>2026-03-28T14:13:05Z</time></trkpt><trkpt lat="44.27904608810993" lon="10.920772695363265"><ele>609.0</ele><time>2026-03-28T14:13:06Z</time></trkpt><trkpt lat="44.279069020053875" lon="10.92105100061186"><ele>608.6666666666666</ele><time>2026-03-28T14:13:07Z</time></trkpt><trkpt lat="44.279081166873794" lon="10.92132320900882"><ele>608.3333333333333</ele><time>2026-03-28T14:13:08Z</time></trkpt><trkpt lat="44.27909111392352" lon="10.921581227249447"><ele>608.0</ele><time>2026-03-28T14:13:09Z</time></trkpt><trkpt lat="44.279099507873354" lon="10.921812395836572"><ele>608.0</ele><time>2026-03-28T14:13:10Z</time></trkpt><trkpt lat="44.27912855607646" lon="10.922020104685094"><ele>608.0</ele><time>2026-03-28T14:13:11Z</time></trkpt><trkpt lat="44.27919992205659" lon="10.922219647996892"><ele>608.0</ele><time>2026-03-28T14:13:12Z</time></trkpt><trkpt lat="44.279316622754614" lon="10.922414372005473"><ele>608.6666666666666</ele><time>2026-03-28T14:13:13Z</time></trkpt><trkpt lat="44.27945497845824" lon="10.922627427851936"><ele>609.3333333333334</ele><time>2026-03-28T14:13:14Z</time></trkpt><trkpt lat="44.27956141377119" lon="10.922842832464276"><ele>610.0</ele><time>2026-03-28T14:13:15Z</time></trkpt><trkpt lat="44.27959565864539" lon="10.92307678526217"><ele>610.0</ele><time>2026-03-28T14:13:16Z</time></trkpt><trkpt lat="44.27962445949799" lon="10.923318422514457"><ele>610.0</ele><time>2026-03-28T14:13:17Z</time></trkpt><trkpt lat="44.27962828327625" lon="10.92355300647075"><ele>610.0</ele><time>2026-03-28T14:13:18Z</time></trkpt><trkpt lat="44.27959357059639" lon="10.923791365776928"><ele>611.6666666666667</ele><time>2026-03-28T14:13:19Z</time></trkpt><trkpt lat="44.27951409365026" lon="10.924043085600257"><ele>613.3333333333334</ele><time>2026-03-28T14:13:20Z</time></trkpt><trkpt lat="44.279423073560324" lon="10.924314275314225"><ele>615.0</ele><time>2026-03-28T14:13:21Z</time></trkpt><trkpt lat="44.27935055934871" lon="10.924570138562835"><ele>617.0</ele><time>2026-03-28T14:13:22Z</time></trkpt><trkpt lat="44.27926642034375" lon="10.92477497561999"><ele>619.0</ele><time>2026-03-28T14:13:23Z</time></trkpt><trkpt lat="44.27920741237729" lon="10.924937661036665"><ele>621.0</ele><time>2026-03-28T14:13:24Z</time></trkpt><trkpt lat="44.27918079832499" lon="10.925060265062951"><ele>623.0</ele><time>2026-03-28T14:13:25Z</time></trkpt><trkpt lat="44.279200553813666" lon="10.925186057797637"><ele>624.5</ele><time>2026-03-28T14:13:26Z</time></trkpt><trkpt lat="44.27926840590043" lon="10.925303094385756"><ele>626.0</ele><time>2026-03-28T14:13:27Z</time></trkpt><trkpt lat="44.279376238448194" lon="10.925349977412788"><ele>627.5</ele><time>2026-03-28T14:13:28Z</time></trkpt><trkpt lat="44.279490868962284" lon="10.92530477072825"><ele>629.0</ele><time>2026-03-28T14:13:29Z</time></trkpt><trkpt lat="44.27957497378251" lon="10.925179109547965"><ele>627.0</ele><time>2026-03-28T14:13:30Z</time></trkpt><trkpt lat="44.27964623930023" lon="10.924973152002382"><ele>625.0</ele><time>2026-03-28T14:13:31Z</time></trkpt><trkpt lat="44.27972544337074" lon="10.9247687727826"><ele>623.0</ele><time>2026-03-28T14:13:32Z</time></trkpt><trkpt lat="44.27982565500711" lon="10.92456508935945"><ele>625.0</ele><time>2026-03-28T14:13:33Z</time></trkpt><trkpt lat="44.27992861280787" lon="10.924375252665895"><ele>627.0</ele><time>2026-03-28T14:13:34Z</time></trkpt><trkpt lat="44.280037905688864" lon="10.924174594857629"><ele>629.0</ele><time>2026-03-28T14:13:35Z</time></trkpt><trkpt lat="44.28012946222596" lon="10.923979006758714"><ele>629.0</ele><time>2026-03-28T14:13:36Z</time></trkpt><trkpt lat="44.28018091959463" lon="10.923769667919396"><ele>629.0</ele><time>2026-03-28T14:13:37Z</time></trkpt><trkpt lat="44.28015624341302" lon="10.923525436132536"><ele>629.0</ele><time>2026-03-28T14:13:38Z</time></trkpt><trkpt lat="44.28007580534414" lon="10.923256581871438"><ele>630.3333333333333</ele><time>2026-03-28T14:13:39Z</time></trkpt><trkpt lat="44.28004677259742" lon="10.923008407793269"><ele>631.6666666666666</ele><time>2026-03-28T14:13:40Z</time></trkpt><trkpt lat="44.28005173920034" lon="10.922802702439412"><ele>633.0</ele><time>2026-03-28T14:13:41Z</time></trkpt><trkpt lat="44.280074217069355" lon="10.922599174654211"><ele>633.25</ele><time>2026-03-28T14:13:42Z</time></trkpt><trkpt lat="44.280169036903445" lon="10.922452758409799"><ele>633.5</ele><time>2026-03-28T14:13:43Z</time></trkpt><trkpt lat="44.280277997757025" lon="10.922358957761798"><ele>633.75</ele><time>2026-03-28T14:13:44Z</time></trkpt><trkpt lat="44.28040940095644" lon="10.92222710503432"><ele>634.0</ele><time>2026-03-28T14:13:45Z</time></trkpt><trkpt lat="44.2805544369639" lon="10.922092433595552"><ele>637.6</ele><time>2026-03-28T14:13:46Z</time></trkpt><trkpt lat="44.280669579003536" lon="10.922002488561368"><ele>641.2</ele><time>2026-03-28T14:13:47Z</time></trkpt><trkpt lat="44.28076707091667" lon="10.921972981672681"><ele>644.8000000000001</ele><time>2026-03-28T14:13:48Z</time></trkpt><trkpt lat="44.28084399555831" lon="10.922025784548348"><ele>648.4</ele><time>2026-03-28T14:13:49Z</time></trkpt><trkpt lat="44.28088220212809" lon="10.922143410564814"><ele>652.0</ele><time>2026-03-28T14:13:50Z</time></trkpt><trkpt lat="44.280837992146296" lon="10.922292552205372"><ele>652.0</ele><time>2026-03-28T14:13:51Z</time></trkpt><trkpt lat="44.2807404719309" lon="10.922385870104359"><ele>652.0</ele><time>2026-03-28T14:13:52Z</time></trkpt><trkpt lat="44.28060723684394" lon="10.922521286021945"><ele>652.0</ele><time>2026-03-28T14:13:53Z</time></trkpt><trkpt lat="44.28048486072574" lon="10.922658879746221"><ele>652.0</ele><time>2026-03-28T14:13:54Z</time></trkpt><trkpt lat="44.28040177086546" lon="10.922786693644843"><ele>647.25</ele><time>2026-03-28T14:13:55Z</time></trkpt><trkpt lat="44.28038252188336" lon="10.922925402784541"><ele>642.5</ele><time>2026-03-28T14:13:56Z</time></trkpt><trkpt lat="44.280391933612314" lon="10.9230693377785"><ele>637.75</ele><time>2026-03-28T14:13:57Z</time></trkpt><trkpt lat="44.28045850660215" lon="10.923212766139962"><ele>633.0</ele><time>2026-03-28T14:13:58.001Z</time></trkpt><trkpt lat="44.28056529874299" lon="10.92335263116755"><ele>639.3333333333334</ele><time>2026-03-28T14:13:59.001Z</time></trkpt><trkpt lat="44.28071638656543" lon="10.923506783307985"><ele>645.6666666666667</ele><time>2026-03-28T14:14:00.001Z</time></trkpt><trkpt lat="44.280881169723095" lon="10.923692457137124"><ele>652.0</ele><time>2026-03-28T14:14:01.001Z</time></trkpt><trkpt lat="44.28105341429045" lon="10.923873605009286"><ele>652.0</ele><time>2026-03-28T14:14:02.001Z</time></trkpt><trkpt lat="44.28120661038664" lon="10.924018307574588"><ele>652.0</ele><time>2026-03-28T14:14:03.001Z</time></trkpt><trkpt lat="44.281331165836754" lon="10.9241524276939"><ele>652.0</ele><time>2026-03-28T14:14:04.001Z</time></trkpt><trkpt lat="44.28140038201246" lon="10.924321567441853"><ele>658.0</ele><time>2026-03-28T14:14:05.001Z</time></trkpt><trkpt lat="44.28144982828628" lon="10.924509978792676"><ele>664.0</ele><time>2026-03-28T14:14:06.001Z</time></trkpt><trkpt lat="44.28148239567337" lon="10.924742899090434"><ele>670.0</ele><time>2026-03-28T14:14:07.001Z</time></trkpt><trkpt lat="44.2814855095812" lon="10.92497934793968"><ele>670.75</ele><time>2026-03-28T14:14:08.001Z</time></trkpt><trkpt lat="44.28149981363108" lon="10.925181373633375"><ele>671.5</ele><time>2026-03-28T14:14:09.001Z</time></trkpt><trkpt lat="44.28151121923446" lon="10.925337144203226"><ele>672.25</ele><time>2026-03-28T14:14:10.001Z</time></trkpt><trkpt lat="44.281567287035266" lon="10.925453131786831"><ele>673.0</ele><time>2026-03-28T14:14:11.001Z</time></trkpt><trkpt lat="44.28165735510338" lon="10.925503697241137"><ele>673.0</ele><time>2026-03-28T14:14:12.001Z</time></trkpt><trkpt lat="44.28176422015556" lon="10.9254879828495"><ele>673.0</ele><time>2026-03-28T14:14:13.001Z</time></trkpt><trkpt lat="44.2818719301012" lon="10.925408127327504"><ele>673.0</ele><time>2026-03-28T14:14:14.001Z</time></trkpt><trkpt lat="44.28198475884406" lon="10.925263980749584"><ele>673.0</ele><time>2026-03-28T14:14:15.001Z</time></trkpt><trkpt lat="44.282096899343195" lon="10.92507177621467"><ele>672.0</ele><time>2026-03-28T14:14:16.001Z</time></trkpt><trkpt lat="44.282223908374455" lon="10.924863664935566"><ele>671.0</ele><time>2026-03-28T14:14:17.001Z</time></trkpt><trkpt lat="44.28233260303189" lon="10.924688420987726"><ele>670.0</ele><time>2026-03-28T14:14:18.001Z</time></trkpt><trkpt lat="44.282425683988954" lon="10.92459514979557"><ele>672.2</ele><time>2026-03-28T14:14:19.001Z</time></trkpt><trkpt lat="44.282497009412715" lon="10.924547666440278"><ele>674.4</ele><time>2026-03-28T14:14:20.001Z</time></trkpt><trkpt lat="44.28258454100748" lon="10.924596008684777"><ele>676.5999999999999</ele><time>2026-03-28T14:14:21.001Z</time></trkpt><trkpt lat="44.28266478448543" lon="10.924694500008718"><ele>678.8</ele><time>2026-03-28T14:14:22.001Z</time></trkpt><trkpt lat="44.282711937513874" lon="10.92483669708443"><ele>681.0</ele><time>2026-03-28T14:14:23.001Z</time></trkpt><trkpt lat="44.28269738235559" lon="10.92502437620509"><ele>682.3333333333334</ele><time>2026-03-28T14:14:24.001Z</time></trkpt><trkpt lat="44.28273298931738" lon="10.925241737395789"><ele>683.6666666666667</ele><time>2026-03-28T14:14:25.001Z</time></trkpt><trkpt lat="44.28274827410466" lon="10.925474186657265"><ele>685.0</ele><time>2026-03-28T14:14:26.001Z</time></trkpt><trkpt lat="44.282736470235356" lon="10.925716560214916"><ele>684.3333333333334</ele><time>2026-03-28T14:14:27.001Z</time></trkpt><trkpt lat="44.282766459017886" lon="10.92597204095439"><ele>683.6666666666666</ele><time>2026-03-28T14:14:28.001Z</time></trkpt><trkpt lat="44.28280314296263" lon="10.926256818348998"><ele>683.0</ele><time>2026-03-28T14:14:29.001Z</time></trkpt><trkpt lat="44.28284682987339" lon="10.926503599945848"><ele>682.6666666666666</ele><time>2026-03-28T14:14:30.001Z</time></trkpt><trkpt lat="44.282885210563805" lon="10.926746907701455"><ele>682.3333333333334</ele><time>2026-03-28T14:14:31.001Z</time></trkpt><trkpt lat="44.2829642692736" lon="10.927002320546961"><ele>682.0</ele><time>2026-03-28T14:14:32.001Z</time></trkpt><trkpt lat="44.28306880152829" lon="10.927308616586355"><ele>688.0</ele><time>2026-03-28T14:14:33.001Z</time></trkpt><trkpt lat="44.28317465046766" lon="10.92766761366482"><ele>694.0</ele><time>2026-03-28T14:14:34.001Z</time></trkpt><trkpt lat="44.283286505450285" lon="10.92803179800316"><ele>694.0</ele><time>2026-03-28T14:14:35.001Z</time></trkpt><trkpt lat="44.28337539729781" lon="10.928339461139746"><ele>694.0</ele><time>2026-03-28T14:14:36.001Z</time></trkpt><trkpt lat="44.28345241057223" lon="10.928596949044994"><ele>694.0</ele><time>2026-03-28T14:14:37.001Z</time></trkpt><trkpt lat="44.28353141548186" lon="10.928833408257661"><ele>693.6666666666667</ele><time>2026-03-28T14:14:38.001Z</time></trkpt><trkpt lat="44.28362382296195" lon="10.929041201108689"><ele>693.3333333333334</ele><time>2026-03-28T14:14:39.001Z</time></trkpt><trkpt lat="44.28377003890103" lon="10.929237232882203"><ele>693.0</ele><time>2026-03-28T14:14:40.001Z</time></trkpt><trkpt lat="44.28396085861646" lon="10.929433683863714"><ele>697.3333333333334</ele><time>2026-03-28T14:14:41.001Z</time></trkpt><trkpt lat="44.28415721584222" lon="10.929626955571198"><ele>701.6666666666667</ele><time>2026-03-28T14:14:42.001Z</time></trkpt><trkpt lat="44.28430571954694" lon="10.929792915560427"><ele>706.0</ele><time>2026-03-28T14:14:43.001Z</time></trkpt><trkpt lat="44.284435396313576" lon="10.929943125871237"><ele>707.5</ele><time>2026-03-28T14:14:44.001Z</time></trkpt><trkpt lat="44.28454547819392" lon="10.930076040724884"><ele>709.0</ele><time>2026-03-28T14:14:45Z</time></trkpt><trkpt lat="44.284644640083265" lon="10.930199378158477"><ele>710.5</ele><time>2026-03-28T14:14:46Z</time></trkpt><trkpt lat="44.284707437679124" lon="10.930328277152396"><ele>712.0</ele><time>2026-03-28T14:14:47Z</time></trkpt><trkpt lat="44.28470919327687" lon="10.93047478215069"><ele>712.0</ele><time>2026-03-28T14:14:48Z</time></trkpt><trkpt lat="44.28471348093712" lon="10.930595750114135"><ele>712.0</ele><time>2026-03-28T14:14:49Z</time></trkpt><trkpt lat="44.28464516581587" lon="10.930672451031155"><ele>712.0</ele><time>2026-03-28T14:14:50Z</time></trkpt><trkpt lat="44.2845764449267" lon="10.930730693764614"><ele>712.0</ele><time>2026-03-28T14:14:51Z</time></trkpt><trkpt lat="44.28447287778781" lon="10.930778424387741"><ele>712.0</ele><time>2026-03-28T14:14:52Z</time></trkpt><trkpt lat="44.28435022581472" lon="10.930811947640743"><ele>712.0</ele><time>2026-03-28T14:14:53Z</time></trkpt><trkpt lat="44.28421021399886" lon="10.930870398633367"><ele>712.0</ele><time>2026-03-28T14:14:54Z</time></trkpt><trkpt lat="44.28405694079849" lon="10.930912700910168"><ele>712.0</ele><time>2026-03-28T14:14:55Z</time></trkpt><trkpt lat="44.28390064309713" lon="10.930967519447728"><ele>715.6666666666667</ele><time>2026-03-28T14:14:56Z</time></trkpt><trkpt lat="44.283715277785184" lon="10.931002431231184"><ele>719.3333333333334</ele><time>2026-03-28T14:14:57Z</time></trkpt><trkpt lat="44.28354738938587" lon="10.931068296907034"><ele>723.0</ele><time>2026-03-28T14:14:58Z</time></trkpt><trkpt lat="44.28341932339492" lon="10.93115819395318"><ele>723.0</ele><time>2026-03-28T14:14:59Z</time></trkpt><trkpt lat="44.28330385998635" lon="10.931327223250268"><ele>723.0</ele><time>2026-03-28T14:15:00Z</time></trkpt><trkpt lat="44.283182366071635" lon="10.93155477148986"><ele>723.0</ele><time>2026-03-28T14:15:01Z</time></trkpt><trkpt lat="44.28304862040659" lon="10.931774692946034"><ele>723.25</ele><time>2026-03-28T14:15:02Z</time></trkpt><trkpt lat="44.2829168147754" lon="10.931936148541748"><ele>723.5</ele><time>2026-03-28T14:15:03Z</time></trkpt><trkpt lat="44.28281172762357" lon="10.932065416320127"><ele>723.75</ele><time>2026-03-28T14:15:04Z</time></trkpt><trkpt lat="44.28275255474157" lon="10.9322167747332"><ele>724.0</ele><time>2026-03-28T14:15:05Z</time></trkpt><trkpt lat="44.28272275304999" lon="10.932390269697942"><ele>728.3333333333334</ele><time>2026-03-28T14:15:06Z</time></trkpt><trkpt lat="44.2827252916009" lon="10.932596458930405"><ele>732.6666666666666</ele><time>2026-03-28T14:15:07Z</time></trkpt><trkpt lat="44.28269508270669" lon="10.932813969918538"><ele>737.0</ele><time>2026-03-28T14:15:08Z</time></trkpt><trkpt lat="44.28262773418521" lon="10.932997391686824"><ele>737.0</ele><time>2026-03-28T14:15:09Z</time></trkpt><trkpt lat="44.28251850348564" lon="10.933091814799285"><ele>737.0</ele><time>2026-03-28T14:15:10Z</time></trkpt><trkpt lat="44.28240960496919" lon="10.933172678483746"><ele>737.0</ele><time>2026-03-28T14:15:11Z</time></trkpt><trkpt lat="44.28225677585634" lon="10.933257433415946"><ele>737.0</ele><time>2026-03-28T14:15:12Z</time></trkpt><trkpt lat="44.28207007616352" lon="10.93335593027933"><ele>742.0</ele><time>2026-03-28T14:15:13Z</time></trkpt><trkpt lat="44.28186001034119" lon="10.933399703263508"><ele>747.0</ele><time>2026-03-28T14:15:14Z</time></trkpt><trkpt lat="44.28161830515913" lon="10.933433468771451"><ele>748.5</ele><time>2026-03-28T14:15:15Z</time></trkpt><trkpt lat="44.28137249219684" lon="10.933487933365727"><ele>750.0</ele><time>2026-03-28T14:15:16Z</time></trkpt><trkpt lat="44.28113170325706" lon="10.933528515140313"><ele>750.0</ele><time>2026-03-28T14:15:17Z</time></trkpt><trkpt lat="44.28090565447367" lon="10.933579890682635"><ele>750.0</ele><time>2026-03-28T14:15:18Z</time></trkpt><trkpt lat="44.28068900844355" lon="10.93364456205498"><ele>751.6666666666666</ele><time>2026-03-28T14:15:19Z</time></trkpt><trkpt lat="44.280483927977265" lon="10.933718820122326"><ele>753.3333333333333</ele><time>2026-03-28T14:15:20Z</time></trkpt><trkpt lat="44.28028934577205" lon="10.933759112244797"><ele>755.0</ele><time>2026-03-28T14:15:21Z</time></trkpt><trkpt lat="44.28011374073879" lon="10.933837496037231"><ele>755.0</ele><time>2026-03-28T14:15:22Z</time></trkpt><trkpt lat="44.279939369955706" lon="10.933893084098754"><ele>755.0</ele><time>2026-03-28T14:15:23Z</time></trkpt><trkpt lat="44.27976877891238" lon="10.933978595982328"><ele>755.0</ele><time>2026-03-28T14:15:24Z</time></trkpt><trkpt lat="44.27960546280066" lon="10.934114644541072"><ele>755.6666666666666</ele><time>2026-03-28T14:15:25Z</time></trkpt><trkpt lat="44.27945381258441" lon="10.934297505670246"><ele>756.3333333333334</ele><time>2026-03-28T14:15:26Z</time></trkpt><trkpt lat="44.27932455353599" lon="10.934481331417114"><ele>757.0</ele><time>2026-03-28T14:15:27Z</time></trkpt><trkpt lat="44.27919030701203" lon="10.934597609389115"><ele>757.0</ele><time>2026-03-28T14:15:28Z</time></trkpt><trkpt lat="44.27906277227589" lon="10.93466447529642"><ele>757.0</ele><time>2026-03-28T14:15:29Z</time></trkpt><trkpt lat="44.27893722331969" lon="10.934751225373502"><ele>757.0</ele><time>2026-03-28T14:15:30Z</time></trkpt><trkpt lat="44.27881319403584" lon="10.934813816307503"><ele>757.0</ele><time>2026-03-28T14:15:31Z</time></trkpt><trkpt lat="44.27872708245335" lon="10.934915117406602"><ele>759.0</ele><time>2026-03-28T14:15:32Z</time></trkpt><trkpt lat="44.278690688274914" lon="10.935061988096498"><ele>761.0</ele><time>2026-03-28T14:15:33Z</time></trkpt><trkpt lat="44.278679939395744" lon="10.935222745241289"><ele>763.0</ele><time>2026-03-28T14:15:34Z</time></trkpt><trkpt lat="44.27871176043081" lon="10.935387611624723"><ele>765.0</ele><time>2026-03-28T14:15:35Z</time></trkpt><trkpt lat="44.278755888734224" lon="10.93555952160403"><ele>765.0</ele><time>2026-03-28T14:15:36Z</time></trkpt><trkpt lat="44.27879162994969" lon="10.935716038511561"><ele>765.0</ele><time>2026-03-28T14:15:37Z</time></trkpt><trkpt lat="44.278813083350585" lon="10.935847757628984"><ele>765.0</ele><time>2026-03-28T14:15:38Z</time></trkpt><trkpt lat="44.27879354461315" lon="10.935961743186054"><ele>765.0</ele><time>2026-03-28T14:15:39Z</time></trkpt><trkpt lat="44.27871839186806" lon="10.9360370570316"><ele>765.0</ele><time>2026-03-28T14:15:40Z</time></trkpt><trkpt lat="44.27862116571092" lon="10.936060523311836"><ele>765.0</ele><time>2026-03-28T14:15:41Z</time></trkpt><trkpt lat="44.27852802903943" lon="10.935990303975913"><ele>765.0</ele><time>2026-03-28T14:15:42Z</time></trkpt><trkpt lat="44.27849470429082" lon="10.935830542011107"><ele>765.0</ele><time>2026-03-28T14:15:43Z</time></trkpt><trkpt lat="44.278417733720985" lon="10.935672451714808"><ele>765.0</ele><time>2026-03-28T14:15:44Z</time></trkpt><trkpt lat="44.27834347130863" lon="10.93546405862994"><ele>765.0</ele><time>2026-03-28T14:15:45Z</time></trkpt><trkpt lat="44.27827324300733" lon="10.93527559514241"><ele>765.0</ele><time>2026-03-28T14:15:46Z</time></trkpt><trkpt lat="44.278211971606225" lon="10.935124436149051"><ele>765.0</ele><time>2026-03-28T14:15:47Z</time></trkpt><trkpt lat="44.27813043722858" lon="10.935031087193192"><ele>765.0</ele><time>2026-03-28T14:15:48Z</time></trkpt><trkpt lat="44.27802173006651" lon="10.934981984246496"><ele>764.0</ele><time>2026-03-28T14:15:49Z</time></trkpt><trkpt lat="44.27787970752977" lon="10.934986731715549"><ele>763.0</ele><time>2026-03-28T14:15:50Z</time></trkpt><trkpt lat="44.27771095394661" lon="10.935029234142323"><ele>762.0</ele><time>2026-03-28T14:15:51Z</time></trkpt><trkpt lat="44.27751426109683" lon="10.935063663475917"><ele>766.3333333333333</ele><time>2026-03-28T14:15:52Z</time></trkpt><trkpt lat="44.27730154008284" lon="10.935088574652752"><ele>770.6666666666666</ele><time>2026-03-28T14:15:53Z</time></trkpt><trkpt lat="44.277104321538566" lon="10.935122800160766"><ele>775.0</ele><time>2026-03-28T14:15:54Z</time></trkpt><trkpt lat="44.27693488661348" lon="10.93517193823488"><ele>775.0</ele><time>2026-03-28T14:15:55Z</time></trkpt><trkpt lat="44.276796437911734" lon="10.935256631166707"><ele>775.0</ele><time>2026-03-28T14:15:56Z</time></trkpt><trkpt lat="44.276661175173906" lon="10.935391064652059"><ele>775.0</ele><time>2026-03-28T14:15:57Z</time></trkpt><trkpt lat="44.27651815227835" lon="10.935603329397704"><ele>777.3333333333333</ele><time>2026-03-28T14:15:58Z</time></trkpt><trkpt lat="44.276372981656266" lon="10.935851034572332"><ele>779.6666666666667</ele><time>2026-03-28T14:15:59.001Z</time></trkpt><trkpt lat="44.276246467292914" lon="10.936057780054556"><ele>782.0</ele><time>2026-03-28T14:16:00.001Z</time></trkpt><trkpt lat="44.276121050112266" lon="10.936203212942992"><ele>782.0</ele><time>2026-03-28T14:16:01.001Z</time></trkpt><trkpt lat="44.27599319727348" lon="10.936335101517084"><ele>782.0</ele><time>2026-03-28T14:16:02.001Z</time></trkpt><trkpt lat="44.275823850981574" lon="10.936405360111571"><ele>782.0</ele><time>2026-03-28T14:16:03.001Z</time></trkpt><trkpt lat="44.27565444069213" lon="10.936517777712043"><ele>781.6666666666667</ele><time>2026-03-28T14:16:04.001Z</time></trkpt><trkpt lat="44.275492390758934" lon="10.93661200047631"><ele>781.3333333333333</ele><time>2026-03-28T14:16:05.001Z</time></trkpt><trkpt lat="44.2753575157805" lon="10.936754816664868"><ele>781.0</ele><time>2026-03-28T14:16:06.001Z</time></trkpt><trkpt lat="44.275238314308496" lon="10.93694586551962"><ele>784.6666666666666</ele><time>2026-03-28T14:16:07.001Z</time></trkpt><trkpt lat="44.27511920059535" lon="10.937124151406545"><ele>788.3333333333333</ele><time>2026-03-28T14:16:08.001Z</time></trkpt><trkpt lat="44.27499352636164" lon="10.937262474203825"><ele>792.0</ele><time>2026-03-28T14:16:09.001Z</time></trkpt><trkpt lat="44.27483868101424" lon="10.937363845312452"><ele>792.6666666666667</ele><time>2026-03-28T14:16:10.001Z</time></trkpt><trkpt lat="44.27464437694522" lon="10.937488980279223"><ele>793.3333333333334</ele><time>2026-03-28T14:16:11.001Z</time></trkpt><trkpt lat="44.274448526184955" lon="10.937636979061937"><ele>794.0</ele><time>2026-03-28T14:16:12.001Z</time></trkpt><trkpt lat="44.27426531470927" lon="10.937744108530522"><ele>800.3333333333334</ele><time>2026-03-28T14:16:13.001Z</time></trkpt><trkpt lat="44.274107810604505" lon="10.937844230884599"><ele>806.6666666666667</ele><time>2026-03-28T14:16:14.001Z</time></trkpt><trkpt lat="44.2739626651417" lon="10.937906463536981"><ele>813.0</ele><time>2026-03-28T14:16:15.001Z</time></trkpt><trkpt lat="44.27380921812858" lon="10.937925759453906"><ele>813.0</ele><time>2026-03-28T14:16:16.001Z</time></trkpt><trkpt lat="44.27364425359011" lon="10.937898777225792"><ele>813.0</ele><time>2026-03-28T14:16:17.001Z</time></trkpt><trkpt lat="44.273478713764405" lon="10.937933720791886"><ele>813.0</ele><time>2026-03-28T14:16:18.001Z</time></trkpt><trkpt lat="44.273336096448254" lon="10.937983822188798"><ele>813.0</ele><time>2026-03-28T14:16:19.001Z</time></trkpt><trkpt lat="44.27321769196506" lon="10.938067133179091"><ele>813.0</ele><time>2026-03-28T14:16:20.001Z</time></trkpt><trkpt lat="44.273127908158614" lon="10.938174062620979"><ele>813.0</ele><time>2026-03-28T14:16:21.001Z</time></trkpt><trkpt lat="44.2730640527669" lon="10.938291913033872"><ele>813.0</ele><time>2026-03-28T14:16:22.001Z</time></trkpt><trkpt lat="44.27300372258744" lon="10.938380017755367"><ele>813.0</ele><time>2026-03-28T14:16:23.001Z</time></trkpt><trkpt lat="44.27293879912773" lon="10.93843834750061"><ele>813.2</ele><time>2026-03-28T14:16:24.001Z</time></trkpt><trkpt lat="44.27282529496723" lon="10.938406430067014"><ele>813.4</ele><time>2026-03-28T14:16:26.001Z</time></trkpt><trkpt lat="44.27279690252356" lon="10.938313214374547"><ele>813.6</ele><time>2026-03-28T14:16:27.001Z</time></trkpt><trkpt lat="44.272761441481464" lon="10.93821369751481"><ele>813.8000000000001</ele><time>2026-03-28T14:16:28.001Z</time></trkpt><trkpt lat="44.27274517986229" lon="10.938084591433824"><ele>814.0</ele><time>2026-03-28T14:16:29.001Z</time></trkpt><trkpt lat="44.27271936029578" lon="10.937959348543362"><ele>814.0</ele><time>2026-03-28T14:16:30.001Z</time></trkpt><trkpt lat="44.27264841980276" lon="10.937862814242278"><ele>814.0</ele><time>2026-03-28T14:16:31.001Z</time></trkpt><trkpt lat="44.27254236508657" lon="10.937792722070178"><ele>814.0</ele><time>2026-03-28T14:16:32.001Z</time></trkpt><trkpt lat="44.272417522501435" lon="10.937719655941876"><ele>814.0</ele><time>2026-03-28T14:16:33.001Z</time></trkpt><trkpt lat="44.27229805459603" lon="10.937711219385685"><ele>814.5</ele><time>2026-03-28T14:16:34.001Z</time></trkpt><trkpt lat="44.27218179631783" lon="10.937758471570593"><ele>815.0</ele><time>2026-03-28T14:16:35.001Z</time></trkpt><trkpt lat="44.27203139733073" lon="10.937721819897549"><ele>815.5</ele><time>2026-03-28T14:16:36.001Z</time></trkpt><trkpt lat="44.27190757909298" lon="10.93775217714742"><ele>816.0</ele><time>2026-03-28T14:16:37.001Z</time></trkpt><trkpt lat="44.27178763557035" lon="10.937764472860414"><ele>816.0</ele><time>2026-03-28T14:16:38.001Z</time></trkpt><trkpt lat="44.27167189956575" lon="10.937761730341478"><ele>816.0</ele><time>2026-03-28T14:16:39.001Z</time></trkpt><trkpt lat="44.27153925355703" lon="10.937718420151679"><ele>816.0</ele><time>2026-03-28T14:16:40.001Z</time></trkpt><trkpt lat="44.27137146921238" lon="10.93769329284857"><ele>816.0</ele><time>2026-03-28T14:16:41.001Z</time></trkpt><trkpt lat="44.27119511227519" lon="10.937680170609536"><ele>812.75</ele><time>2026-03-28T14:16:42.001Z</time></trkpt><trkpt lat="44.271063962012974" lon="10.93765852279364"><ele>809.5</ele><time>2026-03-28T14:16:43.001Z</time></trkpt><trkpt lat="44.270930209593914" lon="10.937630279599645"><ele>806.25</ele><time>2026-03-28T14:16:44.001Z</time></trkpt><trkpt lat="44.27077187336635" lon="10.93761032689792"><ele>803.0</ele><time>2026-03-28T14:16:45.001Z</time></trkpt><trkpt lat="44.27065986704378" lon="10.937643228347984"><ele>796.75</ele><time>2026-03-28T14:16:46.001Z</time></trkpt><trkpt lat="44.27056527459313" lon="10.937741182940027"><ele>790.5</ele><time>2026-03-28T14:16:47.001Z</time></trkpt><trkpt lat="44.27049923233525" lon="10.937895315811582"><ele>784.25</ele><time>2026-03-28T14:16:48.001Z</time></trkpt><trkpt lat="44.27046458342641" lon="10.938060954198424"><ele>778.0</ele><time>2026-03-28T14:16:49.001Z</time></trkpt><trkpt lat="44.270435978401125" lon="10.938200994193531"><ele>777.9999999999999</ele><time>2026-03-28T14:16:50.001Z</time></trkpt><trkpt lat="44.27043019716226" lon="10.938346003193278"><ele>778.0</ele><time>2026-03-28T14:16:52Z</time></trkpt><trkpt lat="44.27050195247291" lon="10.938429024222565"><ele>778.0</ele><time>2026-03-28T14:16:53Z</time></trkpt><trkpt lat="44.27054811974256" lon="10.938493959797167"><ele>778.0</ele><time>2026-03-28T14:16:54Z</time></trkpt><trkpt lat="44.270599376622265" lon="10.938552301415909"><ele>777.9999999999999</ele><time>2026-03-28T14:16:55Z</time></trkpt><trkpt lat="44.270660023336475" lon="10.93861929249535"><ele>778.0</ele><time>2026-03-28T14:16:56Z</time></trkpt><trkpt lat="44.270725252886066" lon="10.938689201726918"><ele>783.0</ele><time>2026-03-28T14:16:57Z</time></trkpt><trkpt lat="44.270788224029154" lon="10.938760670518477"><ele>788.0</ele><time>2026-03-28T14:16:58Z</time></trkpt><trkpt lat="44.2708123735048" lon="10.938856146913157"><ele>793.0</ele><time>2026-03-28T14:16:59Z</time></trkpt><trkpt lat="44.27080417367325" lon="10.939025681034721"><ele>798.0</ele><time>2026-03-28T14:17:01Z</time></trkpt><trkpt lat="44.27073227518578" lon="10.939133108121593"><ele>803.0</ele><time>2026-03-28T14:17:03Z</time></trkpt><trkpt lat="44.270664354899054" lon="10.939184517561683"><ele>801.0</ele><time>2026-03-28T14:17:05Z</time></trkpt><trkpt lat="44.27055687406008" lon="10.939199188900758"><ele>799.0</ele><time>2026-03-28T14:17:07Z</time></trkpt><trkpt lat="44.27043856584817" lon="10.939211284526504"><ele>797.0</ele><time>2026-03-28T14:17:08Z</time></trkpt><trkpt lat="44.27030158403636" lon="10.939212593285719"><ele>795.0</ele><time>2026-03-28T14:17:09Z</time></trkpt><trkpt lat="44.27016534161847" lon="10.939205188725303"><ele>795.0</ele><time>2026-03-28T14:17:10Z</time></trkpt><trkpt lat="44.27002216958644" lon="10.939188223351577"><ele>795.0</ele><time>2026-03-28T14:17:11Z</time></trkpt><trkpt lat="44.26988110657495" lon="10.939168563544836"><ele>795.0</ele><time>2026-03-28T14:17:12Z</time></trkpt><trkpt lat="44.26974751898123" lon="10.939149148436027"><ele>795.0</ele><time>2026-03-28T14:17:13Z</time></trkpt><trkpt lat="44.2696296385242" lon="10.939125219244222"><ele>794.4</ele><time>2026-03-28T14:17:14Z</time></trkpt><trkpt lat="44.26951720669825" lon="10.93912381172319"><ele>793.8</ele><time>2026-03-28T14:17:15Z</time></trkpt><trkpt lat="44.269426558156994" lon="10.939180574515603"><ele>793.2</ele><time>2026-03-28T14:17:16Z</time></trkpt><trkpt lat="44.269333428462794" lon="10.93921265801883"><ele>792.6</ele><time>2026-03-28T14:17:17Z</time></trkpt><trkpt lat="44.269256764617055" lon="10.939290129506945"><ele>792.0</ele><time>2026-03-28T14:17:18Z</time></trkpt><trkpt lat="44.26919250038131" lon="10.939385515493955"><ele>793.6</ele><time>2026-03-28T14:17:19Z</time></trkpt><trkpt lat="44.26913460600992" lon="10.93948465794876"><ele>795.2</ele><time>2026-03-28T14:17:20Z</time></trkpt><trkpt lat="44.269072507983736" lon="10.939599169983275"><ele>796.8</ele><time>2026-03-28T14:17:21Z</time></trkpt><trkpt lat="44.26903519688491" lon="10.939737856252908"><ele>798.4</ele><time>2026-03-28T14:17:22Z</time></trkpt><trkpt lat="44.26896493065751" lon="10.939845701991011"><ele>800.0</ele><time>2026-03-28T14:17:23Z</time></trkpt><trkpt lat="44.26887688036706" lon="10.939943004296692"><ele>800.4</ele><time>2026-03-28T14:17:24Z</time></trkpt><trkpt lat="44.268789842108276" lon="10.9400424839622"><ele>800.8</ele><time>2026-03-28T14:17:25Z</time></trkpt><trkpt lat="44.26870550773099" lon="10.940125178458032"><ele>801.2</ele><time>2026-03-28T14:17:26Z</time></trkpt><trkpt lat="44.26862899097131" lon="10.940196289263694"><ele>801.6</ele><time>2026-03-28T14:17:27Z</time></trkpt><trkpt lat="44.26857307513455" lon="10.940265929157162"><ele>802.0</ele><time>2026-03-28T14:17:28Z</time></trkpt><trkpt lat="44.26852265965344" lon="10.940352728698938"><ele>800.6</ele><time>2026-03-28T14:17:29Z</time></trkpt><trkpt lat="44.26846443021573" lon="10.94043573858973"><ele>799.2</ele><time>2026-03-28T14:17:30Z</time></trkpt><trkpt lat="44.268405255419694" lon="10.94050422669386"><ele>797.8</ele><time>2026-03-28T14:17:31Z</time></trkpt><trkpt lat="44.26831847252072" lon="10.94059933200168"><ele>796.4</ele><time>2026-03-28T14:17:33Z</time></trkpt><trkpt lat="44.26822909277259" lon="10.940723495949214"><ele>795.0</ele><time>2026-03-28T14:17:35Z</time></trkpt><trkpt lat="44.26817707442416" lon="10.940781467746385"><ele>795.0</ele><time>2026-03-28T14:17:36Z</time></trkpt><trkpt lat="44.26811038983518" lon="10.940836065377832"><ele>795.0</ele><time>2026-03-28T14:17:37Z</time></trkpt><trkpt lat="44.26804427765901" lon="10.940885534484716"><ele>795.0</ele><time>2026-03-28T14:17:38Z</time></trkpt><trkpt lat="44.26798194170947" lon="10.940938059223758"><ele>795.0</ele><time>2026-03-28T14:17:39Z</time></trkpt><trkpt lat="44.26791079280547" lon="10.941043941613724"><ele>795.0</ele><time>2026-03-28T14:17:41Z</time></trkpt><trkpt lat="44.26788452974497" lon="10.941164755908035"><ele>795.0</ele><time>2026-03-28T14:17:43Z</time></trkpt><trkpt lat="44.267990702906786" lon="10.941237513168348"><ele>793.4</ele><time>2026-03-28T14:17:44Z</time></trkpt><trkpt lat="44.268110447826004" lon="10.94130579852118"><ele>791.8</ele><time>2026-03-28T14:17:46Z</time></trkpt><trkpt lat="44.26818143183465" lon="10.941341808173803"><ele>790.2</ele><time>2026-03-28T14:17:47Z</time></trkpt><trkpt lat="44.26825183233" lon="10.941392994500696"><ele>788.6</ele><time>2026-03-28T14:17:48Z</time></trkpt><trkpt lat="44.26832219786049" lon="10.941453896395155"><ele>787.0</ele><time>2026-03-28T14:17:49Z</time></trkpt><trkpt lat="44.26841598799899" lon="10.941513532055739"><ele>786.9999999999999</ele><time>2026-03-28T14:17:50Z</time></trkpt><trkpt lat="44.268505133171786" lon="10.941575167228242"><ele>787.0</ele><time>2026-03-28T14:17:51Z</time></trkpt><trkpt lat="44.26859411359345" lon="10.941624418681796"><ele>787.0</ele><time>2026-03-28T14:17:52Z</time></trkpt><trkpt lat="44.2686743021663" lon="10.941669188617803"><ele>787.0</ele><time>2026-03-28T14:17:53Z</time></trkpt><trkpt lat="44.268752273240274" lon="10.94171525930737"><ele>786.9999999999999</ele><time>2026-03-28T14:17:54Z</time></trkpt><trkpt lat="44.26882424191892" lon="10.941769218036326"><ele>787.0</ele><time>2026-03-28T14:17:55Z</time></trkpt><trkpt lat="44.268893159210776" lon="10.941848207832964"><ele>788.75</ele><time>2026-03-28T14:17:56Z</time></trkpt><trkpt lat="44.26894660780696" lon="10.941966163124766"><ele>790.5</ele><time>2026-03-28T14:17:57Z</time></trkpt><trkpt lat="44.269018425124976" lon="10.942092392048027"><ele>792.25</ele><time>2026-03-28T14:17:58Z</time></trkpt><trkpt lat="44.26908226535263" lon="10.94225373194333"><ele>794.0</ele><time>2026-03-28T14:17:59Z</time></trkpt><trkpt lat="44.269139080420686" lon="10.942415126497929"><ele>791.6666666666667</ele><time>2026-03-28T14:18:00Z</time></trkpt><trkpt lat="44.26919335740843" lon="10.942579500146874"><ele>789.3333333333333</ele><time>2026-03-28T14:18:01Z</time></trkpt><trkpt lat="44.26923294466698" lon="10.94277923687786"><ele>787.0</ele><time>2026-03-28T14:18:02Z</time></trkpt><trkpt lat="44.26928796657863" lon="10.94300748334148"><ele>787.0</ele><time>2026-03-28T14:18:03Z</time></trkpt><trkpt lat="44.26935810608025" lon="10.943234881425457"><ele>787.0</ele><time>2026-03-28T14:18:04Z</time></trkpt><trkpt lat="44.26941010841159" lon="10.943467165828318"><ele>787.0</ele><time>2026-03-28T14:18:05Z</time></trkpt><trkpt lat="44.26946441540774" lon="10.943678251597227"><ele>785.0</ele><time>2026-03-28T14:18:06Z</time></trkpt><trkpt lat="44.26951674961435" lon="10.943865305781907"><ele>783.0</ele><time>2026-03-28T14:18:07Z</time></trkpt><trkpt lat="44.26957603292669" lon="10.944039681990368"><ele>781.0</ele><time>2026-03-28T14:18:08Z</time></trkpt><trkpt lat="44.26964875525851" lon="10.944200488145787"><ele>779.0</ele><time>2026-03-28T14:18:09Z</time></trkpt><trkpt lat="44.269694615251005" lon="10.944374290361035"><ele>777.5</ele><time>2026-03-28T14:18:10Z</time></trkpt><trkpt lat="44.26973379700651" lon="10.944531911937114"><ele>776.0</ele><time>2026-03-28T14:18:11Z</time></trkpt><trkpt lat="44.26980298387974" lon="10.944698958349226"><ele>774.5</ele><time>2026-03-28T14:18:12Z</time></trkpt><trkpt lat="44.269733912368814" lon="10.944916073182423"><ele>773.0</ele><time>2026-03-28T14:18:13Z</time></trkpt><trkpt lat="44.26966637633482" lon="10.945137504542112"><ele>773.0</ele><time>2026-03-28T14:18:14Z</time></trkpt><trkpt lat="44.2696032996363" lon="10.945380499226477"><ele>773.0</ele><time>2026-03-28T14:18:15Z</time></trkpt><trkpt lat="44.26956478025997" lon="10.945642969341234"><ele>773.0</ele><time>2026-03-28T14:18:16Z</time></trkpt><trkpt lat="44.269539407267715" lon="10.945917663925055"><ele>773.0</ele><time>2026-03-28T14:18:17Z</time></trkpt><trkpt lat="44.26952906163115" lon="10.946187664670756"><ele>773.0</ele><time>2026-03-28T14:18:18Z</time></trkpt><trkpt lat="44.26951159800618" lon="10.946428635202269"><ele>773.0</ele><time>2026-03-28T14:18:19Z</time></trkpt><trkpt lat="44.26947614463254" lon="10.946650587880796"><ele>773.0</ele><time>2026-03-28T14:18:20Z</time></trkpt><trkpt lat="44.26942103524283" lon="10.946858384782914"><ele>773.0</ele><time>2026-03-28T14:18:21Z</time></trkpt><trkpt lat="44.26935466031414" lon="10.947073806029083"><ele>773.0</ele><time>2026-03-28T14:18:22Z</time></trkpt><trkpt lat="44.269270402990394" lon="10.947294201288285"><ele>773.0</ele><time>2026-03-28T14:18:23Z</time></trkpt><trkpt lat="44.269190822393725" lon="10.947488557786832"><ele>773.0</ele><time>2026-03-28T14:18:24Z</time></trkpt><trkpt lat="44.26913614746899" lon="10.947665508475682"><ele>773.0</ele><time>2026-03-28T14:18:25Z</time></trkpt><trkpt lat="44.269064670282475" lon="10.947793935326432"><ele>773.0</ele><time>2026-03-28T14:18:26Z</time></trkpt><trkpt lat="44.269022777021505" lon="10.9479035374567"><ele>772.6666666666667</ele><time>2026-03-28T14:18:27Z</time></trkpt><trkpt lat="44.26898966902755" lon="10.948022485077939"><ele>772.3333333333334</ele><time>2026-03-28T14:18:29Z</time></trkpt><trkpt lat="44.26894479882731" lon="10.94809628635953"><ele>772.0</ele><time>2026-03-28T14:18:33Z</time></trkpt><trkpt lat="44.26890440110467" lon="10.948216539877535"><ele>771.6666666666667</ele><time>2026-03-28T14:18:50.001Z</time></trkpt><trkpt lat="44.26886466860258" lon="10.948303336639439"><ele>771.3333333333334</ele><time>2026-03-28T14:18:51.001Z</time></trkpt><trkpt lat="44.26881700593707" lon="10.94842309851955"><ele>771.0</ele><time>2026-03-28T14:18:52.001Z</time></trkpt><trkpt lat="44.268770806084085" lon="10.948578513183973"><ele>770.25</ele><time>2026-03-28T14:18:53.001Z</time></trkpt><trkpt lat="44.26871559909592" lon="10.948748299191774"><ele>769.5</ele><time>2026-03-28T14:18:54.001Z</time></trkpt><trkpt lat="44.26864391162748" lon="10.948932739542913"><ele>768.75</ele><time>2026-03-28T14:18:55.001Z</time></trkpt><trkpt lat="44.26857552530958" lon="10.949121248850192"><ele>768.0</ele><time>2026-03-28T14:18:56.001Z</time></trkpt><trkpt lat="44.268506393734235" lon="10.949305061578759"><ele>768.0</ele><time>2026-03-28T14:18:57Z</time></trkpt><trkpt lat="44.26845637574994" lon="10.94949750537221"><ele>768.0</ele><time>2026-03-28T14:18:58Z</time></trkpt><trkpt lat="44.26840973526984" lon="10.949671902619109"><ele>768.0</ele><time>2026-03-28T14:18:59Z</time></trkpt><trkpt lat="44.26840295297516" lon="10.949855041966563"><ele>768.0</ele><time>2026-03-28T14:19:00Z</time></trkpt><trkpt lat="44.26841783504609" lon="10.950043325459877"><ele>768.25</ele><time>2026-03-28T14:19:01Z</time></trkpt><trkpt lat="44.268423609420054" lon="10.950245067897312"><ele>768.5</ele><time>2026-03-28T14:19:02Z</time></trkpt><trkpt lat="44.26842660265207" lon="10.950450117327344"><ele>768.75</ele><time>2026-03-28T14:19:03Z</time></trkpt><trkpt lat="44.26841499871781" lon="10.950654467455479"><ele>769.0</ele><time>2026-03-28T14:19:04Z</time></trkpt><trkpt lat="44.26839284390674" lon="10.950856792689901"><ele>769.25</ele><time>2026-03-28T14:19:05Z</time></trkpt><trkpt lat="44.268360913004045" lon="10.951060256470033"><ele>769.5</ele><time>2026-03-28T14:19:06Z</time></trkpt><trkpt lat="44.26832825818207" lon="10.951269158005731"><ele>769.75</ele><time>2026-03-28T14:19:07Z</time></trkpt><trkpt lat="44.26829624419081" lon="10.95146364562626"><ele>770.0</ele><time>2026-03-28T14:19:08Z</time></trkpt><trkpt lat="44.26825966374553" lon="10.951641746088152"><ele>770.0</ele><time>2026-03-28T14:19:09Z</time></trkpt><trkpt lat="44.26820135616649" lon="10.951800896365295"><ele>770.0</ele><time>2026-03-28T14:19:10Z</time></trkpt><trkpt lat="44.26810439183611" lon="10.95192932490442"><ele>770.0</ele><time>2026-03-28T14:19:11Z</time></trkpt><trkpt lat="44.26797271824451" lon="10.95202026269673"><ele>770.0</ele><time>2026-03-28T14:19:12Z</time></trkpt><trkpt lat="44.26782855246654" lon="10.95210649529854"><ele>770.0</ele><time>2026-03-28T14:19:13Z</time></trkpt><trkpt lat="44.26766032895831" lon="10.952214433014923"><ele>770.0</ele><time>2026-03-28T14:19:14Z</time></trkpt><trkpt lat="44.2674697744113" lon="10.95234448313785"><ele>770.0</ele><time>2026-03-28T14:19:15Z</time></trkpt><trkpt lat="44.267274469683095" lon="10.95246167059525"><ele>768.3333333333334</ele><time>2026-03-28T14:19:16Z</time></trkpt><trkpt lat="44.267069936126944" lon="10.952575661009375"><ele>766.6666666666667</ele><time>2026-03-28T14:19:17Z</time></trkpt><trkpt lat="44.26687361909074" lon="10.952670701518505"><ele>765.0</ele><time>2026-03-28T14:19:18Z</time></trkpt><trkpt lat="44.266710585350445" lon="10.95281330419119"><ele>765.0</ele><time>2026-03-28T14:19:19Z</time></trkpt><trkpt lat="44.266543501307034" lon="10.952943591836897"><ele>765.0</ele><time>2026-03-28T14:19:20Z</time></trkpt><trkpt lat="44.266391390527176" lon="10.953082913648489"><ele>765.0</ele><time>2026-03-28T14:19:21Z</time></trkpt><trkpt lat="44.2662492214048" lon="10.953200832159963"><ele>763.5</ele><time>2026-03-28T14:19:22Z</time></trkpt><trkpt lat="44.26609910342987" lon="10.953239629746468"><ele>762.0</ele><time>2026-03-28T14:19:23Z</time></trkpt><trkpt lat="44.26597666543624" lon="10.953333483820005"><ele>760.5</ele><time>2026-03-28T14:19:24Z</time></trkpt><trkpt lat="44.2658568261169" lon="10.953390001229424"><ele>759.0</ele><time>2026-03-28T14:19:25Z</time></trkpt><trkpt lat="44.26574036662624" lon="10.95346675614879"><ele>759.0</ele><time>2026-03-28T14:19:26Z</time></trkpt><trkpt lat="44.26561704383619" lon="10.953573843719854"><ele>759.0</ele><time>2026-03-28T14:19:27Z</time></trkpt><trkpt lat="44.26549415638994" lon="10.953698838751572"><ele>759.0</ele><time>2026-03-28T14:19:28Z</time></trkpt><trkpt lat="44.265387484610685" lon="10.953824708468648"><ele>759.0</ele><time>2026-03-28T14:19:29Z</time></trkpt><trkpt lat="44.265272566786585" lon="10.953960764349784"><ele>756.6666666666666</ele><time>2026-03-28T14:19:30Z</time></trkpt><trkpt lat="44.26514543726617" lon="10.954095973222383"><ele>754.3333333333333</ele><time>2026-03-28T14:19:31Z</time></trkpt><trkpt lat="44.26501027670285" lon="10.954206066184488"><ele>752.0</ele><time>2026-03-28T14:19:32Z</time></trkpt><trkpt lat="44.26486054703767" lon="10.954262545441745"><ele>756.25</ele><time>2026-03-28T14:19:33Z</time></trkpt><trkpt lat="44.26473288100108" lon="10.95426343402162"><ele>760.5</ele><time>2026-03-28T14:19:34Z</time></trkpt><trkpt lat="44.264600982270345" lon="10.954249547256348"><ele>764.75</ele><time>2026-03-28T14:19:35Z</time></trkpt><trkpt lat="44.26445812272482" lon="10.954252036630264"><ele>769.0</ele><time>2026-03-28T14:19:36Z</time></trkpt><trkpt lat="44.26432028521028" lon="10.95428306701712"><ele>769.0</ele><time>2026-03-28T14:19:37Z</time></trkpt><trkpt lat="44.26419282921098" lon="10.954342099429034"><ele>769.0</ele><time>2026-03-28T14:19:38Z</time></trkpt><trkpt lat="44.26409502424715" lon="10.954459700305096"><ele>769.0</ele><time>2026-03-28T14:19:39Z</time></trkpt><trkpt lat="44.264036200226556" lon="10.954626439921128"><ele>769.0</ele><time>2026-03-28T14:19:40Z</time></trkpt><trkpt lat="44.264020034765785" lon="10.954830131036555"><ele>770.3333333333333</ele><time>2026-03-28T14:19:41Z</time></trkpt><trkpt lat="44.26408433343375" lon="10.955056431470947"><ele>771.6666666666667</ele><time>2026-03-28T14:19:42Z</time></trkpt><trkpt lat="44.2641551233203" lon="10.955235359093718"><ele>773.0</ele><time>2026-03-28T14:19:43Z</time></trkpt><trkpt lat="44.26423612614687" lon="10.955393234177718"><ele>773.0</ele><time>2026-03-28T14:19:44Z</time></trkpt><trkpt lat="44.26425730665198" lon="10.955582104545439"><ele>773.0</ele><time>2026-03-28T14:19:45Z</time></trkpt><trkpt lat="44.264283677102355" lon="10.955789985335764"><ele>773.0</ele><time>2026-03-28T14:19:46Z</time></trkpt><trkpt lat="44.26431865452847" lon="10.956001557901162"><ele>773.0</ele><time>2026-03-28T14:19:47Z</time></trkpt><trkpt lat="44.264378750200784" lon="10.956184065487612"><ele>772.25</ele><time>2026-03-28T14:19:48Z</time></trkpt><trkpt lat="44.26441847710093" lon="10.95633814710144"><ele>771.5</ele><time>2026-03-28T14:19:49Z</time></trkpt><trkpt lat="44.26441483095891" lon="10.956485253816323"><ele>770.75</ele><time>2026-03-28T14:19:50Z</time></trkpt><trkpt lat="44.264362617336275" lon="10.956636550190469"><ele>770.0</ele><time>2026-03-28T14:19:51Z</time></trkpt><trkpt lat="44.26428223665656" lon="10.95680488226371"><ele>768.75</ele><time>2026-03-28T14:19:52Z</time></trkpt><trkpt lat="44.26419312161868" lon="10.956989884722077"><ele>767.5</ele><time>2026-03-28T14:19:53Z</time></trkpt><trkpt lat="44.26411253926797" lon="10.957161900750247"><ele>766.25</ele><time>2026-03-28T14:19:54Z</time></trkpt><trkpt lat="44.26402984132022" lon="10.957290961750697"><ele>765.0</ele><time>2026-03-28T14:19:55Z</time></trkpt><trkpt lat="44.263908529072765" lon="10.957341314981662"><ele>765.0</ele><time>2026-03-28T14:19:56Z</time></trkpt><trkpt lat="44.26376112199562" lon="10.957364028805538"><ele>765.0</ele><time>2026-03-28T14:19:57Z</time></trkpt><trkpt lat="44.26359637064242" lon="10.957414507843096"><ele>765.0</ele><time>2026-03-28T14:19:58Z</time></trkpt><trkpt lat="44.263422734912126" lon="10.957442287610078"><ele>765.0</ele><time>2026-03-28T14:19:59Z</time></trkpt><trkpt lat="44.26327287171602" lon="10.957472537423726"><ele>765.0</ele><time>2026-03-28T14:20:00Z</time></trkpt><trkpt lat="44.263137518400214" lon="10.957501586888286"><ele>765.0</ele><time>2026-03-28T14:20:01Z</time></trkpt><trkpt lat="44.263023511715815" lon="10.957566591341338"><ele>765.0</ele><time>2026-03-28T14:20:02Z</time></trkpt><trkpt lat="44.26293236799925" lon="10.95768129594872"><ele>765.25</ele><time>2026-03-28T14:20:03Z</time></trkpt><trkpt lat="44.26287226332911" lon="10.95784454708393"><ele>765.5</ele><time>2026-03-28T14:20:04Z</time></trkpt><trkpt lat="44.262866663548145" lon="10.95802354484121"><ele>765.75</ele><time>2026-03-28T14:20:05Z</time></trkpt><trkpt lat="44.26291411947855" lon="10.9582104013169"><ele>766.0</ele><time>2026-03-28T14:20:06Z</time></trkpt><trkpt lat="44.262977816968906" lon="10.958379177915425"><ele>766.0</ele><time>2026-03-28T14:20:07Z</time></trkpt><trkpt lat="44.26298601697079" lon="10.958535507120647"><ele>766.0</ele><time>2026-03-28T14:20:08Z</time></trkpt><trkpt lat="44.26289569148105" lon="10.958641935682133"><ele>766.0</ele><time>2026-03-28T14:20:09Z</time></trkpt><trkpt lat="44.262789832119935" lon="10.95867998490718"><ele>766.0</ele><time>2026-03-28T14:20:10Z</time></trkpt><trkpt lat="44.26267429477064" lon="10.95877062695678"><ele>766.0</ele><time>2026-03-28T14:20:11Z</time></trkpt><trkpt lat="44.26254491777768" lon="10.958876631684985"><ele>766.0</ele><time>2026-03-28T14:20:12Z</time></trkpt><trkpt lat="44.262437450492286" lon="10.959009937240882"><ele>766.0</ele><time>2026-03-28T14:20:13Z</time></trkpt><trkpt lat="44.26235619011183" lon="10.959152365634962"><ele>766.0</ele><time>2026-03-28T14:20:14Z</time></trkpt><trkpt lat="44.262306086908076" lon="10.959297916485752"><ele>767.0</ele><time>2026-03-28T14:20:15Z</time></trkpt><trkpt lat="44.26229369827251" lon="10.95946195002353"><ele>768.0</ele><time>2026-03-28T14:20:16Z</time></trkpt><trkpt lat="44.26233497460141" lon="10.959642267636037"><ele>769.0</ele><time>2026-03-28T14:20:17Z</time></trkpt><trkpt lat="44.262415637529806" lon="10.959795743452208"><ele>770.0</ele><time>2026-03-28T14:20:18Z</time></trkpt><trkpt lat="44.262528303731216" lon="10.959889078749974"><ele>770.0</ele><time>2026-03-28T14:20:19Z</time></trkpt><trkpt lat="44.26267152945844" lon="10.959905331454868"><ele>770.0</ele><time>2026-03-28T14:20:20Z</time></trkpt><trkpt lat="44.26281202160637" lon="10.959916158434238"><ele>770.0</ele><time>2026-03-28T14:20:21Z</time></trkpt><trkpt lat="44.262932390268844" lon="10.960005412458633"><ele>770.0</ele><time>2026-03-28T14:20:22Z</time></trkpt><trkpt lat="44.26304180656196" lon="10.960101261497046"><ele>771.75</ele><time>2026-03-28T14:20:23Z</time></trkpt><trkpt lat="44.263081497279025" lon="10.960277085180778"><ele>773.5</ele><time>2026-03-28T14:20:24Z</time></trkpt><trkpt lat="44.26309386390209" lon="10.960442000519079"><ele>775.25</ele><time>2026-03-28T14:20:25Z</time></trkpt><trkpt lat="44.26305416319351" lon="10.960598603986531"><ele>777.0</ele><time>2026-03-28T14:20:26Z</time></trkpt><trkpt lat="44.2629878607223" lon="10.960749793170832"><ele>776.75</ele><time>2026-03-28T14:20:27Z</time></trkpt><trkpt lat="44.26291854871082" lon="10.96092846201286"><ele>776.5</ele><time>2026-03-28T14:20:28Z</time></trkpt><trkpt lat="44.262861722595524" lon="10.961093274703286"><ele>776.25</ele><time>2026-03-28T14:20:29Z</time></trkpt><trkpt lat="44.262845032555255" lon="10.961260768976851"><ele>776.0</ele><time>2026-03-28T14:20:30Z</time></trkpt><trkpt lat="44.262871878093364" lon="10.96142877908961"><ele>776.0</ele><time>2026-03-28T14:20:31Z</time></trkpt><trkpt lat="44.26292100222513" lon="10.961584480288893"><ele>776.0</ele><time>2026-03-28T14:20:32Z</time></trkpt><trkpt lat="44.262966782521666" lon="10.961723425628843"><ele>776.0</ele><time>2026-03-28T14:20:33.001Z</time></trkpt><trkpt lat="44.262978891324025" lon="10.961846881767054"><ele>776.0</ele><time>2026-03-28T14:20:34.001Z</time></trkpt><trkpt lat="44.26294227807366" lon="10.961950194781824"><ele>776.0</ele><time>2026-03-28T14:20:35.001Z</time></trkpt><trkpt lat="44.262919104191624" lon="10.962063124355872"><ele>772.5</ele><time>2026-03-28T14:20:36.001Z</time></trkpt><trkpt lat="44.26286013228359" lon="10.96219080150862"><ele>769.0</ele><time>2026-03-28T14:20:37.001Z</time></trkpt><trkpt lat="44.26277734043967" lon="10.96231074021472"><ele>765.5</ele><time>2026-03-28T14:20:38.001Z</time></trkpt><trkpt lat="44.262673421344566" lon="10.962407498538663"><ele>762.0</ele><time>2026-03-28T14:20:39.001Z</time></trkpt><trkpt lat="44.262549649656364" lon="10.962469353165602"><ele>762.75</ele><time>2026-03-28T14:20:40.001Z</time></trkpt><trkpt lat="44.262440496307015" lon="10.962540872480181"><ele>763.5</ele><time>2026-03-28T14:20:41.001Z</time></trkpt><trkpt lat="44.262345392304" lon="10.962660730044016"><ele>764.25</ele><time>2026-03-28T14:20:42.001Z</time></trkpt><trkpt lat="44.262256338694215" lon="10.96283509776568"><ele>765.0</ele><time>2026-03-28T14:20:43.001Z</time></trkpt><trkpt lat="44.26218488762057" lon="10.963030027989628"><ele>765.0</ele><time>2026-03-28T14:20:44.001Z</time></trkpt><trkpt lat="44.262132181873575" lon="10.963201631513124"><ele>765.0</ele><time>2026-03-28T14:20:45.001Z</time></trkpt><trkpt lat="44.26204560262911" lon="10.96331712796427"><ele>765.0</ele><time>2026-03-28T14:20:46.001Z</time></trkpt><trkpt lat="44.26194706154846" lon="10.963439899732398"><ele>765.0</ele><time>2026-03-28T14:20:47.001Z</time></trkpt><trkpt lat="44.261799237656554" lon="10.963471366510577"><ele>766.0</ele><time>2026-03-28T14:20:48.001Z</time></trkpt><trkpt lat="44.26167494997288" lon="10.963557762090188"><ele>767.0</ele><time>2026-03-28T14:20:49.001Z</time></trkpt><trkpt lat="44.2615518126098" lon="10.963636157842629"><ele>768.0</ele><time>2026-03-28T14:20:50.001Z</time></trkpt><trkpt lat="44.26143891983549" lon="10.963774278006891"><ele>769.0</ele><time>2026-03-28T14:20:51.001Z</time></trkpt><trkpt lat="44.26133548272827" lon="10.96394781352042"><ele>769.0</ele><time>2026-03-28T14:20:52.001Z</time></trkpt><trkpt lat="44.26122650709261" lon="10.964128115876875"><ele>769.0</ele><time>2026-03-28T14:20:53.001Z</time></trkpt><trkpt lat="44.26111487992322" lon="10.964300182940937"><ele>769.0</ele><time>2026-03-28T14:20:54.001Z</time></trkpt><trkpt lat="44.26101112592077" lon="10.964456291304355"><ele>766.25</ele><time>2026-03-28T14:20:55.001Z</time></trkpt><trkpt lat="44.26091741278849" lon="10.964588342896556"><ele>763.5</ele><time>2026-03-28T14:20:56.001Z</time></trkpt><trkpt lat="44.26081441326819" lon="10.96466326250434"><ele>760.75</ele><time>2026-03-28T14:20:57.001Z</time></trkpt><trkpt lat="44.2607159828951" lon="10.964700960453493"><ele>758.0</ele><time>2026-03-28T14:20:58.001Z</time></trkpt><trkpt lat="44.26060913821142" lon="10.964677427682968"><ele>765.75</ele><time>2026-03-28T14:20:59.001Z</time></trkpt><trkpt lat="44.260492788994" lon="10.964675856890247"><ele>773.5</ele><time>2026-03-28T14:21:00.001Z</time></trkpt><trkpt lat="44.26038541257176" lon="10.964688374989093"><ele>781.25</ele><time>2026-03-28T14:21:01.001Z</time></trkpt><trkpt lat="44.260290257348366" lon="10.964749595861363"><ele>789.0</ele><time>2026-03-28T14:21:02.001Z</time></trkpt><trkpt lat="44.260210988226866" lon="10.964881405604201"><ele>790.5</ele><time>2026-03-28T14:21:03Z</time></trkpt><trkpt lat="44.26016479327672" lon="10.965042360783556"><ele>792.0</ele><time>2026-03-28T14:21:04Z</time></trkpt><trkpt lat="44.26016203904024" lon="10.965238074675161"><ele>793.5</ele><time>2026-03-28T14:21:05Z</time></trkpt><trkpt lat="44.260184045166795" lon="10.965423710102003"><ele>795.0</ele><time>2026-03-28T14:21:06Z</time></trkpt><trkpt lat="44.26023619847109" lon="10.965597647485891"><ele>795.0</ele><time>2026-03-28T14:21:07Z</time></trkpt><trkpt lat="44.26032603461314" lon="10.965750497518881"><ele>795.0</ele><time>2026-03-28T14:21:08Z</time></trkpt><trkpt lat="44.26046288113995" lon="10.965862945412425"><ele>795.0</ele><time>2026-03-28T14:21:09Z</time></trkpt><trkpt lat="44.26060779075347" lon="10.965967535152716"><ele>790.0</ele><time>2026-03-28T14:21:10Z</time></trkpt><trkpt lat="44.260749814984166" lon="10.9660796954777"><ele>785.0</ele><time>2026-03-28T14:21:11Z</time></trkpt><trkpt lat="44.2608998082942" lon="10.966187387196223"><ele>780.0</ele><time>2026-03-28T14:21:12Z</time></trkpt><trkpt lat="44.261081740421766" lon="10.966262778611133"><ele>780.0</ele><time>2026-03-28T14:21:13Z</time></trkpt><trkpt lat="44.26126609775351" lon="10.966340733152627"><ele>780.0</ele><time>2026-03-28T14:21:14Z</time></trkpt><trkpt lat="44.261428356862766" lon="10.966435621796078"><ele>780.0</ele><time>2026-03-28T14:21:15Z</time></trkpt><trkpt lat="44.26155649906338" lon="10.966578688069799"><ele>778.6666666666667</ele><time>2026-03-28T14:21:16Z</time></trkpt><trkpt lat="44.26169426278899" lon="10.966675990588772"><ele>777.3333333333334</ele><time>2026-03-28T14:21:17Z</time></trkpt><trkpt lat="44.261829458553045" lon="10.96674234874108"><ele>776.0</ele><time>2026-03-28T14:21:18Z</time></trkpt><trkpt lat="44.26199294369551" lon="10.966752210806836"><ele>780.0</ele><time>2026-03-28T14:21:19Z</time></trkpt><trkpt lat="44.262158201073255" lon="10.966760798413706"><ele>784.0</ele><time>2026-03-28T14:21:20Z</time></trkpt><trkpt lat="44.26230236998795" lon="10.966781019392082"><ele>788.0</ele><time>2026-03-28T14:21:21Z</time></trkpt><trkpt lat="44.26242932506933" lon="10.966779757797099"><ele>792.0</ele><time>2026-03-28T14:21:22Z</time></trkpt><trkpt lat="44.2625530560659" lon="10.966711320689452"><ele>788.25</ele><time>2026-03-28T14:21:23Z</time></trkpt><trkpt lat="44.26266869911909" lon="10.966583326283278"><ele>784.5</ele><time>2026-03-28T14:21:24Z</time></trkpt><trkpt lat="44.262746552232954" lon="10.96641330349083"><ele>780.75</ele><time>2026-03-28T14:21:25Z</time></trkpt><trkpt lat="44.262805510696495" lon="10.966265687989765"><ele>777.0</ele><time>2026-03-28T14:21:26Z</time></trkpt><trkpt lat="44.26289253379051" lon="10.966200055391809"><ele>777.0</ele><time>2026-03-28T14:21:27Z</time></trkpt><trkpt lat="44.26298674497861" lon="10.966181494666886"><ele>777.0</ele><time>2026-03-28T14:21:28Z</time></trkpt><trkpt lat="44.26309150202471" lon="10.966197850901564"><ele>777.0</ele><time>2026-03-28T14:21:29Z</time></trkpt><trkpt lat="44.26318585078847" lon="10.966303104743458"><ele>777.0</ele><time>2026-03-28T14:21:30Z</time></trkpt><trkpt lat="44.26322729999977" lon="10.966465459384219"><ele>777.0</ele><time>2026-03-28T14:21:31Z</time></trkpt><trkpt lat="44.26323030403108" lon="10.966633361596816"><ele>778.6666666666667</ele><time>2026-03-28T14:21:32Z</time></trkpt><trkpt lat="44.26323674318798" lon="10.966832691604832"><ele>780.3333333333334</ele><time>2026-03-28T14:21:33Z</time></trkpt><trkpt lat="44.26325634739404" lon="10.967061931751529"><ele>782.0</ele><time>2026-03-28T14:21:34Z</time></trkpt><trkpt lat="44.26326131085488" lon="10.967288636906309"><ele>782.0</ele><time>2026-03-28T14:21:35Z</time></trkpt><trkpt lat="44.263262237555416" lon="10.96751194648151"><ele>782.0</ele><time>2026-03-28T14:21:36Z</time></trkpt><trkpt lat="44.2632732974432" lon="10.967734014215143"><ele>782.0</ele><time>2026-03-28T14:21:37Z</time></trkpt><trkpt lat="44.263292550569325" lon="10.967929599528198"><ele>782.5</ele><time>2026-03-28T14:21:38Z</time></trkpt><trkpt lat="44.26331759196507" lon="10.968101976377355"><ele>783.0</ele><time>2026-03-28T14:21:39Z</time></trkpt><trkpt lat="44.26333122938903" lon="10.968264854760962"><ele>783.5</ele><time>2026-03-28T14:21:40Z</time></trkpt><trkpt lat="44.26332600623947" lon="10.968446903723095"><ele>784.0</ele><time>2026-03-28T14:21:41Z</time></trkpt><trkpt lat="44.26327250711772" lon="10.968637585103963"><ele>785.6666666666666</ele><time>2026-03-28T14:21:42Z</time></trkpt><trkpt lat="44.26319657296137" lon="10.968817217828878"><ele>787.3333333333333</ele><time>2026-03-28T14:21:43Z</time></trkpt><trkpt lat="44.26311434242348" lon="10.96900328050137"><ele>789.0</ele><time>2026-03-28T14:21:44Z</time></trkpt><trkpt lat="44.26303217797441" lon="10.969171028808255"><ele>784.0</ele><time>2026-03-28T14:21:45Z</time></trkpt><trkpt lat="44.2629393355561" lon="10.96931947906466"><ele>779.0</ele><time>2026-03-28T14:21:46Z</time></trkpt><trkpt lat="44.26283320041047" lon="10.969467927490594"><ele>774.0</ele><time>2026-03-28T14:21:47Z</time></trkpt><trkpt lat="44.262723381853306" lon="10.969634188387356"><ele>774.0</ele><time>2026-03-28T14:21:48Z</time></trkpt><trkpt lat="44.26260358479283" lon="10.96976823968193"><ele>774.0</ele><time>2026-03-28T14:21:49Z</time></trkpt><trkpt lat="44.26248108688254" lon="10.96986766403367"><ele>774.0</ele><time>2026-03-28T14:21:50Z</time></trkpt><trkpt lat="44.26238305596523" lon="10.969977531005815"><ele>774.0</ele><time>2026-03-28T14:21:51Z</time></trkpt><trkpt lat="44.26228027172936" lon="10.9700602631947"><ele>777.6</ele><time>2026-03-28T14:21:52Z</time></trkpt><trkpt lat="44.26221176035005" lon="10.970157831459641"><ele>781.2</ele><time>2026-03-28T14:21:53Z</time></trkpt><trkpt lat="44.26218991656688" lon="10.970278826057925"><ele>784.8000000000001</ele><time>2026-03-28T14:21:54Z</time></trkpt><trkpt lat="44.26218075467011" lon="10.970400531137246"><ele>788.4000000000001</ele><time>2026-03-28T14:21:55Z</time></trkpt><trkpt lat="44.2621946042051" lon="10.970554438106184"><ele>792.0</ele><time>2026-03-28T14:21:56Z</time></trkpt><trkpt lat="44.26221999382849" lon="10.97075506983586"><ele>793.3333333333333</ele><time>2026-03-28T14:21:57Z</time></trkpt><trkpt lat="44.26220081444019" lon="10.97098137752657"><ele>794.6666666666666</ele><time>2026-03-28T14:21:58Z</time></trkpt><trkpt lat="44.26217453863074" lon="10.971207165985797"><ele>796.0</ele><time>2026-03-28T14:21:59Z</time></trkpt><trkpt lat="44.26213691097851" lon="10.971409550185257"><ele>796.0</ele><time>2026-03-28T14:22:00Z</time></trkpt><trkpt lat="44.26207925182106" lon="10.971568689138952"><ele>796.0</ele><time>2026-03-28T14:22:01Z</time></trkpt><trkpt lat="44.26200377630842" lon="10.971712268949403"><ele>796.0</ele><time>2026-03-28T14:22:02Z</time></trkpt><trkpt lat="44.26195260621515" lon="10.97187973247443"><ele>796.0</ele><time>2026-03-28T14:22:03Z</time></trkpt><trkpt lat="44.261915032765806" lon="10.972022672694326"><ele>797.3333333333333</ele><time>2026-03-28T14:22:04Z</time></trkpt><trkpt lat="44.261908173681384" lon="10.972198165948196"><ele>798.6666666666667</ele><time>2026-03-28T14:22:05Z</time></trkpt><trkpt lat="44.26191705999502" lon="10.972427972933797"><ele>800.0</ele><time>2026-03-28T14:22:06Z</time></trkpt><trkpt lat="44.26192525935856" lon="10.972698556250919"><ele>800.0</ele><time>2026-03-28T14:22:07Z</time></trkpt><trkpt lat="44.26193264834205" lon="10.972990029037671"><ele>800.0</ele><time>2026-03-28T14:22:08Z</time></trkpt><trkpt lat="44.26193327060059" lon="10.973273936528647"><ele>800.0</ele><time>2026-03-28T14:22:09Z</time></trkpt><trkpt lat="44.2619298842979" lon="10.973525007987343"><ele>800.0</ele><time>2026-03-28T14:22:10Z</time></trkpt><trkpt lat="44.26192031008368" lon="10.973745615184535"><ele>800.0</ele><time>2026-03-28T14:22:11Z</time></trkpt><trkpt lat="44.26189432787019" lon="10.973954584198266"><ele>800.0</ele><time>2026-03-28T14:22:12Z</time></trkpt><trkpt lat="44.26183405948829" lon="10.974168985188587"><ele>798.25</ele><time>2026-03-28T14:22:13Z</time></trkpt><trkpt lat="44.261760303313615" lon="10.974378921538714"><ele>796.5</ele><time>2026-03-28T14:22:14Z</time></trkpt><trkpt lat="44.26167041133003" lon="10.974530175606228"><ele>794.75</ele><time>2026-03-28T14:22:15Z</time></trkpt><trkpt lat="44.261577438525116" lon="10.97462485520185"><ele>793.0</ele><time>2026-03-28T14:22:16Z</time></trkpt><trkpt lat="44.26146182375534" lon="10.974707166268157"><ele>792.25</ele><time>2026-03-28T14:22:17Z</time></trkpt><trkpt lat="44.261345108930065" lon="10.974817713211408"><ele>791.5</ele><time>2026-03-28T14:22:18Z</time></trkpt><trkpt lat="44.261250127973774" lon="10.974924466223912"><ele>790.75</ele><time>2026-03-28T14:22:19Z</time></trkpt><trkpt lat="44.26119303126938" lon="10.975049796226923"><ele>790.0</ele><time>2026-03-28T14:22:20Z</time></trkpt><trkpt lat="44.26115699656495" lon="10.975212054447406"><ele>790.0</ele><time>2026-03-28T14:22:21.001Z</time></trkpt><trkpt lat="44.261139229248506" lon="10.975411949729837"><ele>790.0</ele><time>2026-03-28T14:22:22.001Z</time></trkpt><trkpt lat="44.26113267542454" lon="10.975593552451919"><ele>790.0</ele><time>2026-03-28T14:22:23.001Z</time></trkpt><trkpt lat="44.26112293752277" lon="10.975725429439192"><ele>790.0</ele><time>2026-03-28T14:22:24.001Z</time></trkpt><trkpt lat="44.26108658969331" lon="10.97582922016273"><ele>789.9999999999999</ele><time>2026-03-28T14:22:26.001Z</time></trkpt><trkpt lat="44.26101753886505" lon="10.975830446957367"><ele>790.0</ele><time>2026-03-28T14:22:29.001Z</time></trkpt><trkpt lat="44.260958996706776" lon="10.975891993044792"><ele>790.0</ele><time>2026-03-28T14:22:32.001Z</time></trkpt><trkpt lat="44.260920034310814" lon="10.97582030505875"><ele>790.0</ele><time>2026-03-28T14:22:33.001Z</time></trkpt><trkpt lat="44.26081930496056" lon="10.975701704857553"><ele>789.9999999999999</ele><time>2026-03-28T14:22:35.001Z</time></trkpt><trkpt lat="44.26076306742817" lon="10.975615100397972"><ele>790.0</ele><time>2026-03-28T14:22:36.001Z</time></trkpt><trkpt lat="44.260695221716816" lon="10.975518806416595"><ele>790.0</ele><time>2026-03-28T14:22:37.001Z</time></trkpt><trkpt lat="44.26062151430622" lon="10.975411725734114"><ele>790.0</ele><time>2026-03-28T14:22:38.001Z</time></trkpt><trkpt lat="44.26054332376875" lon="10.975296543359569"><ele>790.0</ele><time>2026-03-28T14:22:39.001Z</time></trkpt><trkpt lat="44.26044861697216" lon="10.975185343999554"><ele>790.0</ele><time>2026-03-28T14:22:40.001Z</time></trkpt><trkpt lat="44.260335820954126" lon="10.975096435010615"><ele>788.0</ele><time>2026-03-28T14:22:41.001Z</time></trkpt><trkpt lat="44.260205508651225" lon="10.975045530319886"><ele>786.0</ele><time>2026-03-28T14:22:42.001Z</time></trkpt><trkpt lat="44.26007248959474" lon="10.974992138322373"><ele>784.0</ele><time>2026-03-28T14:22:43.001Z</time></trkpt><trkpt lat="44.259950389802356" lon="10.974978576130509"><ele>782.0</ele><time>2026-03-28T14:22:44.001Z</time></trkpt><trkpt lat="44.25983762215396" lon="10.974931590840113"><ele>781.1666666666667</ele><time>2026-03-28T14:22:45.001Z</time></trkpt><trkpt lat="44.259733364482535" lon="10.974891250129165"><ele>780.3333333333334</ele><time>2026-03-28T14:22:46.001Z</time></trkpt><trkpt lat="44.25964343121474" lon="10.974868130091828"><ele>779.5</ele><time>2026-03-28T14:22:47.001Z</time></trkpt><trkpt lat="44.2595601811745" lon="10.974878999960174"><ele>778.6666666666667</ele><time>2026-03-28T14:22:48.001Z</time></trkpt><trkpt lat="44.25949962290989" lon="10.974941207127097"><ele>777.8333333333334</ele><time>2026-03-28T14:22:49.001Z</time></trkpt><trkpt lat="44.25946721791824" lon="10.975036608859595"><ele>777.0</ele><time>2026-03-28T14:22:50.001Z</time></trkpt><trkpt lat="44.25946165804164" lon="10.975138665415923"><ele>776.8</ele><time>2026-03-28T14:22:51.001Z</time></trkpt><trkpt lat="44.259476675088" lon="10.975241381106953"><ele>776.6</ele><time>2026-03-28T14:22:52.001Z</time></trkpt><trkpt lat="44.25952525554244" lon="10.975346292525206"><ele>776.4</ele><time>2026-03-28T14:22:53.001Z</time></trkpt><trkpt lat="44.25960123817234" lon="10.975446819274776"><ele>776.1999999999999</ele><time>2026-03-28T14:22:54.001Z</time></trkpt><trkpt lat="44.259690569267065" lon="10.975549029357369"><ele>776.0</ele><time>2026-03-28T14:22:55.001Z</time></trkpt><trkpt lat="44.259765866033845" lon="10.975669798639847"><ele>775.75</ele><time>2026-03-28T14:22:56.001Z</time></trkpt><trkpt lat="44.25979987373891" lon="10.975827676550217"><ele>775.5</ele><time>2026-03-28T14:22:57.001Z</time></trkpt><trkpt lat="44.25984776768605" lon="10.9760110163536"><ele>775.25</ele><time>2026-03-28T14:22:58.001Z</time></trkpt><trkpt lat="44.25988178296556" lon="10.976239881302096"><ele>775.0</ele><time>2026-03-28T14:22:59.001Z</time></trkpt><trkpt lat="44.259933100453644" lon="10.97645103634405"><ele>775.0</ele><time>2026-03-28T14:23:00.001Z</time></trkpt><trkpt lat="44.26000641901575" lon="10.976618675605723"><ele>775.0</ele><time>2026-03-28T14:23:01.001Z</time></trkpt><trkpt lat="44.26008445410314" lon="10.976761576138472"><ele>775.0</ele><time>2026-03-28T14:23:02.001Z</time></trkpt><trkpt lat="44.26015025467163" lon="10.976887266210401"><ele>775.0</ele><time>2026-03-28T14:23:03.001Z</time></trkpt><trkpt lat="44.260183726155546" lon="10.97701381502218"><ele>774.5</ele><time>2026-03-28T14:23:04.001Z</time></trkpt><trkpt lat="44.260216280783936" lon="10.977138979049478"><ele>774.0</ele><time>2026-03-28T14:23:05.001Z</time></trkpt><trkpt lat="44.260218716553084" lon="10.977275725792959"><ele>773.5</ele><time>2026-03-28T14:23:06.001Z</time></trkpt><trkpt lat="44.260207817411455" lon="10.977451229741797"><ele>773.0</ele><time>2026-03-28T14:23:07.001Z</time></trkpt><trkpt lat="44.260195633424225" lon="10.977681709416803"><ele>773.0</ele><time>2026-03-28T14:23:08.001Z</time></trkpt><trkpt lat="44.260168726876984" lon="10.97794341045563"><ele>773.0</ele><time>2026-03-28T14:23:09Z</time></trkpt><trkpt lat="44.260140272296326" lon="10.978215097677241"><ele>773.0</ele><time>2026-03-28T14:23:10Z</time></trkpt><trkpt lat="44.260116829623506" lon="10.978474903967518"><ele>773.3333333333334</ele><time>2026-03-28T14:23:11Z</time></trkpt><trkpt lat="44.26009245600768" lon="10.978710447643577"><ele>773.6666666666667</ele><time>2026-03-28T14:23:12Z</time></trkpt><trkpt lat="44.2600740516622" lon="10.978925379324652"><ele>774.0</ele><time>2026-03-28T14:23:13Z</time></trkpt><trkpt lat="44.26005779646816" lon="10.979130394165079"><ele>773.5</ele><time>2026-03-28T14:23:14Z</time></trkpt><trkpt lat="44.26003584173836" lon="10.9793142561395"><ele>773.0</ele><time>2026-03-28T14:23:15Z</time></trkpt><trkpt lat="44.25998583803231" lon="10.979466540869712"><ele>772.5</ele><time>2026-03-28T14:23:16Z</time></trkpt><trkpt lat="44.2599430680465" lon="10.97960817728309"><ele>772.0</ele><time>2026-03-28T14:23:17Z</time></trkpt><trkpt lat="44.25990132669345" lon="10.979765265070728"><ele>772.0</ele><time>2026-03-28T14:23:18Z</time></trkpt><trkpt lat="44.259825289253115" lon="10.979938627383076"><ele>772.0</ele><time>2026-03-28T14:23:19Z</time></trkpt><trkpt lat="44.25975127594129" lon="10.980149339141056"><ele>772.0</ele><time>2026-03-28T14:23:20Z</time></trkpt><trkpt lat="44.25967453075698" lon="10.980383438000198"><ele>771.3333333333333</ele><time>2026-03-28T14:23:21Z</time></trkpt><trkpt lat="44.25958667738952" lon="10.980614044037438"><ele>770.6666666666667</ele><time>2026-03-28T14:23:22Z</time></trkpt><trkpt lat="44.25951061215486" lon="10.980834175615593"><ele>770.0</ele><time>2026-03-28T14:23:23Z</time></trkpt><trkpt lat="44.25943735187802" lon="10.981029445986708"><ele>770.0</ele><time>2026-03-28T14:23:24Z</time></trkpt><trkpt lat="44.25937310148592" lon="10.981204558525382"><ele>770.0</ele><time>2026-03-28T14:23:25Z</time></trkpt><trkpt lat="44.259308829465866" lon="10.981361164866401"><ele>770.0</ele><time>2026-03-28T14:23:26Z</time></trkpt><trkpt lat="44.259230350259" lon="10.981485752014311"><ele>770.0</ele><time>2026-03-28T14:23:27Z</time></trkpt><trkpt lat="44.25913610525211" lon="10.981562873151102"><ele>770.0</ele><time>2026-03-28T14:23:28Z</time></trkpt><trkpt lat="44.25902949915582" lon="10.981556355856435"><ele>770.0</ele><time>2026-03-28T14:23:29Z</time></trkpt><trkpt lat="44.25891538567493" lon="10.981580116174076"><ele>770.0</ele><time>2026-03-28T14:23:30Z</time></trkpt><trkpt lat="44.2587833840908" lon="10.98163136398001"><ele>770.0</ele><time>2026-03-28T14:23:31Z</time></trkpt><trkpt lat="44.25864019924693" lon="10.981711237623978"><ele>773.6666666666667</ele><time>2026-03-28T14:23:32Z</time></trkpt><trkpt lat="44.25848824239863" lon="10.981847099260646"><ele>777.3333333333333</ele><time>2026-03-28T14:23:33Z</time></trkpt><trkpt lat="44.258335916380304" lon="10.982028639033178"><ele>781.0</ele><time>2026-03-28T14:23:34Z</time></trkpt><trkpt lat="44.258189916331894" lon="10.982213022427535"><ele>780.0</ele><time>2026-03-28T14:23:35Z</time></trkpt><trkpt lat="44.25805439179595" lon="10.982366402549129"><ele>779.0</ele><time>2026-03-28T14:23:36Z</time></trkpt><trkpt lat="44.25792153030726" lon="10.982471860193659"><ele>778.0</ele><time>2026-03-28T14:23:37Z</time></trkpt><trkpt lat="44.257799948142114" lon="10.98256357030692"><ele>778.0</ele><time>2026-03-28T14:23:38Z</time></trkpt><trkpt lat="44.25768199580316" lon="10.982650578322403"><ele>778.0</ele><time>2026-03-28T14:23:39Z</time></trkpt><trkpt lat="44.257538873603885" lon="10.982665388601587"><ele>778.0</ele><time>2026-03-28T14:23:40Z</time></trkpt><trkpt lat="44.257377608972256" lon="10.982652268551591"><ele>778.0</ele><time>2026-03-28T14:23:41Z</time></trkpt><trkpt lat="44.257213433078185" lon="10.982630645493769"><ele>776.25</ele><time>2026-03-28T14:23:42Z</time></trkpt><trkpt lat="44.25705672702988" lon="10.98261448786746"><ele>774.5</ele><time>2026-03-28T14:23:43Z</time></trkpt><trkpt lat="44.25691962332618" lon="10.982555988575797"><ele>772.75</ele><time>2026-03-28T14:23:44Z</time></trkpt><trkpt lat="44.25679029663985" lon="10.982540741581403"><ele>771.0</ele><time>2026-03-28T14:23:45Z</time></trkpt><trkpt lat="44.256672328489955" lon="10.982532216181424"><ele>771.0</ele><time>2026-03-28T14:23:46Z</time></trkpt><trkpt lat="44.25654165738204" lon="10.98257089465067"><ele>771.0</ele><time>2026-03-28T14:23:47Z</time></trkpt><trkpt lat="44.256401176651124" lon="10.982664518247315"><ele>771.0</ele><time>2026-03-28T14:23:48Z</time></trkpt><trkpt lat="44.256257862497584" lon="10.982788425828861"><ele>769.0</ele><time>2026-03-28T14:23:49Z</time></trkpt><trkpt lat="44.256109919211475" lon="10.982906894964362"><ele>767.0</ele><time>2026-03-28T14:23:50Z</time></trkpt><trkpt lat="44.255961025492866" lon="10.982999983768284"><ele>765.0</ele><time>2026-03-28T14:23:51Z</time></trkpt><trkpt lat="44.2558294018048" lon="10.983103370182244"><ele>765.0</ele><time>2026-03-28T14:23:52Z</time></trkpt><trkpt lat="44.255726508870836" lon="10.983243357629227"><ele>765.0</ele><time>2026-03-28T14:23:53Z</time></trkpt><trkpt lat="44.25564403089973" lon="10.983421042261552"><ele>765.0</ele><time>2026-03-28T14:23:54Z</time></trkpt><trkpt lat="44.255563043215886" lon="10.983593399299318"><ele>765.0</ele><time>2026-03-28T14:23:55Z</time></trkpt><trkpt lat="44.25543308975602" lon="10.98369782248692"><ele>763.75</ele><time>2026-03-28T14:23:56Z</time></trkpt><trkpt lat="44.2553019606392" lon="10.983791136238375"><ele>762.5</ele><time>2026-03-28T14:23:57Z</time></trkpt><trkpt lat="44.2551983469142" lon="10.983915308425692"><ele>761.25</ele><time>2026-03-28T14:23:58Z</time></trkpt><trkpt lat="44.255106323219806" lon="10.984015576486938"><ele>760.0</ele><time>2026-03-28T14:23:59Z</time></trkpt><trkpt lat="44.255031833995154" lon="10.984090074815803"><ele>760.0</ele><time>2026-03-28T14:24:00Z</time></trkpt><trkpt lat="44.25492447700818" lon="10.983989045616681"><ele>760.0</ele><time>2026-03-28T14:24:01Z</time></trkpt><trkpt lat="44.25485147189598" lon="10.984024867257828"><ele>760.0</ele><time>2026-03-28T14:24:02Z</time></trkpt><trkpt lat="44.254734174525524" lon="10.98411690188572"><ele>760.0</ele><time>2026-03-28T14:24:03Z</time></trkpt><trkpt lat="44.254596513096544" lon="10.984212987916845"><ele>759.0</ele><time>2026-03-28T14:24:04Z</time></trkpt><trkpt lat="44.25445719671174" lon="10.984280319800368"><ele>758.0</ele><time>2026-03-28T14:24:05Z</time></trkpt><trkpt lat="44.254328630384265" lon="10.984290144753675"><ele>757.0</ele><time>2026-03-28T14:24:06Z</time></trkpt><trkpt lat="44.25418053784668" lon="10.984269947204158"><ele>756.0</ele><time>2026-03-28T14:24:07Z</time></trkpt><trkpt lat="44.253991326007316" lon="10.984259461767452"><ele>755.6666666666666</ele><time>2026-03-28T14:24:08Z</time></trkpt><trkpt lat="44.253796363000944" lon="10.984327500022232"><ele>755.3333333333333</ele><time>2026-03-28T14:24:09Z</time></trkpt><trkpt lat="44.25361005497092" lon="10.984330868216906"><ele>755.0</ele><time>2026-03-28T14:24:10Z</time></trkpt><trkpt lat="44.253402127559454" lon="10.984293969484575"><ele>755.0</ele><time>2026-03-28T14:24:11Z</time></trkpt><trkpt lat="44.253158865536285" lon="10.984241170316155"><ele>755.0</ele><time>2026-03-28T14:24:12Z</time></trkpt><trkpt lat="44.252931798717356" lon="10.984198600371755"><ele>754.3333333333333</ele><time>2026-03-28T14:24:13Z</time></trkpt><trkpt lat="44.25274163500863" lon="10.984181545920125"><ele>753.6666666666666</ele><time>2026-03-28T14:24:14Z</time></trkpt><trkpt lat="44.2525684159249" lon="10.98411424217594"><ele>753.0</ele><time>2026-03-28T14:24:15Z</time></trkpt><trkpt lat="44.25240031554411" lon="10.9841022829207"><ele>754.75</ele><time>2026-03-28T14:24:16Z</time></trkpt><trkpt lat="44.252254100548974" lon="10.984087765292424"><ele>756.5</ele><time>2026-03-28T14:24:17Z</time></trkpt><trkpt lat="44.25212318056381" lon="10.984088349232584"><ele>758.25</ele><time>2026-03-28T14:24:18Z</time></trkpt><trkpt lat="44.25201587898977" lon="10.984163435099827"><ele>760.0</ele><time>2026-03-28T14:24:19Z</time></trkpt><trkpt lat="44.25192784326182" lon="10.984229643725309"><ele>760.0</ele><time>2026-03-28T14:24:20Z</time></trkpt><trkpt lat="44.251841049133795" lon="10.984298254234801"><ele>760.0</ele><time>2026-03-28T14:24:21Z</time></trkpt><trkpt lat="44.2517417772671" lon="10.984288980591788"><ele>760.0</ele><time>2026-03-28T14:24:22Z</time></trkpt><trkpt lat="44.25165024606207" lon="10.984224189317052"><ele>760.0</ele><time>2026-03-28T14:24:23Z</time></trkpt><trkpt lat="44.251553898290695" lon="10.984114847214741"><ele>760.0</ele><time>2026-03-28T14:24:24Z</time></trkpt><trkpt lat="44.251430378078744" lon="10.984008970809459"><ele>767.0</ele><time>2026-03-28T14:24:25Z</time></trkpt><trkpt lat="44.251303805987185" lon="10.983930289945908"><ele>774.0</ele><time>2026-03-28T14:24:26Z</time></trkpt><trkpt lat="44.25120428043452" lon="10.983886734779533"><ele>781.0</ele><time>2026-03-28T14:24:27Z</time></trkpt><trkpt lat="44.25112482435326" lon="10.983899652989399"><ele>788.0</ele><time>2026-03-28T14:24:28Z</time></trkpt><trkpt lat="44.2510570982608" lon="10.983939425539706"><ele>795.0</ele><time>2026-03-28T14:24:29Z</time></trkpt><trkpt lat="44.250989492027706" lon="10.983967894036482"><ele>795.0</ele><time>2026-03-28T14:24:30.001Z</time></trkpt><trkpt lat="44.250955576775546" lon="10.984106787661347"><ele>795.0</ele><time>2026-03-28T14:24:31.001Z</time></trkpt><trkpt lat="44.250943592742026" lon="10.984247469736324"><ele>795.0</ele><time>2026-03-28T14:24:32.001Z</time></trkpt><trkpt lat="44.25097681726495" lon="10.984400504602876"><ele>795.0</ele><time>2026-03-28T14:24:33.001Z</time></trkpt><trkpt lat="44.25102827153989" lon="10.9845492084736"><ele>795.0</ele><time>2026-03-28T14:24:34.001Z</time></trkpt><trkpt lat="44.25107581823425" lon="10.98467173156631"><ele>793.0</ele><time>2026-03-28T14:24:35.001Z</time></trkpt><trkpt lat="44.251084182486785" lon="10.984778921370335"><ele>791.0</ele><time>2026-03-28T14:24:36.001Z</time></trkpt><trkpt lat="44.251046788400366" lon="10.984879266673081"><ele>789.0</ele><time>2026-03-28T14:24:37.001Z</time></trkpt><trkpt lat="44.25097057202772" lon="10.984942905385617"><ele>787.0</ele><time>2026-03-28T14:24:38.001Z</time></trkpt><trkpt lat="44.250881602540495" lon="10.984965686293345"><ele>785.0</ele><time>2026-03-28T14:24:39.001Z</time></trkpt><trkpt lat="44.250789839826545" lon="10.984932469434664"><ele>783.0</ele><time>2026-03-28T14:24:40.001Z</time></trkpt><trkpt lat="44.25066788788136" lon="10.984911237235432"><ele>782.75</ele><time>2026-03-28T14:24:41.001Z</time></trkpt><trkpt lat="44.25054061450781" lon="10.984923110320594"><ele>782.5</ele><time>2026-03-28T14:24:42.001Z</time></trkpt><trkpt lat="44.25042530498334" lon="10.984930505220344"><ele>782.25</ele><time>2026-03-28T14:24:43.001Z</time></trkpt><trkpt lat="44.25031858111025" lon="10.984983937608604"><ele>782.0</ele><time>2026-03-28T14:24:44.001Z</time></trkpt><trkpt lat="44.25022703327401" lon="10.98509387282585"><ele>782.0</ele><time>2026-03-28T14:24:45.001Z</time></trkpt><trkpt lat="44.25015983602081" lon="10.985238942193165"><ele>782.0</ele><time>2026-03-28T14:24:46.001Z</time></trkpt><trkpt lat="44.25013086089032" lon="10.985384811466936"><ele>782.0</ele><time>2026-03-28T14:24:47.001Z</time></trkpt><trkpt lat="44.250115927177234" lon="10.985504106587413"><ele>782.0</ele><time>2026-03-28T14:24:48.001Z</time></trkpt><trkpt lat="44.250087279357594" lon="10.985584186697707"><ele>782.0</ele><time>2026-03-28T14:24:49.001Z</time></trkpt><trkpt lat="44.250011874231156" lon="10.985597455619935"><ele>782.0</ele><time>2026-03-28T14:24:50.001Z</time></trkpt><trkpt lat="44.24992396848025" lon="10.985644532486107"><ele>782.0</ele><time>2026-03-28T14:24:51.001Z</time></trkpt><trkpt lat="44.24980782993019" lon="10.985697114159395"><ele>782.0</ele><time>2026-03-28T14:24:52.001Z</time></trkpt><trkpt lat="44.249670147466205" lon="10.985756349173018"><ele>782.0</ele><time>2026-03-28T14:24:53.001Z</time></trkpt><trkpt lat="44.24951654321846" lon="10.985808734917049"><ele>782.3333333333334</ele><time>2026-03-28T14:24:54.001Z</time></trkpt><trkpt lat="44.24934877646937" lon="10.985848452556658"><ele>782.6666666666667</ele><time>2026-03-28T14:24:55.001Z</time></trkpt><trkpt lat="44.24917912451498" lon="10.985903119713983"><ele>783.0</ele><time>2026-03-28T14:24:56.001Z</time></trkpt><trkpt lat="44.24902434777835" lon="10.985929914537333"><ele>786.0</ele><time>2026-03-28T14:24:57.001Z</time></trkpt><trkpt lat="44.24889056190376" lon="10.985959957562406"><ele>789.0</ele><time>2026-03-28T14:24:58.001Z</time></trkpt><trkpt lat="44.24877275829485" lon="10.985982402577557"><ele>792.0</ele><time>2026-03-28T14:24:59.001Z</time></trkpt><trkpt lat="44.24865570288236" lon="10.986014614487175"><ele>795.0</ele><time>2026-03-28T14:25:00.001Z</time></trkpt><trkpt lat="44.248542995097715" lon="10.986062298051987"><ele>795.0</ele><time>2026-03-28T14:25:01.001Z</time></trkpt><trkpt lat="44.24842846838669" lon="10.986149783521963"><ele>795.0</ele><time>2026-03-28T14:25:02.001Z</time></trkpt><trkpt lat="44.248325129197724" lon="10.986264940808367"><ele>795.0</ele><time>2026-03-28T14:25:03.001Z</time></trkpt><trkpt lat="44.248230623970166" lon="10.986410728212025"><ele>795.0</ele><time>2026-03-28T14:25:04.001Z</time></trkpt><trkpt lat="44.24814428800125" lon="10.986559229325328"><ele>791.75</ele><time>2026-03-28T14:25:05.001Z</time></trkpt><trkpt lat="44.24806852458372" lon="10.986721208574876"><ele>788.5</ele><time>2026-03-28T14:25:06.001Z</time></trkpt><trkpt lat="44.248002990856044" lon="10.986891622849269"><ele>785.25</ele><time>2026-03-28T14:25:07.001Z</time></trkpt><trkpt lat="44.24793587345792" lon="10.98706446826661"><ele>782.0</ele><time>2026-03-28T14:25:08.001Z</time></trkpt><trkpt lat="44.247896192709305" lon="10.98726834074334"><ele>782.0</ele><time>2026-03-28T14:25:09.001Z</time></trkpt><trkpt lat="44.247877627869435" lon="10.987464017514954"><ele>782.0</ele><time>2026-03-28T14:25:10.001Z</time></trkpt><trkpt lat="44.24785655916917" lon="10.987639107534337"><ele>782.0</ele><time>2026-03-28T14:25:11.001Z</time></trkpt><trkpt lat="44.247850203806955" lon="10.987817211694997"><ele>782.0</ele><time>2026-03-28T14:25:12.001Z</time></trkpt><trkpt lat="44.24780752962042" lon="10.987973519993826"><ele>784.0</ele><time>2026-03-28T14:25:13.001Z</time></trkpt><trkpt lat="44.24772254157138" lon="10.988128071315199"><ele>786.0</ele><time>2026-03-28T14:25:14.001Z</time></trkpt><trkpt lat="44.24761268771401" lon="10.98827164623702"><ele>788.0</ele><time>2026-03-28T14:25:15Z</time></trkpt><trkpt lat="44.24750059060198" lon="10.988379387085734"><ele>790.0</ele><time>2026-03-28T14:25:16Z</time></trkpt><trkpt lat="44.24744454232142" lon="10.988537807172566"><ele>793.25</ele><time>2026-03-28T14:25:17Z</time></trkpt><trkpt lat="44.247407195307325" lon="10.988719730066315"><ele>796.5</ele><time>2026-03-28T14:25:18Z</time></trkpt><trkpt lat="44.247374004756374" lon="10.988922008642566"><ele>799.75</ele><time>2026-03-28T14:25:19Z</time></trkpt><trkpt lat="44.2473215470433" lon="10.989096402585327"><ele>803.0</ele><time>2026-03-28T14:25:20Z</time></trkpt><trkpt lat="44.247262633101656" lon="10.98925168444282"><ele>797.8</ele><time>2026-03-28T14:25:21Z</time></trkpt><trkpt lat="44.247191666499944" lon="10.989384478020988"><ele>792.5999999999999</ele><time>2026-03-28T14:25:22Z</time></trkpt><trkpt lat="44.247111937296694" lon="10.989478372595446"><ele>787.4000000000001</ele><time>2026-03-28T14:25:23Z</time></trkpt><trkpt lat="44.247045224734464" lon="10.989559905639736"><ele>782.2</ele><time>2026-03-28T14:25:24Z</time></trkpt><trkpt lat="44.2469847718306" lon="10.989631791573204"><ele>777.0</ele><time>2026-03-28T14:25:25Z</time></trkpt><trkpt lat="44.2469301481297" lon="10.989717292411996"><ele>777.0</ele><time>2026-03-28T14:25:26Z</time></trkpt><trkpt lat="44.24691727908478" lon="10.989841295091999"><ele>777.0</ele><time>2026-03-28T14:25:27Z</time></trkpt><trkpt lat="44.246893714288454" lon="10.989952863299555"><ele>777.0</ele><time>2026-03-28T14:25:28Z</time></trkpt><trkpt lat="44.2468688188904" lon="10.990064572736769"><ele>777.0</ele><time>2026-03-28T14:25:29Z</time></trkpt><trkpt lat="44.246810639794106" lon="10.990212626776497"><ele>777.0</ele><time>2026-03-28T14:25:30Z</time></trkpt><trkpt lat="44.24677461023625" lon="10.990393975872868"><ele>774.4000000000001</ele><time>2026-03-28T14:25:31Z</time></trkpt><trkpt lat="44.24671635404769" lon="10.99053629604054"><ele>771.8000000000001</ele><time>2026-03-28T14:25:32Z</time></trkpt><trkpt lat="44.24664731990742" lon="10.990658036642715"><ele>769.2</ele><time>2026-03-28T14:25:33Z</time></trkpt><trkpt lat="44.24659120562909" lon="10.990782748850368"><ele>766.6</ele><time>2026-03-28T14:25:34Z</time></trkpt><trkpt lat="44.24649972229267" lon="10.990846588059215"><ele>764.0</ele><time>2026-03-28T14:25:35Z</time></trkpt><trkpt lat="44.24640435381724" lon="10.990877637381697"><ele>764.0</ele><time>2026-03-28T14:25:36Z</time></trkpt><trkpt lat="44.246317404082404" lon="10.990911887393047"><ele>764.0</ele><time>2026-03-28T14:25:37Z</time></trkpt><trkpt lat="44.24625822623813" lon="10.990995398740097"><ele>764.0</ele><time>2026-03-28T14:25:38Z</time></trkpt><trkpt lat="44.24623166340093" lon="10.99110760154071"><ele>764.0</ele><time>2026-03-28T14:25:39Z</time></trkpt><trkpt lat="44.246267849278276" lon="10.991257399455096"><ele>764.0</ele><time>2026-03-28T14:25:40Z</time></trkpt><trkpt lat="44.24627862489219" lon="10.991392232655073"><ele>764.0</ele><time>2026-03-28T14:25:41Z</time></trkpt><trkpt lat="44.2462650554463" lon="10.991527142842406"><ele>764.0</ele><time>2026-03-28T14:25:42Z</time></trkpt><trkpt lat="44.24621250077927" lon="10.991635437758783"><ele>764.0</ele><time>2026-03-28T14:25:43Z</time></trkpt><trkpt lat="44.2461205226154" lon="10.991717955122809"><ele>764.0</ele><time>2026-03-28T14:25:44Z</time></trkpt><trkpt lat="44.246001100745424" lon="10.991794716557616"><ele>764.0</ele><time>2026-03-28T14:25:45Z</time></trkpt><trkpt lat="44.24586832186809" lon="10.991827379693769"><ele>760.75</ele><time>2026-03-28T14:25:46Z</time></trkpt><trkpt lat="44.24574539436654" lon="10.99186813873052"><ele>757.5</ele><time>2026-03-28T14:25:47Z</time></trkpt><trkpt lat="44.24564264270472" lon="10.991941721775328"><ele>754.25</ele><time>2026-03-28T14:25:48Z</time></trkpt><trkpt lat="44.245565891546974" lon="10.99205486046353"><ele>751.0</ele><time>2026-03-28T14:25:49Z</time></trkpt><trkpt lat="44.2455239623702" lon="10.992196447698271"><ele>751.0</ele><time>2026-03-28T14:25:50Z</time></trkpt><trkpt lat="44.24547628267981" lon="10.992309213909962"><ele>751.0</ele><time>2026-03-28T14:25:51Z</time></trkpt><trkpt lat="44.24540624747901" lon="10.992378914248297"><ele>751.0</ele><time>2026-03-28T14:25:52Z</time></trkpt><trkpt lat="44.24531377703909" lon="10.992457738433957"><ele>751.0</ele><time>2026-03-28T14:25:53Z</time></trkpt><trkpt lat="44.24520465231924" lon="10.992554406776183"><ele>751.0</ele><time>2026-03-28T14:25:54Z</time></trkpt><trkpt lat="44.24510989045851" lon="10.992649719533789"><ele>750.0</ele><time>2026-03-28T14:25:55Z</time></trkpt><trkpt lat="44.24505503176917" lon="10.992765732597979"><ele>749.0</ele><time>2026-03-28T14:25:56Z</time></trkpt><trkpt lat="44.24500903721288" lon="10.992860579814803"><ele>748.0</ele><time>2026-03-28T14:25:57Z</time></trkpt><trkpt lat="44.24504882895889" lon="10.993000456895512"><ele>747.0</ele><time>2026-03-28T14:25:58Z</time></trkpt><trkpt lat="44.245111504201276" lon="10.993101603855273"><ele>746.0</ele><time>2026-03-28T14:25:59Z</time></trkpt><trkpt lat="44.24520736731584" lon="10.993158055838615"><ele>746.0</ele><time>2026-03-28T14:26:00Z</time></trkpt><trkpt lat="44.24533935380294" lon="10.993159983738275"><ele>746.0</ele><time>2026-03-28T14:26:01Z</time></trkpt><trkpt lat="44.24549458230115" lon="10.993144892453657"><ele>746.0</ele><time>2026-03-28T14:26:02Z</time></trkpt><trkpt lat="44.245670023294515" lon="10.993169387273017"><ele>750.3333333333333</ele><time>2026-03-28T14:26:03Z</time></trkpt><trkpt lat="44.24587207370489" lon="10.993226463814544"><ele>754.6666666666666</ele><time>2026-03-28T14:26:04Z</time></trkpt><trkpt lat="44.24608783280694" lon="10.99326518408468"><ele>759.0</ele><time>2026-03-28T14:26:05Z</time></trkpt><trkpt lat="44.246288052461395" lon="10.993313041225337"><ele>746.3333333333334</ele><time>2026-03-28T14:26:06Z</time></trkpt><trkpt lat="44.246468786828245" lon="10.993358671007696"><ele>733.6666666666667</ele><time>2026-03-28T14:26:07Z</time></trkpt><trkpt lat="44.246642387471056" lon="10.99336611028399"><ele>721.0</ele><time>2026-03-28T14:26:08Z</time></trkpt><trkpt lat="44.24680421894361" lon="10.993365580204259"><ele>721.0</ele><time>2026-03-28T14:26:09Z</time></trkpt><trkpt lat="44.2469419555199" lon="10.993357545958373"><ele>721.0</ele><time>2026-03-28T14:26:10Z</time></trkpt><trkpt lat="44.24706203053892" lon="10.993373576427757"><ele>721.0</ele><time>2026-03-28T14:26:11Z</time></trkpt><trkpt lat="44.24719674233215" lon="10.993411126799037"><ele>721.0</ele><time>2026-03-28T14:26:12Z</time></trkpt><trkpt lat="44.24733675394577" lon="10.993459977830382"><ele>723.25</ele><time>2026-03-28T14:26:13Z</time></trkpt><trkpt lat="44.247477375310666" lon="10.993490874245234"><ele>725.5</ele><time>2026-03-28T14:26:14Z</time></trkpt><trkpt lat="44.24759847113058" lon="10.993540280058664"><ele>727.75</ele><time>2026-03-28T14:26:15Z</time></trkpt><trkpt lat="44.24771095727642" lon="10.993581467508392"><ele>730.0</ele><time>2026-03-28T14:26:16Z</time></trkpt><trkpt lat="44.24778165047866" lon="10.993687458085033"><ele>730.0</ele><time>2026-03-28T14:26:17Z</time></trkpt><trkpt lat="44.24783988786776" lon="10.99379792022934"><ele>730.0</ele><time>2026-03-28T14:26:18Z</time></trkpt><trkpt lat="44.247844245180126" lon="10.993944933169082"><ele>730.0</ele><time>2026-03-28T14:26:19Z</time></trkpt><trkpt lat="44.24782887734554" lon="10.994105844545325"><ele>730.0</ele><time>2026-03-28T14:26:20Z</time></trkpt><trkpt lat="44.24784051433237" lon="10.994316465847342"><ele>727.75</ele><time>2026-03-28T14:26:21Z</time></trkpt><trkpt lat="44.247846345854214" lon="10.994537538679948"><ele>725.5</ele><time>2026-03-28T14:26:22Z</time></trkpt><trkpt lat="44.24788984793716" lon="10.994734329643078"><ele>723.25</ele><time>2026-03-28T14:26:23Z</time></trkpt><trkpt lat="44.24794614496954" lon="10.99490360600376"><ele>721.0</ele><time>2026-03-28T14:26:24Z</time></trkpt><trkpt lat="44.247940852815894" lon="10.995071170311459"><ele>721.0</ele><time>2026-03-28T14:26:25Z</time></trkpt><trkpt lat="44.24790480723901" lon="10.995249461876986"><ele>721.0</ele><time>2026-03-28T14:26:26Z</time></trkpt><trkpt lat="44.24782979493504" lon="10.99544984061097"><ele>721.0</ele><time>2026-03-28T14:26:27Z</time></trkpt><trkpt lat="44.24774971456014" lon="10.995657285791106"><ele>725.25</ele><time>2026-03-28T14:26:28Z</time></trkpt><trkpt lat="44.247660232780056" lon="10.995837718806591"><ele>729.5</ele><time>2026-03-28T14:26:29Z</time></trkpt><trkpt lat="44.24759432565757" lon="10.996019263535153"><ele>733.75</ele><time>2026-03-28T14:26:30Z</time></trkpt><trkpt lat="44.24749661943358" lon="10.996149572216183"><ele>738.0</ele><time>2026-03-28T14:26:31Z</time></trkpt><trkpt lat="44.247391226075116" lon="10.996257714162391"><ele>738.0</ele><time>2026-03-28T14:26:32Z</time></trkpt><trkpt lat="44.24731218811195" lon="10.996396949461266"><ele>738.0</ele><time>2026-03-28T14:26:33Z</time></trkpt><trkpt lat="44.24725387667659" lon="10.99654678555191"><ele>738.0</ele><time>2026-03-28T14:26:34Z</time></trkpt><trkpt lat="44.24723803730115" lon="10.996713447442325"><ele>738.0</ele><time>2026-03-28T14:26:35Z</time></trkpt><trkpt lat="44.24722909767371" lon="10.996865709871777"><ele>733.5999999999999</ele><time>2026-03-28T14:26:36Z</time></trkpt><trkpt lat="44.24719137685091" lon="10.996989244923324"><ele>729.1999999999999</ele><time>2026-03-28T14:26:37.001Z</time></trkpt><trkpt lat="44.247142290404064" lon="10.99709648886212"><ele>724.8</ele><time>2026-03-28T14:26:38.001Z</time></trkpt><trkpt lat="44.24706512539448" lon="10.997182784850496"><ele>720.4</ele><time>2026-03-28T14:26:39.001Z</time></trkpt><trkpt lat="44.246965478452616" lon="10.997234853028475"><ele>716.0</ele><time>2026-03-28T14:26:40.001Z</time></trkpt><trkpt lat="44.24685469439577" lon="10.997291181929771"><ele>716.0</ele><time>2026-03-28T14:26:41.001Z</time></trkpt><trkpt lat="44.246754648280245" lon="10.99738061386053"><ele>716.0</ele><time>2026-03-28T14:26:42.001Z</time></trkpt><trkpt lat="44.246652850413824" lon="10.99746233566831"><ele>716.0</ele><time>2026-03-28T14:26:43.001Z</time></trkpt><trkpt lat="44.246559430570485" lon="10.99759278812262"><ele>716.0</ele><time>2026-03-28T14:26:44.001Z</time></trkpt><trkpt lat="44.246483924440156" lon="10.997733206191517"><ele>717.3333333333333</ele><time>2026-03-28T14:26:45.001Z</time></trkpt><trkpt lat="44.246438537458474" lon="10.997845586579329"><ele>718.6666666666666</ele><time>2026-03-28T14:26:46.001Z</time></trkpt><trkpt lat="44.24642930101653" lon="10.997949372526852"><ele>720.0</ele><time>2026-03-28T14:26:47.001Z</time></trkpt><trkpt lat="44.24644840926097" lon="10.998050886571978"><ele>721.3333333333334</ele><time>2026-03-28T14:26:48.001Z</time></trkpt><trkpt lat="44.246493087061765" lon="10.998146993213087"><ele>722.6666666666667</ele><time>2026-03-28T14:26:49.001Z</time></trkpt><trkpt lat="44.246555606213384" lon="10.99825521117921"><ele>724.0</ele><time>2026-03-28T14:26:50.001Z</time></trkpt><trkpt lat="44.24662601601206" lon="10.998377572943138"><ele>718.0</ele><time>2026-03-28T14:26:51.001Z</time></trkpt><trkpt lat="44.24669547512168" lon="10.99855724022283"><ele>712.0</ele><time>2026-03-28T14:26:52.001Z</time></trkpt><trkpt lat="44.246767926931284" lon="10.998777137154816"><ele>706.0</ele><time>2026-03-28T14:26:53.001Z</time></trkpt><trkpt lat="44.24685122279075" lon="10.998978879681763"><ele>706.0</ele><time>2026-03-28T14:26:54.001Z</time></trkpt><trkpt lat="44.246951190778496" lon="10.999152113849236"><ele>706.0</ele><time>2026-03-28T14:26:55.001Z</time></trkpt><trkpt lat="44.247038676478766" lon="10.999320592836808"><ele>706.0</ele><time>2026-03-28T14:26:56.001Z</time></trkpt><trkpt lat="44.2470762400021" lon="10.999503580520098"><ele>706.0</ele><time>2026-03-28T14:26:57.001Z</time></trkpt><trkpt lat="44.247134869512024" lon="10.999657516921944"><ele>706.25</ele><time>2026-03-28T14:26:58.001Z</time></trkpt><trkpt lat="44.247202561589944" lon="10.999802241727723"><ele>706.5</ele><time>2026-03-28T14:26:59.001Z</time></trkpt><trkpt lat="44.24730854042474" lon="10.99993644335155"><ele>706.75</ele><time>2026-03-28T14:27:00.001Z</time></trkpt><trkpt lat="44.24743549123554" lon="11.000035469212078"><ele>707.0</ele><time>2026-03-28T14:27:01.001Z</time></trkpt><trkpt lat="44.24755822179962" lon="11.000107668059844"><ele>707.0</ele><time>2026-03-28T14:27:02.001Z</time></trkpt><trkpt lat="44.247665334957865" lon="11.00017694184625"><ele>707.0</ele><time>2026-03-28T14:27:03.001Z</time></trkpt><trkpt lat="44.24772747132671" lon="11.000310167105267"><ele>707.0</ele><time>2026-03-28T14:27:04.001Z</time></trkpt><trkpt lat="44.247765858035784" lon="11.000456426385975"><ele>707.0</ele><time>2026-03-28T14:27:05.001Z</time></trkpt><trkpt lat="44.247794162925416" lon="11.000621054699195"><ele>707.0</ele><time>2026-03-28T14:27:06.001Z</time></trkpt><trkpt lat="44.247807353637306" lon="11.000780295501427"><ele>707.0</ele><time>2026-03-28T14:27:07.001Z</time></trkpt><trkpt lat="44.24779849197657" lon="11.000919509691364"><ele>707.0</ele><time>2026-03-28T14:27:08.001Z</time></trkpt><trkpt lat="44.247769415936105" lon="11.001046418371995"><ele>707.0</ele><time>2026-03-28T14:27:09.001Z</time></trkpt><trkpt lat="44.2476590946158" lon="11.001093809148744"><ele>707.0</ele><time>2026-03-28T14:27:10.001Z</time></trkpt><trkpt lat="44.2475494562363" lon="11.00118314360875"><ele>704.0</ele><time>2026-03-28T14:27:11.001Z</time></trkpt><trkpt lat="44.24741992584408" lon="11.001317157532483"><ele>701.0</ele><time>2026-03-28T14:27:12.001Z</time></trkpt><trkpt lat="44.24727696737971" lon="11.001441050215602"><ele>698.0</ele><time>2026-03-28T14:27:13.001Z</time></trkpt><trkpt lat="44.247152819528694" lon="11.00158444984065"><ele>694.0</ele><time>2026-03-28T14:27:14.001Z</time></trkpt><trkpt lat="44.24702017810435" lon="11.00171510432066"><ele>690.0</ele><time>2026-03-28T14:27:15.001Z</time></trkpt><trkpt lat="44.246902464331605" lon="11.001875290774622"><ele>686.0</ele><time>2026-03-28T14:27:16.001Z</time></trkpt><trkpt lat="44.24675566233149" lon="11.001986595170948"><ele>686.0</ele><time>2026-03-28T14:27:17.001Z</time></trkpt><trkpt lat="44.246621447859944" lon="11.002108279150468"><ele>686.0</ele><time>2026-03-28T14:27:18.001Z</time></trkpt><trkpt lat="44.24652040377161" lon="11.002265591708436"><ele>686.0</ele><time>2026-03-28T14:27:19.001Z</time></trkpt><trkpt lat="44.24641768740244" lon="11.002421150578087"><ele>682.6666666666666</ele><time>2026-03-28T14:27:20.001Z</time></trkpt><trkpt lat="44.24632671831427" lon="11.002574136795465"><ele>679.3333333333334</ele><time>2026-03-28T14:27:21Z</time></trkpt><trkpt lat="44.24619809673801" lon="11.002656857588084"><ele>676.0</ele><time>2026-03-28T14:27:22Z</time></trkpt><trkpt lat="44.24604681834639" lon="11.002759813303284"><ele>676.0</ele><time>2026-03-28T14:27:23Z</time></trkpt><trkpt lat="44.24590438531045" lon="11.002887339372654"><ele>676.0</ele><time>2026-03-28T14:27:24Z</time></trkpt><trkpt lat="44.24577002597987" lon="11.003005396571835"><ele>676.0</ele><time>2026-03-28T14:27:25Z</time></trkpt><trkpt lat="44.24566329961094" lon="11.00313564206279"><ele>677.4</ele><time>2026-03-28T14:27:26Z</time></trkpt><trkpt lat="44.24556112064906" lon="11.003254938026929"><ele>678.8</ele><time>2026-03-28T14:27:27Z</time></trkpt><trkpt lat="44.245465162355295" lon="11.003321404486638"><ele>680.1999999999999</ele><time>2026-03-28T14:27:28Z</time></trkpt><trkpt lat="44.24538836420415" lon="11.003365554180787"><ele>681.5999999999999</ele><time>2026-03-28T14:27:29Z</time></trkpt><trkpt lat="44.24528942427715" lon="11.003351141146918"><ele>683.0</ele><time>2026-03-28T14:27:30Z</time></trkpt><trkpt lat="44.245166517415534" lon="11.003280280971738"><ele>675.3333333333333</ele><time>2026-03-28T14:27:31Z</time></trkpt><trkpt lat="44.24500192245612" lon="11.003275477720315"><ele>667.6666666666666</ele><time>2026-03-28T14:27:32Z</time></trkpt><trkpt lat="44.244819898531716" lon="11.003267622553135"><ele>660.0</ele><time>2026-03-28T14:27:33Z</time></trkpt><trkpt lat="44.244660961652016" lon="11.003282477121044"><ele>660.0</ele><time>2026-03-28T14:27:34Z</time></trkpt><trkpt lat="44.24452455158586" lon="11.003257010306319"><ele>660.0</ele><time>2026-03-28T14:27:35Z</time></trkpt><trkpt lat="44.2443970157881" lon="11.003235380487467"><ele>660.0</ele><time>2026-03-28T14:27:36Z</time></trkpt><trkpt lat="44.24427214907593" lon="11.003194969298908"><ele>660.0</ele><time>2026-03-28T14:27:37Z</time></trkpt><trkpt lat="44.24415830318474" lon="11.00314427271225"><ele>660.0</ele><time>2026-03-28T14:27:38Z</time></trkpt><trkpt lat="44.24406150038974" lon="11.003080796791425"><ele>660.0</ele><time>2026-03-28T14:27:39Z</time></trkpt><trkpt lat="44.24400985632364" lon="11.0029644315797"><ele>660.0</ele><time>2026-03-28T14:27:40Z</time></trkpt><trkpt lat="44.24394816028593" lon="11.002849962917526"><ele>660.0</ele><time>2026-03-28T14:27:41Z</time></trkpt><trkpt lat="44.243874593505105" lon="11.002753819086797"><ele>660.0</ele><time>2026-03-28T14:27:42Z</time></trkpt><trkpt lat="44.24380080304599" lon="11.002682353968174"><ele>658.6</ele><time>2026-03-28T14:27:43Z</time></trkpt><trkpt lat="44.24370415938273" lon="11.00265443334237"><ele>657.2</ele><time>2026-03-28T14:27:44Z</time></trkpt><trkpt lat="44.24361139124076" lon="11.002704584611655"><ele>655.8</ele><time>2026-03-28T14:27:45Z</time></trkpt><trkpt lat="44.24355006314133" lon="11.00280188922773"><ele>654.4</ele><time>2026-03-28T14:27:46Z</time></trkpt><trkpt lat="44.243529572441375" lon="11.002937566175587"><ele>653.0</ele><time>2026-03-28T14:27:47Z</time></trkpt><trkpt lat="44.24355306912876" lon="11.003067589493478"><ele>653.0</ele><time>2026-03-28T14:27:48Z</time></trkpt><trkpt lat="44.243601712433865" lon="11.003208192082466"><ele>653.0</ele><time>2026-03-28T14:27:49Z</time></trkpt><trkpt lat="44.24367808184581" lon="11.003378219876092"><ele>653.0</ele><time>2026-03-28T14:27:50Z</time></trkpt><trkpt lat="44.2437610051311" lon="11.003543746172175"><ele>653.0</ele><time>2026-03-28T14:27:51Z</time></trkpt><trkpt lat="44.24383563615117" lon="11.003698103692118"><ele>654.25</ele><time>2026-03-28T14:27:52Z</time></trkpt><trkpt lat="44.2439003496852" lon="11.003848822827516"><ele>655.5</ele><time>2026-03-28T14:27:53Z</time></trkpt><trkpt lat="44.24393879466182" lon="11.004020375337554"><ele>656.75</ele><time>2026-03-28T14:27:54Z</time></trkpt><trkpt lat="44.24396903329578" lon="11.004192094538105"><ele>658.0</ele><time>2026-03-28T14:27:55Z</time></trkpt><trkpt lat="44.24398334518989" lon="11.004371565066467"><ele>655.8</ele><time>2026-03-28T14:27:56Z</time></trkpt><trkpt lat="44.24397309110535" lon="11.004531746558982"><ele>653.5999999999999</ele><time>2026-03-28T14:27:57Z</time></trkpt><trkpt lat="44.243943217898824" lon="11.004668291004185"><ele>651.4000000000001</ele><time>2026-03-28T14:27:58Z</time></trkpt><trkpt lat="44.243888862779336" lon="11.004769580987386"><ele>649.2</ele><time>2026-03-28T14:27:59Z</time></trkpt><trkpt lat="44.24380493042904" lon="11.004822254863234"><ele>647.0</ele><time>2026-03-28T14:28:00Z</time></trkpt><trkpt lat="44.24369183116841" lon="11.004887935020832"><ele>647.0</ele><time>2026-03-28T14:28:01Z</time></trkpt><trkpt lat="44.24355996301069" lon="11.004951759965342"><ele>647.0</ele><time>2026-03-28T14:28:02Z</time></trkpt><trkpt lat="44.243447082955925" lon="11.005023739711946"><ele>647.0</ele><time>2026-03-28T14:28:03Z</time></trkpt><trkpt lat="44.243364478536904" lon="11.005123344727977"><ele>647.0</ele><time>2026-03-28T14:28:04Z</time></trkpt><trkpt lat="44.243279899605575" lon="11.005236363994278"><ele>645.6</ele><time>2026-03-28T14:28:05Z</time></trkpt><trkpt lat="44.24320277455152" lon="11.00536312747947"><ele>644.2</ele><time>2026-03-28T14:28:06Z</time></trkpt><trkpt lat="44.24313619388188" lon="11.00547583329604"><ele>642.8</ele><time>2026-03-28T14:28:07Z</time></trkpt><trkpt lat="44.2430889860091" lon="11.00557934492774"><ele>641.4</ele><time>2026-03-28T14:28:08Z</time></trkpt><trkpt lat="44.24306152149815" lon="11.005719032845807"><ele>640.0</ele><time>2026-03-28T14:28:09Z</time></trkpt><trkpt lat="44.24304649969727" lon="11.005905376732056"><ele>640.0</ele><time>2026-03-28T14:28:10Z</time></trkpt><trkpt lat="44.24303454054254" lon="11.006080226086429"><ele>640.0</ele><time>2026-03-28T14:28:11Z</time></trkpt><trkpt lat="44.243031616495294" lon="11.00623542718893"><ele>640.0</ele><time>2026-03-28T14:28:12Z</time></trkpt><trkpt lat="44.243061045321795" lon="11.006407393819405"><ele>640.0</ele><time>2026-03-28T14:28:13Z</time></trkpt><trkpt lat="44.24313759149042" lon="11.006594392884754"><ele>647.6666666666667</ele><time>2026-03-28T14:28:14Z</time></trkpt><trkpt lat="44.24321570491431" lon="11.006800255215438"><ele>655.3333333333334</ele><time>2026-03-28T14:28:15Z</time></trkpt><trkpt lat="44.24327018930262" lon="11.007022745804063"><ele>663.0</ele><time>2026-03-28T14:28:16Z</time></trkpt><trkpt lat="44.2433046327525" lon="11.007248714634395"><ele>663.0</ele><time>2026-03-28T14:28:17Z</time></trkpt><trkpt lat="44.24333424107451" lon="11.00746160643134"><ele>663.0</ele><time>2026-03-28T14:28:18Z</time></trkpt><trkpt lat="44.243373587266404" lon="11.007665860558562"><ele>663.0</ele><time>2026-03-28T14:28:19Z</time></trkpt><trkpt lat="44.24341373985821" lon="11.007859380098829"><ele>660.0</ele><time>2026-03-28T14:28:20Z</time></trkpt><trkpt lat="44.24345991074365" lon="11.0080682257131"><ele>657.0</ele><time>2026-03-28T14:28:21Z</time></trkpt><trkpt lat="44.24350927171562" lon="11.008258982285405"><ele>654.0</ele><time>2026-03-28T14:28:22Z</time></trkpt><trkpt lat="44.24355448478242" lon="11.00844078102216"><ele>651.0</ele><time>2026-03-28T14:28:23Z</time></trkpt><trkpt lat="44.24357481019647" lon="11.008622627670535"><ele>648.0</ele><time>2026-03-28T14:28:24Z</time></trkpt><trkpt lat="44.24358436934761" lon="11.008799104639968"><ele>645.0</ele><time>2026-03-28T14:28:25Z</time></trkpt><trkpt lat="44.2435692674008" lon="11.008987806538366"><ele>642.0</ele><time>2026-03-28T14:28:26Z</time></trkpt><trkpt lat="44.24354221976616" lon="11.009206004110727"><ele>639.0</ele><time>2026-03-28T14:28:27Z</time></trkpt><trkpt lat="44.243516033819674" lon="11.00941914376312"><ele>638.0</ele><time>2026-03-28T14:28:28Z</time></trkpt><trkpt lat="44.243480019958334" lon="11.00960607143278"><ele>637.0</ele><time>2026-03-28T14:28:29Z</time></trkpt><trkpt lat="44.24341398194201" lon="11.009758348569985"><ele>636.0</ele><time>2026-03-28T14:28:30Z</time></trkpt><trkpt lat="44.243301807446514" lon="11.009866154447966"><ele>635.0</ele><time>2026-03-28T14:28:31Z</time></trkpt><trkpt lat="44.2431879519714" lon="11.009996724451556"><ele>630.5</ele><time>2026-03-28T14:28:32Z</time></trkpt><trkpt lat="44.243089400490284" lon="11.010131625127121"><ele>626.0</ele><time>2026-03-28T14:28:33Z</time></trkpt><trkpt lat="44.24298099790127" lon="11.010228066445869"><ele>621.5</ele><time>2026-03-28T14:28:34Z</time></trkpt><trkpt lat="44.24285791782518" lon="11.010265695983858"><ele>617.0</ele><time>2026-03-28T14:28:35Z</time></trkpt><trkpt lat="44.24275201593774" lon="11.010345552090662"><ele>617.0</ele><time>2026-03-28T14:28:36Z</time></trkpt><trkpt lat="44.24263596372011" lon="11.010420945264812"><ele>617.0</ele><time>2026-03-28T14:28:37Z</time></trkpt><trkpt lat="44.242528888579756" lon="11.010577168694958"><ele>617.0</ele><time>2026-03-28T14:28:38Z</time></trkpt><trkpt lat="44.24242157999292" lon="11.010808410873725"><ele>609.6666666666666</ele><time>2026-03-28T14:28:39Z</time></trkpt><trkpt lat="44.24228857023011" lon="11.011006421687794"><ele>602.3333333333334</ele><time>2026-03-28T14:28:40Z</time></trkpt><trkpt lat="44.242189615427336" lon="11.011193571672495"><ele>595.0</ele><time>2026-03-28T14:28:41Z</time></trkpt><trkpt lat="44.242104253868966" lon="11.011383968270861"><ele>595.0</ele><time>2026-03-28T14:28:42Z</time></trkpt><trkpt lat="44.24205570233239" lon="11.011596328171665"><ele>595.0</ele><time>2026-03-28T14:28:43Z</time></trkpt><trkpt lat="44.242027750387656" lon="11.011814061163074"><ele>595.0</ele><time>2026-03-28T14:28:44Z</time></trkpt><trkpt lat="44.242013709801945" lon="11.012010705007613"><ele>597.25</ele><time>2026-03-28T14:28:45Z</time></trkpt><trkpt lat="44.24196356751277" lon="11.012175318332234"><ele>599.5</ele><time>2026-03-28T14:28:46Z</time></trkpt><trkpt lat="44.24188883737206" lon="11.012295796778744"><ele>601.75</ele><time>2026-03-28T14:28:47Z</time></trkpt><trkpt lat="44.241822855946204" lon="11.012446652699818"><ele>604.0</ele><time>2026-03-28T14:28:48Z</time></trkpt><trkpt lat="44.24165314832542" lon="11.012463746740915"><ele>607.0</ele><time>2026-03-28T14:28:49Z</time></trkpt><trkpt lat="44.24153072313206" lon="11.012525580895831"><ele>610.0</ele><time>2026-03-28T14:28:50Z</time></trkpt><trkpt lat="44.24142962735567" lon="11.012620564734757"><ele>613.0</ele><time>2026-03-28T14:28:51Z</time></trkpt><trkpt lat="44.24133491231121" lon="11.012736323238839"><ele>616.0</ele><time>2026-03-28T14:28:52Z</time></trkpt><trkpt lat="44.24123548183923" lon="11.012844898328158"><ele>612.2</ele><time>2026-03-28T14:28:53Z</time></trkpt><trkpt lat="44.241130609520425" lon="11.01291745108088"><ele>608.4000000000001</ele><time>2026-03-28T14:28:54Z</time></trkpt><trkpt lat="44.2410337430289" lon="11.01298686128922"><ele>604.6</ele><time>2026-03-28T14:28:55Z</time></trkpt><trkpt lat="44.24096977968221" lon="11.013084479649875"><ele>600.8000000000001</ele><time>2026-03-28T14:28:56Z</time></trkpt><trkpt lat="44.24094959288033" lon="11.013209377891513"><ele>597.0</ele><time>2026-03-28T14:28:57Z</time></trkpt><trkpt lat="44.24096647289902" lon="11.013357113522936"><ele>597.0</ele><time>2026-03-28T14:28:58Z</time></trkpt><trkpt lat="44.24100995546958" lon="11.013532697505331"><ele>597.0</ele><time>2026-03-28T14:28:59Z</time></trkpt><trkpt lat="44.241052823454126" lon="11.013707532096369"><ele>597.0</ele><time>2026-03-28T14:29:00Z</time></trkpt><trkpt lat="44.24104485246367" lon="11.013880953682904"><ele>597.0</ele><time>2026-03-28T14:29:01Z</time></trkpt><trkpt lat="44.24100093161471" lon="11.01402305431596"><ele>597.0</ele><time>2026-03-28T14:29:02Z</time></trkpt><trkpt lat="44.24094453869828" lon="11.014170280437792"><ele>597.0</ele><time>2026-03-28T14:29:03Z</time></trkpt><trkpt lat="44.24091326840939" lon="11.014331541595158"><ele>597.0</ele><time>2026-03-28T14:29:04Z</time></trkpt><trkpt lat="44.240895341549326" lon="11.014518887371159"><ele>597.0</ele><time>2026-03-28T14:29:05Z</time></trkpt><trkpt lat="44.240904796781884" lon="11.014716129897645"><ele>597.0</ele><time>2026-03-28T14:29:06Z</time></trkpt><trkpt lat="44.24091152627061" lon="11.014906018964096"><ele>597.0</ele><time>2026-03-28T14:29:07Z</time></trkpt><trkpt lat="44.24090905268995" lon="11.015086048812542"><ele>597.0</ele><time>2026-03-28T14:29:08Z</time></trkpt><trkpt lat="44.240883674762536" lon="11.015259629746405"><ele>597.0</ele><time>2026-03-28T14:29:09Z</time></trkpt><trkpt lat="44.24086827181508" lon="11.015424722148374"><ele>596.6</ele><time>2026-03-28T14:29:10Z</time></trkpt><trkpt lat="44.240849374240284" lon="11.015572817882239"><ele>596.2</ele><time>2026-03-28T14:29:11Z</time></trkpt><trkpt lat="44.240812756800885" lon="11.015704687061932"><ele>595.8</ele><time>2026-03-28T14:29:12Z</time></trkpt><trkpt lat="44.24076964280486" lon="11.015808696866973"><ele>595.4</ele><time>2026-03-28T14:29:13Z</time></trkpt><trkpt lat="44.240722515697676" lon="11.01587491317281"><ele>595.0</ele><time>2026-03-28T14:29:14Z</time></trkpt><trkpt lat="44.24063318861412" lon="11.01586514272173"><ele>594.4</ele><time>2026-03-28T14:29:16Z</time></trkpt><trkpt lat="44.24063667076454" lon="11.015701971157657"><ele>593.8</ele><time>2026-03-28T14:29:18Z</time></trkpt><trkpt lat="44.24066881345379" lon="11.015590317211045"><ele>593.2</ele><time>2026-03-28T14:29:19Z</time></trkpt><trkpt lat="44.24071376576887" lon="11.015451671390602"><ele>592.6</ele><time>2026-03-28T14:29:20Z</time></trkpt><trkpt lat="44.240718087956076" lon="11.015315865506187"><ele>592.0</ele><time>2026-03-28T14:29:21Z</time></trkpt><trkpt lat="44.24070028492026" lon="11.01518556253354"><ele>592.0</ele><time>2026-03-28T14:29:22Z</time></trkpt><trkpt lat="44.24067674763698" lon="11.01505213723734"><ele>592.0</ele><time>2026-03-28T14:29:23.001Z</time></trkpt><trkpt lat="44.24065628278572" lon="11.014920722719982"><ele>592.0</ele><time>2026-03-28T14:29:24.001Z</time></trkpt><trkpt lat="44.240631711873185" lon="11.014765515922527"><ele>592.0</ele><time>2026-03-28T14:29:25.001Z</time></trkpt><trkpt lat="44.24060490539672" lon="11.014597562596006"><ele>592.0</ele><time>2026-03-28T14:29:26.001Z</time></trkpt><trkpt lat="44.240581825653486" lon="11.01444133150077"><ele>587.8333333333334</ele><time>2026-03-28T14:29:27Z</time></trkpt><trkpt lat="44.24055918462875" lon="11.01430531603026"><ele>583.6666666666667</ele><time>2026-03-28T14:29:28Z</time></trkpt><trkpt lat="44.24053269316849" lon="11.014207265377788"><ele>579.5</ele><time>2026-03-28T14:29:29Z</time></trkpt><trkpt lat="44.24047443330073" lon="11.014144669582072"><ele>575.3333333333334</ele><time>2026-03-28T14:29:30Z</time></trkpt><trkpt lat="44.24040294976704" lon="11.014100613627399"><ele>571.1666666666666</ele><time>2026-03-28T14:29:31Z</time></trkpt><trkpt lat="44.240316398411466" lon="11.014155222702705"><ele>567.0</ele><time>2026-03-28T14:29:32Z</time></trkpt><trkpt lat="44.24026588763927" lon="11.014280901590691"><ele>567.0</ele><time>2026-03-28T14:29:33Z</time></trkpt><trkpt lat="44.24021866446435" lon="11.014399891740254"><ele>567.0</ele><time>2026-03-28T14:29:34Z</time></trkpt><trkpt lat="44.2401459250907" lon="11.014515567268559"><ele>567.0</ele><time>2026-03-28T14:29:35Z</time></trkpt><trkpt lat="44.240118359438355" lon="11.01465720307098"><ele>567.0</ele><time>2026-03-28T14:29:36Z</time></trkpt><trkpt lat="44.24010209827196" lon="11.014780046525825"><ele>567.0</ele><time>2026-03-28T14:29:37Z</time></trkpt><trkpt lat="44.240113983278405" lon="11.014933133686695"><ele>567.25</ele><time>2026-03-28T14:29:38Z</time></trkpt><trkpt lat="44.240128027095224" lon="11.015134545544994"><ele>567.5</ele><time>2026-03-28T14:29:39Z</time></trkpt><trkpt lat="44.24011893913746" lon="11.015352579162812"><ele>567.75</ele><time>2026-03-28T14:29:40Z</time></trkpt><trkpt lat="44.24014065297667" lon="11.015532681595301"><ele>568.0</ele><time>2026-03-28T14:29:41Z</time></trkpt><trkpt lat="44.240121317089724" lon="11.01569678568778"><ele>568.5</ele><time>2026-03-28T14:29:42Z</time></trkpt><trkpt lat="44.24008624172633" lon="11.015848754690492"><ele>569.0</ele><time>2026-03-28T14:29:43Z</time></trkpt><trkpt lat="44.24000861314887" lon="11.016014413644985"><ele>569.5</ele><time>2026-03-28T14:29:44Z</time></trkpt><trkpt lat="44.23990782172794" lon="11.016188864016739"><ele>570.0</ele><time>2026-03-28T14:29:45Z</time></trkpt><trkpt lat="44.2398120027915" lon="11.016314874354338"><ele>565.0</ele><time>2026-03-28T14:29:46Z</time></trkpt><trkpt lat="44.239735597462186" lon="11.016388430302433"><ele>560.0</ele><time>2026-03-28T14:29:47Z</time></trkpt><trkpt lat="44.23966914890386" lon="11.016431185903556"><ele>555.0</ele><time>2026-03-28T14:29:48Z</time></trkpt><trkpt lat="44.239561855295655" lon="11.016441942635685"><ele>550.0</ele><time>2026-03-28T14:29:50Z</time></trkpt><trkpt lat="44.23953001195803" lon="11.016310512781828"><ele>545.0</ele><time>2026-03-28T14:29:52Z</time></trkpt><trkpt lat="44.23958039685769" lon="11.016221468561813"><ele>545.0</ele><time>2026-03-28T14:29:53Z</time></trkpt><trkpt lat="44.2396966288449" lon="11.016120916171985"><ele>545.0</ele><time>2026-03-28T14:29:55Z</time></trkpt><trkpt lat="44.2397577709821" lon="11.016041375495748"><ele>545.0</ele><time>2026-03-28T14:29:56Z</time></trkpt><trkpt lat="44.239798382665796" lon="11.015936320474792"><ele>545.0</ele><time>2026-03-28T14:29:57Z</time></trkpt><trkpt lat="44.23981901708649" lon="11.01582286782329"><ele>545.0</ele><time>2026-03-28T14:29:58Z</time></trkpt><trkpt lat="44.23982468301476" lon="11.015706537127498"><ele>544.0</ele><time>2026-03-28T14:29:59Z</time></trkpt><trkpt lat="44.23982729263207" lon="11.015586496139298"><ele>543.0</ele><time>2026-03-28T14:30:00Z</time></trkpt><trkpt lat="44.239816666648125" lon="11.015442752435785"><ele>542.0</ele><time>2026-03-28T14:30:01Z</time></trkpt><trkpt lat="44.23977494961188" lon="11.015287305003081"><ele>541.0</ele><time>2026-03-28T14:30:02Z</time></trkpt><trkpt lat="44.239701853623124" lon="11.015148591739"><ele>540.0</ele><time>2026-03-28T14:30:03Z</time></trkpt><trkpt lat="44.23959587980972" lon="11.015019261182053"><ele>540.5</ele><time>2026-03-28T14:30:04Z</time></trkpt><trkpt lat="44.23948918830547" lon="11.01492322908918"><ele>541.0</ele><time>2026-03-28T14:30:05Z</time></trkpt><trkpt lat="44.23941750127375" lon="11.014815737788332"><ele>541.5</ele><time>2026-03-28T14:30:06Z</time></trkpt><trkpt lat="44.23938637759589" lon="11.014667484862056"><ele>542.0</ele><time>2026-03-28T14:30:07Z</time></trkpt><trkpt lat="44.23935876589685" lon="11.014486149872718"><ele>542.0</ele><time>2026-03-28T14:30:08Z</time></trkpt><trkpt lat="44.23932321214682" lon="11.014304430046312"><ele>542.0</ele><time>2026-03-28T14:30:09Z</time></trkpt><trkpt lat="44.239304586812494" lon="11.014116188863449"><ele>542.0</ele><time>2026-03-28T14:30:10Z</time></trkpt><trkpt lat="44.23930977250265" lon="11.013915091461355"><ele>542.0</ele><time>2026-03-28T14:30:11Z</time></trkpt><trkpt lat="44.23932177196437" lon="11.013728514606617"><ele>540.2</ele><time>2026-03-28T14:30:12Z</time></trkpt><trkpt lat="44.23934817092197" lon="11.013566484952204"><ele>538.4000000000001</ele><time>2026-03-28T14:30:13Z</time></trkpt><trkpt lat="44.23939067605475" lon="11.013455871073829"><ele>536.5999999999999</ele><time>2026-03-28T14:30:14Z</time></trkpt><trkpt lat="44.239413318614744" lon="11.013370849888249"><ele>534.8</ele><time>2026-03-28T14:30:15Z</time></trkpt><trkpt lat="44.239361620783235" lon="11.013237997638816"><ele>533.0</ele><time>2026-03-28T14:30:17Z</time></trkpt><trkpt lat="44.239295643382896" lon="11.013218041823434"><ele>533.0</ele><time>2026-03-28T14:30:18Z</time></trkpt><trkpt lat="44.23923045428534" lon="11.013268891981962"><ele>533.0</ele><time>2026-03-28T14:30:19Z</time></trkpt><trkpt lat="44.239208938773" lon="11.01337734010961"><ele>533.0</ele><time>2026-03-28T14:30:20Z</time></trkpt><trkpt lat="44.23918482806546" lon="11.013461105721294"><ele>533.0</ele><time>2026-03-28T14:30:21Z</time></trkpt><trkpt lat="44.23912586084235" lon="11.013553282398632"><ele>533.0</ele><time>2026-03-28T14:30:22Z</time></trkpt><trkpt lat="44.23904765000356" lon="11.013662797638107"><ele>533.0</ele><time>2026-03-28T14:30:23Z</time></trkpt><trkpt lat="44.23894708880233" lon="11.013787758346565"><ele>527.25</ele><time>2026-03-28T14:30:24Z</time></trkpt><trkpt lat="44.23885243387068" lon="11.01390927465355"><ele>521.5</ele><time>2026-03-28T14:30:25Z</time></trkpt><trkpt lat="44.2387755742989" lon="11.014034407144619"><ele>515.75</ele><time>2026-03-28T14:30:26Z</time></trkpt><trkpt lat="44.23873098793661" lon="11.014191975208803"><ele>510.0</ele><time>2026-03-28T14:30:27Z</time></trkpt><trkpt lat="44.238766108845056" lon="11.014351809278379"><ele>510.0</ele><time>2026-03-28T14:30:28Z</time></trkpt><trkpt lat="44.238813832573356" lon="11.014491988154921"><ele>510.0</ele><time>2026-03-28T14:30:29Z</time></trkpt><trkpt lat="44.23888541745333" lon="11.01463507783934"><ele>510.0</ele><time>2026-03-28T14:30:30Z</time></trkpt><trkpt lat="44.238947225666344" lon="11.014757468711828"><ele>510.0</ele><time>2026-03-28T14:30:31Z</time></trkpt><trkpt lat="44.23897224261551" lon="11.014891096025845"><ele>510.0</ele><time>2026-03-28T14:30:32Z</time></trkpt><trkpt lat="44.238963372481884" lon="11.015025434237529"><ele>510.75</ele><time>2026-03-28T14:30:33Z</time></trkpt><trkpt lat="44.238908514380505" lon="11.015131376049746"><ele>511.5</ele><time>2026-03-28T14:30:34Z</time></trkpt><trkpt lat="44.23885087331387" lon="11.01522679851081"><ele>512.25</ele><time>2026-03-28T14:30:35Z</time></trkpt><trkpt lat="44.238787149695845" lon="11.015364297104561"><ele>513.0</ele><time>2026-03-28T14:30:36Z</time></trkpt><trkpt lat="44.238711321113456" lon="11.015556204877264"><ele>513.0</ele><time>2026-03-28T14:30:37Z</time></trkpt><trkpt lat="44.238614031176276" lon="11.015745653988173"><ele>513.0</ele><time>2026-03-28T14:30:38Z</time></trkpt><trkpt lat="44.23852597538144" lon="11.015939155331385"><ele>513.0</ele><time>2026-03-28T14:30:39Z</time></trkpt><trkpt lat="44.23845372401808" lon="11.016127757397179"><ele>512.5</ele><time>2026-03-28T14:30:40Z</time></trkpt><trkpt lat="44.238379328698095" lon="11.016294962569988"><ele>512.0</ele><time>2026-03-28T14:30:41Z</time></trkpt><trkpt lat="44.238318108096976" lon="11.016463279992756"><ele>511.5</ele><time>2026-03-28T14:30:42Z</time></trkpt><trkpt lat="44.238270955717425" lon="11.016639146290261"><ele>511.0</ele><time>2026-03-28T14:30:43Z</time></trkpt><trkpt lat="44.238196531420456" lon="11.016785084767916"><ele>506.25</ele><time>2026-03-28T14:30:44Z</time></trkpt><trkpt lat="44.23812970792449" lon="11.0169320125586"><ele>501.5</ele><time>2026-03-28T14:30:45Z</time></trkpt><trkpt lat="44.238060921921104" lon="11.017069684033943"><ele>496.75</ele><time>2026-03-28T14:30:46Z</time></trkpt><trkpt lat="44.23798499164115" lon="11.01720625975725"><ele>492.0</ele><time>2026-03-28T14:30:47Z</time></trkpt><trkpt lat="44.23788570331358" lon="11.017349390831743"><ele>492.0</ele><time>2026-03-28T14:30:48Z</time></trkpt><trkpt lat="44.23775350933896" lon="11.017466489641265"><ele>492.0</ele><time>2026-03-28T14:30:49Z</time></trkpt><trkpt lat="44.23762335989112" lon="11.01755529194201"><ele>492.0</ele><time>2026-03-28T14:30:50Z</time></trkpt><trkpt lat="44.23750408989977" lon="11.017658852410337"><ele>492.0</ele><time>2026-03-28T14:30:51Z</time></trkpt><trkpt lat="44.23739440772388" lon="11.01775635242043"><ele>491.6666666666667</ele><time>2026-03-28T14:30:52Z</time></trkpt><trkpt lat="44.237301444546034" lon="11.01784204821849"><ele>491.33333333333337</ele><time>2026-03-28T14:30:53Z</time></trkpt><trkpt lat="44.237231876271814" lon="11.017923948039867"><ele>491.0</ele><time>2026-03-28T14:30:54Z</time></trkpt><trkpt lat="44.23717459744335" lon="11.018002168694048"><ele>490.6666666666667</ele><time>2026-03-28T14:30:55Z</time></trkpt><trkpt lat="44.237132641758265" lon="11.018097974567416"><ele>490.33333333333337</ele><time>2026-03-28T14:30:56Z</time></trkpt><trkpt lat="44.23711573770356" lon="11.018211748623996"><ele>490.0</ele><time>2026-03-28T14:30:57Z</time></trkpt><trkpt lat="44.23713298006806" lon="11.018320616625278"><ele>490.00000000000006</ele><time>2026-03-28T14:30:58Z</time></trkpt><trkpt lat="44.23719739454082" lon="11.018409418636587"><ele>490.0</ele><time>2026-03-28T14:30:59Z</time></trkpt><trkpt lat="44.23722062081606" lon="11.018511104998977"><ele>490.0</ele><time>2026-03-28T14:31:00Z</time></trkpt><trkpt lat="44.237235522937205" lon="11.018619769385984"><ele>490.0</ele><time>2026-03-28T14:31:01Z</time></trkpt><trkpt lat="44.237234752184825" lon="11.018730659150517"><ele>490.00000000000006</ele><time>2026-03-28T14:31:02Z</time></trkpt><trkpt lat="44.23720677830747" lon="11.018826356986605"><ele>490.0</ele><time>2026-03-28T14:31:03Z</time></trkpt><trkpt lat="44.2371442375894" lon="11.018882071571173"><ele>490.0</ele><time>2026-03-28T14:31:04Z</time></trkpt><trkpt lat="44.23706392905351" lon="11.018886009215104"><ele>490.0</ele><time>2026-03-28T14:31:05Z</time></trkpt><trkpt lat="44.23695995364555" lon="11.018899213542136"><ele>490.0</ele><time>2026-03-28T14:31:06Z</time></trkpt><trkpt lat="44.23683572429447" lon="11.018910762404026"><ele>490.0</ele><time>2026-03-28T14:31:07Z</time></trkpt><trkpt lat="44.23668929750347" lon="11.01897061794621"><ele>490.0</ele><time>2026-03-28T14:31:08Z</time></trkpt><trkpt lat="44.23656801172126" lon="11.01910380801476"><ele>490.0</ele><time>2026-03-28T14:31:09Z</time></trkpt><trkpt lat="44.236456257204956" lon="11.019245337495375"><ele>490.0</ele><time>2026-03-28T14:31:10Z</time></trkpt><trkpt lat="44.2363540115603" lon="11.019394751375666"><ele>487.25</ele><time>2026-03-28T14:31:11Z</time></trkpt><trkpt lat="44.236251265053305" lon="11.019530614217931"><ele>484.5</ele><time>2026-03-28T14:31:12Z</time></trkpt><trkpt lat="44.23617734023691" lon="11.019688506353003"><ele>481.75</ele><time>2026-03-28T14:31:13Z</time></trkpt><trkpt lat="44.236165376123516" lon="11.019880177641522"><ele>479.0</ele><time>2026-03-28T14:31:14Z</time></trkpt><trkpt lat="44.2361513664562" lon="11.020060716726531"><ele>479.0</ele><time>2026-03-28T14:31:15Z</time></trkpt><trkpt lat="44.23610490371335" lon="11.020240719502654"><ele>479.0</ele><time>2026-03-28T14:31:16Z</time></trkpt><trkpt lat="44.23605918279856" lon="11.020414910461227"><ele>479.0</ele><time>2026-03-28T14:31:17Z</time></trkpt><trkpt lat="44.23602080805432" lon="11.020614428076355"><ele>479.0</ele><time>2026-03-28T14:31:18Z</time></trkpt><trkpt lat="44.23593527583389" lon="11.020786918523303"><ele>482.5</ele><time>2026-03-28T14:31:19Z</time></trkpt><trkpt lat="44.235851007531984" lon="11.020946575247304"><ele>486.0</ele><time>2026-03-28T14:31:20Z</time></trkpt><trkpt lat="44.235770561495045" lon="11.021104501945494"><ele>489.5</ele><time>2026-03-28T14:31:21Z</time></trkpt><trkpt lat="44.23566835135743" lon="11.021231940412019"><ele>493.0</ele><time>2026-03-28T14:31:22Z</time></trkpt><trkpt lat="44.235614706888036" lon="11.021413819726224"><ele>484.25</ele><time>2026-03-28T14:31:23Z</time></trkpt><trkpt lat="44.23553700916251" lon="11.021566675985694"><ele>475.5</ele><time>2026-03-28T14:31:24Z</time></trkpt><trkpt lat="44.23546786844185" lon="11.021734043599633"><ele>466.75</ele><time>2026-03-28T14:31:25Z</time></trkpt><trkpt lat="44.23539716547301" lon="11.02190587736834"><ele>458.0</ele><time>2026-03-28T14:31:26Z</time></trkpt><trkpt lat="44.23533525645768" lon="11.02208153340704"><ele>458.0</ele><time>2026-03-28T14:31:27Z</time></trkpt><trkpt lat="44.235281182357824" lon="11.022257729730592"><ele>458.0</ele><time>2026-03-28T14:31:28Z</time></trkpt><trkpt lat="44.23522482781105" lon="11.022422992525675"><ele>458.0</ele><time>2026-03-28T14:31:29Z</time></trkpt><trkpt lat="44.23515161577726" lon="11.022575896673414"><ele>458.0</ele><time>2026-03-28T14:31:30Z</time></trkpt><trkpt lat="44.23506503611101" lon="11.022694056385035"><ele>461.0</ele><time>2026-03-28T14:31:31Z</time></trkpt><trkpt lat="44.23496565420862" lon="11.022785423553195"><ele>463.99999999999994</ele><time>2026-03-28T14:31:32Z</time></trkpt><trkpt lat="44.2348814420989" lon="11.022872643507378"><ele>466.99999999999994</ele><time>2026-03-28T14:31:33Z</time></trkpt><trkpt lat="44.23483293868099" lon="11.022971663374744"><ele>470.0</ele><time>2026-03-28T14:31:34Z</time></trkpt><trkpt lat="44.234853072079524" lon="11.023105923404593"><ele>473.0</ele><time>2026-03-28T14:31:35Z</time></trkpt><trkpt lat="44.23489991856759" lon="11.023235124515882"><ele>472.75</ele><time>2026-03-28T14:31:36Z</time></trkpt><trkpt lat="44.23498550926777" lon="11.023365992362798"><ele>472.5</ele><time>2026-03-28T14:31:37Z</time></trkpt><trkpt lat="44.235069627021296" lon="11.023501728475745"><ele>472.25</ele><time>2026-03-28T14:31:38Z</time></trkpt><trkpt lat="44.23513759153169" lon="11.023638567020576"><ele>472.0</ele><time>2026-03-28T14:31:39Z</time></trkpt><trkpt lat="44.23516541552846" lon="11.023797967250605"><ele>472.0</ele><time>2026-03-28T14:31:40Z</time></trkpt><trkpt lat="44.23517084446925" lon="11.023957399166163"><ele>472.0</ele><time>2026-03-28T14:31:41Z</time></trkpt><trkpt lat="44.23514173282224" lon="11.024106947020098"><ele>472.0</ele><time>2026-03-28T14:31:42Z</time></trkpt><trkpt lat="44.235102867867546" lon="11.02427163693237"><ele>472.0</ele><time>2026-03-28T14:31:43Z</time></trkpt><trkpt lat="44.2350390355925" lon="11.0244945175672"><ele>470.0</ele><time>2026-03-28T14:31:44Z</time></trkpt><trkpt lat="44.23494882285054" lon="11.02478168205816"><ele>468.0</ele><time>2026-03-28T14:31:45Z</time></trkpt><trkpt lat="44.23483838373539" lon="11.025029584547648"><ele>466.0</ele><time>2026-03-28T14:31:46Z</time></trkpt><trkpt lat="44.23474776377316" lon="11.025264672910936"><ele>459.6666666666667</ele><time>2026-03-28T14:31:47Z</time></trkpt><trkpt lat="44.2346819865384" lon="11.025475915318882"><ele>453.33333333333337</ele><time>2026-03-28T14:31:48Z</time></trkpt><trkpt lat="44.23462591931885" lon="11.025682676298102"><ele>447.0</ele><time>2026-03-28T14:31:49Z</time></trkpt><trkpt lat="44.23451897765052" lon="11.02586051873606"><ele>447.0</ele><time>2026-03-28T14:31:50Z</time></trkpt><trkpt lat="44.234390226417766" lon="11.025978742435864"><ele>447.0</ele><time>2026-03-28T14:31:51Z</time></trkpt><trkpt lat="44.23426744104951" lon="11.026049704576788"><ele>447.0</ele><time>2026-03-28T14:31:52Z</time></trkpt><trkpt lat="44.234186845387796" lon="11.026167070334589"><ele>447.0</ele><time>2026-03-28T14:31:53Z</time></trkpt><trkpt lat="44.23414367968372" lon="11.02635390096822"><ele>447.0</ele><time>2026-03-28T14:31:54Z</time></trkpt><trkpt lat="44.23411554115934" lon="11.026570804806147"><ele>447.0</ele><time>2026-03-28T14:31:55Z</time></trkpt><trkpt lat="44.23406554695425" lon="11.026763245070205"><ele>447.0</ele><time>2026-03-28T14:31:56Z</time></trkpt><trkpt lat="44.23401369208188" lon="11.02693161286458"><ele>447.0</ele><time>2026-03-28T14:31:57Z</time></trkpt><trkpt lat="44.23395050731269" lon="11.027074756079342"><ele>444.75</ele><time>2026-03-28T14:31:58Z</time></trkpt><trkpt lat="44.23386889023952" lon="11.027195777313096"><ele>442.5</ele><time>2026-03-28T14:31:59Z</time></trkpt><trkpt lat="44.23377040251858" lon="11.027315804448165"><ele>440.25</ele><time>2026-03-28T14:32:00Z</time></trkpt><trkpt lat="44.233663376666115" lon="11.027434486798379"><ele>438.0</ele><time>2026-03-28T14:32:01Z</time></trkpt><trkpt lat="44.23355620820404" lon="11.027553894536679"><ele>438.0</ele><time>2026-03-28T14:32:02Z</time></trkpt><trkpt lat="44.23345730171982" lon="11.027664096748381"><ele>437.99999999999994</ele><time>2026-03-28T14:32:03Z</time></trkpt><trkpt lat="44.23337087616524" lon="11.027759711424977"><ele>437.99999999999994</ele><time>2026-03-28T14:32:04Z</time></trkpt><trkpt lat="44.23328910462459" lon="11.027846172428882"><ele>438.0</ele><time>2026-03-28T14:32:05Z</time></trkpt><trkpt lat="44.23321438748235" lon="11.027907611360527"><ele>438.0</ele><time>2026-03-28T14:32:06Z</time></trkpt><trkpt lat="44.23313648065383" lon="11.027957292119986"><ele>436.2</ele><time>2026-03-28T14:32:07Z</time></trkpt><trkpt lat="44.233049425015274" lon="11.028001150039337"><ele>434.4</ele><time>2026-03-28T14:32:08Z</time></trkpt><trkpt lat="44.23296014352662" lon="11.028020512226222"><ele>432.59999999999997</ele><time>2026-03-28T14:32:09Z</time></trkpt><trkpt lat="44.2328849181754" lon="11.028039008172954"><ele>430.79999999999995</ele><time>2026-03-28T14:32:10Z</time></trkpt><trkpt lat="44.23279827457647" lon="11.028057248966803"><ele>429.0</ele><time>2026-03-28T14:32:12Z</time></trkpt><trkpt lat="44.23284398447004" lon="11.028249290414646"><ele>429.0</ele><time>2026-03-28T14:32:16Z</time></trkpt><trkpt lat="44.232781728438965" lon="11.028173275273668"><ele>429.0</ele><time>2026-03-28T14:33:51Z</time></trkpt><trkpt lat="44.23270907289498" lon="11.028097321037423"><ele>429.0</ele><time>2026-03-28T14:33:53Z</time></trkpt><trkpt lat="44.23258489201364" lon="11.028082133689082"><ele>429.0</ele><time>2026-03-28T14:33:54Z</time></trkpt><trkpt lat="44.23251517024345" lon="11.028054734477605"><ele>429.0</ele><time>2026-03-28T14:33:55Z</time></trkpt><trkpt lat="44.23244341723584" lon="11.028044717523024"><ele>429.0</ele><time>2026-03-28T14:33:56Z</time></trkpt><trkpt lat="44.232363826308195" lon="11.028039419466023"><ele>426.4</ele><time>2026-03-28T14:33:57Z</time></trkpt><trkpt lat="44.23228279422754" lon="11.027964320102255"><ele>423.79999999999995</ele><time>2026-03-28T14:33:58Z</time></trkpt><trkpt lat="44.2322360822646" lon="11.02782627997712"><ele>421.20000000000005</ele><time>2026-03-28T14:33:59Z</time></trkpt><trkpt lat="44.2321644033024" lon="11.027726766828408"><ele>418.6</ele><time>2026-03-28T14:34:00Z</time></trkpt><trkpt lat="44.23211091288541" lon="11.027638432777684"><ele>416.0</ele><time>2026-03-28T14:34:01Z</time></trkpt><trkpt lat="44.232047830904925" lon="11.027593727246263"><ele>416.0</ele><time>2026-03-28T14:34:02Z</time></trkpt><trkpt lat="44.23195470503707" lon="11.027636904140836"><ele>416.0</ele><time>2026-03-28T14:34:03Z</time></trkpt><trkpt lat="44.23187741184429" lon="11.027752922978443"><ele>416.0</ele><time>2026-03-28T14:34:04Z</time></trkpt><trkpt lat="44.231822289175284" lon="11.027896157845401"><ele>416.0</ele><time>2026-03-28T14:34:05Z</time></trkpt><trkpt lat="44.23177945039686" lon="11.028105128570404"><ele>418.75</ele><time>2026-03-28T14:34:06Z</time></trkpt><trkpt lat="44.231697288664066" lon="11.02831396952218"><ele>421.5</ele><time>2026-03-28T14:34:07Z</time></trkpt><trkpt lat="44.231600493557956" lon="11.028453809168093"><ele>424.25</ele><time>2026-03-28T14:34:08Z</time></trkpt><trkpt lat="44.23149992686011" lon="11.028565193109149"><ele>427.0</ele><time>2026-03-28T14:34:09Z</time></trkpt><trkpt lat="44.231442147831515" lon="11.02866634241498"><ele>427.0</ele><time>2026-03-28T14:34:10Z</time></trkpt><trkpt lat="44.23140990329898" lon="11.028748222311858"><ele>427.00000000000006</ele><time>2026-03-28T14:34:11Z</time></trkpt><trkpt lat="44.23140196117749" lon="11.028848015019785"><ele>427.00000000000006</ele><time>2026-03-28T14:34:12Z</time></trkpt><trkpt lat="44.231487054204564" lon="11.028965553740942"><ele>427.0</ele><time>2026-03-28T14:34:13Z</time></trkpt><trkpt lat="44.23159127422116" lon="11.02902473239861"><ele>427.0</ele><time>2026-03-28T14:34:14Z</time></trkpt><trkpt lat="44.231704945784344" lon="11.029031490389661"><ele>427.0</ele><time>2026-03-28T14:34:15Z</time></trkpt><trkpt lat="44.23185436459685" lon="11.028978236174959"><ele>427.0</ele><time>2026-03-28T14:34:16Z</time></trkpt><trkpt lat="44.231984213376165" lon="11.028891709959794"><ele>427.0</ele><time>2026-03-28T14:34:17Z</time></trkpt><trkpt lat="44.232095056315565" lon="11.028830106502562"><ele>427.0</ele><time>2026-03-28T14:34:18Z</time></trkpt><trkpt lat="44.232199003254145" lon="11.028790759061511"><ele>429.5</ele><time>2026-03-28T14:34:19Z</time></trkpt><trkpt lat="44.232314902877924" lon="11.028794137291591"><ele>432.0</ele><time>2026-03-28T14:34:20Z</time></trkpt><trkpt lat="44.2324488186533" lon="11.028854342921122"><ele>434.5</ele><time>2026-03-28T14:34:21Z</time></trkpt><trkpt lat="44.23258438579081" lon="11.028964574456435"><ele>437.0</ele><time>2026-03-28T14:34:22Z</time></trkpt><trkpt lat="44.23271267652194" lon="11.029068184183844"><ele>433.25</ele><time>2026-03-28T14:34:23Z</time></trkpt><trkpt lat="44.23280319680633" lon="11.029229957316131"><ele>429.5</ele><time>2026-03-28T14:34:24Z</time></trkpt><trkpt lat="44.23291644210984" lon="11.029382686592834"><ele>425.75</ele><time>2026-03-28T14:34:25Z</time></trkpt><trkpt lat="44.233003546809734" lon="11.029533530353575"><ele>422.0</ele><time>2026-03-28T14:34:26Z</time></trkpt><trkpt lat="44.233067753731284" lon="11.029644216652825"><ele>421.99999999999994</ele><time>2026-03-28T14:34:27Z</time></trkpt><trkpt lat="44.233095470615055" lon="11.029741155902302"><ele>422.0</ele><time>2026-03-28T14:34:28Z</time></trkpt><trkpt lat="44.23307489912647" lon="11.029848683905538"><ele>422.0</ele><time>2026-03-28T14:34:29Z</time></trkpt><trkpt lat="44.23301342782241" lon="11.029934541876885"><ele>422.0</ele><time>2026-03-28T14:34:30Z</time></trkpt><trkpt lat="44.23292585264335" lon="11.029952002250903"><ele>421.99999999999994</ele><time>2026-03-28T14:34:31Z</time></trkpt><trkpt lat="44.232882015126" lon="11.029822722879896"><ele>422.0</ele><time>2026-03-28T14:34:32Z</time></trkpt><trkpt lat="44.23284773831595" lon="11.029710218426404"><ele>422.0</ele><time>2026-03-28T14:34:33Z</time></trkpt><trkpt lat="44.23278131714052" lon="11.029588561364179"><ele>422.0</ele><time>2026-03-28T14:34:34Z</time></trkpt><trkpt lat="44.23270028406263" lon="11.029477189169876"><ele>422.0</ele><time>2026-03-28T14:34:35Z</time></trkpt><trkpt lat="44.232586699208284" lon="11.029443439398733"><ele>422.0</ele><time>2026-03-28T14:34:36Z</time></trkpt><trkpt lat="44.23246836098589" lon="11.029454347119325"><ele>422.0</ele><time>2026-03-28T14:34:37Z</time></trkpt><trkpt lat="44.232331198260525" lon="11.02953314019649"><ele>422.0</ele><time>2026-03-28T14:34:38Z</time></trkpt><trkpt lat="44.23219725033162" lon="11.02965636838685"><ele>422.0</ele><time>2026-03-28T14:34:39Z</time></trkpt><trkpt lat="44.23207547741021" lon="11.02980106527552"><ele>422.0</ele><time>2026-03-28T14:34:40Z</time></trkpt><trkpt lat="44.23196037861445" lon="11.029917962736633"><ele>422.0</ele><time>2026-03-28T14:34:41Z</time></trkpt><trkpt lat="44.231835120062144" lon="11.0299394025461"><ele>422.0</ele><time>2026-03-28T14:34:42Z</time></trkpt><trkpt lat="44.231679088435655" lon="11.029945870355249"><ele>422.0</ele><time>2026-03-28T14:34:43Z</time></trkpt><trkpt lat="44.231491939790565" lon="11.029950751175942"><ele>418.66666666666663</ele><time>2026-03-28T14:34:44Z</time></trkpt><trkpt lat="44.231300938600825" lon="11.029974755562991"><ele>415.33333333333337</ele><time>2026-03-28T14:34:45Z</time></trkpt><trkpt lat="44.23113418198034" lon="11.03000004203542"><ele>412.0</ele><time>2026-03-28T14:34:46Z</time></trkpt><trkpt lat="44.23099770985798" lon="11.03004094243811"><ele>409.0</ele><time>2026-03-28T14:34:47Z</time></trkpt><trkpt lat="44.230892447644884" lon="11.030084482870825"><ele>406.0</ele><time>2026-03-28T14:34:48Z</time></trkpt><trkpt lat="44.23081225989546" lon="11.030087434934194"><ele>403.0</ele><time>2026-03-28T14:34:49Z</time></trkpt><trkpt lat="44.230716825514996" lon="11.029975292442632"><ele>400.0</ele><time>2026-03-28T14:34:50Z</time></trkpt><trkpt lat="44.230557885775305" lon="11.029893070336172"><ele>397.6666666666667</ele><time>2026-03-28T14:34:51Z</time></trkpt><trkpt lat="44.23038494248" lon="11.02987029619652"><ele>395.33333333333337</ele><time>2026-03-28T14:34:52Z</time></trkpt><trkpt lat="44.230220110273706" lon="11.029855403856823"><ele>393.0</ele><time>2026-03-28T14:34:53Z</time></trkpt><trkpt lat="44.23007492481372" lon="11.02981971098168"><ele>393.0</ele><time>2026-03-28T14:34:54Z</time></trkpt><trkpt lat="44.22995368325013" lon="11.029765047888192"><ele>393.0</ele><time>2026-03-28T14:34:55Z</time></trkpt><trkpt lat="44.22985672462782" lon="11.029745236648674"><ele>393.0</ele><time>2026-03-28T14:34:56Z</time></trkpt><trkpt lat="44.22975706464129" lon="11.029785386573224"><ele>393.0</ele><time>2026-03-28T14:34:57Z</time></trkpt><trkpt lat="44.229648760847795" lon="11.02987915595816"><ele>389.59999999999997</ele><time>2026-03-28T14:34:58Z</time></trkpt><trkpt lat="44.22954672399291" lon="11.029954479643134"><ele>386.2</ele><time>2026-03-28T14:34:59Z</time></trkpt><trkpt lat="44.22947083887561" lon="11.030017610387894"><ele>382.8</ele><time>2026-03-28T14:35:00Z</time></trkpt><trkpt lat="44.22939038985607" lon="11.029970012275827"><ele>379.4</ele><time>2026-03-28T14:35:01Z</time></trkpt><trkpt lat="44.22934191016026" lon="11.029873117696528"><ele>376.0</ele><time>2026-03-28T14:35:02Z</time></trkpt><trkpt lat="44.22933549679696" lon="11.029766435835398"><ele>375.16666666666663</ele><time>2026-03-28T14:35:03Z</time></trkpt><trkpt lat="44.22934786892621" lon="11.029669839604763"><ele>374.3333333333333</ele><time>2026-03-28T14:35:04Z</time></trkpt><trkpt lat="44.22938190400062" lon="11.029583483565787"><ele>373.5</ele><time>2026-03-28T14:35:05Z</time></trkpt><trkpt lat="44.229424274424616" lon="11.02949586606068"><ele>372.6666666666667</ele><time>2026-03-28T14:35:06Z</time></trkpt><trkpt lat="44.22947254977746" lon="11.029399572664634"><ele>371.83333333333337</ele><time>2026-03-28T14:35:07Z</time></trkpt><trkpt lat="44.22951440876299" lon="11.029295791750028"><ele>371.0</ele><time>2026-03-28T14:35:08Z</time></trkpt><trkpt lat="44.2295590256483" lon="11.029186916816572"><ele>370.0</ele><time>2026-03-28T14:35:09Z</time></trkpt><trkpt lat="44.22960695134032" lon="11.029082128420015"><ele>369.0</ele><time>2026-03-28T14:35:10Z</time></trkpt><trkpt lat="44.2296553168327" lon="11.028971134359201"><ele>368.0</ele><time>2026-03-28T14:35:11Z</time></trkpt><trkpt lat="44.229701686346914" lon="11.028855218236476"><ele>367.0</ele><time>2026-03-28T14:35:12Z</time></trkpt><trkpt lat="44.2297409784175" lon="11.028729152480416"><ele>366.0</ele><time>2026-03-28T14:35:13Z</time></trkpt><trkpt lat="44.229761011736514" lon="11.028598138513736"><ele>366.0</ele><time>2026-03-28T14:35:14Z</time></trkpt><trkpt lat="44.22974972270721" lon="11.028463361263576"><ele>366.0</ele><time>2026-03-28T14:35:15Z</time></trkpt><trkpt lat="44.22972374822545" lon="11.028323463969084"><ele>366.0</ele><time>2026-03-28T14:35:16Z</time></trkpt><trkpt lat="44.22971925188443" lon="11.028180815062157"><ele>366.0</ele><time>2026-03-28T14:35:17Z</time></trkpt><trkpt lat="44.22973769530781" lon="11.028028735325789"><ele>366.0</ele><time>2026-03-28T14:35:18Z</time></trkpt><trkpt lat="44.2297606381509" lon="11.027880502404603"><ele>366.4</ele><time>2026-03-28T14:35:19Z</time></trkpt><trkpt lat="44.2297873846531" lon="11.027721851652244"><ele>366.8</ele><time>2026-03-28T14:35:20Z</time></trkpt><trkpt lat="44.229819579853164" lon="11.027575999984375"><ele>367.2</ele><time>2026-03-28T14:35:21Z</time></trkpt><trkpt lat="44.22986016241893" lon="11.027439770274816"><ele>367.59999999999997</ele><time>2026-03-28T14:35:22Z</time></trkpt><trkpt lat="44.22993171306336" lon="11.027340211743725"><ele>368.0</ele><time>2026-03-28T14:35:23Z</time></trkpt><trkpt lat="44.23002542888047" lon="11.027285595756162"><ele>368.0</ele><time>2026-03-28T14:35:24Z</time></trkpt><trkpt lat="44.230121582347" lon="11.027252309910404"><ele>368.0</ele><time>2026-03-28T14:35:25Z</time></trkpt><trkpt lat="44.23022047221707" lon="11.027214582538774"><ele>368.0</ele><time>2026-03-28T14:35:26Z</time></trkpt><trkpt lat="44.230289634761974" lon="11.027146696355713"><ele>368.0</ele><time>2026-03-28T14:35:27Z</time></trkpt><trkpt lat="44.230327461659854" lon="11.027027720341671"><ele>368.0</ele><time>2026-03-28T14:35:28Z</time></trkpt><trkpt lat="44.23032789756058" lon="11.0268798841847"><ele>368.0</ele><time>2026-03-28T14:35:29Z</time></trkpt><trkpt lat="44.23029073609233" lon="11.026730228398147"><ele>368.0</ele><time>2026-03-28T14:35:30Z</time></trkpt><trkpt lat="44.23024032842526" lon="11.026588934443998"><ele>368.0</ele><time>2026-03-28T14:35:31Z</time></trkpt><trkpt lat="44.23019749030838" lon="11.026439246393553"><ele>368.0</ele><time>2026-03-28T14:35:32Z</time></trkpt><trkpt lat="44.23021299847276" lon="11.02629416937683"><ele>368.0</ele><time>2026-03-28T14:35:33Z</time></trkpt><trkpt lat="44.23024893480199" lon="11.026165431761147"><ele>366.0</ele><time>2026-03-28T14:35:34Z</time></trkpt><trkpt lat="44.23034558348206" lon="11.026050546961429"><ele>364.0</ele><time>2026-03-28T14:35:35Z</time></trkpt><trkpt lat="44.23041128347806" lon="11.025889551771062"><ele>362.0</ele><time>2026-03-28T14:35:36Z</time></trkpt><trkpt lat="44.23046074337143" lon="11.025723913519824"><ele>360.0</ele><time>2026-03-28T14:35:37Z</time></trkpt><trkpt lat="44.23048229105517" lon="11.025545779422538"><ele>359.5</ele><time>2026-03-28T14:35:38Z</time></trkpt><trkpt lat="44.23050078132579" lon="11.025380931607003"><ele>359.0</ele><time>2026-03-28T14:35:39Z</time></trkpt><trkpt lat="44.23053326874085" lon="11.025252484869085"><ele>358.5</ele><time>2026-03-28T14:35:40Z</time></trkpt><trkpt lat="44.2305491174537" lon="11.025147396779191"><ele>358.0</ele><time>2026-03-28T14:35:41Z</time></trkpt><trkpt lat="44.230534184872724" lon="11.025058982560152"><ele>357.5</ele><time>2026-03-28T14:35:42Z</time></trkpt><trkpt lat="44.230489146468834" lon="11.024988110120734"><ele>357.0</ele><time>2026-03-28T14:35:43Z</time></trkpt><trkpt lat="44.2304240403863" lon="11.024954971462488"><ele>357.0</ele><time>2026-03-28T14:35:44Z</time></trkpt><trkpt lat="44.230347946842436" lon="11.02496985132305"><ele>357.0</ele><time>2026-03-28T14:35:44.999Z</time></trkpt><trkpt lat="44.230286758785454" lon="11.02509564175338"><ele>357.0</ele><time>2026-03-28T14:35:45.999Z</time></trkpt><trkpt lat="44.23026951335983" lon="11.02522872187006"><ele>357.0</ele><time>2026-03-28T14:35:46.999Z</time></trkpt><trkpt lat="44.23027176562844" lon="11.025377270864741"><ele>357.0</ele><time>2026-03-28T14:35:47.999Z</time></trkpt><trkpt lat="44.2302347109988" lon="11.025538019417976"><ele>356.75</ele><time>2026-03-28T14:35:48.999Z</time></trkpt><trkpt lat="44.230176345811074" lon="11.02566334826557"><ele>356.5</ele><time>2026-03-28T14:35:49.999Z</time></trkpt><trkpt lat="44.23007664612646" lon="11.02572512262763"><ele>356.25</ele><time>2026-03-28T14:35:50.999Z</time></trkpt><trkpt lat="44.22996043348582" lon="11.025823509202066"><ele>356.0</ele><time>2026-03-28T14:35:51.999Z</time></trkpt><trkpt lat="44.2298560696675" lon="11.025943923266116"><ele>352.5</ele><time>2026-03-28T14:35:52.999Z</time></trkpt><trkpt lat="44.22978879647871" lon="11.026081479071618"><ele>349.0</ele><time>2026-03-28T14:35:53.999Z</time></trkpt><trkpt lat="44.229721865962254" lon="11.02620416135112"><ele>345.5</ele><time>2026-03-28T14:35:54.999Z</time></trkpt><trkpt lat="44.22963464949005" lon="11.026338086977606"><ele>342.0</ele><time>2026-03-28T14:35:55.999Z</time></trkpt><trkpt lat="44.22951239817724" lon="11.026426288613537"><ele>342.0</ele><time>2026-03-28T14:35:56.999Z</time></trkpt><trkpt lat="44.229364242403214" lon="11.026488535651385"><ele>342.0</ele><time>2026-03-28T14:35:57.999Z</time></trkpt><trkpt lat="44.229217627099835" lon="11.026588216210078"><ele>342.0</ele><time>2026-03-28T14:35:58.999Z</time></trkpt><trkpt lat="44.22908126995405" lon="11.026649906385469"><ele>339.5</ele><time>2026-03-28T14:35:59.999Z</time></trkpt><trkpt lat="44.228968413348184" lon="11.026754022882084"><ele>337.0</ele><time>2026-03-28T14:36:00.999Z</time></trkpt><trkpt lat="44.2288919385463" lon="11.026891751925175"><ele>334.5</ele><time>2026-03-28T14:36:01.999Z</time></trkpt><trkpt lat="44.228837001132725" lon="11.027051659396022"><ele>332.0</ele><time>2026-03-28T14:36:03Z</time></trkpt><trkpt lat="44.228796611467324" lon="11.027238009525242"><ele>332.0</ele><time>2026-03-28T14:36:04Z</time></trkpt><trkpt lat="44.22870697629852" lon="11.027410962328315"><ele>332.0</ele><time>2026-03-28T14:36:05Z</time></trkpt><trkpt lat="44.228600096564925" lon="11.027531443421774"><ele>332.0</ele><time>2026-03-28T14:36:06Z</time></trkpt><trkpt lat="44.22850697650084" lon="11.02767669549708"><ele>332.0</ele><time>2026-03-28T14:36:07Z</time></trkpt><trkpt lat="44.22842441014525" lon="11.02781800329281"><ele>333.5</ele><time>2026-03-28T14:36:08Z</time></trkpt><trkpt lat="44.22837482868251" lon="11.028009820884485"><ele>335.0</ele><time>2026-03-28T14:36:09Z</time></trkpt><trkpt lat="44.228334831794264" lon="11.028229523988577"><ele>336.5</ele><time>2026-03-28T14:36:10Z</time></trkpt><trkpt lat="44.22827502344391" lon="11.02840266097404"><ele>338.0</ele><time>2026-03-28T14:36:11Z</time></trkpt><trkpt lat="44.22823166514461" lon="11.028509784376363"><ele>338.0</ele><time>2026-03-28T14:36:12Z</time></trkpt><trkpt lat="44.228128942982416" lon="11.028547284621467"><ele>338.0</ele><time>2026-03-28T14:36:14Z</time></trkpt><trkpt lat="44.22807781559736" lon="11.028465139128965"><ele>338.0</ele><time>2026-03-28T14:36:15Z</time></trkpt><trkpt lat="44.22807062354532" lon="11.028338988281623"><ele>338.0</ele><time>2026-03-28T14:36:16Z</time></trkpt><trkpt lat="44.22813927281349" lon="11.028198994906496"><ele>338.0</ele><time>2026-03-28T14:36:17Z</time></trkpt><trkpt lat="44.228199902042014" lon="11.028005549949128"><ele>338.0</ele><time>2026-03-28T14:36:18Z</time></trkpt><trkpt lat="44.22826994957463" lon="11.02775438497633"><ele>338.0</ele><time>2026-03-28T14:36:19Z</time></trkpt><trkpt lat="44.228342166417995" lon="11.027456088795448"><ele>338.0</ele><time>2026-03-28T14:36:20Z</time></trkpt><trkpt lat="44.22841247688325" lon="11.027159474344131"><ele>336.0</ele><time>2026-03-28T14:36:21Z</time></trkpt><trkpt lat="44.228479472122146" lon="11.02690020450738"><ele>334.0</ele><time>2026-03-28T14:36:22Z</time></trkpt><trkpt lat="44.22854765802801" lon="11.02664519576603"><ele>332.0</ele><time>2026-03-28T14:36:23Z</time></trkpt><trkpt lat="44.22861648180417" lon="11.026415222540528"><ele>331.75</ele><time>2026-03-28T14:36:24Z</time></trkpt><trkpt lat="44.228697563815636" lon="11.026218808161405"><ele>331.5</ele><time>2026-03-28T14:36:25Z</time></trkpt><trkpt lat="44.22877362600023" lon="11.026061954496212"><ele>331.25</ele><time>2026-03-28T14:36:26Z</time></trkpt><trkpt lat="44.22882802750153" lon="11.0259494281051"><ele>331.0</ele><time>2026-03-28T14:36:27Z</time></trkpt><trkpt lat="44.22884807259388" lon="11.025860964011878"><ele>331.0</ele><time>2026-03-28T14:36:28Z</time></trkpt><trkpt lat="44.22882095520279" lon="11.025771666612968"><ele>331.0</ele><time>2026-03-28T14:36:29Z</time></trkpt><trkpt lat="44.22874863186775" lon="11.025706773574088"><ele>331.0</ele><time>2026-03-28T14:36:30Z</time></trkpt><trkpt lat="44.2286508379251" lon="11.025707864806053"><ele>331.0</ele><time>2026-03-28T14:36:31Z</time></trkpt><trkpt lat="44.228551974177314" lon="11.025816220041339"><ele>331.0</ele><time>2026-03-28T14:36:32Z</time></trkpt><trkpt lat="44.22847436906702" lon="11.026033852715209"><ele>331.0</ele><time>2026-03-28T14:36:33Z</time></trkpt><trkpt lat="44.22839466437061" lon="11.026241060580537"><ele>331.0</ele><time>2026-03-28T14:36:34Z</time></trkpt><trkpt lat="44.22831113776666" lon="11.026425795282444"><ele>331.0</ele><time>2026-03-28T14:36:35Z</time></trkpt><trkpt lat="44.22821819255204" lon="11.026611218891706"><ele>325.66666666666663</ele><time>2026-03-28T14:36:36Z</time></trkpt><trkpt lat="44.228088969155074" lon="11.026749151204198"><ele>320.3333333333333</ele><time>2026-03-28T14:36:37Z</time></trkpt><trkpt lat="44.22796009923078" lon="11.026916231787752"><ele>315.0</ele><time>2026-03-28T14:36:38Z</time></trkpt><trkpt lat="44.22781512757578" lon="11.027077558241398"><ele>315.0</ele><time>2026-03-28T14:36:39Z</time></trkpt><trkpt lat="44.227674660520925" lon="11.02727944025246"><ele>315.0</ele><time>2026-03-28T14:36:40Z</time></trkpt><trkpt lat="44.22753895888982" lon="11.027457423316115"><ele>315.0</ele><time>2026-03-28T14:36:41Z</time></trkpt><trkpt lat="44.2274175553796" lon="11.027610354923093"><ele>316.3333333333333</ele><time>2026-03-28T14:36:42Z</time></trkpt><trkpt lat="44.2273135605895" lon="11.027761749600469"><ele>317.66666666666663</ele><time>2026-03-28T14:36:43Z</time></trkpt><trkpt lat="44.227242933183874" lon="11.027936512841283"><ele>319.0</ele><time>2026-03-28T14:36:44Z</time></trkpt><trkpt lat="44.22719254574242" lon="11.028149210457718"><ele>313.66666666666663</ele><time>2026-03-28T14:36:45Z</time></trkpt><trkpt lat="44.227143709771966" lon="11.028374975597853"><ele>308.3333333333333</ele><time>2026-03-28T14:36:46Z</time></trkpt><trkpt lat="44.22708465439446" lon="11.028575408055938"><ele>303.0</ele><time>2026-03-28T14:36:47Z</time></trkpt><trkpt lat="44.227017631521605" lon="11.028761466407433"><ele>303.0</ele><time>2026-03-28T14:36:48Z</time></trkpt><trkpt lat="44.226938235688465" lon="11.028939852313956"><ele>303.0</ele><time>2026-03-28T14:36:49Z</time></trkpt><trkpt lat="44.22684984641785" lon="11.029127447741592"><ele>303.0</ele><time>2026-03-28T14:36:50Z</time></trkpt><trkpt lat="44.226762932769574" lon="11.029321672982508"><ele>304.5</ele><time>2026-03-28T14:36:51Z</time></trkpt><trkpt lat="44.226674020184774" lon="11.029491712026218"><ele>306.0</ele><time>2026-03-28T14:36:52Z</time></trkpt><trkpt lat="44.22656014038153" lon="11.029605259857494"><ele>307.5</ele><time>2026-03-28T14:36:53Z</time></trkpt><trkpt lat="44.226442506044" lon="11.029692116938616"><ele>309.0</ele><time>2026-03-28T14:36:54Z</time></trkpt><trkpt lat="44.22631583756098" lon="11.029788883369125"><ele>304.5</ele><time>2026-03-28T14:36:55Z</time></trkpt><trkpt lat="44.22621535116869" lon="11.029915727075272"><ele>300.0</ele><time>2026-03-28T14:36:56Z</time></trkpt><trkpt lat="44.226126895839634" lon="11.030078387525801"><ele>295.5</ele><time>2026-03-28T14:36:57Z</time></trkpt><trkpt lat="44.2260553886307" lon="11.030258320956005"><ele>291.0</ele><time>2026-03-28T14:36:58Z</time></trkpt><trkpt lat="44.22600627215208" lon="11.030424414775888"><ele>290.75</ele><time>2026-03-28T14:36:59Z</time></trkpt><trkpt lat="44.225984142768404" lon="11.030584258815963"><ele>290.5</ele><time>2026-03-28T14:37:00Z</time></trkpt><trkpt lat="44.226003668080345" lon="11.030744855246539"><ele>290.25</ele><time>2026-03-28T14:37:01Z</time></trkpt><trkpt lat="44.22606907752513" lon="11.030934765035319"><ele>290.0</ele><time>2026-03-28T14:37:02Z</time></trkpt><trkpt lat="44.22613329573881" lon="11.03117399063676"><ele>289.6666666666667</ele><time>2026-03-28T14:37:03Z</time></trkpt><trkpt lat="44.226174771734556" lon="11.031469434583528"><ele>289.3333333333333</ele><time>2026-03-28T14:37:04Z</time></trkpt><trkpt lat="44.22619847746267" lon="11.031759168365465"><ele>289.0</ele><time>2026-03-28T14:37:05Z</time></trkpt><trkpt lat="44.22621897141113" lon="11.032002338939712"><ele>287.75</ele><time>2026-03-28T14:37:06Z</time></trkpt><trkpt lat="44.2262476867135" lon="11.032217989757822"><ele>286.5</ele><time>2026-03-28T14:37:07Z</time></trkpt><trkpt lat="44.22625626672563" lon="11.032391683841132"><ele>285.25</ele><time>2026-03-28T14:37:08Z</time></trkpt><trkpt lat="44.22623097539756" lon="11.032500581736999"><ele>284.0</ele><time>2026-03-28T14:37:09Z</time></trkpt><trkpt lat="44.22613041624102" lon="11.032616372551676"><ele>284.0</ele><time>2026-03-28T14:37:11Z</time></trkpt><trkpt lat="44.226047074762945" lon="11.032588402186844"><ele>284.0</ele><time>2026-03-28T14:37:12Z</time></trkpt><trkpt lat="44.225967341794934" lon="11.032519751824776"><ele>284.0</ele><time>2026-03-28T14:37:13Z</time></trkpt><trkpt lat="44.225899618976136" lon="11.032403207658483"><ele>284.0</ele><time>2026-03-28T14:37:14Z</time></trkpt><trkpt lat="44.22589096826126" lon="11.03225102555623"><ele>284.0</ele><time>2026-03-28T14:37:15Z</time></trkpt><trkpt lat="44.22585852849948" lon="11.032085533783867"><ele>284.0</ele><time>2026-03-28T14:37:16Z</time></trkpt><trkpt lat="44.22584156744041" lon="11.03186920373731"><ele>284.0</ele><time>2026-03-28T14:37:17Z</time></trkpt><trkpt lat="44.225781943512516" lon="11.031624456357381"><ele>284.0</ele><time>2026-03-28T14:37:18Z</time></trkpt><trkpt lat="44.22570083616665" lon="11.03138976724056"><ele>281.0</ele><time>2026-03-28T14:37:19Z</time></trkpt><trkpt lat="44.225609086028925" lon="11.03117907057774"><ele>278.0</ele><time>2026-03-28T14:37:20Z</time></trkpt><trkpt lat="44.225536751273296" lon="11.030992174753408"><ele>275.0</ele><time>2026-03-28T14:37:21Z</time></trkpt><trkpt lat="44.2254774342857" lon="11.030819116396666"><ele>275.0</ele><time>2026-03-28T14:37:22Z</time></trkpt><trkpt lat="44.22543116226004" lon="11.030667412539449"><ele>275.0</ele><time>2026-03-28T14:37:23Z</time></trkpt><trkpt lat="44.22540372186918" lon="11.03053876826591"><ele>275.0</ele><time>2026-03-28T14:37:24Z</time></trkpt><trkpt lat="44.22539197886237" lon="11.030424751662121"><ele>275.0</ele><time>2026-03-28T14:37:25Z</time></trkpt><trkpt lat="44.22537842196458" lon="11.030332152617074"><ele>275.0</ele><time>2026-03-28T14:37:26Z</time></trkpt><trkpt lat="44.225325904525114" lon="11.03023823063115"><ele>275.0</ele><time>2026-03-28T14:37:28Z</time></trkpt><trkpt lat="44.225239763932926" lon="11.030334735592373"><ele>275.0</ele><time>2026-03-28T14:37:31Z</time></trkpt><trkpt lat="44.225240415067645" lon="11.030442436947503"><ele>275.0</ele><time>2026-03-28T14:37:32Z</time></trkpt><trkpt lat="44.225251353105776" lon="11.030596537348188"><ele>275.0</ele><time>2026-03-28T14:37:33Z</time></trkpt><trkpt lat="44.22527018209603" lon="11.030833799571509"><ele>275.0</ele><time>2026-03-28T14:37:34Z</time></trkpt><trkpt lat="44.22528628446987" lon="11.031132446312768"><ele>275.0</ele><time>2026-03-28T14:37:35Z</time></trkpt><trkpt lat="44.225311573215095" lon="11.031468485801023"><ele>273.5</ele><time>2026-03-28T14:37:36Z</time></trkpt><trkpt lat="44.22533848350603" lon="11.031834210849201"><ele>272.0</ele><time>2026-03-28T14:37:37Z</time></trkpt><trkpt lat="44.225354478398756" lon="11.032171394705166"><ele>272.0</ele><time>2026-03-28T14:37:38Z</time></trkpt><trkpt lat="44.22537032888558" lon="11.032460995709576"><ele>272.0</ele><time>2026-03-28T14:37:39Z</time></trkpt><trkpt lat="44.22539957773804" lon="11.032699894379485"><ele>272.0</ele><time>2026-03-28T14:37:40Z</time></trkpt><trkpt lat="44.225463582797644" lon="11.032911538054845"><ele>271.0</ele><time>2026-03-28T14:37:41Z</time></trkpt><trkpt lat="44.22556438608178" lon="11.033115267872494"><ele>270.0</ele><time>2026-03-28T14:37:42Z</time></trkpt><trkpt lat="44.225639142308644" lon="11.03336167111382"><ele>269.0</ele><time>2026-03-28T14:37:43Z</time></trkpt><trkpt lat="44.22573016215695" lon="11.033620978031907"><ele>269.5</ele><time>2026-03-28T14:37:44Z</time></trkpt><trkpt lat="44.225840984562566" lon="11.033930765358868"><ele>270.0</ele><time>2026-03-28T14:37:45Z</time></trkpt><trkpt lat="44.22598022654612" lon="11.03426888585226"><ele>270.0</ele><time>2026-03-28T14:37:46Z</time></trkpt><trkpt lat="44.226105380776495" lon="11.034660647765596"><ele>270.0</ele><time>2026-03-28T14:37:47Z</time></trkpt><trkpt lat="44.22624499001622" lon="11.035047251110079"><ele>269.0</ele><time>2026-03-28T14:37:48Z</time></trkpt><trkpt lat="44.22636564851521" lon="11.035403216963163"><ele>268.0</ele><time>2026-03-28T14:37:49Z</time></trkpt><trkpt lat="44.226487242867925" lon="11.035711222282442"><ele>271.0</ele><time>2026-03-28T14:37:50Z</time></trkpt><trkpt lat="44.226586811684655" lon="11.035997031804246"><ele>274.0</ele><time>2026-03-28T14:37:50.999Z</time></trkpt><trkpt lat="44.22666147477845" lon="11.036245498858849"><ele>277.0</ele><time>2026-03-28T14:37:51.999Z</time></trkpt><trkpt lat="44.22674227276652" lon="11.036458106312397"><ele>274.3333333333333</ele><time>2026-03-28T14:37:52.999Z</time></trkpt><trkpt lat="44.22677310014351" lon="11.036691154560508"><ele>271.6666666666667</ele><time>2026-03-28T14:37:53.999Z</time></trkpt><trkpt lat="44.22674990251753" lon="11.03691482302203"><ele>269.0</ele><time>2026-03-28T14:37:54.999Z</time></trkpt><trkpt lat="44.22673870388421" lon="11.037137308663151"><ele>269.0</ele><time>2026-03-28T14:37:55.999Z</time></trkpt><trkpt lat="44.22676262618735" lon="11.037349653156422"><ele>269.0</ele><time>2026-03-28T14:37:56.999Z</time></trkpt><trkpt lat="44.22679904388379" lon="11.037536284943775"><ele>269.0</ele><time>2026-03-28T14:37:57.999Z</time></trkpt><trkpt lat="44.22685951140402" lon="11.037699225634093"><ele>269.0</ele><time>2026-03-28T14:37:58.999Z</time></trkpt><trkpt lat="44.22692360072375" lon="11.03783981165466"><ele>268.4</ele><time>2026-03-28T14:38:00Z</time></trkpt><trkpt lat="44.22699246592566" lon="11.037965716468095"><ele>267.79999999999995</ele><time>2026-03-28T14:38:01Z</time></trkpt><trkpt lat="44.22706086681669" lon="11.038080046486868"><ele>267.20000000000005</ele><time>2026-03-28T14:38:02Z</time></trkpt><trkpt lat="44.22709846871887" lon="11.03819338550282"><ele>266.6</ele><time>2026-03-28T14:38:03Z</time></trkpt><trkpt lat="44.227103433386205" lon="11.038311839971996"><ele>266.0</ele><time>2026-03-28T14:38:04Z</time></trkpt><trkpt lat="44.22706918907035" lon="11.038442390210362"><ele>267.0</ele><time>2026-03-28T14:38:05Z</time></trkpt><trkpt lat="44.227037698340176" lon="11.038580270409469"><ele>268.0</ele><time>2026-03-28T14:38:06Z</time></trkpt><trkpt lat="44.227059051284726" lon="11.038710515511054"><ele>269.0</ele><time>2026-03-28T14:38:07Z</time></trkpt><trkpt lat="44.22713256385498" lon="11.03880609411669"><ele>270.0</ele><time>2026-03-28T14:38:08Z</time></trkpt><trkpt lat="44.22723231009789" lon="11.038842004256596"><ele>271.0</ele><time>2026-03-28T14:38:09Z</time></trkpt><trkpt lat="44.2273439813065" lon="11.03880809307881"><ele>271.0</ele><time>2026-03-28T14:38:10Z</time></trkpt><trkpt lat="44.22744282494563" lon="11.038722332696144"><ele>271.0</ele><time>2026-03-28T14:38:11Z</time></trkpt><trkpt lat="44.22750000499861" lon="11.038659715987922"><ele>271.0</ele><time>2026-03-28T14:38:12Z</time></trkpt><trkpt lat="44.22759851345406" lon="11.038749521107723"><ele>271.0</ele><time>2026-03-28T14:38:13Z</time></trkpt><trkpt lat="44.22765375110353" lon="11.038859434835409"><ele>271.0</ele><time>2026-03-28T14:38:14Z</time></trkpt><trkpt lat="44.22764741029492" lon="11.039032689554684"><ele>268.75</ele><time>2026-03-28T14:38:15Z</time></trkpt><trkpt lat="44.22770033910246" lon="11.039203486756733"><ele>266.5</ele><time>2026-03-28T14:38:16Z</time></trkpt><trkpt lat="44.227789292427836" lon="11.039357642176297"><ele>264.25</ele><time>2026-03-28T14:38:17Z</time></trkpt><trkpt lat="44.2279184678009" lon="11.039513372120295"><ele>262.0</ele><time>2026-03-28T14:38:18Z</time></trkpt><trkpt lat="44.228082321482425" lon="11.039719090980777"><ele>262.0</ele><time>2026-03-28T14:38:19Z</time></trkpt><trkpt lat="44.228270796193776" lon="11.039966876249018"><ele>262.0</ele><time>2026-03-28T14:38:20Z</time></trkpt><trkpt lat="44.22841794322888" lon="11.040147249654654"><ele>262.0</ele><time>2026-03-28T14:38:21Z</time></trkpt><trkpt lat="44.22851442486548" lon="11.040266943231073"><ele>262.0</ele><time>2026-03-28T14:38:22Z</time></trkpt><trkpt lat="44.22858377702553" lon="11.040361425919375"><ele>262.0</ele><time>2026-03-28T14:38:23Z</time></trkpt><trkpt lat="44.22864163478359" lon="11.040448170384584"><ele>262.0</ele><time>2026-03-28T14:38:24Z</time></trkpt><trkpt lat="44.22869293961043" lon="11.040540155442779"><ele>262.0</ele><time>2026-03-28T14:38:25Z</time></trkpt><trkpt lat="44.22874452865698" lon="11.04062218711984"><ele>262.0</ele><time>2026-03-28T14:38:26Z</time></trkpt><trkpt lat="44.22879561227218" lon="11.04070281458144"><ele>262.0</ele><time>2026-03-28T14:38:27Z</time></trkpt><trkpt lat="44.2288566508652" lon="11.040793322022827"><ele>262.0</ele><time>2026-03-28T14:38:28Z</time></trkpt><trkpt lat="44.22890680404689" lon="11.040876361619343"><ele>262.0</ele><time>2026-03-28T14:38:29Z</time></trkpt><trkpt lat="44.228951332109446" lon="11.040994547669131"><ele>262.0</ele><time>2026-03-28T14:38:31Z</time></trkpt><trkpt lat="44.22900750016834" lon="11.041117487545408"><ele>262.0</ele><time>2026-03-28T14:38:34Z</time></trkpt><trkpt lat="44.22905671154159" lon="11.041225115074111"><ele>263.0</ele><time>2026-03-28T14:38:36Z</time></trkpt><trkpt lat="44.22910081954353" lon="11.041316965026564"><ele>264.0</ele><time>2026-03-28T14:38:39Z</time></trkpt><trkpt lat="44.2292108314721" lon="11.041151008535596"><ele>265.0</ele><time>2026-03-28T14:38:42Z</time></trkpt><trkpt lat="44.22916540772695" lon="11.041089917581884"><ele>266.0</ele><time>2026-03-28T14:38:44Z</time></trkpt><trkpt lat="44.22911446092706" lon="11.040988414311672"><ele>267.0</ele><time>2026-03-28T14:38:47Z</time></trkpt><trkpt lat="44.22907142604708" lon="11.0408962722269"><ele>267.0</ele><time>2026-03-28T14:38:50Z</time></trkpt><trkpt lat="44.228994471757275" lon="11.040930539443295"><ele>267.0</ele><time>2026-03-28T14:39:30Z</time></trkpt><trkpt lat="44.22893374648378" lon="11.04086921344072"><ele>267.0</ele><time>2026-03-28T14:39:33Z</time></trkpt><trkpt lat="44.22889573144485" lon="11.04079598470229"><ele>267.0</ele><time>2026-03-28T14:39:34Z</time></trkpt><trkpt lat="44.22883344113418" lon="11.040719307070155"><ele>267.0</ele><time>2026-03-28T14:39:35Z</time></trkpt><trkpt lat="44.22877613328332" lon="11.040625969695254"><ele>267.0</ele><time>2026-03-28T14:39:36Z</time></trkpt><trkpt lat="44.22870641258391" lon="11.040527116902295"><ele>266.0</ele><time>2026-03-28T14:39:37Z</time></trkpt><trkpt lat="44.22864521464373" lon="11.04043543157106"><ele>265.0</ele><time>2026-03-28T14:39:38.001Z</time></trkpt><trkpt lat="44.22859041801603" lon="11.04034964241805"><ele>264.0</ele><time>2026-03-28T14:39:39.001Z</time></trkpt><trkpt lat="44.22854104405583" lon="11.040277528457537"><ele>263.0</ele><time>2026-03-28T14:39:40.001Z</time></trkpt><trkpt lat="44.22848858370794" lon="11.040179364136696"><ele>262.0</ele><time>2026-03-28T14:39:42.001Z</time></trkpt><trkpt lat="44.22862216780696" lon="11.040053094307506"><ele>262.0</ele><time>2026-03-28T14:39:45.001Z</time></trkpt><trkpt lat="44.22871122466087" lon="11.040012539837425"><ele>262.0</ele><time>2026-03-28T14:39:46.001Z</time></trkpt><trkpt lat="44.22881455766562" lon="11.039937043797682"><ele>262.0</ele><time>2026-03-28T14:39:47.001Z</time></trkpt><trkpt lat="44.22893242233933" lon="11.039845674729534"><ele>262.0</ele><time>2026-03-28T14:39:48.001Z</time></trkpt><trkpt lat="44.229046936006455" lon="11.039753958190385"><ele>265.25</ele><time>2026-03-28T14:39:49.001Z</time></trkpt><trkpt lat="44.229166267797815" lon="11.039669183815668"><ele>268.5</ele><time>2026-03-28T14:39:50.001Z</time></trkpt><trkpt lat="44.229277939248206" lon="11.039592754910302"><ele>271.75</ele><time>2026-03-28T14:39:51.001Z</time></trkpt><trkpt lat="44.22937781412914" lon="11.039529371897116"><ele>275.0</ele><time>2026-03-28T14:39:52.001Z</time></trkpt><trkpt lat="44.22946738757021" lon="11.039486631305063"><ele>275.0</ele><time>2026-03-28T14:39:53.001Z</time></trkpt><trkpt lat="44.22954752843896" lon="11.039448498407005"><ele>275.0</ele><time>2026-03-28T14:39:54.001Z</time></trkpt><trkpt lat="44.229634987781985" lon="11.039403453900283"><ele>275.0</ele><time>2026-03-28T14:39:55.001Z</time></trkpt><trkpt lat="44.22972245233452" lon="11.03935009761126"><ele>275.0</ele><time>2026-03-28T14:39:56.001Z</time></trkpt><trkpt lat="44.22981418042914" lon="11.039297757561616"><ele>275.0</ele><time>2026-03-28T14:39:57Z</time></trkpt><trkpt lat="44.229909706140596" lon="11.039245971688027"><ele>278.4</ele><time>2026-03-28T14:39:58Z</time></trkpt><trkpt lat="44.23000519694143" lon="11.03919450167615"><ele>281.8</ele><time>2026-03-28T14:39:59Z</time></trkpt><trkpt lat="44.23010221829221" lon="11.039144502604518"><ele>285.2</ele><time>2026-03-28T14:40:00Z</time></trkpt><trkpt lat="44.23018932115302" lon="11.03909812513471"><ele>288.6</ele><time>2026-03-28T14:40:01Z</time></trkpt><trkpt lat="44.230258339063276" lon="11.039080145266194"><ele>292.0</ele><time>2026-03-28T14:40:02Z</time></trkpt><trkpt lat="44.23036528219605" lon="11.039143352677543"><ele>292.0</ele><time>2026-03-28T14:40:04Z</time></trkpt><trkpt lat="44.230411018703975" lon="11.039217348558811"><ele>292.0</ele><time>2026-03-28T14:40:05Z</time></trkpt><trkpt lat="44.2304156517423" lon="11.039372089621104"><ele>292.0</ele><time>2026-03-28T14:40:06Z</time></trkpt><trkpt lat="44.23048466545912" lon="11.03947632204114"><ele>292.0</ele><time>2026-03-28T14:40:08Z</time></trkpt><trkpt lat="44.23059698342417" lon="11.039391812193909"><ele>292.0</ele><time>2026-03-28T14:40:10Z</time></trkpt><trkpt lat="44.23068400869512" lon="11.039352559872132"><ele>295.2</ele><time>2026-03-28T14:40:11Z</time></trkpt><trkpt lat="44.2307662364783" lon="11.039337745193304"><ele>298.4</ele><time>2026-03-28T14:40:12Z</time></trkpt><trkpt lat="44.23085249941399" lon="11.039380892839596"><ele>301.6</ele><time>2026-03-28T14:40:13Z</time></trkpt><trkpt lat="44.23096576351189" lon="11.039446535842828"><ele>304.8</ele><time>2026-03-28T14:40:14Z</time></trkpt><trkpt lat="44.231098908798366" lon="11.039475336983722"><ele>308.0</ele><time>2026-03-28T14:40:15Z</time></trkpt><trkpt lat="44.23127596875787" lon="11.039486706682233"><ele>308.0</ele><time>2026-03-28T14:40:16Z</time></trkpt><trkpt lat="44.231465131949534" lon="11.039509214747474"><ele>308.0</ele><time>2026-03-28T14:40:17Z</time></trkpt><trkpt lat="44.231671749267804" lon="11.039531577079101"><ele>308.0</ele><time>2026-03-28T14:40:18Z</time></trkpt><trkpt lat="44.231866079194795" lon="11.039558434557431"><ele>313.0</ele><time>2026-03-28T14:40:19Z</time></trkpt><trkpt lat="44.23203984908055" lon="11.039583061301167"><ele>318.0</ele><time>2026-03-28T14:40:20Z</time></trkpt><trkpt lat="44.23219373242573" lon="11.039603846232035"><ele>323.0</ele><time>2026-03-28T14:40:21Z</time></trkpt><trkpt lat="44.23231999100316" lon="11.039628905131613"><ele>325.4</ele><time>2026-03-28T14:40:22Z</time></trkpt><trkpt lat="44.23242700099601" lon="11.03965500546089"><ele>327.79999999999995</ele><time>2026-03-28T14:40:23Z</time></trkpt><trkpt lat="44.23252637400297" lon="11.039669446304394"><ele>330.2</ele><time>2026-03-28T14:40:24Z</time></trkpt><trkpt lat="44.23262802684015" lon="11.039661020782338"><ele>332.6</ele><time>2026-03-28T14:40:25Z</time></trkpt><trkpt lat="44.23271979411918" lon="11.039537687887796"><ele>335.0</ele><time>2026-03-28T14:40:26Z</time></trkpt><trkpt lat="44.23280605320461" lon="11.039412597572712"><ele>335.0</ele><time>2026-03-28T14:40:27Z</time></trkpt><trkpt lat="44.23290526248312" lon="11.039321351450614"><ele>335.0</ele><time>2026-03-28T14:40:28Z</time></trkpt><trkpt lat="44.23298236473236" lon="11.039236659501723"><ele>335.0</ele><time>2026-03-28T14:40:29Z</time></trkpt><trkpt lat="44.23308692305858" lon="11.03926205007646"><ele>335.0</ele><time>2026-03-28T14:40:30Z</time></trkpt><trkpt lat="44.2332037095071" lon="11.039342502681258"><ele>338.25</ele><time>2026-03-28T14:40:31Z</time></trkpt><trkpt lat="44.23333857080759" lon="11.03935248127436"><ele>341.5</ele><time>2026-03-28T14:40:32Z</time></trkpt><trkpt lat="44.233467262850276" lon="11.039336880998052"><ele>344.75</ele><time>2026-03-28T14:40:33Z</time></trkpt><trkpt lat="44.23358301798983" lon="11.039305715045893"><ele>348.0</ele><time>2026-03-28T14:40:34Z</time></trkpt><trkpt lat="44.23368535707248" lon="11.039346426773719"><ele>348.0</ele><time>2026-03-28T14:40:35Z</time></trkpt><trkpt lat="44.233747239493184" lon="11.039479503513574"><ele>348.0</ele><time>2026-03-28T14:40:36Z</time></trkpt><trkpt lat="44.23384523338781" lon="11.0396136855955"><ele>348.0</ele><time>2026-03-28T14:40:37Z</time></trkpt><trkpt lat="44.23397999322893" lon="11.039716527626203"><ele>348.0</ele><time>2026-03-28T14:40:38Z</time></trkpt><trkpt lat="44.2341251299052" lon="11.039820887414267"><ele>351.5</ele><time>2026-03-28T14:40:39Z</time></trkpt><trkpt lat="44.23425997549445" lon="11.039924976071232"><ele>355.0</ele><time>2026-03-28T14:40:40Z</time></trkpt><trkpt lat="44.234380493331166" lon="11.040021457212397"><ele>358.5</ele><time>2026-03-28T14:40:41Z</time></trkpt><trkpt lat="44.23447601381808" lon="11.040085640288538"><ele>362.0</ele><time>2026-03-28T14:40:42Z</time></trkpt><trkpt lat="44.23455488675124" lon="11.040120595727124"><ele>362.0</ele><time>2026-03-28T14:40:43Z</time></trkpt><trkpt lat="44.234627648301846" lon="11.04010804335672"><ele>362.0</ele><time>2026-03-28T14:40:44Z</time></trkpt><trkpt lat="44.234714497963054" lon="11.040047767129536"><ele>362.0</ele><time>2026-03-28T14:40:45Z</time></trkpt><trkpt lat="44.234822466098656" lon="11.039977321277194"><ele>362.0</ele><time>2026-03-28T14:40:46Z</time></trkpt><trkpt lat="44.2349333650102" lon="11.039894125047127"><ele>362.0</ele><time>2026-03-28T14:40:47Z</time></trkpt><trkpt lat="44.23503126980041" lon="11.039766178442994"><ele>365.25</ele><time>2026-03-28T14:40:48Z</time></trkpt><trkpt lat="44.235113230482476" lon="11.039595249257179"><ele>368.5</ele><time>2026-03-28T14:40:49Z</time></trkpt><trkpt lat="44.235192431083874" lon="11.039406867434812"><ele>371.75</ele><time>2026-03-28T14:40:50Z</time></trkpt><trkpt lat="44.23526846086693" lon="11.03923395258651"><ele>375.0</ele><time>2026-03-28T14:40:51Z</time></trkpt><trkpt lat="44.23535763936093" lon="11.039115484997291"><ele>377.25</ele><time>2026-03-28T14:40:52Z</time></trkpt><trkpt lat="44.2354639462687" lon="11.039029558546478"><ele>379.5</ele><time>2026-03-28T14:40:53Z</time></trkpt><trkpt lat="44.23558383031959" lon="11.038917713108226"><ele>381.75</ele><time>2026-03-28T14:40:54Z</time></trkpt><trkpt lat="44.23571363441265" lon="11.038827665122765"><ele>384.0</ele><time>2026-03-28T14:40:55Z</time></trkpt><trkpt lat="44.23581928602935" lon="11.038714629074793"><ele>384.0</ele><time>2026-03-28T14:40:56Z</time></trkpt><trkpt lat="44.23590526467077" lon="11.038627928647982"><ele>384.0</ele><time>2026-03-28T14:40:57Z</time></trkpt><trkpt lat="44.23599894511141" lon="11.038601992281977"><ele>384.0</ele><time>2026-03-28T14:40:58Z</time></trkpt><trkpt lat="44.236106629716076" lon="11.038637923336307"><ele>384.0</ele><time>2026-03-28T14:40:59Z</time></trkpt><trkpt lat="44.236216970999756" lon="11.038730049385942"><ele>384.0</ele><time>2026-03-28T14:41:00Z</time></trkpt><trkpt lat="44.23633263230809" lon="11.038777153246187"><ele>385.33333333333337</ele><time>2026-03-28T14:41:01Z</time></trkpt><trkpt lat="44.23648348725219" lon="11.038754243036761"><ele>386.6666666666667</ele><time>2026-03-28T14:41:02Z</time></trkpt><trkpt lat="44.23665694910028" lon="11.03869817789326"><ele>388.0</ele><time>2026-03-28T14:41:03Z</time></trkpt><trkpt lat="44.23683671991024" lon="11.038638509005139"><ele>388.0</ele><time>2026-03-28T14:41:04Z</time></trkpt><trkpt lat="44.23700741951139" lon="11.038582139831313"><ele>388.0</ele><time>2026-03-28T14:41:05Z</time></trkpt><trkpt lat="44.23714631697715" lon="11.038521155677378"><ele>388.0</ele><time>2026-03-28T14:41:06Z</time></trkpt><trkpt lat="44.237269567934035" lon="11.03846396877385"><ele>391.75</ele><time>2026-03-28T14:41:07Z</time></trkpt><trkpt lat="44.23740493392495" lon="11.038451037221005"><ele>395.5</ele><time>2026-03-28T14:41:08Z</time></trkpt><trkpt lat="44.23753620651243" lon="11.038407123738331"><ele>399.25</ele><time>2026-03-28T14:41:09Z</time></trkpt><trkpt lat="44.23766117667114" lon="11.038401775328673"><ele>403.0</ele><time>2026-03-28T14:41:10Z</time></trkpt><trkpt lat="44.23778170774072" lon="11.038443054587566"><ele>403.0</ele><time>2026-03-28T14:41:11Z</time></trkpt><trkpt lat="44.237908014606184" lon="11.038465436626838"><ele>403.0</ele><time>2026-03-28T14:41:12Z</time></trkpt><trkpt lat="44.23800445303155" lon="11.038512966201584"><ele>403.0</ele><time>2026-03-28T14:41:13Z</time></trkpt><trkpt lat="44.238092989642475" lon="11.038532202234727"><ele>403.0</ele><time>2026-03-28T14:41:14Z</time></trkpt><trkpt lat="44.23817178450216" lon="11.038538388980433"><ele>403.0</ele><time>2026-03-28T14:41:15Z</time></trkpt><trkpt lat="44.238262182286896" lon="11.038530990848084"><ele>403.59999999999997</ele><time>2026-03-28T14:41:16Z</time></trkpt><trkpt lat="44.238363158785035" lon="11.038510820605351"><ele>404.2</ele><time>2026-03-28T14:41:17Z</time></trkpt><trkpt lat="44.23846339060876" lon="11.03849092184937"><ele>404.8</ele><time>2026-03-28T14:41:18Z</time></trkpt><trkpt lat="44.23855916047024" lon="11.038504662791592"><ele>405.4</ele><time>2026-03-28T14:41:19Z</time></trkpt><trkpt lat="44.23865841391063" lon="11.03857644300397"><ele>406.0</ele><time>2026-03-28T14:41:20Z</time></trkpt><trkpt lat="44.238782617983965" lon="11.038621976177428"><ele>406.0</ele><time>2026-03-28T14:41:21Z</time></trkpt><trkpt lat="44.2388989070524" lon="11.038678708786085"><ele>406.0</ele><time>2026-03-28T14:41:22Z</time></trkpt><trkpt lat="44.23900193039509" lon="11.038712028495995"><ele>406.0</ele><time>2026-03-28T14:41:23Z</time></trkpt><trkpt lat="44.23910243370436" lon="11.038765676188909"><ele>406.0</ele><time>2026-03-28T14:41:24Z</time></trkpt><trkpt lat="44.23920233187712" lon="11.038897315254554"><ele>406.33333333333337</ele><time>2026-03-28T14:41:25Z</time></trkpt><trkpt lat="44.23934868406858" lon="11.039042588162644"><ele>406.66666666666663</ele><time>2026-03-28T14:41:26Z</time></trkpt><trkpt lat="44.23950239447942" lon="11.039245193085526"><ele>407.0</ele><time>2026-03-28T14:41:27Z</time></trkpt><trkpt lat="44.23966404682548" lon="11.039442164168376"><ele>408.3333333333333</ele><time>2026-03-28T14:41:28.001Z</time></trkpt><trkpt lat="44.23979131568608" lon="11.039628747655648"><ele>409.66666666666663</ele><time>2026-03-28T14:41:29.001Z</time></trkpt><trkpt lat="44.239894235381364" lon="11.039783422643252"><ele>411.0</ele><time>2026-03-28T14:41:30.001Z</time></trkpt><trkpt lat="44.23995925659443" lon="11.039936620593128"><ele>410.0</ele><time>2026-03-28T14:41:31.001Z</time></trkpt><trkpt lat="44.23999140637883" lon="11.040091647582694"><ele>409.0</ele><time>2026-03-28T14:41:32.001Z</time></trkpt><trkpt lat="44.240025123378004" lon="11.040280188368081"><ele>408.0</ele><time>2026-03-28T14:41:33.001Z</time></trkpt><trkpt lat="44.24006455723205" lon="11.040496353947281"><ele>407.0</ele><time>2026-03-28T14:41:34.001Z</time></trkpt><trkpt lat="44.24011627634539" lon="11.040699337704542"><ele>405.20000000000005</ele><time>2026-03-28T14:41:35.001Z</time></trkpt><trkpt lat="44.24014923889934" lon="11.040869729898446"><ele>403.4</ele><time>2026-03-28T14:41:36.001Z</time></trkpt><trkpt lat="44.24018715825319" lon="11.040981827886142"><ele>401.6</ele><time>2026-03-28T14:41:37.001Z</time></trkpt><trkpt lat="44.2402538751177" lon="11.04104609102673"><ele>399.79999999999995</ele><time>2026-03-28T14:41:38.001Z</time></trkpt><trkpt lat="44.24033808802291" lon="11.04106836618918"><ele>398.0</ele><time>2026-03-28T14:41:39.001Z</time></trkpt><trkpt lat="44.24044768533629" lon="11.041055135190891"><ele>398.0</ele><time>2026-03-28T14:41:40.001Z</time></trkpt><trkpt lat="44.24058445309319" lon="11.041014860598542"><ele>398.0</ele><time>2026-03-28T14:41:41.001Z</time></trkpt><trkpt lat="44.24073837345847" lon="11.040978086538804"><ele>398.0</ele><time>2026-03-28T14:41:42.001Z</time></trkpt><trkpt lat="44.24087618450312" lon="11.040985285477127"><ele>398.0</ele><time>2026-03-28T14:41:43.001Z</time></trkpt><trkpt lat="44.24099484839645" lon="11.040995644560226"><ele>399.0</ele><time>2026-03-28T14:41:44.001Z</time></trkpt><trkpt lat="44.2410855231348" lon="11.04095996071578"><ele>400.0</ele><time>2026-03-28T14:41:45.001Z</time></trkpt><trkpt lat="44.241162919579146" lon="11.040884619249653"><ele>401.0</ele><time>2026-03-28T14:41:46.001Z</time></trkpt><trkpt lat="44.24121910379129" lon="11.040789362690687"><ele>402.0</ele><time>2026-03-28T14:41:47.001Z</time></trkpt><trkpt lat="44.24126489321714" lon="11.04069376625062"><ele>403.0</ele><time>2026-03-28T14:41:48.001Z</time></trkpt><trkpt lat="44.241339899077836" lon="11.04061016523035"><ele>404.00000000000006</ele><time>2026-03-28T14:41:49.001Z</time></trkpt><trkpt lat="44.24143205541471" lon="11.040639173520558"><ele>405.0</ele><time>2026-03-28T14:41:50.001Z</time></trkpt><trkpt lat="44.24152277142545" lon="11.040677883052128"><ele>406.0</ele><time>2026-03-28T14:41:51.001Z</time></trkpt><trkpt lat="44.24161054751009" lon="11.04068765652898"><ele>407.0</ele><time>2026-03-28T14:41:52.001Z</time></trkpt><trkpt lat="44.24168071465803" lon="11.040670171706761"><ele>408.00000000000006</ele><time>2026-03-28T14:41:53.001Z</time></trkpt><trkpt lat="44.24173757047615" lon="11.040596454195487"><ele>409.0</ele><time>2026-03-28T14:41:54.001Z</time></trkpt><trkpt lat="44.241798562809805" lon="11.04045669296814"><ele>409.0</ele><time>2026-03-28T14:41:55.001Z</time></trkpt><trkpt lat="44.24188268191802" lon="11.04027228938326"><ele>409.0</ele><time>2026-03-28T14:41:56.001Z</time></trkpt><trkpt lat="44.241984377751116" lon="11.040095484017169"><ele>409.0</ele><time>2026-03-28T14:41:57.001Z</time></trkpt><trkpt lat="44.242081143016215" lon="11.039967379493707"><ele>408.33333333333337</ele><time>2026-03-28T14:41:58.001Z</time></trkpt><trkpt lat="44.242160605884365" lon="11.039856068235412"><ele>407.6666666666667</ele><time>2026-03-28T14:41:59.001Z</time></trkpt><trkpt lat="44.2422283504169" lon="11.039772350751404"><ele>407.0</ele><time>2026-03-28T14:42:00.001Z</time></trkpt><trkpt lat="44.24232397797749" lon="11.039714809605169"><ele>406.33333333333337</ele><time>2026-03-28T14:42:02.001Z</time></trkpt><trkpt lat="44.242373866563945" lon="11.039769128405332"><ele>405.6666666666667</ele><time>2026-03-28T14:42:03Z</time></trkpt><trkpt lat="44.24239740334045" lon="11.039868234938275"><ele>405.0</ele><time>2026-03-28T14:42:04Z</time></trkpt><trkpt lat="44.24244799987857" lon="11.039959563042988"><ele>404.0</ele><time>2026-03-28T14:42:05Z</time></trkpt><trkpt lat="44.24245364709118" lon="11.040080019817193"><ele>403.0</ele><time>2026-03-28T14:42:06Z</time></trkpt><trkpt lat="44.242416732618416" lon="11.040220982534587"><ele>402.0</ele><time>2026-03-28T14:42:07Z</time></trkpt><trkpt lat="44.242378951848494" lon="11.04034117226383"><ele>401.0</ele><time>2026-03-28T14:42:08Z</time></trkpt><trkpt lat="44.242403898981365" lon="11.040451130804167"><ele>400.0</ele><time>2026-03-28T14:42:09Z</time></trkpt><trkpt lat="44.2424728443314" lon="11.040542889761063"><ele>400.0</ele><time>2026-03-28T14:42:10Z</time></trkpt><trkpt lat="44.24256499434434" lon="11.040635521077466"><ele>400.0</ele><time>2026-03-28T14:42:11Z</time></trkpt><trkpt lat="44.24262509992942" lon="11.040771497184423"><ele>400.0</ele><time>2026-03-28T14:42:12Z</time></trkpt><trkpt lat="44.24265308973707" lon="11.0408693262717"><ele>400.0</ele><time>2026-03-28T14:42:13Z</time></trkpt><trkpt lat="44.24263708657886" lon="11.040973609611871"><ele>400.0</ele><time>2026-03-28T14:42:14Z</time></trkpt><trkpt lat="44.242568767010475" lon="11.041031008828945"><ele>400.0</ele><time>2026-03-28T14:42:15Z</time></trkpt><trkpt lat="44.24251083968537" lon="11.041113011317943"><ele>400.0</ele><time>2026-03-28T14:42:16Z</time></trkpt><trkpt lat="44.24244470006231" lon="11.041227308300988"><ele>400.0</ele><time>2026-03-28T14:42:17Z</time></trkpt><trkpt lat="44.242362692092165" lon="11.04133941656251"><ele>400.0</ele><time>2026-03-28T14:42:18Z</time></trkpt><trkpt lat="44.24226288440489" lon="11.04144471946954"><ele>400.0</ele><time>2026-03-28T14:42:19Z</time></trkpt><trkpt lat="44.242185207850966" lon="11.041574231403603"><ele>398.8</ele><time>2026-03-28T14:42:20Z</time></trkpt><trkpt lat="44.24212851860628" lon="11.041658601973777"><ele>397.6</ele><time>2026-03-28T14:42:21Z</time></trkpt><trkpt lat="44.24211444314538" lon="11.041785214985232"><ele>396.4</ele><time>2026-03-28T14:42:23Z</time></trkpt><trkpt lat="44.242205648716634" lon="11.041877173776626"><ele>395.2</ele><time>2026-03-28T14:42:25Z</time></trkpt><trkpt lat="44.24228385634601" lon="11.041876396412873"><ele>394.0</ele><time>2026-03-28T14:42:26Z</time></trkpt><trkpt lat="44.242378670917276" lon="11.041861273253515"><ele>397.5</ele><time>2026-03-28T14:42:27Z</time></trkpt><trkpt lat="44.2424964696942" lon="11.041871104126058"><ele>401.0</ele><time>2026-03-28T14:42:28Z</time></trkpt><trkpt lat="44.24262621768861" lon="11.041859242498848"><ele>404.5</ele><time>2026-03-28T14:42:29Z</time></trkpt><trkpt lat="44.24275267542889" lon="11.041815006316135"><ele>408.0</ele><time>2026-03-28T14:42:30Z</time></trkpt><trkpt lat="44.242874133212446" lon="11.041794306728635"><ele>408.0</ele><time>2026-03-28T14:42:31Z</time></trkpt><trkpt lat="44.24298892887679" lon="11.041741856084641"><ele>408.0</ele><time>2026-03-28T14:42:32Z</time></trkpt><trkpt lat="44.24308481613989" lon="11.041675007040856"><ele>408.0</ele><time>2026-03-28T14:42:33Z</time></trkpt><trkpt lat="44.24316311819986" lon="11.0416358957459"><ele>408.0</ele><time>2026-03-28T14:42:34Z</time></trkpt><trkpt lat="44.24322956753167" lon="11.041640299047094"><ele>408.0</ele><time>2026-03-28T14:42:36Z</time></trkpt><trkpt lat="44.24320011556358" lon="11.041799058811753"><ele>413.0</ele><time>2026-03-28T14:42:38Z</time></trkpt><trkpt lat="44.24314891321684" lon="11.041882580337914"><ele>418.0</ele><time>2026-03-28T14:42:39Z</time></trkpt><trkpt lat="44.24313965525833" lon="11.04197557178743"><ele>422.99999999999994</ele><time>2026-03-28T14:42:40Z</time></trkpt><trkpt lat="44.24327386844479" lon="11.042057285757819"><ele>428.0</ele><time>2026-03-28T14:42:42Z</time></trkpt><trkpt lat="44.24337483206159" lon="11.042036553463424"><ele>433.0</ele><time>2026-03-28T14:42:43Z</time></trkpt><trkpt lat="44.24349289356915" lon="11.042024539256591"><ele>433.0</ele><time>2026-03-28T14:42:44Z</time></trkpt><trkpt lat="44.243605186242576" lon="11.042018149555076"><ele>432.99999999999994</ele><time>2026-03-28T14:42:45Z</time></trkpt><trkpt lat="44.24367528585394" lon="11.04200218985742"><ele>432.99999999999994</ele><time>2026-03-28T14:42:46Z</time></trkpt><trkpt lat="44.24373502865265" lon="11.041942445411602"><ele>433.0</ele><time>2026-03-28T14:42:47Z</time></trkpt><trkpt lat="44.24381176517045" lon="11.041848126010139"><ele>433.0</ele><time>2026-03-28T14:42:48Z</time></trkpt><trkpt lat="44.243914752198656" lon="11.04175377817407"><ele>436.75</ele><time>2026-03-28T14:42:49Z</time></trkpt><trkpt lat="44.24402084108685" lon="11.041645417423737"><ele>440.5</ele><time>2026-03-28T14:42:50Z</time></trkpt><trkpt lat="44.24413101726678" lon="11.041521551669314"><ele>444.25</ele><time>2026-03-28T14:42:51Z</time></trkpt><trkpt lat="44.2442329360282" lon="11.041391461962577"><ele>448.0</ele><time>2026-03-28T14:42:52Z</time></trkpt><trkpt lat="44.24433625015538" lon="11.041306472874986"><ele>448.4</ele><time>2026-03-28T14:42:53Z</time></trkpt><trkpt lat="44.24441841063801" lon="11.041223129838679"><ele>448.79999999999995</ele><time>2026-03-28T14:42:54Z</time></trkpt><trkpt lat="44.24449747599559" lon="11.041158501813984"><ele>449.2</ele><time>2026-03-28T14:42:55Z</time></trkpt><trkpt lat="44.24457262963351" lon="11.041090007751912"><ele>449.6</ele><time>2026-03-28T14:42:56Z</time></trkpt><trkpt lat="44.244674483728424" lon="11.041041224837715"><ele>450.0</ele><time>2026-03-28T14:42:57Z</time></trkpt><trkpt lat="44.244798816345295" lon="11.040990336355035"><ele>452.1666666666667</ele><time>2026-03-28T14:42:58Z</time></trkpt><trkpt lat="44.24491554723979" lon="11.040956276766535"><ele>454.33333333333337</ele><time>2026-03-28T14:42:59Z</time></trkpt><trkpt lat="44.24501525094776" lon="11.040924613146904"><ele>456.5</ele><time>2026-03-28T14:43:00Z</time></trkpt><trkpt lat="44.24509314803091" lon="11.040902968883255"><ele>458.6666666666667</ele><time>2026-03-28T14:43:01Z</time></trkpt><trkpt lat="44.24515672672" lon="11.040856700934931"><ele>460.83333333333337</ele><time>2026-03-28T14:43:02Z</time></trkpt><trkpt lat="44.245200867787375" lon="11.040787009643752"><ele>463.0</ele><time>2026-03-28T14:43:03Z</time></trkpt><trkpt lat="44.24525115640359" lon="11.04070455040564"><ele>463.0</ele><time>2026-03-28T14:43:04Z</time></trkpt><trkpt lat="44.24531585621889" lon="11.040588847879858"><ele>463.0</ele><time>2026-03-28T14:43:05Z</time></trkpt><trkpt lat="44.24539897002526" lon="11.040478472878187"><ele>463.0</ele><time>2026-03-28T14:43:06Z</time></trkpt><trkpt lat="44.24548305314027" lon="11.04036631878789"><ele>463.0</ele><time>2026-03-28T14:43:07Z</time></trkpt><trkpt lat="44.245589973339364" lon="11.040267175539077"><ele>466.0</ele><time>2026-03-28T14:43:08Z</time></trkpt><trkpt lat="44.24568530993038" lon="11.040137663858875"><ele>469.0</ele><time>2026-03-28T14:43:09Z</time></trkpt><trkpt lat="44.245778561789145" lon="11.040043937009328"><ele>472.0</ele><time>2026-03-28T14:43:10Z</time></trkpt><trkpt lat="44.24588087533138" lon="11.039965229832768"><ele>475.0</ele><time>2026-03-28T14:43:11Z</time></trkpt><trkpt lat="44.245980911470845" lon="11.039889565547544"><ele>475.0</ele><time>2026-03-28T14:43:12Z</time></trkpt><trkpt lat="44.246069831117374" lon="11.039818432023514"><ele>475.0</ele><time>2026-03-28T14:43:13Z</time></trkpt><trkpt lat="44.24613875279524" lon="11.039746980607923"><ele>475.0</ele><time>2026-03-28T14:43:14Z</time></trkpt><trkpt lat="44.246202427875055" lon="11.039639984102017"><ele>475.0</ele><time>2026-03-28T14:43:15Z</time></trkpt><trkpt lat="44.246270562500634" lon="11.039474328274714"><ele>475.0</ele><time>2026-03-28T14:43:16Z</time></trkpt><trkpt lat="44.24635736047659" lon="11.039259920591354"><ele>480.0</ele><time>2026-03-28T14:43:17Z</time></trkpt><trkpt lat="44.24647582397144" lon="11.039032578555553"><ele>485.0</ele><time>2026-03-28T14:43:18.001Z</time></trkpt><trkpt lat="44.246589094013856" lon="11.038775498561437"><ele>490.0</ele><time>2026-03-28T14:43:19.001Z</time></trkpt><trkpt lat="44.246717012821335" lon="11.038503301007195"><ele>489.33333333333337</ele><time>2026-03-28T14:43:20.001Z</time></trkpt><trkpt lat="44.246839370938815" lon="11.038230685212135"><ele>488.66666666666663</ele><time>2026-03-28T14:43:21.001Z</time></trkpt><trkpt lat="44.246946950837014" lon="11.037988207658698"><ele>488.0</ele><time>2026-03-28T14:43:22.001Z</time></trkpt><trkpt lat="44.24705802983744" lon="11.037747883955038"><ele>488.0</ele><time>2026-03-28T14:43:23.001Z</time></trkpt><trkpt lat="44.247173512619405" lon="11.0375510213315"><ele>488.0</ele><time>2026-03-28T14:43:24.001Z</time></trkpt><trkpt lat="44.24724725675299" lon="11.037366728731872"><ele>488.0</ele><time>2026-03-28T14:43:25.001Z</time></trkpt><trkpt lat="44.247314463526706" lon="11.037227396370984"><ele>491.66666666666663</ele><time>2026-03-28T14:43:26.001Z</time></trkpt><trkpt lat="44.247366317338525" lon="11.037114138429894"><ele>495.3333333333333</ele><time>2026-03-28T14:43:27.001Z</time></trkpt><trkpt lat="44.247412662222146" lon="11.037005047211293"><ele>499.0</ele><time>2026-03-28T14:43:28.001Z</time></trkpt><trkpt lat="44.24746294955888" lon="11.036889489562196"><ele>502.66666666666663</ele><time>2026-03-28T14:43:29.001Z</time></trkpt><trkpt lat="44.24750707174477" lon="11.03678675798298"><ele>506.3333333333333</ele><time>2026-03-28T14:43:30.001Z</time></trkpt><trkpt lat="44.24756091178414" lon="11.036718319448473"><ele>510.0</ele><time>2026-03-28T14:43:31.001Z</time></trkpt><trkpt lat="44.247644595222205" lon="11.036669285373579"><ele>508.8</ele><time>2026-03-28T14:43:32.001Z</time></trkpt><trkpt lat="44.2477357179479" lon="11.036635881398645"><ele>507.6</ele><time>2026-03-28T14:43:33.001Z</time></trkpt><trkpt lat="44.24783094190951" lon="11.036584585219265"><ele>506.4</ele><time>2026-03-28T14:43:34.001Z</time></trkpt><trkpt lat="44.2479337636155" lon="11.036530157158177"><ele>505.2</ele><time>2026-03-28T14:43:35.001Z</time></trkpt><trkpt lat="44.24802225530907" lon="11.036487372221151"><ele>504.0</ele><time>2026-03-28T14:43:36.001Z</time></trkpt><trkpt lat="44.248096482028956" lon="11.036460209805437"><ele>508.75</ele><time>2026-03-28T14:43:37.001Z</time></trkpt><trkpt lat="44.24820370522473" lon="11.036489455356728"><ele>513.5</ele><time>2026-03-28T14:43:39.001Z</time></trkpt><trkpt lat="44.24829414427462" lon="11.036557645285203"><ele>518.25</ele><time>2026-03-28T14:43:40.001Z</time></trkpt><trkpt lat="44.24837855842234" lon="11.036672053506706"><ele>523.0</ele><time>2026-03-28T14:43:41.001Z</time></trkpt><trkpt lat="44.24848151542648" lon="11.036772435979254"><ele>523.8</ele><time>2026-03-28T14:43:42.001Z</time></trkpt><trkpt lat="44.24857315078401" lon="11.0368818203181"><ele>524.5999999999999</ele><time>2026-03-28T14:43:43.001Z</time></trkpt><trkpt lat="44.24865465717044" lon="11.036973240614932"><ele>525.4000000000001</ele><time>2026-03-28T14:43:44.001Z</time></trkpt><trkpt lat="44.248723022984436" lon="11.037046915977824"><ele>526.2</ele><time>2026-03-28T14:43:45.001Z</time></trkpt><trkpt lat="44.24879188903033" lon="11.037112834098524"><ele>527.0</ele><time>2026-03-28T14:43:46.001Z</time></trkpt><trkpt lat="44.24885058703741" lon="11.037149523304759"><ele>527.0</ele><time>2026-03-28T14:43:47.001Z</time></trkpt><trkpt lat="44.24894124873819" lon="11.037159240489146"><ele>527.0</ele><time>2026-03-28T14:43:48.001Z</time></trkpt><trkpt lat="44.249060223225854" lon="11.037158205237192"><ele>527.0</ele><time>2026-03-28T14:43:49.001Z</time></trkpt><trkpt lat="44.249192723711936" lon="11.037161467680223"><ele>527.0</ele><time>2026-03-28T14:43:50.001Z</time></trkpt><trkpt lat="44.249306824205334" lon="11.037179042330084"><ele>529.2</ele><time>2026-03-28T14:43:51.001Z</time></trkpt><trkpt lat="44.249395238311145" lon="11.0372227304135"><ele>531.4000000000001</ele><time>2026-03-28T14:43:52.001Z</time></trkpt><trkpt lat="44.249467796013974" lon="11.037305723148648"><ele>533.5999999999999</ele><time>2026-03-28T14:43:53.001Z</time></trkpt><trkpt lat="44.24955538963962" lon="11.037412037177383"><ele>535.8</ele><time>2026-03-28T14:43:54.001Z</time></trkpt><trkpt lat="44.24966491363975" lon="11.037518566970833"><ele>538.0</ele><time>2026-03-28T14:43:55.001Z</time></trkpt><trkpt lat="44.24977312297032" lon="11.037611006286662"><ele>543.8</ele><time>2026-03-28T14:43:56.001Z</time></trkpt><trkpt lat="44.249867956341994" lon="11.037711968184983"><ele>549.5999999999999</ele><time>2026-03-28T14:43:57.001Z</time></trkpt><trkpt lat="44.24992735486433" lon="11.037842302361497"><ele>555.4000000000001</ele><time>2026-03-28T14:43:58.001Z</time></trkpt><trkpt lat="44.24998279766386" lon="11.03796258952392"><ele>561.2</ele><time>2026-03-28T14:43:59.001Z</time></trkpt><trkpt lat="44.250021271207714" lon="11.038104536908145"><ele>567.0</ele><time>2026-03-28T14:44:00.001Z</time></trkpt><trkpt lat="44.250068080786185" lon="11.038220384450403"><ele>566.6666666666666</ele><time>2026-03-28T14:44:01.001Z</time></trkpt><trkpt lat="44.25007832060649" lon="11.038336014062118"><ele>566.3333333333334</ele><time>2026-03-28T14:44:02.001Z</time></trkpt><trkpt lat="44.25000176166357" lon="11.03843457617364"><ele>566.0</ele><time>2026-03-28T14:44:03.001Z</time></trkpt><trkpt lat="44.2499965674117" lon="11.038528695545196"><ele>565.6666666666667</ele><time>2026-03-28T14:44:04.001Z</time></trkpt><trkpt lat="44.25000922786325" lon="11.038634416608305"><ele>565.3333333333334</ele><time>2026-03-28T14:44:05.001Z</time></trkpt><trkpt lat="44.25005358467593" lon="11.038743369901157"><ele>565.0</ele><time>2026-03-28T14:44:06.001Z</time></trkpt><trkpt lat="44.250109242944724" lon="11.038862524068778"><ele>565.0</ele><time>2026-03-28T14:44:07.001Z</time></trkpt><trkpt lat="44.25010687419473" lon="11.038981096311678"><ele>565.0</ele><time>2026-03-28T14:44:08.001Z</time></trkpt><trkpt lat="44.25006605292773" lon="11.039076985446373"><ele>565.0</ele><time>2026-03-28T14:44:09Z</time></trkpt><trkpt lat="44.25004841402405" lon="11.039201375353583"><ele>565.0</ele><time>2026-03-28T14:44:10Z</time></trkpt><trkpt lat="44.25011296185338" lon="11.039348282961273"><ele>565.0</ele><time>2026-03-28T14:44:12Z</time></trkpt><trkpt lat="44.250218477038324" lon="11.039274523471255"><ele>565.0</ele><time>2026-03-28T14:44:14Z</time></trkpt><trkpt lat="44.25024597465096" lon="11.03917751240466"><ele>565.0</ele><time>2026-03-28T14:44:15Z</time></trkpt><trkpt lat="44.25026397531487" lon="11.039064118524783"><ele>565.0</ele><time>2026-03-28T14:44:16Z</time></trkpt><trkpt lat="44.2503041714798" lon="11.03893657403919"><ele>565.0</ele><time>2026-03-28T14:44:17Z</time></trkpt><trkpt lat="44.25033271978719" lon="11.038786750458854"><ele>565.0</ele><time>2026-03-28T14:44:18Z</time></trkpt><trkpt lat="44.250376230039635" lon="11.038657868915752"><ele>565.0</ele><time>2026-03-28T14:44:19Z</time></trkpt><trkpt lat="44.25041559631688" lon="11.03857098921745"><ele>565.0</ele><time>2026-03-28T14:44:20Z</time></trkpt><trkpt lat="44.2504592849209" lon="11.038506358981534"><ele>565.0</ele><time>2026-03-28T14:44:21Z</time></trkpt><trkpt lat="44.25052535317071" lon="11.038458865214132"><ele>565.0</ele><time>2026-03-28T14:44:22Z</time></trkpt><trkpt lat="44.25059954301396" lon="11.03839545561347"><ele>565.0</ele><time>2026-03-28T14:44:23Z</time></trkpt><trkpt lat="44.25066011955136" lon="11.038304601738345"><ele>565.0</ele><time>2026-03-28T14:44:24Z</time></trkpt><trkpt lat="44.25068440090472" lon="11.038200172868178"><ele>574.6</ele><time>2026-03-28T14:44:25Z</time></trkpt><trkpt lat="44.25067415715144" lon="11.038086767224138"><ele>584.2</ele><time>2026-03-28T14:44:26Z</time></trkpt><trkpt lat="44.250650412913124" lon="11.037952131919239"><ele>593.8</ele><time>2026-03-28T14:44:27Z</time></trkpt><trkpt lat="44.25063782068564" lon="11.037791282725665"><ele>603.4</ele><time>2026-03-28T14:44:28Z</time></trkpt><trkpt lat="44.25063044095528" lon="11.037593093926558"><ele>613.0</ele><time>2026-03-28T14:44:29Z</time></trkpt><trkpt lat="44.25062979220371" lon="11.03740121689275"><ele>606.1999999999999</ele><time>2026-03-28T14:44:30Z</time></trkpt><trkpt lat="44.250613294248346" lon="11.037220076750627"><ele>599.4</ele><time>2026-03-28T14:44:31Z</time></trkpt><trkpt lat="44.250591009208335" lon="11.03706983320901"><ele>592.5999999999999</ele><time>2026-03-28T14:44:32Z</time></trkpt><trkpt lat="44.25055526202124" lon="11.03692702427389"><ele>585.8</ele><time>2026-03-28T14:44:33Z</time></trkpt><trkpt lat="44.25052342982145" lon="11.036804744520746"><ele>579.0</ele><time>2026-03-28T14:44:34Z</time></trkpt><trkpt lat="44.25049668068648" lon="11.036689881068181"><ele>580.6</ele><time>2026-03-28T14:44:35Z</time></trkpt><trkpt lat="44.25047771994262" lon="11.036582075161716"><ele>582.2</ele><time>2026-03-28T14:44:36Z</time></trkpt><trkpt lat="44.25049725783564" lon="11.036459975509732"><ele>583.8000000000001</ele><time>2026-03-28T14:44:37Z</time></trkpt><trkpt lat="44.25051679432945" lon="11.036317582389024"><ele>585.4</ele><time>2026-03-28T14:44:38Z</time></trkpt><trkpt lat="44.2505387853304" lon="11.036181559368252"><ele>587.0</ele><time>2026-03-28T14:44:39Z</time></trkpt><trkpt lat="44.25055373931416" lon="11.036071388478996"><ele>587.0</ele><time>2026-03-28T14:44:40Z</time></trkpt><trkpt lat="44.250581434145666" lon="11.035930683818302"><ele>587.0</ele><time>2026-03-28T14:44:42Z</time></trkpt><trkpt lat="44.25068870495585" lon="11.035986034200956"><ele>587.0</ele><time>2026-03-28T14:44:45Z</time></trkpt><trkpt lat="44.250666790247585" lon="11.03617625093384"><ele>587.0</ele><time>2026-03-28T14:44:47Z</time></trkpt><trkpt lat="44.25065612996831" lon="11.036301063428501"><ele>587.0</ele><time>2026-03-28T14:44:48Z</time></trkpt><trkpt lat="44.250648726624256" lon="11.036442052310864"><ele>593.8000000000001</ele><time>2026-03-28T14:44:49Z</time></trkpt><trkpt lat="44.250662728956016" lon="11.036591227074286"><ele>600.6</ele><time>2026-03-28T14:44:50Z</time></trkpt><trkpt lat="44.250663713120076" lon="11.036737577767529"><ele>607.4000000000001</ele><time>2026-03-28T14:44:51Z</time></trkpt><trkpt lat="44.25067864652334" lon="11.036893186849978"><ele>614.2</ele><time>2026-03-28T14:44:52Z</time></trkpt><trkpt lat="44.25070403443189" lon="11.03705563050506"><ele>621.0</ele><time>2026-03-28T14:44:53Z</time></trkpt><trkpt lat="44.250731899812195" lon="11.037239149643856"><ele>621.5</ele><time>2026-03-28T14:44:54Z</time></trkpt><trkpt lat="44.25078870904392" lon="11.03742113930412"><ele>622.0</ele><time>2026-03-28T14:44:55Z</time></trkpt><trkpt lat="44.250849737464144" lon="11.03760046662478"><ele>622.5</ele><time>2026-03-28T14:44:56Z</time></trkpt><trkpt lat="44.25093077725951" lon="11.037763992309385"><ele>623.0</ele><time>2026-03-28T14:44:57Z</time></trkpt><trkpt lat="44.25099851344193" lon="11.037923414278861"><ele>621.3333333333333</ele><time>2026-03-28T14:44:58Z</time></trkpt><trkpt lat="44.25106071399508" lon="11.038049995947624"><ele>619.6666666666666</ele><time>2026-03-28T14:44:59Z</time></trkpt><trkpt lat="44.251085343395694" lon="11.038168975831828"><ele>618.0</ele><time>2026-03-28T14:45:00Z</time></trkpt><trkpt lat="44.2510934415425" lon="11.038274812768034"><ele>616.3333333333334</ele><time>2026-03-28T14:45:01Z</time></trkpt><trkpt lat="44.25109908879924" lon="11.03837371441957"><ele>614.6666666666667</ele><time>2026-03-28T14:45:02Z</time></trkpt><trkpt lat="44.251038820483146" lon="11.038465303563695"><ele>613.0</ele><time>2026-03-28T14:45:03Z</time></trkpt><trkpt lat="44.25098655931965" lon="11.0385729601565"><ele>612.8333333333334</ele><time>2026-03-28T14:45:04Z</time></trkpt><trkpt lat="44.25094469109584" lon="11.038693490640515"><ele>612.6666666666667</ele><time>2026-03-28T14:45:05Z</time></trkpt><trkpt lat="44.25090537970449" lon="11.038793326328989"><ele>612.5</ele><time>2026-03-28T14:45:06Z</time></trkpt><trkpt lat="44.250891647584105" lon="11.038888557239975"><ele>612.3333333333334</ele><time>2026-03-28T14:45:07Z</time></trkpt><trkpt lat="44.25090749445796" lon="11.038984048323487"><ele>612.1666666666666</ele><time>2026-03-28T14:45:08Z</time></trkpt><trkpt lat="44.25094206339489" lon="11.039066622909617"><ele>612.0</ele><time>2026-03-28T14:45:09Z</time></trkpt><trkpt lat="44.25098183404475" lon="11.039151189211557"><ele>612.0</ele><time>2026-03-28T14:45:10Z</time></trkpt><trkpt lat="44.2510003736723" lon="11.0392607692371"><ele>612.0</ele><time>2026-03-28T14:45:11Z</time></trkpt><trkpt lat="44.25102670466413" lon="11.039357347989545"><ele>612.0</ele><time>2026-03-28T14:45:12Z</time></trkpt><trkpt lat="44.25106028390648" lon="11.03945681920707"><ele>612.0</ele><time>2026-03-28T14:45:13Z</time></trkpt><trkpt lat="44.2510697407943" lon="11.039569007505937"><ele>612.0</ele><time>2026-03-28T14:45:14Z</time></trkpt><trkpt lat="44.251080311541905" lon="11.039689121049166"><ele>612.0</ele><time>2026-03-28T14:45:15Z</time></trkpt><trkpt lat="44.25107376605464" lon="11.039818608914398"><ele>612.0</ele><time>2026-03-28T14:45:16Z</time></trkpt><trkpt lat="44.25100283544563" lon="11.039950706646618"><ele>612.0</ele><time>2026-03-28T14:45:17Z</time></trkpt><trkpt lat="44.25098009681677" lon="11.040115134094918"><ele>612.0</ele><time>2026-03-28T14:45:18Z</time></trkpt><trkpt lat="44.25096321679752" lon="11.040267942562087"><ele>612.0</ele><time>2026-03-28T14:45:19Z</time></trkpt><trkpt lat="44.250969819624935" lon="11.040434309115186"><ele>612.0</ele><time>2026-03-28T14:45:20Z</time></trkpt><trkpt lat="44.25098261646108" lon="11.040579569976726"><ele>612.0</ele><time>2026-03-28T14:45:21Z</time></trkpt><trkpt lat="44.250980695413936" lon="11.040718495235401"><ele>612.0</ele><time>2026-03-28T14:45:22Z</time></trkpt><trkpt lat="44.25095691058459" lon="11.040850457904284"><ele>612.0</ele><time>2026-03-28T14:45:23Z</time></trkpt><trkpt lat="44.250885286047136" lon="11.04094517822345"><ele>612.0</ele><time>2026-03-28T14:45:24.001Z</time></trkpt><trkpt lat="44.25083843268891" lon="11.041130826686663"><ele>614.8000000000001</ele><time>2026-03-28T14:45:25.001Z</time></trkpt><trkpt lat="44.250806355638304" lon="11.041276085830168"><ele>617.6</ele><time>2026-03-28T14:45:26.001Z</time></trkpt><trkpt lat="44.25080117625644" lon="11.041407357443664"><ele>620.4000000000001</ele><time>2026-03-28T14:45:27.001Z</time></trkpt><trkpt lat="44.25082059790948" lon="11.041544525407879"><ele>623.2</ele><time>2026-03-28T14:45:28.001Z</time></trkpt><trkpt lat="44.25084253978322" lon="11.041672319043773"><ele>626.0</ele><time>2026-03-28T14:45:29.001Z</time></trkpt><trkpt lat="44.250803142229024" lon="11.041784334999441"><ele>627.1666666666666</ele><time>2026-03-28T14:45:30.001Z</time></trkpt><trkpt lat="44.25077754104445" lon="11.041887933931715"><ele>628.3333333333333</ele><time>2026-03-28T14:45:31.001Z</time></trkpt><trkpt lat="44.25077705257436" lon="11.042011309876056"><ele>629.5</ele><time>2026-03-28T14:45:33.001Z</time></trkpt><trkpt lat="44.250839003989455" lon="11.042081344998914"><ele>630.6666666666666</ele><time>2026-03-28T14:45:35.001Z</time></trkpt><trkpt lat="44.25094840988313" lon="11.041977904480532"><ele>631.8333333333334</ele><time>2026-03-28T14:45:36.001Z</time></trkpt><trkpt lat="44.250985812487144" lon="11.041895635078827"><ele>633.0</ele><time>2026-03-28T14:45:37.001Z</time></trkpt><trkpt lat="44.2509911583494" lon="11.041784287687776"><ele>633.0</ele><time>2026-03-28T14:45:38.001Z</time></trkpt><trkpt lat="44.250999608244264" lon="11.041678732267215"><ele>633.0</ele><time>2026-03-28T14:45:39.001Z</time></trkpt><trkpt lat="44.25100234796944" lon="11.041566282689923"><ele>633.0</ele><time>2026-03-28T14:45:40.001Z</time></trkpt><trkpt lat="44.251020120934825" lon="11.041468292957012"><ele>633.0</ele><time>2026-03-28T14:45:41.001Z</time></trkpt><trkpt lat="44.25105633163977" lon="11.041374263891086"><ele>633.0</ele><time>2026-03-28T14:45:43.001Z</time></trkpt><trkpt lat="44.25113701799454" lon="11.041348857875013"><ele>633.0</ele><time>2026-03-28T14:45:45.001Z</time></trkpt><trkpt lat="44.251191392935084" lon="11.04147172169643"><ele>633.0</ele><time>2026-03-28T14:45:46.001Z</time></trkpt><trkpt lat="44.25116199420341" lon="11.041590972206361"><ele>633.0</ele><time>2026-03-28T14:45:47.001Z</time></trkpt><trkpt lat="44.251151558209045" lon="11.041720988016085"><ele>633.0</ele><time>2026-03-28T14:45:48.001Z</time></trkpt><trkpt lat="44.251150101055806" lon="11.041845471631998"><ele>633.0</ele><time>2026-03-28T14:45:49.001Z</time></trkpt><trkpt lat="44.25112622835555" lon="11.041965414447816"><ele>633.0</ele><time>2026-03-28T14:45:50.001Z</time></trkpt><trkpt lat="44.25107492610362" lon="11.042055223098727"><ele>633.0</ele><time>2026-03-28T14:45:51.001Z</time></trkpt><trkpt lat="44.25102347395009" lon="11.042148625777077"><ele>633.0</ele><time>2026-03-28T14:45:52.001Z</time></trkpt><trkpt lat="44.25096124841327" lon="11.042218074715425"><ele>633.0</ele><time>2026-03-28T14:45:53.001Z</time></trkpt><trkpt lat="44.250901168471714" lon="11.042294427577321"><ele>633.0</ele><time>2026-03-28T14:45:54.001Z</time></trkpt><trkpt lat="44.250846419319956" lon="11.042400652124252"><ele>633.0</ele><time>2026-03-28T14:45:55.001Z</time></trkpt><trkpt lat="44.25079916570827" lon="11.04251064920939"><ele>633.0</ele><time>2026-03-28T14:45:56.001Z</time></trkpt><trkpt lat="44.25079501583253" lon="11.0426241215775"><ele>633.0</ele><time>2026-03-28T14:45:57.001Z</time></trkpt><trkpt lat="44.25080118759744" lon="11.042746835281608"><ele>635.1666666666666</ele><time>2026-03-28T14:45:58.001Z</time></trkpt><trkpt lat="44.25080785541601" lon="11.04286623388551"><ele>637.3333333333334</ele><time>2026-03-28T14:45:59.001Z</time></trkpt><trkpt lat="44.25078767445013" lon="11.042981738236067"><ele>639.5</ele><time>2026-03-28T14:46:00.001Z</time></trkpt><trkpt lat="44.250738672158406" lon="11.043074009463147"><ele>641.6666666666667</ele><time>2026-03-28T14:46:01.001Z</time></trkpt><trkpt lat="44.25072943756257" lon="11.04318527732242"><ele>643.8333333333334</ele><time>2026-03-28T14:46:02.001Z</time></trkpt><trkpt lat="44.25071302059698" lon="11.043282252751077"><ele>646.0</ele><time>2026-03-28T14:46:03.001Z</time></trkpt><trkpt lat="44.25072116078046" lon="11.043390563961461"><ele>647.4</ele><time>2026-03-28T14:46:04.001Z</time></trkpt><trkpt lat="44.25074095856863" lon="11.043504129948275"><ele>648.8</ele><time>2026-03-28T14:46:05.001Z</time></trkpt><trkpt lat="44.25076577791285" lon="11.043632752886495"><ele>650.1999999999999</ele><time>2026-03-28T14:46:06.001Z</time></trkpt><trkpt lat="44.250786428631166" lon="11.043784134640248"><ele>651.5999999999999</ele><time>2026-03-28T14:46:07.001Z</time></trkpt><trkpt lat="44.250811281236324" lon="11.043936591550645"><ele>653.0</ele><time>2026-03-28T14:46:08.001Z</time></trkpt><trkpt lat="44.250833275415935" lon="11.044071553422889"><ele>654.0</ele><time>2026-03-28T14:46:09.001Z</time></trkpt><trkpt lat="44.250850215587974" lon="11.04419862745881"><ele>655.0</ele><time>2026-03-28T14:46:10.001Z</time></trkpt><trkpt lat="44.250845563199626" lon="11.044321554218987"><ele>656.0</ele><time>2026-03-28T14:46:11.001Z</time></trkpt><trkpt lat="44.250820322212" lon="11.044431629714477"><ele>657.0</ele><time>2026-03-28T14:46:12.001Z</time></trkpt><trkpt lat="44.2507729411675" lon="11.044531444563656"><ele>658.0</ele><time>2026-03-28T14:46:13.001Z</time></trkpt><trkpt lat="44.25071461181754" lon="11.044629207115438"><ele>659.0</ele><time>2026-03-28T14:46:14.001Z</time></trkpt><trkpt lat="44.250662385340746" lon="11.044723133936255"><ele>659.0</ele><time>2026-03-28T14:46:15Z</time></trkpt><trkpt lat="44.25063585228448" lon="11.044826184223266"><ele>659.0</ele><time>2026-03-28T14:46:16Z</time></trkpt><trkpt lat="44.250633423239904" lon="11.04493798361853"><ele>659.0</ele><time>2026-03-28T14:46:17Z</time></trkpt><trkpt lat="44.25063658926689" lon="11.045061439888066"><ele>659.0</ele><time>2026-03-28T14:46:18Z</time></trkpt><trkpt lat="44.25064307029404" lon="11.045195591395947"><ele>659.0</ele><time>2026-03-28T14:46:19Z</time></trkpt><trkpt lat="44.250646300742424" lon="11.045322846967617"><ele>659.0</ele><time>2026-03-28T14:46:20Z</time></trkpt><trkpt lat="44.25065116618795" lon="11.045450570444387"><ele>658.75</ele><time>2026-03-28T14:46:21Z</time></trkpt><trkpt lat="44.250657172358856" lon="11.04559098506539"><ele>658.5</ele><time>2026-03-28T14:46:22Z</time></trkpt><trkpt lat="44.250679544387644" lon="11.045733572622437"><ele>658.25</ele><time>2026-03-28T14:46:23Z</time></trkpt><trkpt lat="44.25067783222799" lon="11.045901303162527"><ele>658.0</ele><time>2026-03-28T14:46:24Z</time></trkpt><trkpt lat="44.2506796687121" lon="11.046091327905085"><ele>659.0</ele><time>2026-03-28T14:46:25Z</time></trkpt><trkpt lat="44.25067819566835" lon="11.046300479892244"><ele>660.0</ele><time>2026-03-28T14:46:26Z</time></trkpt><trkpt lat="44.25067201160666" lon="11.046486771840707"><ele>661.0</ele><time>2026-03-28T14:46:27Z</time></trkpt><trkpt lat="44.250655515718854" lon="11.04663439665643"><ele>662.0</ele><time>2026-03-28T14:46:28Z</time></trkpt><trkpt lat="44.25061664531864" lon="11.046749570103078"><ele>658.2</ele><time>2026-03-28T14:46:29Z</time></trkpt><trkpt lat="44.250569702539764" lon="11.046854274390371"><ele>654.4000000000001</ele><time>2026-03-28T14:46:30Z</time></trkpt><trkpt lat="44.2504966047174" lon="11.046942748400403"><ele>650.5999999999999</ele><time>2026-03-28T14:46:31Z</time></trkpt><trkpt lat="44.25042628629714" lon="11.047036523058944"><ele>646.8</ele><time>2026-03-28T14:46:32Z</time></trkpt><trkpt lat="44.25035753087676" lon="11.047126894773653"><ele>643.0</ele><time>2026-03-28T14:46:33Z</time></trkpt><trkpt lat="44.250301367889186" lon="11.047225575550264"><ele>643.0</ele><time>2026-03-28T14:46:34Z</time></trkpt><trkpt lat="44.25020973832047" lon="11.047309032329728"><ele>643.0</ele><time>2026-03-28T14:46:35Z</time></trkpt><trkpt lat="44.250131900326345" lon="11.047413534237476"><ele>643.0</ele><time>2026-03-28T14:46:36Z</time></trkpt><trkpt lat="44.25007598795562" lon="11.047504846737482"><ele>643.0</ele><time>2026-03-28T14:46:37Z</time></trkpt><trkpt lat="44.25002626591497" lon="11.047605791377967"><ele>643.0</ele><time>2026-03-28T14:46:38Z</time></trkpt><trkpt lat="44.249996188832796" lon="11.047716751696653"><ele>647.6666666666667</ele><time>2026-03-28T14:46:39Z</time></trkpt><trkpt lat="44.24997928014439" lon="11.0478263020517"><ele>652.3333333333334</ele><time>2026-03-28T14:46:40Z</time></trkpt><trkpt lat="44.24999671119125" lon="11.047952548766425"><ele>657.0</ele><time>2026-03-28T14:46:41Z</time></trkpt><trkpt lat="44.25000685476579" lon="11.048059658564261"><ele>661.6666666666666</ele><time>2026-03-28T14:46:42Z</time></trkpt><trkpt lat="44.250003765238205" lon="11.048186060483282"><ele>666.3333333333333</ele><time>2026-03-28T14:46:43Z</time></trkpt><trkpt lat="44.250014278507436" lon="11.048326456422897"><ele>671.0</ele><time>2026-03-28T14:46:44Z</time></trkpt><trkpt lat="44.25002512006679" lon="11.048471236290014"><ele>672.8</ele><time>2026-03-28T14:46:45Z</time></trkpt><trkpt lat="44.25003980582861" lon="11.048610203203156"><ele>674.5999999999999</ele><time>2026-03-28T14:46:46Z</time></trkpt><trkpt lat="44.25005473104736" lon="11.048742625578587"><ele>676.4</ele><time>2026-03-28T14:46:47Z</time></trkpt><trkpt lat="44.25004134223646" lon="11.048876715062068"><ele>678.2</ele><time>2026-03-28T14:46:48Z</time></trkpt><trkpt lat="44.25004539428343" lon="11.049010372809486"><ele>680.0</ele><time>2026-03-28T14:46:49Z</time></trkpt><trkpt lat="44.25002202645393" lon="11.049130111395518"><ele>681.2</ele><time>2026-03-28T14:46:50Z</time></trkpt><trkpt lat="44.24998817036671" lon="11.049247662849014"><ele>682.4</ele><time>2026-03-28T14:46:51Z</time></trkpt><trkpt lat="44.24996266954012" lon="11.049387694188155"><ele>683.5999999999999</ele><time>2026-03-28T14:46:52Z</time></trkpt><trkpt lat="44.24993495327865" lon="11.049530819964533"><ele>684.8</ele><time>2026-03-28T14:46:53Z</time></trkpt><trkpt lat="44.24988631635561" lon="11.04966172570701"><ele>686.0</ele><time>2026-03-28T14:46:54Z</time></trkpt><trkpt lat="44.249860001145144" lon="11.049803635396565"><ele>686.0</ele><time>2026-03-28T14:46:55Z</time></trkpt><trkpt lat="44.24981824263598" lon="11.049924452710382"><ele>686.0</ele><time>2026-03-28T14:46:56Z</time></trkpt><trkpt lat="44.249778334972085" lon="11.050036042359167"><ele>686.0</ele><time>2026-03-28T14:46:57Z</time></trkpt><trkpt lat="44.24974707622289" lon="11.050145223447775"><ele>686.0</ele><time>2026-03-28T14:46:58Z</time></trkpt><trkpt lat="44.24972737106083" lon="11.050257397784922"><ele>686.0</ele><time>2026-03-28T14:46:59Z</time></trkpt><trkpt lat="44.24971767898722" lon="11.050356295868513"><ele>686.0</ele><time>2026-03-28T14:47:00Z</time></trkpt><trkpt lat="44.24970642175437" lon="11.05045762188858"><ele>684.5999999999999</ele><time>2026-03-28T14:47:01Z</time></trkpt><trkpt lat="44.24969043546969" lon="11.050578032390659"><ele>683.2</ele><time>2026-03-28T14:47:02Z</time></trkpt><trkpt lat="44.2496740479036" lon="11.050717687887763"><ele>681.8</ele><time>2026-03-28T14:47:03Z</time></trkpt><trkpt lat="44.24966157620986" lon="11.05087403939882"><ele>680.4000000000001</ele><time>2026-03-28T14:47:04Z</time></trkpt><trkpt lat="44.24965922205241" lon="11.05101820811916"><ele>679.0</ele><time>2026-03-28T14:47:05Z</time></trkpt><trkpt lat="44.249653446867526" lon="11.051156827143437"><ele>679.0</ele><time>2026-03-28T14:47:06Z</time></trkpt><trkpt lat="44.24964016769961" lon="11.0512917696849"><ele>679.0</ele><time>2026-03-28T14:47:07Z</time></trkpt><trkpt lat="44.249610319400766" lon="11.051430554397678"><ele>679.0</ele><time>2026-03-28T14:47:08Z</time></trkpt><trkpt lat="44.24955999179972" lon="11.051563412586903"><ele>679.0</ele><time>2026-03-28T14:47:09Z</time></trkpt><trkpt lat="44.24950076346648" lon="11.051702332889395"><ele>679.0</ele><time>2026-03-28T14:47:10Z</time></trkpt><trkpt lat="44.249443012015796" lon="11.051858820838126"><ele>680.6</ele><time>2026-03-28T14:47:11Z</time></trkpt><trkpt lat="44.249384779756134" lon="11.0520216196708"><ele>682.2</ele><time>2026-03-28T14:47:12Z</time></trkpt><trkpt lat="44.249337245675285" lon="11.052161356479377"><ele>683.8000000000001</ele><time>2026-03-28T14:47:13Z</time></trkpt><trkpt lat="44.24930032188962" lon="11.052278375599995"><ele>685.4000000000001</ele><time>2026-03-28T14:47:14Z</time></trkpt><trkpt lat="44.24927031575273" lon="11.05238946301114"><ele>687.0</ele><time>2026-03-28T14:47:15Z</time></trkpt><trkpt lat="44.24925836680577" lon="11.052486710602336"><ele>690.4000000000001</ele><time>2026-03-28T14:47:16Z</time></trkpt><trkpt lat="44.24925273281521" lon="11.052600268447765"><ele>693.8000000000001</ele><time>2026-03-28T14:47:17Z</time></trkpt><trkpt lat="44.249255946163174" lon="11.052727410526888"><ele>697.2</ele><time>2026-03-28T14:47:18Z</time></trkpt><trkpt lat="44.24926912822448" lon="11.052864022658172"><ele>700.6</ele><time>2026-03-28T14:47:19Z</time></trkpt><trkpt lat="44.249296911458096" lon="11.05300612906396"><ele>704.0</ele><time>2026-03-28T14:47:20Z</time></trkpt><trkpt lat="44.249330548434756" lon="11.05316333638298"><ele>702.0</ele><time>2026-03-28T14:47:21Z</time></trkpt><trkpt lat="44.24939983791141" lon="11.053349229650223"><ele>700.0</ele><time>2026-03-28T14:47:22Z</time></trkpt><trkpt lat="44.24946297470809" lon="11.053560333668095"><ele>698.0</ele><time>2026-03-28T14:47:23Z</time></trkpt><trkpt lat="44.24953284172377" lon="11.053750664449296"><ele>698.0</ele><time>2026-03-28T14:47:24Z</time></trkpt><trkpt lat="44.249588509763115" lon="11.053927983480264"><ele>698.0</ele><time>2026-03-28T14:47:25Z</time></trkpt><trkpt lat="44.249631137971654" lon="11.054099642135023"><ele>698.0</ele><time>2026-03-28T14:47:26Z</time></trkpt><trkpt lat="44.24967178854079" lon="11.05427285645228"><ele>698.0</ele><time>2026-03-28T14:47:27Z</time></trkpt><trkpt lat="44.24971353928364" lon="11.054435638392743"><ele>700.8</ele><time>2026-03-28T14:47:28Z</time></trkpt><trkpt lat="44.24975664061372" lon="11.05458359783216"><ele>703.5999999999999</ele><time>2026-03-28T14:47:29Z</time></trkpt><trkpt lat="44.24978193960169" lon="11.054710350842205"><ele>706.4000000000001</ele><time>2026-03-28T14:47:30.001Z</time></trkpt><trkpt lat="44.24981225036919" lon="11.054801993822634"><ele>709.2</ele><time>2026-03-28T14:47:31.001Z</time></trkpt><trkpt lat="44.249831733033396" lon="11.054933706836447"><ele>712.0</ele><time>2026-03-28T14:47:33.001Z</time></trkpt><trkpt lat="44.24979514317968" lon="11.054813765335641"><ele>706.0</ele><time>2026-03-28T14:55:05Z</time></trkpt><trkpt lat="44.24975904440749" lon="11.054666042044373"><ele>700.0</ele><time>2026-03-28T14:55:07Z</time></trkpt><trkpt lat="44.24972349575138" lon="11.054506191069995"><ele>694.0</ele><time>2026-03-28T14:55:09Z</time></trkpt><trkpt lat="44.24964770479447" lon="11.054432888216818"><ele>688.0</ele><time>2026-03-28T14:55:10Z</time></trkpt><trkpt lat="44.24960567405008" lon="11.05434797541512"><ele>682.0</ele><time>2026-03-28T14:55:11Z</time></trkpt><trkpt lat="44.24956439014948" lon="11.054281233681175"><ele>682.0</ele><time>2026-03-28T14:55:12Z</time></trkpt><trkpt lat="44.24948790406477" lon="11.054151244933887"><ele>682.0</ele><time>2026-03-28T14:55:14Z</time></trkpt><trkpt lat="44.24940568837467" lon="11.054024631036953"><ele>682.0</ele><time>2026-03-28T14:55:16Z</time></trkpt><trkpt lat="44.24932209030067" lon="11.053904701706204"><ele>682.0</ele><time>2026-03-28T14:55:18Z</time></trkpt><trkpt lat="44.24924826768549" lon="11.053819946637459"><ele>686.0</ele><time>2026-03-28T14:55:20Z</time></trkpt><trkpt lat="44.24916678505096" lon="11.053735425645238"><ele>690.0</ele><time>2026-03-28T14:55:22Z</time></trkpt><trkpt lat="44.24908070918397" lon="11.05362539313962"><ele>694.0</ele><time>2026-03-28T14:55:24Z</time></trkpt><trkpt lat="44.248988295695874" lon="11.053476946379183"><ele>698.0</ele><time>2026-03-28T14:55:26Z</time></trkpt><trkpt lat="44.249267882075046" lon="11.052789848564856"><ele>699.2</ele><time>2026-03-28T14:55:27Z</time></trkpt><trkpt lat="44.24926094111292" lon="11.052657588031938"><ele>700.4</ele><time>2026-03-28T14:55:28Z</time></trkpt><trkpt lat="44.24926187580413" lon="11.05253899167474"><ele>701.6</ele><time>2026-03-28T14:55:29Z</time></trkpt><trkpt lat="44.24927396854273" lon="11.052418296330202"><ele>702.8000000000001</ele><time>2026-03-28T14:55:30Z</time></trkpt><trkpt lat="44.24929630579391" lon="11.052296265318514"><ele>704.0</ele><time>2026-03-28T14:55:31Z</time></trkpt><trkpt lat="44.24932941533127" lon="11.05217503193658"><ele>700.6</ele><time>2026-03-28T14:55:32Z</time></trkpt><trkpt lat="44.2493753977253" lon="11.052050009180983"><ele>697.2</ele><time>2026-03-28T14:55:33Z</time></trkpt><trkpt lat="44.24943005031899" lon="11.05192917053364"><ele>693.8000000000001</ele><time>2026-03-28T14:55:34Z</time></trkpt><trkpt lat="44.249480500523866" lon="11.051808292229001"><ele>690.4000000000001</ele><time>2026-03-28T14:55:35Z</time></trkpt><trkpt lat="44.24952726884441" lon="11.051683801533144"><ele>687.0</ele><time>2026-03-28T14:55:36Z</time></trkpt><trkpt lat="44.249573796972484" lon="11.051559308067585"><ele>685.4000000000001</ele><time>2026-03-28T14:55:37.001Z</time></trkpt><trkpt lat="44.249618398451204" lon="11.051438022822396"><ele>683.8000000000001</ele><time>2026-03-28T14:55:38.001Z</time></trkpt><trkpt lat="44.24966650276693" lon="11.051317047337877"><ele>682.2</ele><time>2026-03-28T14:55:39.001Z</time></trkpt><trkpt lat="44.2496714133153" lon="11.051157452022066"><ele>680.6</ele><time>2026-03-28T14:55:40.001Z</time></trkpt><trkpt lat="44.24968262061358" lon="11.050981440735914"><ele>679.0</ele><time>2026-03-28T14:55:41.001Z</time></trkpt><trkpt lat="44.24968707091151" lon="11.050805553948534"><ele>673.25</ele><time>2026-03-28T14:55:42.001Z</time></trkpt><trkpt lat="44.249693816935775" lon="11.050642066880492"><ele>667.5</ele><time>2026-03-28T14:55:43.001Z</time></trkpt><trkpt lat="44.249712229668404" lon="11.050490679318141"><ele>661.75</ele><time>2026-03-28T14:55:44.001Z</time></trkpt><trkpt lat="44.24973287959973" lon="11.050333416237695"><ele>656.0</ele><time>2026-03-28T14:55:45.001Z</time></trkpt><trkpt lat="44.24977580225723" lon="11.050186278235607"><ele>663.5</ele><time>2026-03-28T14:55:46.001Z</time></trkpt><trkpt lat="44.24981245587621" lon="11.050029798093973"><ele>671.0</ele><time>2026-03-28T14:55:47.001Z</time></trkpt><trkpt lat="44.249858317628636" lon="11.049874607650938"><ele>678.5</ele><time>2026-03-28T14:55:48.001Z</time></trkpt><trkpt lat="44.249908432855904" lon="11.049712822759115"><ele>686.0</ele><time>2026-03-28T14:55:49.001Z</time></trkpt><trkpt lat="44.24993874145064" lon="11.049533778154194"><ele>686.0</ele><time>2026-03-28T14:55:50.001Z</time></trkpt><trkpt lat="44.24997576708121" lon="11.04936645921066"><ele>686.0</ele><time>2026-03-28T14:55:51.001Z</time></trkpt><trkpt lat="44.25002291672993" lon="11.049215324037544"><ele>686.0</ele><time>2026-03-28T14:55:52.001Z</time></trkpt><trkpt lat="44.25005593823937" lon="11.049064986189872"><ele>686.0</ele><time>2026-03-28T14:55:53.001Z</time></trkpt><trkpt lat="44.25007479652588" lon="11.048899393900271"><ele>684.5</ele><time>2026-03-28T14:55:54.001Z</time></trkpt><trkpt lat="44.25005835871265" lon="11.048726276333072"><ele>683.0</ele><time>2026-03-28T14:55:55.001Z</time></trkpt><trkpt lat="44.2500629586327" lon="11.048540985359852"><ele>681.5</ele><time>2026-03-28T14:55:56.001Z</time></trkpt><trkpt lat="44.250034229809394" lon="11.04835824076791"><ele>680.0</ele><time>2026-03-28T14:55:57.001Z</time></trkpt><trkpt lat="44.25003562740044" lon="11.048164853464336"><ele>678.2</ele><time>2026-03-28T14:55:58.001Z</time></trkpt><trkpt lat="44.25002091097244" lon="11.04799042310169"><ele>676.4</ele><time>2026-03-28T14:55:59.001Z</time></trkpt><trkpt lat="44.25001263309585" lon="11.047846671326017"><ele>674.5999999999999</ele><time>2026-03-28T14:56:00.001Z</time></trkpt><trkpt lat="44.250003403796796" lon="11.047722929960132"><ele>672.8</ele><time>2026-03-28T14:56:01.001Z</time></trkpt><trkpt lat="44.25003225189783" lon="11.047597614407755"><ele>671.0</ele><time>2026-03-28T14:56:02.001Z</time></trkpt><trkpt lat="44.250109060203435" lon="11.047502676615611"><ele>665.4</ele><time>2026-03-28T14:56:03.001Z</time></trkpt><trkpt lat="44.25018169496547" lon="11.047418078424212"><ele>659.8</ele><time>2026-03-28T14:56:04.001Z</time></trkpt><trkpt lat="44.250253025034205" lon="11.047324897035121"><ele>654.1999999999999</ele><time>2026-03-28T14:56:05.001Z</time></trkpt><trkpt lat="44.25033635746373" lon="11.047217624598852"><ele>648.5999999999999</ele><time>2026-03-28T14:56:06.001Z</time></trkpt><trkpt lat="44.2504128777838" lon="11.04709986564785"><ele>643.0</ele><time>2026-03-28T14:56:07.001Z</time></trkpt><trkpt lat="44.25049893844796" lon="11.047006645475724"><ele>643.0</ele><time>2026-03-28T14:56:08.001Z</time></trkpt><trkpt lat="44.25056553726861" lon="11.04690201215606"><ele>643.0</ele><time>2026-03-28T14:56:09.001Z</time></trkpt><trkpt lat="44.250621441919" lon="11.046785298064671"><ele>643.0</ele><time>2026-03-28T14:56:10.001Z</time></trkpt><trkpt lat="44.250665969598295" lon="11.046662363393006"><ele>643.0</ele><time>2026-03-28T14:56:11.001Z</time></trkpt><trkpt lat="44.25069757370574" lon="11.046534007765233"><ele>643.0</ele><time>2026-03-28T14:56:12.001Z</time></trkpt><trkpt lat="44.25070728559734" lon="11.046391426195276"><ele>645.0</ele><time>2026-03-28T14:56:13.001Z</time></trkpt><trkpt lat="44.25070036833951" lon="11.046213125664327"><ele>647.0</ele><time>2026-03-28T14:56:14.001Z</time></trkpt><trkpt lat="44.250695488449885" lon="11.04602089955596"><ele>649.0</ele><time>2026-03-28T14:56:15.001Z</time></trkpt><trkpt lat="44.25070643759925" lon="11.045814280740878"><ele>651.0</ele><time>2026-03-28T14:56:16.001Z</time></trkpt><trkpt lat="44.25070108989735" lon="11.045611564484647"><ele>652.4</ele><time>2026-03-28T14:56:17.001Z</time></trkpt><trkpt lat="44.25068921366714" lon="11.045433992158259"><ele>653.8</ele><time>2026-03-28T14:56:18.001Z</time></trkpt><trkpt lat="44.25067857640989" lon="11.045272620955288"><ele>655.1999999999999</ele><time>2026-03-28T14:56:19.001Z</time></trkpt><trkpt lat="44.25065630347493" lon="11.045129178599055"><ele>656.5999999999999</ele><time>2026-03-28T14:56:20.001Z</time></trkpt><trkpt lat="44.25066908268289" lon="11.045006830622341"><ele>658.0</ele><time>2026-03-28T14:56:21.001Z</time></trkpt><trkpt lat="44.250673155125185" lon="11.044897520473414"><ele>658.1666666666667</ele><time>2026-03-28T14:56:22.001Z</time></trkpt><trkpt lat="44.250688901294815" lon="11.044780880932246"><ele>658.3333333333334</ele><time>2026-03-28T14:56:23.001Z</time></trkpt><trkpt lat="44.25072400515936" lon="11.044677617294822"><ele>658.5</ele><time>2026-03-28T14:56:24.001Z</time></trkpt><trkpt lat="44.25077452334667" lon="11.044579960769735"><ele>658.6666666666666</ele><time>2026-03-28T14:56:25.001Z</time></trkpt><trkpt lat="44.25081351131207" lon="11.044458436776594"><ele>658.8333333333333</ele><time>2026-03-28T14:56:26.001Z</time></trkpt><trkpt lat="44.250868240378125" lon="11.044372344303302"><ele>659.0</ele><time>2026-03-28T14:56:27.001Z</time></trkpt><trkpt lat="44.250883029950295" lon="11.044231175431166"><ele>657.8000000000001</ele><time>2026-03-28T14:56:28.001Z</time></trkpt><trkpt lat="44.250855569265575" lon="11.044103086230164"><ele>656.6</ele><time>2026-03-28T14:56:29.001Z</time></trkpt><trkpt lat="44.25085000565973" lon="11.043963149163877"><ele>655.4</ele><time>2026-03-28T14:56:30.001Z</time></trkpt><trkpt lat="44.25082878979565" lon="11.043810220292382"><ele>654.2</ele><time>2026-03-28T14:56:31.001Z</time></trkpt><trkpt lat="44.25080728080689" lon="11.043664936130856"><ele>653.0</ele><time>2026-03-28T14:56:32.001Z</time></trkpt><trkpt lat="44.25078555246713" lon="11.043518890908011"><ele>653.0</ele><time>2026-03-28T14:56:33.001Z</time></trkpt><trkpt lat="44.25076677969106" lon="11.043387591231772"><ele>653.0</ele><time>2026-03-28T14:56:34.001Z</time></trkpt><trkpt lat="44.25075306038717" lon="11.043267527813546"><ele>653.0</ele><time>2026-03-28T14:56:35.001Z</time></trkpt><trkpt lat="44.250732133815035" lon="11.043160656353026"><ele>653.0</ele><time>2026-03-28T14:56:36.001Z</time></trkpt><trkpt lat="44.25078311951978" lon="11.043054909320336"><ele>653.0</ele><time>2026-03-28T14:56:37.001Z</time></trkpt><trkpt lat="44.250814520335055" lon="11.04294402848157"><ele>653.0</ele><time>2026-03-28T14:56:38.001Z</time></trkpt><trkpt lat="44.25083429600986" lon="11.04280845909709"><ele>651.8333333333333</ele><time>2026-03-28T14:56:39.001Z</time></trkpt><trkpt lat="44.25083830114445" lon="11.04266552717077"><ele>650.6666666666666</ele><time>2026-03-28T14:56:40.001Z</time></trkpt><trkpt lat="44.250838029185566" lon="11.042530749652506"><ele>649.5</ele><time>2026-03-28T14:56:41.001Z</time></trkpt><trkpt lat="44.25085041604783" lon="11.042418379480592"><ele>648.3333333333334</ele><time>2026-03-28T14:56:42.001Z</time></trkpt><trkpt lat="44.250909503135055" lon="11.042336481089961"><ele>647.1666666666667</ele><time>2026-03-28T14:56:43.001Z</time></trkpt><trkpt lat="44.250976258591905" lon="11.042261737001471"><ele>646.0</ele><time>2026-03-28T14:56:44.001Z</time></trkpt><trkpt lat="44.25103873696034" lon="11.042175633106167"><ele>643.4</ele><time>2026-03-28T14:56:45Z</time></trkpt><trkpt lat="44.25109631140996" lon="11.042090551004467"><ele>640.8</ele><time>2026-03-28T14:56:46Z</time></trkpt><trkpt lat="44.25113052015224" lon="11.041962983001614"><ele>638.1999999999999</ele><time>2026-03-28T14:56:47Z</time></trkpt><trkpt lat="44.251179970181184" lon="11.04183355717019"><ele>635.5999999999999</ele><time>2026-03-28T14:56:48Z</time></trkpt><trkpt lat="44.251174019266195" lon="11.04168088168801"><ele>633.0</ele><time>2026-03-28T14:56:49Z</time></trkpt><trkpt lat="44.25118255595357" lon="11.041548935843084"><ele>631.6</ele><time>2026-03-28T14:56:50Z</time></trkpt><trkpt lat="44.25118209898075" lon="11.04143753812795"><ele>630.1999999999999</ele><time>2026-03-28T14:56:51Z</time></trkpt><trkpt lat="44.251111431731864" lon="11.041299042158137"><ele>628.8</ele><time>2026-03-28T14:56:53Z</time></trkpt><trkpt lat="44.251028731323714" lon="11.041306519061525"><ele>627.4</ele><time>2026-03-28T14:56:54Z</time></trkpt><trkpt lat="44.25096124749459" lon="11.041413900789076"><ele>626.0</ele><time>2026-03-28T14:56:55Z</time></trkpt><trkpt lat="44.25097177931797" lon="11.041549855550304"><ele>627.1666666666666</ele><time>2026-03-28T14:56:56Z</time></trkpt><trkpt lat="44.25098099849761" lon="11.04166756945981"><ele>628.3333333333333</ele><time>2026-03-28T14:56:57Z</time></trkpt><trkpt lat="44.250961067894615" lon="11.041789142856027"><ele>629.5</ele><time>2026-03-28T14:56:58Z</time></trkpt><trkpt lat="44.25094626491438" lon="11.041891041579934"><ele>630.6666666666666</ele><time>2026-03-28T14:56:59Z</time></trkpt><trkpt lat="44.25091565546442" lon="11.041971182605295"><ele>631.8333333333334</ele><time>2026-03-28T14:57:00Z</time></trkpt><trkpt lat="44.25081681918825" lon="11.042002723467093"><ele>633.0</ele><time>2026-03-28T14:57:02Z</time></trkpt><trkpt lat="44.25082640484153" lon="11.04182839036097"><ele>633.0</ele><time>2026-03-28T14:57:05Z</time></trkpt><trkpt lat="44.25085161086149" lon="11.041705579009166"><ele>633.0</ele><time>2026-03-28T14:57:06Z</time></trkpt><trkpt lat="44.250856301213034" lon="11.041545206731913"><ele>633.0</ele><time>2026-03-28T14:57:07Z</time></trkpt><trkpt lat="44.25084396168529" lon="11.041373958451459"><ele>633.0</ele><time>2026-03-28T14:57:08Z</time></trkpt><trkpt lat="44.25084620427102" lon="11.041213622673109"><ele>633.0</ele><time>2026-03-28T14:57:09Z</time></trkpt><trkpt lat="44.250872296458816" lon="11.041086362455804"><ele>631.6</ele><time>2026-03-28T14:57:10Z</time></trkpt><trkpt lat="44.250916834051935" lon="11.040960774354147"><ele>630.1999999999999</ele><time>2026-03-28T14:57:11Z</time></trkpt><trkpt lat="44.25096560039" lon="11.040830648148287"><ele>628.8</ele><time>2026-03-28T14:57:12Z</time></trkpt><trkpt lat="44.25100898074789" lon="11.04069115104388"><ele>627.4</ele><time>2026-03-28T14:57:13Z</time></trkpt><trkpt lat="44.251005841187585" lon="11.040531402356411"><ele>626.0</ele><time>2026-03-28T14:57:14Z</time></trkpt><trkpt lat="44.250999279787635" lon="11.040397269205117"><ele>623.2</ele><time>2026-03-28T14:57:15Z</time></trkpt><trkpt lat="44.25098864584507" lon="11.040251718370792"><ele>620.4000000000001</ele><time>2026-03-28T14:57:16Z</time></trkpt><trkpt lat="44.250990042076104" lon="11.040115015769139"><ele>617.6</ele><time>2026-03-28T14:57:17Z</time></trkpt><trkpt lat="44.25102973827566" lon="11.039984966992412"><ele>614.8000000000001</ele><time>2026-03-28T14:57:18Z</time></trkpt><trkpt lat="44.25107873671985" lon="11.039856191843938"><ele>612.0</ele><time>2026-03-28T14:57:19Z</time></trkpt><trkpt lat="44.25109447403285" lon="11.03971594806901"><ele>612.0</ele><time>2026-03-28T14:57:20Z</time></trkpt><trkpt lat="44.251099077914" lon="11.039585318280983"><ele>612.0</ele><time>2026-03-28T14:57:21Z</time></trkpt><trkpt lat="44.25107511186125" lon="11.039435734336843"><ele>612.0</ele><time>2026-03-28T14:57:22Z</time></trkpt><trkpt lat="44.25103485031455" lon="11.039267040208408"><ele>612.0</ele><time>2026-03-28T14:57:23Z</time></trkpt><trkpt lat="44.250984143239215" lon="11.039104384726352"><ele>611.5</ele><time>2026-03-28T14:57:24Z</time></trkpt><trkpt lat="44.250940825786046" lon="11.038968438255788"><ele>611.0</ele><time>2026-03-28T14:57:25Z</time></trkpt><trkpt lat="44.25091181953485" lon="11.038873119691084"><ele>610.5</ele><time>2026-03-28T14:57:26Z</time></trkpt><trkpt lat="44.250913076710724" lon="11.038770321346984"><ele>610.0</ele><time>2026-03-28T14:57:27Z</time></trkpt><trkpt lat="44.250965111557115" lon="11.038672594575294"><ele>609.5</ele><time>2026-03-28T14:57:28Z</time></trkpt><trkpt lat="44.25103088589393" lon="11.038561895101234"><ele>609.0</ele><time>2026-03-28T14:57:29Z</time></trkpt><trkpt lat="44.251073984740835" lon="11.03842401405523"><ele>609.0</ele><time>2026-03-28T14:57:30Z</time></trkpt><trkpt lat="44.251114693016774" lon="11.038306854900288"><ele>609.0</ele><time>2026-03-28T14:57:31Z</time></trkpt><trkpt lat="44.251119716343254" lon="11.038198081454407"><ele>609.0</ele><time>2026-03-28T14:57:32Z</time></trkpt><trkpt lat="44.25109116160961" lon="11.038077170923124"><ele>609.0</ele><time>2026-03-28T14:57:33Z</time></trkpt><trkpt lat="44.25103707246249" lon="11.037941591101378"><ele>609.0</ele><time>2026-03-28T14:57:34Z</time></trkpt><trkpt lat="44.25096085258491" lon="11.037788671749228"><ele>610.3333333333334</ele><time>2026-03-28T14:57:35Z</time></trkpt><trkpt lat="44.25087187920711" lon="11.037600436762505"><ele>611.6666666666667</ele><time>2026-03-28T14:57:36Z</time></trkpt><trkpt lat="44.25078769801941" lon="11.037350580137556"><ele>613.0</ele><time>2026-03-28T14:57:37Z</time></trkpt><trkpt lat="44.2507210010086" lon="11.037111166595412"><ele>615.0</ele><time>2026-03-28T14:57:38Z</time></trkpt><trkpt lat="44.250704617510884" lon="11.03689820157734"><ele>617.0</ele><time>2026-03-28T14:57:39Z</time></trkpt><trkpt lat="44.25068610864314" lon="11.036710924204831"><ele>619.0</ele><time>2026-03-28T14:57:40Z</time></trkpt><trkpt lat="44.25068075775827" lon="11.0365010675371"><ele>621.0</ele><time>2026-03-28T14:57:41Z</time></trkpt><trkpt lat="44.25067430543963" lon="11.036295251825317"><ele>621.0</ele><time>2026-03-28T14:57:42Z</time></trkpt><trkpt lat="44.25069043814375" lon="11.036127957084929"><ele>621.0</ele><time>2026-03-28T14:57:43Z</time></trkpt><trkpt lat="44.25069740516633" lon="11.0360158522746"><ele>621.0</ele><time>2026-03-28T14:57:44Z</time></trkpt><trkpt lat="44.25066964781104" lon="11.035912239520329"><ele>621.0</ele><time>2026-03-28T14:57:46Z</time></trkpt><trkpt lat="44.25055226307384" lon="11.035993312937388"><ele>621.0</ele><time>2026-03-28T14:57:49Z</time></trkpt><trkpt lat="44.25053535364482" lon="11.03610044733351"><ele>612.5</ele><time>2026-03-28T14:57:50Z</time></trkpt><trkpt lat="44.25049965990032" lon="11.036252095472909"><ele>604.0</ele><time>2026-03-28T14:57:51Z</time></trkpt><trkpt lat="44.25046612881949" lon="11.036427752878522"><ele>595.5</ele><time>2026-03-28T14:57:52Z</time></trkpt><trkpt lat="44.25044859757287" lon="11.036593392747868"><ele>587.0</ele><time>2026-03-28T14:57:53Z</time></trkpt><trkpt lat="44.25046047074718" lon="11.03673103867133"><ele>585.4</ele><time>2026-03-28T14:57:54Z</time></trkpt><trkpt lat="44.25051602846387" lon="11.036850531195629"><ele>583.8000000000001</ele><time>2026-03-28T14:57:55Z</time></trkpt><trkpt lat="44.25054637862486" lon="11.03700403743651"><ele>582.2</ele><time>2026-03-28T14:57:56Z</time></trkpt><trkpt lat="44.25058880672445" lon="11.037156371645198"><ele>580.6</ele><time>2026-03-28T14:57:57Z</time></trkpt><trkpt lat="44.25061487713942" lon="11.037302044459226"><ele>579.0</ele><time>2026-03-28T14:57:58Z</time></trkpt><trkpt lat="44.250605748205686" lon="11.037451307090926"><ele>576.6</ele><time>2026-03-28T14:57:59Z</time></trkpt><trkpt lat="44.25060358115274" lon="11.037601125219485"><ele>574.2</ele><time>2026-03-28T14:58:00Z</time></trkpt><trkpt lat="44.25060143194067" lon="11.037747133994358"><ele>571.8000000000001</ele><time>2026-03-28T14:58:01Z</time></trkpt><trkpt lat="44.25062297751827" lon="11.037893866379186"><ele>569.4</ele><time>2026-03-28T14:58:02Z</time></trkpt><trkpt lat="44.250628574493994" lon="11.038031179074462"><ele>567.0</ele><time>2026-03-28T14:58:03Z</time></trkpt><trkpt lat="44.250639809413656" lon="11.038161493151733"><ele>566.6666666666666</ele><time>2026-03-28T14:58:04Z</time></trkpt><trkpt lat="44.25064128107939" lon="11.038260372181812"><ele>566.3333333333334</ele><time>2026-03-28T14:58:05Z</time></trkpt><trkpt lat="44.25061843668621" lon="11.03834653336456"><ele>566.0</ele><time>2026-03-28T14:58:06Z</time></trkpt><trkpt lat="44.25054995098336" lon="11.038402582762094"><ele>565.6666666666667</ele><time>2026-03-28T14:58:07Z</time></trkpt><trkpt lat="44.25048609133698" lon="11.03845667089972"><ele>565.3333333333334</ele><time>2026-03-28T14:58:08Z</time></trkpt><trkpt lat="44.25041274229546" lon="11.038507595710094"><ele>565.0</ele><time>2026-03-28T14:58:09Z</time></trkpt><trkpt lat="44.250340658779656" lon="11.03857351760051"><ele>565.0</ele><time>2026-03-28T14:58:10Z</time></trkpt><trkpt lat="44.25032627312169" lon="11.038725060958503"><ele>565.0</ele><time>2026-03-28T14:58:11Z</time></trkpt><trkpt lat="44.25029922874534" lon="11.038840466641917"><ele>565.0</ele><time>2026-03-28T14:58:12Z</time></trkpt><trkpt lat="44.25026606249222" lon="11.038969836863771"><ele>565.0</ele><time>2026-03-28T14:58:13Z</time></trkpt><trkpt lat="44.25023465222086" lon="11.039097185856583"><ele>565.0</ele><time>2026-03-28T14:58:14Z</time></trkpt><trkpt lat="44.25021223986023" lon="11.039205800341508"><ele>565.0</ele><time>2026-03-28T14:58:15Z</time></trkpt><trkpt lat="44.250178160829385" lon="11.039304605693015"><ele>565.0</ele><time>2026-03-28T14:58:17Z</time></trkpt><trkpt lat="44.25008291910632" lon="11.039302275788613"><ele>565.0</ele><time>2026-03-28T14:58:20Z</time></trkpt><trkpt lat="44.25007818198715" lon="11.039146844895011"><ele>565.0</ele><time>2026-03-28T14:58:22Z</time></trkpt><trkpt lat="44.25010369713568" lon="11.039050842675483"><ele>565.0</ele><time>2026-03-28T14:58:23Z</time></trkpt><trkpt lat="44.25010805278682" lon="11.03893662363209"><ele>565.0</ele><time>2026-03-28T14:58:24Z</time></trkpt><trkpt lat="44.250110223187576" lon="11.038822824173876"><ele>565.0</ele><time>2026-03-28T14:58:25Z</time></trkpt><trkpt lat="44.2500718713806" lon="11.038717301066757"><ele>565.0</ele><time>2026-03-28T14:58:26Z</time></trkpt><trkpt lat="44.25004210740731" lon="11.038607690340575"><ele>565.0</ele><time>2026-03-28T14:58:27Z</time></trkpt><trkpt lat="44.250019023457426" lon="11.038497900763238"><ele>565.0</ele><time>2026-03-28T14:58:28Z</time></trkpt><trkpt lat="44.25005068253176" lon="11.038403173815578"><ele>565.0</ele><time>2026-03-28T14:58:29Z</time></trkpt><trkpt lat="44.250085913029764" lon="11.03829961688054"><ele>565.0</ele><time>2026-03-28T14:58:30Z</time></trkpt><trkpt lat="44.25009326630431" lon="11.038167340082348"><ele>565.5</ele><time>2026-03-28T14:58:31Z</time></trkpt><trkpt lat="44.25002794480889" lon="11.038035170732261"><ele>566.0</ele><time>2026-03-28T14:58:32Z</time></trkpt><trkpt lat="44.249975326494955" lon="11.037906251669616"><ele>566.5</ele><time>2026-03-28T14:58:33Z</time></trkpt><trkpt lat="44.24992916170152" lon="11.037765691198627"><ele>567.0</ele><time>2026-03-28T14:58:34Z</time></trkpt><trkpt lat="44.24983683400458" lon="11.037662928799977"><ele>562.75</ele><time>2026-03-28T14:58:35.001Z</time></trkpt><trkpt lat="44.249743739604135" lon="11.037563389909248"><ele>558.5</ele><time>2026-03-28T14:58:36.001Z</time></trkpt><trkpt lat="44.24964287042805" lon="11.037474580580602"><ele>554.25</ele><time>2026-03-28T14:58:37.001Z</time></trkpt><trkpt lat="44.24955297530413" lon="11.037366941671673"><ele>550.0</ele><time>2026-03-28T14:58:38.001Z</time></trkpt><trkpt lat="44.24947019092663" lon="11.037245331053624"><ele>550.0</ele><time>2026-03-28T14:58:39.001Z</time></trkpt><trkpt lat="44.249381255239555" lon="11.03715770592311"><ele>550.0</ele><time>2026-03-28T14:58:40.001Z</time></trkpt><trkpt lat="44.24928424157864" lon="11.037121418380396"><ele>550.0</ele><time>2026-03-28T14:58:41.001Z</time></trkpt><trkpt lat="44.249181899473896" lon="11.037129257210669"><ele>550.0</ele><time>2026-03-28T14:58:42.001Z</time></trkpt><trkpt lat="44.24907351228977" lon="11.03713506143861"><ele>550.0</ele><time>2026-03-28T14:58:43.001Z</time></trkpt><trkpt lat="44.248963398917084" lon="11.037135683424012"><ele>545.4</ele><time>2026-03-28T14:58:44.001Z</time></trkpt><trkpt lat="44.24886252492207" lon="11.037098771827965"><ele>540.8</ele><time>2026-03-28T14:58:45.001Z</time></trkpt><trkpt lat="44.248786649952464" lon="11.03706277621037"><ele>536.2</ele><time>2026-03-28T14:58:46.001Z</time></trkpt><trkpt lat="44.248725592105814" lon="11.036988342607447"><ele>531.6</ele><time>2026-03-28T14:58:47.001Z</time></trkpt><trkpt lat="44.24863914882883" lon="11.036898845344766"><ele>527.0</ele><time>2026-03-28T14:58:48.001Z</time></trkpt><trkpt lat="44.24853982074209" lon="11.036789918505457"><ele>527.0</ele><time>2026-03-28T14:58:49.001Z</time></trkpt><trkpt lat="44.24843257405121" lon="11.036699009160705"><ele>527.0</ele><time>2026-03-28T14:58:50.001Z</time></trkpt><trkpt lat="44.24835314091825" lon="11.036599739588704"><ele>527.0</ele><time>2026-03-28T14:58:51Z</time></trkpt><trkpt lat="44.24827552502842" lon="11.036517946891248"><ele>527.0</ele><time>2026-03-28T14:58:52Z</time></trkpt><trkpt lat="44.24820013553226" lon="11.036462604773194"><ele>527.0</ele><time>2026-03-28T14:58:53Z</time></trkpt><trkpt lat="44.248128953869546" lon="11.036441412194252"><ele>522.4</ele><time>2026-03-28T14:58:54Z</time></trkpt><trkpt lat="44.24800367519187" lon="11.036454784130333"><ele>517.8000000000001</ele><time>2026-03-28T14:58:56Z</time></trkpt><trkpt lat="44.247925626580475" lon="11.036512628488492"><ele>513.2</ele><time>2026-03-28T14:58:57Z</time></trkpt><trkpt lat="44.24783468149102" lon="11.036545194665512"><ele>508.6</ele><time>2026-03-28T14:58:58Z</time></trkpt><trkpt lat="44.24775320781432" lon="11.036590670416349"><ele>504.0</ele><time>2026-03-28T14:58:59Z</time></trkpt><trkpt lat="44.24767227062394" lon="11.036629909406466"><ele>505.0</ele><time>2026-03-28T14:59:00Z</time></trkpt><trkpt lat="44.247594668672825" lon="11.036668081347386"><ele>506.0</ele><time>2026-03-28T14:59:01Z</time></trkpt><trkpt lat="44.247525116999846" lon="11.036713926121896"><ele>507.0</ele><time>2026-03-28T14:59:02Z</time></trkpt><trkpt lat="44.24746349222103" lon="11.036778400695848"><ele>508.0</ele><time>2026-03-28T14:59:03Z</time></trkpt><trkpt lat="44.247434660680796" lon="11.036898401921857"><ele>509.0</ele><time>2026-03-28T14:59:04Z</time></trkpt><trkpt lat="44.2473750372377" lon="11.037021027506734"><ele>510.0</ele><time>2026-03-28T14:59:05Z</time></trkpt><trkpt lat="44.24731666768115" lon="11.037151141843967"><ele>504.5</ele><time>2026-03-28T14:59:06Z</time></trkpt><trkpt lat="44.24725634257515" lon="11.037286746973766"><ele>499.0</ele><time>2026-03-28T14:59:07Z</time></trkpt><trkpt lat="44.24718914917314" lon="11.037435069835539"><ele>493.5</ele><time>2026-03-28T14:59:08Z</time></trkpt><trkpt lat="44.24712427899675" lon="11.037600492658656"><ele>488.0</ele><time>2026-03-28T14:59:09Z</time></trkpt><trkpt lat="44.247026236059824" lon="11.037767247016767"><ele>488.0</ele><time>2026-03-28T14:59:10Z</time></trkpt><trkpt lat="44.24693677035169" lon="11.037954237356354"><ele>488.0</ele><time>2026-03-28T14:59:11Z</time></trkpt><trkpt lat="44.246846495518774" lon="11.038186403830077"><ele>488.0</ele><time>2026-03-28T14:59:12Z</time></trkpt><trkpt lat="44.24674467277562" lon="11.038412816445456"><ele>488.66666666666663</ele><time>2026-03-28T14:59:13Z</time></trkpt><trkpt lat="44.24664334079458" lon="11.038646791829175"><ele>489.33333333333337</ele><time>2026-03-28T14:59:14Z</time></trkpt><trkpt lat="44.24653086269066" lon="11.038850749767137"><ele>490.0</ele><time>2026-03-28T14:59:15Z</time></trkpt><trkpt lat="44.24643587063373" lon="11.039053745670273"><ele>486.25</ele><time>2026-03-28T14:59:16Z</time></trkpt><trkpt lat="44.24634372195934" lon="11.03924257348192"><ele>482.5</ele><time>2026-03-28T14:59:17Z</time></trkpt><trkpt lat="44.246268938287685" lon="11.03940256610202"><ele>478.75</ele><time>2026-03-28T14:59:18Z</time></trkpt><trkpt lat="44.246208742516664" lon="11.03954093407842"><ele>475.0</ele><time>2026-03-28T14:59:19Z</time></trkpt><trkpt lat="44.24614457535832" lon="11.039672613539727"><ele>475.0</ele><time>2026-03-28T14:59:20Z</time></trkpt><trkpt lat="44.24607171951529" lon="11.039769420950714"><ele>475.0</ele><time>2026-03-28T14:59:21Z</time></trkpt><trkpt lat="44.246006148349664" lon="11.03982406394598"><ele>475.0</ele><time>2026-03-28T14:59:22Z</time></trkpt><trkpt lat="44.24593297504573" lon="11.03988515913063"><ele>475.0</ele><time>2026-03-28T14:59:23Z</time></trkpt><trkpt lat="44.24585149537869" lon="11.03995166061181"><ele>475.0</ele><time>2026-03-28T14:59:24Z</time></trkpt><trkpt lat="44.24575762344587" lon="11.040032996029103"><ele>476.0</ele><time>2026-03-28T14:59:25Z</time></trkpt><trkpt lat="44.245665401790035" lon="11.040145742133511"><ele>477.0</ele><time>2026-03-28T14:59:26Z</time></trkpt><trkpt lat="44.2455605558712" lon="11.040256472618506"><ele>478.0</ele><time>2026-03-28T14:59:27Z</time></trkpt><trkpt lat="44.245459062779666" lon="11.04038491689588"><ele>479.0</ele><time>2026-03-28T14:59:28Z</time></trkpt><trkpt lat="44.24534989068358" lon="11.04049756986665"><ele>476.2</ele><time>2026-03-28T14:59:29Z</time></trkpt><trkpt lat="44.24525303508489" lon="11.040629597705182"><ele>473.4</ele><time>2026-03-28T14:59:30Z</time></trkpt><trkpt lat="44.24518587147063" lon="11.040733092152738"><ele>470.6</ele><time>2026-03-28T14:59:31Z</time></trkpt><trkpt lat="44.245122608560564" lon="11.040803097546107"><ele>467.8</ele><time>2026-03-28T14:59:32Z</time></trkpt><trkpt lat="44.245054329528834" lon="11.040852461864228"><ele>465.0</ele><time>2026-03-28T14:59:33Z</time></trkpt><trkpt lat="44.244958394799696" lon="11.040897130353018"><ele>465.0</ele><time>2026-03-28T14:59:34Z</time></trkpt><trkpt lat="44.24484474143185" lon="11.040938865364938"><ele>465.0</ele><time>2026-03-28T14:59:35Z</time></trkpt><trkpt lat="44.24472542624268" lon="11.04098752905505"><ele>465.0</ele><time>2026-03-28T14:59:36Z</time></trkpt><trkpt lat="44.244613832290064" lon="11.041053988090939"><ele>465.0</ele><time>2026-03-28T14:59:37Z</time></trkpt><trkpt lat="44.24450029822501" lon="11.04111483768182"><ele>461.25</ele><time>2026-03-28T14:59:38Z</time></trkpt><trkpt lat="44.244393612844256" lon="11.041189278672045"><ele>457.5</ele><time>2026-03-28T14:59:39Z</time></trkpt><trkpt lat="44.24429155189611" lon="11.041291826418544"><ele>453.75</ele><time>2026-03-28T14:59:40Z</time></trkpt><trkpt lat="44.24418631945551" lon="11.041423191045686"><ele>450.0</ele><time>2026-03-28T14:59:41Z</time></trkpt><trkpt lat="44.24407324037876" lon="11.04153009604892"><ele>449.5</ele><time>2026-03-28T14:59:42Z</time></trkpt><trkpt lat="44.24396848194213" lon="11.041642682210533"><ele>449.0</ele><time>2026-03-28T14:59:43Z</time></trkpt><trkpt lat="44.24386361234895" lon="11.041755474934323"><ele>448.5</ele><time>2026-03-28T14:59:44Z</time></trkpt><trkpt lat="44.24376867361815" lon="11.041859432629296"><ele>448.0</ele><time>2026-03-28T14:59:45Z</time></trkpt><trkpt lat="44.24368584506503" lon="11.041953781649193"><ele>445.0</ele><time>2026-03-28T14:59:46Z</time></trkpt><trkpt lat="44.24360248844618" lon="11.042011067375885"><ele>441.99999999999994</ele><time>2026-03-28T14:59:47Z</time></trkpt><trkpt lat="44.243500595135394" lon="11.041991567145125"><ele>438.99999999999994</ele><time>2026-03-28T14:59:48Z</time></trkpt><trkpt lat="44.24338971209387" lon="11.042021040022245"><ele>436.0</ele><time>2026-03-28T14:59:49Z</time></trkpt><trkpt lat="44.24328923386475" lon="11.042014915027314"><ele>433.0</ele><time>2026-03-28T14:59:50Z</time></trkpt><trkpt lat="44.243217800668006" lon="11.041984189470806"><ele>433.0</ele><time>2026-03-28T14:59:51Z</time></trkpt><trkpt lat="44.243139055667896" lon="11.04191584029662"><ele>432.99999999999994</ele><time>2026-03-28T14:59:53Z</time></trkpt><trkpt lat="44.243151059167296" lon="11.041823050578085"><ele>432.99999999999994</ele><time>2026-03-28T14:59:54Z</time></trkpt><trkpt lat="44.24323265226956" lon="11.04176429677263"><ele>433.0</ele><time>2026-03-28T14:59:55Z</time></trkpt><trkpt lat="44.24324185316493" lon="11.041624438480591"><ele>433.0</ele><time>2026-03-28T14:59:57Z</time></trkpt><trkpt lat="44.24311248476646" lon="11.041586725521732"><ele>426.75</ele><time>2026-03-28T14:59:59Z</time></trkpt><trkpt lat="44.24302959666669" lon="11.04168259731836"><ele>420.5</ele><time>2026-03-28T15:00:00Z</time></trkpt><trkpt lat="44.24290647215732" lon="11.041735283312525"><ele>414.25</ele><time>2026-03-28T15:00:01Z</time></trkpt><trkpt lat="44.24275948646518" lon="11.041783837387433"><ele>408.0</ele><time>2026-03-28T15:00:02Z</time></trkpt><trkpt lat="44.242600355191705" lon="11.04181636335647"><ele>408.0</ele><time>2026-03-28T15:00:03Z</time></trkpt><trkpt lat="44.24244323389232" lon="11.041827747563488"><ele>408.0</ele><time>2026-03-28T15:00:04Z</time></trkpt><trkpt lat="44.24230882651962" lon="11.04183344025021"><ele>408.0</ele><time>2026-03-28T15:00:05Z</time></trkpt><trkpt lat="44.24220945667031" lon="11.041823516616704"><ele>408.0</ele><time>2026-03-28T15:00:06Z</time></trkpt><trkpt lat="44.242137347901696" lon="11.04175799433482"><ele>406.0</ele><time>2026-03-28T15:00:08Z</time></trkpt><trkpt lat="44.24216556121233" lon="11.04158844100013"><ele>404.0</ele><time>2026-03-28T15:00:10Z</time></trkpt><trkpt lat="44.24225923688731" lon="11.041513078746137"><ele>402.0</ele><time>2026-03-28T15:00:11Z</time></trkpt><trkpt lat="44.24233964677364" lon="11.041385528731176"><ele>400.0</ele><time>2026-03-28T15:00:12Z</time></trkpt><trkpt lat="44.242439547257135" lon="11.041265137194742"><ele>400.0</ele><time>2026-03-28T15:00:13Z</time></trkpt><trkpt lat="44.24252288064248" lon="11.041140781486979"><ele>400.0</ele><time>2026-03-28T15:00:14Z</time></trkpt><trkpt lat="44.24258917249107" lon="11.041026223098307"><ele>400.0</ele><time>2026-03-28T15:00:15Z</time></trkpt><trkpt lat="44.24264720903363" lon="11.040947764896643"><ele>400.0</ele><time>2026-03-28T15:00:16Z</time></trkpt><trkpt lat="44.24267255163487" lon="11.040844106520968"><ele>400.0</ele><time>2026-03-28T15:00:17Z</time></trkpt><trkpt lat="44.24266464807568" lon="11.040729422036769"><ele>400.0</ele><time>2026-03-28T15:00:18Z</time></trkpt><trkpt lat="44.24258950756336" lon="11.040624834110117"><ele>400.0</ele><time>2026-03-28T15:00:19Z</time></trkpt><trkpt lat="44.2425118599738" lon="11.04051461972145"><ele>400.0</ele><time>2026-03-28T15:00:20Z</time></trkpt><trkpt lat="44.242454200365536" lon="11.040390519731709"><ele>400.0</ele><time>2026-03-28T15:00:21Z</time></trkpt><trkpt lat="44.24240549847542" lon="11.040298189335243"><ele>400.0</ele><time>2026-03-28T15:00:22Z</time></trkpt><trkpt lat="44.24246005747481" lon="11.04014627047427"><ele>400.00000000000006</ele><time>2026-03-28T15:00:24Z</time></trkpt><trkpt lat="44.24247813524788" lon="11.040031381610277"><ele>400.0</ele><time>2026-03-28T15:00:25Z</time></trkpt><trkpt lat="44.24248657186668" lon="11.039915297504633"><ele>400.0</ele><time>2026-03-28T15:00:26Z</time></trkpt><trkpt lat="44.24244041810635" lon="11.039807388609061"><ele>400.0</ele><time>2026-03-28T15:00:27Z</time></trkpt><trkpt lat="44.242365543480474" lon="11.039755298715855"><ele>400.00000000000006</ele><time>2026-03-28T15:00:28Z</time></trkpt><trkpt lat="44.24230208971419" lon="11.039704917897524"><ele>400.0</ele><time>2026-03-28T15:00:29Z</time></trkpt><trkpt lat="44.24216421803203" lon="11.039751929399898"><ele>402.25</ele><time>2026-03-28T15:00:31Z</time></trkpt><trkpt lat="44.2420904205067" lon="11.039857173462808"><ele>404.5</ele><time>2026-03-28T15:00:32Z</time></trkpt><trkpt lat="44.24201601574149" lon="11.040028564150262"><ele>406.75</ele><time>2026-03-28T15:00:33Z</time></trkpt><trkpt lat="44.24188725516205" lon="11.040211884506377"><ele>409.0</ele><time>2026-03-28T15:00:34Z</time></trkpt><trkpt lat="44.241799622983926" lon="11.040429270619166"><ele>409.0</ele><time>2026-03-28T15:00:35Z</time></trkpt><trkpt lat="44.241713831805995" lon="11.040589174193066"><ele>409.0</ele><time>2026-03-28T15:00:36Z</time></trkpt><trkpt lat="44.241642937129605" lon="11.040689341340533"><ele>409.0</ele><time>2026-03-28T15:00:37Z</time></trkpt><trkpt lat="44.241555019667025" lon="11.04065866170472"><ele>409.0</ele><time>2026-03-28T15:00:38.001Z</time></trkpt><trkpt lat="44.241477180670735" lon="11.040619475320987"><ele>409.0</ele><time>2026-03-28T15:00:39.001Z</time></trkpt><trkpt lat="44.241364156059774" lon="11.040598244359543"><ele>407.5</ele><time>2026-03-28T15:00:40.001Z</time></trkpt><trkpt lat="44.24126603664743" lon="11.040611889052494"><ele>406.0</ele><time>2026-03-28T15:00:41.001Z</time></trkpt><trkpt lat="44.241177206991885" lon="11.040711923636445"><ele>404.5</ele><time>2026-03-28T15:00:42.001Z</time></trkpt><trkpt lat="44.24110550090137" lon="11.040883705416373"><ele>403.0</ele><time>2026-03-28T15:00:43.001Z</time></trkpt><trkpt lat="44.24099744597873" lon="11.04097313438277"><ele>403.0</ele><time>2026-03-28T15:00:44.001Z</time></trkpt><trkpt lat="44.24088391754145" lon="11.04097576509492"><ele>403.0</ele><time>2026-03-28T15:00:45.001Z</time></trkpt><trkpt lat="44.2407594292614" lon="11.040939925053086"><ele>403.0</ele><time>2026-03-28T15:00:46.001Z</time></trkpt><trkpt lat="44.24061643059957" lon="11.040975307408617"><ele>403.0</ele><time>2026-03-28T15:00:47.001Z</time></trkpt><trkpt lat="44.24046114129531" lon="11.041007200736509"><ele>403.79999999999995</ele><time>2026-03-28T15:00:48.001Z</time></trkpt><trkpt lat="44.240333635060864" lon="11.041027352697446"><ele>404.6</ele><time>2026-03-28T15:00:49.001Z</time></trkpt><trkpt lat="44.24025128019017" lon="11.041002024877223"><ele>405.4</ele><time>2026-03-28T15:00:50.001Z</time></trkpt><trkpt lat="44.2401983472548" lon="11.040949488676649"><ele>406.20000000000005</ele><time>2026-03-28T15:00:51.001Z</time></trkpt><trkpt lat="44.24015284768164" lon="11.04085928369499"><ele>407.0</ele><time>2026-03-28T15:00:52.001Z</time></trkpt><trkpt lat="44.24013566009107" lon="11.04070942714057"><ele>407.0</ele><time>2026-03-28T15:00:53.001Z</time></trkpt><trkpt lat="44.24010266782038" lon="11.040516961040423"><ele>407.0</ele><time>2026-03-28T15:00:54.001Z</time></trkpt><trkpt lat="44.24005505420114" lon="11.040296121865696"><ele>407.0</ele><time>2026-03-28T15:00:55.001Z</time></trkpt><trkpt lat="44.24001022537316" lon="11.040082482130552"><ele>408.0</ele><time>2026-03-28T15:00:56.001Z</time></trkpt><trkpt lat="44.2399818911109" lon="11.039893657696895"><ele>409.0</ele><time>2026-03-28T15:00:57Z</time></trkpt><trkpt lat="44.23992256607674" lon="11.039740896285336"><ele>410.0</ele><time>2026-03-28T15:00:58Z</time></trkpt><trkpt lat="44.23983974700502" lon="11.03961306430923"><ele>411.0</ele><time>2026-03-28T15:00:59Z</time></trkpt><trkpt lat="44.23972614160742" lon="11.039475790949329"><ele>409.66666666666663</ele><time>2026-03-28T15:01:00Z</time></trkpt><trkpt lat="44.239576065567654" lon="11.03929564673176"><ele>408.3333333333333</ele><time>2026-03-28T15:01:01Z</time></trkpt><trkpt lat="44.239393551673444" lon="11.039090999357963"><ele>407.0</ele><time>2026-03-28T15:01:02Z</time></trkpt><trkpt lat="44.23923609003624" lon="11.03890015368197"><ele>407.0</ele><time>2026-03-28T15:01:03Z</time></trkpt><trkpt lat="44.239122485850736" lon="11.03876173166075"><ele>407.0</ele><time>2026-03-28T15:01:04Z</time></trkpt><trkpt lat="44.2390373391904" lon="11.038687047331633"><ele>407.0</ele><time>2026-03-28T15:01:05Z</time></trkpt><trkpt lat="44.23894856154881" lon="11.038650048456295"><ele>407.0</ele><time>2026-03-28T15:01:06Z</time></trkpt><trkpt lat="44.2388345727108" lon="11.038619940315614"><ele>406.75</ele><time>2026-03-28T15:01:07Z</time></trkpt><trkpt lat="44.23869385440292" lon="11.038566158181466"><ele>406.5</ele><time>2026-03-28T15:01:08Z</time></trkpt><trkpt lat="44.23856728753744" lon="11.038480586448102"><ele>406.25</ele><time>2026-03-28T15:01:09Z</time></trkpt><trkpt lat="44.238422960233535" lon="11.038481181363679"><ele>406.0</ele><time>2026-03-28T15:01:10Z</time></trkpt><trkpt lat="44.238288243078095" lon="11.038489008378807"><ele>406.0</ele><time>2026-03-28T15:01:11Z</time></trkpt><trkpt lat="44.23816855857837" lon="11.038497742198878"><ele>406.0</ele><time>2026-03-28T15:01:12Z</time></trkpt><trkpt lat="44.23806445125381" lon="11.038488930193374"><ele>406.0</ele><time>2026-03-28T15:01:13Z</time></trkpt><trkpt lat="44.23796566925144" lon="11.038466933915313"><ele>406.0</ele><time>2026-03-28T15:01:14Z</time></trkpt><trkpt lat="44.23786180244422" lon="11.038420701349786"><ele>406.0</ele><time>2026-03-28T15:01:15Z</time></trkpt><trkpt lat="44.237734700722335" lon="11.038384449028067"><ele>405.25</ele><time>2026-03-28T15:01:16Z</time></trkpt><trkpt lat="44.23760663353473" lon="11.038389834976648"><ele>404.5</ele><time>2026-03-28T15:01:17Z</time></trkpt><trkpt lat="44.23748322403126" lon="11.038387994404737"><ele>403.75</ele><time>2026-03-28T15:01:18Z</time></trkpt><trkpt lat="44.23733608642234" lon="11.038420450140826"><ele>403.0</ele><time>2026-03-28T15:01:19Z</time></trkpt><trkpt lat="44.2371546352951" lon="11.038473715782603"><ele>398.0</ele><time>2026-03-28T15:01:20Z</time></trkpt><trkpt lat="44.23698678371847" lon="11.038539667460958"><ele>393.0</ele><time>2026-03-28T15:01:21Z</time></trkpt><trkpt lat="44.23684505485141" lon="11.038588130121335"><ele>388.0</ele><time>2026-03-28T15:01:22Z</time></trkpt><trkpt lat="44.23669583033059" lon="11.038633893285514"><ele>388.0</ele><time>2026-03-28T15:01:23Z</time></trkpt><trkpt lat="44.236549897992106" lon="11.038677076100335"><ele>388.0</ele><time>2026-03-28T15:01:24Z</time></trkpt><trkpt lat="44.23641277324239" lon="11.038708324902208"><ele>388.0</ele><time>2026-03-28T15:01:25Z</time></trkpt><trkpt lat="44.23628838777665" lon="11.038709667843385"><ele>388.0</ele><time>2026-03-28T15:01:26Z</time></trkpt><trkpt lat="44.23618267783327" lon="11.038684826811483"><ele>387.0</ele><time>2026-03-28T15:01:27Z</time></trkpt><trkpt lat="44.23608939389344" lon="11.038621364779896"><ele>386.0</ele><time>2026-03-28T15:01:28Z</time></trkpt><trkpt lat="44.23598510132305" lon="11.038566323941659"><ele>385.0</ele><time>2026-03-28T15:01:29Z</time></trkpt><trkpt lat="44.2358728158428" lon="11.038580007615609"><ele>384.0</ele><time>2026-03-28T15:01:30Z</time></trkpt><trkpt lat="44.235772878437146" lon="11.038725780487844"><ele>384.0</ele><time>2026-03-28T15:01:31Z</time></trkpt><trkpt lat="44.235641256352494" lon="11.038844825051774"><ele>384.0</ele><time>2026-03-28T15:01:32Z</time></trkpt><trkpt lat="44.235497302497585" lon="11.038954326586493"><ele>384.0</ele><time>2026-03-28T15:01:33Z</time></trkpt><trkpt lat="44.23536213348239" lon="11.03905672800767"><ele>381.0</ele><time>2026-03-28T15:01:34Z</time></trkpt><trkpt lat="44.23525780082187" lon="11.039201870746046"><ele>378.0</ele><time>2026-03-28T15:01:35Z</time></trkpt><trkpt lat="44.23517162729667" lon="11.039388615464008"><ele>375.0</ele><time>2026-03-28T15:01:36Z</time></trkpt><trkpt lat="44.23508268158232" lon="11.039587447431801"><ele>375.0</ele><time>2026-03-28T15:01:37Z</time></trkpt><trkpt lat="44.234991658963565" lon="11.03975297955658"><ele>375.0</ele><time>2026-03-28T15:01:38Z</time></trkpt><trkpt lat="44.234894481295164" lon="11.039879178138852"><ele>375.0</ele><time>2026-03-28T15:01:39Z</time></trkpt><trkpt lat="44.23478208911083" lon="11.039963785789565"><ele>375.0</ele><time>2026-03-28T15:01:40Z</time></trkpt><trkpt lat="44.23466249099066" lon="11.040042459922844"><ele>373.0</ele><time>2026-03-28T15:01:41Z</time></trkpt><trkpt lat="44.234548859366164" lon="11.040079919205414"><ele>371.0</ele><time>2026-03-28T15:01:42Z</time></trkpt><trkpt lat="44.23445854662957" lon="11.040030807760715"><ele>369.0</ele><time>2026-03-28T15:01:43Z</time></trkpt><trkpt lat="44.234346495848285" lon="11.039948059596782"><ele>367.0</ele><time>2026-03-28T15:01:44Z</time></trkpt><trkpt lat="44.23417478545467" lon="11.039817847268418"><ele>367.0</ele><time>2026-03-28T15:01:45Z</time></trkpt><trkpt lat="44.23400823559544" lon="11.039682357384766"><ele>367.0</ele><time>2026-03-28T15:01:46Z</time></trkpt><trkpt lat="44.233856075639565" lon="11.039564831352243"><ele>367.0</ele><time>2026-03-28T15:01:47Z</time></trkpt><trkpt lat="44.233761397641835" lon="11.039434472575817"><ele>362.25</ele><time>2026-03-28T15:01:48Z</time></trkpt><trkpt lat="44.233672937758904" lon="11.039325228713599"><ele>357.5</ele><time>2026-03-28T15:01:49Z</time></trkpt><trkpt lat="44.233550999789124" lon="11.039258935908096"><ele>352.75</ele><time>2026-03-28T15:01:50Z</time></trkpt><trkpt lat="44.23339393459541" lon="11.039278231261623"><ele>348.0</ele><time>2026-03-28T15:01:51Z</time></trkpt><trkpt lat="44.233246638020304" lon="11.039320426849375"><ele>344.75</ele><time>2026-03-28T15:01:52Z</time></trkpt><trkpt lat="44.23312001711586" lon="11.039244762896818"><ele>341.5</ele><time>2026-03-28T15:01:53Z</time></trkpt><trkpt lat="44.232983743735765" lon="11.039216254384584"><ele>338.25</ele><time>2026-03-28T15:01:54Z</time></trkpt><trkpt lat="44.23286524962633" lon="11.03925133336334"><ele>335.0</ele><time>2026-03-28T15:01:55Z</time></trkpt><trkpt lat="44.23276653788595" lon="11.0394122877319"><ele>335.0</ele><time>2026-03-28T15:01:56Z</time></trkpt><trkpt lat="44.23266002806013" lon="11.039529362540431"><ele>335.0</ele><time>2026-03-28T15:01:57Z</time></trkpt><trkpt lat="44.23256610150045" lon="11.039624523831636"><ele>335.0</ele><time>2026-03-28T15:01:58Z</time></trkpt><trkpt lat="44.232469846004676" lon="11.039668335750209"><ele>335.0</ele><time>2026-03-28T15:01:59Z</time></trkpt><trkpt lat="44.232349590503944" lon="11.039594062506032"><ele>331.0</ele><time>2026-03-28T15:02:00Z</time></trkpt><trkpt lat="44.2321544985022" lon="11.03956152493726"><ele>327.0</ele><time>2026-03-28T15:02:01Z</time></trkpt><trkpt lat="44.23190914473708" lon="11.039524197728296"><ele>323.0</ele><time>2026-03-28T15:02:02Z</time></trkpt><trkpt lat="44.23166766683789" lon="11.039487460180407"><ele>318.0</ele><time>2026-03-28T15:02:03Z</time></trkpt><trkpt lat="44.23146455372025" lon="11.039458583443785"><ele>313.0</ele><time>2026-03-28T15:02:04Z</time></trkpt><trkpt lat="44.231286635723244" lon="11.039438046842093"><ele>308.0</ele><time>2026-03-28T15:02:05Z</time></trkpt><trkpt lat="44.23114054912107" lon="11.03942118443068"><ele>308.0</ele><time>2026-03-28T15:02:06Z</time></trkpt><trkpt lat="44.231028578204025" lon="11.039401869274915"><ele>308.0</ele><time>2026-03-28T15:02:07Z</time></trkpt><trkpt lat="44.23093456307429" lon="11.039377851114192"><ele>308.0</ele><time>2026-03-28T15:02:08Z</time></trkpt><trkpt lat="44.23084735382494" lon="11.03935380958126"><ele>308.0</ele><time>2026-03-28T15:02:09Z</time></trkpt><trkpt lat="44.23077755486184" lon="11.039328329461389"><ele>308.0</ele><time>2026-03-28T15:02:10Z</time></trkpt><trkpt lat="44.23064917241385" lon="11.03932983354039"><ele>306.33333333333337</ele><time>2026-03-28T15:02:12Z</time></trkpt><trkpt lat="44.23057996790255" lon="11.03937405988278"><ele>304.6666666666667</ele><time>2026-03-28T15:02:13.001Z</time></trkpt><trkpt lat="44.23052150411033" lon="11.03943247142791"><ele>303.0</ele><time>2026-03-28T15:02:14.001Z</time></trkpt><trkpt lat="44.23044012626307" lon="11.03942145519149"><ele>301.3333333333333</ele><time>2026-03-28T15:02:16.001Z</time></trkpt><trkpt lat="44.23042318845084" lon="11.039329125684215"><ele>299.66666666666663</ele><time>2026-03-28T15:02:17.001Z</time></trkpt><trkpt lat="44.230393039036066" lon="11.039226751774368"><ele>298.0</ele><time>2026-03-28T15:02:18.001Z</time></trkpt><trkpt lat="44.23036323235018" lon="11.03913274689174"><ele>298.0</ele><time>2026-03-28T15:02:19.001Z</time></trkpt><trkpt lat="44.230270726326474" lon="11.039003230062509"><ele>298.0</ele><time>2026-03-28T15:02:21.001Z</time></trkpt><trkpt lat="44.23016436627678" lon="11.039084474940292"><ele>298.0</ele><time>2026-03-28T15:02:22.001Z</time></trkpt><trkpt lat="44.23004706967251" lon="11.03912093495711"><ele>298.0</ele><time>2026-03-28T15:02:23.001Z</time></trkpt><trkpt lat="44.22992072011834" lon="11.039188288975726"><ele>292.25</ele><time>2026-03-28T15:02:24.001Z</time></trkpt><trkpt lat="44.229780648303645" lon="11.039271897321825"><ele>286.5</ele><time>2026-03-28T15:02:25.001Z</time></trkpt><trkpt lat="44.22965449578139" lon="11.039342438353508"><ele>280.75</ele><time>2026-03-28T15:02:26.001Z</time></trkpt><trkpt lat="44.22953119544165" lon="11.039404396528605"><ele>275.0</ele><time>2026-03-28T15:02:27.001Z</time></trkpt><trkpt lat="44.229414086662146" lon="11.039489486675429"><ele>275.0</ele><time>2026-03-28T15:02:28.001Z</time></trkpt><trkpt lat="44.229292582668066" lon="11.03955583120664"><ele>275.0</ele><time>2026-03-28T15:02:29.001Z</time></trkpt><trkpt lat="44.229172783429874" lon="11.039633815119481"><ele>275.0</ele><time>2026-03-28T15:02:30.001Z</time></trkpt><trkpt lat="44.22905729149664" lon="11.039718686334638"><ele>275.0</ele><time>2026-03-28T15:02:31.001Z</time></trkpt><trkpt lat="44.22895079731317" lon="11.03980698668624"><ele>273.6</ele><time>2026-03-28T15:02:32.001Z</time></trkpt><trkpt lat="44.22883223510625" lon="11.039879256812545"><ele>272.2</ele><time>2026-03-28T15:02:33.001Z</time></trkpt><trkpt lat="44.228723754893636" lon="11.039944695852643"><ele>270.8</ele><time>2026-03-28T15:02:34.001Z</time></trkpt><trkpt lat="44.22864914401883" lon="11.040019890671735"><ele>269.4</ele><time>2026-03-28T15:02:35.001Z</time></trkpt><trkpt lat="44.22858840339297" lon="11.040050153629373"><ele>268.0</ele><time>2026-03-28T15:02:36.001Z</time></trkpt><trkpt lat="44.2285214448463" lon="11.04010661722575"><ele>266.5</ele><time>2026-03-28T15:02:38.001Z</time></trkpt><trkpt lat="44.22846308395394" lon="11.040143463794493"><ele>265.0</ele><time>2026-03-28T15:02:41.001Z</time></trkpt><trkpt lat="44.228492029877636" lon="11.040299007494282"><ele>263.5</ele><time>2026-03-28T15:02:43.001Z</time></trkpt><trkpt lat="44.228602172878624" lon="11.04041691029952"><ele>262.0</ele><time>2026-03-28T15:02:44.001Z</time></trkpt><trkpt lat="44.22869826401288" lon="11.040554255550184"><ele>262.0</ele><time>2026-03-28T15:02:45.001Z</time></trkpt><trkpt lat="44.22881874692444" lon="11.04073376625994"><ele>262.0</ele><time>2026-03-28T15:02:46.001Z</time></trkpt><trkpt lat="44.22892523613071" lon="11.040922564478281"><ele>262.0</ele><time>2026-03-28T15:02:47.001Z</time></trkpt><trkpt lat="44.22901226165826" lon="11.0411054854169"><ele>261.0</ele><time>2026-03-28T15:02:48.001Z</time></trkpt><trkpt lat="44.22910078152936" lon="11.041289510024768"><ele>260.0</ele><time>2026-03-28T15:02:49.001Z</time></trkpt><trkpt lat="44.229195542056644" lon="11.041475527904554"><ele>259.0</ele><time>2026-03-28T15:02:50.001Z</time></trkpt><trkpt lat="44.229297250719526" lon="11.041644064822467"><ele>259.0</ele><time>2026-03-28T15:02:51.001Z</time></trkpt><trkpt lat="44.229397102863025" lon="11.04179978293333"><ele>259.0</ele><time>2026-03-28T15:02:52.001Z</time></trkpt><trkpt lat="44.22949710269799" lon="11.04194757665954"><ele>259.0</ele><time>2026-03-28T15:02:53.001Z</time></trkpt><trkpt lat="44.22960605291025" lon="11.042096417613804"><ele>259.0</ele><time>2026-03-28T15:02:54.001Z</time></trkpt><trkpt lat="44.22971276433621" lon="11.042244380229858"><ele>260.0</ele><time>2026-03-28T15:02:55.001Z</time></trkpt><trkpt lat="44.22981898335336" lon="11.042391655419449"><ele>261.0</ele><time>2026-03-28T15:02:56.001Z</time></trkpt><trkpt lat="44.229916061214574" lon="11.042538598044203"><ele>262.0</ele><time>2026-03-28T15:02:57.001Z</time></trkpt><trkpt lat="44.2300059657001" lon="11.042686301549258"><ele>263.0</ele><time>2026-03-28T15:02:58.001Z</time></trkpt><trkpt lat="44.23006065525692" lon="11.042882053965286"><ele>263.0</ele><time>2026-03-28T15:02:59.001Z</time></trkpt><trkpt lat="44.23010962654406" lon="11.043113865096998"><ele>263.0</ele><time>2026-03-28T15:03:00.001Z</time></trkpt><trkpt lat="44.23014531145703" lon="11.043350657171525"><ele>263.0</ele><time>2026-03-28T15:03:01.001Z</time></trkpt><trkpt lat="44.230159626859134" lon="11.043586568118712"><ele>261.6666666666667</ele><time>2026-03-28T15:03:02.001Z</time></trkpt><trkpt lat="44.2301628692047" lon="11.043828203696583"><ele>260.3333333333333</ele><time>2026-03-28T15:03:03Z</time></trkpt><trkpt lat="44.23016610097622" lon="11.044069307612185"><ele>259.0</ele><time>2026-03-28T15:03:04Z</time></trkpt><trkpt lat="44.23018464266531" lon="11.04431269582592"><ele>258.66666666666663</ele><time>2026-03-28T15:03:05Z</time></trkpt><trkpt lat="44.23017033681277" lon="11.044543988011174"><ele>258.3333333333333</ele><time>2026-03-28T15:03:06Z</time></trkpt><trkpt lat="44.23018926102747" lon="11.044765501415753"><ele>258.0</ele><time>2026-03-28T15:03:07Z</time></trkpt><trkpt lat="44.230189746612666" lon="11.044965017269003"><ele>258.0</ele><time>2026-03-28T15:03:08Z</time></trkpt><trkpt lat="44.2301761515261" lon="11.045154122833104"><ele>258.0</ele><time>2026-03-28T15:03:09Z</time></trkpt><trkpt lat="44.23016480189285" lon="11.045319595148474"><ele>258.0</ele><time>2026-03-28T15:03:10Z</time></trkpt><trkpt lat="44.230126284645394" lon="11.045484557283178"><ele>258.0</ele><time>2026-03-28T15:03:11Z</time></trkpt><trkpt lat="44.23006318591608" lon="11.045670787092796"><ele>259.0</ele><time>2026-03-28T15:03:12Z</time></trkpt><trkpt lat="44.22999230149491" lon="11.045876537789084"><ele>260.0</ele><time>2026-03-28T15:03:13Z</time></trkpt><trkpt lat="44.229919907989554" lon="11.046086888937245"><ele>261.0</ele><time>2026-03-28T15:03:14Z</time></trkpt><trkpt lat="44.229862737450674" lon="11.046320732744748"><ele>258.0</ele><time>2026-03-28T15:03:15Z</time></trkpt><trkpt lat="44.229787346853136" lon="11.046567551175716"><ele>255.0</ele><time>2026-03-28T15:03:16Z</time></trkpt><trkpt lat="44.22972576315104" lon="11.046867363187962"><ele>252.0</ele><time>2026-03-28T15:03:17Z</time></trkpt><trkpt lat="44.22966409454382" lon="11.047183144380428"><ele>253.33333333333331</ele><time>2026-03-28T15:03:18Z</time></trkpt><trkpt lat="44.22960445469828" lon="11.047465832366036"><ele>254.66666666666666</ele><time>2026-03-28T15:03:19Z</time></trkpt><trkpt lat="44.229546484636245" lon="11.047743702580973"><ele>256.0</ele><time>2026-03-28T15:03:20Z</time></trkpt><trkpt lat="44.22948780093449" lon="11.048021357065696"><ele>256.0</ele><time>2026-03-28T15:03:21Z</time></trkpt><trkpt lat="44.229432347179916" lon="11.048291699246867"><ele>256.0</ele><time>2026-03-28T15:03:22Z</time></trkpt><trkpt lat="44.229372617941195" lon="11.048549447625643"><ele>256.0</ele><time>2026-03-28T15:03:23Z</time></trkpt><trkpt lat="44.22932047023344" lon="11.048810257892528"><ele>256.0</ele><time>2026-03-28T15:03:24Z</time></trkpt><trkpt lat="44.22926948357932" lon="11.049063655082891"><ele>256.0</ele><time>2026-03-28T15:03:25Z</time></trkpt><trkpt lat="44.229218771770384" lon="11.049303628984076"><ele>256.0</ele><time>2026-03-28T15:03:26Z</time></trkpt><trkpt lat="44.229177541989245" lon="11.04953265879696"><ele>257.66666666666663</ele><time>2026-03-28T15:03:27Z</time></trkpt><trkpt lat="44.22915989952598" lon="11.0497509080245"><ele>259.3333333333333</ele><time>2026-03-28T15:03:28Z</time></trkpt><trkpt lat="44.2291802713928" lon="11.049987358517734"><ele>261.0</ele><time>2026-03-28T15:03:29Z</time></trkpt><trkpt lat="44.22923692919559" lon="11.050247252282643"><ele>261.3333333333333</ele><time>2026-03-28T15:03:30Z</time></trkpt><trkpt lat="44.22929466106388" lon="11.050525433677675"><ele>261.66666666666663</ele><time>2026-03-28T15:03:31Z</time></trkpt><trkpt lat="44.22934705930326" lon="11.050793055393784"><ele>262.0</ele><time>2026-03-28T15:03:32Z</time></trkpt><trkpt lat="44.229392050521795" lon="11.051062180693199"><ele>260.66666666666663</ele><time>2026-03-28T15:03:33Z</time></trkpt><trkpt lat="44.229444734662664" lon="11.051319389103972"><ele>259.3333333333333</ele><time>2026-03-28T15:03:34Z</time></trkpt><trkpt lat="44.229511325232636" lon="11.051584977255267"><ele>258.0</ele><time>2026-03-28T15:03:35Z</time></trkpt><trkpt lat="44.2295950078811" lon="11.051844189685102"><ele>256.6666666666667</ele><time>2026-03-28T15:03:36Z</time></trkpt><trkpt lat="44.229684173493624" lon="11.052082720181513"><ele>255.33333333333334</ele><time>2026-03-28T15:03:37Z</time></trkpt><trkpt lat="44.22978442971672" lon="11.052281387705092"><ele>254.0</ele><time>2026-03-28T15:03:38Z</time></trkpt><trkpt lat="44.229881080671746" lon="11.052493058147144"><ele>257.6666666666667</ele><time>2026-03-28T15:03:39Z</time></trkpt><trkpt lat="44.22997332185919" lon="11.052695482478226"><ele>261.3333333333333</ele><time>2026-03-28T15:03:40Z</time></trkpt><trkpt lat="44.230060971444146" lon="11.052881095861647"><ele>265.0</ele><time>2026-03-28T15:03:41Z</time></trkpt><trkpt lat="44.23015410385684" lon="11.053082972682526"><ele>265.0</ele><time>2026-03-28T15:03:42Z</time></trkpt><trkpt lat="44.230219377617146" lon="11.05327655128777"><ele>265.0</ele><time>2026-03-28T15:03:43Z</time></trkpt><trkpt lat="44.23028920041317" lon="11.053467390687503"><ele>265.0</ele><time>2026-03-28T15:03:44Z</time></trkpt><trkpt lat="44.23034368491507" lon="11.053660016915597"><ele>262.5</ele><time>2026-03-28T15:03:45Z</time></trkpt><trkpt lat="44.230384745884734" lon="11.053850092978642"><ele>260.0</ele><time>2026-03-28T15:03:46Z</time></trkpt><trkpt lat="44.23042335908056" lon="11.054049181208503"><ele>257.5</ele><time>2026-03-28T15:03:47Z</time></trkpt><trkpt lat="44.230469044364064" lon="11.054250062776864"><ele>255.0</ele><time>2026-03-28T15:03:48Z</time></trkpt><trkpt lat="44.23054883589374" lon="11.054428203337718"><ele>253.75</ele><time>2026-03-28T15:03:49Z</time></trkpt><trkpt lat="44.23060696571467" lon="11.054603567886462"><ele>252.5</ele><time>2026-03-28T15:03:50Z</time></trkpt><trkpt lat="44.230664265258596" lon="11.054771292334658"><ele>251.25</ele><time>2026-03-28T15:03:51Z</time></trkpt><trkpt lat="44.230708506958734" lon="11.054934771639013"><ele>250.0</ele><time>2026-03-28T15:03:52Z</time></trkpt><trkpt lat="44.23071897617944" lon="11.055099320600338"><ele>251.2</ele><time>2026-03-28T15:03:53Z</time></trkpt><trkpt lat="44.23074029152935" lon="11.055248557146053"><ele>252.4</ele><time>2026-03-28T15:03:54Z</time></trkpt><trkpt lat="44.23074463658332" lon="11.055400916965187"><ele>253.60000000000002</ele><time>2026-03-28T15:03:55Z</time></trkpt><trkpt lat="44.23073879217792" lon="11.055551012384418"><ele>254.8</ele><time>2026-03-28T15:03:56Z</time></trkpt><trkpt lat="44.23071587414049" lon="11.055685024826857"><ele>256.0</ele><time>2026-03-28T15:03:57Z</time></trkpt><trkpt lat="44.230683261127666" lon="11.055827168332423"><ele>253.0</ele><time>2026-03-28T15:03:58Z</time></trkpt><trkpt lat="44.230639757002585" lon="11.05600022113856"><ele>250.0</ele><time>2026-03-28T15:03:59Z</time></trkpt><trkpt lat="44.230594278973605" lon="11.056187073419641"><ele>247.0</ele><time>2026-03-28T15:04:00Z</time></trkpt><trkpt lat="44.23048390798008" lon="11.05631372553051"><ele>244.0</ele><time>2026-03-28T15:04:01Z</time></trkpt><trkpt lat="44.23037359131514" lon="11.056454127477089"><ele>244.0</ele><time>2026-03-28T15:04:02Z</time></trkpt><trkpt lat="44.23027621352249" lon="11.056616949938485"><ele>244.0</ele><time>2026-03-28T15:04:03Z</time></trkpt><trkpt lat="44.23018504443589" lon="11.05681784366751"><ele>244.0</ele><time>2026-03-28T15:04:04Z</time></trkpt><trkpt lat="44.23012041951479" lon="11.057062465486348"><ele>245.0</ele><time>2026-03-28T15:04:05Z</time></trkpt><trkpt lat="44.23007682573314" lon="11.057336906386071"><ele>246.0</ele><time>2026-03-28T15:04:06Z</time></trkpt><trkpt lat="44.23004655073052" lon="11.057606729979106"><ele>247.0</ele><time>2026-03-28T15:04:07Z</time></trkpt><trkpt lat="44.22999628239014" lon="11.057870376271639"><ele>248.0</ele><time>2026-03-28T15:04:08Z</time></trkpt><trkpt lat="44.22999075889593" lon="11.058157968503702"><ele>249.0</ele><time>2026-03-28T15:04:09Z</time></trkpt><trkpt lat="44.22999431569535" lon="11.058490141746786"><ele>250.0</ele><time>2026-03-28T15:04:10Z</time></trkpt><trkpt lat="44.23002096373551" lon="11.058814916218651"><ele>251.33333333333331</ele><time>2026-03-28T15:04:11Z</time></trkpt><trkpt lat="44.23002477286781" lon="11.059110653450857"><ele>252.66666666666669</ele><time>2026-03-28T15:04:12Z</time></trkpt><trkpt lat="44.23003139181272" lon="11.059407162191647"><ele>254.0</ele><time>2026-03-28T15:04:13Z</time></trkpt><trkpt lat="44.23003831188385" lon="11.059719430333354"><ele>255.66666666666669</ele><time>2026-03-28T15:04:14Z</time></trkpt><trkpt lat="44.230053717046594" lon="11.060022891614578"><ele>257.3333333333333</ele><time>2026-03-28T15:04:15Z</time></trkpt><trkpt lat="44.230069379608885" lon="11.060299929713246"><ele>259.0</ele><time>2026-03-28T15:04:16Z</time></trkpt><trkpt lat="44.230071996526334" lon="11.060553558097117"><ele>259.0</ele><time>2026-03-28T15:04:17Z</time></trkpt><trkpt lat="44.230037323860905" lon="11.060772689090662"><ele>259.0</ele><time>2026-03-28T15:04:18Z</time></trkpt><trkpt lat="44.22995564324022" lon="11.060973555290438"><ele>259.0</ele><time>2026-03-28T15:04:19Z</time></trkpt><trkpt lat="44.22982356215337" lon="11.06116296060466"><ele>256.66666666666663</ele><time>2026-03-28T15:04:20.001Z</time></trkpt><trkpt lat="44.229683149260644" lon="11.061340595434801"><ele>254.33333333333331</ele><time>2026-03-28T15:04:21.001Z</time></trkpt><trkpt lat="44.22957551404145" lon="11.061501451828379"><ele>252.0</ele><time>2026-03-28T15:04:22.001Z</time></trkpt><trkpt lat="44.229498182836295" lon="11.061633994875478"><ele>252.0</ele><time>2026-03-28T15:04:23.001Z</time></trkpt><trkpt lat="44.22945667603404" lon="11.061779806264312"><ele>252.0</ele><time>2026-03-28T15:04:24.001Z</time></trkpt><trkpt lat="44.22947554146006" lon="11.061958623605268"><ele>252.0</ele><time>2026-03-28T15:04:25.001Z</time></trkpt><trkpt lat="44.229553595653236" lon="11.062170134530769"><ele>252.0</ele><time>2026-03-28T15:04:26.001Z</time></trkpt><trkpt lat="44.22963942707118" lon="11.062413193953995"><ele>251.66666666666669</ele><time>2026-03-28T15:04:27.001Z</time></trkpt><trkpt lat="44.22973352168239" lon="11.06265181271665"><ele>251.33333333333334</ele><time>2026-03-28T15:04:28.001Z</time></trkpt><trkpt lat="44.22983108286559" lon="11.062864138350518"><ele>251.0</ele><time>2026-03-28T15:04:29.001Z</time></trkpt><trkpt lat="44.22995472811884" lon="11.063025178116304"><ele>254.5</ele><time>2026-03-28T15:04:30.001Z</time></trkpt><trkpt lat="44.23005036869623" lon="11.063185878934512"><ele>258.0</ele><time>2026-03-28T15:04:31.001Z</time></trkpt><trkpt lat="44.230083180271144" lon="11.063367302454502"><ele>261.5</ele><time>2026-03-28T15:04:32.001Z</time></trkpt><trkpt lat="44.23015119671675" lon="11.063522834316018"><ele>265.0</ele><time>2026-03-28T15:04:33.001Z</time></trkpt><trkpt lat="44.230250229277125" lon="11.063665954070169"><ele>265.0</ele><time>2026-03-28T15:04:34.001Z</time></trkpt><trkpt lat="44.23041051794458" lon="11.063786474478045"><ele>265.0</ele><time>2026-03-28T15:04:35.001Z</time></trkpt><trkpt lat="44.2305825229035" lon="11.063862473198785"><ele>265.0</ele><time>2026-03-28T15:04:36.001Z</time></trkpt><trkpt lat="44.23072603943416" lon="11.063927282707592"><ele>267.6</ele><time>2026-03-28T15:04:37.001Z</time></trkpt><trkpt lat="44.23082415838415" lon="11.063985300921509"><ele>270.2</ele><time>2026-03-28T15:04:38.001Z</time></trkpt><trkpt lat="44.230882506138975" lon="11.064024277956046"><ele>272.8</ele><time>2026-03-28T15:04:39.001Z</time></trkpt><trkpt lat="44.23096220123041" lon="11.063878477411365"><ele>275.4</ele><time>2026-03-28T15:04:45.001Z</time></trkpt><trkpt lat="44.23097835277005" lon="11.063787325256568"><ele>278.0</ele><time>2026-03-28T15:04:47.001Z</time></trkpt><trkpt lat="44.23107327247095" lon="11.063846011553675"><ele>278.0</ele><time>2026-03-28T15:04:49.001Z</time></trkpt><trkpt lat="44.2311431906033" lon="11.063922914858876"><ele>278.0</ele><time>2026-03-28T15:04:50.001Z</time></trkpt><trkpt lat="44.23122183663639" lon="11.064032732820444"><ele>278.0</ele><time>2026-03-28T15:04:51.001Z</time></trkpt><trkpt lat="44.23130856015266" lon="11.064142952907439"><ele>278.0</ele><time>2026-03-28T15:04:52.001Z</time></trkpt><trkpt lat="44.23138848793645" lon="11.0642326660683"><ele>278.0</ele><time>2026-03-28T15:04:53.001Z</time></trkpt><trkpt lat="44.23146884880766" lon="11.064301979284844"><ele>278.4</ele><time>2026-03-28T15:04:54.001Z</time></trkpt><trkpt lat="44.23154570745869" lon="11.064305488384845"><ele>278.8</ele><time>2026-03-28T15:04:55.001Z</time></trkpt><trkpt lat="44.231648050038096" lon="11.064190875412606"><ele>279.2</ele><time>2026-03-28T15:04:57.001Z</time></trkpt><trkpt lat="44.231736230684014" lon="11.064128221133195"><ele>279.6</ele><time>2026-03-28T15:04:58.001Z</time></trkpt><trkpt lat="44.23182772822984" lon="11.064034573515087"><ele>280.0</ele><time>2026-03-28T15:04:59.001Z</time></trkpt><trkpt lat="44.23190574385448" lon="11.063910432944379"><ele>280.0</ele><time>2026-03-28T15:05:00.001Z</time></trkpt><trkpt lat="44.23200994164352" lon="11.063844219541775"><ele>280.0</ele><time>2026-03-28T15:05:01.001Z</time></trkpt><trkpt lat="44.23212313161244" lon="11.063758245142257"><ele>280.0</ele><time>2026-03-28T15:05:02.001Z</time></trkpt><trkpt lat="44.232244627177515" lon="11.063673915222825"><ele>280.0</ele><time>2026-03-28T15:05:03.001Z</time></trkpt><trkpt lat="44.232347864017775" lon="11.063606853885762"><ele>281.6</ele><time>2026-03-28T15:05:04.001Z</time></trkpt><trkpt lat="44.232439717921665" lon="11.063548698606786"><ele>283.2</ele><time>2026-03-28T15:05:05.001Z</time></trkpt><trkpt lat="44.23252352647351" lon="11.063470295151598"><ele>284.8</ele><time>2026-03-28T15:05:06.001Z</time></trkpt><trkpt lat="44.23260013751469" lon="11.063422178943663"><ele>286.4</ele><time>2026-03-28T15:05:07.001Z</time></trkpt><trkpt lat="44.2326605669848" lon="11.063382763894326"><ele>288.0</ele><time>2026-03-28T15:05:08.001Z</time></trkpt><trkpt lat="44.23278432586788" lon="11.063440654775208"><ele>288.0</ele><time>2026-03-28T15:05:10Z</time></trkpt><trkpt lat="44.232892986003776" lon="11.063472209387605"><ele>288.0</ele><time>2026-03-28T15:05:11Z</time></trkpt><trkpt lat="44.233024180303595" lon="11.063528906464544"><ele>288.0</ele><time>2026-03-28T15:05:12Z</time></trkpt><trkpt lat="44.23315843402234" lon="11.063584063946376"><ele>288.0</ele><time>2026-03-28T15:05:13Z</time></trkpt><trkpt lat="44.233268574086935" lon="11.06365809139695"><ele>290.2</ele><time>2026-03-28T15:05:14Z</time></trkpt><trkpt lat="44.233358299291176" lon="11.063724749975243"><ele>292.4</ele><time>2026-03-28T15:05:15Z</time></trkpt><trkpt lat="44.233414457002596" lon="11.063798327068314"><ele>294.59999999999997</ele><time>2026-03-28T15:05:16Z</time></trkpt><trkpt lat="44.23344180562585" lon="11.063914569043376"><ele>296.8</ele><time>2026-03-28T15:05:17Z</time></trkpt><trkpt lat="44.23343573756646" lon="11.064056714900214"><ele>299.0</ele><time>2026-03-28T15:05:18Z</time></trkpt><trkpt lat="44.233474471243795" lon="11.064157563844184"><ele>299.0</ele><time>2026-03-28T15:05:19Z</time></trkpt><trkpt lat="44.233553906743076" lon="11.064236706316688"><ele>299.0</ele><time>2026-03-28T15:05:20Z</time></trkpt><trkpt lat="44.23366787985412" lon="11.064329148859075"><ele>299.0</ele><time>2026-03-28T15:05:21Z</time></trkpt><trkpt lat="44.233772025913176" lon="11.064487944348217"><ele>299.0</ele><time>2026-03-28T15:05:22Z</time></trkpt><trkpt lat="44.233872538691486" lon="11.064689025508295"><ele>299.0</ele><time>2026-03-28T15:05:23Z</time></trkpt><trkpt lat="44.23395885962783" lon="11.064859411755469"><ele>299.0</ele><time>2026-03-28T15:05:24Z</time></trkpt><trkpt lat="44.234037447007424" lon="11.064982596283624"><ele>299.0</ele><time>2026-03-28T15:05:25Z</time></trkpt><trkpt lat="44.23409004863909" lon="11.065064484166673"><ele>299.0</ele><time>2026-03-28T15:05:26Z</time></trkpt><trkpt lat="44.2342006997443" lon="11.065105867825965"><ele>302.75</ele><time>2026-03-28T15:05:28Z</time></trkpt><trkpt lat="44.23426982726621" lon="11.065023594065043"><ele>306.5</ele><time>2026-03-28T15:05:29Z</time></trkpt><trkpt lat="44.23428811260924" lon="11.064882474286934"><ele>310.25</ele><time>2026-03-28T15:05:30Z</time></trkpt><trkpt lat="44.234210602591375" lon="11.064723981887077"><ele>314.0</ele><time>2026-03-28T15:05:31Z</time></trkpt><trkpt lat="44.234133381495276" lon="11.06459764862328"><ele>314.83333333333337</ele><time>2026-03-28T15:05:32Z</time></trkpt><trkpt lat="44.23409706701767" lon="11.064507789019265"><ele>315.6666666666667</ele><time>2026-03-28T15:05:33Z</time></trkpt><trkpt lat="44.23413234832363" lon="11.064417334487828"><ele>316.5</ele><time>2026-03-28T15:05:34Z</time></trkpt><trkpt lat="44.2342002404937" lon="11.064352053642445"><ele>317.3333333333333</ele><time>2026-03-28T15:05:35Z</time></trkpt><trkpt lat="44.23423794376196" lon="11.064227453859022"><ele>318.16666666666663</ele><time>2026-03-28T15:05:36Z</time></trkpt><trkpt lat="44.23424025708457" lon="11.064099818149478"><ele>319.0</ele><time>2026-03-28T15:05:37Z</time></trkpt><trkpt lat="44.23422654831315" lon="11.064000749259959"><ele>319.0</ele><time>2026-03-28T15:05:38Z</time></trkpt><trkpt lat="44.23428463036306" lon="11.063870067254387"><ele>319.0</ele><time>2026-03-28T15:05:40Z</time></trkpt><trkpt lat="44.2343646896304" lon="11.06388146462423"><ele>319.0</ele><time>2026-03-28T15:05:41Z</time></trkpt><trkpt lat="44.234418023169496" lon="11.06397432238357"><ele>319.0</ele><time>2026-03-28T15:05:42Z</time></trkpt><trkpt lat="44.23439087067779" lon="11.06413680239398"><ele>319.0</ele><time>2026-03-28T15:05:43Z</time></trkpt><trkpt lat="44.23440557210134" lon="11.064286238063495"><ele>319.0</ele><time>2026-03-28T15:05:44Z</time></trkpt><trkpt lat="44.234470756087156" lon="11.064454330865853"><ele>319.0</ele><time>2026-03-28T15:05:45Z</time></trkpt><trkpt lat="44.23452458037613" lon="11.06459397431713"><ele>319.0</ele><time>2026-03-28T15:05:46Z</time></trkpt><trkpt lat="44.2345688928791" lon="11.064699715280833"><ele>319.0</ele><time>2026-03-28T15:05:47Z</time></trkpt><trkpt lat="44.234658044475204" lon="11.06475571297746"><ele>319.0</ele><time>2026-03-28T15:05:48Z</time></trkpt><trkpt lat="44.23475403842763" lon="11.064812019497"><ele>324.0</ele><time>2026-03-28T15:05:49Z</time></trkpt><trkpt lat="44.23485672115847" lon="11.064871326815497"><ele>329.0</ele><time>2026-03-28T15:05:50Z</time></trkpt><trkpt lat="44.23492609683473" lon="11.064972287898367"><ele>334.0</ele><time>2026-03-28T15:05:51Z</time></trkpt><trkpt lat="44.23495932713549" lon="11.065070446162377"><ele>339.0</ele><time>2026-03-28T15:05:52Z</time></trkpt><trkpt lat="44.23493572142813" lon="11.065217629085067"><ele>344.0</ele><time>2026-03-28T15:05:53Z</time></trkpt><trkpt lat="44.23496019017676" lon="11.065388043029035"><ele>344.0</ele><time>2026-03-28T15:05:54Z</time></trkpt><trkpt lat="44.23497924652958" lon="11.065567674982224"><ele>344.0</ele><time>2026-03-28T15:05:55Z</time></trkpt><trkpt lat="44.234987947497224" lon="11.065733904611347"><ele>344.0</ele><time>2026-03-28T15:05:56Z</time></trkpt><trkpt lat="44.23499914440823" lon="11.065868521551993"><ele>344.0</ele><time>2026-03-28T15:05:57Z</time></trkpt><trkpt lat="44.23503684645244" lon="11.065981913279215"><ele>344.0</ele><time>2026-03-28T15:05:58Z</time></trkpt><trkpt lat="44.23508330447433" lon="11.066092664729787"><ele>342.5</ele><time>2026-03-28T15:05:59Z</time></trkpt><trkpt lat="44.23516148877286" lon="11.066169282876086"><ele>341.0</ele><time>2026-03-28T15:06:00Z</time></trkpt><trkpt lat="44.23527539196489" lon="11.066199168119605"><ele>339.5</ele><time>2026-03-28T15:06:01Z</time></trkpt><trkpt lat="44.23538846124391" lon="11.066210814200552"><ele>338.0</ele><time>2026-03-28T15:06:02Z</time></trkpt><trkpt lat="44.23552411025416" lon="11.066185305542918"><ele>344.6666666666667</ele><time>2026-03-28T15:06:03Z</time></trkpt><trkpt lat="44.23569498151216" lon="11.066169563204017"><ele>351.3333333333333</ele><time>2026-03-28T15:06:04Z</time></trkpt><trkpt lat="44.23585754898946" lon="11.06617838441977"><ele>358.0</ele><time>2026-03-28T15:06:05Z</time></trkpt><trkpt lat="44.23600412641079" lon="11.066205637270567"><ele>358.0</ele><time>2026-03-28T15:06:06Z</time></trkpt><trkpt lat="44.23613887053147" lon="11.06620558794464"><ele>358.0</ele><time>2026-03-28T15:06:07Z</time></trkpt><trkpt lat="44.23625477927813" lon="11.06618452912521"><ele>358.0</ele><time>2026-03-28T15:06:08Z</time></trkpt><trkpt lat="44.23636281741379" lon="11.06609699399539"><ele>358.0</ele><time>2026-03-28T15:06:09Z</time></trkpt><trkpt lat="44.23650865686123" lon="11.066030413658513"><ele>360.3333333333333</ele><time>2026-03-28T15:06:10Z</time></trkpt><trkpt lat="44.23667677978435" lon="11.065984413619605"><ele>362.6666666666667</ele><time>2026-03-28T15:06:11Z</time></trkpt><trkpt lat="44.23682795149724" lon="11.06594570432318"><ele>365.0</ele><time>2026-03-28T15:06:12Z</time></trkpt><trkpt lat="44.23697396545907" lon="11.065939201909785"><ele>365.0</ele><time>2026-03-28T15:06:13Z</time></trkpt><trkpt lat="44.23713391582397" lon="11.065955291311987"><ele>365.0</ele><time>2026-03-28T15:06:14Z</time></trkpt><trkpt lat="44.23729613579917" lon="11.06599074593438"><ele>365.0</ele><time>2026-03-28T15:06:15Z</time></trkpt><trkpt lat="44.23742807086602" lon="11.066040798851253"><ele>367.5</ele><time>2026-03-28T15:06:16Z</time></trkpt><trkpt lat="44.23752514177258" lon="11.066106023525125"><ele>370.0</ele><time>2026-03-28T15:06:17Z</time></trkpt><trkpt lat="44.237639881244704" lon="11.066207519388978"><ele>372.5</ele><time>2026-03-28T15:06:18Z</time></trkpt><trkpt lat="44.23777489041624" lon="11.066262887460057"><ele>375.0</ele><time>2026-03-28T15:06:19Z</time></trkpt><trkpt lat="44.23787915612185" lon="11.066309553491724"><ele>375.0</ele><time>2026-03-28T15:06:20Z</time></trkpt><trkpt lat="44.23796737707948" lon="11.066340725928283"><ele>375.0</ele><time>2026-03-28T15:06:21Z</time></trkpt><trkpt lat="44.23805290431426" lon="11.066368129122944"><ele>375.0</ele><time>2026-03-28T15:06:22Z</time></trkpt><trkpt lat="44.23816270428221" lon="11.066329474655934"><ele>375.0</ele><time>2026-03-28T15:06:23Z</time></trkpt><trkpt lat="44.238248035288585" lon="11.066286031163042"><ele>375.0</ele><time>2026-03-28T15:06:24Z</time></trkpt><trkpt lat="44.23831729760191" lon="11.066221586203287"><ele>374.4</ele><time>2026-03-28T15:06:25Z</time></trkpt><trkpt lat="44.23838982386937" lon="11.066101372309918"><ele>373.8</ele><time>2026-03-28T15:06:26Z</time></trkpt><trkpt lat="44.238469016194685" lon="11.065989427603975"><ele>373.20000000000005</ele><time>2026-03-28T15:06:27Z</time></trkpt><trkpt lat="44.238525706873396" lon="11.065905367314498"><ele>372.6</ele><time>2026-03-28T15:06:28Z</time></trkpt><trkpt lat="44.238577981293396" lon="11.065804121279772"><ele>372.0</ele><time>2026-03-28T15:06:29Z</time></trkpt><trkpt lat="44.23862857473833" lon="11.065663432543996"><ele>373.40000000000003</ele><time>2026-03-28T15:06:30Z</time></trkpt><trkpt lat="44.238678708725516" lon="11.065538309896132"><ele>374.8</ele><time>2026-03-28T15:06:31Z</time></trkpt><trkpt lat="44.23871836190695" lon="11.065451802016756"><ele>376.2</ele><time>2026-03-28T15:06:32Z</time></trkpt><trkpt lat="44.23881510016425" lon="11.065383294410967"><ele>377.6</ele><time>2026-03-28T15:06:34Z</time></trkpt><trkpt lat="44.23888848620619" lon="11.065398131654968"><ele>379.0</ele><time>2026-03-28T15:06:35.001Z</time></trkpt><trkpt lat="44.23897498560174" lon="11.065481655131958"><ele>379.0</ele><time>2026-03-28T15:06:36.001Z</time></trkpt><trkpt lat="44.23908976018089" lon="11.065581520254586"><ele>379.0</ele><time>2026-03-28T15:06:37.001Z</time></trkpt><trkpt lat="44.23918921071737" lon="11.065665960124937"><ele>379.0</ele><time>2026-03-28T15:06:38.001Z</time></trkpt><trkpt lat="44.23926581371996" lon="11.065699446803796"><ele>379.0</ele><time>2026-03-28T15:06:39.001Z</time></trkpt><trkpt lat="44.23934548954324" lon="11.065695105735703"><ele>379.0</ele><time>2026-03-28T15:06:40.001Z</time></trkpt><trkpt lat="44.23944244568279" lon="11.065643961015645"><ele>379.0</ele><time>2026-03-28T15:06:41.001Z</time></trkpt><trkpt lat="44.23955296060927" lon="11.06554578870308"><ele>379.0</ele><time>2026-03-28T15:06:42.001Z</time></trkpt><trkpt lat="44.23963386099328" lon="11.065463152461074"><ele>379.0</ele><time>2026-03-28T15:06:43.001Z</time></trkpt><trkpt lat="44.23968263318734" lon="11.06538367853567"><ele>379.0</ele><time>2026-03-28T15:06:44.001Z</time></trkpt><trkpt lat="44.239682732425436" lon="11.065282132980416"><ele>379.0</ele><time>2026-03-28T15:06:45.001Z</time></trkpt><trkpt lat="44.23967578153259" lon="11.065137920095179"><ele>379.0</ele><time>2026-03-28T15:06:46.001Z</time></trkpt><trkpt lat="44.23965451239445" lon="11.064954698797045"><ele>379.0</ele><time>2026-03-28T15:06:47.001Z</time></trkpt><trkpt lat="44.23964223462618" lon="11.064777421107284"><ele>379.0</ele><time>2026-03-28T15:06:48.001Z</time></trkpt><trkpt lat="44.23961271596748" lon="11.064644099776439"><ele>379.0</ele><time>2026-03-28T15:06:49.001Z</time></trkpt><trkpt lat="44.23957875556784" lon="11.064526746230205"><ele>380.4</ele><time>2026-03-28T15:06:50.001Z</time></trkpt><trkpt lat="44.23956107312979" lon="11.064396699267814"><ele>381.79999999999995</ele><time>2026-03-28T15:06:51.001Z</time></trkpt><trkpt lat="44.23949714735251" lon="11.064272662416231"><ele>383.20000000000005</ele><time>2026-03-28T15:06:52.001Z</time></trkpt><trkpt lat="44.23938959942831" lon="11.06418895336774"><ele>384.6</ele><time>2026-03-28T15:06:53.001Z</time></trkpt><trkpt lat="44.2393298989107" lon="11.064071127644182"><ele>386.0</ele><time>2026-03-28T15:06:54.001Z</time></trkpt><trkpt lat="44.23928730904664" lon="11.063970782844937"><ele>388.75</ele><time>2026-03-28T15:06:55.001Z</time></trkpt><trkpt lat="44.23926227616267" lon="11.063839801020226"><ele>391.5</ele><time>2026-03-28T15:06:56.001Z</time></trkpt><trkpt lat="44.23925278723409" lon="11.06367410712934"><ele>394.25</ele><time>2026-03-28T15:06:57.001Z</time></trkpt><trkpt lat="44.23924799925497" lon="11.063486709923975"><ele>397.0</ele><time>2026-03-28T15:06:58.001Z</time></trkpt><trkpt lat="44.23926106190073" lon="11.063336710948391"><ele>401.8</ele><time>2026-03-28T15:06:59.001Z</time></trkpt><trkpt lat="44.239270760614104" lon="11.063207132794975"><ele>406.6</ele><time>2026-03-28T15:07:00.001Z</time></trkpt><trkpt lat="44.23935648556475" lon="11.063111175606473"><ele>411.40000000000003</ele><time>2026-03-28T15:07:01.001Z</time></trkpt><trkpt lat="44.23945075162555" lon="11.063040525636323"><ele>416.20000000000005</ele><time>2026-03-28T15:07:02.001Z</time></trkpt><trkpt lat="44.23955496420234" lon="11.062971489151828"><ele>421.0</ele><time>2026-03-28T15:07:03.001Z</time></trkpt><trkpt lat="44.23963280888981" lon="11.062913284115085"><ele>421.0</ele><time>2026-03-28T15:07:04.001Z</time></trkpt><trkpt lat="44.23965831840094" lon="11.062806037663929"><ele>421.0</ele><time>2026-03-28T15:07:05.001Z</time></trkpt><trkpt lat="44.23967195998111" lon="11.062658769545749"><ele>421.0</ele><time>2026-03-28T15:07:06.001Z</time></trkpt><trkpt lat="44.23969443719756" lon="11.062454688158418"><ele>421.0</ele><time>2026-03-28T15:07:07.001Z</time></trkpt><trkpt lat="44.239761762512224" lon="11.062226684914629"><ele>417.25</ele><time>2026-03-28T15:07:08.001Z</time></trkpt><trkpt lat="44.239822627866836" lon="11.062028144308197"><ele>413.5</ele><time>2026-03-28T15:07:09.001Z</time></trkpt><trkpt lat="44.239882181293574" lon="11.061889801856848"><ele>409.75</ele><time>2026-03-28T15:07:10.001Z</time></trkpt><trkpt lat="44.23993941192526" lon="11.061764347095039"><ele>406.0</ele><time>2026-03-28T15:07:11.001Z</time></trkpt><trkpt lat="44.23996524772668" lon="11.061647344216102"><ele>407.8</ele><time>2026-03-28T15:07:12.001Z</time></trkpt><trkpt lat="44.239992257653306" lon="11.061559376834834"><ele>409.6</ele><time>2026-03-28T15:07:13.001Z</time></trkpt><trkpt lat="44.24002979194488" lon="11.061427302450644"><ele>411.4</ele><time>2026-03-28T15:07:15Z</time></trkpt><trkpt lat="44.240068027231196" lon="11.061289418934647"><ele>413.2</ele><time>2026-03-28T15:07:17Z</time></trkpt><trkpt lat="44.24012591990632" lon="11.061164597498692"><ele>415.0</ele><time>2026-03-28T15:07:19Z</time></trkpt><trkpt lat="44.240234567731086" lon="11.061111960623558"><ele>415.0</ele><time>2026-03-28T15:07:21Z</time></trkpt><trkpt lat="44.24030085056832" lon="11.06106324852293"><ele>415.0</ele><time>2026-03-28T15:07:22Z</time></trkpt><trkpt lat="44.24039447923799" lon="11.06101864715012"><ele>415.0</ele><time>2026-03-28T15:07:23Z</time></trkpt><trkpt lat="44.24050424763478" lon="11.06096036016874"><ele>415.0</ele><time>2026-03-28T15:07:24Z</time></trkpt><trkpt lat="44.24061191721699" lon="11.060899442517984"><ele>415.0</ele><time>2026-03-28T15:07:25Z</time></trkpt><trkpt lat="44.24071058016877" lon="11.060845059242933"><ele>414.1666666666667</ele><time>2026-03-28T15:07:26Z</time></trkpt><trkpt lat="44.240789207164795" lon="11.060797442138936"><ele>413.33333333333337</ele><time>2026-03-28T15:07:27Z</time></trkpt><trkpt lat="44.24085199866919" lon="11.06073709903818"><ele>412.5</ele><time>2026-03-28T15:07:28Z</time></trkpt><trkpt lat="44.24090398210367" lon="11.060660999370404"><ele>411.66666666666663</ele><time>2026-03-28T15:07:29Z</time></trkpt><trkpt lat="44.24094185712337" lon="11.060572313476603"><ele>410.8333333333333</ele><time>2026-03-28T15:07:30Z</time></trkpt><trkpt lat="44.24098084134663" lon="11.060431787897674"><ele>410.0</ele><time>2026-03-28T15:07:31Z</time></trkpt><trkpt lat="44.24103044447967" lon="11.060300675375679"><ele>409.99999999999994</ele><time>2026-03-28T15:07:32Z</time></trkpt><trkpt lat="44.24108092310833" lon="11.060208806134813"><ele>410.0</ele><time>2026-03-28T15:07:33Z</time></trkpt><trkpt lat="44.24113161829688" lon="11.060138402082302"><ele>410.0</ele><time>2026-03-28T15:07:34Z</time></trkpt><trkpt lat="44.241215551539014" lon="11.06008915004335"><ele>410.0</ele><time>2026-03-28T15:07:35Z</time></trkpt><trkpt lat="44.24131003765184" lon="11.06004907568321"><ele>409.99999999999994</ele><time>2026-03-28T15:07:36Z</time></trkpt><trkpt lat="44.241397254035746" lon="11.060002443561954"><ele>410.0</ele><time>2026-03-28T15:07:37Z</time></trkpt><trkpt lat="44.24148002319786" lon="11.060018365157807"><ele>411.8</ele><time>2026-03-28T15:07:38Z</time></trkpt><trkpt lat="44.241592252785864" lon="11.060001088304299"><ele>413.6</ele><time>2026-03-28T15:07:40Z</time></trkpt><trkpt lat="44.241659783020395" lon="11.060033251666805"><ele>415.4</ele><time>2026-03-28T15:07:55Z</time></trkpt><trkpt lat="44.24173339405503" lon="11.060036135586998"><ele>417.2</ele><time>2026-03-28T15:07:57Z</time></trkpt><trkpt lat="44.24183962366547" lon="11.0601068562311"><ele>419.0</ele><time>2026-03-28T15:07:59Z</time></trkpt><trkpt lat="44.241908777400106" lon="11.060149094709447"><ele>419.0</ele><time>2026-03-28T15:08:00Z</time></trkpt><trkpt lat="44.24198913346352" lon="11.060219726051177"><ele>419.0</ele><time>2026-03-28T15:08:01Z</time></trkpt><trkpt lat="44.242086494469206" lon="11.06028831775118"><ele>419.0</ele><time>2026-03-28T15:08:02Z</time></trkpt><trkpt lat="44.2421806452907" lon="11.060348535410476"><ele>419.0</ele><time>2026-03-28T15:08:03Z</time></trkpt><trkpt lat="44.24226985632069" lon="11.060411038123116"><ele>419.0</ele><time>2026-03-28T15:08:04Z</time></trkpt><trkpt lat="44.24234237684486" lon="11.060488088786668"><ele>422.3333333333333</ele><time>2026-03-28T15:08:05Z</time></trkpt><trkpt lat="44.24241756204605" lon="11.060530622184277"><ele>425.66666666666663</ele><time>2026-03-28T15:08:06Z</time></trkpt><trkpt lat="44.242497833443174" lon="11.060564135711697"><ele>429.0</ele><time>2026-03-28T15:08:07Z</time></trkpt><trkpt lat="44.24258308768956" lon="11.060595772412563"><ele>432.33333333333337</ele><time>2026-03-28T15:08:08Z</time></trkpt><trkpt lat="44.242665654591534" lon="11.060633161908981"><ele>435.6666666666667</ele><time>2026-03-28T15:08:09Z</time></trkpt><trkpt lat="44.24274995558838" lon="11.060655543611757"><ele>439.0</ele><time>2026-03-28T15:08:10Z</time></trkpt><trkpt lat="44.24282389398935" lon="11.060616362839504"><ele>439.00000000000006</ele><time>2026-03-28T15:08:11Z</time></trkpt><trkpt lat="44.24288725180545" lon="11.060604552900415"><ele>439.0</ele><time>2026-03-28T15:08:12Z</time></trkpt><trkpt lat="44.242954912165985" lon="11.060614311581688"><ele>439.0</ele><time>2026-03-28T15:08:13Z</time></trkpt><trkpt lat="44.2430214202932" lon="11.0606651840154"><ele>439.0</ele><time>2026-03-28T15:08:14Z</time></trkpt><trkpt lat="44.24310103561127" lon="11.060681592838026"><ele>439.00000000000006</ele><time>2026-03-28T15:08:15Z</time></trkpt><trkpt lat="44.24318296893884" lon="11.06063741414547"><ele>439.0</ele><time>2026-03-28T15:08:16Z</time></trkpt><trkpt lat="44.24326328482037" lon="11.060589419342003"><ele>439.83333333333337</ele><time>2026-03-28T15:08:17Z</time></trkpt><trkpt lat="44.24334251582887" lon="11.060535803821155"><ele>440.6666666666667</ele><time>2026-03-28T15:08:18Z</time></trkpt><trkpt lat="44.24341651299289" lon="11.060474694183352"><ele>441.5</ele><time>2026-03-28T15:08:19Z</time></trkpt><trkpt lat="44.243491336153" lon="11.060413150950199"><ele>442.33333333333337</ele><time>2026-03-28T15:08:20Z</time></trkpt><trkpt lat="44.24356741049697" lon="11.060350561767404"><ele>443.1666666666667</ele><time>2026-03-28T15:08:21Z</time></trkpt><trkpt lat="44.24364996167996" lon="11.06028758049886"><ele>444.0</ele><time>2026-03-28T15:08:22Z</time></trkpt><trkpt lat="44.24373202174794" lon="11.06023209492716"><ele>444.0</ele><time>2026-03-28T15:08:23Z</time></trkpt><trkpt lat="44.24380074108283" lon="11.06017971170919"><ele>444.0</ele><time>2026-03-28T15:08:24Z</time></trkpt><trkpt lat="44.243866744862586" lon="11.060117498842025"><ele>444.0</ele><time>2026-03-28T15:08:25Z</time></trkpt><trkpt lat="44.24392594394132" lon="11.060033040094076"><ele>444.0</ele><time>2026-03-28T15:08:26Z</time></trkpt><trkpt lat="44.243982652482345" lon="11.059939805244214"><ele>444.0</ele><time>2026-03-28T15:08:27Z</time></trkpt><trkpt lat="44.244044681314726" lon="11.059864365923643"><ele>444.0</ele><time>2026-03-28T15:08:28Z</time></trkpt><trkpt lat="44.244107117178466" lon="11.059818562984724"><ele>446.3333333333333</ele><time>2026-03-28T15:08:29Z</time></trkpt><trkpt lat="44.24416761513673" lon="11.05977910064233"><ele>448.66666666666663</ele><time>2026-03-28T15:08:30Z</time></trkpt><trkpt lat="44.24426090617591" lon="11.059696612851141"><ele>451.0</ele><time>2026-03-28T15:08:32Z</time></trkpt><trkpt lat="44.24432763088579" lon="11.05963364516312"><ele>453.3333333333333</ele><time>2026-03-28T15:08:34Z</time></trkpt><trkpt lat="44.24437832062475" lon="11.059576461134014"><ele>455.66666666666663</ele><time>2026-03-28T15:08:38Z</time></trkpt><trkpt lat="44.244453130957666" lon="11.059585293344009"><ele>458.0</ele><time>2026-03-28T15:09:02.001Z</time></trkpt><trkpt lat="44.2443897119357" lon="11.059576729660478"><ele>457.99999999999994</ele><time>2026-03-28T15:10:17Z</time></trkpt><trkpt lat="44.24429928671471" lon="11.05965498296617"><ele>458.0</ele><time>2026-03-28T15:10:46.001Z</time></trkpt><trkpt lat="44.244229110752784" lon="11.059708320570735"><ele>458.0</ele><time>2026-03-28T15:10:49.001Z</time></trkpt><trkpt lat="44.24430138362459" lon="11.059643482667699"><ele>458.0</ele><time>2026-03-28T15:11:09.001Z</time></trkpt><trkpt lat="44.244367359855104" lon="11.059594730330426"><ele>457.99999999999994</ele><time>2026-03-28T15:19:06Z</time></trkpt><trkpt lat="44.24444064192963" lon="11.05957983315169"><ele>458.0</ele><time>2026-03-28T15:19:19Z</time></trkpt><trkpt lat="44.244503020757655" lon="11.059534688806979"><ele>458.0</ele><time>2026-03-28T15:19:29Z</time></trkpt><trkpt lat="44.244490555595775" lon="11.059448099012409"><ele>458.0</ele><time>2026-03-28T15:23:27Z</time></trkpt><trkpt lat="44.24456436070032" lon="11.059434880998399"><ele>458.0</ele><time>2026-03-28T15:23:31Z</time></trkpt><trkpt lat="44.24461425460757" lon="11.059380138283986"><ele>458.0</ele><time>2026-03-28T15:23:41Z</time></trkpt><trkpt lat="44.24468445421867" lon="11.059360080414496"><ele>458.0</ele><time>2026-03-28T15:23:48Z</time></trkpt><trkpt lat="44.24468208201366" lon="11.059269010281538"><ele>458.0</ele><time>2026-03-28T15:23:52Z</time></trkpt><trkpt lat="44.244735285991474" lon="11.05922094276071"><ele>458.0</ele><time>2026-03-28T15:24:00Z</time></trkpt><trkpt lat="44.24479692086965" lon="11.05926828039738"><ele>458.0</ele><time>2026-03-28T15:24:04Z</time></trkpt><trkpt lat="44.24482359818707" lon="11.059174828104686"><ele>458.0</ele><time>2026-03-28T15:24:09Z</time></trkpt><trkpt lat="44.24477247700036" lon="11.059107457669905"><ele>458.0</ele><time>2026-03-28T15:24:13Z</time></trkpt><trkpt lat="44.244712173889674" lon="11.059139951309552"><ele>458.0</ele><time>2026-03-28T15:24:19Z</time></trkpt><trkpt lat="44.244645912693386" lon="11.059133781934236"><ele>458.0</ele><time>2026-03-28T15:24:27Z</time></trkpt><trkpt lat="44.24457376065283" lon="11.059124269791054"><ele>458.0</ele><time>2026-03-28T15:24:34Z</time></trkpt><trkpt lat="44.24450740153623" lon="11.059123662280474"><ele>458.0</ele><time>2026-03-28T15:24:44Z</time></trkpt><trkpt lat="44.244457357536625" lon="11.059065101279796"><ele>460.2857142857143</ele><time>2026-03-28T15:24:52Z</time></trkpt><trkpt lat="44.24448327090269" lon="11.05898412354868"><ele>462.57142857142856</ele><time>2026-03-28T15:24:57Z</time></trkpt><trkpt lat="44.24456251576724" lon="11.058978427694148"><ele>464.85714285714283</ele><time>2026-03-28T15:25:05Z</time></trkpt><trkpt lat="44.24463226268281" lon="11.058933417206013"><ele>467.1428571428571</ele><time>2026-03-28T15:25:13Z</time></trkpt><trkpt lat="44.24469885164089" lon="11.058885640158602"><ele>469.42857142857144</ele><time>2026-03-28T15:25:22Z</time></trkpt><trkpt lat="44.24476488298073" lon="11.058845893732041"><ele>471.71428571428567</ele><time>2026-03-28T15:25:30Z</time></trkpt><trkpt lat="44.244806635500645" lon="11.058773004072394"><ele>473.99999999999994</ele><time>2026-03-28T15:25:36Z</time></trkpt><trkpt lat="44.244852105147004" lon="11.05869762623085"><ele>473.99999999999994</ele><time>2026-03-28T15:25:43Z</time></trkpt><trkpt lat="44.24488563121728" lon="11.058615365749219"><ele>474.0</ele><time>2026-03-28T15:25:51Z</time></trkpt><trkpt lat="44.24492678175116" lon="11.058542775762051"><ele>473.99999999999994</ele><time>2026-03-28T15:25:57Z</time></trkpt><trkpt lat="44.24497692061887" lon="11.058482579405682"><ele>473.99999999999994</ele><time>2026-03-28T15:26:05Z</time></trkpt><trkpt lat="44.245047649917566" lon="11.058480865927445"><ele>474.0</ele><time>2026-03-28T15:26:10Z</time></trkpt><trkpt lat="44.245096390586504" lon="11.058416140628838"><ele>473.99999999999994</ele><time>2026-03-28T15:26:16Z</time></trkpt><trkpt lat="44.24514859651199" lon="11.058342021796083"><ele>473.99999999999994</ele><time>2026-03-28T15:26:26Z</time></trkpt><trkpt lat="44.24521395408446" lon="11.058319968578484"><ele>473.99999999999994</ele><time>2026-03-28T15:26:34Z</time></trkpt><trkpt lat="44.245276069192236" lon="11.058288227174183"><ele>474.0</ele><time>2026-03-28T15:26:43Z</time></trkpt><trkpt lat="44.24533360333756" lon="11.058240484060383"><ele>473.99999999999994</ele><time>2026-03-28T15:26:51Z</time></trkpt><trkpt lat="44.24539531097543" lon="11.058219058442672"><ele>473.99999999999994</ele><time>2026-03-28T15:26:58Z</time></trkpt><trkpt lat="44.24544174375324" lon="11.058154703809427"><ele>474.0</ele><time>2026-03-28T15:27:06Z</time></trkpt><trkpt lat="44.24549753332436" lon="11.0581020063287"><ele>473.99999999999994</ele><time>2026-03-28T15:27:13Z</time></trkpt><trkpt lat="44.24555892804571" lon="11.058054178141752"><ele>473.99999999999994</ele><time>2026-03-28T15:27:22Z</time></trkpt><trkpt lat="44.245621647165436" lon="11.058028746909345"><ele>478.42857142857133</ele><time>2026-03-28T15:27:30Z</time></trkpt><trkpt lat="44.2456890796491" lon="11.058002448397973"><ele>482.85714285714283</ele><time>2026-03-28T15:27:45Z</time></trkpt><trkpt lat="44.245765182609304" lon="11.05800862491789"><ele>487.2857142857142</ele><time>2026-03-28T15:27:56Z</time></trkpt><trkpt lat="44.24584034283521" lon="11.057968136368478"><ele>491.71428571428567</ele><time>2026-03-28T15:28:05Z</time></trkpt><trkpt lat="44.24590079421259" lon="11.05801762700245"><ele>496.1428571428571</ele><time>2026-03-28T15:28:12Z</time></trkpt><trkpt lat="44.245973523150845" lon="11.058034001118688"><ele>500.57142857142856</ele><time>2026-03-28T15:28:22Z</time></trkpt><trkpt lat="44.246038326675" lon="11.05803937134322"><ele>505.0</ele><time>2026-03-28T15:28:33Z</time></trkpt><trkpt lat="44.24608081746579" lon="11.058112239621078"><ele>505.0</ele><time>2026-03-28T15:28:40Z</time></trkpt><trkpt lat="44.246057485823314" lon="11.058207732676047"><ele>504.99999999999994</ele><time>2026-03-28T15:28:47Z</time></trkpt><trkpt lat="44.24603031384341" lon="11.058294132981755"><ele>505.0</ele><time>2026-03-28T15:28:54Z</time></trkpt><trkpt lat="44.24599747277741" lon="11.058381601966037"><ele>505.0</ele><time>2026-03-28T15:29:02Z</time></trkpt><trkpt lat="44.245959681782374" lon="11.05846153271164"><ele>504.99999999999994</ele><time>2026-03-28T15:29:10Z</time></trkpt><trkpt lat="44.245941514521846" lon="11.058549238624856"><ele>505.0</ele><time>2026-03-28T15:29:18Z</time></trkpt><trkpt lat="44.245939345696726" lon="11.058653084984828"><ele>505.0</ele><time>2026-03-28T15:29:25Z</time></trkpt><trkpt lat="44.24596257852055" lon="11.058748579358788"><ele>501.4285714285714</ele><time>2026-03-28T15:29:33Z</time></trkpt><trkpt lat="44.24597551852661" lon="11.058836553665897"><ele>497.8571428571428</ele><time>2026-03-28T15:29:41Z</time></trkpt><trkpt lat="44.24598234451157" lon="11.058930653424895"><ele>494.2857142857143</ele><time>2026-03-28T15:29:48Z</time></trkpt><trkpt lat="44.246021676572475" lon="11.05899981665406"><ele>490.71428571428567</ele><time>2026-03-28T15:29:55Z</time></trkpt><trkpt lat="44.246070940649965" lon="11.058934401076023"><ele>487.1428571428571</ele><time>2026-03-28T15:30:04Z</time></trkpt><trkpt lat="44.2460839786096" lon="11.058840470992056"><ele>483.57142857142856</ele><time>2026-03-28T15:30:11Z</time></trkpt><trkpt lat="44.24607891117562" lon="11.058741072792843"><ele>480.0</ele><time>2026-03-28T15:30:17Z</time></trkpt><trkpt lat="44.24611987980268" lon="11.058672582533065"><ele>480.0</ele><time>2026-03-28T15:30:24.999Z</time></trkpt><trkpt lat="44.24616538082315" lon="11.058589844823079"><ele>480.0</ele><time>2026-03-28T15:30:30.999Z</time></trkpt><trkpt lat="44.246226289399054" lon="11.058535595354073"><ele>480.0</ele><time>2026-03-28T15:30:38Z</time></trkpt><trkpt lat="44.246285233273056" lon="11.058491716622692"><ele>480.0</ele><time>2026-03-28T15:30:45Z</time></trkpt><trkpt lat="44.24634439613625" lon="11.05845674593416"><ele>480.0</ele><time>2026-03-28T15:30:51Z</time></trkpt><trkpt lat="44.24640477162778" lon="11.058407882010801"><ele>480.0</ele><time>2026-03-28T15:30:59Z</time></trkpt><trkpt lat="44.246461964352974" lon="11.058370033520248"><ele>480.0</ele><time>2026-03-28T15:31:06Z</time></trkpt><trkpt lat="44.24652745911951" lon="11.058341676815077"><ele>484.42857142857144</ele><time>2026-03-28T15:31:16Z</time></trkpt><trkpt lat="44.24658822003363" lon="11.058291972879701"><ele>488.85714285714283</ele><time>2026-03-28T15:31:23Z</time></trkpt><trkpt lat="44.24664414477475" lon="11.058244026951753"><ele>493.2857142857143</ele><time>2026-03-28T15:31:29Z</time></trkpt><trkpt lat="44.24669211821037" lon="11.058183782495815"><ele>497.7142857142857</ele><time>2026-03-28T15:31:39Z</time></trkpt><trkpt lat="44.246695636593635" lon="11.05808468431655"><ele>502.1428571428571</ele><time>2026-03-28T15:31:48Z</time></trkpt><trkpt lat="44.24675334078184" lon="11.058038138783346"><ele>506.57142857142856</ele><time>2026-03-28T15:31:56Z</time></trkpt><trkpt lat="44.24678993367104" lon="11.058110189123079"><ele>511.0</ele><time>2026-03-28T15:32:06Z</time></trkpt><trkpt lat="44.24682465744125" lon="11.058186979322347"><ele>511.0</ele><time>2026-03-28T15:32:15Z</time></trkpt><trkpt lat="44.24679101729673" lon="11.058271132074266"><ele>511.0</ele><time>2026-03-28T15:32:25Z</time></trkpt><trkpt lat="44.24675823681274" lon="11.05834872803552"><ele>511.0</ele><time>2026-03-28T15:32:33Z</time></trkpt><trkpt lat="44.2467131944096" lon="11.058415560589774"><ele>511.0</ele><time>2026-03-28T15:32:39Z</time></trkpt><trkpt lat="44.24668845232766" lon="11.058503553661579"><ele>511.0</ele><time>2026-03-28T15:32:46Z</time></trkpt><trkpt lat="44.246655683209354" lon="11.058585542147524"><ele>511.0</ele><time>2026-03-28T15:32:53Z</time></trkpt><trkpt lat="44.24661185985868" lon="11.05865314141828"><ele>511.0</ele><time>2026-03-28T15:32:59Z</time></trkpt><trkpt lat="44.24664732035382" lon="11.058733847716093"><ele>511.0</ele><time>2026-03-28T15:33:09Z</time></trkpt><trkpt lat="44.24670727266636" lon="11.058762433508887"><ele>511.0</ele><time>2026-03-28T15:33:19Z</time></trkpt><trkpt lat="44.2467684641082" lon="11.05880089239921"><ele>511.0</ele><time>2026-03-28T15:33:31Z</time></trkpt><trkpt lat="44.246840025299306" lon="11.058811041518254"><ele>511.0</ele><time>2026-03-28T15:33:41Z</time></trkpt><trkpt lat="44.246905745434624" lon="11.058809525526538"><ele>511.0</ele><time>2026-03-28T15:33:58Z</time></trkpt><trkpt lat="44.24696538870175" lon="11.05884381402239"><ele>511.0</ele><time>2026-03-28T15:34:07Z</time></trkpt><trkpt lat="44.24702953042932" lon="11.058837471532994"><ele>511.0</ele><time>2026-03-28T15:34:17Z</time></trkpt><trkpt lat="44.24709850578213" lon="11.058816802179495"><ele>511.0</ele><time>2026-03-28T15:34:31Z</time></trkpt><trkpt lat="44.24716008892595" lon="11.05874002024186"><ele>511.0</ele><time>2026-03-28T15:34:44Z</time></trkpt><trkpt lat="44.247206618353616" lon="11.0586662799539"><ele>511.0</ele><time>2026-03-28T15:35:03Z</time></trkpt><trkpt lat="44.24722150653437" lon="11.05857553769358"><ele>511.0</ele><time>2026-03-28T15:35:11Z</time></trkpt><trkpt lat="44.247281729921234" lon="11.058515141127664"><ele>511.0</ele><time>2026-03-28T15:35:26Z</time></trkpt><trkpt lat="44.247312804781366" lon="11.058419287199301"><ele>511.0</ele><time>2026-03-28T15:35:34Z</time></trkpt><trkpt lat="44.24735036744403" lon="11.058338417478383"><ele>511.0</ele><time>2026-03-28T15:35:56Z</time></trkpt><trkpt lat="44.24738611668644" lon="11.058264706865403"><ele>518.0</ele><time>2026-03-28T15:36:26Z</time></trkpt><trkpt lat="44.247440982276146" lon="11.058215181050995"><ele>525.0</ele><time>2026-03-28T15:36:37Z</time></trkpt><trkpt lat="44.247481181804766" lon="11.058134934292566"><ele>532.0</ele><time>2026-03-28T15:36:46Z</time></trkpt><trkpt lat="44.24749628541953" lon="11.05803882582372"><ele>539.0</ele><time>2026-03-28T15:36:55Z</time></trkpt><trkpt lat="44.24746429648646" lon="11.057946335087808"><ele>546.0</ele><time>2026-03-28T15:37:01Z</time></trkpt><trkpt lat="44.2475015304436" lon="11.05787341984666"><ele>553.0</ele><time>2026-03-28T15:37:13Z</time></trkpt><trkpt lat="44.247487796124425" lon="11.057768162132449"><ele>560.0</ele><time>2026-03-28T15:37:25Z</time></trkpt><trkpt lat="44.24746171428225" lon="11.057668632541544"><ele>560.0</ele><time>2026-03-28T15:37:38Z</time></trkpt><trkpt lat="44.247462143138634" lon="11.05756624284507"><ele>560.0</ele><time>2026-03-28T15:37:45Z</time></trkpt><trkpt lat="44.24744237815979" lon="11.057472347495331"><ele>560.0</ele><time>2026-03-28T15:37:55Z</time></trkpt><trkpt lat="44.24744647449969" lon="11.057366586813556"><ele>560.0</ele><time>2026-03-28T15:38:09Z</time></trkpt><trkpt lat="44.247486376464416" lon="11.057291825856758"><ele>560.0</ele><time>2026-03-28T15:38:19Z</time></trkpt><trkpt lat="44.24753716039855" lon="11.057216227482646"><ele>560.0</ele><time>2026-03-28T15:38:32Z</time></trkpt><trkpt lat="44.24756356246173" lon="11.057128664798373"><ele>560.0</ele><time>2026-03-28T15:38:40Z</time></trkpt><trkpt lat="44.247542073441195" lon="11.057041152969711"><ele>563.5714285714286</ele><time>2026-03-28T15:38:49Z</time></trkpt><trkpt lat="44.24752758249491" lon="11.056947829109374"><ele>567.1428571428571</ele><time>2026-03-28T15:38:59Z</time></trkpt><trkpt lat="44.247555601196545" lon="11.056867309047657"><ele>570.7142857142858</ele><time>2026-03-28T15:39:07Z</time></trkpt><trkpt lat="44.24761638112423" lon="11.05692455797189"><ele>574.2857142857142</ele><time>2026-03-28T15:39:22Z</time></trkpt><trkpt lat="44.24768444738658" lon="11.05693321069279"><ele>577.8571428571429</ele><time>2026-03-28T15:39:32Z</time></trkpt><trkpt lat="44.24774437826958" lon="11.056897764752842"><ele>581.4285714285714</ele><time>2026-03-28T15:39:46Z</time></trkpt><trkpt lat="44.247799534303944" lon="11.056844005238656"><ele>585.0</ele><time>2026-03-28T15:39:53Z</time></trkpt><trkpt lat="44.24785565396183" lon="11.05680015607087"><ele>585.0</ele><time>2026-03-28T15:40:01Z</time></trkpt><trkpt lat="44.24790992806453" lon="11.056748308549604"><ele>585.0</ele><time>2026-03-28T15:40:15Z</time></trkpt><trkpt lat="44.247923156878734" lon="11.056660322643605"><ele>585.0</ele><time>2026-03-28T15:40:50Z</time></trkpt><trkpt lat="44.24790265667089" lon="11.056576369948932"><ele>585.0</ele><time>2026-03-28T15:40:58Z</time></trkpt><trkpt lat="44.247863329859335" lon="11.056490024947303"><ele>585.0</ele><time>2026-03-28T15:41:08Z</time></trkpt><trkpt lat="44.24777933456003" lon="11.056445223527504"><ele>585.0</ele><time>2026-03-28T15:41:37Z</time></trkpt><trkpt lat="44.2478154171168" lon="11.056358020725305"><ele>585.0</ele><time>2026-03-28T15:41:43Z</time></trkpt><trkpt lat="44.24775993229604" lon="11.056303386499453"><ele>589.0</ele><time>2026-03-28T15:41:52Z</time></trkpt><trkpt lat="44.24771633441813" lon="11.056223351505327"><ele>593.0</ele><time>2026-03-28T15:42:14Z</time></trkpt><trkpt lat="44.24766810244514" lon="11.056149290437398"><ele>597.0</ele><time>2026-03-28T15:42:23Z</time></trkpt><trkpt lat="44.24762301363785" lon="11.056085147253413"><ele>601.0</ele><time>2026-03-28T15:42:29Z</time></trkpt><trkpt lat="44.24754851029857" lon="11.056065927825829"><ele>605.0</ele><time>2026-03-28T15:42:35Z</time></trkpt><trkpt lat="44.24748060291897" lon="11.056034000404805"><ele>609.0</ele><time>2026-03-28T15:42:43Z</time></trkpt><trkpt lat="44.24741860543521" lon="11.056059301672454"><ele>613.0</ele><time>2026-03-28T15:42:50Z</time></trkpt><trkpt lat="44.24735126811039" lon="11.056090542526077"><ele>614.4285714285714</ele><time>2026-03-28T15:42:59Z</time></trkpt><trkpt lat="44.247288077556796" lon="11.05610222716902"><ele>615.8571428571429</ele><time>2026-03-28T15:43:07Z</time></trkpt><trkpt lat="44.247282759550814" lon="11.056014443324374"><ele>617.2857142857142</ele><time>2026-03-28T15:43:19Z</time></trkpt><trkpt lat="44.2472095212213" lon="11.056011971364322"><ele>618.7142857142858</ele><time>2026-03-28T15:43:24Z</time></trkpt><trkpt lat="44.24714842968598" lon="11.056039471126747"><ele>620.1428571428571</ele><time>2026-03-28T15:43:31Z</time></trkpt><trkpt lat="44.2471360155477" lon="11.056136727380583"><ele>621.5714285714286</ele><time>2026-03-28T15:43:37Z</time></trkpt><trkpt lat="44.24709544077537" lon="11.05620532041013"><ele>623.0</ele><time>2026-03-28T15:43:42Z</time></trkpt><trkpt lat="44.24703427304483" lon="11.056257131042182"><ele>623.0</ele><time>2026-03-28T15:43:52Z</time></trkpt><trkpt lat="44.246968877704845" lon="11.056190648424748"><ele>623.0</ele><time>2026-03-28T15:44:09Z</time></trkpt><trkpt lat="44.24694484714487" lon="11.056073018611327"><ele>623.0</ele><time>2026-03-28T15:44:31Z</time></trkpt><trkpt lat="44.24687752456555" lon="11.056040998360727"><ele>623.0</ele><time>2026-03-28T15:44:38Z</time></trkpt><trkpt lat="44.246810565913535" lon="11.056017955591571"><ele>623.0</ele><time>2026-03-28T15:44:44Z</time></trkpt><trkpt lat="44.246754633539716" lon="11.055968180683266"><ele>623.0</ele><time>2026-03-28T15:44:54Z</time></trkpt><trkpt lat="44.24671113368704" lon="11.055900166497395"><ele>623.0</ele><time>2026-03-28T15:45:03Z</time></trkpt><trkpt lat="44.24666160871405" lon="11.055832774538354"><ele>623.0</ele><time>2026-03-28T15:45:11Z</time></trkpt><trkpt lat="44.24659711669588" lon="11.055814621495262"><ele>623.0</ele><time>2026-03-28T15:45:16Z</time></trkpt><trkpt lat="44.24653904463407" lon="11.055779763252795"><ele>623.0</ele><time>2026-03-28T15:45:25Z</time></trkpt><trkpt lat="44.246511171854166" lon="11.055695875202055"><ele>623.0</ele><time>2026-03-28T15:45:37Z</time></trkpt><trkpt lat="44.246453159111645" lon="11.055655572255823"><ele>623.0</ele><time>2026-03-28T15:45:43Z</time></trkpt><trkpt lat="44.2463835090341" lon="11.05568363783291"><ele>623.0</ele><time>2026-03-28T15:45:53Z</time></trkpt><trkpt lat="44.24631872554879" lon="11.055680561636617"><ele>623.0</ele><time>2026-03-28T15:46:02Z</time></trkpt><trkpt lat="44.246248882598636" lon="11.055686857865807"><ele>624.0</ele><time>2026-03-28T15:46:10Z</time></trkpt><trkpt lat="44.24618187818017" lon="11.055705340230345"><ele>625.0</ele><time>2026-03-28T15:46:25Z</time></trkpt><trkpt lat="44.246144894926694" lon="11.055785856219124"><ele>626.0</ele><time>2026-03-28T15:46:32Z</time></trkpt><trkpt lat="44.2460781990074" lon="11.055796598504529"><ele>627.0</ele><time>2026-03-28T15:46:38Z</time></trkpt><trkpt lat="44.24601195141367" lon="11.055780657908615"><ele>628.0</ele><time>2026-03-28T15:46:43Z</time></trkpt><trkpt lat="44.245940041904355" lon="11.055791169354386"><ele>629.0</ele><time>2026-03-28T15:47:14Z</time></trkpt><trkpt lat="44.245888216061395" lon="11.055713544734981"><ele>630.0</ele><time>2026-03-28T15:47:26Z</time></trkpt><trkpt lat="44.245823659821255" lon="11.055702000711682"><ele>633.4285714285714</ele><time>2026-03-28T15:47:33Z</time></trkpt><trkpt lat="44.24577964034847" lon="11.055779558081118"><ele>636.8571428571429</ele><time>2026-03-28T15:47:49Z</time></trkpt><trkpt lat="44.24571772278971" lon="11.055749037149683"><ele>640.2857142857142</ele><time>2026-03-28T15:47:55Z</time></trkpt><trkpt lat="44.24565040306492" lon="11.055727583452693"><ele>643.7142857142858</ele><time>2026-03-28T15:48:01Z</time></trkpt><trkpt lat="44.24558379807452" lon="11.055694348063064"><ele>647.1428571428571</ele><time>2026-03-28T15:48:10Z</time></trkpt><trkpt lat="44.24549415480518" lon="11.055704342766854"><ele>650.5714285714286</ele><time>2026-03-28T15:48:30Z</time></trkpt><trkpt lat="44.245428339826475" lon="11.055724080801953"><ele>654.0</ele><time>2026-03-28T15:48:38Z</time></trkpt><trkpt lat="44.24536646597451" lon="11.055751811188893"><ele>655.1428571428571</ele><time>2026-03-28T15:48:47Z</time></trkpt><trkpt lat="44.24530089715953" lon="11.055751691437422"><ele>656.2857142857143</ele><time>2026-03-28T15:48:52Z</time></trkpt><trkpt lat="44.245235783921565" lon="11.055726964099186"><ele>657.4285714285714</ele><time>2026-03-28T15:48:59Z</time></trkpt><trkpt lat="44.24516800706292" lon="11.055705853785993"><ele>658.5714285714286</ele><time>2026-03-28T15:49:05Z</time></trkpt><trkpt lat="44.245101429959966" lon="11.055696310820522"><ele>659.7142857142857</ele><time>2026-03-28T15:49:14Z</time></trkpt><trkpt lat="44.24505029570703" lon="11.055617211473551"><ele>660.8571428571429</ele><time>2026-03-28T15:49:23Z</time></trkpt><trkpt lat="44.24498078179305" lon="11.055623805001801"><ele>662.0</ele><time>2026-03-28T15:49:30Z</time></trkpt><trkpt lat="44.244936701495554" lon="11.055555263479004"><ele>662.0</ele><time>2026-03-28T15:49:39Z</time></trkpt><trkpt lat="44.24488498797183" lon="11.055499458801881"><ele>662.0</ele><time>2026-03-28T15:49:47Z</time></trkpt><trkpt lat="44.24481347701587" lon="11.0554526101201"><ele>662.0</ele><time>2026-03-28T15:49:56Z</time></trkpt><trkpt lat="44.24474957465033" lon="11.055437801245667"><ele>662.0</ele><time>2026-03-28T15:50:02Z</time></trkpt><trkpt lat="44.24467926200293" lon="11.055488729749094"><ele>662.0</ele><time>2026-03-28T15:50:11Z</time></trkpt><trkpt lat="44.24460636938738" lon="11.055464143394282"><ele>662.0</ele><time>2026-03-28T15:50:19Z</time></trkpt><trkpt lat="44.244551997186285" lon="11.055411722545706"><ele>662.0</ele><time>2026-03-28T15:50:29Z</time></trkpt><trkpt lat="44.24450066185074" lon="11.055345457725368"><ele>658.4285714285714</ele><time>2026-03-28T15:50:39Z</time></trkpt><trkpt lat="44.24442497278558" lon="11.05533620796545"><ele>654.8571428571429</ele><time>2026-03-28T15:50:46Z</time></trkpt><trkpt lat="44.244360900562064" lon="11.055327330634782"><ele>651.2857142857142</ele><time>2026-03-28T15:50:52Z</time></trkpt><trkpt lat="44.24431480611373" lon="11.055259220598861"><ele>647.7142857142858</ele><time>2026-03-28T15:51:02Z</time></trkpt><trkpt lat="44.24424004487786" lon="11.055228164798832"><ele>644.1428571428571</ele><time>2026-03-28T15:51:10Z</time></trkpt><trkpt lat="44.24417788436304" lon="11.055166144179479"><ele>640.5714285714286</ele><time>2026-03-28T15:51:22Z</time></trkpt><trkpt lat="44.24412519196208" lon="11.05510185515875"><ele>637.0</ele><time>2026-03-28T15:51:32Z</time></trkpt><trkpt lat="44.2440802251473" lon="11.055030091322703"><ele>638.4285714285714</ele><time>2026-03-28T15:51:39Z</time></trkpt><trkpt lat="44.24403363597706" lon="11.054950968297259"><ele>639.8571428571429</ele><time>2026-03-28T15:51:48Z</time></trkpt><trkpt lat="44.243978741494814" lon="11.054905749038543"><ele>641.2857142857142</ele><time>2026-03-28T15:51:52Z</time></trkpt><trkpt lat="44.24395927535394" lon="11.054814405274692"><ele>642.7142857142858</ele><time>2026-03-28T15:52:01Z</time></trkpt><trkpt lat="44.24395331357983" lon="11.05470126873344"><ele>644.1428571428571</ele><time>2026-03-28T15:52:09Z</time></trkpt><trkpt lat="44.243954099886416" lon="11.054599158472383"><ele>645.5714285714286</ele><time>2026-03-28T15:52:16Z</time></trkpt><trkpt lat="44.243971292817996" lon="11.05451093201304"><ele>647.0</ele><time>2026-03-28T15:52:26Z</time></trkpt><trkpt lat="44.243878000969424" lon="11.05444071758178"><ele>588.0</ele><time>2026-03-28T15:53:48Z</time></trkpt></trkseg><trkseg><trkpt lat="44.27125980991582" lon="11.111333023765145"><ele>195.99999999999997</ele><time>2026-03-28T17:22:07Z</time></trkpt><trkpt lat="44.271162372043094" lon="11.11138337953095"><ele>196.0</ele><time>2026-03-28T17:22:09Z</time></trkpt><trkpt lat="44.27107673107217" lon="11.111361221696034"><ele>196.0</ele><time>2026-03-28T17:22:11Z</time></trkpt><trkpt lat="44.27101795321909" lon="11.111285351053262"><ele>196.0</ele><time>2026-03-28T17:22:14Z</time></trkpt><trkpt lat="44.271009491798516" lon="11.111395649915934"><ele>195.99999999999997</ele><time>2026-03-28T17:22:15Z</time></trkpt><trkpt lat="44.27099916876375" lon="11.111499797231184"><ele>196.0</ele><time>2026-03-28T17:23:00Z</time></trkpt><trkpt lat="44.27107753875048" lon="11.111521911861995"><ele>196.0</ele><time>2026-03-28T17:23:02Z</time></trkpt><trkpt lat="44.27123671569794" lon="11.11159423610564"><ele>196.0</ele><time>2026-03-28T17:23:03Z</time></trkpt><trkpt lat="44.27139967309666" lon="11.1116252605101"><ele>196.0</ele><time>2026-03-28T17:23:04Z</time></trkpt><trkpt lat="44.27159729486494" lon="11.111674026326607"><ele>196.0</ele><time>2026-03-28T17:23:05Z</time></trkpt><trkpt lat="44.27181206831924" lon="11.111716639940916"><ele>196.0</ele><time>2026-03-28T17:23:06Z</time></trkpt><trkpt lat="44.27207615247465" lon="11.111782518359528"><ele>196.0</ele><time>2026-03-28T17:23:07Z</time></trkpt><trkpt lat="44.272385403257175" lon="11.111848519961368"><ele>196.0</ele><time>2026-03-28T17:23:08Z</time></trkpt><trkpt lat="44.27272442107347" lon="11.111920874539031"><ele>196.0</ele><time>2026-03-28T17:23:09Z</time></trkpt><trkpt lat="44.27308042056708" lon="11.111947571467834"><ele>196.0</ele><time>2026-03-28T17:23:10Z</time></trkpt><trkpt lat="44.27342884935275" lon="11.112037762033074"><ele>195.5</ele><time>2026-03-28T17:23:11Z</time></trkpt><trkpt lat="44.273740947483795" lon="11.112123406350163"><ele>195.0</ele><time>2026-03-28T17:23:12Z</time></trkpt><trkpt lat="44.274032248392686" lon="11.112177990377125"><ele>194.5</ele><time>2026-03-28T17:23:13Z</time></trkpt><trkpt lat="44.27432341145924" lon="11.112214164936981"><ele>194.0</ele><time>2026-03-28T17:23:14Z</time></trkpt><trkpt lat="44.274625204668794" lon="11.112218665984614"><ele>194.5</ele><time>2026-03-28T17:23:15Z</time></trkpt><trkpt lat="44.274922432272525" lon="11.112199870356143"><ele>195.0</ele><time>2026-03-28T17:23:16Z</time></trkpt><trkpt lat="44.27519587497497" lon="11.112158492592389"><ele>195.0</ele><time>2026-03-28T17:23:17Z</time></trkpt><trkpt lat="44.275456051126476" lon="11.112101758387007"><ele>195.0</ele><time>2026-03-28T17:23:18Z</time></trkpt><trkpt lat="44.275703536681505" lon="11.112031043722798"><ele>194.5</ele><time>2026-03-28T17:23:19Z</time></trkpt><trkpt lat="44.275940711193826" lon="11.111946766286676"><ele>194.0</ele><time>2026-03-28T17:23:20Z</time></trkpt><trkpt lat="44.27617069297086" lon="11.111841102347583"><ele>194.0</ele><time>2026-03-28T17:23:21Z</time></trkpt><trkpt lat="44.27640502877826" lon="11.1117148247129"><ele>194.0</ele><time>2026-03-28T17:23:22Z</time></trkpt><trkpt lat="44.27666638294611" lon="11.111583223983928"><ele>194.0</ele><time>2026-03-28T17:23:23Z</time></trkpt><trkpt lat="44.276959768364925" lon="11.111422757579307"><ele>194.0</ele><time>2026-03-28T17:23:24Z</time></trkpt><trkpt lat="44.27725094382761" lon="11.111263539478692"><ele>193.5</ele><time>2026-03-28T17:23:25Z</time></trkpt><trkpt lat="44.27753161108926" lon="11.111109673758785"><ele>193.0</ele><time>2026-03-28T17:23:26Z</time></trkpt><trkpt lat="44.27779556069403" lon="11.110953721879914"><ele>193.0</ele><time>2026-03-28T17:23:27Z</time></trkpt><trkpt lat="44.278044360478" lon="11.110815232067438"><ele>193.0</ele><time>2026-03-28T17:23:28Z</time></trkpt><trkpt lat="44.278274878035006" lon="11.110684437502794"><ele>196.5</ele><time>2026-03-28T17:23:29Z</time></trkpt><trkpt lat="44.27849945771825" lon="11.110565613510635"><ele>200.0</ele><time>2026-03-28T17:23:30Z</time></trkpt><trkpt lat="44.27872207827162" lon="11.110475881495482"><ele>201.0</ele><time>2026-03-28T17:23:31Z</time></trkpt><trkpt lat="44.27894907863662" lon="11.110406924423547"><ele>202.0</ele><time>2026-03-28T17:23:32Z</time></trkpt><trkpt lat="44.279176972831245" lon="11.110341071107456"><ele>202.0</ele><time>2026-03-28T17:23:33Z</time></trkpt><trkpt lat="44.279403518301635" lon="11.110289800501182"><ele>202.0</ele><time>2026-03-28T17:23:34Z</time></trkpt><trkpt lat="44.279628588362016" lon="11.110258189597475"><ele>204.5</ele><time>2026-03-28T17:23:35Z</time></trkpt><trkpt lat="44.27985503956223" lon="11.110239671533927"><ele>207.0</ele><time>2026-03-28T17:23:36Z</time></trkpt><trkpt lat="44.28007794639899" lon="11.110220871256086"><ele>207.0</ele><time>2026-03-28T17:23:37Z</time></trkpt><trkpt lat="44.28029173232535" lon="11.110214975506823"><ele>207.0</ele><time>2026-03-28T17:23:38Z</time></trkpt><trkpt lat="44.280510113833316" lon="11.110237982816592"><ele>207.0</ele><time>2026-03-28T17:23:39Z</time></trkpt><trkpt lat="44.28073693393237" lon="11.110280125036725"><ele>207.66666666666669</ele><time>2026-03-28T17:23:40Z</time></trkpt><trkpt lat="44.280959923371924" lon="11.11032751059156"><ele>208.33333333333334</ele><time>2026-03-28T17:23:41Z</time></trkpt><trkpt lat="44.28116930217734" lon="11.110374148611902"><ele>209.0</ele><time>2026-03-28T17:23:42Z</time></trkpt><trkpt lat="44.281356453658816" lon="11.110407569412484"><ele>206.66666666666669</ele><time>2026-03-28T17:23:43Z</time></trkpt><trkpt lat="44.281528949616884" lon="11.110444071119177"><ele>204.33333333333331</ele><time>2026-03-28T17:23:44Z</time></trkpt><trkpt lat="44.28167817438835" lon="11.11047730063633"><ele>202.0</ele><time>2026-03-28T17:23:45Z</time></trkpt><trkpt lat="44.281812201300205" lon="11.110499758345071"><ele>202.0</ele><time>2026-03-28T17:23:46Z</time></trkpt><trkpt lat="44.28193315521062" lon="11.110520081552227"><ele>202.0</ele><time>2026-03-28T17:23:47Z</time></trkpt><trkpt lat="44.28204267673921" lon="11.110544121743068"><ele>202.0</ele><time>2026-03-28T17:23:48Z</time></trkpt><trkpt lat="44.282140458311225" lon="11.110586456950267"><ele>202.0</ele><time>2026-03-28T17:23:49Z</time></trkpt><trkpt lat="44.28225833505905" lon="11.110612095321907"><ele>201.2</ele><time>2026-03-28T17:23:50Z</time></trkpt><trkpt lat="44.28238090511891" lon="11.110621077661126"><ele>200.39999999999998</ele><time>2026-03-28T17:23:51Z</time></trkpt><trkpt lat="44.282481643369195" lon="11.110648409829091"><ele>199.60000000000002</ele><time>2026-03-28T17:23:52Z</time></trkpt><trkpt lat="44.282570787136834" lon="11.110673567669263"><ele>198.8</ele><time>2026-03-28T17:23:53Z</time></trkpt><trkpt lat="44.28266140307341" lon="11.110693904005153"><ele>198.0</ele><time>2026-03-28T17:23:54Z</time></trkpt><trkpt lat="44.282741521787166" lon="11.110711267111176"><ele>198.0</ele><time>2026-03-28T17:23:55Z</time></trkpt><trkpt lat="44.28281769773409" lon="11.110733984243808"><ele>198.0</ele><time>2026-03-28T17:23:56Z</time></trkpt><trkpt lat="44.28288657545697" lon="11.110756888199077"><ele>198.0</ele><time>2026-03-28T17:23:57Z</time></trkpt><trkpt lat="44.28295844136397" lon="11.11078927175191"><ele>198.0</ele><time>2026-03-28T17:23:58Z</time></trkpt><trkpt lat="44.28303151942036" lon="11.110836012783613"><ele>198.0</ele><time>2026-03-28T17:23:59Z</time></trkpt><trkpt lat="44.28310057974587" lon="11.110904753718497"><ele>198.0</ele><time>2026-03-28T17:24:00Z</time></trkpt><trkpt lat="44.2831757097137" lon="11.1109969812423"><ele>198.8</ele><time>2026-03-28T17:24:01Z</time></trkpt><trkpt lat="44.28324608665837" lon="11.11110913821752"><ele>199.60000000000002</ele><time>2026-03-28T17:24:02Z</time></trkpt><trkpt lat="44.28330252318365" lon="11.111228391802605"><ele>200.39999999999998</ele><time>2026-03-28T17:24:03Z</time></trkpt><trkpt lat="44.283343964527134" lon="11.111344382571918"><ele>201.2</ele><time>2026-03-28T17:24:04Z</time></trkpt><trkpt lat="44.28338570050679" lon="11.111450408357785"><ele>202.0</ele><time>2026-03-28T17:24:05Z</time></trkpt><trkpt lat="44.283444194544856" lon="11.111540488332622"><ele>201.75</ele><time>2026-03-28T17:24:06Z</time></trkpt><trkpt lat="44.283518892591644" lon="11.111648600678228"><ele>201.5</ele><time>2026-03-28T17:24:07Z</time></trkpt><trkpt lat="44.28363216124499" lon="11.111728164726854"><ele>201.25</ele><time>2026-03-28T17:24:08Z</time></trkpt><trkpt lat="44.283731592659144" lon="11.111762062773344"><ele>201.0</ele><time>2026-03-28T17:24:09Z</time></trkpt><trkpt lat="44.28386309537341" lon="11.111836873152049"><ele>202.0</ele><time>2026-03-28T17:24:10Z</time></trkpt><trkpt lat="44.28404284272274" lon="11.111930170334247"><ele>203.0</ele><time>2026-03-28T17:24:11Z</time></trkpt><trkpt lat="44.28419596814956" lon="11.112018691476461"><ele>204.0</ele><time>2026-03-28T17:24:12Z</time></trkpt><trkpt lat="44.284381899664545" lon="11.112120969009691"><ele>204.0</ele><time>2026-03-28T17:24:13Z</time></trkpt><trkpt lat="44.28454973516" lon="11.112222377037863"><ele>204.0</ele><time>2026-03-28T17:24:14Z</time></trkpt><trkpt lat="44.284706093268575" lon="11.112300893824004"><ele>204.0</ele><time>2026-03-28T17:24:15Z</time></trkpt><trkpt lat="44.28484777959765" lon="11.112365865429172"><ele>202.5</ele><time>2026-03-28T17:24:16Z</time></trkpt><trkpt lat="44.28497943381081" lon="11.112430818379746"><ele>201.0</ele><time>2026-03-28T17:24:17Z</time></trkpt><trkpt lat="44.285102160769355" lon="11.112493945165596"><ele>199.5</ele><time>2026-03-28T17:24:18Z</time></trkpt><trkpt lat="44.28522974093684" lon="11.112539029167138"><ele>198.0</ele><time>2026-03-28T17:24:19Z</time></trkpt><trkpt lat="44.2853804229972" lon="11.112579080447317"><ele>198.0</ele><time>2026-03-28T17:24:20Z</time></trkpt><trkpt lat="44.28553430737497" lon="11.112594311074053"><ele>198.0</ele><time>2026-03-28T17:24:21Z</time></trkpt><trkpt lat="44.28569008515758" lon="11.112592199398774"><ele>198.0</ele><time>2026-03-28T17:24:22Z</time></trkpt><trkpt lat="44.28584859592525" lon="11.112573269146463"><ele>198.0</ele><time>2026-03-28T17:24:23Z</time></trkpt><trkpt lat="44.28599027710801" lon="11.112541977831414"><ele>198.0</ele><time>2026-03-28T17:24:24Z</time></trkpt><trkpt lat="44.286110910134354" lon="11.112508870639047"><ele>198.0</ele><time>2026-03-28T17:24:25Z</time></trkpt><trkpt lat="44.28622917467409" lon="11.112476492590588"><ele>198.0</ele><time>2026-03-28T17:24:26Z</time></trkpt><trkpt lat="44.286390296201304" lon="11.112429331368409"><ele>201.0</ele><time>2026-03-28T17:24:27Z</time></trkpt><trkpt lat="44.28661537406923" lon="11.11239154712502"><ele>204.0</ele><time>2026-03-28T17:24:28Z</time></trkpt><trkpt lat="44.28687623121571" lon="11.11232985154373"><ele>204.0</ele><time>2026-03-28T17:24:29Z</time></trkpt><trkpt lat="44.287154380588206" lon="11.112257009664914"><ele>204.0</ele><time>2026-03-28T17:24:30Z</time></trkpt><trkpt lat="44.287379084198605" lon="11.11217413616921"><ele>203.0</ele><time>2026-03-28T17:24:31Z</time></trkpt><trkpt lat="44.28758470418877" lon="11.112122019189558"><ele>202.0</ele><time>2026-03-28T17:24:32Z</time></trkpt><trkpt lat="44.287763971726065" lon="11.112065538557674"><ele>201.0</ele><time>2026-03-28T17:24:33Z</time></trkpt><trkpt lat="44.28792202260944" lon="11.112028883504507"><ele>201.0</ele><time>2026-03-28T17:24:34Z</time></trkpt><trkpt lat="44.288062369621265" lon="11.11200045449077"><ele>201.0</ele><time>2026-03-28T17:24:35Z</time></trkpt><trkpt lat="44.2881948647654" lon="11.111990627750956"><ele>201.0</ele><time>2026-03-28T17:24:36Z</time></trkpt><trkpt lat="44.288318699870594" lon="11.112008384335152"><ele>201.0</ele><time>2026-03-28T17:24:37Z</time></trkpt><trkpt lat="44.28844193263945" lon="11.112063689563314"><ele>201.33333333333331</ele><time>2026-03-28T17:24:38Z</time></trkpt><trkpt lat="44.28857618888679" lon="11.112142858815291"><ele>201.66666666666666</ele><time>2026-03-28T17:24:38.999Z</time></trkpt><trkpt lat="44.28873075305413" lon="11.112232906857098"><ele>202.0</ele><time>2026-03-28T17:24:39.999Z</time></trkpt><trkpt lat="44.28888238477837" lon="11.11231524955816"><ele>202.75</ele><time>2026-03-28T17:24:40.999Z</time></trkpt><trkpt lat="44.289019301007365" lon="11.112376008757465"><ele>203.5</ele><time>2026-03-28T17:24:41.999Z</time></trkpt><trkpt lat="44.2891374327722" lon="11.112434472250463"><ele>204.25</ele><time>2026-03-28T17:24:42.999Z</time></trkpt><trkpt lat="44.28924882675669" lon="11.112522291267203"><ele>205.0</ele><time>2026-03-28T17:24:43.999Z</time></trkpt><trkpt lat="44.28934832208703" lon="11.11262803272994"><ele>203.25</ele><time>2026-03-28T17:24:44.999Z</time></trkpt><trkpt lat="44.289430195608546" lon="11.112773090974855"><ele>201.5</ele><time>2026-03-28T17:24:45.999Z</time></trkpt><trkpt lat="44.28949639951271" lon="11.11295318109557"><ele>199.75</ele><time>2026-03-28T17:24:46.999Z</time></trkpt><trkpt lat="44.289530641054675" lon="11.113145037220663"><ele>198.0</ele><time>2026-03-28T17:24:47.999Z</time></trkpt><trkpt lat="44.28955821617944" lon="11.113361225245166"><ele>196.0</ele><time>2026-03-28T17:24:48.999Z</time></trkpt><trkpt lat="44.289582315307456" lon="11.113579625230257"><ele>194.0</ele><time>2026-03-28T17:24:49.999Z</time></trkpt><trkpt lat="44.289611699218135" lon="11.113790613474526"><ele>192.0</ele><time>2026-03-28T17:24:50.999Z</time></trkpt><trkpt lat="44.28964422970714" lon="11.113987087354046"><ele>191.33333333333334</ele><time>2026-03-28T17:24:51.999Z</time></trkpt><trkpt lat="44.289705166424326" lon="11.114192235886318"><ele>190.66666666666669</ele><time>2026-03-28T17:24:52.999Z</time></trkpt><trkpt lat="44.289790579435525" lon="11.114373773169946"><ele>190.0</ele><time>2026-03-28T17:24:53.999Z</time></trkpt><trkpt lat="44.28988732857947" lon="11.114534900075279"><ele>193.0</ele><time>2026-03-28T17:24:54.999Z</time></trkpt><trkpt lat="44.290004717295936" lon="11.11467480025558"><ele>196.0</ele><time>2026-03-28T17:24:55.999Z</time></trkpt><trkpt lat="44.290138227979014" lon="11.11479022109781"><ele>199.0</ele><time>2026-03-28T17:24:56.999Z</time></trkpt><trkpt lat="44.29027358647512" lon="11.114894305106755"><ele>197.5</ele><time>2026-03-28T17:24:57.999Z</time></trkpt><trkpt lat="44.29040771165604" lon="11.114996975125008"><ele>196.0</ele><time>2026-03-28T17:24:58.999Z</time></trkpt><trkpt lat="44.29053102759315" lon="11.115083671453892"><ele>194.5</ele><time>2026-03-28T17:24:59.999Z</time></trkpt><trkpt lat="44.29064798200811" lon="11.115177545048423"><ele>193.0</ele><time>2026-03-28T17:25:01Z</time></trkpt><trkpt lat="44.290779593718256" lon="11.115285674545913"><ele>193.0</ele><time>2026-03-28T17:25:02Z</time></trkpt><trkpt lat="44.29091597482414" lon="11.115391033761604"><ele>193.0</ele><time>2026-03-28T17:25:03Z</time></trkpt><trkpt lat="44.291047126654746" lon="11.115496285140788"><ele>193.0</ele><time>2026-03-28T17:25:04Z</time></trkpt><trkpt lat="44.29118538060644" lon="11.115612165889969"><ele>192.33333333333331</ele><time>2026-03-28T17:25:05Z</time></trkpt><trkpt lat="44.29134431785294" lon="11.115771088872473"><ele>191.66666666666666</ele><time>2026-03-28T17:25:06Z</time></trkpt><trkpt lat="44.29152761013378" lon="11.115926848851942"><ele>191.0</ele><time>2026-03-28T17:25:07Z</time></trkpt><trkpt lat="44.291739932207825" lon="11.116103891382473"><ele>191.0</ele><time>2026-03-28T17:25:08Z</time></trkpt><trkpt lat="44.291914741913395" lon="11.116234225339003"><ele>191.0</ele><time>2026-03-28T17:25:09Z</time></trkpt><trkpt lat="44.29209435037285" lon="11.116345474999376"><ele>191.0</ele><time>2026-03-28T17:25:10Z</time></trkpt><trkpt lat="44.292300270489484" lon="11.1164104917337"><ele>190.5</ele><time>2026-03-28T17:25:11Z</time></trkpt><trkpt lat="44.2925536702527" lon="11.116405735465525"><ele>190.0</ele><time>2026-03-28T17:25:12Z</time></trkpt><trkpt lat="44.2927970903272" lon="11.116365943000961"><ele>190.0</ele><time>2026-03-28T17:25:13Z</time></trkpt><trkpt lat="44.29299520338502" lon="11.116315110447884"><ele>190.0</ele><time>2026-03-28T17:25:14Z</time></trkpt><trkpt lat="44.29318774753724" lon="11.11634798618206"><ele>190.0</ele><time>2026-03-28T17:25:15Z</time></trkpt><trkpt lat="44.293400065290896" lon="11.11641786867755"><ele>190.0</ele><time>2026-03-28T17:25:16Z</time></trkpt><trkpt lat="44.293633568055185" lon="11.116489578272137"><ele>190.0</ele><time>2026-03-28T17:25:17Z</time></trkpt><trkpt lat="44.293848666467724" lon="11.11658026987998"><ele>188.66666666666669</ele><time>2026-03-28T17:25:18Z</time></trkpt><trkpt lat="44.29403182035685" lon="11.11663306172457"><ele>187.33333333333334</ele><time>2026-03-28T17:25:19Z</time></trkpt><trkpt lat="44.29420734860047" lon="11.11663478495228"><ele>186.0</ele><time>2026-03-28T17:25:20Z</time></trkpt><trkpt lat="44.294389556124024" lon="11.116564721649222"><ele>188.66666666666669</ele><time>2026-03-28T17:25:21Z</time></trkpt><trkpt lat="44.29457588101054" lon="11.116445229411301"><ele>191.33333333333334</ele><time>2026-03-28T17:25:22Z</time></trkpt><trkpt lat="44.29474557479216" lon="11.11631105423441"><ele>194.0</ele><time>2026-03-28T17:25:23Z</time></trkpt><trkpt lat="44.29490526710065" lon="11.116227426284523"><ele>194.0</ele><time>2026-03-28T17:25:24Z</time></trkpt><trkpt lat="44.29506654216906" lon="11.116187321723741"><ele>194.0</ele><time>2026-03-28T17:25:25Z</time></trkpt><trkpt lat="44.29524578104844" lon="11.116226342306065"><ele>194.0</ele><time>2026-03-28T17:25:26Z</time></trkpt><trkpt lat="44.29543853070105" lon="11.116287412888136"><ele>192.66666666666669</ele><time>2026-03-28T17:25:27Z</time></trkpt><trkpt lat="44.2955992110688" lon="11.116368401608268"><ele>191.33333333333334</ele><time>2026-03-28T17:25:28Z</time></trkpt><trkpt lat="44.29570839950836" lon="11.11649609401588"><ele>190.0</ele><time>2026-03-28T17:25:29Z</time></trkpt><trkpt lat="44.29578488137585" lon="11.116671946137279"><ele>190.0</ele><time>2026-03-28T17:25:30Z</time></trkpt><trkpt lat="44.295867624407045" lon="11.116907537303264"><ele>190.0</ele><time>2026-03-28T17:25:31Z</time></trkpt><trkpt lat="44.295953167852595" lon="11.11716925358056"><ele>190.0</ele><time>2026-03-28T17:25:32Z</time></trkpt><trkpt lat="44.29601976365804" lon="11.117388898987253"><ele>190.66666666666669</ele><time>2026-03-28T17:25:33Z</time></trkpt><trkpt lat="44.29612177534083" lon="11.117539362033371"><ele>191.33333333333334</ele><time>2026-03-28T17:25:34Z</time></trkpt><trkpt lat="44.29627117680905" lon="11.11765510271476"><ele>192.0</ele><time>2026-03-28T17:25:35Z</time></trkpt><trkpt lat="44.296458278138914" lon="11.117758392229891"><ele>192.0</ele><time>2026-03-28T17:25:36Z</time></trkpt><trkpt lat="44.29667067231413" lon="11.117849461702564"><ele>192.0</ele><time>2026-03-28T17:25:37Z</time></trkpt><trkpt lat="44.296886331508" lon="11.117964701577229"><ele>192.0</ele><time>2026-03-28T17:25:38Z</time></trkpt><trkpt lat="44.29712936916927" lon="11.118086542648298"><ele>192.0</ele><time>2026-03-28T17:25:39Z</time></trkpt><trkpt lat="44.2973825841775" lon="11.118212439911677"><ele>189.0</ele><time>2026-03-28T17:25:40Z</time></trkpt><trkpt lat="44.29760266384564" lon="11.118321327236698"><ele>186.0</ele><time>2026-03-28T17:25:41Z</time></trkpt><trkpt lat="44.29776362308493" lon="11.118402715093016"><ele>183.0</ele><time>2026-03-28T17:25:42Z</time></trkpt><trkpt lat="44.297901070838826" lon="11.118475521729854"><ele>183.0</ele><time>2026-03-28T17:25:43Z</time></trkpt><trkpt lat="44.29802593145917" lon="11.118548699836557"><ele>183.0</ele><time>2026-03-28T17:25:44Z</time></trkpt><trkpt lat="44.29814157355451" lon="11.11862292035485"><ele>183.0</ele><time>2026-03-28T17:25:45Z</time></trkpt><trkpt lat="44.29830053197395" lon="11.118742888557371"><ele>183.0</ele><time>2026-03-28T17:25:46Z</time></trkpt><trkpt lat="44.29848349197694" lon="11.118907926138716"><ele>180.33333333333334</ele><time>2026-03-28T17:25:47Z</time></trkpt><trkpt lat="44.298651845449925" lon="11.119085576172273"><ele>177.66666666666669</ele><time>2026-03-28T17:25:48Z</time></trkpt><trkpt lat="44.29880361414207" lon="11.119271884387864"><ele>175.0</ele><time>2026-03-28T17:25:49Z</time></trkpt><trkpt lat="44.29894990248223" lon="11.119484065194035"><ele>177.5</ele><time>2026-03-28T17:25:50Z</time></trkpt><trkpt lat="44.29909557969577" lon="11.119729598262904"><ele>180.0</ele><time>2026-03-28T17:25:51Z</time></trkpt><trkpt lat="44.29924187330833" lon="11.120014778948336"><ele>180.0</ele><time>2026-03-28T17:25:52Z</time></trkpt><trkpt lat="44.299393143992916" lon="11.120312314974443"><ele>180.0</ele><time>2026-03-28T17:25:53Z</time></trkpt><trkpt lat="44.29955791638118" lon="11.12063239918268"><ele>179.0</ele><time>2026-03-28T17:25:54Z</time></trkpt><trkpt lat="44.29972832676638" lon="11.120932088024315"><ele>178.0</ele><time>2026-03-28T17:25:55Z</time></trkpt><trkpt lat="44.299883700711135" lon="11.121230693755862"><ele>179.0</ele><time>2026-03-28T17:25:56Z</time></trkpt><trkpt lat="44.30005372731008" lon="11.121514538495605"><ele>180.0</ele><time>2026-03-28T17:25:57Z</time></trkpt><trkpt lat="44.30023108478201" lon="11.12179579166001"><ele>180.0</ele><time>2026-03-28T17:25:58Z</time></trkpt><trkpt lat="44.30041347418199" lon="11.122073162849475"><ele>180.0</ele><time>2026-03-28T17:25:59Z</time></trkpt><trkpt lat="44.30059503048346" lon="11.12235622183632"><ele>183.0</ele><time>2026-03-28T17:26:00Z</time></trkpt><trkpt lat="44.300769260147405" lon="11.122629638648593"><ele>186.0</ele><time>2026-03-28T17:26:01Z</time></trkpt><trkpt lat="44.300934028831904" lon="11.122895836009832"><ele>186.0</ele><time>2026-03-28T17:26:02Z</time></trkpt><trkpt lat="44.30110230078282" lon="11.123150879822655"><ele>186.0</ele><time>2026-03-28T17:26:03Z</time></trkpt><trkpt lat="44.301261965455886" lon="11.123395090842264"><ele>184.66666666666666</ele><time>2026-03-28T17:26:04Z</time></trkpt><trkpt lat="44.30139961165336" lon="11.12361196836232"><ele>183.33333333333331</ele><time>2026-03-28T17:26:05Z</time></trkpt><trkpt lat="44.301519296841256" lon="11.12381876631761"><ele>182.0</ele><time>2026-03-28T17:26:06Z</time></trkpt><trkpt lat="44.30159502540291" lon="11.124032010994348"><ele>183.33333333333331</ele><time>2026-03-28T17:26:07Z</time></trkpt><trkpt lat="44.3016360984221" lon="11.124259485433045"><ele>184.66666666666666</ele><time>2026-03-28T17:26:08Z</time></trkpt><trkpt lat="44.30164610686516" lon="11.124512329127858"><ele>186.0</ele><time>2026-03-28T17:26:09Z</time></trkpt><trkpt lat="44.30162855902182" lon="11.124790366634217"><ele>184.33333333333334</ele><time>2026-03-28T17:26:10Z</time></trkpt><trkpt lat="44.30160662583782" lon="11.125090240331573"><ele>182.66666666666669</ele><time>2026-03-28T17:26:11Z</time></trkpt><trkpt lat="44.301596872186295" lon="11.125407205457446"><ele>181.0</ele><time>2026-03-28T17:26:12Z</time></trkpt><trkpt lat="44.30159102709055" lon="11.125728281055359"><ele>181.0</ele><time>2026-03-28T17:26:13Z</time></trkpt><trkpt lat="44.30159620457561" lon="11.126040586783617"><ele>181.0</ele><time>2026-03-28T17:26:14Z</time></trkpt><trkpt lat="44.30163172054383" lon="11.12636125509243"><ele>180.0</ele><time>2026-03-28T17:26:15Z</time></trkpt><trkpt lat="44.301680809005006" lon="11.12669007785323"><ele>179.0</ele><time>2026-03-28T17:26:16Z</time></trkpt><trkpt lat="44.30173905480051" lon="11.127045608127583"><ele>179.5</ele><time>2026-03-28T17:26:17Z</time></trkpt><trkpt lat="44.30179473169168" lon="11.127412408462787"><ele>180.0</ele><time>2026-03-28T17:26:18Z</time></trkpt><trkpt lat="44.30184548397135" lon="11.12776959775784"><ele>180.0</ele><time>2026-03-28T17:26:19Z</time></trkpt><trkpt lat="44.30189725689723" lon="11.128108081188264"><ele>180.0</ele><time>2026-03-28T17:26:20Z</time></trkpt><trkpt lat="44.30194262304615" lon="11.12842745081976"><ele>180.0</ele><time>2026-03-28T17:26:21Z</time></trkpt><trkpt lat="44.30198653088061" lon="11.128735122285295"><ele>180.0</ele><time>2026-03-28T17:26:22Z</time></trkpt><trkpt lat="44.30202482173891" lon="11.129033383368368"><ele>180.0</ele><time>2026-03-28T17:26:23Z</time></trkpt><trkpt lat="44.30206109906163" lon="11.129314416715262"><ele>180.0</ele><time>2026-03-28T17:26:24Z</time></trkpt><trkpt lat="44.302070052729604" lon="11.12955261640436"><ele>180.0</ele><time>2026-03-28T17:26:25Z</time></trkpt><trkpt lat="44.302030969451636" lon="11.129764382239584"><ele>180.0</ele><time>2026-03-28T17:26:26Z</time></trkpt><trkpt lat="44.301929951972234" lon="11.12996553537901"><ele>181.0</ele><time>2026-03-28T17:26:27Z</time></trkpt><trkpt lat="44.301827722252504" lon="11.13020059470254"><ele>182.0</ele><time>2026-03-28T17:26:28Z</time></trkpt><trkpt lat="44.30171360976551" lon="11.130440477629117"><ele>183.0</ele><time>2026-03-28T17:26:29Z</time></trkpt><trkpt lat="44.30162585460633" lon="11.130689280878968"><ele>183.33333333333334</ele><time>2026-03-28T17:26:30Z</time></trkpt><trkpt lat="44.30158698795734" lon="11.130937033273087"><ele>183.66666666666669</ele><time>2026-03-28T17:26:31Z</time></trkpt><trkpt lat="44.30160380205308" lon="11.131189771070185"><ele>184.0</ele><time>2026-03-28T17:26:32Z</time></trkpt><trkpt lat="44.30166057620416" lon="11.13143941897801"><ele>183.33333333333334</ele><time>2026-03-28T17:26:33Z</time></trkpt><trkpt lat="44.301725577637406" lon="11.131678216957518"><ele>182.66666666666666</ele><time>2026-03-28T17:26:34Z</time></trkpt><trkpt lat="44.3017629118742" lon="11.131910584840474"><ele>182.0</ele><time>2026-03-28T17:26:35Z</time></trkpt><trkpt lat="44.301729697884305" lon="11.132121276598445"><ele>182.0</ele><time>2026-03-28T17:26:36Z</time></trkpt><trkpt lat="44.301648907877826" lon="11.132305705492444"><ele>182.0</ele><time>2026-03-28T17:26:37Z</time></trkpt><trkpt lat="44.30153552700007" lon="11.132493011327867"><ele>182.0</ele><time>2026-03-28T17:26:38Z</time></trkpt><trkpt lat="44.30140340092905" lon="11.132716289895159"><ele>178.0</ele><time>2026-03-28T17:26:39Z</time></trkpt><trkpt lat="44.301237745807946" lon="11.132955161210734"><ele>174.0</ele><time>2026-03-28T17:26:40Z</time></trkpt><trkpt lat="44.301076870704826" lon="11.133208140469117"><ele>176.0</ele><time>2026-03-28T17:26:41Z</time></trkpt><trkpt lat="44.30094034042548" lon="11.133444542265671"><ele>178.0</ele><time>2026-03-28T17:26:42Z</time></trkpt><trkpt lat="44.300847224608916" lon="11.133689008406332"><ele>180.0</ele><time>2026-03-28T17:26:43Z</time></trkpt><trkpt lat="44.30080072958978" lon="11.133950288270517"><ele>180.33333333333334</ele><time>2026-03-28T17:26:44Z</time></trkpt><trkpt lat="44.30080947950211" lon="11.134224109651663"><ele>180.66666666666669</ele><time>2026-03-28T17:26:45Z</time></trkpt><trkpt lat="44.300863780095966" lon="11.134440083323623"><ele>181.0</ele><time>2026-03-28T17:26:46Z</time></trkpt><trkpt lat="44.30094088220348" lon="11.134576990710082"><ele>181.0</ele><time>2026-03-28T17:26:47Z</time></trkpt><trkpt lat="44.301057972582306" lon="11.134688799976283"><ele>181.0</ele><time>2026-03-28T17:26:48Z</time></trkpt><trkpt lat="44.30118843664627" lon="11.13480427956189"><ele>181.0</ele><time>2026-03-28T17:26:49Z</time></trkpt><trkpt lat="44.30133103237523" lon="11.134924643336728"><ele>186.0</ele><time>2026-03-28T17:26:50Z</time></trkpt><trkpt lat="44.30144873931613" lon="11.13506566627916"><ele>191.0</ele><time>2026-03-28T17:26:51Z</time></trkpt><trkpt lat="44.30152661989127" lon="11.135222544253338"><ele>196.0</ele><time>2026-03-28T17:26:52Z</time></trkpt><trkpt lat="44.30156035585354" lon="11.135393769875526"><ele>201.0</ele><time>2026-03-28T17:26:53Z</time></trkpt><trkpt lat="44.3015776110804" lon="11.13559869824078"><ele>200.25</ele><time>2026-03-28T17:26:54Z</time></trkpt><trkpt lat="44.30155530230976" lon="11.135801073657422"><ele>199.5</ele><time>2026-03-28T17:26:55Z</time></trkpt><trkpt lat="44.30153473522333" lon="11.135983955288603"><ele>198.75</ele><time>2026-03-28T17:26:56Z</time></trkpt><trkpt lat="44.30153633955903" lon="11.136131616977183"><ele>198.0</ele><time>2026-03-28T17:26:57Z</time></trkpt><trkpt lat="44.30153405749504" lon="11.136236237220837"><ele>198.0</ele><time>2026-03-28T17:26:58Z</time></trkpt><trkpt lat="44.30154177420516" lon="11.136369578236133"><ele>198.0</ele><time>2026-03-28T17:27:00Z</time></trkpt><trkpt lat="44.301557390197914" lon="11.136460289721322"><ele>198.0</ele><time>2026-03-28T17:27:03Z</time></trkpt><trkpt lat="44.301573185160336" lon="11.136547908060837"><ele>198.0</ele><time>2026-03-28T17:27:07Z</time></trkpt><trkpt lat="44.30159778801862" lon="11.136673904659022"><ele>198.0</ele><time>2026-03-28T17:27:12Z</time></trkpt><trkpt lat="44.30161444365732" lon="11.136763677637505"><ele>198.0</ele><time>2026-03-28T17:27:13Z</time></trkpt><trkpt lat="44.301631738293075" lon="11.136874409337207"><ele>198.0</ele><time>2026-03-28T17:27:14Z</time></trkpt><trkpt lat="44.30164426279928" lon="11.136988474325067"><ele>198.0</ele><time>2026-03-28T17:27:15Z</time></trkpt><trkpt lat="44.3016508206524" lon="11.137083534083256"><ele>198.0</ele><time>2026-03-28T17:27:16Z</time></trkpt><trkpt lat="44.30165734933115" lon="11.137235890474427"><ele>198.0</ele><time>2026-03-28T17:27:18Z</time></trkpt><trkpt lat="44.301662564671005" lon="11.13737286842704"><ele>198.0</ele><time>2026-03-28T17:27:20Z</time></trkpt><trkpt lat="44.30168513696001" lon="11.137545930191756"><ele>197.4</ele><time>2026-03-28T17:27:22Z</time></trkpt><trkpt lat="44.30169648914658" lon="11.137652590156856"><ele>196.8</ele><time>2026-03-28T17:27:23Z</time></trkpt><trkpt lat="44.3017182948096" lon="11.137768329554294"><ele>196.2</ele><time>2026-03-28T17:27:24Z</time></trkpt><trkpt lat="44.30175092907183" lon="11.137926885654727"><ele>195.6</ele><time>2026-03-28T17:27:25Z</time></trkpt><trkpt lat="44.30179484101271" lon="11.138100993825491"><ele>195.0</ele><time>2026-03-28T17:27:26Z</time></trkpt><trkpt lat="44.30186948712807" lon="11.138339747248297"><ele>192.0</ele><time>2026-03-28T17:27:27Z</time></trkpt><trkpt lat="44.301950748921534" lon="11.138591762326206"><ele>189.0</ele><time>2026-03-28T17:27:28Z</time></trkpt><trkpt lat="44.30204809088546" lon="11.138831272656825"><ele>186.0</ele><time>2026-03-28T17:27:29Z</time></trkpt><trkpt lat="44.302168317296534" lon="11.139067776214008"><ele>199.0</ele><time>2026-03-28T17:27:30Z</time></trkpt><trkpt lat="44.302322262694645" lon="11.13932827154101"><ele>212.0</ele><time>2026-03-28T17:27:31Z</time></trkpt><trkpt lat="44.302460493869084" lon="11.13955546905866"><ele>212.0</ele><time>2026-03-28T17:27:32Z</time></trkpt><trkpt lat="44.30257137125487" lon="11.139749263732885"><ele>212.0</ele><time>2026-03-28T17:27:33Z</time></trkpt><trkpt lat="44.302642082508456" lon="11.139951787008554"><ele>212.0</ele><time>2026-03-28T17:27:34Z</time></trkpt><trkpt lat="44.30269377862214" lon="11.140187902637345"><ele>206.66666666666669</ele><time>2026-03-28T17:27:35Z</time></trkpt><trkpt lat="44.302735114590604" lon="11.140474634078187"><ele>201.33333333333331</ele><time>2026-03-28T17:27:36Z</time></trkpt><trkpt lat="44.30273971710355" lon="11.140751166764872"><ele>196.0</ele><time>2026-03-28T17:27:37Z</time></trkpt><trkpt lat="44.30272113093926" lon="11.14104078668565"><ele>192.5</ele><time>2026-03-28T17:27:38Z</time></trkpt><trkpt lat="44.302657604448754" lon="11.141353463995447"><ele>189.0</ele><time>2026-03-28T17:27:39Z</time></trkpt><trkpt lat="44.302603382545314" lon="11.141658172011336"><ele>189.0</ele><time>2026-03-28T17:27:40Z</time></trkpt><trkpt lat="44.30258698915676" lon="11.141945921731386"><ele>189.0</ele><time>2026-03-28T17:27:41Z</time></trkpt><trkpt lat="44.302590822821614" lon="11.14220509846619"><ele>189.0</ele><time>2026-03-28T17:27:42Z</time></trkpt><trkpt lat="44.30260177934064" lon="11.142448105454058"><ele>190.66666666666669</ele><time>2026-03-28T17:27:43Z</time></trkpt><trkpt lat="44.302598796906686" lon="11.14268707841437"><ele>192.33333333333334</ele><time>2026-03-28T17:27:44Z</time></trkpt><trkpt lat="44.30259753790952" lon="11.142927655988744"><ele>194.0</ele><time>2026-03-28T17:27:45Z</time></trkpt><trkpt lat="44.302594705647806" lon="11.143165391467987"><ele>193.0</ele><time>2026-03-28T17:27:46Z</time></trkpt><trkpt lat="44.30259178863377" lon="11.143398149261007"><ele>192.0</ele><time>2026-03-28T17:27:47Z</time></trkpt><trkpt lat="44.3025914442611" lon="11.143635115817752"><ele>191.0</ele><time>2026-03-28T17:27:48Z</time></trkpt><trkpt lat="44.302588393383175" lon="11.14385511688277"><ele>191.25</ele><time>2026-03-28T17:27:49Z</time></trkpt><trkpt lat="44.30258535770572" lon="11.144052517280238"><ele>191.5</ele><time>2026-03-28T17:27:50Z</time></trkpt><trkpt lat="44.30258193108767" lon="11.144223073884225"><ele>191.75</ele><time>2026-03-28T17:27:51Z</time></trkpt><trkpt lat="44.30258053109356" lon="11.144386033518272"><ele>192.0</ele><time>2026-03-28T17:27:52Z</time></trkpt><trkpt lat="44.30258844135671" lon="11.144558050441901"><ele>192.0</ele><time>2026-03-28T17:27:53Z</time></trkpt><trkpt lat="44.30260475439026" lon="11.144725254753583"><ele>192.0</ele><time>2026-03-28T17:27:54Z</time></trkpt><trkpt lat="44.302629641691716" lon="11.144893406033571"><ele>192.0</ele><time>2026-03-28T17:27:55Z</time></trkpt><trkpt lat="44.30265936383499" lon="11.1450599567369"><ele>192.0</ele><time>2026-03-28T17:27:56Z</time></trkpt><trkpt lat="44.30269542632918" lon="11.145227277803384"><ele>192.25</ele><time>2026-03-28T17:27:57Z</time></trkpt><trkpt lat="44.302733530216706" lon="11.145389934124283"><ele>192.5</ele><time>2026-03-28T17:27:58Z</time></trkpt><trkpt lat="44.302792001533234" lon="11.145545259660926"><ele>192.75</ele><time>2026-03-28T17:27:59Z</time></trkpt><trkpt lat="44.302866810540955" lon="11.145685344064244"><ele>193.0</ele><time>2026-03-28T17:28:00Z</time></trkpt><trkpt lat="44.30296308541898" lon="11.145801233921219"><ele>194.0</ele><time>2026-03-28T17:28:01Z</time></trkpt><trkpt lat="44.303084738132675" lon="11.145900352372218"><ele>195.0</ele><time>2026-03-28T17:28:02Z</time></trkpt><trkpt lat="44.30321263450416" lon="11.145989449263007"><ele>196.0</ele><time>2026-03-28T17:28:03Z</time></trkpt><trkpt lat="44.303329231821195" lon="11.146079413728838"><ele>197.0</ele><time>2026-03-28T17:28:04Z</time></trkpt><trkpt lat="44.303440216378384" lon="11.146176781254113"><ele>197.0</ele><time>2026-03-28T17:28:05Z</time></trkpt><trkpt lat="44.303546554473314" lon="11.146313757146425"><ele>197.0</ele><time>2026-03-28T17:28:06Z</time></trkpt><trkpt lat="44.30364288961271" lon="11.146487501068934"><ele>197.0</ele><time>2026-03-28T17:28:07Z</time></trkpt><trkpt lat="44.303732489080716" lon="11.146672902769723"><ele>197.33333333333334</ele><time>2026-03-28T17:28:08Z</time></trkpt><trkpt lat="44.3038490074106" lon="11.146855215417741"><ele>197.66666666666669</ele><time>2026-03-28T17:28:09Z</time></trkpt><trkpt lat="44.3040105914141" lon="11.147036383090622"><ele>198.0</ele><time>2026-03-28T17:28:10Z</time></trkpt><trkpt lat="44.304213316556336" lon="11.147186685569116"><ele>198.0</ele><time>2026-03-28T17:28:11Z</time></trkpt><trkpt lat="44.30443989511522" lon="11.147300907941869"><ele>198.0</ele><time>2026-03-28T17:28:12Z</time></trkpt><trkpt lat="44.304659226306406" lon="11.14743037038496"><ele>199.33333333333331</ele><time>2026-03-28T17:28:13Z</time></trkpt><trkpt lat="44.30484487377983" lon="11.147582908051843"><ele>200.66666666666666</ele><time>2026-03-28T17:28:14Z</time></trkpt><trkpt lat="44.30501063340976" lon="11.147739208949949"><ele>202.0</ele><time>2026-03-28T17:28:15Z</time></trkpt><trkpt lat="44.30516426036967" lon="11.147891453669247"><ele>202.0</ele><time>2026-03-28T17:28:16Z</time></trkpt><trkpt lat="44.30527960080196" lon="11.148079064438228"><ele>202.0</ele><time>2026-03-28T17:28:17Z</time></trkpt><trkpt lat="44.30536514939025" lon="11.148275448159078"><ele>202.0</ele><time>2026-03-28T17:28:18Z</time></trkpt><trkpt lat="44.305400588981534" lon="11.148517083830521"><ele>199.0</ele><time>2026-03-28T17:28:19Z</time></trkpt><trkpt lat="44.30539362327528" lon="11.14878688863953"><ele>196.0</ele><time>2026-03-28T17:28:20Z</time></trkpt><trkpt lat="44.30536628532769" lon="11.149073408005478"><ele>193.0</ele><time>2026-03-28T17:28:21Z</time></trkpt><trkpt lat="44.30534312671041" lon="11.149377386256356"><ele>193.0</ele><time>2026-03-28T17:28:22Z</time></trkpt><trkpt lat="44.305307426038326" lon="11.149685194857904"><ele>193.0</ele><time>2026-03-28T17:28:23Z</time></trkpt><trkpt lat="44.305274983511836" lon="11.150002739812702"><ele>191.5</ele><time>2026-03-28T17:28:24Z</time></trkpt><trkpt lat="44.30524414817594" lon="11.150331624494406"><ele>190.0</ele><time>2026-03-28T17:28:25Z</time></trkpt><trkpt lat="44.3052132762419" lon="11.150665575891678"><ele>187.0</ele><time>2026-03-28T17:28:26Z</time></trkpt><trkpt lat="44.3051777705689" lon="11.151026005446068"><ele>184.0</ele><time>2026-03-28T17:28:27Z</time></trkpt><trkpt lat="44.305140796379995" lon="11.151436429719972"><ele>184.0</ele><time>2026-03-28T17:28:28Z</time></trkpt><trkpt lat="44.3050974029713" lon="11.151888846460254"><ele>184.0</ele><time>2026-03-28T17:28:29Z</time></trkpt><trkpt lat="44.30505392238546" lon="11.152343744251674"><ele>182.5</ele><time>2026-03-28T17:28:30Z</time></trkpt><trkpt lat="44.30501374483889" lon="11.152801288005268"><ele>181.0</ele><time>2026-03-28T17:28:31Z</time></trkpt><trkpt lat="44.30497497505498" lon="11.153237873828633"><ele>179.5</ele><time>2026-03-28T17:28:32Z</time></trkpt><trkpt lat="44.30494181482061" lon="11.15362680711146"><ele>178.0</ele><time>2026-03-28T17:28:33Z</time></trkpt><trkpt lat="44.30492630967441" lon="11.153931120043872"><ele>178.33333333333334</ele><time>2026-03-28T17:28:34Z</time></trkpt><trkpt lat="44.3049212424258" lon="11.154179257881122"><ele>178.66666666666666</ele><time>2026-03-28T17:28:35Z</time></trkpt><trkpt lat="44.30492919077518" lon="11.154385364588496"><ele>179.0</ele><time>2026-03-28T17:28:36Z</time></trkpt><trkpt lat="44.30494728790263" lon="11.154575800614356"><ele>179.0</ele><time>2026-03-28T17:28:37Z</time></trkpt><trkpt lat="44.30495244837269" lon="11.154770165552133"><ele>179.0</ele><time>2026-03-28T17:28:38Z</time></trkpt><trkpt lat="44.30497462989855" lon="11.154970247889834"><ele>179.0</ele><time>2026-03-28T17:28:39Z</time></trkpt><trkpt lat="44.305008753987636" lon="11.155157327528203"><ele>179.0</ele><time>2026-03-28T17:28:40Z</time></trkpt><trkpt lat="44.305073446861925" lon="11.155342877452268"><ele>179.33333333333331</ele><time>2026-03-28T17:28:41Z</time></trkpt><trkpt lat="44.305139149273764" lon="11.155546711440472"><ele>179.66666666666666</ele><time>2026-03-28T17:28:42Z</time></trkpt><trkpt lat="44.30523298106703" lon="11.1557749484064"><ele>180.0</ele><time>2026-03-28T17:28:43Z</time></trkpt><trkpt lat="44.30536742504321" lon="11.156014460088796"><ele>180.0</ele><time>2026-03-28T17:28:44.001Z</time></trkpt><trkpt lat="44.305555702792965" lon="11.156211465127646"><ele>180.0</ele><time>2026-03-28T17:28:45.001Z</time></trkpt><trkpt lat="44.3057331591979" lon="11.1563636200741"><ele>180.0</ele><time>2026-03-28T17:28:46.001Z</time></trkpt><trkpt lat="44.305939789160846" lon="11.156481103817647"><ele>179.0</ele><time>2026-03-28T17:28:47.001Z</time></trkpt><trkpt lat="44.3061665360347" lon="11.156540117672996"><ele>178.0</ele><time>2026-03-28T17:28:48.001Z</time></trkpt><trkpt lat="44.306383520920924" lon="11.156610823547997"><ele>179.5</ele><time>2026-03-28T17:28:49.001Z</time></trkpt><trkpt lat="44.3066124159331" lon="11.15672327889652"><ele>181.0</ele><time>2026-03-28T17:28:50.001Z</time></trkpt><trkpt lat="44.30685258396471" lon="11.156872491362487"><ele>181.0</ele><time>2026-03-28T17:28:51Z</time></trkpt><trkpt lat="44.30709306790947" lon="11.157033313249283"><ele>181.0</ele><time>2026-03-28T17:28:52Z</time></trkpt><trkpt lat="44.30731721341855" lon="11.157225379470379"><ele>177.0</ele><time>2026-03-28T17:28:53Z</time></trkpt><trkpt lat="44.30752579477605" lon="11.157412135207105"><ele>173.0</ele><time>2026-03-28T17:28:54Z</time></trkpt><trkpt lat="44.30774748045151" lon="11.157526348355233"><ele>173.0</ele><time>2026-03-28T17:28:55Z</time></trkpt><trkpt lat="44.30800156128001" lon="11.157601841862482"><ele>173.0</ele><time>2026-03-28T17:28:56Z</time></trkpt><trkpt lat="44.30829000641468" lon="11.157655890513407"><ele>177.5</ele><time>2026-03-28T17:28:57Z</time></trkpt><trkpt lat="44.30848394799857" lon="11.157694290511847"><ele>182.0</ele><time>2026-03-28T17:28:58Z</time></trkpt><trkpt lat="44.308811284340884" lon="11.157717925589118"><ele>179.0</ele><time>2026-03-28T17:28:59Z</time></trkpt><trkpt lat="44.30917288388248" lon="11.157734098583115"><ele>176.0</ele><time>2026-03-28T17:29:00Z</time></trkpt><trkpt lat="44.309553959943784" lon="11.15775627333527"><ele>169.5</ele><time>2026-03-28T17:29:01Z</time></trkpt><trkpt lat="44.3099221306781" lon="11.157739657473337"><ele>163.0</ele><time>2026-03-28T17:29:02Z</time></trkpt><trkpt lat="44.310262500379594" lon="11.157712347749001"><ele>163.0</ele><time>2026-03-28T17:29:03Z</time></trkpt><trkpt lat="44.31056965262822" lon="11.157729772048661"><ele>163.0</ele><time>2026-03-28T17:29:04Z</time></trkpt><trkpt lat="44.31085665825864" lon="11.157727198592646"><ele>163.0</ele><time>2026-03-28T17:29:05Z</time></trkpt><trkpt lat="44.31113930355901" lon="11.157725876217583"><ele>163.0</ele><time>2026-03-28T17:29:06Z</time></trkpt><trkpt lat="44.31141356907754" lon="11.157734633958812"><ele>164.0</ele><time>2026-03-28T17:29:07Z</time></trkpt><trkpt lat="44.31167685994312" lon="11.157788448077614"><ele>165.0</ele><time>2026-03-28T17:29:08Z</time></trkpt><trkpt lat="44.31194596086737" lon="11.1578967103956"><ele>165.0</ele><time>2026-03-28T17:29:09Z</time></trkpt><trkpt lat="44.31221845868061" lon="11.15801180416461"><ele>165.0</ele><time>2026-03-28T17:29:10Z</time></trkpt><trkpt lat="44.31247780156416" lon="11.158120914767904"><ele>161.5</ele><time>2026-03-28T17:29:11Z</time></trkpt><trkpt lat="44.31271130007571" lon="11.158236158321357"><ele>158.0</ele><time>2026-03-28T17:29:12Z</time></trkpt><trkpt lat="44.31291441767976" lon="11.15838814495309"><ele>164.5</ele><time>2026-03-28T17:29:13Z</time></trkpt><trkpt lat="44.313091040454815" lon="11.158581020786327"><ele>171.0</ele><time>2026-03-28T17:29:14Z</time></trkpt><trkpt lat="44.313248430108544" lon="11.158820756630845"><ele>166.0</ele><time>2026-03-28T17:29:15Z</time></trkpt><trkpt lat="44.3133801625946" lon="11.159110196394575"><ele>161.0</ele><time>2026-03-28T17:29:16Z</time></trkpt><trkpt lat="44.31349035150261" lon="11.159447611757255"><ele>161.0</ele><time>2026-03-28T17:29:17Z</time></trkpt><trkpt lat="44.31356153342661" lon="11.159799261379282"><ele>161.0</ele><time>2026-03-28T17:29:18Z</time></trkpt><trkpt lat="44.313587060813816" lon="11.16013422068612"><ele>159.5</ele><time>2026-03-28T17:29:19Z</time></trkpt><trkpt lat="44.3135657460998" lon="11.160434867229231"><ele>158.0</ele><time>2026-03-28T17:29:20Z</time></trkpt><trkpt lat="44.313517157595456" lon="11.160770253429321"><ele>158.0</ele><time>2026-03-28T17:29:21Z</time></trkpt><trkpt lat="44.31344451458964" lon="11.161130874895422"><ele>158.0</ele><time>2026-03-28T17:29:22Z</time></trkpt><trkpt lat="44.31335227516983" lon="11.161486204640834"><ele>162.5</ele><time>2026-03-28T17:29:23Z</time></trkpt><trkpt lat="44.313224718358434" lon="11.16179214038425"><ele>167.0</ele><time>2026-03-28T17:29:24Z</time></trkpt><trkpt lat="44.3131421636874" lon="11.162101240265436"><ele>168.66666666666666</ele><time>2026-03-28T17:29:25Z</time></trkpt><trkpt lat="44.31310001203261" lon="11.162391240453527"><ele>170.33333333333334</ele><time>2026-03-28T17:29:26Z</time></trkpt><trkpt lat="44.313018737368786" lon="11.162627265436342"><ele>172.0</ele><time>2026-03-28T17:29:27Z</time></trkpt><trkpt lat="44.31294490395084" lon="11.162819185891568"><ele>166.66666666666669</ele><time>2026-03-28T17:29:28Z</time></trkpt><trkpt lat="44.312925627350324" lon="11.163033721327416"><ele>161.33333333333334</ele><time>2026-03-28T17:29:29Z</time></trkpt><trkpt lat="44.312929514333725" lon="11.163233131951811"><ele>156.0</ele><time>2026-03-28T17:29:30Z</time></trkpt><trkpt lat="44.312991936955896" lon="11.163448362344269"><ele>160.0</ele><time>2026-03-28T17:29:31Z</time></trkpt><trkpt lat="44.31310217349058" lon="11.163692671556129"><ele>164.0</ele><time>2026-03-28T17:29:32Z</time></trkpt><trkpt lat="44.31322667891762" lon="11.163957947177666"><ele>168.0</ele><time>2026-03-28T17:29:33Z</time></trkpt><trkpt lat="44.31337289534718" lon="11.164251968028841"><ele>168.0</ele><time>2026-03-28T17:29:34Z</time></trkpt><trkpt lat="44.31355676583411" lon="11.164515757447445"><ele>168.0</ele><time>2026-03-28T17:29:35Z</time></trkpt><trkpt lat="44.313653212161526" lon="11.164781203080706"><ele>166.33333333333334</ele><time>2026-03-28T17:29:36Z</time></trkpt><trkpt lat="44.31375288835746" lon="11.164994589004667"><ele>164.66666666666669</ele><time>2026-03-28T17:29:37Z</time></trkpt><trkpt lat="44.313830143071726" lon="11.165204613292056"><ele>163.0</ele><time>2026-03-28T17:29:38Z</time></trkpt><trkpt lat="44.31385522361652" lon="11.16541823816039"><ele>163.0</ele><time>2026-03-28T17:29:39Z</time></trkpt><trkpt lat="44.313833021726296" lon="11.165639823861756"><ele>163.0</ele><time>2026-03-28T17:29:40Z</time></trkpt><trkpt lat="44.313766347045" lon="11.165866216355845"><ele>163.0</ele><time>2026-03-28T17:29:41Z</time></trkpt><trkpt lat="44.31371039666649" lon="11.166088819772357"><ele>163.25</ele><time>2026-03-28T17:29:42Z</time></trkpt><trkpt lat="44.31368662515335" lon="11.166266114188987"><ele>163.5</ele><time>2026-03-28T17:29:43Z</time></trkpt><trkpt lat="44.31371740319357" lon="11.166453348815018"><ele>163.75</ele><time>2026-03-28T17:29:44Z</time></trkpt><trkpt lat="44.31380935477298" lon="11.166650887002294"><ele>164.0</ele><time>2026-03-28T17:29:45Z</time></trkpt><trkpt lat="44.31394820988293" lon="11.166856179574602"><ele>167.66666666666666</ele><time>2026-03-28T17:29:46Z</time></trkpt><trkpt lat="44.314115658254075" lon="11.167072581356203"><ele>171.33333333333334</ele><time>2026-03-28T17:29:47Z</time></trkpt><trkpt lat="44.31428318062171" lon="11.167251528151505"><ele>175.0</ele><time>2026-03-28T17:29:48Z</time></trkpt><trkpt lat="44.31444227089358" lon="11.167379985876014"><ele>175.0</ele><time>2026-03-28T17:29:49Z</time></trkpt><trkpt lat="44.314624374737264" lon="11.167436183568798"><ele>175.0</ele><time>2026-03-28T17:29:50Z</time></trkpt><trkpt lat="44.31481205702395" lon="11.167447217646176"><ele>175.0</ele><time>2026-03-28T17:29:51Z</time></trkpt><trkpt lat="44.31496017200754" lon="11.167519414626199"><ele>177.5</ele><time>2026-03-28T17:29:52Z</time></trkpt><trkpt lat="44.315062455579536" lon="11.16763752396029"><ele>180.0</ele><time>2026-03-28T17:29:53Z</time></trkpt><trkpt lat="44.31514146651371" lon="11.167791385908634"><ele>182.5</ele><time>2026-03-28T17:29:54Z</time></trkpt><trkpt lat="44.31518090777298" lon="11.16798527315938"><ele>185.0</ele><time>2026-03-28T17:29:55Z</time></trkpt><trkpt lat="44.31511939507203" lon="11.168203205418743"><ele>186.33333333333331</ele><time>2026-03-28T17:29:56Z</time></trkpt><trkpt lat="44.31507616801346" lon="11.16847452259729"><ele>187.66666666666666</ele><time>2026-03-28T17:29:57Z</time></trkpt><trkpt lat="44.314999819504756" lon="11.168764559457395"><ele>189.0</ele><time>2026-03-28T17:29:58Z</time></trkpt><trkpt lat="44.314937518430916" lon="11.169035208140532"><ele>186.66666666666666</ele><time>2026-03-28T17:29:59Z</time></trkpt><trkpt lat="44.31483658273944" lon="11.169230101124489"><ele>184.33333333333331</ele><time>2026-03-28T17:30:00Z</time></trkpt><trkpt lat="44.31468558041337" lon="11.169383547666154"><ele>182.0</ele><time>2026-03-28T17:30:01Z</time></trkpt><trkpt lat="44.31450020144935" lon="11.169570048896354"><ele>182.0</ele><time>2026-03-28T17:30:02Z</time></trkpt><trkpt lat="44.31429048667162" lon="11.169739459862651"><ele>182.0</ele><time>2026-03-28T17:30:03Z</time></trkpt><trkpt lat="44.31408909767255" lon="11.169960610371419"><ele>184.33333333333331</ele><time>2026-03-28T17:30:04Z</time></trkpt><trkpt lat="44.31393719722112" lon="11.1701982674636"><ele>186.66666666666666</ele><time>2026-03-28T17:30:05Z</time></trkpt><trkpt lat="44.31382698195332" lon="11.170457750994371"><ele>189.0</ele><time>2026-03-28T17:30:06Z</time></trkpt><trkpt lat="44.31375658125026" lon="11.1707559150244"><ele>179.0</ele><time>2026-03-28T17:30:07Z</time></trkpt><trkpt lat="44.313728071959545" lon="11.17110146684176"><ele>169.0</ele><time>2026-03-28T17:30:08Z</time></trkpt><trkpt lat="44.31372961154174" lon="11.171491273638788"><ele>168.5</ele><time>2026-03-28T17:30:09Z</time></trkpt><trkpt lat="44.31373305388222" lon="11.171882862191907"><ele>168.0</ele><time>2026-03-28T17:30:10Z</time></trkpt><trkpt lat="44.313739235877875" lon="11.172267949659567"><ele>166.5</ele><time>2026-03-28T17:30:11Z</time></trkpt><trkpt lat="44.31378356385776" lon="11.172677451347628"><ele>165.0</ele><time>2026-03-28T17:30:12Z</time></trkpt><trkpt lat="44.31384611207214" lon="11.173072502788125"><ele>177.33333333333331</ele><time>2026-03-28T17:30:13Z</time></trkpt><trkpt lat="44.31391806162561" lon="11.17337934849572"><ele>189.66666666666666</ele><time>2026-03-28T17:30:14Z</time></trkpt><trkpt lat="44.31402227780075" lon="11.173634452186581"><ele>202.0</ele><time>2026-03-28T17:30:15Z</time></trkpt><trkpt lat="44.31417671384457" lon="11.173881567213845"><ele>196.5</ele><time>2026-03-28T17:30:16Z</time></trkpt><trkpt lat="44.31436734608101" lon="11.174131301683374"><ele>191.0</ele><time>2026-03-28T17:30:17Z</time></trkpt><trkpt lat="44.314547180184576" lon="11.174385716802615"><ele>191.0</ele><time>2026-03-28T17:30:18Z</time></trkpt><trkpt lat="44.31465407498959" lon="11.174664423535775"><ele>191.0</ele><time>2026-03-28T17:30:19Z</time></trkpt><trkpt lat="44.31472810516709" lon="11.174944534787777"><ele>191.0</ele><time>2026-03-28T17:30:20.001Z</time></trkpt><trkpt lat="44.31475127256983" lon="11.175257745396685"><ele>199.0</ele><time>2026-03-28T17:30:21.001Z</time></trkpt><trkpt lat="44.31477858149124" lon="11.175602600803261"><ele>207.0</ele><time>2026-03-28T17:30:22.001Z</time></trkpt><trkpt lat="44.314794564251606" lon="11.175919002068623"><ele>207.0</ele><time>2026-03-28T17:30:23.001Z</time></trkpt><trkpt lat="44.314881459349714" lon="11.176217793902014"><ele>207.0</ele><time>2026-03-28T17:30:24.001Z</time></trkpt><trkpt lat="44.315030474986344" lon="11.176527915835164"><ele>202.5</ele><time>2026-03-28T17:30:25.001Z</time></trkpt><trkpt lat="44.31517495231321" lon="11.176889017546795"><ele>198.0</ele><time>2026-03-28T17:30:26.001Z</time></trkpt><trkpt lat="44.3153012205926" lon="11.177238951402055"><ele>190.0</ele><time>2026-03-28T17:30:27.001Z</time></trkpt><trkpt lat="44.31541088037347" lon="11.177553752676491"><ele>182.0</ele><time>2026-03-28T17:30:28.001Z</time></trkpt><trkpt lat="44.31550211085663" lon="11.177848384518272"><ele>182.0</ele><time>2026-03-28T17:30:29.001Z</time></trkpt><trkpt lat="44.31556625458735" lon="11.178127958164993"><ele>182.0</ele><time>2026-03-28T17:30:30.001Z</time></trkpt><trkpt lat="44.315602102626144" lon="11.178382431230709"><ele>182.0</ele><time>2026-03-28T17:30:31.001Z</time></trkpt><trkpt lat="44.31565346414577" lon="11.178590876041593"><ele>183.33333333333331</ele><time>2026-03-28T17:30:32.001Z</time></trkpt><trkpt lat="44.31571544657483" lon="11.178781716717522"><ele>184.66666666666666</ele><time>2026-03-28T17:30:33.001Z</time></trkpt><trkpt lat="44.3158283748863" lon="11.17895221675543"><ele>186.0</ele><time>2026-03-28T17:30:34.001Z</time></trkpt><trkpt lat="44.31598331301397" lon="11.179108672486883"><ele>186.0</ele><time>2026-03-28T17:30:35.001Z</time></trkpt><trkpt lat="44.31615613088818" lon="11.179252060743838"><ele>186.0</ele><time>2026-03-28T17:30:36.001Z</time></trkpt><trkpt lat="44.31628417683864" lon="11.179408164394196"><ele>186.0</ele><time>2026-03-28T17:30:37.001Z</time></trkpt><trkpt lat="44.31638861672772" lon="11.179569414381994"><ele>186.0</ele><time>2026-03-28T17:30:38.001Z</time></trkpt><trkpt lat="44.316496328089784" lon="11.179815939875704"><ele>186.0</ele><time>2026-03-28T17:30:39.001Z</time></trkpt><trkpt lat="44.31663331873391" lon="11.180099269077836"><ele>186.0</ele><time>2026-03-28T17:30:40.001Z</time></trkpt><trkpt lat="44.31678001665694" lon="11.180318765171872"><ele>186.0</ele><time>2026-03-28T17:30:41.001Z</time></trkpt><trkpt lat="44.31690715389669" lon="11.18052846050398"><ele>186.0</ele><time>2026-03-28T17:30:42.001Z</time></trkpt><trkpt lat="44.31703265227162" lon="11.180710598895434"><ele>183.66666666666666</ele><time>2026-03-28T17:30:43.001Z</time></trkpt><trkpt lat="44.317156563057026" lon="11.180886134469251"><ele>181.33333333333331</ele><time>2026-03-28T17:30:44.001Z</time></trkpt><trkpt lat="44.31728901863917" lon="11.18102528528778"><ele>179.0</ele><time>2026-03-28T17:30:45.001Z</time></trkpt><trkpt lat="44.3174348321342" lon="11.181125255622856"><ele>179.0</ele><time>2026-03-28T17:30:46.001Z</time></trkpt><trkpt lat="44.317587902262375" lon="11.18115734598142"><ele>179.0</ele><time>2026-03-28T17:30:47.001Z</time></trkpt><trkpt lat="44.31774094028162" lon="11.181112915547581"><ele>179.0</ele><time>2026-03-28T17:30:48.001Z</time></trkpt><trkpt lat="44.31789335263871" lon="11.180993017636068"><ele>179.0</ele><time>2026-03-28T17:30:49.001Z</time></trkpt><trkpt lat="44.318053621561496" lon="11.180839064657622"><ele>179.0</ele><time>2026-03-28T17:30:50.001Z</time></trkpt><trkpt lat="44.31822134198805" lon="11.180686452429873"><ele>179.0</ele><time>2026-03-28T17:30:51.001Z</time></trkpt><trkpt lat="44.318395833888296" lon="11.180544950236708"><ele>180.0</ele><time>2026-03-28T17:30:52.001Z</time></trkpt><trkpt lat="44.31856065109105" lon="11.180416081053206"><ele>181.0</ele><time>2026-03-28T17:30:53.001Z</time></trkpt><trkpt lat="44.318726874335276" lon="11.180282695113691"><ele>182.0</ele><time>2026-03-28T17:30:54.001Z</time></trkpt><trkpt lat="44.31889833469638" lon="11.18013538832746"><ele>178.33333333333331</ele><time>2026-03-28T17:30:55.001Z</time></trkpt><trkpt lat="44.31907657643379" lon="11.179985669813817"><ele>174.66666666666666</ele><time>2026-03-28T17:30:56.001Z</time></trkpt><trkpt lat="44.31924966664034" lon="11.179835970662124"><ele>171.0</ele><time>2026-03-28T17:30:57Z</time></trkpt><trkpt lat="44.31941195038245" lon="11.179730557833562"><ele>171.0</ele><time>2026-03-28T17:30:58Z</time></trkpt><trkpt lat="44.319531434737996" lon="11.1795873141904"><ele>171.0</ele><time>2026-03-28T17:30:59Z</time></trkpt><trkpt lat="44.31967149874269" lon="11.179506565090476"><ele>171.0</ele><time>2026-03-28T17:31:00Z</time></trkpt><trkpt lat="44.31980978953041" lon="11.179459217483203"><ele>167.0</ele><time>2026-03-28T17:31:01Z</time></trkpt><trkpt lat="44.31995620764655" lon="11.179445584308246"><ele>163.0</ele><time>2026-03-28T17:31:02Z</time></trkpt><trkpt lat="44.32011596598782" lon="11.179464033698839"><ele>159.0</ele><time>2026-03-28T17:31:03Z</time></trkpt><trkpt lat="44.320273438906476" lon="11.179559658621857"><ele>159.0</ele><time>2026-03-28T17:31:04Z</time></trkpt><trkpt lat="44.32041239931061" lon="11.179666066365609"><ele>159.0</ele><time>2026-03-28T17:31:05Z</time></trkpt><trkpt lat="44.32055854180581" lon="11.179787505980444"><ele>159.0</ele><time>2026-03-28T17:31:06Z</time></trkpt><trkpt lat="44.32071639451222" lon="11.179921836880448"><ele>157.66666666666666</ele><time>2026-03-28T17:31:07Z</time></trkpt><trkpt lat="44.32087024758879" lon="11.180051193910172"><ele>156.33333333333331</ele><time>2026-03-28T17:31:08Z</time></trkpt><trkpt lat="44.32101181742385" lon="11.180170223508652"><ele>155.0</ele><time>2026-03-28T17:31:09Z</time></trkpt><trkpt lat="44.321154298764576" lon="11.180272422551724"><ele>155.0</ele><time>2026-03-28T17:31:10Z</time></trkpt><trkpt lat="44.32131630164164" lon="11.180339728354923"><ele>155.0</ele><time>2026-03-28T17:31:11Z</time></trkpt><trkpt lat="44.321515536585316" lon="11.180382288118821"><ele>155.0</ele><time>2026-03-28T17:31:12Z</time></trkpt><trkpt lat="44.321726673821296" lon="11.180380863289669"><ele>155.33333333333331</ele><time>2026-03-28T17:31:13Z</time></trkpt><trkpt lat="44.32191391164651" lon="11.180356750111784"><ele>155.66666666666666</ele><time>2026-03-28T17:31:14Z</time></trkpt><trkpt lat="44.32207186349097" lon="11.180294390378405"><ele>156.0</ele><time>2026-03-28T17:31:15Z</time></trkpt><trkpt lat="44.322227411941576" lon="11.180265953529364"><ele>155.66666666666666</ele><time>2026-03-28T17:31:16Z</time></trkpt><trkpt lat="44.322382094170386" lon="11.180219315333497"><ele>155.33333333333331</ele><time>2026-03-28T17:31:17Z</time></trkpt><trkpt lat="44.322545196487745" lon="11.18016890049809"><ele>155.0</ele><time>2026-03-28T17:31:18Z</time></trkpt><trkpt lat="44.32270028601837" lon="11.180114387386043"><ele>155.0</ele><time>2026-03-28T17:31:19Z</time></trkpt><trkpt lat="44.322835196044885" lon="11.180055147723412"><ele>155.0</ele><time>2026-03-28T17:31:20Z</time></trkpt><trkpt lat="44.322955680093905" lon="11.179994425429763"><ele>155.0</ele><time>2026-03-28T17:31:21Z</time></trkpt><trkpt lat="44.32307878560004" lon="11.179930498768075"><ele>155.0</ele><time>2026-03-28T17:31:22Z</time></trkpt><trkpt lat="44.32324097859952" lon="11.179836639677072"><ele>156.66666666666666</ele><time>2026-03-28T17:31:23Z</time></trkpt><trkpt lat="44.32342409694121" lon="11.179743522095807"><ele>158.33333333333334</ele><time>2026-03-28T17:31:24Z</time></trkpt><trkpt lat="44.323600100678405" lon="11.17968419467674"><ele>160.0</ele><time>2026-03-28T17:31:25Z</time></trkpt><trkpt lat="44.323782155234774" lon="11.179651526460267"><ele>163.25</ele><time>2026-03-28T17:31:26Z</time></trkpt><trkpt lat="44.32395909331489" lon="11.179650201671832"><ele>166.5</ele><time>2026-03-28T17:31:27Z</time></trkpt><trkpt lat="44.324092832529175" lon="11.179702722252486"><ele>169.75</ele><time>2026-03-28T17:31:28Z</time></trkpt><trkpt lat="44.32419631274268" lon="11.179802434860402"><ele>173.0</ele><time>2026-03-28T17:31:29Z</time></trkpt><trkpt lat="44.32424503036527" lon="11.179965558213775"><ele>173.0</ele><time>2026-03-28T17:31:30Z</time></trkpt><trkpt lat="44.32425252734363" lon="11.180154402106595"><ele>173.0</ele><time>2026-03-28T17:31:31Z</time></trkpt><trkpt lat="44.324275266546074" lon="11.180337712032191"><ele>173.0</ele><time>2026-03-28T17:31:32Z</time></trkpt><trkpt lat="44.32427028877988" lon="11.18052190515154"><ele>173.0</ele><time>2026-03-28T17:31:33Z</time></trkpt><trkpt lat="44.32428674069789" lon="11.180693767452563"><ele>170.75</ele><time>2026-03-28T17:31:34Z</time></trkpt><trkpt lat="44.32432341546315" lon="11.180859035894729"><ele>168.5</ele><time>2026-03-28T17:31:35Z</time></trkpt><trkpt lat="44.32437072285519" lon="11.181026362210092"><ele>166.25</ele><time>2026-03-28T17:31:36Z</time></trkpt><trkpt lat="44.32442731071946" lon="11.181213943137395"><ele>164.0</ele><time>2026-03-28T17:31:37Z</time></trkpt><trkpt lat="44.324519816831376" lon="11.181377631674469"><ele>162.0</ele><time>2026-03-28T17:31:38Z</time></trkpt><trkpt lat="44.32459470042026" lon="11.181572907837685"><ele>160.0</ele><time>2026-03-28T17:31:39Z</time></trkpt><trkpt lat="44.32466872689856" lon="11.181758725482796"><ele>158.0</ele><time>2026-03-28T17:31:40Z</time></trkpt><trkpt lat="44.32471700872351" lon="11.181936492262858"><ele>156.0</ele><time>2026-03-28T17:31:41Z</time></trkpt><trkpt lat="44.32473503892123" lon="11.182117528892405"><ele>161.5</ele><time>2026-03-28T17:31:42Z</time></trkpt><trkpt lat="44.32474271012672" lon="11.182316719759125"><ele>167.0</ele><time>2026-03-28T17:31:43Z</time></trkpt><trkpt lat="44.3247516573715" lon="11.18249329032135"><ele>172.5</ele><time>2026-03-28T17:31:44Z</time></trkpt><trkpt lat="44.32478660616091" lon="11.182665488194898"><ele>178.0</ele><time>2026-03-28T17:31:45Z</time></trkpt><trkpt lat="44.324845271390835" lon="11.182850232588368"><ele>178.0</ele><time>2026-03-28T17:31:46Z</time></trkpt><trkpt lat="44.324902893473784" lon="11.183014034808185"><ele>178.0</ele><time>2026-03-28T17:31:47Z</time></trkpt><trkpt lat="44.32497141366995" lon="11.183183009584752"><ele>178.0</ele><time>2026-03-28T17:31:48Z</time></trkpt><trkpt lat="44.32505382941008" lon="11.183357155436596"><ele>178.0</ele><time>2026-03-28T17:31:49Z</time></trkpt><trkpt lat="44.325171133657456" lon="11.183532995980785"><ele>176.66666666666669</ele><time>2026-03-28T17:31:50Z</time></trkpt><trkpt lat="44.32530912061305" lon="11.183740541368378"><ele>175.33333333333334</ele><time>2026-03-28T17:31:51Z</time></trkpt><trkpt lat="44.32545017912328" lon="11.183969467411945"><ele>174.0</ele><time>2026-03-28T17:31:52Z</time></trkpt><trkpt lat="44.32558808709497" lon="11.18421406077785"><ele>174.0</ele><time>2026-03-28T17:31:53Z</time></trkpt><trkpt lat="44.325729454329775" lon="11.184453611834629"><ele>174.0</ele><time>2026-03-28T17:31:54Z</time></trkpt><trkpt lat="44.325862938475204" lon="11.184671716715908"><ele>174.0</ele><time>2026-03-28T17:31:55Z</time></trkpt><trkpt lat="44.325988168755046" lon="11.184870887021459"><ele>168.33333333333334</ele><time>2026-03-28T17:31:56Z</time></trkpt><trkpt lat="44.326111994349716" lon="11.185054338298295"><ele>162.66666666666669</ele><time>2026-03-28T17:31:57Z</time></trkpt><trkpt lat="44.32624247800854" lon="11.185209714601823"><ele>157.0</ele><time>2026-03-28T17:31:58Z</time></trkpt><trkpt lat="44.32638418424682" lon="11.18533165827509"><ele>163.66666666666669</ele><time>2026-03-28T17:31:59Z</time></trkpt><trkpt lat="44.3265314872537" lon="11.185431704811432"><ele>170.33333333333334</ele><time>2026-03-28T17:32:00Z</time></trkpt><trkpt lat="44.32668082548982" lon="11.185499359980467"><ele>177.0</ele><time>2026-03-28T17:32:01Z</time></trkpt><trkpt lat="44.326824377304405" lon="11.185583614666957"><ele>177.0</ele><time>2026-03-28T17:32:02Z</time></trkpt><trkpt lat="44.32697406164913" lon="11.1856069318123"><ele>177.0</ele><time>2026-03-28T17:32:03Z</time></trkpt><trkpt lat="44.327118644388534" lon="11.185581500315404"><ele>177.0</ele><time>2026-03-28T17:32:04Z</time></trkpt><trkpt lat="44.32725340404251" lon="11.18548910731715"><ele>177.0</ele><time>2026-03-28T17:32:05Z</time></trkpt><trkpt lat="44.32737727849605" lon="11.185329508052163"><ele>181.0</ele><time>2026-03-28T17:32:06Z</time></trkpt><trkpt lat="44.32752140536101" lon="11.185098223361546"><ele>185.0</ele><time>2026-03-28T17:32:07Z</time></trkpt><trkpt lat="44.327705378898585" lon="11.18492589618895"><ele>189.0</ele><time>2026-03-28T17:32:08Z</time></trkpt><trkpt lat="44.32793144144964" lon="11.184789167205077"><ele>183.0</ele><time>2026-03-28T17:32:09Z</time></trkpt><trkpt lat="44.32818625678496" lon="11.184660938226017"><ele>177.0</ele><time>2026-03-28T17:32:10Z</time></trkpt><trkpt lat="44.32841250399303" lon="11.184547960241593"><ele>177.0</ele><time>2026-03-28T17:32:11.001Z</time></trkpt><trkpt lat="44.32861508646188" lon="11.184453504238022"><ele>177.0</ele><time>2026-03-28T17:32:12.001Z</time></trkpt><trkpt lat="44.32880419999975" lon="11.184424786554725"><ele>177.0</ele><time>2026-03-28T17:32:13.001Z</time></trkpt><trkpt lat="44.32897428277035" lon="11.184443951215842"><ele>174.0</ele><time>2026-03-28T17:32:14.001Z</time></trkpt><trkpt lat="44.329143709342986" lon="11.184494925547341"><ele>171.0</ele><time>2026-03-28T17:32:15.001Z</time></trkpt><trkpt lat="44.32931958290296" lon="11.184605093508644"><ele>168.0</ele><time>2026-03-28T17:32:16.001Z</time></trkpt><trkpt lat="44.329533782794186" lon="11.184749072430836"><ele>159.5</ele><time>2026-03-28T17:32:17.001Z</time></trkpt><trkpt lat="44.32978327363615" lon="11.184897124124218"><ele>151.0</ele><time>2026-03-28T17:32:18.001Z</time></trkpt><trkpt lat="44.33006820329072" lon="11.185000874238861"><ele>151.0</ele><time>2026-03-28T17:32:19.001Z</time></trkpt><trkpt lat="44.33032152571102" lon="11.185086882113664"><ele>151.0</ele><time>2026-03-28T17:32:20.001Z</time></trkpt><trkpt lat="44.33053391434732" lon="11.185198194187098"><ele>151.0</ele><time>2026-03-28T17:32:21.001Z</time></trkpt><trkpt lat="44.33071045823391" lon="11.185326088759185"><ele>151.0</ele><time>2026-03-28T17:32:22.001Z</time></trkpt><trkpt lat="44.330856361781244" lon="11.185458238848911"><ele>151.0</ele><time>2026-03-28T17:32:23.001Z</time></trkpt><trkpt lat="44.33097671736961" lon="11.185604089578554"><ele>149.33333333333334</ele><time>2026-03-28T17:32:24.001Z</time></trkpt><trkpt lat="44.331112787265475" lon="11.185770857338504"><ele>147.66666666666666</ele><time>2026-03-28T17:32:25.001Z</time></trkpt><trkpt lat="44.33125496346199" lon="11.185932362982506"><ele>146.0</ele><time>2026-03-28T17:32:26.001Z</time></trkpt><trkpt lat="44.33138646243412" lon="11.1860847300121"><ele>146.25</ele><time>2026-03-28T17:32:27.001Z</time></trkpt><trkpt lat="44.331501777450754" lon="11.18622785119167"><ele>146.5</ele><time>2026-03-28T17:32:28.001Z</time></trkpt><trkpt lat="44.331606881611535" lon="11.18636197819739"><ele>146.75</ele><time>2026-03-28T17:32:29.001Z</time></trkpt><trkpt lat="44.331717752798426" lon="11.186503516583013"><ele>147.0</ele><time>2026-03-28T17:32:30.001Z</time></trkpt><trkpt lat="44.3318309471963" lon="11.186648949378435"><ele>147.0</ele><time>2026-03-28T17:32:31.001Z</time></trkpt><trkpt lat="44.33193086789303" lon="11.186785796093368"><ele>147.0</ele><time>2026-03-28T17:32:32.001Z</time></trkpt><trkpt lat="44.332022287439585" lon="11.186908853418702"><ele>147.0</ele><time>2026-03-28T17:32:33.001Z</time></trkpt><trkpt lat="44.33211001902352" lon="11.187017222382522"><ele>147.0</ele><time>2026-03-28T17:32:34.001Z</time></trkpt><trkpt lat="44.33219357284066" lon="11.187117918234188"><ele>147.0</ele><time>2026-03-28T17:32:35.001Z</time></trkpt><trkpt lat="44.33227520910234" lon="11.1872231748241"><ele>147.0</ele><time>2026-03-28T17:32:36.001Z</time></trkpt><trkpt lat="44.33235133158375" lon="11.187329127264226"><ele>147.0</ele><time>2026-03-28T17:32:37.001Z</time></trkpt><trkpt lat="44.33242379666867" lon="11.187435498396729"><ele>147.0</ele><time>2026-03-28T17:32:38.001Z</time></trkpt><trkpt lat="44.332495825937855" lon="11.187557613156018"><ele>147.0</ele><time>2026-03-28T17:32:39.001Z</time></trkpt><trkpt lat="44.33259185315619" lon="11.187716299630969"><ele>147.0</ele><time>2026-03-28T17:32:40.001Z</time></trkpt><trkpt lat="44.33266555438107" lon="11.187947477533648"><ele>147.0</ele><time>2026-03-28T17:32:41.001Z</time></trkpt><trkpt lat="44.332729939085255" lon="11.188129898565927"><ele>147.0</ele><time>2026-03-28T17:32:42.001Z</time></trkpt><trkpt lat="44.33276902949793" lon="11.188251205607266"><ele>147.0</ele><time>2026-03-28T17:32:43.001Z</time></trkpt><trkpt lat="44.332799598337786" lon="11.188344998966993"><ele>146.79999999999998</ele><time>2026-03-28T17:32:44.001Z</time></trkpt><trkpt lat="44.332828171806824" lon="11.188432669930602"><ele>146.6</ele><time>2026-03-28T17:32:45.001Z</time></trkpt><trkpt lat="44.33286659538062" lon="11.188551701930558"><ele>146.39999999999998</ele><time>2026-03-28T17:32:46.001Z</time></trkpt><trkpt lat="44.33291924611763" lon="11.188715017867171"><ele>146.2</ele><time>2026-03-28T17:32:47.001Z</time></trkpt><trkpt lat="44.33297493975412" lon="11.18888777245685"><ele>146.0</ele><time>2026-03-28T17:32:48.001Z</time></trkpt><trkpt lat="44.33303633507459" lon="11.189077560317152"><ele>145.66666666666666</ele><time>2026-03-28T17:32:49.001Z</time></trkpt><trkpt lat="44.333117791889755" lon="11.189278632314567"><ele>145.33333333333334</ele><time>2026-03-28T17:32:50.001Z</time></trkpt><trkpt lat="44.333184935943244" lon="11.189498980174687"><ele>145.0</ele><time>2026-03-28T17:32:51.001Z</time></trkpt><trkpt lat="44.333252744795715" lon="11.189711036721992"><ele>144.33333333333334</ele><time>2026-03-28T17:32:52.001Z</time></trkpt><trkpt lat="44.33332740197494" lon="11.18993864626968"><ele>143.66666666666666</ele><time>2026-03-28T17:32:53.001Z</time></trkpt><trkpt lat="44.333399886680475" lon="11.1901692357595"><ele>143.0</ele><time>2026-03-28T17:32:54.001Z</time></trkpt><trkpt lat="44.33347071972551" lon="11.190389400188906"><ele>143.0</ele><time>2026-03-28T17:32:55.001Z</time></trkpt><trkpt lat="44.3335427067265" lon="11.190610513055285"><ele>143.0</ele><time>2026-03-28T17:32:56.001Z</time></trkpt><trkpt lat="44.333614714745465" lon="11.190832561221118"><ele>143.0</ele><time>2026-03-28T17:32:57.001Z</time></trkpt><trkpt lat="44.333684701486696" lon="11.191051140655244"><ele>142.66666666666666</ele><time>2026-03-28T17:32:58.001Z</time></trkpt><trkpt lat="44.33375470500102" lon="11.191268217278276"><ele>142.33333333333334</ele><time>2026-03-28T17:32:59.001Z</time></trkpt><trkpt lat="44.333824043465505" lon="11.191479554020777"><ele>142.0</ele><time>2026-03-28T17:33:00.001Z</time></trkpt><trkpt lat="44.33389196977831" lon="11.191686795629582"><ele>142.0</ele><time>2026-03-28T17:33:01.001Z</time></trkpt><trkpt lat="44.33396032828063" lon="11.191893109746864"><ele>142.0</ele><time>2026-03-28T17:33:02.001Z</time></trkpt><trkpt lat="44.33402442632106" lon="11.1920940130367"><ele>142.0</ele><time>2026-03-28T17:33:03.001Z</time></trkpt><trkpt lat="44.33408687672395" lon="11.192295291635594"><ele>142.0</ele><time>2026-03-28T17:33:04.001Z</time></trkpt><trkpt lat="44.3341430218823" lon="11.192496105026398"><ele>142.0</ele><time>2026-03-28T17:33:05.001Z</time></trkpt><trkpt lat="44.334194867511904" lon="11.192696096267941"><ele>142.0</ele><time>2026-03-28T17:33:06.001Z</time></trkpt><trkpt lat="44.334243667900594" lon="11.192894525371727"><ele>142.0</ele><time>2026-03-28T17:33:07.001Z</time></trkpt><trkpt lat="44.33429382244822" lon="11.193095241560451"><ele>142.0</ele><time>2026-03-28T17:33:08.001Z</time></trkpt><trkpt lat="44.33433964995442" lon="11.193289220116693"><ele>142.0</ele><time>2026-03-28T17:33:09.001Z</time></trkpt><trkpt lat="44.33438595508958" lon="11.193481458518333"><ele>142.0</ele><time>2026-03-28T17:33:10.001Z</time></trkpt><trkpt lat="44.33443116097182" lon="11.193680673588739"><ele>141.33333333333334</ele><time>2026-03-28T17:33:11.001Z</time></trkpt><trkpt lat="44.33448588990995" lon="11.193909607055705"><ele>140.66666666666666</ele><time>2026-03-28T17:33:12.001Z</time></trkpt><trkpt lat="44.33454158405589" lon="11.194131180024252"><ele>140.0</ele><time>2026-03-28T17:33:13.001Z</time></trkpt><trkpt lat="44.33460480976657" lon="11.194370492326465"><ele>139.66666666666666</ele><time>2026-03-28T17:33:14.001Z</time></trkpt><trkpt lat="44.33466722387445" lon="11.194626943520525"><ele>139.33333333333334</ele><time>2026-03-28T17:33:15.001Z</time></trkpt><trkpt lat="44.33473131699186" lon="11.19489026701313"><ele>139.0</ele><time>2026-03-28T17:33:16.001Z</time></trkpt><trkpt lat="44.33479683722891" lon="11.195157834468066"><ele>142.33333333333334</ele><time>2026-03-28T17:33:17.001Z</time></trkpt><trkpt lat="44.334865156061376" lon="11.195422956261675"><ele>145.66666666666666</ele><time>2026-03-28T17:33:18Z</time></trkpt><trkpt lat="44.334935899467474" lon="11.19568729251593"><ele>149.0</ele><time>2026-03-28T17:33:19Z</time></trkpt><trkpt lat="44.33498881213484" lon="11.195945973335434"><ele>149.0</ele><time>2026-03-28T17:33:20Z</time></trkpt><trkpt lat="44.33504689134777" lon="11.196193995866599"><ele>149.0</ele><time>2026-03-28T17:33:21Z</time></trkpt><trkpt lat="44.33510706518744" lon="11.196443360890541"><ele>149.0</ele><time>2026-03-28T17:33:22Z</time></trkpt><trkpt lat="44.33516483064672" lon="11.196684916736176"><ele>147.66666666666666</ele><time>2026-03-28T17:33:23Z</time></trkpt><trkpt lat="44.33522220747487" lon="11.196916128027162"><ele>146.33333333333334</ele><time>2026-03-28T17:33:24Z</time></trkpt><trkpt lat="44.33527689856567" lon="11.197140136049617"><ele>145.0</ele><time>2026-03-28T17:33:25Z</time></trkpt><trkpt lat="44.33532918427578" lon="11.197353979762745"><ele>144.0</ele><time>2026-03-28T17:33:26Z</time></trkpt><trkpt lat="44.335375406728055" lon="11.197552236619867"><ele>143.0</ele><time>2026-03-28T17:33:27Z</time></trkpt><trkpt lat="44.335418540513224" lon="11.197731151573352"><ele>142.0</ele><time>2026-03-28T17:33:28Z</time></trkpt><trkpt lat="44.335447258556705" lon="11.197891259192337"><ele>141.0</ele><time>2026-03-28T17:33:29Z</time></trkpt><trkpt lat="44.33546149364573" lon="11.198058661655022"><ele>141.0</ele><time>2026-03-28T17:33:30Z</time></trkpt><trkpt lat="44.33542923283805" lon="11.198238733489244"><ele>141.0</ele><time>2026-03-28T17:33:31Z</time></trkpt><trkpt lat="44.33539679257005" lon="11.19847017914858"><ele>141.0</ele><time>2026-03-28T17:33:32Z</time></trkpt><trkpt lat="44.335350093119466" lon="11.19873934699894"><ele>143.33333333333334</ele><time>2026-03-28T17:33:33Z</time></trkpt><trkpt lat="44.33530420039225" lon="11.199007271354212"><ele>145.66666666666669</ele><time>2026-03-28T17:33:34Z</time></trkpt><trkpt lat="44.335278739411" lon="11.199253756190805"><ele>148.0</ele><time>2026-03-28T17:33:35Z</time></trkpt><trkpt lat="44.3352407927292" lon="11.199469022428676"><ele>148.0</ele><time>2026-03-28T17:33:36Z</time></trkpt><trkpt lat="44.33520613312633" lon="11.19966283285964"><ele>148.0</ele><time>2026-03-28T17:33:37Z</time></trkpt><trkpt lat="44.335183753876095" lon="11.199849562117404"><ele>148.0</ele><time>2026-03-28T17:33:38Z</time></trkpt><trkpt lat="44.33518415003863" lon="11.200026662627529"><ele>148.0</ele><time>2026-03-28T17:33:39Z</time></trkpt><trkpt lat="44.335204610044485" lon="11.200195651380904"><ele>149.25</ele><time>2026-03-28T17:33:40Z</time></trkpt><trkpt lat="44.33523776727755" lon="11.200362586048515"><ele>150.5</ele><time>2026-03-28T17:33:41Z</time></trkpt><trkpt lat="44.335302342041416" lon="11.200527591353552"><ele>151.75</ele><time>2026-03-28T17:33:42Z</time></trkpt><trkpt lat="44.335389471834645" lon="11.200669373422297"><ele>153.0</ele><time>2026-03-28T17:33:43Z</time></trkpt><trkpt lat="44.33551323826717" lon="11.200798475120274"><ele>160.0</ele><time>2026-03-28T17:33:44Z</time></trkpt><trkpt lat="44.33567810930935" lon="11.200977172357478"><ele>167.0</ele><time>2026-03-28T17:33:45Z</time></trkpt><trkpt lat="44.335896498634064" lon="11.201155437348422"><ele>167.0</ele><time>2026-03-28T17:33:46Z</time></trkpt><trkpt lat="44.33612761355705" lon="11.20138664648901"><ele>167.0</ele><time>2026-03-28T17:33:47Z</time></trkpt><trkpt lat="44.33637710455936" lon="11.201615737529485"><ele>165.0</ele><time>2026-03-28T17:33:48Z</time></trkpt><trkpt lat="44.33660019558206" lon="11.201815951017837"><ele>163.0</ele><time>2026-03-28T17:33:49Z</time></trkpt><trkpt lat="44.33678034132074" lon="11.201987642915935"><ele>163.0</ele><time>2026-03-28T17:33:50Z</time></trkpt><trkpt lat="44.33689325200409" lon="11.202179980459025"><ele>163.0</ele><time>2026-03-28T17:33:51Z</time></trkpt><trkpt lat="44.33695067750825" lon="11.202368092200278"><ele>163.0</ele><time>2026-03-28T17:33:52Z</time></trkpt><trkpt lat="44.336971868040116" lon="11.202592537429258"><ele>161.33333333333334</ele><time>2026-03-28T17:33:53Z</time></trkpt><trkpt lat="44.33700989617023" lon="11.202817645382808"><ele>159.66666666666666</ele><time>2026-03-28T17:33:54Z</time></trkpt><trkpt lat="44.337064905631706" lon="11.2030259685774"><ele>158.0</ele><time>2026-03-28T17:33:55Z</time></trkpt><trkpt lat="44.33716616856484" lon="11.203185947797257"><ele>156.66666666666666</ele><time>2026-03-28T17:33:56Z</time></trkpt><trkpt lat="44.337306626091475" lon="11.203303259060538"><ele>155.33333333333334</ele><time>2026-03-28T17:33:57Z</time></trkpt><trkpt lat="44.33748614229341" lon="11.203377377595046"><ele>154.0</ele><time>2026-03-28T17:33:58Z</time></trkpt><trkpt lat="44.33769966159512" lon="11.203419965668317"><ele>154.0</ele><time>2026-03-28T17:33:59Z</time></trkpt><trkpt lat="44.3379092639314" lon="11.203404237273652"><ele>154.0</ele><time>2026-03-28T17:34:00Z</time></trkpt><trkpt lat="44.33813528250189" lon="11.203330286525434"><ele>154.0</ele><time>2026-03-28T17:34:01Z</time></trkpt><trkpt lat="44.33838900279257" lon="11.203192776420922"><ele>156.0</ele><time>2026-03-28T17:34:02Z</time></trkpt><trkpt lat="44.33867614034314" lon="11.203056022736863"><ele>158.0</ele><time>2026-03-28T17:34:03Z</time></trkpt><trkpt lat="44.33896643161891" lon="11.202950393445155"><ele>158.0</ele><time>2026-03-28T17:34:04Z</time></trkpt><trkpt lat="44.3392504762301" lon="11.202915255253263"><ele>158.0</ele><time>2026-03-28T17:34:05Z</time></trkpt><trkpt lat="44.339514285756515" lon="11.202887916367803"><ele>154.0</ele><time>2026-03-28T17:34:06Z</time></trkpt><trkpt lat="44.33978926124699" lon="11.20288231425513"><ele>150.0</ele><time>2026-03-28T17:34:07Z</time></trkpt><trkpt lat="44.34005100268854" lon="11.202880128183473"><ele>150.0</ele><time>2026-03-28T17:34:08Z</time></trkpt><trkpt lat="44.34027509887657" lon="11.202946367656022"><ele>150.0</ele><time>2026-03-28T17:34:09Z</time></trkpt><trkpt lat="44.34045349055859" lon="11.203031520474829"><ele>150.0</ele><time>2026-03-28T17:34:10Z</time></trkpt><trkpt lat="44.3406135295951" lon="11.203156663297502"><ele>144.66666666666666</ele><time>2026-03-28T17:34:11Z</time></trkpt><trkpt lat="44.340753731691535" lon="11.203314963689982"><ele>139.33333333333331</ele><time>2026-03-28T17:34:12Z</time></trkpt><trkpt lat="44.34089196764522" lon="11.203495551456475"><ele>134.0</ele><time>2026-03-28T17:34:13Z</time></trkpt><trkpt lat="44.34105021611498" lon="11.203678478567245"><ele>134.0</ele><time>2026-03-28T17:34:14Z</time></trkpt><trkpt lat="44.34120576050068" lon="11.203898271927848"><ele>134.0</ele><time>2026-03-28T17:34:15Z</time></trkpt><trkpt lat="44.34136735750684" lon="11.20411898575362"><ele>134.0</ele><time>2026-03-28T17:34:16Z</time></trkpt><trkpt lat="44.34153816944011" lon="11.204341270248543"><ele>134.5</ele><time>2026-03-28T17:34:17Z</time></trkpt><trkpt lat="44.34166889903458" lon="11.204519044390292"><ele>135.0</ele><time>2026-03-28T17:34:18Z</time></trkpt><trkpt lat="44.34175946088151" lon="11.204647910048761"><ele>135.5</ele><time>2026-03-28T17:34:19.001Z</time></trkpt><trkpt lat="44.34185174453602" lon="11.204769296021688"><ele>136.0</ele><time>2026-03-28T17:34:20.001Z</time></trkpt><trkpt lat="44.341967927141646" lon="11.204925881768068"><ele>137.33333333333334</ele><time>2026-03-28T17:34:21.001Z</time></trkpt><trkpt lat="44.34211269223272" lon="11.205124392901345"><ele>138.66666666666666</ele><time>2026-03-28T17:34:22.001Z</time></trkpt><trkpt lat="44.34226208930673" lon="11.205335588882386"><ele>140.0</ele><time>2026-03-28T17:34:23.001Z</time></trkpt><trkpt lat="44.34239927010433" lon="11.205521345947862"><ele>136.66666666666666</ele><time>2026-03-28T17:34:24.001Z</time></trkpt><trkpt lat="44.34252238632168" lon="11.2056923572594"><ele>133.33333333333334</ele><time>2026-03-28T17:34:25.001Z</time></trkpt><trkpt lat="44.34264460006757" lon="11.20586157285207"><ele>130.0</ele><time>2026-03-28T17:34:26.001Z</time></trkpt><trkpt lat="44.34277631691585" lon="11.206039990626486"><ele>130.0</ele><time>2026-03-28T17:34:27.001Z</time></trkpt><trkpt lat="44.34292502076509" lon="11.20623676017043"><ele>130.0</ele><time>2026-03-28T17:34:28.001Z</time></trkpt><trkpt lat="44.343063123977366" lon="11.206429415362717"><ele>130.0</ele><time>2026-03-28T17:34:29.001Z</time></trkpt><trkpt lat="44.3431752223786" lon="11.206586088319684"><ele>131.25</ele><time>2026-03-28T17:34:30.001Z</time></trkpt><trkpt lat="44.3432704526946" lon="11.206697203672752"><ele>132.5</ele><time>2026-03-28T17:34:31.001Z</time></trkpt><trkpt lat="44.34337674782269" lon="11.206770406640974"><ele>133.75</ele><time>2026-03-28T17:34:32.001Z</time></trkpt><trkpt lat="44.34350387261643" lon="11.206815148730058"><ele>135.0</ele><time>2026-03-28T17:34:33.001Z</time></trkpt><trkpt lat="44.343645774233124" lon="11.20681300849353"><ele>135.0</ele><time>2026-03-28T17:34:34.001Z</time></trkpt><trkpt lat="44.3438047366224" lon="11.206771974574572"><ele>135.0</ele><time>2026-03-28T17:34:35.001Z</time></trkpt><trkpt lat="44.34399313118183" lon="11.206690989890891"><ele>135.0</ele><time>2026-03-28T17:34:36.001Z</time></trkpt><trkpt lat="44.3441885597051" lon="11.206605553767266"><ele>139.0</ele><time>2026-03-28T17:34:37.001Z</time></trkpt><trkpt lat="44.34437350429235" lon="11.206526937088459"><ele>143.0</ele><time>2026-03-28T17:34:38.001Z</time></trkpt><trkpt lat="44.34451687578118" lon="11.206466876830916"><ele>147.0</ele><time>2026-03-28T17:34:39.001Z</time></trkpt><trkpt lat="44.34463490647184" lon="11.206402166223919"><ele>146.5</ele><time>2026-03-28T17:34:40.001Z</time></trkpt><trkpt lat="44.34473243551843" lon="11.20632574081056"><ele>146.0</ele><time>2026-03-28T17:34:41.001Z</time></trkpt><trkpt lat="44.344830804519695" lon="11.206230284015355"><ele>145.5</ele><time>2026-03-28T17:34:42.001Z</time></trkpt><trkpt lat="44.34491920588507" lon="11.20611741818053"><ele>145.0</ele><time>2026-03-28T17:34:43.001Z</time></trkpt><trkpt lat="44.34498845457133" lon="11.205996863425367"><ele>145.0</ele><time>2026-03-28T17:34:44.001Z</time></trkpt><trkpt lat="44.34503848573592" lon="11.205870600204165"><ele>145.0</ele><time>2026-03-28T17:34:45.001Z</time></trkpt><trkpt lat="44.34508354894602" lon="11.205732267426017"><ele>145.0</ele><time>2026-03-28T17:34:46.001Z</time></trkpt><trkpt lat="44.345128706254364" lon="11.20558778393118"><ele>145.0</ele><time>2026-03-28T17:34:47.001Z</time></trkpt><trkpt lat="44.34517351139989" lon="11.20545660641306"><ele>145.0</ele><time>2026-03-28T17:34:48.001Z</time></trkpt><trkpt lat="44.34521219157969" lon="11.205336275733396"><ele>146.6</ele><time>2026-03-28T17:34:49.001Z</time></trkpt><trkpt lat="44.345246384923676" lon="11.205217284635685"><ele>148.2</ele><time>2026-03-28T17:34:50.001Z</time></trkpt><trkpt lat="44.34528978373095" lon="11.20510463073192"><ele>149.8</ele><time>2026-03-28T17:34:51.001Z</time></trkpt><trkpt lat="44.34534290539973" lon="11.204995577991705"><ele>151.4</ele><time>2026-03-28T17:34:52.001Z</time></trkpt><trkpt lat="44.34540477421163" lon="11.20489583132278"><ele>153.0</ele><time>2026-03-28T17:34:53.001Z</time></trkpt><trkpt lat="44.345479240467995" lon="11.20480019910406"><ele>150.6</ele><time>2026-03-28T17:34:54.001Z</time></trkpt><trkpt lat="44.345563227785874" lon="11.204729847603291"><ele>148.20000000000002</ele><time>2026-03-28T17:34:55.001Z</time></trkpt><trkpt lat="44.345657747760846" lon="11.204682168527977"><ele>145.8</ele><time>2026-03-28T17:34:56.001Z</time></trkpt><trkpt lat="44.3457570397356" lon="11.204663573372061"><ele>143.4</ele><time>2026-03-28T17:34:57.001Z</time></trkpt><trkpt lat="44.345859950736916" lon="11.204694151882745"><ele>141.0</ele><time>2026-03-28T17:34:58.001Z</time></trkpt><trkpt lat="44.34598386007993" lon="11.204735083601033"><ele>141.0</ele><time>2026-03-28T17:34:59.001Z</time></trkpt><trkpt lat="44.346144037948015" lon="11.2048190696482"><ele>141.0</ele><time>2026-03-28T17:35:00.001Z</time></trkpt><trkpt lat="44.346339478439255" lon="11.204933603353506"><ele>141.0</ele><time>2026-03-28T17:35:01.001Z</time></trkpt><trkpt lat="44.34651873193357" lon="11.205014554285627"><ele>140.0</ele><time>2026-03-28T17:35:02.001Z</time></trkpt><trkpt lat="44.3466770345891" lon="11.205102003583088"><ele>139.0</ele><time>2026-03-28T17:35:03.001Z</time></trkpt><trkpt lat="44.34686525066803" lon="11.20512999841677"><ele>138.0</ele><time>2026-03-28T17:35:04.001Z</time></trkpt><trkpt lat="44.34710152872989" lon="11.205084083565476"><ele>140.0</ele><time>2026-03-28T17:35:05.001Z</time></trkpt><trkpt lat="44.34734169452049" lon="11.20501667858721"><ele>142.0</ele><time>2026-03-28T17:35:06.001Z</time></trkpt><trkpt lat="44.34756439148162" lon="11.20498440737164"><ele>142.0</ele><time>2026-03-28T17:35:07.001Z</time></trkpt><trkpt lat="44.347799420011086" lon="11.205054471924711"><ele>142.0</ele><time>2026-03-28T17:35:08.001Z</time></trkpt><trkpt lat="44.34807645689672" lon="11.205142491106864"><ele>143.0</ele><time>2026-03-28T17:35:09.001Z</time></trkpt><trkpt lat="44.34837774494639" lon="11.205268585802738"><ele>144.0</ele><time>2026-03-28T17:35:10.001Z</time></trkpt><trkpt lat="44.3486974054494" lon="11.205420942802109"><ele>147.5</ele><time>2026-03-28T17:35:11.001Z</time></trkpt><trkpt lat="44.34901041094245" lon="11.205595896247726"><ele>151.0</ele><time>2026-03-28T17:35:12.001Z</time></trkpt><trkpt lat="44.34931820011394" lon="11.20573220394275"><ele>144.5</ele><time>2026-03-28T17:35:13.001Z</time></trkpt><trkpt lat="44.34960912034085" lon="11.205834370109564"><ele>138.0</ele><time>2026-03-28T17:35:14.001Z</time></trkpt><trkpt lat="44.34987057709452" lon="11.205924810030211"><ele>138.0</ele><time>2026-03-28T17:35:15.001Z</time></trkpt><trkpt lat="44.35011145603545" lon="11.205996583102882"><ele>138.0</ele><time>2026-03-28T17:35:16.001Z</time></trkpt><trkpt lat="44.3503648405715" lon="11.206039808391326"><ele>140.0</ele><time>2026-03-28T17:35:17.001Z</time></trkpt><trkpt lat="44.35063935243867" lon="11.2060335876443"><ele>142.0</ele><time>2026-03-28T17:35:18.001Z</time></trkpt><trkpt lat="44.350930163485764" lon="11.205985450539796"><ele>142.0</ele><time>2026-03-28T17:35:19.001Z</time></trkpt><trkpt lat="44.351214156492766" lon="11.205944154877038"><ele>142.0</ele><time>2026-03-28T17:35:20.001Z</time></trkpt><trkpt lat="44.35147882329147" lon="11.20590728387193"><ele>144.0</ele><time>2026-03-28T17:35:21.001Z</time></trkpt><trkpt lat="44.351743570579565" lon="11.205906981409852"><ele>146.0</ele><time>2026-03-28T17:35:22Z</time></trkpt><trkpt lat="44.352015863575" lon="11.205940453651726"><ele>145.5</ele><time>2026-03-28T17:35:23Z</time></trkpt><trkpt lat="44.352314155568294" lon="11.205986966942776"><ele>145.0</ele><time>2026-03-28T17:35:24Z</time></trkpt><trkpt lat="44.35261751781672" lon="11.206031269191978"><ele>145.0</ele><time>2026-03-28T17:35:25Z</time></trkpt><trkpt lat="44.35290463888243" lon="11.206065524139353"><ele>145.0</ele><time>2026-03-28T17:35:26Z</time></trkpt><trkpt lat="44.35316951154284" lon="11.206099943930154"><ele>148.5</ele><time>2026-03-28T17:35:27Z</time></trkpt><trkpt lat="44.35345477341118" lon="11.20616105621126"><ele>152.0</ele><time>2026-03-28T17:35:28Z</time></trkpt><trkpt lat="44.35377620530844" lon="11.206258450734335"><ele>154.0</ele><time>2026-03-28T17:35:29Z</time></trkpt><trkpt lat="44.35408387750406" lon="11.206354127270005"><ele>156.0</ele><time>2026-03-28T17:35:30Z</time></trkpt><trkpt lat="44.35435710983485" lon="11.206411208177796"><ele>156.0</ele><time>2026-03-28T17:35:31Z</time></trkpt><trkpt lat="44.35463097533399" lon="11.206452518648602"><ele>156.0</ele><time>2026-03-28T17:35:32Z</time></trkpt><trkpt lat="44.35491035681026" lon="11.206469329486811"><ele>147.0</ele><time>2026-03-28T17:35:33Z</time></trkpt><trkpt lat="44.355159860001194" lon="11.206516510020897"><ele>138.0</ele><time>2026-03-28T17:35:34Z</time></trkpt><trkpt lat="44.355364338623296" lon="11.206556079387529"><ele>137.33333333333334</ele><time>2026-03-28T17:35:35Z</time></trkpt><trkpt lat="44.3555541934337" lon="11.206578543289933"><ele>136.66666666666669</ele><time>2026-03-28T17:35:36Z</time></trkpt><trkpt lat="44.35573538289043" lon="11.206687936963181"><ele>136.0</ele><time>2026-03-28T17:35:37Z</time></trkpt><trkpt lat="44.35592159212235" lon="11.20688784943458"><ele>136.0</ele><time>2026-03-28T17:35:38Z</time></trkpt><trkpt lat="44.356122153547744" lon="11.20713655699369"><ele>136.0</ele><time>2026-03-28T17:35:39Z</time></trkpt><trkpt lat="44.35630702489938" lon="11.207429456162835"><ele>136.0</ele><time>2026-03-28T17:35:40Z</time></trkpt><trkpt lat="44.35648812206448" lon="11.207643738711287"><ele>136.0</ele><time>2026-03-28T17:35:41Z</time></trkpt><trkpt lat="44.356638000782446" lon="11.207851521529248"><ele>136.0</ele><time>2026-03-28T17:35:42Z</time></trkpt><trkpt lat="44.3567572966875" lon="11.208060575537655"><ele>133.33333333333334</ele><time>2026-03-28T17:35:43Z</time></trkpt><trkpt lat="44.35685917091572" lon="11.208272165715469"><ele>130.66666666666666</ele><time>2026-03-28T17:35:44Z</time></trkpt><trkpt lat="44.35697087285311" lon="11.208433948456975"><ele>128.0</ele><time>2026-03-28T17:35:45Z</time></trkpt><trkpt lat="44.357079052937785" lon="11.208581755554055"><ele>128.0</ele><time>2026-03-28T17:35:46Z</time></trkpt><trkpt lat="44.357192032282754" lon="11.208664792936439"><ele>128.0</ele><time>2026-03-28T17:35:47Z</time></trkpt><trkpt lat="44.35729335317711" lon="11.208690810789477"><ele>128.0</ele><time>2026-03-28T17:35:48Z</time></trkpt><trkpt lat="44.3573718273057" lon="11.208731571934411"><ele>128.0</ele><time>2026-03-28T17:35:49Z</time></trkpt><trkpt lat="44.35746920556399" lon="11.208683003530558"><ele>128.0</ele><time>2026-03-28T17:35:50Z</time></trkpt><trkpt lat="44.35756074604146" lon="11.208638195228712"><ele>128.8</ele><time>2026-03-28T17:35:51Z</time></trkpt><trkpt lat="44.357652828610526" lon="11.208574441088217"><ele>129.60000000000002</ele><time>2026-03-28T17:35:52Z</time></trkpt><trkpt lat="44.35773592058948" lon="11.208493128999434"><ele>130.39999999999998</ele><time>2026-03-28T17:35:53Z</time></trkpt><trkpt lat="44.35781342453149" lon="11.20839706488911"><ele>131.2</ele><time>2026-03-28T17:35:54Z</time></trkpt><trkpt lat="44.35787518282278" lon="11.208308629216953"><ele>132.0</ele><time>2026-03-28T17:35:55Z</time></trkpt><trkpt lat="44.35793995170821" lon="11.208213352338129"><ele>131.5</ele><time>2026-03-28T17:35:57Z</time></trkpt><trkpt lat="44.35802273607388" lon="11.208090499404113"><ele>131.0</ele><time>2026-03-28T17:36:52Z</time></trkpt><trkpt lat="44.358113767878415" lon="11.207955407158487"><ele>130.5</ele><time>2026-03-28T17:36:53Z</time></trkpt><trkpt lat="44.35822394671442" lon="11.207791900352408"><ele>130.0</ele><time>2026-03-28T17:36:54Z</time></trkpt><trkpt lat="44.358346627570945" lon="11.207609840578183"><ele>130.0</ele><time>2026-03-28T17:36:55Z</time></trkpt><trkpt lat="44.35845240577273" lon="11.207452864732664"><ele>130.0</ele><time>2026-03-28T17:36:56Z</time></trkpt><trkpt lat="44.358541739982954" lon="11.207320086634406"><ele>130.0</ele><time>2026-03-28T17:36:57Z</time></trkpt><trkpt lat="44.35863501958125" lon="11.207181449548377"><ele>130.0</ele><time>2026-03-28T17:36:58Z</time></trkpt><trkpt lat="44.35873303483786" lon="11.207035774552825"><ele>126.4</ele><time>2026-03-28T17:36:59Z</time></trkpt><trkpt lat="44.35882212239089" lon="11.206903357119625"><ele>122.8</ele><time>2026-03-28T17:37:00Z</time></trkpt><trkpt lat="44.358887474960305" lon="11.206806069873407"><ele>119.19999999999999</ele><time>2026-03-28T17:37:01Z</time></trkpt><trkpt lat="44.35895164609808" lon="11.206710541248205"><ele>115.6</ele><time>2026-03-28T17:37:02Z</time></trkpt><trkpt lat="44.359011625484214" lon="11.20662125279881"><ele>112.0</ele><time>2026-03-28T17:37:03Z</time></trkpt><trkpt lat="44.359069418492595" lon="11.206535218943104"><ele>116.39999999999999</ele><time>2026-03-28T17:37:04Z</time></trkpt><trkpt lat="44.359127881940566" lon="11.20645351950619"><ele>120.79999999999998</ele><time>2026-03-28T17:37:05Z</time></trkpt><trkpt lat="44.35919127115612" lon="11.206370928430973"><ele>125.2</ele><time>2026-03-28T17:37:06Z</time></trkpt><trkpt lat="44.35925389807787" lon="11.206289330818056"><ele>129.6</ele><time>2026-03-28T17:37:07Z</time></trkpt><trkpt lat="44.35932346026526" lon="11.206198696808938"><ele>134.0</ele><time>2026-03-28T17:37:08Z</time></trkpt><trkpt lat="44.35940211403322" lon="11.206096217442276"><ele>134.0</ele><time>2026-03-28T17:37:09Z</time></trkpt><trkpt lat="44.35948627578132" lon="11.20598779521459"><ele>134.0</ele><time>2026-03-28T17:37:10Z</time></trkpt><trkpt lat="44.35957052102152" lon="11.205880564380744"><ele>134.0</ele><time>2026-03-28T17:37:11Z</time></trkpt><trkpt lat="44.35965185620084" lon="11.205777505624189"><ele>134.0</ele><time>2026-03-28T17:37:12Z</time></trkpt><trkpt lat="44.359728206273765" lon="11.205683546913255"><ele>134.0</ele><time>2026-03-28T17:37:13Z</time></trkpt><trkpt lat="44.35980184819316" lon="11.20559674046767"><ele>133.8</ele><time>2026-03-28T17:37:14Z</time></trkpt><trkpt lat="44.35987315162357" lon="11.205520253923105"><ele>133.60000000000002</ele><time>2026-03-28T17:37:15Z</time></trkpt><trkpt lat="44.3599511506289" lon="11.205441926165632"><ele>133.4</ele><time>2026-03-28T17:37:16Z</time></trkpt><trkpt lat="44.3600335444297" lon="11.205367957020401"><ele>133.20000000000002</ele><time>2026-03-28T17:37:17Z</time></trkpt><trkpt lat="44.360117302950904" lon="11.205293195226469"><ele>133.0</ele><time>2026-03-28T17:37:18Z</time></trkpt><trkpt lat="44.36020383978907" lon="11.205224669211132"><ele>133.0</ele><time>2026-03-28T17:37:19Z</time></trkpt><trkpt lat="44.360292997839174" lon="11.205164925487193"><ele>133.0</ele><time>2026-03-28T17:37:20Z</time></trkpt><trkpt lat="44.36037935605216" lon="11.20512193149525"><ele>133.0</ele><time>2026-03-28T17:37:21Z</time></trkpt><trkpt lat="44.360469783808234" lon="11.205084878120388"><ele>133.0</ele><time>2026-03-28T17:37:22Z</time></trkpt><trkpt lat="44.36055954282512" lon="11.20504917424822"><ele>133.0</ele><time>2026-03-28T17:37:23Z</time></trkpt><trkpt lat="44.36064561155012" lon="11.205015465805838"><ele>129.20000000000002</ele><time>2026-03-28T17:37:24Z</time></trkpt><trkpt lat="44.360735838886995" lon="11.204980871912564"><ele>125.4</ele><time>2026-03-28T17:37:25Z</time></trkpt><trkpt lat="44.36082343055317" lon="11.204947541457496"><ele>121.60000000000001</ele><time>2026-03-28T17:37:26Z</time></trkpt><trkpt lat="44.360916814030894" lon="11.20491238892691"><ele>117.80000000000001</ele><time>2026-03-28T17:37:27Z</time></trkpt><trkpt lat="44.36101252338206" lon="11.204876360880007"><ele>114.0</ele><time>2026-03-28T17:37:28Z</time></trkpt><trkpt lat="44.36111334299925" lon="11.204838409096533"><ele>119.0</ele><time>2026-03-28T17:37:29Z</time></trkpt><trkpt lat="44.361218753383035" lon="11.204798783872782"><ele>124.0</ele><time>2026-03-28T17:37:30Z</time></trkpt><trkpt lat="44.36132921110182" lon="11.204758719216908"><ele>129.0</ele><time>2026-03-28T17:37:31Z</time></trkpt><trkpt lat="44.36144048545776" lon="11.204718250440095"><ele>134.0</ele><time>2026-03-28T17:37:32Z</time></trkpt><trkpt lat="44.361550618759416" lon="11.204677911153885"><ele>134.0</ele><time>2026-03-28T17:37:33Z</time></trkpt><trkpt lat="44.36165736181772" lon="11.204644271633882"><ele>134.0</ele><time>2026-03-28T17:37:34Z</time></trkpt><trkpt lat="44.36176554458754" lon="11.204621778241417"><ele>134.0</ele><time>2026-03-28T17:37:35Z</time></trkpt><trkpt lat="44.36187218083662" lon="11.204618337073681"><ele>134.0</ele><time>2026-03-28T17:37:36Z</time></trkpt><trkpt lat="44.36198001677812" lon="11.204625249793"><ele>134.0</ele><time>2026-03-28T17:37:37Z</time></trkpt><trkpt lat="44.3620825911321" lon="11.204647280158508"><ele>134.0</ele><time>2026-03-28T17:37:38Z</time></trkpt><trkpt lat="44.36217305597272" lon="11.204681808690975"><ele>134.0</ele><time>2026-03-28T17:37:39Z</time></trkpt><trkpt lat="44.36226632992246" lon="11.20472938786966"><ele>134.0</ele><time>2026-03-28T17:37:40Z</time></trkpt><trkpt lat="44.362377123105944" lon="11.204796579552267"><ele>134.0</ele><time>2026-03-28T17:37:41Z</time></trkpt><trkpt lat="44.362487680168805" lon="11.20490331016616"><ele>134.0</ele><time>2026-03-28T17:37:42Z</time></trkpt><trkpt lat="44.36258036456286" lon="11.20501597108958"><ele>131.0</ele><time>2026-03-28T17:37:43Z</time></trkpt><trkpt lat="44.36265403780319" lon="11.205128205835289"><ele>128.0</ele><time>2026-03-28T17:37:44Z</time></trkpt><trkpt lat="44.36272237530515" lon="11.205245205704992"><ele>125.0</ele><time>2026-03-28T17:37:45Z</time></trkpt><trkpt lat="44.362759788697936" lon="11.205389082425755"><ele>122.0</ele><time>2026-03-28T17:37:46Z</time></trkpt><trkpt lat="44.36280662094688" lon="11.205527983912539"><ele>119.0</ele><time>2026-03-28T17:37:47Z</time></trkpt><trkpt lat="44.362854494227555" lon="11.205676798113423"><ele>117.75</ele><time>2026-03-28T17:37:48Z</time></trkpt><trkpt lat="44.36290002681559" lon="11.205833629601258"><ele>116.5</ele><time>2026-03-28T17:37:49Z</time></trkpt><trkpt lat="44.36294618165886" lon="11.205990754897977"><ele>115.25</ele><time>2026-03-28T17:37:50Z</time></trkpt><trkpt lat="44.3629979238265" lon="11.206149903392916"><ele>114.0</ele><time>2026-03-28T17:37:51Z</time></trkpt><trkpt lat="44.363061919947135" lon="11.206283832839107"><ele>116.75</ele><time>2026-03-28T17:37:52Z</time></trkpt><trkpt lat="44.36311377867121" lon="11.20642015042207"><ele>119.5</ele><time>2026-03-28T17:37:53Z</time></trkpt><trkpt lat="44.36315965195368" lon="11.206562970958917"><ele>122.25</ele><time>2026-03-28T17:37:54Z</time></trkpt><trkpt lat="44.363228478315285" lon="11.206696942915364"><ele>125.0</ele><time>2026-03-28T17:37:55Z</time></trkpt><trkpt lat="44.363300077966166" lon="11.206832830741057"><ele>125.0</ele><time>2026-03-28T17:37:56Z</time></trkpt><trkpt lat="44.36337574983125" lon="11.206978388628738"><ele>125.0</ele><time>2026-03-28T17:37:57Z</time></trkpt><trkpt lat="44.36345750000605" lon="11.207137769836446"><ele>125.0</ele><time>2026-03-28T17:37:58Z</time></trkpt><trkpt lat="44.363553867347676" lon="11.207325648693665"><ele>125.0</ele><time>2026-03-28T17:37:59Z</time></trkpt><trkpt lat="44.36366713618301" lon="11.20755116776204"><ele>125.33333333333333</ele><time>2026-03-28T17:38:00Z</time></trkpt><trkpt lat="44.363771488077816" lon="11.207770527508593"><ele>125.66666666666666</ele><time>2026-03-28T17:38:01Z</time></trkpt><trkpt lat="44.363866468311535" lon="11.20798319632952"><ele>126.0</ele><time>2026-03-28T17:38:02Z</time></trkpt><trkpt lat="44.36396225598642" lon="11.208203250726642"><ele>126.0</ele><time>2026-03-28T17:38:03Z</time></trkpt><trkpt lat="44.3640484765435" lon="11.208402235634502"><ele>126.0</ele><time>2026-03-28T17:38:04Z</time></trkpt><trkpt lat="44.36412718582151" lon="11.20858714247928"><ele>126.0</ele><time>2026-03-28T17:38:05Z</time></trkpt><trkpt lat="44.36420131147782" lon="11.20875578955284"><ele>126.0</ele><time>2026-03-28T17:38:06Z</time></trkpt><trkpt lat="44.36427603592318" lon="11.208916185460065"><ele>126.0</ele><time>2026-03-28T17:38:07Z</time></trkpt><trkpt lat="44.364353197261565" lon="11.209073366677694"><ele>126.0</ele><time>2026-03-28T17:38:08Z</time></trkpt><trkpt lat="44.36443706228109" lon="11.209235975691392"><ele>126.0</ele><time>2026-03-28T17:38:09Z</time></trkpt><trkpt lat="44.36453106918113" lon="11.20936357126694"><ele>125.19999999999999</ele><time>2026-03-28T17:38:10Z</time></trkpt><trkpt lat="44.36460108029588" lon="11.209482834526426"><ele>124.39999999999999</ele><time>2026-03-28T17:38:11Z</time></trkpt><trkpt lat="44.36466976696428" lon="11.209595019627521"><ele>123.6</ele><time>2026-03-28T17:38:12Z</time></trkpt><trkpt lat="44.364736110891876" lon="11.209708502782037"><ele>122.8</ele><time>2026-03-28T17:38:13Z</time></trkpt><trkpt lat="44.36478244414119" lon="11.209848578253238"><ele>122.0</ele><time>2026-03-28T17:38:14Z</time></trkpt><trkpt lat="44.36484437693344" lon="11.209992968101492"><ele>122.0</ele><time>2026-03-28T17:38:15Z</time></trkpt><trkpt lat="44.36490697265769" lon="11.210150810540503"><ele>122.0</ele><time>2026-03-28T17:38:16Z</time></trkpt><trkpt lat="44.364965597811164" lon="11.210310075825276"><ele>122.0</ele><time>2026-03-28T17:38:17Z</time></trkpt><trkpt lat="44.365032522162146" lon="11.21046051968"><ele>122.0</ele><time>2026-03-28T17:38:18Z</time></trkpt><trkpt lat="44.365097992294196" lon="11.210640674881915"><ele>119.33333333333333</ele><time>2026-03-28T17:38:19Z</time></trkpt><trkpt lat="44.36517804807132" lon="11.210890006202408"><ele>116.66666666666666</ele><time>2026-03-28T17:38:20Z</time></trkpt><trkpt lat="44.365285422401165" lon="11.211194975785785"><ele>114.0</ele><time>2026-03-28T17:38:21Z</time></trkpt><trkpt lat="44.36539087531099" lon="11.211509809317699"><ele>113.0</ele><time>2026-03-28T17:38:22Z</time></trkpt><trkpt lat="44.36549085186575" lon="11.211791577803773"><ele>112.0</ele><time>2026-03-28T17:38:23Z</time></trkpt><trkpt lat="44.36557172094024" lon="11.212081084990583"><ele>111.0</ele><time>2026-03-28T17:38:24Z</time></trkpt><trkpt lat="44.36565334011203" lon="11.212362949004305"><ele>118.33333333333334</ele><time>2026-03-28T17:38:25Z</time></trkpt><trkpt lat="44.3657284873012" lon="11.212623649523165"><ele>125.66666666666667</ele><time>2026-03-28T17:38:26Z</time></trkpt><trkpt lat="44.365811507367916" lon="11.21286896533563"><ele>133.0</ele><time>2026-03-28T17:38:27Z</time></trkpt><trkpt lat="44.36591843666477" lon="11.213096283145235"><ele>129.33333333333334</ele><time>2026-03-28T17:38:28Z</time></trkpt><trkpt lat="44.3660462763119" lon="11.213321378111136"><ele>125.66666666666666</ele><time>2026-03-28T17:38:29Z</time></trkpt><trkpt lat="44.36619281645313" lon="11.21351715559636"><ele>122.0</ele><time>2026-03-28T17:38:30Z</time></trkpt><trkpt lat="44.36635453029706" lon="11.213673302510497"><ele>125.33333333333333</ele><time>2026-03-28T17:38:31Z</time></trkpt><trkpt lat="44.36653468086154" lon="11.213781500671137"><ele>128.66666666666666</ele><time>2026-03-28T17:38:32Z</time></trkpt><trkpt lat="44.36674058539039" lon="11.213860459091112"><ele>132.0</ele><time>2026-03-28T17:38:33Z</time></trkpt><trkpt lat="44.3669641380981" lon="11.213908467380977"><ele>133.5</ele><time>2026-03-28T17:38:34Z</time></trkpt><trkpt lat="44.36720530206012" lon="11.21393535310262"><ele>135.0</ele><time>2026-03-28T17:38:35Z</time></trkpt><trkpt lat="44.36743655078818" lon="11.213967735299903"><ele>133.33333333333334</ele><time>2026-03-28T17:38:36Z</time></trkpt><trkpt lat="44.36764022271859" lon="11.214066439471466"><ele>131.66666666666669</ele><time>2026-03-28T17:38:37Z</time></trkpt><trkpt lat="44.367855529317005" lon="11.214169048610286"><ele>130.0</ele><time>2026-03-28T17:38:38Z</time></trkpt><trkpt lat="44.36806583337512" lon="11.214306159814287"><ele>130.0</ele><time>2026-03-28T17:38:39Z</time></trkpt><trkpt lat="44.36826434171107" lon="11.214483264625969"><ele>130.0</ele><time>2026-03-28T17:38:40Z</time></trkpt><trkpt lat="44.368458630375684" lon="11.214682691486583"><ele>123.5</ele><time>2026-03-28T17:38:41Z</time></trkpt><trkpt lat="44.36862668427854" lon="11.214919665534628"><ele>117.0</ele><time>2026-03-28T17:38:42Z</time></trkpt><trkpt lat="44.368782347836735" lon="11.215168322237416"><ele>123.5</ele><time>2026-03-28T17:38:43Z</time></trkpt><trkpt lat="44.3689404992011" lon="11.2154009430823"><ele>130.0</ele><time>2026-03-28T17:38:44Z</time></trkpt><trkpt lat="44.369103829679204" lon="11.215631194609793"><ele>126.5</ele><time>2026-03-28T17:38:45Z</time></trkpt><trkpt lat="44.36926729469541" lon="11.215860064388755"><ele>123.0</ele><time>2026-03-28T17:38:46Z</time></trkpt><trkpt lat="44.369429038207066" lon="11.216082946620183"><ele>123.0</ele><time>2026-03-28T17:38:47Z</time></trkpt><trkpt lat="44.369593354814924" lon="11.216306009848273"><ele>123.0</ele><time>2026-03-28T17:38:48Z</time></trkpt><trkpt lat="44.36975308647347" lon="11.216526560869928"><ele>126.33333333333334</ele><time>2026-03-28T17:38:49Z</time></trkpt><trkpt lat="44.36991047957544" lon="11.2167505488917"><ele>129.66666666666669</ele><time>2026-03-28T17:38:50Z</time></trkpt><trkpt lat="44.370061169403925" lon="11.21697009589653"><ele>133.0</ele><time>2026-03-28T17:38:51Z</time></trkpt><trkpt lat="44.37021056036769" lon="11.217170498005734"><ele>128.66666666666669</ele><time>2026-03-28T17:38:52Z</time></trkpt><trkpt lat="44.370317682243716" lon="11.21737462627244"><ele>124.33333333333334</ele><time>2026-03-28T17:38:53Z</time></trkpt><trkpt lat="44.370387675020226" lon="11.217571024026642"><ele>120.0</ele><time>2026-03-28T17:38:54Z</time></trkpt><trkpt lat="44.37042193939349" lon="11.217794284758652"><ele>120.0</ele><time>2026-03-28T17:38:55Z</time></trkpt><trkpt lat="44.370451945213524" lon="11.218073285149012"><ele>120.0</ele><time>2026-03-28T17:38:56Z</time></trkpt><trkpt lat="44.370496958244274" lon="11.218412325410918"><ele>120.0</ele><time>2026-03-28T17:38:57Z</time></trkpt><trkpt lat="44.37054731883488" lon="11.218788673294497"><ele>122.5</ele><time>2026-03-28T17:38:58Z</time></trkpt><trkpt lat="44.3705978456866" lon="11.219150122618043"><ele>125.0</ele><time>2026-03-28T17:38:59Z</time></trkpt><trkpt lat="44.370660103082336" lon="11.219464358891836"><ele>125.0</ele><time>2026-03-28T17:39:00Z</time></trkpt><trkpt lat="44.37071766128667" lon="11.219750142140938"><ele>125.0</ele><time>2026-03-28T17:39:01Z</time></trkpt><trkpt lat="44.37081562484042" lon="11.22002375211779"><ele>125.0</ele><time>2026-03-28T17:39:02Z</time></trkpt><trkpt lat="44.37094095690691" lon="11.220301139174003"><ele>121.0</ele><time>2026-03-28T17:39:03Z</time></trkpt><trkpt lat="44.37109037259999" lon="11.220573989471617"><ele>117.0</ele><time>2026-03-28T17:39:04Z</time></trkpt><trkpt lat="44.371257134564644" lon="11.220841073220024"><ele>123.5</ele><time>2026-03-28T17:39:05Z</time></trkpt><trkpt lat="44.37143696100574" lon="11.221108093396378"><ele>130.0</ele><time>2026-03-28T17:39:06Z</time></trkpt><trkpt lat="44.371617595911" lon="11.221375059410896"><ele>123.0</ele><time>2026-03-28T17:39:07Z</time></trkpt><trkpt lat="44.37178878704779" lon="11.221634373236844"><ele>116.0</ele><time>2026-03-28T17:39:08Z</time></trkpt><trkpt lat="44.37195814450179" lon="11.221887146396233"><ele>116.0</ele><time>2026-03-28T17:39:09Z</time></trkpt><trkpt lat="44.37213114333758" lon="11.222135130389491"><ele>116.0</ele><time>2026-03-28T17:39:10Z</time></trkpt><trkpt lat="44.37231229416395" lon="11.222381247712315"><ele>120.0</ele><time>2026-03-28T17:39:11Z</time></trkpt><trkpt lat="44.37250438187994" lon="11.222597668563132"><ele>124.0</ele><time>2026-03-28T17:39:12Z</time></trkpt><trkpt lat="44.37270538165203" lon="11.22280826985033"><ele>124.0</ele><time>2026-03-28T17:39:13Z</time></trkpt><trkpt lat="44.37291104419197" lon="11.22300618081233"><ele>124.0</ele><time>2026-03-28T17:39:14Z</time></trkpt><trkpt lat="44.37311880993234" lon="11.22320117630653"><ele>124.0</ele><time>2026-03-28T17:39:15Z</time></trkpt><trkpt lat="44.37332032092001" lon="11.223390212510676"><ele>124.0</ele><time>2026-03-28T17:39:16Z</time></trkpt><trkpt lat="44.37351072734856" lon="11.223619451095715"><ele>124.0</ele><time>2026-03-28T17:39:17Z</time></trkpt><trkpt lat="44.37369209544356" lon="11.223865321995907"><ele>124.0</ele><time>2026-03-28T17:39:18Z</time></trkpt><trkpt lat="44.37386762046917" lon="11.224124635187634"><ele>123.0</ele><time>2026-03-28T17:39:19Z</time></trkpt><trkpt lat="44.37403272549694" lon="11.224366639449872"><ele>122.0</ele><time>2026-03-28T17:39:20Z</time></trkpt><trkpt lat="44.374208168883605" lon="11.224589568105767"><ele>118.5</ele><time>2026-03-28T17:39:21Z</time></trkpt><trkpt lat="44.37437735642725" lon="11.224821090799287"><ele>115.0</ele><time>2026-03-28T17:39:22Z</time></trkpt><trkpt lat="44.37455785520482" lon="11.225032403513943"><ele>119.0</ele><time>2026-03-28T17:39:23Z</time></trkpt><trkpt lat="44.37474651435046" lon="11.225230526852378"><ele>123.0</ele><time>2026-03-28T17:39:24Z</time></trkpt><trkpt lat="44.374943245268746" lon="11.22542559038051"><ele>123.0</ele><time>2026-03-28T17:39:25Z</time></trkpt><trkpt lat="44.37514636468987" lon="11.22562173624882"><ele>123.0</ele><time>2026-03-28T17:39:26Z</time></trkpt><trkpt lat="44.375353630131166" lon="11.225837895794417"><ele>126.5</ele><time>2026-03-28T17:39:27Z</time></trkpt><trkpt lat="44.37554250596525" lon="11.226093873581926"><ele>130.0</ele><time>2026-03-28T17:39:28Z</time></trkpt><trkpt lat="44.37573927882214" lon="11.226337796501724"><ele>123.0</ele><time>2026-03-28T17:39:29Z</time></trkpt><trkpt lat="44.375911172775524" lon="11.226606367955698"><ele>116.0</ele><time>2026-03-28T17:39:30Z</time></trkpt><trkpt lat="44.37606885212355" lon="11.226882915637322"><ele>116.0</ele><time>2026-03-28T17:39:31Z</time></trkpt><trkpt lat="44.37622471042974" lon="11.227180065165893"><ele>116.0</ele><time>2026-03-28T17:39:32Z</time></trkpt><trkpt lat="44.37636165544121" lon="11.227511865546346"><ele>117.5</ele><time>2026-03-28T17:39:33Z</time></trkpt><trkpt lat="44.37649766284914" lon="11.227850599017009"><ele>119.0</ele><time>2026-03-28T17:39:34Z</time></trkpt><trkpt lat="44.376630104693305" lon="11.228195513982554"><ele>119.0</ele><time>2026-03-28T17:39:35Z</time></trkpt><trkpt lat="44.376774546075694" lon="11.228530129452176"><ele>119.0</ele><time>2026-03-28T17:39:36Z</time></trkpt><trkpt lat="44.37690816761286" lon="11.228878240788472"><ele>115.0</ele><time>2026-03-28T17:39:37Z</time></trkpt><trkpt lat="44.37704406987413" lon="11.229199630730536"><ele>111.0</ele><time>2026-03-28T17:39:38Z</time></trkpt><trkpt lat="44.37719409817721" lon="11.229499928094418"><ele>116.0</ele><time>2026-03-28T17:39:39Z</time></trkpt><trkpt lat="44.37736214322466" lon="11.229775764213695"><ele>121.0</ele><time>2026-03-28T17:39:40Z</time></trkpt><trkpt lat="44.3775584870486" lon="11.230024128472808"><ele>121.0</ele><time>2026-03-28T17:39:41Z</time></trkpt><trkpt lat="44.3777730289769" lon="11.230257817738659"><ele>121.0</ele><time>2026-03-28T17:39:42Z</time></trkpt><trkpt lat="44.37798848344397" lon="11.23048014648409"><ele>121.5</ele><time>2026-03-28T17:39:43Z</time></trkpt><trkpt lat="44.3782012581105" lon="11.230692551217237"><ele>122.0</ele><time>2026-03-28T17:39:44Z</time></trkpt><trkpt lat="44.37840622907323" lon="11.230895199241964"><ele>122.0</ele><time>2026-03-28T17:39:45Z</time></trkpt><trkpt lat="44.37861742021039" lon="11.231093282964785"><ele>122.0</ele><time>2026-03-28T17:39:46Z</time></trkpt><trkpt lat="44.37884729373616" lon="11.231285588570929"><ele>123.0</ele><time>2026-03-28T17:39:47Z</time></trkpt><trkpt lat="44.37907502967657" lon="11.231486008743131"><ele>124.0</ele><time>2026-03-28T17:39:48Z</time></trkpt><trkpt lat="44.3793028754162" lon="11.231676187073582"><ele>124.0</ele><time>2026-03-28T17:39:49Z</time></trkpt><trkpt lat="44.379534142862276" lon="11.231846921167023"><ele>124.0</ele><time>2026-03-28T17:39:50Z</time></trkpt><trkpt lat="44.37975612882136" lon="11.232041141546281"><ele>126.0</ele><time>2026-03-28T17:39:51Z</time></trkpt><trkpt lat="44.37996729681858" lon="11.232271571838664"><ele>128.0</ele><time>2026-03-28T17:39:52Z</time></trkpt><trkpt lat="44.38017836960693" lon="11.232492961097153"><ele>128.0</ele><time>2026-03-28T17:39:53Z</time></trkpt><trkpt lat="44.38039520273615" lon="11.232710448808044"><ele>128.0</ele><time>2026-03-28T17:39:54Z</time></trkpt><trkpt lat="44.380606841276176" lon="11.232936283103006"><ele>129.0</ele><time>2026-03-28T17:39:55Z</time></trkpt><trkpt lat="44.3808173224972" lon="11.23315306566181"><ele>130.0</ele><time>2026-03-28T17:39:56Z</time></trkpt><trkpt lat="44.38102643730791" lon="11.233368335329297"><ele>130.0</ele><time>2026-03-28T17:39:57Z</time></trkpt><trkpt lat="44.38123316993148" lon="11.233583186053483"><ele>130.0</ele><time>2026-03-28T17:39:58Z</time></trkpt><trkpt lat="44.38144233698103" lon="11.233802352426759"><ele>127.5</ele><time>2026-03-28T17:39:59Z</time></trkpt><trkpt lat="44.381658528046884" lon="11.234025563132613"><ele>125.0</ele><time>2026-03-28T17:40:00Z</time></trkpt><trkpt lat="44.381875436952164" lon="11.234255791334604"><ele>125.0</ele><time>2026-03-28T17:40:01Z</time></trkpt><trkpt lat="44.38209432012739" lon="11.234488468818103"><ele>125.0</ele><time>2026-03-28T17:40:02Z</time></trkpt><trkpt lat="44.38231517308581" lon="11.234717756933364"><ele>124.5</ele><time>2026-03-28T17:40:03Z</time></trkpt><trkpt lat="44.38252893590398" lon="11.23493855030491"><ele>124.0</ele><time>2026-03-28T17:40:04Z</time></trkpt><trkpt lat="44.38274087280328" lon="11.235150202141822"><ele>124.0</ele><time>2026-03-28T17:40:05Z</time></trkpt><trkpt lat="44.382954096799" lon="11.235355908382823"><ele>124.0</ele><time>2026-03-28T17:40:06Z</time></trkpt><trkpt lat="44.38317774872496" lon="11.235551395043883"><ele>124.0</ele><time>2026-03-28T17:40:07Z</time></trkpt><trkpt lat="44.3834112186265" lon="11.235737579147875"><ele>124.0</ele><time>2026-03-28T17:40:08Z</time></trkpt><trkpt lat="44.38365223052075" lon="11.235909558802772"><ele>125.5</ele><time>2026-03-28T17:40:09Z</time></trkpt><trkpt lat="44.38389796677371" lon="11.236068482175678"><ele>127.0</ele><time>2026-03-28T17:40:10Z</time></trkpt><trkpt lat="44.384140223570405" lon="11.236211765684326"><ele>127.0</ele><time>2026-03-28T17:40:11Z</time></trkpt><trkpt lat="44.38436791286222" lon="11.236333055563396"><ele>127.0</ele><time>2026-03-28T17:40:12Z</time></trkpt><trkpt lat="44.38458488644854" lon="11.236462249298864"><ele>127.5</ele><time>2026-03-28T17:40:13Z</time></trkpt><trkpt lat="44.38480347109243" lon="11.23661195868061"><ele>128.0</ele><time>2026-03-28T17:40:14Z</time></trkpt><trkpt lat="44.38500557324145" lon="11.236803902810223"><ele>128.0</ele><time>2026-03-28T17:40:15Z</time></trkpt><trkpt lat="44.38522080733626" lon="11.236982335649015"><ele>128.0</ele><time>2026-03-28T17:40:16Z</time></trkpt><trkpt lat="44.38542566038041" lon="11.237196042192068"><ele>127.0</ele><time>2026-03-28T17:40:17Z</time></trkpt><trkpt lat="44.385611453757974" lon="11.237445376127715"><ele>126.0</ele><time>2026-03-28T17:40:18Z</time></trkpt><trkpt lat="44.38579704807165" lon="11.237706357278887"><ele>126.0</ele><time>2026-03-28T17:40:19Z</time></trkpt><trkpt lat="44.385980984739405" lon="11.237993716219965"><ele>126.0</ele><time>2026-03-28T17:40:20Z</time></trkpt><trkpt lat="44.386187811176505" lon="11.238296874033423"><ele>127.0</ele><time>2026-03-28T17:40:21Z</time></trkpt><trkpt lat="44.38638800091776" lon="11.23862107833665"><ele>128.0</ele><time>2026-03-28T17:40:22Z</time></trkpt><trkpt lat="44.386575386484125" lon="11.238925670906946"><ele>126.0</ele><time>2026-03-28T17:40:23Z</time></trkpt><trkpt lat="44.386749756336556" lon="11.239209248164924"><ele>124.0</ele><time>2026-03-28T17:40:24Z</time></trkpt><trkpt lat="44.38691677118037" lon="11.239490931399365"><ele>122.0</ele><time>2026-03-28T17:40:25Z</time></trkpt><trkpt lat="44.38705297488284" lon="11.239802959177773"><ele>120.0</ele><time>2026-03-28T17:40:26Z</time></trkpt><trkpt lat="44.3871846354473" lon="11.240113840123874"><ele>136.0</ele><time>2026-03-28T17:40:27Z</time></trkpt><trkpt lat="44.38728768197988" lon="11.240454468355537"><ele>152.0</ele><time>2026-03-28T17:40:28Z</time></trkpt><trkpt lat="44.38735046918459" lon="11.240816233562704"><ele>152.0</ele><time>2026-03-28T17:40:29Z</time></trkpt><trkpt lat="44.387408783954115" lon="11.2412083981348"><ele>152.0</ele><time>2026-03-28T17:40:30Z</time></trkpt><trkpt lat="44.387460999853694" lon="11.241617257293695"><ele>150.5</ele><time>2026-03-28T17:40:31Z</time></trkpt><trkpt lat="44.387517660389605" lon="11.241981371607375"><ele>149.0</ele><time>2026-03-28T17:40:32Z</time></trkpt><trkpt lat="44.38754583978355" lon="11.242273470924365"><ele>143.5</ele><time>2026-03-28T17:40:33Z</time></trkpt><trkpt lat="44.387555812302956" lon="11.242479131477294"><ele>138.0</ele><time>2026-03-28T17:40:34Z</time></trkpt><trkpt lat="44.387568893199" lon="11.242611489206253"><ele>132.5</ele><time>2026-03-28T17:40:35Z</time></trkpt><trkpt lat="44.38764264681482" lon="11.242749656692824"><ele>127.0</ele><time>2026-03-28T17:40:36Z</time></trkpt><trkpt lat="44.38775417800293" lon="11.242928657329346"><ele>127.0</ele><time>2026-03-28T17:40:37Z</time></trkpt><trkpt lat="44.38789959762806" lon="11.243121060777002"><ele>127.0</ele><time>2026-03-28T17:40:38Z</time></trkpt><trkpt lat="44.38805781296906" lon="11.243326088522977"><ele>127.0</ele><time>2026-03-28T17:40:39Z</time></trkpt><trkpt lat="44.38819495978049" lon="11.243529117938044"><ele>120.66666666666667</ele><time>2026-03-28T17:40:40Z</time></trkpt><trkpt lat="44.388347130084895" lon="11.24370529256746"><ele>114.33333333333334</ele><time>2026-03-28T17:40:41Z</time></trkpt><trkpt lat="44.388514590810395" lon="11.243841553121483"><ele>108.0</ele><time>2026-03-28T17:40:42Z</time></trkpt><trkpt lat="44.38868061946748" lon="11.243965466630648"><ele>108.0</ele><time>2026-03-28T17:40:43Z</time></trkpt><trkpt lat="44.388840411980055" lon="11.244136657262585"><ele>108.0</ele><time>2026-03-28T17:40:44Z</time></trkpt><trkpt lat="44.38897174625249" lon="11.244345738095792"><ele>108.0</ele><time>2026-03-28T17:40:45Z</time></trkpt><trkpt lat="44.38910207327433" lon="11.244556061774253"><ele>108.0</ele><time>2026-03-28T17:40:46Z</time></trkpt><trkpt lat="44.38923187998283" lon="11.244749060469918"><ele>108.0</ele><time>2026-03-28T17:40:47Z</time></trkpt><trkpt lat="44.389350792364546" lon="11.244932147198593"><ele>108.0</ele><time>2026-03-28T17:40:48Z</time></trkpt><trkpt lat="44.38947528475282" lon="11.245067054705517"><ele>108.0</ele><time>2026-03-28T17:40:49Z</time></trkpt><trkpt lat="44.38961682316245" lon="11.245161939577633"><ele>108.0</ele><time>2026-03-28T17:40:50Z</time></trkpt><trkpt lat="44.389775888094825" lon="11.245228279733727"><ele>108.0</ele><time>2026-03-28T17:40:51Z</time></trkpt><trkpt lat="44.38994512364412" lon="11.24530185444255"><ele>112.66666666666666</ele><time>2026-03-28T17:40:52Z</time></trkpt><trkpt lat="44.39011100412452" lon="11.245371211993005"><ele>117.33333333333333</ele><time>2026-03-28T17:40:53Z</time></trkpt><trkpt lat="44.390259126519645" lon="11.24544077032891"><ele>122.0</ele><time>2026-03-28T17:40:54Z</time></trkpt><trkpt lat="44.390384789620626" lon="11.245495830615983"><ele>122.0</ele><time>2026-03-28T17:40:55Z</time></trkpt><trkpt lat="44.39048015991503" lon="11.245559469857083"><ele>121.99999999999999</ele><time>2026-03-28T17:40:56Z</time></trkpt><trkpt lat="44.390546134180425" lon="11.245643804305432"><ele>121.99999999999999</ele><time>2026-03-28T17:40:57Z</time></trkpt><trkpt lat="44.39058192769434" lon="11.245769623898312"><ele>122.0</ele><time>2026-03-28T17:40:58Z</time></trkpt><trkpt lat="44.39058674923802" lon="11.245914541936342"><ele>122.0</ele><time>2026-03-28T17:40:59Z</time></trkpt><trkpt lat="44.39054623870868" lon="11.246061489006307"><ele>118.33333333333333</ele><time>2026-03-28T17:41:00Z</time></trkpt><trkpt lat="44.39045713153425" lon="11.246188593280388"><ele>114.66666666666666</ele><time>2026-03-28T17:41:01Z</time></trkpt><trkpt lat="44.39035715189343" lon="11.2463136211839"><ele>111.0</ele><time>2026-03-28T17:41:02Z</time></trkpt><trkpt lat="44.39016062463902" lon="11.246329624840834"><ele>111.0</ele><time>2026-03-28T17:41:03Z</time></trkpt><trkpt lat="44.38997167813061" lon="11.246397926780352"><ele>111.0</ele><time>2026-03-28T17:41:04Z</time></trkpt><trkpt lat="44.38976142784605" lon="11.246498299994691"><ele>111.0</ele><time>2026-03-28T17:41:05Z</time></trkpt><trkpt lat="44.38954697699081" lon="11.246602299944044"><ele>107.66666666666666</ele><time>2026-03-28T17:41:06Z</time></trkpt><trkpt lat="44.38934842539342" lon="11.246699135869923"><ele>104.33333333333333</ele><time>2026-03-28T17:41:07Z</time></trkpt><trkpt lat="44.389169534600384" lon="11.24678342730787"><ele>101.0</ele><time>2026-03-28T17:41:08Z</time></trkpt><trkpt lat="44.38900628716664" lon="11.246857255271511"><ele>101.0</ele><time>2026-03-28T17:41:09Z</time></trkpt><trkpt lat="44.388855046169105" lon="11.246931814314237"><ele>101.0</ele><time>2026-03-28T17:41:10Z</time></trkpt><trkpt lat="44.388712306572906" lon="11.247000992348381"><ele>101.0</ele><time>2026-03-28T17:41:11Z</time></trkpt><trkpt lat="44.38860034833435" lon="11.24705417320406"><ele>101.0</ele><time>2026-03-28T17:41:12Z</time></trkpt><trkpt lat="44.38853423111584" lon="11.247086202334591"><ele>102.83333333333333</ele><time>2026-03-28T17:41:13Z</time></trkpt><trkpt lat="44.388435687003664" lon="11.24710769135514"><ele>104.66666666666666</ele><time>2026-03-28T17:41:15Z</time></trkpt><trkpt lat="44.38836569357578" lon="11.247106552159709"><ele>106.5</ele><time>2026-03-28T17:41:16Z</time></trkpt><trkpt lat="44.3882917212116" lon="11.247104696184724"><ele>108.33333333333334</ele><time>2026-03-28T17:41:17Z</time></trkpt><trkpt lat="44.38821481780324" lon="11.247130405864809"><ele>110.16666666666667</ele><time>2026-03-28T17:41:18Z</time></trkpt><trkpt lat="44.388159545908636" lon="11.24718135322577"><ele>112.0</ele><time>2026-03-28T17:41:19Z</time></trkpt><trkpt lat="44.38811495876626" lon="11.247265269824254"><ele>113.50000000000001</ele><time>2026-03-28T17:41:20Z</time></trkpt><trkpt lat="44.388096458621824" lon="11.247363349541757"><ele>115.0</ele><time>2026-03-28T17:41:21Z</time></trkpt><trkpt lat="44.38811763162133" lon="11.247472334445936"><ele>116.5</ele><time>2026-03-28T17:41:22Z</time></trkpt><trkpt lat="44.388174266745075" lon="11.247567151614774"><ele>118.0</ele><time>2026-03-28T17:41:23Z</time></trkpt><trkpt lat="44.388245707142524" lon="11.247628646906188"><ele>119.50000000000001</ele><time>2026-03-28T17:41:24Z</time></trkpt><trkpt lat="44.388329357749285" lon="11.247666152213586"><ele>121.0</ele><time>2026-03-28T17:41:25Z</time></trkpt><trkpt lat="44.38841894450746" lon="11.247626808974822"><ele>121.0</ele><time>2026-03-28T17:41:26Z</time></trkpt><trkpt lat="44.38850931758537" lon="11.247793774335166"><ele>121.0</ele><time>2026-03-28T17:41:27Z</time></trkpt><trkpt lat="44.3886015714547" lon="11.247921260409946"><ele>121.0</ele><time>2026-03-28T17:41:28Z</time></trkpt><trkpt lat="44.388698131366674" lon="11.248105125506125"><ele>121.0</ele><time>2026-03-28T17:41:29Z</time></trkpt><trkpt lat="44.38878494015251" lon="11.24829213233057"><ele>118.0</ele><time>2026-03-28T17:41:30Z</time></trkpt><trkpt lat="44.3888683734065" lon="11.248480422698622"><ele>115.0</ele><time>2026-03-28T17:41:31Z</time></trkpt><trkpt lat="44.38895604239531" lon="11.24867045597095"><ele>112.0</ele><time>2026-03-28T17:41:32Z</time></trkpt><trkpt lat="44.38904339815498" lon="11.248859114407267"><ele>114.0</ele><time>2026-03-28T17:41:33Z</time></trkpt><trkpt lat="44.38911286176511" lon="11.249033401828951"><ele>116.0</ele><time>2026-03-28T17:41:34Z</time></trkpt><trkpt lat="44.389172409362125" lon="11.249190912430624"><ele>118.0</ele><time>2026-03-28T17:41:35Z</time></trkpt><trkpt lat="44.38922140075367" lon="11.24935572112054"><ele>120.0</ele><time>2026-03-28T17:41:36Z</time></trkpt><trkpt lat="44.38924974141487" lon="11.249528786168776"><ele>120.0</ele><time>2026-03-28T17:41:37Z</time></trkpt><trkpt lat="44.38925913646362" lon="11.249686666050705"><ele>120.0</ele><time>2026-03-28T17:41:38Z</time></trkpt><trkpt lat="44.389250264836164" lon="11.249818781554868"><ele>120.0</ele><time>2026-03-28T17:41:39Z</time></trkpt><trkpt lat="44.389233861817615" lon="11.24991769576659"><ele>120.0</ele><time>2026-03-28T17:41:40Z</time></trkpt><trkpt lat="44.389193108720335" lon="11.25001471654282"><ele>120.0</ele><time>2026-03-28T17:41:41Z</time></trkpt><trkpt lat="44.38913004254882" lon="11.250106288425807"><ele>120.2</ele><time>2026-03-28T17:41:42Z</time></trkpt><trkpt lat="44.38907100133092" lon="11.250197936240374"><ele>120.4</ele><time>2026-03-28T17:41:43Z</time></trkpt><trkpt lat="44.38903864207064" lon="11.250320805081389"><ele>120.6</ele><time>2026-03-28T17:41:44Z</time></trkpt><trkpt lat="44.3890466429912" lon="11.250459255629286"><ele>120.8</ele><time>2026-03-28T17:41:45Z</time></trkpt><trkpt lat="44.38910341086828" lon="11.250578235488987"><ele>121.0</ele><time>2026-03-28T17:41:46Z</time></trkpt><trkpt lat="44.389181204086555" lon="11.250695686687967"><ele>121.66666666666667</ele><time>2026-03-28T17:41:47Z</time></trkpt><trkpt lat="44.38922467726768" lon="11.250873459155635"><ele>122.33333333333334</ele><time>2026-03-28T17:41:48Z</time></trkpt><trkpt lat="44.38925164923245" lon="11.25111075332543"><ele>123.0</ele><time>2026-03-28T17:41:49Z</time></trkpt><trkpt lat="44.38927786794999" lon="11.251351729415562"><ele>122.66666666666666</ele><time>2026-03-28T17:41:50Z</time></trkpt><trkpt lat="44.38930230937121" lon="11.251580189338753"><ele>122.33333333333333</ele><time>2026-03-28T17:41:51Z</time></trkpt><trkpt lat="44.389326387961376" lon="11.251803980106333"><ele>122.0</ele><time>2026-03-28T17:41:52Z</time></trkpt><trkpt lat="44.38934876975578" lon="11.252023006742883"><ele>122.0</ele><time>2026-03-28T17:41:53Z</time></trkpt><trkpt lat="44.38937104520598" lon="11.252250150415364"><ele>122.0</ele><time>2026-03-28T17:41:54Z</time></trkpt><trkpt lat="44.38939996902892" lon="11.252488148776138"><ele>122.0</ele><time>2026-03-28T17:41:55Z</time></trkpt><trkpt lat="44.389427981689266" lon="11.252746282290293"><ele>122.0</ele><time>2026-03-28T17:41:56Z</time></trkpt><trkpt lat="44.38945385023495" lon="11.253010161693437"><ele>122.0</ele><time>2026-03-28T17:41:57Z</time></trkpt><trkpt lat="44.3894772021756" lon="11.253276899758145"><ele>122.0</ele><time>2026-03-28T17:41:58Z</time></trkpt><trkpt lat="44.389505311611856" lon="11.25357511891426"><ele>121.66666666666666</ele><time>2026-03-28T17:41:59Z</time></trkpt><trkpt lat="44.389532386611464" lon="11.253869378486607"><ele>121.33333333333334</ele><time>2026-03-28T17:42:00Z</time></trkpt><trkpt lat="44.389558831105404" lon="11.254187168649484"><ele>121.0</ele><time>2026-03-28T17:42:01Z</time></trkpt><trkpt lat="44.3895847017868" lon="11.254527939178866"><ele>121.5</ele><time>2026-03-28T17:42:02Z</time></trkpt><trkpt lat="44.38960957619715" lon="11.254873358219275"><ele>122.0</ele><time>2026-03-28T17:42:03Z</time></trkpt><trkpt lat="44.389634028697614" lon="11.255220626377257"><ele>122.0</ele><time>2026-03-28T17:42:04Z</time></trkpt><trkpt lat="44.389660779035836" lon="11.255560030024172"><ele>122.0</ele><time>2026-03-28T17:42:05Z</time></trkpt><trkpt lat="44.3896973520049" lon="11.255896461513874"><ele>119.0</ele><time>2026-03-28T17:42:06Z</time></trkpt><trkpt lat="44.38976255626391" lon="11.256235807815177"><ele>116.0</ele><time>2026-03-28T17:42:07Z</time></trkpt><trkpt lat="44.3898461370339" lon="11.256568868965816"><ele>113.0</ele><time>2026-03-28T17:42:08Z</time></trkpt><trkpt lat="44.38996800631643" lon="11.256899730685301"><ele>110.0</ele><time>2026-03-28T17:42:09Z</time></trkpt><trkpt lat="44.3901273791206" lon="11.257217319254968"><ele>110.0</ele><time>2026-03-28T17:42:10Z</time></trkpt><trkpt lat="44.39031472627712" lon="11.257512418757969"><ele>110.0</ele><time>2026-03-28T17:42:11Z</time></trkpt><trkpt lat="44.39052382619937" lon="11.25777378649225"><ele>110.0</ele><time>2026-03-28T17:42:12Z</time></trkpt><trkpt lat="44.390758097629586" lon="11.257998759330238"><ele>110.0</ele><time>2026-03-28T17:42:13Z</time></trkpt><trkpt lat="44.391012632618505" lon="11.258163783056283"><ele>110.5</ele><time>2026-03-28T17:42:14Z</time></trkpt><trkpt lat="44.39127283123743" lon="11.258287854812773"><ele>111.0</ele><time>2026-03-28T17:42:15Z</time></trkpt><trkpt lat="44.391525827052696" lon="11.258362814963009"><ele>108.0</ele><time>2026-03-28T17:42:16Z</time></trkpt><trkpt lat="44.391774926474675" lon="11.258395038980868"><ele>105.0</ele><time>2026-03-28T17:42:17Z</time></trkpt><trkpt lat="44.39201878372672" lon="11.25839123355501"><ele>100.0</ele><time>2026-03-28T17:42:18Z</time></trkpt><trkpt lat="44.392262933352434" lon="11.258345383464317"><ele>95.0</ele><time>2026-03-28T17:42:19Z</time></trkpt><trkpt lat="44.39249738278012" lon="11.258272612119303"><ele>95.0</ele><time>2026-03-28T17:42:20Z</time></trkpt><trkpt lat="44.39272133761196" lon="11.258187300602252"><ele>95.0</ele><time>2026-03-28T17:42:21Z</time></trkpt><trkpt lat="44.39293216857339" lon="11.258097824449212"><ele>93.33333333333334</ele><time>2026-03-28T17:42:22Z</time></trkpt><trkpt lat="44.393136990732586" lon="11.258016302647931"><ele>91.66666666666667</ele><time>2026-03-28T17:42:23Z</time></trkpt><trkpt lat="44.39334347961234" lon="11.25793984569902"><ele>90.0</ele><time>2026-03-28T17:42:24Z</time></trkpt><trkpt lat="44.39355002169868" lon="11.257858909417042"><ele>90.0</ele><time>2026-03-28T17:42:25Z</time></trkpt><trkpt lat="44.393756834535516" lon="11.257778143284119"><ele>90.0</ele><time>2026-03-28T17:42:26Z</time></trkpt><trkpt lat="44.39395300320605" lon="11.257703353938656"><ele>90.0</ele><time>2026-03-28T17:42:27Z</time></trkpt><trkpt lat="44.394133404564336" lon="11.257635362898304"><ele>90.66666666666667</ele><time>2026-03-28T17:42:28Z</time></trkpt><trkpt lat="44.394303890299085" lon="11.257570053950296"><ele>91.33333333333334</ele><time>2026-03-28T17:42:29Z</time></trkpt><trkpt lat="44.394464961155066" lon="11.257507523300623"><ele>92.0</ele><time>2026-03-28T17:42:30Z</time></trkpt><trkpt lat="44.39462233439408" lon="11.25744992737494"><ele>92.33333333333334</ele><time>2026-03-28T17:42:31Z</time></trkpt><trkpt lat="44.3947896090349" lon="11.25740615321305"><ele>92.66666666666667</ele><time>2026-03-28T17:42:32Z</time></trkpt><trkpt lat="44.39495967859642" lon="11.257340772806828"><ele>93.0</ele><time>2026-03-28T17:42:33Z</time></trkpt><trkpt lat="44.39514066220401" lon="11.257282308668028"><ele>94.66666666666666</ele><time>2026-03-28T17:42:34Z</time></trkpt><trkpt lat="44.395323359598805" lon="11.257238745533895"><ele>96.33333333333333</ele><time>2026-03-28T17:42:35Z</time></trkpt><trkpt lat="44.39551687206837" lon="11.257210660312747"><ele>98.0</ele><time>2026-03-28T17:42:36Z</time></trkpt><trkpt lat="44.39573030453208" lon="11.257204419930497"><ele>99.5</ele><time>2026-03-28T17:42:37Z</time></trkpt><trkpt lat="44.39595938094135" lon="11.25722528373308"><ele>101.0</ele><time>2026-03-28T17:42:38Z</time></trkpt><trkpt lat="44.39619466663316" lon="11.25726287048501"><ele>101.66666666666666</ele><time>2026-03-28T17:42:39Z</time></trkpt><trkpt lat="44.39641237140194" lon="11.257331194851135"><ele>102.33333333333334</ele><time>2026-03-28T17:42:40Z</time></trkpt><trkpt lat="44.39662369296269" lon="11.25742629137297"><ele>103.0</ele><time>2026-03-28T17:42:41Z</time></trkpt><trkpt lat="44.39684781582365" lon="11.25756130359806"><ele>103.0</ele><time>2026-03-28T17:42:42Z</time></trkpt><trkpt lat="44.39708671877852" lon="11.257744732376622"><ele>103.0</ele><time>2026-03-28T17:42:43Z</time></trkpt><trkpt lat="44.397325913624165" lon="11.257961255692578"><ele>101.0</ele><time>2026-03-28T17:42:44Z</time></trkpt><trkpt lat="44.39756917926661" lon="11.2582233163332"><ele>99.0</ele><time>2026-03-28T17:42:45Z</time></trkpt><trkpt lat="44.39781900544554" lon="11.258495150729805"><ele>100.0</ele><time>2026-03-28T17:42:46Z</time></trkpt><trkpt lat="44.398058111390974" lon="11.258755320952416"><ele>101.0</ele><time>2026-03-28T17:42:47Z</time></trkpt><trkpt lat="44.39828278422227" lon="11.258979439812"><ele>101.0</ele><time>2026-03-28T17:42:48Z</time></trkpt><trkpt lat="44.39848031039375" lon="11.259201305847323"><ele>101.0</ele><time>2026-03-28T17:42:49Z</time></trkpt><trkpt lat="44.39867786575172" lon="11.259408659333134"><ele>101.0</ele><time>2026-03-28T17:42:50Z</time></trkpt><trkpt lat="44.3988811521114" lon="11.259610082459588"><ele>101.0</ele><time>2026-03-28T17:42:51Z</time></trkpt><trkpt lat="44.39909761527659" lon="11.259799689687107"><ele>101.0</ele><time>2026-03-28T17:42:52Z</time></trkpt><trkpt lat="44.399321819878494" lon="11.259982111138267"><ele>101.0</ele><time>2026-03-28T17:42:53Z</time></trkpt><trkpt lat="44.399532922945355" lon="11.26018524465184"><ele>101.0</ele><time>2026-03-28T17:42:54Z</time></trkpt><trkpt lat="44.399751751754316" lon="11.2603726333351"><ele>101.0</ele><time>2026-03-28T17:42:55Z</time></trkpt><trkpt lat="44.3999673926098" lon="11.260557292170402"><ele>100.5</ele><time>2026-03-28T17:42:56Z</time></trkpt><trkpt lat="44.400186045421854" lon="11.260744530163358"><ele>100.0</ele><time>2026-03-28T17:42:57Z</time></trkpt><trkpt lat="44.40042253193335" lon="11.26094703961543"><ele>100.0</ele><time>2026-03-28T17:42:58Z</time></trkpt><trkpt lat="44.40066772150032" lon="11.261157391383106"><ele>100.0</ele><time>2026-03-28T17:42:59Z</time></trkpt><trkpt lat="44.40089580070228" lon="11.261353205751377"><ele>100.5</ele><time>2026-03-28T17:43:00Z</time></trkpt><trkpt lat="44.40111570369172" lon="11.26154200048732"><ele>101.0</ele><time>2026-03-28T17:43:01Z</time></trkpt><trkpt lat="44.40133069784622" lon="11.2617258572331"><ele>100.0</ele><time>2026-03-28T17:43:02Z</time></trkpt><trkpt lat="44.40154902985344" lon="11.26188607289372"><ele>99.0</ele><time>2026-03-28T17:43:03Z</time></trkpt><trkpt lat="44.40175493825334" lon="11.262088196452472"><ele>99.0</ele><time>2026-03-28T17:43:04Z</time></trkpt><trkpt lat="44.40196894485868" lon="11.262271375859235"><ele>99.0</ele><time>2026-03-28T17:43:05Z</time></trkpt><trkpt lat="44.40217175322784" lon="11.26244522764675"><ele>98.66666666666666</ele><time>2026-03-28T17:43:06Z</time></trkpt><trkpt lat="44.40237084273601" lon="11.262595559809816"><ele>98.33333333333333</ele><time>2026-03-28T17:43:07Z</time></trkpt><trkpt lat="44.40255763307258" lon="11.26275923757691"><ele>98.0</ele><time>2026-03-28T17:43:08Z</time></trkpt><trkpt lat="44.40275367996011" lon="11.262927437419506"><ele>98.0</ele><time>2026-03-28T17:43:09Z</time></trkpt><trkpt lat="44.402950912075376" lon="11.2631067001407"><ele>98.0</ele><time>2026-03-28T17:43:10Z</time></trkpt><trkpt lat="44.40311151144819" lon="11.26332106560757"><ele>98.0</ele><time>2026-03-28T17:43:11Z</time></trkpt><trkpt lat="44.403255154911825" lon="11.263543192269866"><ele>98.0</ele><time>2026-03-28T17:43:12Z</time></trkpt><trkpt lat="44.403384005371436" lon="11.263788960121984"><ele>98.0</ele><time>2026-03-28T17:43:13Z</time></trkpt><trkpt lat="44.40349720009634" lon="11.264045487957608"><ele>98.33333333333333</ele><time>2026-03-28T17:43:14Z</time></trkpt><trkpt lat="44.40359004454428" lon="11.264303307799723"><ele>98.66666666666666</ele><time>2026-03-28T17:43:15Z</time></trkpt><trkpt lat="44.4036982892651" lon="11.264598953011095"><ele>99.0</ele><time>2026-03-28T17:43:16Z</time></trkpt><trkpt lat="44.40384721917462" lon="11.264914648376553"><ele>99.33333333333334</ele><time>2026-03-28T17:43:17Z</time></trkpt><trkpt lat="44.403937635295456" lon="11.265135790938068"><ele>99.66666666666667</ele><time>2026-03-28T17:43:18Z</time></trkpt><trkpt lat="44.40405372185168" lon="11.265320978763967"><ele>100.0</ele><time>2026-03-28T17:43:19Z</time></trkpt><trkpt lat="44.40416656705828" lon="11.265461065485168"><ele>100.0</ele><time>2026-03-28T17:43:20Z</time></trkpt><trkpt lat="44.40428746313192" lon="11.265564420875137"><ele>100.0</ele><time>2026-03-28T17:43:21Z</time></trkpt><trkpt lat="44.404392250371465" lon="11.265679332924263"><ele>100.0</ele><time>2026-03-28T17:43:22Z</time></trkpt><trkpt lat="44.404534141135954" lon="11.265787173746538"><ele>100.0</ele><time>2026-03-28T17:43:23Z</time></trkpt><trkpt lat="44.40469453322813" lon="11.265884964121172"><ele>98.66666666666667</ele><time>2026-03-28T17:43:24Z</time></trkpt><trkpt lat="44.404857806343806" lon="11.265946578965515"><ele>97.33333333333334</ele><time>2026-03-28T17:43:25Z</time></trkpt><trkpt lat="44.40502837172746" lon="11.265984734376929"><ele>96.0</ele><time>2026-03-28T17:43:26Z</time></trkpt><trkpt lat="44.40520797465515" lon="11.266004519186087"><ele>96.0</ele><time>2026-03-28T17:43:27Z</time></trkpt><trkpt lat="44.405422397124894" lon="11.26600982370238"><ele>96.0</ele><time>2026-03-28T17:43:28Z</time></trkpt><trkpt lat="44.405651312651685" lon="11.266005941300802"><ele>96.0</ele><time>2026-03-28T17:43:29Z</time></trkpt><trkpt lat="44.405895198611475" lon="11.266003754790802"><ele>95.5</ele><time>2026-03-28T17:43:30Z</time></trkpt><trkpt lat="44.406154676032145" lon="11.266012753212642"><ele>95.0</ele><time>2026-03-28T17:43:31Z</time></trkpt><trkpt lat="44.40642363523507" lon="11.266054263710823"><ele>95.0</ele><time>2026-03-28T17:43:32Z</time></trkpt><trkpt lat="44.40668740047113" lon="11.266118562818754"><ele>95.0</ele><time>2026-03-28T17:43:33Z</time></trkpt><trkpt lat="44.40693632841718" lon="11.266176604631843"><ele>95.0</ele><time>2026-03-28T17:43:34Z</time></trkpt><trkpt lat="44.40717310364611" lon="11.266289553886645"><ele>95.0</ele><time>2026-03-28T17:43:35Z</time></trkpt><trkpt lat="44.407406792040405" lon="11.266413186739971"><ele>95.0</ele><time>2026-03-28T17:43:36Z</time></trkpt><trkpt lat="44.40764260615313" lon="11.266526500479964"><ele>95.0</ele><time>2026-03-28T17:43:37Z</time></trkpt><trkpt lat="44.40786945357255" lon="11.26666002959774"><ele>96.0</ele><time>2026-03-28T17:43:38Z</time></trkpt><trkpt lat="44.40813431896931" lon="11.266787872223663"><ele>97.0</ele><time>2026-03-28T17:43:39Z</time></trkpt><trkpt lat="44.40838450379982" lon="11.266873963907921"><ele>97.0</ele><time>2026-03-28T17:43:40Z</time></trkpt><trkpt lat="44.4086634358001" lon="11.266951728686927"><ele>97.0</ele><time>2026-03-28T17:43:41Z</time></trkpt><trkpt lat="44.40895462153128" lon="11.267006868037772"><ele>98.5</ele><time>2026-03-28T17:43:42Z</time></trkpt><trkpt lat="44.409259021352604" lon="11.267049925783297"><ele>100.0</ele><time>2026-03-28T17:43:43Z</time></trkpt><trkpt lat="44.40954122331087" lon="11.26708821895786"><ele>100.5</ele><time>2026-03-28T17:43:44Z</time></trkpt><trkpt lat="44.40981804110539" lon="11.267090966562225"><ele>101.0</ele><time>2026-03-28T17:43:45Z</time></trkpt><trkpt lat="44.4100888198914" lon="11.267075507440008"><ele>101.0</ele><time>2026-03-28T17:43:46Z</time></trkpt><trkpt lat="44.410349158690885" lon="11.267061875120204"><ele>101.0</ele><time>2026-03-28T17:43:47Z</time></trkpt><trkpt lat="44.41061411649307" lon="11.267050691005291"><ele>101.0</ele><time>2026-03-28T17:43:48Z</time></trkpt><trkpt lat="44.4108973486169" lon="11.267088043147087"><ele>101.0</ele><time>2026-03-28T17:43:49Z</time></trkpt><trkpt lat="44.41117514384102" lon="11.267124776044012"><ele>100.0</ele><time>2026-03-28T17:43:50Z</time></trkpt><trkpt lat="44.41145577147769" lon="11.267174014008207"><ele>99.0</ele><time>2026-03-28T17:43:51Z</time></trkpt><trkpt lat="44.41173464101535" lon="11.267242403671148"><ele>99.0</ele><time>2026-03-28T17:43:52Z</time></trkpt><trkpt lat="44.41201634892712" lon="11.26732597681519"><ele>99.0</ele><time>2026-03-28T17:43:53Z</time></trkpt><trkpt lat="44.41229164705016" lon="11.267416267219865"><ele>97.0</ele><time>2026-03-28T17:43:54Z</time></trkpt><trkpt lat="44.4125624984216" lon="11.267508667644009"><ele>95.0</ele><time>2026-03-28T17:43:55Z</time></trkpt><trkpt lat="44.41283634186382" lon="11.267603298179079"><ele>95.0</ele><time>2026-03-28T17:43:56Z</time></trkpt><trkpt lat="44.413114534206436" lon="11.2676995633593"><ele>95.0</ele><time>2026-03-28T17:43:57Z</time></trkpt><trkpt lat="44.413398939126736" lon="11.267774329716882"><ele>95.0</ele><time>2026-03-28T17:43:58Z</time></trkpt><trkpt lat="44.413675576881346" lon="11.267893705559194"><ele>95.0</ele><time>2026-03-28T17:43:59Z</time></trkpt><trkpt lat="44.413955407920355" lon="11.267966942306487"><ele>93.5</ele><time>2026-03-28T17:44:00Z</time></trkpt><trkpt lat="44.414230322209995" lon="11.268065843008866"><ele>92.0</ele><time>2026-03-28T17:44:01Z</time></trkpt><trkpt lat="44.41450925882478" lon="11.26817111892453"><ele>91.0</ele><time>2026-03-28T17:44:02Z</time></trkpt><trkpt lat="44.41478367524846" lon="11.26826831661428"><ele>90.0</ele><time>2026-03-28T17:44:03Z</time></trkpt><trkpt lat="44.41506377241483" lon="11.268364989280471"><ele>90.0</ele><time>2026-03-28T17:44:04Z</time></trkpt><trkpt lat="44.415341258661705" lon="11.268462004130733"><ele>90.0</ele><time>2026-03-28T17:44:05Z</time></trkpt><trkpt lat="44.41562025514051" lon="11.26855482956124"><ele>90.5</ele><time>2026-03-28T17:44:06Z</time></trkpt><trkpt lat="44.41589025578499" lon="11.268654238429319"><ele>91.0</ele><time>2026-03-28T17:44:07Z</time></trkpt><trkpt lat="44.41614630552601" lon="11.268761262824217"><ele>91.5</ele><time>2026-03-28T17:44:08Z</time></trkpt><trkpt lat="44.41642099191003" lon="11.268846395591751"><ele>92.0</ele><time>2026-03-28T17:44:09Z</time></trkpt><trkpt lat="44.41669817329258" lon="11.268964969987323"><ele>92.0</ele><time>2026-03-28T17:44:10Z</time></trkpt><trkpt lat="44.41697445926547" lon="11.269096095186315"><ele>92.0</ele><time>2026-03-28T17:44:11Z</time></trkpt><trkpt lat="44.41725492440675" lon="11.269239878171811"><ele>91.5</ele><time>2026-03-28T17:44:12Z</time></trkpt><trkpt lat="44.41753390843505" lon="11.269390531172785"><ele>91.0</ele><time>2026-03-28T17:44:13Z</time></trkpt><trkpt lat="44.41781526732704" lon="11.269544158125631"><ele>91.5</ele><time>2026-03-28T17:44:14Z</time></trkpt><trkpt lat="44.418089204488744" lon="11.269722295283614"><ele>92.0</ele><time>2026-03-28T17:44:15Z</time></trkpt><trkpt lat="44.41836485495218" lon="11.269877976818064"><ele>92.5</ele><time>2026-03-28T17:44:16Z</time></trkpt><trkpt lat="44.41863864923661" lon="11.270029795654816"><ele>93.0</ele><time>2026-03-28T17:44:17Z</time></trkpt><trkpt lat="44.41890821607618" lon="11.270177733207793"><ele>91.5</ele><time>2026-03-28T17:44:18Z</time></trkpt><trkpt lat="44.41917457330206" lon="11.270320898212157"><ele>90.0</ele><time>2026-03-28T17:44:19Z</time></trkpt><trkpt lat="44.41943027338117" lon="11.270454161025091"><ele>89.5</ele><time>2026-03-28T17:44:20Z</time></trkpt><trkpt lat="44.41968596819752" lon="11.270564809643888"><ele>89.0</ele><time>2026-03-28T17:44:21Z</time></trkpt><trkpt lat="44.41993559674999" lon="11.270693063189485"><ele>88.5</ele><time>2026-03-28T17:44:22Z</time></trkpt><trkpt lat="44.420191657471484" lon="11.270817551714686"><ele>88.0</ele><time>2026-03-28T17:44:23Z</time></trkpt><trkpt lat="44.42044615550136" lon="11.27094266642309"><ele>88.5</ele><time>2026-03-28T17:44:24Z</time></trkpt><trkpt lat="44.42069896189589" lon="11.271074068394485"><ele>89.0</ele><time>2026-03-28T17:44:25Z</time></trkpt><trkpt lat="44.42094689900241" lon="11.271202193399622"><ele>89.0</ele><time>2026-03-28T17:44:26Z</time></trkpt><trkpt lat="44.421195607819236" lon="11.271335471118356"><ele>89.0</ele><time>2026-03-28T17:44:27Z</time></trkpt><trkpt lat="44.42144013586334" lon="11.271468745331042"><ele>88.5</ele><time>2026-03-28T17:44:28Z</time></trkpt><trkpt lat="44.42168634685919" lon="11.271603264966348"><ele>88.0</ele><time>2026-03-28T17:44:29Z</time></trkpt><trkpt lat="44.421930319150704" lon="11.271737590258555"><ele>89.0</ele><time>2026-03-28T17:44:30Z</time></trkpt><trkpt lat="44.42217803367892" lon="11.271874150113447"><ele>90.0</ele><time>2026-03-28T17:44:31Z</time></trkpt><trkpt lat="44.42243178690588" lon="11.272021193519063"><ele>90.0</ele><time>2026-03-28T17:44:32Z</time></trkpt><trkpt lat="44.42268027771015" lon="11.272162445087881"><ele>90.0</ele><time>2026-03-28T17:44:33Z</time></trkpt><trkpt lat="44.4229334470849" lon="11.272305339724518"><ele>87.5</ele><time>2026-03-28T17:44:34Z</time></trkpt><trkpt lat="44.423189238049716" lon="11.272451359435536"><ele>85.0</ele><time>2026-03-28T17:44:35Z</time></trkpt><trkpt lat="44.42344153803917" lon="11.272595631043732"><ele>85.0</ele><time>2026-03-28T17:44:36Z</time></trkpt><trkpt lat="44.42369574163393" lon="11.272743841137029"><ele>85.0</ele><time>2026-03-28T17:44:37Z</time></trkpt><trkpt lat="44.42395144176051" lon="11.272888064115358"><ele>85.0</ele><time>2026-03-28T17:44:38Z</time></trkpt><trkpt lat="44.4242074065175" lon="11.273030683044311"><ele>85.0</ele><time>2026-03-28T17:44:39Z</time></trkpt><trkpt lat="44.4244625950241" lon="11.273175343115605"><ele>85.0</ele><time>2026-03-28T17:44:40Z</time></trkpt><trkpt lat="44.42472390005856" lon="11.27332664437853"><ele>85.0</ele><time>2026-03-28T17:44:41Z</time></trkpt><trkpt lat="44.42498865212926" lon="11.273482911219158"><ele>85.0</ele><time>2026-03-28T17:44:42Z</time></trkpt><trkpt lat="44.42525728829303" lon="11.273643346414525"><ele>85.0</ele><time>2026-03-28T17:44:43Z</time></trkpt><trkpt lat="44.425520480674706" lon="11.273809619924872"><ele>83.0</ele><time>2026-03-28T17:44:44Z</time></trkpt><trkpt lat="44.42578761880273" lon="11.27397193669341"><ele>81.0</ele><time>2026-03-28T17:44:45Z</time></trkpt><trkpt lat="44.4260515219705" lon="11.274136863331247"><ele>79.0</ele><time>2026-03-28T17:44:46Z</time></trkpt><trkpt lat="44.42631503518653" lon="11.27429288821991"><ele>77.0</ele><time>2026-03-28T17:44:47Z</time></trkpt><trkpt lat="44.42657321061511" lon="11.274449307800854"><ele>77.0</ele><time>2026-03-28T17:44:48Z</time></trkpt><trkpt lat="44.426809401409834" lon="11.274594822464755"><ele>77.0</ele><time>2026-03-28T17:44:49Z</time></trkpt><trkpt lat="44.42703551677733" lon="11.274737704647423"><ele>76.5</ele><time>2026-03-28T17:44:50Z</time></trkpt><trkpt lat="44.427262652121485" lon="11.274887058707252"><ele>76.0</ele><time>2026-03-28T17:44:51Z</time></trkpt><trkpt lat="44.4274838545205" lon="11.275033463313882"><ele>76.0</ele><time>2026-03-28T17:44:52Z</time></trkpt><trkpt lat="44.427712720799576" lon="11.275205144451244"><ele>76.0</ele><time>2026-03-28T17:44:53Z</time></trkpt><trkpt lat="44.42796682919818" lon="11.275383244395808"><ele>75.0</ele><time>2026-03-28T17:44:54Z</time></trkpt><trkpt lat="44.42825092698351" lon="11.275529339570783"><ele>74.0</ele><time>2026-03-28T17:44:55Z</time></trkpt><trkpt lat="44.42852096617483" lon="11.275736424322528"><ele>74.0</ele><time>2026-03-28T17:44:56Z</time></trkpt><trkpt lat="44.42879791271908" lon="11.275958208693673"><ele>74.0</ele><time>2026-03-28T17:44:57Z</time></trkpt><trkpt lat="44.429081990713826" lon="11.276169219483835"><ele>74.0</ele><time>2026-03-28T17:44:58Z</time></trkpt><trkpt lat="44.42937850761251" lon="11.276362749043802"><ele>74.0</ele><time>2026-03-28T17:44:59Z</time></trkpt><trkpt lat="44.42968298235419" lon="11.27654770542588"><ele>74.5</ele><time>2026-03-28T17:45:00Z</time></trkpt><trkpt lat="44.430001101276375" lon="11.276715641181255"><ele>75.0</ele><time>2026-03-28T17:45:01Z</time></trkpt><trkpt lat="44.430327004834716" lon="11.276865143013678"><ele>74.5</ele><time>2026-03-28T17:45:02Z</time></trkpt><trkpt lat="44.430663473865366" lon="11.276982218819741"><ele>74.0</ele><time>2026-03-28T17:45:03Z</time></trkpt><trkpt lat="44.43100185146846" lon="11.277071597268451"><ele>75.0</ele><time>2026-03-28T17:45:04Z</time></trkpt><trkpt lat="44.431340211588285" lon="11.277134685907527"><ele>76.0</ele><time>2026-03-28T17:45:05Z</time></trkpt><trkpt lat="44.43167791308709" lon="11.27718596653359"><ele>76.0</ele><time>2026-03-28T17:45:06Z</time></trkpt><trkpt lat="44.4320154116387" lon="11.2772138399649"><ele>76.0</ele><time>2026-03-28T17:45:07Z</time></trkpt><trkpt lat="44.432352763605856" lon="11.277230200199318"><ele>74.5</ele><time>2026-03-28T17:45:08Z</time></trkpt><trkpt lat="44.432695217120106" lon="11.277255872367899"><ele>73.0</ele><time>2026-03-28T17:45:09Z</time></trkpt><trkpt lat="44.433031635198795" lon="11.27729454805415"><ele>71.5</ele><time>2026-03-28T17:45:10Z</time></trkpt><trkpt lat="44.4333667417418" lon="11.277328058869452"><ele>70.0</ele><time>2026-03-28T17:45:11Z</time></trkpt><trkpt lat="44.433699179213264" lon="11.277354291071953"><ele>70.0</ele><time>2026-03-28T17:45:12Z</time></trkpt><trkpt lat="44.43402970787061" lon="11.277391677650424"><ele>70.0</ele><time>2026-03-28T17:45:13Z</time></trkpt><trkpt lat="44.4343604406714" lon="11.277435086888005"><ele>70.0</ele><time>2026-03-28T17:45:14Z</time></trkpt><trkpt lat="44.434689150404466" lon="11.277480625351837"><ele>70.0</ele><time>2026-03-28T17:45:15Z</time></trkpt><trkpt lat="44.435017748428635" lon="11.277534174414036"><ele>70.0</ele><time>2026-03-28T17:45:16Z</time></trkpt><trkpt lat="44.43534930401367" lon="11.277603084858356"><ele>70.0</ele><time>2026-03-28T17:45:17Z</time></trkpt><trkpt lat="44.43567941720564" lon="11.277662003894504"><ele>70.5</ele><time>2026-03-28T17:45:18Z</time></trkpt><trkpt lat="44.43600928409653" lon="11.27772777846782"><ele>71.0</ele><time>2026-03-28T17:45:19Z</time></trkpt><trkpt lat="44.43634298666968" lon="11.27779213973295"><ele>71.5</ele><time>2026-03-28T17:45:20Z</time></trkpt><trkpt lat="44.43667903719263" lon="11.27786130236853"><ele>72.0</ele><time>2026-03-28T17:45:21Z</time></trkpt><trkpt lat="44.4370109163476" lon="11.277934011016244"><ele>73.0</ele><time>2026-03-28T17:45:22Z</time></trkpt><trkpt lat="44.43734233030167" lon="11.278014754043792"><ele>74.0</ele><time>2026-03-28T17:45:23Z</time></trkpt><trkpt lat="44.43767258720929" lon="11.27808737659476"><ele>72.0</ele><time>2026-03-28T17:45:24Z</time></trkpt><trkpt lat="44.43800033733248" lon="11.278163557680726"><ele>70.0</ele><time>2026-03-28T17:45:25Z</time></trkpt><trkpt lat="44.438322605951996" lon="11.278241350734737"><ele>70.0</ele><time>2026-03-28T17:45:26Z</time></trkpt><trkpt lat="44.43864944960849" lon="11.278306679933058"><ele>70.0</ele><time>2026-03-28T17:45:27Z</time></trkpt><trkpt lat="44.43896786767545" lon="11.27837704900834"><ele>70.0</ele><time>2026-03-28T17:45:28Z</time></trkpt><trkpt lat="44.43928559649751" lon="11.278448649735948"><ele>70.0</ele><time>2026-03-28T17:45:29Z</time></trkpt><trkpt lat="44.439604585466384" lon="11.278516850884992"><ele>70.0</ele><time>2026-03-28T17:45:30Z</time></trkpt><trkpt lat="44.43992149146184" lon="11.27858656553502"><ele>70.0</ele><time>2026-03-28T17:45:31Z</time></trkpt><trkpt lat="44.44023749577898" lon="11.278660292245577"><ele>70.5</ele><time>2026-03-28T17:45:32Z</time></trkpt><trkpt lat="44.44054548646005" lon="11.27873640523765"><ele>71.0</ele><time>2026-03-28T17:45:33Z</time></trkpt><trkpt lat="44.44085338761121" lon="11.278803148773942"><ele>71.0</ele><time>2026-03-28T17:45:34Z</time></trkpt><trkpt lat="44.44116076742656" lon="11.278870389430221"><ele>71.0</ele><time>2026-03-28T17:45:35Z</time></trkpt><trkpt lat="44.44146255492463" lon="11.278938396581447"><ele>70.0</ele><time>2026-03-28T17:45:36Z</time></trkpt><trkpt lat="44.441764768449794" lon="11.27900580482656"><ele>69.0</ele><time>2026-03-28T17:45:37Z</time></trkpt><trkpt lat="44.44206152097355" lon="11.279073947256162"><ele>69.0</ele><time>2026-03-28T17:45:38Z</time></trkpt><trkpt lat="44.44235464455831" lon="11.279140794612953"><ele>69.0</ele><time>2026-03-28T17:45:39Z</time></trkpt><trkpt lat="44.44264115590809" lon="11.279204507434326"><ele>69.0</ele><time>2026-03-28T17:45:40Z</time></trkpt><trkpt lat="44.44291971991088" lon="11.279266393027465"><ele>69.0</ele><time>2026-03-28T17:45:41Z</time></trkpt><trkpt lat="44.44318885789511" lon="11.279328055197606"><ele>69.5</ele><time>2026-03-28T17:45:42Z</time></trkpt><trkpt lat="44.4434522541242" lon="11.279415445836769"><ele>70.0</ele><time>2026-03-28T17:45:43Z</time></trkpt><trkpt lat="44.44371095933492" lon="11.27947908781963"><ele>71.5</ele><time>2026-03-28T17:45:44Z</time></trkpt><trkpt lat="44.44395994273891" lon="11.279534964073829"><ele>73.0</ele><time>2026-03-28T17:45:45Z</time></trkpt><trkpt lat="44.444206151612946" lon="11.279582981756931"><ele>73.0</ele><time>2026-03-28T17:45:46Z</time></trkpt><trkpt lat="44.44444376214113" lon="11.279612524872482"><ele>73.0</ele><time>2026-03-28T17:45:47Z</time></trkpt><trkpt lat="44.44466776687635" lon="11.279672494101035"><ele>73.33333333333333</ele><time>2026-03-28T17:45:48Z</time></trkpt><trkpt lat="44.44487130399624" lon="11.279742775735139"><ele>73.66666666666667</ele><time>2026-03-28T17:45:49Z</time></trkpt><trkpt lat="44.44505963505653" lon="11.279826707142975"><ele>74.0</ele><time>2026-03-28T17:45:50Z</time></trkpt><trkpt lat="44.44523399112115" lon="11.279943883420938"><ele>72.66666666666667</ele><time>2026-03-28T17:45:51Z</time></trkpt><trkpt lat="44.445413217016444" lon="11.280035586275302"><ele>71.33333333333333</ele><time>2026-03-28T17:45:52Z</time></trkpt><trkpt lat="44.445601087457895" lon="11.280110014586846"><ele>70.0</ele><time>2026-03-28T17:45:53Z</time></trkpt><trkpt lat="44.445763387903504" lon="11.280199412104718"><ele>69.75</ele><time>2026-03-28T17:45:54Z</time></trkpt><trkpt lat="44.44590244773549" lon="11.280267774754908"><ele>69.5</ele><time>2026-03-28T17:45:55Z</time></trkpt><trkpt lat="44.44601987397938" lon="11.280311125427739"><ele>69.25</ele><time>2026-03-28T17:45:56Z</time></trkpt><trkpt lat="44.446119642788986" lon="11.280352732671602"><ele>69.0</ele><time>2026-03-28T17:45:57Z</time></trkpt><trkpt lat="44.446197141804575" lon="11.280421484220376"><ele>69.0</ele><time>2026-03-28T17:45:58Z</time></trkpt><trkpt lat="44.44625276024624" lon="11.28052361670763"><ele>69.0</ele><time>2026-03-28T17:45:59Z</time></trkpt><trkpt lat="44.44630198078813" lon="11.280628701871017"><ele>69.0</ele><time>2026-03-28T17:46:00Z</time></trkpt><trkpt lat="44.44636563755216" lon="11.280702585533724"><ele>69.0</ele><time>2026-03-28T17:46:01Z</time></trkpt><trkpt lat="44.4464424170185" lon="11.280721334353515"><ele>69.0</ele><time>2026-03-28T17:46:02Z</time></trkpt><trkpt lat="44.446530064027364" lon="11.280694819272492"><ele>69.0</ele><time>2026-03-28T17:46:03Z</time></trkpt><trkpt lat="44.4465971248067" lon="11.280635769705075"><ele>68.5</ele><time>2026-03-28T17:46:04Z</time></trkpt><trkpt lat="44.44664491158932" lon="11.280552265106442"><ele>68.0</ele><time>2026-03-28T17:46:05Z</time></trkpt><trkpt lat="44.446672440364246" lon="11.280455126729269"><ele>67.5</ele><time>2026-03-28T17:46:06Z</time></trkpt><trkpt lat="44.446680760016946" lon="11.280355122716676"><ele>67.0</ele><time>2026-03-28T17:46:07Z</time></trkpt><trkpt lat="44.44668554383105" lon="11.280249098941631"><ele>66.5</ele><time>2026-03-28T17:46:08Z</time></trkpt><trkpt lat="44.44671669183731" lon="11.280160671352347"><ele>66.0</ele><time>2026-03-28T17:46:09Z</time></trkpt><trkpt lat="44.44678724482604" lon="11.280099825525104"><ele>66.0</ele><time>2026-03-28T17:46:10Z</time></trkpt><trkpt lat="44.4468822997713" lon="11.280074191394215"><ele>66.0</ele><time>2026-03-28T17:46:11Z</time></trkpt><trkpt lat="44.44698611128913" lon="11.280073308720626"><ele>66.0</ele><time>2026-03-28T17:46:12Z</time></trkpt><trkpt lat="44.44709915040568" lon="11.28011083237873"><ele>66.0</ele><time>2026-03-28T17:46:13Z</time></trkpt><trkpt lat="44.4472122049145" lon="11.280150888559184"><ele>66.0</ele><time>2026-03-28T17:46:14Z</time></trkpt><trkpt lat="44.44733381544946" lon="11.280194025445578"><ele>66.33333333333333</ele><time>2026-03-28T17:46:15Z</time></trkpt><trkpt lat="44.44742506582083" lon="11.280218039349966"><ele>66.66666666666667</ele><time>2026-03-28T17:46:16Z</time></trkpt><trkpt lat="44.447482236819724" lon="11.28026741879933"><ele>67.0</ele><time>2026-03-28T17:46:17Z</time></trkpt><trkpt lat="44.44760410255992" lon="11.28029674828637"><ele>67.33333333333334</ele><time>2026-03-28T17:46:18Z</time></trkpt><trkpt lat="44.447671594314784" lon="11.280318507855139"><ele>67.66666666666667</ele><time>2026-03-28T17:46:19Z</time></trkpt><trkpt lat="44.44776791488212" lon="11.280325616219269"><ele>68.0</ele><time>2026-03-28T17:46:21Z</time></trkpt><trkpt lat="44.447862412523016" lon="11.280323845851706"><ele>68.0</ele><time>2026-03-28T17:46:23Z</time></trkpt><trkpt lat="44.44793261351211" lon="11.280326711514236"><ele>68.0</ele><time>2026-03-28T17:46:26Z</time></trkpt><trkpt lat="44.44783930296447" lon="11.280340810406004"><ele>68.0</ele><time>2026-03-28T17:47:08Z</time></trkpt><trkpt lat="44.447771918125824" lon="11.28034552706045"><ele>68.0</ele><time>2026-03-28T17:47:11Z</time></trkpt><trkpt lat="44.4476902039207" lon="11.280324906967387"><ele>68.0</ele><time>2026-03-28T17:47:14Z</time></trkpt><trkpt lat="44.44761061851876" lon="11.280287771388744"><ele>68.0</ele><time>2026-03-28T17:47:17Z</time></trkpt><trkpt lat="44.4475292414634" lon="11.280253120703968"><ele>68.0</ele><time>2026-03-28T17:47:20Z</time></trkpt><trkpt lat="44.4474630879428" lon="11.280234033999518"><ele>68.0</ele><time>2026-03-28T17:47:22Z</time></trkpt><trkpt lat="44.44740129543411" lon="11.280211040647519"><ele>68.0</ele><time>2026-03-28T17:47:24Z</time></trkpt><trkpt lat="44.447317874811304" lon="11.280186161795744"><ele>68.0</ele><time>2026-03-28T17:47:26Z</time></trkpt><trkpt lat="44.44721775098824" lon="11.280150868513779"><ele>68.0</ele><time>2026-03-28T17:47:28Z</time></trkpt><trkpt lat="44.447111942369794" lon="11.280115591632734"><ele>68.0</ele><time>2026-03-28T17:47:30Z</time></trkpt><trkpt lat="44.44700311073993" lon="11.280084025120088"><ele>67.66666666666667</ele><time>2026-03-28T17:47:32Z</time></trkpt><trkpt lat="44.446895844089894" lon="11.28007476435114"><ele>67.33333333333334</ele><time>2026-03-28T17:47:34Z</time></trkpt><trkpt lat="44.446803685540125" lon="11.28009706631988"><ele>67.0</ele><time>2026-03-28T17:47:36Z</time></trkpt><trkpt lat="44.446734525686615" lon="11.280135788238155"><ele>66.66666666666667</ele><time>2026-03-28T17:47:38Z</time></trkpt><trkpt lat="44.446678884286186" lon="11.280187636988474"><ele>66.33333333333333</ele><time>2026-03-28T17:47:40Z</time></trkpt><trkpt lat="44.44660373585003" lon="11.280223155430749"><ele>66.0</ele><time>2026-03-28T17:47:53Z</time></trkpt><trkpt lat="44.44653078525496" lon="11.280152399606733"><ele>66.0</ele><time>2026-03-28T17:47:54Z</time></trkpt><trkpt lat="44.44638314873476" lon="11.28016557233219"><ele>66.0</ele><time>2026-03-28T17:47:55Z</time></trkpt><trkpt lat="44.44628158118868" lon="11.280197527181546"><ele>66.0</ele><time>2026-03-28T17:47:56Z</time></trkpt><trkpt lat="44.44617517202708" lon="11.280231262044941"><ele>66.0</ele><time>2026-03-28T17:47:57Z</time></trkpt><trkpt lat="44.44606172202161" lon="11.280242099815776"><ele>66.75</ele><time>2026-03-28T17:47:58Z</time></trkpt><trkpt lat="44.44594444496459" lon="11.28022304550569"><ele>67.5</ele><time>2026-03-28T17:47:59Z</time></trkpt><trkpt lat="44.4458200316524" lon="11.280191443271196"><ele>68.25</ele><time>2026-03-28T17:48:00Z</time></trkpt><trkpt lat="44.44569262216354" lon="11.280135667998769"><ele>69.0</ele><time>2026-03-28T17:48:01Z</time></trkpt><trkpt lat="44.44555962313046" lon="11.280064482860183"><ele>69.25</ele><time>2026-03-28T17:48:02Z</time></trkpt><trkpt lat="44.44542267610598" lon="11.279990923780042"><ele>69.5</ele><time>2026-03-28T17:48:03Z</time></trkpt><trkpt lat="44.44528950390363" lon="11.279924078605566"><ele>69.75</ele><time>2026-03-28T17:48:04Z</time></trkpt><trkpt lat="44.445156542125886" lon="11.279859874679735"><ele>70.0</ele><time>2026-03-28T17:48:05Z</time></trkpt><trkpt lat="44.4450244108695" lon="11.279794816216448"><ele>70.75</ele><time>2026-03-28T17:48:06Z</time></trkpt><trkpt lat="44.444885422053375" lon="11.279739688500092"><ele>71.5</ele><time>2026-03-28T17:48:07Z</time></trkpt><trkpt lat="44.444746126277124" lon="11.279692567241952"><ele>72.25</ele><time>2026-03-28T17:48:08Z</time></trkpt><trkpt lat="44.444609360831784" lon="11.279651241318577"><ele>73.0</ele><time>2026-03-28T17:48:09Z</time></trkpt><trkpt lat="44.444486352511994" lon="11.279611069168325"><ele>73.0</ele><time>2026-03-28T17:48:10Z</time></trkpt><trkpt lat="44.44436072613025" lon="11.279574948077517"><ele>73.0</ele><time>2026-03-28T17:48:11Z</time></trkpt><trkpt lat="44.44421838962088" lon="11.279537434731003"><ele>73.0</ele><time>2026-03-28T17:48:12Z</time></trkpt><trkpt lat="44.444072802816386" lon="11.27950214460763"><ele>73.0</ele><time>2026-03-28T17:48:13Z</time></trkpt><trkpt lat="44.44394105898008" lon="11.279471180633104"><ele>73.0</ele><time>2026-03-28T17:48:14Z</time></trkpt><trkpt lat="44.44382560149643" lon="11.27944024385742"><ele>73.0</ele><time>2026-03-28T17:48:15Z</time></trkpt><trkpt lat="44.443723629436356" lon="11.279407607130954"><ele>73.0</ele><time>2026-03-28T17:48:16Z</time></trkpt><trkpt lat="44.44364616879139" lon="11.27937878324746"><ele>73.0</ele><time>2026-03-28T17:48:17Z</time></trkpt><trkpt lat="44.4435564163857" lon="11.279350089062431"><ele>73.0</ele><time>2026-03-28T17:48:19Z</time></trkpt><trkpt lat="44.44361727260878" lon="11.279408846127316"><ele>73.0</ele><time>2026-03-28T17:48:32Z</time></trkpt><trkpt lat="44.44376135775806" lon="11.279521723242516"><ele>73.0</ele><time>2026-03-28T17:48:33Z</time></trkpt><trkpt lat="44.44387579261421" lon="11.279550260423356"><ele>73.0</ele><time>2026-03-28T17:48:34Z</time></trkpt><trkpt lat="44.44397898755056" lon="11.279570708466341"><ele>73.0</ele><time>2026-03-28T17:48:35Z</time></trkpt><trkpt lat="44.444098820854016" lon="11.27959852126234"><ele>73.0</ele><time>2026-03-28T17:48:36Z</time></trkpt><trkpt lat="44.444223907075475" lon="11.279630486730827"><ele>73.0</ele><time>2026-03-28T17:48:37Z</time></trkpt><trkpt lat="44.444356454205526" lon="11.279669992058636"><ele>73.0</ele><time>2026-03-28T17:48:38Z</time></trkpt><trkpt lat="44.44449452096225" lon="11.279716655981433"><ele>73.0</ele><time>2026-03-28T17:48:39Z</time></trkpt><trkpt lat="44.44462412012133" lon="11.279764185825483"><ele>72.25</ele><time>2026-03-28T17:48:40Z</time></trkpt><trkpt lat="44.444753300059205" lon="11.279826261350811"><ele>71.5</ele><time>2026-03-28T17:48:41Z</time></trkpt><trkpt lat="44.44487362902899" lon="11.279923229037308"><ele>70.75</ele><time>2026-03-28T17:48:42Z</time></trkpt><trkpt lat="44.444971285800115" lon="11.280045188683191"><ele>70.0</ele><time>2026-03-28T17:48:43Z</time></trkpt><trkpt lat="44.445054939408585" lon="11.280177406812877"><ele>70.0</ele><time>2026-03-28T17:48:44Z</time></trkpt><trkpt lat="44.445126839820865" lon="11.280330485839668"><ele>70.0</ele><time>2026-03-28T17:48:45Z</time></trkpt><trkpt lat="44.44518254448755" lon="11.280493132804311"><ele>70.0</ele><time>2026-03-28T17:48:46Z</time></trkpt><trkpt lat="44.445228228048954" lon="11.280669709143297"><ele>70.0</ele><time>2026-03-28T17:48:47Z</time></trkpt><trkpt lat="44.44527135008544" lon="11.280858066923296"><ele>70.4</ele><time>2026-03-28T17:48:48Z</time></trkpt><trkpt lat="44.44531191891335" lon="11.281037411639923"><ele>70.8</ele><time>2026-03-28T17:48:49Z</time></trkpt><trkpt lat="44.445348014787996" lon="11.281200620065958"><ele>71.2</ele><time>2026-03-28T17:48:50Z</time></trkpt><trkpt lat="44.44536942232189" lon="11.281345794406187"><ele>71.6</ele><time>2026-03-28T17:48:51Z</time></trkpt><trkpt lat="44.445374448423514" lon="11.281461844338393"><ele>72.0</ele><time>2026-03-28T17:48:52Z</time></trkpt><trkpt lat="44.44537862335401" lon="11.281559454912147"><ele>72.0</ele><time>2026-03-28T17:48:53Z</time></trkpt><trkpt lat="44.44540152848627" lon="11.281646319521203"><ele>72.0</ele><time>2026-03-28T17:48:54Z</time></trkpt><trkpt lat="44.445443454640376" lon="11.281720253240119"><ele>72.0</ele><time>2026-03-28T17:48:55Z</time></trkpt><trkpt lat="44.44550223453877" lon="11.281770149165046"><ele>72.0</ele><time>2026-03-28T17:48:56Z</time></trkpt><trkpt lat="44.44557916624297" lon="11.281784782742715"><ele>72.0</ele><time>2026-03-28T17:48:57Z</time></trkpt><trkpt lat="44.44569737354116" lon="11.28178939401389"><ele>72.0</ele><time>2026-03-28T17:48:58Z</time></trkpt><trkpt lat="44.44585611217524" lon="11.281810190561963"><ele>71.0</ele><time>2026-03-28T17:48:59Z</time></trkpt><trkpt lat="44.44603763738651" lon="11.28187224380508"><ele>70.0</ele><time>2026-03-28T17:49:00Z</time></trkpt><trkpt lat="44.44624165476238" lon="11.281942212041695"><ele>69.0</ele><time>2026-03-28T17:49:01Z</time></trkpt><trkpt lat="44.4464264803858" lon="11.282002599599744"><ele>68.75</ele><time>2026-03-28T17:49:02Z</time></trkpt><trkpt lat="44.44657981324883" lon="11.282048846436238"><ele>68.5</ele><time>2026-03-28T17:49:03Z</time></trkpt><trkpt lat="44.446721588842024" lon="11.28206258364651"><ele>68.25</ele><time>2026-03-28T17:49:04Z</time></trkpt><trkpt lat="44.446851476190716" lon="11.28201568279024"><ele>68.0</ele><time>2026-03-28T17:49:05Z</time></trkpt><trkpt lat="44.446973780216545" lon="11.281926436247142"><ele>68.0</ele><time>2026-03-28T17:49:06Z</time></trkpt><trkpt lat="44.447073568321656" lon="11.281798012415473"><ele>68.0</ele><time>2026-03-28T17:49:07Z</time></trkpt><trkpt lat="44.44715687875668" lon="11.281639742631457"><ele>68.0</ele><time>2026-03-28T17:49:08Z</time></trkpt><trkpt lat="44.44721602017193" lon="11.281453128453775"><ele>68.0</ele><time>2026-03-28T17:49:09Z</time></trkpt><trkpt lat="44.447247898302884" lon="11.28123169500925"><ele>68.0</ele><time>2026-03-28T17:49:10Z</time></trkpt><trkpt lat="44.447271245586585" lon="11.280990998777389"><ele>68.0</ele><time>2026-03-28T17:49:11Z</time></trkpt><trkpt lat="44.44729959334956" lon="11.280739262628586"><ele>68.0</ele><time>2026-03-28T17:49:12Z</time></trkpt><trkpt lat="44.44733071920973" lon="11.280462658009784"><ele>68.0</ele><time>2026-03-28T17:49:13Z</time></trkpt><trkpt lat="44.44736508194505" lon="11.280164113737545"><ele>68.0</ele><time>2026-03-28T17:49:14Z</time></trkpt><trkpt lat="44.44740203684506" lon="11.279870363822816"><ele>68.0</ele><time>2026-03-28T17:49:15Z</time></trkpt><trkpt lat="44.447437764829054" lon="11.279598828826282"><ele>68.0</ele><time>2026-03-28T17:49:16Z</time></trkpt><trkpt lat="44.44745338712701" lon="11.279306488155859"><ele>68.0</ele><time>2026-03-28T17:49:17Z</time></trkpt><trkpt lat="44.44744644742544" lon="11.278995607151202"><ele>68.0</ele><time>2026-03-28T17:49:18Z</time></trkpt><trkpt lat="44.447417612882525" lon="11.278634893211606"><ele>68.0</ele><time>2026-03-28T17:49:19Z</time></trkpt><trkpt lat="44.447384270506404" lon="11.278243797304084"><ele>68.0</ele><time>2026-03-28T17:49:20Z</time></trkpt><trkpt lat="44.44735389443194" lon="11.277845258987279"><ele>68.0</ele><time>2026-03-28T17:49:21Z</time></trkpt><trkpt lat="44.44732534940237" lon="11.277452177591206"><ele>68.0</ele><time>2026-03-28T17:49:22Z</time></trkpt><trkpt lat="44.447297958125205" lon="11.277077941514726"><ele>68.0</ele><time>2026-03-28T17:49:23Z</time></trkpt><trkpt lat="44.44727130394587" lon="11.276709457148712"><ele>68.0</ele><time>2026-03-28T17:49:24Z</time></trkpt><trkpt lat="44.447245865505245" lon="11.27636819306074"><ele>68.66666666666667</ele><time>2026-03-28T17:49:25Z</time></trkpt><trkpt lat="44.44722639440287" lon="11.276059514296426"><ele>69.33333333333333</ele><time>2026-03-28T17:49:26Z</time></trkpt><trkpt lat="44.44720813869739" lon="11.275781709456382"><ele>70.0</ele><time>2026-03-28T17:49:27Z</time></trkpt><trkpt lat="44.44719303827976" lon="11.275512392304847"><ele>71.33333333333333</ele><time>2026-03-28T17:49:28Z</time></trkpt><trkpt lat="44.44720718559238" lon="11.275262244762693"><ele>72.66666666666667</ele><time>2026-03-28T17:49:29Z</time></trkpt><trkpt lat="44.44723230735089" lon="11.27502274976166"><ele>74.0</ele><time>2026-03-28T17:49:30Z</time></trkpt><trkpt lat="44.44727728887798" lon="11.274791726037133"><ele>74.33333333333334</ele><time>2026-03-28T17:49:31Z</time></trkpt><trkpt lat="44.44733423627208" lon="11.274562575447385"><ele>74.66666666666667</ele><time>2026-03-28T17:49:32Z</time></trkpt><trkpt lat="44.447372051645964" lon="11.274337047162183"><ele>75.0</ele><time>2026-03-28T17:49:33Z</time></trkpt><trkpt lat="44.44741437173815" lon="11.274121567567494"><ele>75.75</ele><time>2026-03-28T17:49:34Z</time></trkpt><trkpt lat="44.44742673898086" lon="11.273919569218208"><ele>76.5</ele><time>2026-03-28T17:49:35Z</time></trkpt><trkpt lat="44.447408847536494" lon="11.273746452047591"><ele>77.25</ele><time>2026-03-28T17:49:36Z</time></trkpt><trkpt lat="44.447403409596966" lon="11.273577493428826"><ele>78.0</ele><time>2026-03-28T17:49:37Z</time></trkpt><trkpt lat="44.447392646609146" lon="11.27341920931"><ele>78.0</ele><time>2026-03-28T17:49:38Z</time></trkpt><trkpt lat="44.44738211735266" lon="11.273284214575087"><ele>78.0</ele><time>2026-03-28T17:49:39Z</time></trkpt><trkpt lat="44.44738300638482" lon="11.27317457217484"><ele>78.0</ele><time>2026-03-28T17:49:40Z</time></trkpt><trkpt lat="44.44738966699768" lon="11.273083999721106"><ele>78.0</ele><time>2026-03-28T17:49:41Z</time></trkpt><trkpt lat="44.44740729451508" lon="11.272970043405575"><ele>78.0</ele><time>2026-03-28T17:49:43Z</time></trkpt><trkpt lat="44.4474396656029" lon="11.272878140018138"><ele>78.0</ele><time>2026-03-28T17:49:45Z</time></trkpt><trkpt lat="44.44751165375352" lon="11.272769459047403"><ele>78.28571428571429</ele><time>2026-03-28T17:49:47Z</time></trkpt><trkpt lat="44.44754667442043" lon="11.272674097429109"><ele>78.57142857142857</ele><time>2026-03-28T17:49:48Z</time></trkpt><trkpt lat="44.447575334101266" lon="11.272579702166322"><ele>78.85714285714286</ele><time>2026-03-28T17:49:49Z</time></trkpt><trkpt lat="44.447616929893954" lon="11.272499001232605"><ele>79.14285714285714</ele><time>2026-03-28T17:49:50Z</time></trkpt><trkpt lat="44.44767281202562" lon="11.272444815848205"><ele>79.42857142857143</ele><time>2026-03-28T17:49:51Z</time></trkpt><trkpt lat="44.44773745994038" lon="11.272418177338677"><ele>79.71428571428571</ele><time>2026-03-28T17:49:52Z</time></trkpt><trkpt lat="44.44781291563223" lon="11.272414504407026"><ele>80.0</ele><time>2026-03-28T17:49:53Z</time></trkpt><trkpt lat="44.44790170922087" lon="11.272410949416946"><ele>80.4</ele><time>2026-03-28T17:49:54Z</time></trkpt><trkpt lat="44.447990241304126" lon="11.272407587816213"><ele>80.8</ele><time>2026-03-28T17:49:55Z</time></trkpt><trkpt lat="44.44808909345974" lon="11.272400996911566"><ele>81.19999999999999</ele><time>2026-03-28T17:49:56Z</time></trkpt><trkpt lat="44.44819866770177" lon="11.272395716855966"><ele>81.6</ele><time>2026-03-28T17:49:57Z</time></trkpt><trkpt lat="44.44830817695107" lon="11.2723844803965"><ele>82.0</ele><time>2026-03-28T17:49:58Z</time></trkpt><trkpt lat="44.44841516805045" lon="11.27236580071919"><ele>82.0</ele><time>2026-03-28T17:49:59Z</time></trkpt><trkpt lat="44.44852536700452" lon="11.272365858810147"><ele>82.0</ele><time>2026-03-28T17:50:00Z</time></trkpt><trkpt lat="44.448631996329446" lon="11.272342603026035"><ele>82.0</ele><time>2026-03-28T17:50:01Z</time></trkpt><trkpt lat="44.4487388704107" lon="11.27231604157519"><ele>82.0</ele><time>2026-03-28T17:50:02Z</time></trkpt><trkpt lat="44.448847200861756" lon="11.272289496746208"><ele>82.0</ele><time>2026-03-28T17:50:03Z</time></trkpt><trkpt lat="44.44897621783029" lon="11.272257883011116"><ele>83.0</ele><time>2026-03-28T17:50:04Z</time></trkpt><trkpt lat="44.449127643091735" lon="11.27222077826964"><ele>84.0</ele><time>2026-03-28T17:50:05Z</time></trkpt><trkpt lat="44.44929502821282" lon="11.272179492328974"><ele>85.0</ele><time>2026-03-28T17:50:06Z</time></trkpt><trkpt lat="44.44946878623129" lon="11.272114672051304"><ele>83.33333333333333</ele><time>2026-03-28T17:50:07Z</time></trkpt><trkpt lat="44.44964306856494" lon="11.272073932599652"><ele>81.66666666666667</ele><time>2026-03-28T17:50:08Z</time></trkpt><trkpt lat="44.44982405859491" lon="11.272029982483241"><ele>80.0</ele><time>2026-03-28T17:50:09Z</time></trkpt><trkpt lat="44.450011641876635" lon="11.271991551161106"><ele>80.0</ele><time>2026-03-28T17:50:10Z</time></trkpt><trkpt lat="44.4502115218999" lon="11.271944613124392"><ele>80.0</ele><time>2026-03-28T17:50:11Z</time></trkpt><trkpt lat="44.45041943145208" lon="11.27188842219386"><ele>80.0</ele><time>2026-03-28T17:50:12Z</time></trkpt><trkpt lat="44.450654331457436" lon="11.27185207144668"><ele>82.0</ele><time>2026-03-28T17:50:13Z</time></trkpt><trkpt lat="44.450908982474864" lon="11.271790331140476"><ele>84.0</ele><time>2026-03-28T17:50:14Z</time></trkpt><trkpt lat="44.45118021024341" lon="11.271724571827894"><ele>86.5</ele><time>2026-03-28T17:50:15Z</time></trkpt><trkpt lat="44.45145877537992" lon="11.271657876690702"><ele>89.0</ele><time>2026-03-28T17:50:16Z</time></trkpt><trkpt lat="44.4517126093056" lon="11.271598621147403"><ele>89.0</ele><time>2026-03-28T17:50:17Z</time></trkpt><trkpt lat="44.45193766178887" lon="11.271528683356443"><ele>89.0</ele><time>2026-03-28T17:50:18Z</time></trkpt><trkpt lat="44.45214904813097" lon="11.271485522044495"><ele>89.0</ele><time>2026-03-28T17:50:19Z</time></trkpt><trkpt lat="44.45234144419758" lon="11.271441483509564"><ele>88.33333333333334</ele><time>2026-03-28T17:50:20Z</time></trkpt><trkpt lat="44.45251828666825" lon="11.27139831392467"><ele>87.66666666666667</ele><time>2026-03-28T17:50:21Z</time></trkpt><trkpt lat="44.45268114000643" lon="11.271358752569977"><ele>87.0</ele><time>2026-03-28T17:50:22Z</time></trkpt><trkpt lat="44.452834768424125" lon="11.271321459414631"><ele>87.25</ele><time>2026-03-28T17:50:23Z</time></trkpt><trkpt lat="44.452977182460764" lon="11.271290786099527"><ele>87.5</ele><time>2026-03-28T17:50:24Z</time></trkpt><trkpt lat="44.453103991805236" lon="11.27125900495052"><ele>87.75</ele><time>2026-03-28T17:50:25Z</time></trkpt><trkpt lat="44.45322443757107" lon="11.271232473134525"><ele>88.0</ele><time>2026-03-28T17:50:26Z</time></trkpt><trkpt lat="44.45333161358564" lon="11.27120685529126"><ele>88.0</ele><time>2026-03-28T17:50:27Z</time></trkpt><trkpt lat="44.45343735742025" lon="11.271181221607245"><ele>88.0</ele><time>2026-03-28T17:50:28Z</time></trkpt><trkpt lat="44.45354737290259" lon="11.271157391856272"><ele>88.0</ele><time>2026-03-28T17:50:29Z</time></trkpt><trkpt lat="44.45366400631517" lon="11.271128283075873"><ele>88.0</ele><time>2026-03-28T17:50:30Z</time></trkpt><trkpt lat="44.45378589538186" lon="11.271100436808798"><ele>88.25</ele><time>2026-03-28T17:50:31Z</time></trkpt><trkpt lat="44.453912630583915" lon="11.271071668447918"><ele>88.5</ele><time>2026-03-28T17:50:32Z</time></trkpt><trkpt lat="44.454037837137705" lon="11.271040858619278"><ele>88.75</ele><time>2026-03-28T17:50:33Z</time></trkpt><trkpt lat="44.454157629322886" lon="11.271006499145251"><ele>89.0</ele><time>2026-03-28T17:50:34Z</time></trkpt><trkpt lat="44.4542717609371" lon="11.270967435407357"><ele>89.0</ele><time>2026-03-28T17:50:35Z</time></trkpt><trkpt lat="44.454384549226916" lon="11.270914026263071"><ele>89.0</ele><time>2026-03-28T17:50:36Z</time></trkpt><trkpt lat="44.454491959370195" lon="11.270848080613103"><ele>89.0</ele><time>2026-03-28T17:50:37Z</time></trkpt><trkpt lat="44.454608178983364" lon="11.27075871531163"><ele>89.0</ele><time>2026-03-28T17:50:38Z</time></trkpt><trkpt lat="44.45475488076272" lon="11.270628738162602"><ele>89.66666666666667</ele><time>2026-03-28T17:50:39Z</time></trkpt><trkpt lat="44.45492452903444" lon="11.270485073165768"><ele>90.33333333333333</ele><time>2026-03-28T17:50:40Z</time></trkpt><trkpt lat="44.45511969677067" lon="11.270376733180786"><ele>91.0</ele><time>2026-03-28T17:50:41Z</time></trkpt><trkpt lat="44.455285303815835" lon="11.270230240410529"><ele>91.0</ele><time>2026-03-28T17:50:42Z</time></trkpt><trkpt lat="44.45543370631981" lon="11.270102482700246"><ele>91.0</ele><time>2026-03-28T17:50:43Z</time></trkpt><trkpt lat="44.4555723681439" lon="11.269991428198603"><ele>91.0</ele><time>2026-03-28T17:50:44Z</time></trkpt><trkpt lat="44.45570787801954" lon="11.26989740089263"><ele>91.33333333333333</ele><time>2026-03-28T17:50:45Z</time></trkpt><trkpt lat="44.45584602122756" lon="11.269823291929075"><ele>91.66666666666667</ele><time>2026-03-28T17:50:46Z</time></trkpt><trkpt lat="44.45600795810209" lon="11.269764487865466"><ele>92.0</ele><time>2026-03-28T17:50:47Z</time></trkpt><trkpt lat="44.456202703350336" lon="11.269706737729376"><ele>91.66666666666667</ele><time>2026-03-28T17:50:48Z</time></trkpt><trkpt lat="44.4563839845053" lon="11.269627872915397"><ele>91.33333333333333</ele><time>2026-03-28T17:50:49Z</time></trkpt><trkpt lat="44.45652870123858" lon="11.269597292231232"><ele>91.0</ele><time>2026-03-28T17:50:50Z</time></trkpt><trkpt lat="44.45663933192987" lon="11.26955831726411"><ele>91.0</ele><time>2026-03-28T17:50:51Z</time></trkpt><trkpt lat="44.45671443520181" lon="11.269529034220843"><ele>91.0</ele><time>2026-03-28T17:50:52Z</time></trkpt><trkpt lat="44.45681729825458" lon="11.269471869833934"><ele>91.0</ele><time>2026-03-28T17:50:54Z</time></trkpt><trkpt lat="44.456922990935865" lon="11.269502173517507"><ele>91.0</ele><time>2026-03-28T17:50:56Z</time></trkpt><trkpt lat="44.45702332160285" lon="11.269546669836961"><ele>91.0</ele><time>2026-03-28T17:50:58Z</time></trkpt><trkpt lat="44.45708898402142" lon="11.269541662474593"><ele>90.5</ele><time>2026-03-28T17:50:59Z</time></trkpt><trkpt lat="44.45719045490543" lon="11.269452746827046"><ele>90.0</ele><time>2026-03-28T17:51:01Z</time></trkpt><trkpt lat="44.45730910397077" lon="11.269364072125088"><ele>89.5</ele><time>2026-03-28T17:51:03Z</time></trkpt><trkpt lat="44.45740573561506" lon="11.269318179307565"><ele>89.0</ele><time>2026-03-28T17:51:04Z</time></trkpt><trkpt lat="44.45755052021264" lon="11.269267190766072"><ele>89.0</ele><time>2026-03-28T17:51:05Z</time></trkpt><trkpt lat="44.45773866223449" lon="11.269230291071848"><ele>89.0</ele><time>2026-03-28T17:51:06Z</time></trkpt><trkpt lat="44.45794749610818" lon="11.269188697558063"><ele>89.0</ele><time>2026-03-28T17:51:07Z</time></trkpt><trkpt lat="44.45815466939711" lon="11.26913683786389"><ele>88.33333333333334</ele><time>2026-03-28T17:51:08Z</time></trkpt><trkpt lat="44.45835423867964" lon="11.269125338578545"><ele>87.66666666666667</ele><time>2026-03-28T17:51:09Z</time></trkpt><trkpt lat="44.458543125286205" lon="11.269114861199855"><ele>87.0</ele><time>2026-03-28T17:51:10Z</time></trkpt><trkpt lat="44.45872221644154" lon="11.269083949358608"><ele>87.33333333333333</ele><time>2026-03-28T17:51:11Z</time></trkpt><trkpt lat="44.458894273629845" lon="11.269084635564688"><ele>87.66666666666666</ele><time>2026-03-28T17:51:12Z</time></trkpt><trkpt lat="44.45904868135737" lon="11.269112578348022"><ele>88.0</ele><time>2026-03-28T17:51:13Z</time></trkpt><trkpt lat="44.459193258456374" lon="11.269143340932612"><ele>88.0</ele><time>2026-03-28T17:51:14Z</time></trkpt><trkpt lat="44.459368797471036" lon="11.26920688503853"><ele>88.0</ele><time>2026-03-28T17:51:15Z</time></trkpt><trkpt lat="44.459587527123546" lon="11.269298329530512"><ele>88.0</ele><time>2026-03-28T17:51:16Z</time></trkpt><trkpt lat="44.459760851159224" lon="11.269373051286378"><ele>87.0</ele><time>2026-03-28T17:51:17Z</time></trkpt><trkpt lat="44.45992129508483" lon="11.269427850916575"><ele>86.0</ele><time>2026-03-28T17:51:18Z</time></trkpt><trkpt lat="44.460071570762196" lon="11.269546996478285"><ele>85.0</ele><time>2026-03-28T17:51:19Z</time></trkpt><trkpt lat="44.460195604785206" lon="11.269688513014465"><ele>85.5</ele><time>2026-03-28T17:51:20Z</time></trkpt><trkpt lat="44.460295411685024" lon="11.269837108627085"><ele>86.0</ele><time>2026-03-28T17:51:21Z</time></trkpt><trkpt lat="44.46037729124734" lon="11.269996057544104"><ele>86.5</ele><time>2026-03-28T17:51:22Z</time></trkpt><trkpt lat="44.46045137471438" lon="11.270155739452063"><ele>87.0</ele><time>2026-03-28T17:51:23Z</time></trkpt><trkpt lat="44.46052822884718" lon="11.270289210232935"><ele>86.39999999999999</ele><time>2026-03-28T17:51:24Z</time></trkpt><trkpt lat="44.460594832281515" lon="11.270418160871523"><ele>85.8</ele><time>2026-03-28T17:51:25Z</time></trkpt><trkpt lat="44.46067082469743" lon="11.270511387528654"><ele>85.2</ele><time>2026-03-28T17:51:26Z</time></trkpt><trkpt lat="44.4607439058574" lon="11.270575209217947"><ele>84.6</ele><time>2026-03-28T17:51:27Z</time></trkpt><trkpt lat="44.4608130433694" lon="11.27060432440148"><ele>84.0</ele><time>2026-03-28T17:51:28Z</time></trkpt><trkpt lat="44.460898767412615" lon="11.27067728318628"><ele>84.0</ele><time>2026-03-28T17:51:29Z</time></trkpt><trkpt lat="44.46099205577101" lon="11.270816793824507"><ele>84.0</ele><time>2026-03-28T17:51:31Z</time></trkpt><trkpt lat="44.46105136181754" lon="11.270867089906814"><ele>84.0</ele><time>2026-03-28T17:51:32Z</time></trkpt><trkpt lat="44.46112951637437" lon="11.270880824825138"><ele>84.0</ele><time>2026-03-28T17:51:33Z</time></trkpt><trkpt lat="44.46123196636778" lon="11.270876741648678"><ele>84.0</ele><time>2026-03-28T17:51:34Z</time></trkpt><trkpt lat="44.46135941225005" lon="11.270874537136105"><ele>83.5</ele><time>2026-03-28T17:51:35Z</time></trkpt><trkpt lat="44.46148379366121" lon="11.270876278698667"><ele>83.0</ele><time>2026-03-28T17:51:36Z</time></trkpt><trkpt lat="44.461615523200706" lon="11.27086700088698"><ele>82.5</ele><time>2026-03-28T17:51:37Z</time></trkpt><trkpt lat="44.461785051257685" lon="11.2708627237676"><ele>82.0</ele><time>2026-03-28T17:51:38Z</time></trkpt><trkpt lat="44.46197155493189" lon="11.270865237358725"><ele>82.33333333333333</ele><time>2026-03-28T17:51:39Z</time></trkpt><trkpt lat="44.4621408116324" lon="11.270865556098446"><ele>82.66666666666667</ele><time>2026-03-28T17:51:40Z</time></trkpt><trkpt lat="44.462298327294164" lon="11.270843411374589"><ele>83.0</ele><time>2026-03-28T17:51:41Z</time></trkpt><trkpt lat="44.46243439567749" lon="11.270801829923164"><ele>83.0</ele><time>2026-03-28T17:51:42Z</time></trkpt><trkpt lat="44.46255070441117" lon="11.270748746029522"><ele>83.0</ele><time>2026-03-28T17:51:43Z</time></trkpt><trkpt lat="44.46265995202365" lon="11.270674553920669"><ele>83.0</ele><time>2026-03-28T17:51:44Z</time></trkpt><trkpt lat="44.46276617449246" lon="11.270579949405391"><ele>83.0</ele><time>2026-03-28T17:51:45Z</time></trkpt><trkpt lat="44.46288575469248" lon="11.27046460568258"><ele>83.33333333333334</ele><time>2026-03-28T17:51:46Z</time></trkpt><trkpt lat="44.46298886078094" lon="11.27033622238176"><ele>83.66666666666667</ele><time>2026-03-28T17:51:47Z</time></trkpt><trkpt lat="44.463091747198234" lon="11.270190082263781"><ele>84.0</ele><time>2026-03-28T17:51:48Z</time></trkpt><trkpt lat="44.463195716046265" lon="11.269993231040473"><ele>84.0</ele><time>2026-03-28T17:51:49Z</time></trkpt><trkpt lat="44.46332938615619" lon="11.269753157961633"><ele>84.0</ele><time>2026-03-28T17:51:50Z</time></trkpt><trkpt lat="44.4634737236735" lon="11.269525815266324"><ele>84.0</ele><time>2026-03-28T17:51:51Z</time></trkpt><trkpt lat="44.46360990399871" lon="11.269303949784701"><ele>84.0</ele><time>2026-03-28T17:51:52Z</time></trkpt><trkpt lat="44.46372574687416" lon="11.269099342594927"><ele>84.0</ele><time>2026-03-28T17:51:53Z</time></trkpt><trkpt lat="44.46385135993639" lon="11.268948626246091"><ele>84.0</ele><time>2026-03-28T17:51:54Z</time></trkpt><trkpt lat="44.46397290400772" lon="11.268839113142437"><ele>85.25</ele><time>2026-03-28T17:51:55Z</time></trkpt><trkpt lat="44.46409058426096" lon="11.268761260951301"><ele>86.5</ele><time>2026-03-28T17:51:56Z</time></trkpt><trkpt lat="44.46420027281995" lon="11.268707769058178"><ele>87.75</ele><time>2026-03-28T17:51:57Z</time></trkpt><trkpt lat="44.464307589703914" lon="11.268679490956124"><ele>89.0</ele><time>2026-03-28T17:51:58Z</time></trkpt><trkpt lat="44.464421196436085" lon="11.268664486566939"><ele>89.0</ele><time>2026-03-28T17:51:59Z</time></trkpt><trkpt lat="44.46453859462401" lon="11.268665678988205"><ele>89.0</ele><time>2026-03-28T17:52:00Z</time></trkpt><trkpt lat="44.46464977754128" lon="11.268687188560795"><ele>89.0</ele><time>2026-03-28T17:52:01Z</time></trkpt><trkpt lat="44.46474063718528" lon="11.268717942610394"><ele>89.0</ele><time>2026-03-28T17:52:02Z</time></trkpt><trkpt lat="44.464817821529216" lon="11.268759065722016"><ele>89.0</ele><time>2026-03-28T17:52:03Z</time></trkpt><trkpt lat="44.46488627383866" lon="11.26880537788169"><ele>88.66666666666667</ele><time>2026-03-28T17:52:04Z</time></trkpt><trkpt lat="44.464955775008086" lon="11.26884259665606"><ele>88.33333333333334</ele><time>2026-03-28T17:52:05Z</time></trkpt><trkpt lat="44.46500480849085" lon="11.268910008059759"><ele>88.0</ele><time>2026-03-28T17:52:06Z</time></trkpt><trkpt lat="44.4650790374861" lon="11.269036936373933"><ele>87.66666666666667</ele><time>2026-03-28T17:52:08Z</time></trkpt><trkpt lat="44.465168611984595" lon="11.269080626119266"><ele>87.33333333333333</ele><time>2026-03-28T17:52:10Z</time></trkpt><trkpt lat="44.46522724574158" lon="11.26902495159605"><ele>87.0</ele><time>2026-03-28T17:52:11Z</time></trkpt><trkpt lat="44.46528910735795" lon="11.268983342760324"><ele>87.0</ele><time>2026-03-28T17:52:12Z</time></trkpt><trkpt lat="44.46535822059771" lon="11.26897361073165"><ele>87.0</ele><time>2026-03-28T17:52:13Z</time></trkpt><trkpt lat="44.46543174654917" lon="11.269064796007195"><ele>87.0</ele><time>2026-03-28T17:52:14Z</time></trkpt><trkpt lat="44.46555401292095" lon="11.26914254033193"><ele>87.0</ele><time>2026-03-28T17:52:15Z</time></trkpt><trkpt lat="44.46569416304817" lon="11.269223039443226"><ele>87.0</ele><time>2026-03-28T17:52:16Z</time></trkpt><trkpt lat="44.46578704466518" lon="11.269397634284077"><ele>87.0</ele><time>2026-03-28T17:52:17Z</time></trkpt><trkpt lat="44.46595199940479" lon="11.26932073651507"><ele>87.0</ele><time>2026-03-28T17:52:18Z</time></trkpt><trkpt lat="44.46608574209887" lon="11.269402841516003"><ele>87.0</ele><time>2026-03-28T17:52:19Z</time></trkpt><trkpt lat="44.46621956818215" lon="11.269477560905358"><ele>87.0</ele><time>2026-03-28T17:52:20Z</time></trkpt><trkpt lat="44.466356481845615" lon="11.269552258565193"><ele>87.0</ele><time>2026-03-28T17:52:21Z</time></trkpt><trkpt lat="44.46647582578403" lon="11.269662427292296"><ele>87.0</ele><time>2026-03-28T17:52:22Z</time></trkpt><trkpt lat="44.46660376398329" lon="11.269734827634254"><ele>87.0</ele><time>2026-03-28T17:52:23Z</time></trkpt><trkpt lat="44.46673520977031" lon="11.269809179183406"><ele>87.0</ele><time>2026-03-28T17:52:24Z</time></trkpt><trkpt lat="44.46686276517882" lon="11.269881867348063"><ele>87.0</ele><time>2026-03-28T17:52:25Z</time></trkpt><trkpt lat="44.46695588617288" lon="11.26993403269562"><ele>87.0</ele><time>2026-03-28T17:52:26Z</time></trkpt><trkpt lat="44.46702611702725" lon="11.269951392046467"><ele>87.0</ele><time>2026-03-28T17:52:27Z</time></trkpt><trkpt lat="44.46709318342219" lon="11.270012938515773"><ele>87.0</ele><time>2026-03-28T17:52:28Z</time></trkpt><trkpt lat="44.46719932183732" lon="11.270073633395317"><ele>87.0</ele><time>2026-03-28T17:52:29Z</time></trkpt><trkpt lat="44.467310033195226" lon="11.27013510974908"><ele>87.0</ele><time>2026-03-28T17:52:30Z</time></trkpt><trkpt lat="44.46744486714454" lon="11.270210599631564"><ele>87.19999999999999</ele><time>2026-03-28T17:52:31Z</time></trkpt><trkpt lat="44.46757318798185" lon="11.270282446752496"><ele>87.4</ele><time>2026-03-28T17:52:32Z</time></trkpt><trkpt lat="44.46768130357663" lon="11.270343846155521"><ele>87.6</ele><time>2026-03-28T17:52:33Z</time></trkpt><trkpt lat="44.4677744089136" lon="11.27039644679557"><ele>87.80000000000001</ele><time>2026-03-28T17:52:34Z</time></trkpt><trkpt lat="44.46785829782052" lon="11.270443841510685"><ele>88.0</ele><time>2026-03-28T17:52:35Z</time></trkpt><trkpt lat="44.46793465842277" lon="11.270486983406123"><ele>86.80000000000001</ele><time>2026-03-28T17:52:36Z</time></trkpt><trkpt lat="44.468018380697444" lon="11.270534309380379"><ele>85.6</ele><time>2026-03-28T17:52:37Z</time></trkpt><trkpt lat="44.46810558986197" lon="11.270583601144143"><ele>84.4</ele><time>2026-03-28T17:52:38Z</time></trkpt><trkpt lat="44.46819725327647" lon="11.270635410903179"><ele>83.19999999999999</ele><time>2026-03-28T17:52:39Z</time></trkpt><trkpt lat="44.46833688915761" lon="11.270664875929482"><ele>82.0</ele><time>2026-03-28T17:52:40Z</time></trkpt><trkpt lat="44.468504354228706" lon="11.270774663229343"><ele>82.0</ele><time>2026-03-28T17:52:41Z</time></trkpt><trkpt lat="44.46866328251771" lon="11.270868832219398"><ele>82.0</ele><time>2026-03-28T17:52:42Z</time></trkpt><trkpt lat="44.468807821478975" lon="11.270949349808028"><ele>82.0</ele><time>2026-03-28T17:52:43Z</time></trkpt><trkpt lat="44.46894271463215" lon="11.271027683515484"><ele>81.25</ele><time>2026-03-28T17:52:44Z</time></trkpt><trkpt lat="44.46906146655358" lon="11.271119048344154"><ele>80.5</ele><time>2026-03-28T17:52:45Z</time></trkpt><trkpt lat="44.46917844279962" lon="11.271184443458596"><ele>79.75</ele><time>2026-03-28T17:52:46Z</time></trkpt><trkpt lat="44.469282338063856" lon="11.271242100817547"><ele>79.0</ele><time>2026-03-28T17:52:47Z</time></trkpt><trkpt lat="44.469387590133415" lon="11.271300182583326"><ele>79.0</ele><time>2026-03-28T17:52:48Z</time></trkpt><trkpt lat="44.46950242077834" lon="11.271363549358037"><ele>79.0</ele><time>2026-03-28T17:52:49Z</time></trkpt><trkpt lat="44.469615806026866" lon="11.271425819425229"><ele>79.0</ele><time>2026-03-28T17:52:50Z</time></trkpt><trkpt lat="44.46973630146668" lon="11.271453710177152"><ele>79.0</ele><time>2026-03-28T17:52:51Z</time></trkpt><trkpt lat="44.46983233244646" lon="11.271504147359197"><ele>79.16666666666666</ele><time>2026-03-28T17:52:52Z</time></trkpt><trkpt lat="44.46991679452686" lon="11.271555046446176"><ele>79.33333333333333</ele><time>2026-03-28T17:52:53Z</time></trkpt><trkpt lat="44.46999356192723" lon="11.271608384728024"><ele>79.5</ele><time>2026-03-28T17:52:54Z</time></trkpt><trkpt lat="44.47006928413159" lon="11.27165890200473"><ele>79.66666666666667</ele><time>2026-03-28T17:52:55Z</time></trkpt><trkpt lat="44.47014759172646" lon="11.271711205983156"><ele>79.83333333333334</ele><time>2026-03-28T17:52:56Z</time></trkpt><trkpt lat="44.470213026206835" lon="11.27175700019985"><ele>80.0</ele><time>2026-03-28T17:52:57Z</time></trkpt><trkpt lat="44.4702689030483" lon="11.271797820736957"><ele>80.0</ele><time>2026-03-28T17:52:58Z</time></trkpt><trkpt lat="44.47035976069751" lon="11.271867511906924"><ele>80.0</ele><time>2026-03-28T17:53:00Z</time></trkpt><trkpt lat="44.4704462910213" lon="11.271947369937575"><ele>80.0</ele><time>2026-03-28T17:53:05Z</time></trkpt><trkpt lat="44.47050875165684" lon="11.272055329464763"><ele>80.0</ele><time>2026-03-28T17:53:06Z</time></trkpt><trkpt lat="44.47056051232088" lon="11.272156001569012"><ele>80.0</ele><time>2026-03-28T17:53:07Z</time></trkpt><trkpt lat="44.47061934261101" lon="11.272199118422794"><ele>80.0</ele><time>2026-03-28T17:53:08Z</time></trkpt><trkpt lat="44.47069065237395" lon="11.272183934747545"><ele>80.0</ele><time>2026-03-28T17:53:09Z</time></trkpt><trkpt lat="44.47075732775249" lon="11.272123786205748"><ele>80.0</ele><time>2026-03-28T17:53:10Z</time></trkpt><trkpt lat="44.47082498908341" lon="11.27202700885493"><ele>80.0</ele><time>2026-03-28T17:53:11Z</time></trkpt><trkpt lat="44.47091620748715" lon="11.27195856241365"><ele>80.0</ele><time>2026-03-28T17:53:12Z</time></trkpt><trkpt lat="44.471016872545114" lon="11.272001199379112"><ele>80.0</ele><time>2026-03-28T17:53:13Z</time></trkpt><trkpt lat="44.471170638250825" lon="11.272009600092412"><ele>80.0</ele><time>2026-03-28T17:53:14Z</time></trkpt><trkpt lat="44.471348672710604" lon="11.27202991679397"><ele>80.0</ele><time>2026-03-28T17:53:15Z</time></trkpt><trkpt lat="44.47151946912306" lon="11.272044784207644"><ele>81.0</ele><time>2026-03-28T17:53:16Z</time></trkpt><trkpt lat="44.47168219988511" lon="11.27206052054887"><ele>82.0</ele><time>2026-03-28T17:53:17Z</time></trkpt><trkpt lat="44.47190472384544" lon="11.272134461925036"><ele>83.0</ele><time>2026-03-28T17:53:18Z</time></trkpt><trkpt lat="44.4720485083789" lon="11.272164444379522"><ele>83.5</ele><time>2026-03-28T17:53:19Z</time></trkpt><trkpt lat="44.47218065750781" lon="11.272178829986707"><ele>84.0</ele><time>2026-03-28T17:53:20Z</time></trkpt><trkpt lat="44.472302004293894" lon="11.2722063369253"><ele>84.5</ele><time>2026-03-28T17:53:21Z</time></trkpt><trkpt lat="44.47242279402684" lon="11.272228713287141"><ele>85.0</ele><time>2026-03-28T17:53:22Z</time></trkpt><trkpt lat="44.472557301737965" lon="11.272254249872924"><ele>84.25</ele><time>2026-03-28T17:53:23Z</time></trkpt><trkpt lat="44.47267610784028" lon="11.272273674523648"><ele>83.5</ele><time>2026-03-28T17:53:24Z</time></trkpt><trkpt lat="44.47279829901842" lon="11.272288237534196"><ele>82.75</ele><time>2026-03-28T17:53:25Z</time></trkpt><trkpt lat="44.472950488274826" lon="11.272319364469832"><ele>82.0</ele><time>2026-03-28T17:53:26Z</time></trkpt><trkpt lat="44.47311623851298" lon="11.2723477309708"><ele>82.0</ele><time>2026-03-28T17:53:27Z</time></trkpt><trkpt lat="44.473272517535584" lon="11.272372014920366"><ele>82.0</ele><time>2026-03-28T17:53:28Z</time></trkpt><trkpt lat="44.47340589023772" lon="11.272402509061271"><ele>82.0</ele><time>2026-03-28T17:53:29Z</time></trkpt><trkpt lat="44.473512269847575" lon="11.272421617295931"><ele>82.0</ele><time>2026-03-28T17:53:30Z</time></trkpt><trkpt lat="44.47360170702025" lon="11.272427416994164"><ele>82.0</ele><time>2026-03-28T17:53:31Z</time></trkpt><trkpt lat="44.47366936950453" lon="11.272429356204837"><ele>82.0</ele><time>2026-03-28T17:53:32Z</time></trkpt><trkpt lat="44.47375769152424" lon="11.27243752206401"><ele>82.0</ele><time>2026-03-28T17:53:34Z</time></trkpt><trkpt lat="44.473800174003216" lon="11.272517157618207"><ele>82.0</ele><time>2026-03-28T17:53:36Z</time></trkpt><trkpt lat="44.47388890024629" lon="11.272515592383272"><ele>82.0</ele><time>2026-03-28T17:54:07Z</time></trkpt><trkpt lat="44.473971751853" lon="11.272510878364132"><ele>82.0</ele><time>2026-03-28T17:54:08Z</time></trkpt><trkpt lat="44.474079178412225" lon="11.272503392047172"><ele>81.66666666666666</ele><time>2026-03-28T17:54:09Z</time></trkpt><trkpt lat="44.47422104817193" lon="11.272479160017676"><ele>81.33333333333333</ele><time>2026-03-28T17:54:10Z</time></trkpt><trkpt lat="44.47436960866901" lon="11.272451798155908"><ele>81.0</ele><time>2026-03-28T17:54:11Z</time></trkpt><trkpt lat="44.47455980158161" lon="11.272404127322497"><ele>81.66666666666667</ele><time>2026-03-28T17:54:12Z</time></trkpt><trkpt lat="44.474764526497935" lon="11.272338135024357"><ele>82.33333333333334</ele><time>2026-03-28T17:54:13Z</time></trkpt><trkpt lat="44.4749781638656" lon="11.272246857945794"><ele>83.0</ele><time>2026-03-28T17:54:14Z</time></trkpt><trkpt lat="44.475179606287085" lon="11.272143636390345"><ele>83.0</ele><time>2026-03-28T17:54:15Z</time></trkpt><trkpt lat="44.47537742323125" lon="11.272019672839143"><ele>83.0</ele><time>2026-03-28T17:54:16Z</time></trkpt><trkpt lat="44.47556856203337" lon="11.271885394811713"><ele>83.0</ele><time>2026-03-28T17:54:17Z</time></trkpt><trkpt lat="44.47575503851353" lon="11.271726754887304"><ele>83.0</ele><time>2026-03-28T17:54:18Z</time></trkpt><trkpt lat="44.47592301339765" lon="11.271573937478367"><ele>83.0</ele><time>2026-03-28T17:54:19Z</time></trkpt><trkpt lat="44.47607111702023" lon="11.271434641496779"><ele>83.0</ele><time>2026-03-28T17:54:20Z</time></trkpt><trkpt lat="44.4762090880471" lon="11.271305058921422"><ele>81.0</ele><time>2026-03-28T17:54:21Z</time></trkpt><trkpt lat="44.476347224575136" lon="11.271175743963855"><ele>79.0</ele><time>2026-03-28T17:54:22Z</time></trkpt><trkpt lat="44.47650849871911" lon="11.271024372033285"><ele>77.0</ele><time>2026-03-28T17:54:23Z</time></trkpt><trkpt lat="44.47668085428597" lon="11.270861755172046"><ele>77.0</ele><time>2026-03-28T17:54:24Z</time></trkpt><trkpt lat="44.476849656365395" lon="11.270704181503458"><ele>77.0</ele><time>2026-03-28T17:54:25Z</time></trkpt><trkpt lat="44.47700011619229" lon="11.270563387098157"><ele>77.0</ele><time>2026-03-28T17:54:26Z</time></trkpt><trkpt lat="44.477138955870736" lon="11.270442198842217"><ele>76.66666666666667</ele><time>2026-03-28T17:54:27Z</time></trkpt><trkpt lat="44.47727764255456" lon="11.270338181660774"><ele>76.33333333333333</ele><time>2026-03-28T17:54:28Z</time></trkpt><trkpt lat="44.477430695816984" lon="11.270245793523124"><ele>76.0</ele><time>2026-03-28T17:54:29Z</time></trkpt><trkpt lat="44.4775936320837" lon="11.27018503775556"><ele>76.0</ele><time>2026-03-28T17:54:30Z</time></trkpt><trkpt lat="44.477750913052056" lon="11.270151758927009"><ele>76.0</ele><time>2026-03-28T17:54:31Z</time></trkpt><trkpt lat="44.47789103181168" lon="11.270147103533406"><ele>76.0</ele><time>2026-03-28T17:54:32Z</time></trkpt><trkpt lat="44.47800675824648" lon="11.270160386772314"><ele>76.0</ele><time>2026-03-28T17:54:33Z</time></trkpt><trkpt lat="44.47812122030752" lon="11.270182823524836"><ele>75.8</ele><time>2026-03-28T17:54:34Z</time></trkpt><trkpt lat="44.47822073530378" lon="11.270219162021277"><ele>75.6</ele><time>2026-03-28T17:54:35Z</time></trkpt><trkpt lat="44.47832001899698" lon="11.27026429034995"><ele>75.4</ele><time>2026-03-28T17:54:36Z</time></trkpt><trkpt lat="44.4784103964708" lon="11.270316718056339"><ele>75.2</ele><time>2026-03-28T17:54:37Z</time></trkpt><trkpt lat="44.478481353838006" lon="11.27036838439612"><ele>75.0</ele><time>2026-03-28T17:54:38Z</time></trkpt><trkpt lat="44.47854540484047" lon="11.270418033582194"><ele>75.0</ele><time>2026-03-28T17:54:39Z</time></trkpt><trkpt lat="44.47861238025226" lon="11.270481173166175"><ele>75.0</ele><time>2026-03-28T17:54:40Z</time></trkpt><trkpt lat="44.47868559908555" lon="11.270564417759752"><ele>75.0</ele><time>2026-03-28T17:54:41Z</time></trkpt><trkpt lat="44.478750257859794" lon="11.270656187892705"><ele>75.0</ele><time>2026-03-28T17:54:42Z</time></trkpt><trkpt lat="44.478838482453725" lon="11.27070178837946"><ele>75.0</ele><time>2026-03-28T17:54:43Z</time></trkpt><trkpt lat="44.47889294077468" lon="11.270789373435589"><ele>75.0</ele><time>2026-03-28T17:54:44Z</time></trkpt><trkpt lat="44.478947511387304" lon="11.270878434664462"><ele>74.0</ele><time>2026-03-28T17:54:45Z</time></trkpt><trkpt lat="44.478998890418914" lon="11.270969795333716"><ele>73.0</ele><time>2026-03-28T17:54:46Z</time></trkpt><trkpt lat="44.479036880124475" lon="11.271041880788422"><ele>72.0</ele><time>2026-03-28T17:54:47Z</time></trkpt><trkpt lat="44.47907526301814" lon="11.271166277688494"><ele>71.0</ele><time>2026-03-28T17:54:49Z</time></trkpt><trkpt lat="44.47907102310545" lon="11.271304021788637"><ele>70.0</ele><time>2026-03-28T17:54:51Z</time></trkpt><trkpt lat="44.47909790862324" lon="11.271480008470686"><ele>69.71428571428571</ele><time>2026-03-28T17:54:53Z</time></trkpt><trkpt lat="44.47914249747025" lon="11.271565326892032"><ele>69.42857142857143</ele><time>2026-03-28T17:54:54Z</time></trkpt><trkpt lat="44.479204466617944" lon="11.271625115692972"><ele>69.14285714285714</ele><time>2026-03-28T17:54:55Z</time></trkpt><trkpt lat="44.47927334373402" lon="11.271652932209602"><ele>68.85714285714286</ele><time>2026-03-28T17:54:56Z</time></trkpt><trkpt lat="44.47934572474195" lon="11.271642792699652"><ele>68.57142857142857</ele><time>2026-03-28T17:54:57Z</time></trkpt><trkpt lat="44.47940765042385" lon="11.271606267002932"><ele>68.28571428571428</ele><time>2026-03-28T17:54:58Z</time></trkpt><trkpt lat="44.47946651393879" lon="11.271564358345985"><ele>68.0</ele><time>2026-03-28T17:54:59Z</time></trkpt><trkpt lat="44.47957593154602" lon="11.27149548855921"><ele>67.75</ele><time>2026-03-28T17:55:01Z</time></trkpt><trkpt lat="44.47970591947148" lon="11.271465825848466"><ele>67.5</ele><time>2026-03-28T17:55:03Z</time></trkpt><trkpt lat="44.47986207619036" lon="11.271444040998583"><ele>67.25</ele><time>2026-03-28T17:55:05Z</time></trkpt><trkpt lat="44.47997326468065" lon="11.27142250167064"><ele>67.0</ele><time>2026-03-28T17:55:06Z</time></trkpt><trkpt lat="44.4800929390208" lon="11.271402920473536"><ele>67.0</ele><time>2026-03-28T17:55:07Z</time></trkpt><trkpt lat="44.48022360649356" lon="11.271385288948641"><ele>67.0</ele><time>2026-03-28T17:55:08Z</time></trkpt><trkpt lat="44.48035352389218" lon="11.271370114362234"><ele>67.0</ele><time>2026-03-28T17:55:09Z</time></trkpt><trkpt lat="44.48047863340244" lon="11.271356704158872"><ele>67.0</ele><time>2026-03-28T17:55:10Z</time></trkpt><trkpt lat="44.48060088353791" lon="11.271354365039688"><ele>66.75</ele><time>2026-03-28T17:55:11Z</time></trkpt><trkpt lat="44.4807281826959" lon="11.271366514848365"><ele>66.5</ele><time>2026-03-28T17:55:12Z</time></trkpt><trkpt lat="44.48085850126035" lon="11.271389823903741"><ele>66.25</ele><time>2026-03-28T17:55:13Z</time></trkpt><trkpt lat="44.48098803850383" lon="11.271417176565864"><ele>66.0</ele><time>2026-03-28T17:55:14Z</time></trkpt><trkpt lat="44.48112848933151" lon="11.271439320676592"><ele>66.0</ele><time>2026-03-28T17:55:15Z</time></trkpt><trkpt lat="44.48127840703638" lon="11.271475820391718"><ele>66.0</ele><time>2026-03-28T17:55:16Z</time></trkpt><trkpt lat="44.48143140752518" lon="11.27151011684766"><ele>66.0</ele><time>2026-03-28T17:55:17Z</time></trkpt><trkpt lat="44.48158172040088" lon="11.271536412369972"><ele>66.0</ele><time>2026-03-28T17:55:18Z</time></trkpt><trkpt lat="44.481730946349515" lon="11.271548879189298"><ele>66.0</ele><time>2026-03-28T17:55:19Z</time></trkpt><trkpt lat="44.48187942755036" lon="11.271555331483817"><ele>66.0</ele><time>2026-03-28T17:55:20Z</time></trkpt><trkpt lat="44.48202364526939" lon="11.271562877942307"><ele>66.0</ele><time>2026-03-28T17:55:21Z</time></trkpt><trkpt lat="44.48216400339387" lon="11.271578410848845"><ele>65.0</ele><time>2026-03-28T17:55:22Z</time></trkpt><trkpt lat="44.48232349976077" lon="11.271610287652782"><ele>64.0</ele><time>2026-03-28T17:55:23Z</time></trkpt><trkpt lat="44.48254017148041" lon="11.271664842109777"><ele>63.0</ele><time>2026-03-28T17:55:24Z</time></trkpt><trkpt lat="44.482807153028325" lon="11.271754297342106"><ele>62.5</ele><time>2026-03-28T17:55:25Z</time></trkpt><trkpt lat="44.48310426469719" lon="11.271869453493057"><ele>62.0</ele><time>2026-03-28T17:55:26Z</time></trkpt><trkpt lat="44.48339631030507" lon="11.271999777004044"><ele>62.0</ele><time>2026-03-28T17:55:27Z</time></trkpt><trkpt lat="44.483736139023456" lon="11.272180253595948"><ele>62.0</ele><time>2026-03-28T17:55:28Z</time></trkpt><trkpt lat="44.48402627156757" lon="11.272334948356265"><ele>61.0</ele><time>2026-03-28T17:55:29Z</time></trkpt><trkpt lat="44.4842876081537" lon="11.272481193518919"><ele>60.0</ele><time>2026-03-28T17:55:30Z</time></trkpt><trkpt lat="44.484526005832954" lon="11.27261894655647"><ele>59.5</ele><time>2026-03-28T17:55:31Z</time></trkpt><trkpt lat="44.48475137728165" lon="11.272759013000842"><ele>59.0</ele><time>2026-03-28T17:55:32Z</time></trkpt><trkpt lat="44.48495940201076" lon="11.272890732785411"><ele>59.0</ele><time>2026-03-28T17:55:33Z</time></trkpt><trkpt lat="44.485153407286646" lon="11.273015532070135"><ele>59.0</ele><time>2026-03-28T17:55:34Z</time></trkpt><trkpt lat="44.48531485581565" lon="11.273118644071156"><ele>59.0</ele><time>2026-03-28T17:55:35Z</time></trkpt><trkpt lat="44.48546622536002" lon="11.273215491532603"><ele>58.66666666666667</ele><time>2026-03-28T17:55:36Z</time></trkpt><trkpt lat="44.48561672000438" lon="11.273305431245635"><ele>58.33333333333333</ele><time>2026-03-28T17:55:37Z</time></trkpt><trkpt lat="44.48577568005785" lon="11.273401966550194"><ele>58.0</ele><time>2026-03-28T17:55:38Z</time></trkpt><trkpt lat="44.485946850770254" lon="11.273507054193955"><ele>58.0</ele><time>2026-03-28T17:55:39Z</time></trkpt><trkpt lat="44.48611858998612" lon="11.273613770606545"><ele>58.0</ele><time>2026-03-28T17:55:40Z</time></trkpt><trkpt lat="44.48628525532701" lon="11.27372105303538"><ele>58.0</ele><time>2026-03-28T17:55:41Z</time></trkpt><trkpt lat="44.48645673241387" lon="11.273836385559628"><ele>57.666666666666664</ele><time>2026-03-28T17:55:42Z</time></trkpt><trkpt lat="44.48662454355084" lon="11.273947836140287"><ele>57.33333333333333</ele><time>2026-03-28T17:55:43Z</time></trkpt><trkpt lat="44.48679713079007" lon="11.274053509016888"><ele>57.0</ele><time>2026-03-28T17:55:44Z</time></trkpt><trkpt lat="44.486966186881936" lon="11.274161824476371"><ele>56.0</ele><time>2026-03-28T17:55:45Z</time></trkpt><trkpt lat="44.487122046323584" lon="11.274263301358943"><ele>55.0</ele><time>2026-03-28T17:55:46Z</time></trkpt><trkpt lat="44.487274086075466" lon="11.274360992718188"><ele>54.0</ele><time>2026-03-28T17:55:47Z</time></trkpt><trkpt lat="44.487423836547144" lon="11.274457381116562"><ele>54.0</ele><time>2026-03-28T17:55:48Z</time></trkpt><trkpt lat="44.48757127373093" lon="11.274550581841694"><ele>54.0</ele><time>2026-03-28T17:55:49Z</time></trkpt><trkpt lat="44.48771168594574" lon="11.27464058329386"><ele>54.0</ele><time>2026-03-28T17:55:50Z</time></trkpt><trkpt lat="44.48784061467843" lon="11.274724672513468"><ele>53.75</ele><time>2026-03-28T17:55:51Z</time></trkpt><trkpt lat="44.48796172934848" lon="11.274797076013341"><ele>53.5</ele><time>2026-03-28T17:55:52Z</time></trkpt><trkpt lat="44.4880763496089" lon="11.274855639913424"><ele>53.25</ele><time>2026-03-28T17:55:53Z</time></trkpt><trkpt lat="44.488187737986784" lon="11.274894049532842"><ele>53.0</ele><time>2026-03-28T17:55:54Z</time></trkpt><trkpt lat="44.48830044634758" lon="11.27490194497063"><ele>53.0</ele><time>2026-03-28T17:55:55Z</time></trkpt><trkpt lat="44.48841392641819" lon="11.2748836634379"><ele>53.0</ele><time>2026-03-28T17:55:56Z</time></trkpt><trkpt lat="44.48852214495304" lon="11.274839330386852"><ele>53.0</ele><time>2026-03-28T17:55:57Z</time></trkpt><trkpt lat="44.48862184466747" lon="11.274775634180463"><ele>53.0</ele><time>2026-03-28T17:55:58Z</time></trkpt><trkpt lat="44.48871116044687" lon="11.274696476955613"><ele>53.0</ele><time>2026-03-28T17:55:59Z</time></trkpt><trkpt lat="44.488792315112434" lon="11.274596583465181"><ele>53.0</ele><time>2026-03-28T17:56:00Z</time></trkpt><trkpt lat="44.48886948316126" lon="11.27447046241519"><ele>53.0</ele><time>2026-03-28T17:56:01Z</time></trkpt><trkpt lat="44.48893421845821" lon="11.274324046146237"><ele>53.0</ele><time>2026-03-28T17:56:02Z</time></trkpt><trkpt lat="44.488984085260014" lon="11.27415278237963"><ele>53.0</ele><time>2026-03-28T17:56:03Z</time></trkpt><trkpt lat="44.48901265236264" lon="11.273960964651758"><ele>52.333333333333336</ele><time>2026-03-28T17:56:04Z</time></trkpt><trkpt lat="44.489027612966" lon="11.273751502658786"><ele>51.66666666666667</ele><time>2026-03-28T17:56:05Z</time></trkpt><trkpt lat="44.48904489297775" lon="11.273534842218734"><ele>51.0</ele><time>2026-03-28T17:56:06Z</time></trkpt><trkpt lat="44.4890664839049" lon="11.27332012188152"><ele>51.0</ele><time>2026-03-28T17:56:07Z</time></trkpt><trkpt lat="44.48908899982231" lon="11.273107428468172"><ele>51.0</ele><time>2026-03-28T17:56:08Z</time></trkpt><trkpt lat="44.489112094758156" lon="11.272913908210644"><ele>51.0</ele><time>2026-03-28T17:56:09Z</time></trkpt><trkpt lat="44.489137236849686" lon="11.272740985806156"><ele>51.0</ele><time>2026-03-28T17:56:10Z</time></trkpt><trkpt lat="44.4891692601238" lon="11.272584023083741"><ele>51.0</ele><time>2026-03-28T17:56:11Z</time></trkpt><trkpt lat="44.489208641211164" lon="11.272434399736968"><ele>51.0</ele><time>2026-03-28T17:56:12Z</time></trkpt><trkpt lat="44.48926043257701" lon="11.272276222581445"><ele>51.0</ele><time>2026-03-28T17:56:13Z</time></trkpt><trkpt lat="44.489318907168105" lon="11.272078419836443"><ele>51.0</ele><time>2026-03-28T17:56:14Z</time></trkpt><trkpt lat="44.48939837304861" lon="11.271831288478522"><ele>51.33333333333333</ele><time>2026-03-28T17:56:15Z</time></trkpt><trkpt lat="44.48949545376894" lon="11.271612238473393"><ele>51.666666666666664</ele><time>2026-03-28T17:56:16Z</time></trkpt><trkpt lat="44.489577038728434" lon="11.27146003857195"><ele>52.0</ele><time>2026-03-28T17:56:17Z</time></trkpt><trkpt lat="44.48966012866769" lon="11.271316312542965"><ele>52.0</ele><time>2026-03-28T17:56:18Z</time></trkpt><trkpt lat="44.489740371132164" lon="11.271181726727857"><ele>52.0</ele><time>2026-03-28T17:56:19Z</time></trkpt><trkpt lat="44.489827134680205" lon="11.271035700127625"><ele>52.0</ele><time>2026-03-28T17:56:20Z</time></trkpt><trkpt lat="44.489938388019475" lon="11.27083186796825"><ele>52.0</ele><time>2026-03-28T17:56:21Z</time></trkpt><trkpt lat="44.490064009503335" lon="11.270575456153342"><ele>52.666666666666664</ele><time>2026-03-28T17:56:22Z</time></trkpt><trkpt lat="44.49020440993092" lon="11.270313283826257"><ele>53.33333333333333</ele><time>2026-03-28T17:56:23Z</time></trkpt><trkpt lat="44.49032699397072" lon="11.270078253274296"><ele>54.0</ele><time>2026-03-28T17:56:24Z</time></trkpt><trkpt lat="44.490427278891254" lon="11.269868702173081"><ele>54.33333333333333</ele><time>2026-03-28T17:56:25Z</time></trkpt><trkpt lat="44.490505426686276" lon="11.269661441262448"><ele>54.666666666666664</ele><time>2026-03-28T17:56:26Z</time></trkpt><trkpt lat="44.4905806320804" lon="11.269454922471928"><ele>55.0</ele><time>2026-03-28T17:56:27Z</time></trkpt><trkpt lat="44.49065681974228" lon="11.269256793347347"><ele>55.0</ele><time>2026-03-28T17:56:28Z</time></trkpt><trkpt lat="44.49070516612705" lon="11.269070133937129"><ele>55.0</ele><time>2026-03-28T17:56:29Z</time></trkpt><trkpt lat="44.49076029991779" lon="11.268864854281768"><ele>55.0</ele><time>2026-03-28T17:56:30Z</time></trkpt><trkpt lat="44.490810535262206" lon="11.268666278572729"><ele>55.0</ele><time>2026-03-28T17:56:31Z</time></trkpt><trkpt lat="44.49086442393438" lon="11.268436749335695"><ele>55.0</ele><time>2026-03-28T17:56:32Z</time></trkpt><trkpt lat="44.49092672705015" lon="11.268145797925124"><ele>55.0</ele><time>2026-03-28T17:56:33Z</time></trkpt><trkpt lat="44.490996199408436" lon="11.267807138744905"><ele>55.5</ele><time>2026-03-28T17:56:34Z</time></trkpt><trkpt lat="44.491067334231666" lon="11.267452115555427"><ele>56.0</ele><time>2026-03-28T17:56:35Z</time></trkpt><trkpt lat="44.491136488421205" lon="11.267081260357648"><ele>56.0</ele><time>2026-03-28T17:56:36Z</time></trkpt><trkpt lat="44.49121089960582" lon="11.266671438118959"><ele>56.0</ele><time>2026-03-28T17:56:37Z</time></trkpt><trkpt lat="44.491289914084675" lon="11.26622467578926"><ele>56.5</ele><time>2026-03-28T17:56:38Z</time></trkpt><trkpt lat="44.491370449062124" lon="11.265777282942127"><ele>57.0</ele><time>2026-03-28T17:56:39Z</time></trkpt><trkpt lat="44.49144796229117" lon="11.26537139953728"><ele>57.5</ele><time>2026-03-28T17:56:40Z</time></trkpt><trkpt lat="44.49152417020737" lon="11.265014413809865"><ele>58.0</ele><time>2026-03-28T17:56:41Z</time></trkpt><trkpt lat="44.491595874217126" lon="11.264668953490274"><ele>57.5</ele><time>2026-03-28T17:56:42Z</time></trkpt><trkpt lat="44.49166596317113" lon="11.264310971308891"><ele>57.0</ele><time>2026-03-28T17:56:43Z</time></trkpt><trkpt lat="44.491739540706725" lon="11.263910424229055"><ele>57.0</ele><time>2026-03-28T17:56:44Z</time></trkpt><trkpt lat="44.4918213425619" lon="11.263477064466889"><ele>57.0</ele><time>2026-03-28T17:56:45Z</time></trkpt><trkpt lat="44.49190793005269" lon="11.26304858909298"><ele>57.0</ele><time>2026-03-28T17:56:46Z</time></trkpt><trkpt lat="44.49199029823802" lon="11.262645372019083"><ele>57.0</ele><time>2026-03-28T17:56:47Z</time></trkpt><trkpt lat="44.49206796252296" lon="11.262264968171857"><ele>56.5</ele><time>2026-03-28T17:56:48Z</time></trkpt><trkpt lat="44.49214295140368" lon="11.26189774844095"><ele>56.0</ele><time>2026-03-28T17:56:49Z</time></trkpt><trkpt lat="44.492218278395285" lon="11.261529062749853"><ele>55.0</ele><time>2026-03-28T17:56:50Z</time></trkpt><trkpt lat="44.49229390248362" lon="11.261155656708047"><ele>54.0</ele><time>2026-03-28T17:56:51Z</time></trkpt><trkpt lat="44.49236710964277" lon="11.260774798577083"><ele>54.0</ele><time>2026-03-28T17:56:52Z</time></trkpt><trkpt lat="44.49244004375127" lon="11.260409319395801"><ele>54.0</ele><time>2026-03-28T17:56:53Z</time></trkpt><trkpt lat="44.4925093462455" lon="11.260055301403893"><ele>55.5</ele><time>2026-03-28T17:56:54Z</time></trkpt><trkpt lat="44.49258763072994" lon="11.259699849223608"><ele>57.0</ele><time>2026-03-28T17:56:55Z</time></trkpt><trkpt lat="44.49266117070886" lon="11.259341230137384"><ele>57.0</ele><time>2026-03-28T17:56:56Z</time></trkpt><trkpt lat="44.49272363775695" lon="11.259002580006392"><ele>57.0</ele><time>2026-03-28T17:56:57Z</time></trkpt><trkpt lat="44.49278971305407" lon="11.258677624706975"><ele>56.5</ele><time>2026-03-28T17:56:58Z</time></trkpt><trkpt lat="44.49285849454489" lon="11.25834210634013"><ele>56.0</ele><time>2026-03-28T17:56:59Z</time></trkpt><trkpt lat="44.492926938330726" lon="11.257999786297905"><ele>56.0</ele><time>2026-03-28T17:57:00Z</time></trkpt><trkpt lat="44.4929920826373" lon="11.257671393013776"><ele>56.0</ele><time>2026-03-28T17:57:01Z</time></trkpt><trkpt lat="44.493049883335516" lon="11.257342228116421"><ele>56.0</ele><time>2026-03-28T17:57:02Z</time></trkpt><trkpt lat="44.49309499932827" lon="11.25701422023565"><ele>56.0</ele><time>2026-03-28T17:57:03Z</time></trkpt><trkpt lat="44.49312835541514" lon="11.256697013681077"><ele>57.0</ele><time>2026-03-28T17:57:04Z</time></trkpt><trkpt lat="44.49315790247408" lon="11.256376922894278"><ele>58.0</ele><time>2026-03-28T17:57:05Z</time></trkpt><trkpt lat="44.49319268783434" lon="11.256018358003296"><ele>58.0</ele><time>2026-03-28T17:57:06Z</time></trkpt><trkpt lat="44.493219506246284" lon="11.255640876649553"><ele>58.0</ele><time>2026-03-28T17:57:07Z</time></trkpt><trkpt lat="44.49321925067611" lon="11.255278020903166"><ele>58.5</ele><time>2026-03-28T17:57:08Z</time></trkpt><trkpt lat="44.49320239644558" lon="11.254924889939145"><ele>59.0</ele><time>2026-03-28T17:57:09Z</time></trkpt><trkpt lat="44.49317650942988" lon="11.254586194663215"><ele>59.333333333333336</ele><time>2026-03-28T17:57:10Z</time></trkpt><trkpt lat="44.493149430140676" lon="11.254268220867667"><ele>59.66666666666667</ele><time>2026-03-28T17:57:11Z</time></trkpt><trkpt lat="44.4931188376788" lon="11.253965378181027"><ele>60.0</ele><time>2026-03-28T17:57:12Z</time></trkpt><trkpt lat="44.49307873224753" lon="11.253666123896535"><ele>60.66666666666667</ele><time>2026-03-28T17:57:13Z</time></trkpt><trkpt lat="44.49303110104371" lon="11.253369404593334"><ele>61.333333333333336</ele><time>2026-03-28T17:57:14Z</time></trkpt><trkpt lat="44.49298435514694" lon="11.253096070825539"><ele>62.0</ele><time>2026-03-28T17:57:15Z</time></trkpt><trkpt lat="44.492936297775714" lon="11.252851577637927"><ele>61.66666666666667</ele><time>2026-03-28T17:57:16Z</time></trkpt><trkpt lat="44.4928900538084" lon="11.252615784910375"><ele>61.33333333333333</ele><time>2026-03-28T17:57:17Z</time></trkpt><trkpt lat="44.492837521269855" lon="11.252380807423366"><ele>61.0</ele><time>2026-03-28T17:57:18Z</time></trkpt><trkpt lat="44.492780287243306" lon="11.252149776875696"><ele>61.0</ele><time>2026-03-28T17:57:19Z</time></trkpt><trkpt lat="44.492730507716026" lon="11.251955584088877"><ele>61.0</ele><time>2026-03-28T17:57:20Z</time></trkpt><trkpt lat="44.492686018303424" lon="11.251786418822945"><ele>61.0</ele><time>2026-03-28T17:57:21Z</time></trkpt><trkpt lat="44.49263096295367" lon="11.251597449492051"><ele>61.0</ele><time>2026-03-28T17:57:22Z</time></trkpt><trkpt lat="44.49256793347099" lon="11.251393642617343"><ele>61.33333333333333</ele><time>2026-03-28T17:57:23Z</time></trkpt><trkpt lat="44.492507326935225" lon="11.251199755279494"><ele>61.66666666666667</ele><time>2026-03-28T17:57:24Z</time></trkpt><trkpt lat="44.49245010802379" lon="11.251011176695728"><ele>62.0</ele><time>2026-03-28T17:57:25Z</time></trkpt><trkpt lat="44.49238740797083" lon="11.250812642171134"><ele>62.333333333333336</ele><time>2026-03-28T17:57:26Z</time></trkpt><trkpt lat="44.49232405423604" lon="11.250604885215171"><ele>62.66666666666667</ele><time>2026-03-28T17:57:27Z</time></trkpt><trkpt lat="44.49226319909306" lon="11.250407731435597"><ele>63.0</ele><time>2026-03-28T17:57:28Z</time></trkpt><trkpt lat="44.492207165633324" lon="11.250223428598614"><ele>63.0</ele><time>2026-03-28T17:57:29Z</time></trkpt><trkpt lat="44.492151233793756" lon="11.250031358397694"><ele>63.0</ele><time>2026-03-28T17:57:30Z</time></trkpt><trkpt lat="44.49209367751482" lon="11.249833676626574"><ele>63.0</ele><time>2026-03-28T17:57:31Z</time></trkpt><trkpt lat="44.49203183752441" lon="11.249628659014567"><ele>63.33333333333333</ele><time>2026-03-28T17:57:32Z</time></trkpt><trkpt lat="44.4919659790488" lon="11.24941533793803"><ele>63.666666666666664</ele><time>2026-03-28T17:57:33Z</time></trkpt><trkpt lat="44.49190400991826" lon="11.249194268695028"><ele>64.0</ele><time>2026-03-28T17:57:34Z</time></trkpt><trkpt lat="44.49183921725825" lon="11.248971756917166"><ele>64.0</ele><time>2026-03-28T17:57:35Z</time></trkpt><trkpt lat="44.49176865826832" lon="11.24874889631725"><ele>64.0</ele><time>2026-03-28T17:57:36Z</time></trkpt><trkpt lat="44.49170138050053" lon="11.248522789020464"><ele>64.0</ele><time>2026-03-28T17:57:37Z</time></trkpt><trkpt lat="44.491633293041644" lon="11.24829954962706"><ele>64.0</ele><time>2026-03-28T17:57:38Z</time></trkpt><trkpt lat="44.491564895338115" lon="11.24806940509081"><ele>64.0</ele><time>2026-03-28T17:57:39Z</time></trkpt><trkpt lat="44.4914987996683" lon="11.247844523880573"><ele>64.0</ele><time>2026-03-28T17:57:40Z</time></trkpt><trkpt lat="44.491433636676824" lon="11.2476208277563"><ele>64.0</ele><time>2026-03-28T17:57:41Z</time></trkpt><trkpt lat="44.4913636952257" lon="11.2474030834586"><ele>64.0</ele><time>2026-03-28T17:57:42Z</time></trkpt><trkpt lat="44.491283690542545" lon="11.247158574613168"><ele>64.0</ele><time>2026-03-28T17:57:43Z</time></trkpt><trkpt lat="44.49120989825075" lon="11.246940748909129"><ele>64.33333333333333</ele><time>2026-03-28T17:57:44Z</time></trkpt><trkpt lat="44.491153759732406" lon="11.246742935951183"><ele>64.66666666666667</ele><time>2026-03-28T17:57:45Z</time></trkpt><trkpt lat="44.49109817465265" lon="11.246554569930725"><ele>65.0</ele><time>2026-03-28T17:57:46Z</time></trkpt><trkpt lat="44.49103914817454" lon="11.246357030655988"><ele>65.66666666666667</ele><time>2026-03-28T17:57:47Z</time></trkpt><trkpt lat="44.49097844359295" lon="11.24614555387471"><ele>66.33333333333333</ele><time>2026-03-28T17:57:48Z</time></trkpt><trkpt lat="44.49092163906744" lon="11.24594039072937"><ele>67.0</ele><time>2026-03-28T17:57:49Z</time></trkpt><trkpt lat="44.49086040410828" lon="11.245728376081043"><ele>67.33333333333333</ele><time>2026-03-28T17:57:50Z</time></trkpt><trkpt lat="44.49080005694428" lon="11.245511368076981"><ele>67.66666666666667</ele><time>2026-03-28T17:57:51Z</time></trkpt><trkpt lat="44.490733115614354" lon="11.24528620715727"><ele>68.0</ele><time>2026-03-28T17:57:52Z</time></trkpt><trkpt lat="44.49066702408519" lon="11.2450640707965"><ele>68.0</ele><time>2026-03-28T17:57:53Z</time></trkpt><trkpt lat="44.490590931409976" lon="11.244789723709033"><ele>68.0</ele><time>2026-03-28T17:57:54Z</time></trkpt><trkpt lat="44.49050969991413" lon="11.244478436461733"><ele>68.0</ele><time>2026-03-28T17:57:55Z</time></trkpt><trkpt lat="44.49040055906695" lon="11.24415630549719"><ele>68.0</ele><time>2026-03-28T17:57:56Z</time></trkpt><trkpt lat="44.490274470425284" lon="11.24379139061286"><ele>68.0</ele><time>2026-03-28T17:57:57Z</time></trkpt><trkpt lat="44.490149461691836" lon="11.243389870831702"><ele>69.5</ele><time>2026-03-28T17:57:58Z</time></trkpt><trkpt lat="44.49003832042566" lon="11.243001604508182"><ele>71.0</ele><time>2026-03-28T17:57:59Z</time></trkpt><trkpt lat="44.48993843375136" lon="11.24265752455306"><ele>71.0</ele><time>2026-03-28T17:58:00Z</time></trkpt><trkpt lat="44.48983745512617" lon="11.242329103820333"><ele>71.0</ele><time>2026-03-28T17:58:01Z</time></trkpt><trkpt lat="44.48974208680491" lon="11.241998486162617"><ele>71.0</ele><time>2026-03-28T17:58:02Z</time></trkpt><trkpt lat="44.48965869708495" lon="11.241658789464218"><ele>71.0</ele><time>2026-03-28T17:58:03Z</time></trkpt><trkpt lat="44.489581767410975" lon="11.241317653619587"><ele>71.5</ele><time>2026-03-28T17:58:04Z</time></trkpt><trkpt lat="44.48951209663341" lon="11.240975414911194"><ele>72.0</ele><time>2026-03-28T17:58:05Z</time></trkpt><trkpt lat="44.489449198152755" lon="11.240636675840342"><ele>71.5</ele><time>2026-03-28T17:58:06Z</time></trkpt><trkpt lat="44.48939118456527" lon="11.240288992037886"><ele>71.0</ele><time>2026-03-28T17:58:07Z</time></trkpt><trkpt lat="44.48934077157065" lon="11.23993349228319"><ele>70.0</ele><time>2026-03-28T17:58:08Z</time></trkpt><trkpt lat="44.48929933566041" lon="11.239572543789034"><ele>69.0</ele><time>2026-03-28T17:58:09Z</time></trkpt><trkpt lat="44.489260201197496" lon="11.239201286731523"><ele>68.0</ele><time>2026-03-28T17:58:10Z</time></trkpt><trkpt lat="44.48922886384393" lon="11.238803258606035"><ele>67.0</ele><time>2026-03-28T17:58:11Z</time></trkpt><trkpt lat="44.48920547714136" lon="11.238362254812893"><ele>68.0</ele><time>2026-03-28T17:58:12Z</time></trkpt><trkpt lat="44.48919615862928" lon="11.237907567242814"><ele>69.0</ele><time>2026-03-28T17:58:13Z</time></trkpt><trkpt lat="44.48920118377895" lon="11.237477568046236"><ele>70.0</ele><time>2026-03-28T17:58:14Z</time></trkpt><trkpt lat="44.48921076366842" lon="11.237081534068377"><ele>71.0</ele><time>2026-03-28T17:58:15Z</time></trkpt><trkpt lat="44.48922642943647" lon="11.236712081032858"><ele>71.5</ele><time>2026-03-28T17:58:16Z</time></trkpt><trkpt lat="44.48925178902842" lon="11.23634054034042"><ele>72.0</ele><time>2026-03-28T17:58:17Z</time></trkpt><trkpt lat="44.48928198623917" lon="11.235975611482395"><ele>72.0</ele><time>2026-03-28T17:58:18Z</time></trkpt><trkpt lat="44.48932041790457" lon="11.235620049180095"><ele>72.0</ele><time>2026-03-28T17:58:19Z</time></trkpt><trkpt lat="44.489362897081776" lon="11.235276899101349"><ele>72.0</ele><time>2026-03-28T17:58:20Z</time></trkpt><trkpt lat="44.489408172206204" lon="11.234942925458798"><ele>72.0</ele><time>2026-03-28T17:58:21Z</time></trkpt><trkpt lat="44.489447957275324" lon="11.234619750769975"><ele>72.33333333333333</ele><time>2026-03-28T17:58:22Z</time></trkpt><trkpt lat="44.48948658268636" lon="11.234308275928147"><ele>72.66666666666666</ele><time>2026-03-28T17:58:23Z</time></trkpt><trkpt lat="44.489524052801066" lon="11.234003677175972"><ele>73.0</ele><time>2026-03-28T17:58:24Z</time></trkpt><trkpt lat="44.48955901777914" lon="11.233691605778754"><ele>73.0</ele><time>2026-03-28T17:58:25Z</time></trkpt><trkpt lat="44.48959558022966" lon="11.233373561512924"><ele>73.0</ele><time>2026-03-28T17:58:26Z</time></trkpt><trkpt lat="44.489635054306554" lon="11.233047096591084"><ele>73.0</ele><time>2026-03-28T17:58:27Z</time></trkpt><trkpt lat="44.48967795482316" lon="11.232702516798794"><ele>73.0</ele><time>2026-03-28T17:58:28Z</time></trkpt><trkpt lat="44.489729045092716" lon="11.232327695936304"><ele>73.5</ele><time>2026-03-28T17:58:29Z</time></trkpt><trkpt lat="44.48978700754587" lon="11.231936522131836"><ele>74.0</ele><time>2026-03-28T17:58:30Z</time></trkpt><trkpt lat="44.48985903085947" lon="11.23153991886825"><ele>73.5</ele><time>2026-03-28T17:58:31Z</time></trkpt><trkpt lat="44.48994211487187" lon="11.23114359588836"><ele>73.0</ele><time>2026-03-28T17:58:32Z</time></trkpt><trkpt lat="44.49005169823752" lon="11.230741656689256"><ele>73.5</ele><time>2026-03-28T17:58:33Z</time></trkpt><trkpt lat="44.49016800041711" lon="11.230365711070121"><ele>74.0</ele><time>2026-03-28T17:58:34Z</time></trkpt><trkpt lat="44.49030427977062" lon="11.229999429457523"><ele>74.0</ele><time>2026-03-28T17:58:35Z</time></trkpt><trkpt lat="44.49045142089966" lon="11.229657116022661"><ele>74.0</ele><time>2026-03-28T17:58:36Z</time></trkpt><trkpt lat="44.490608592110625" lon="11.22935074529685"><ele>74.0</ele><time>2026-03-28T17:58:37Z</time></trkpt><trkpt lat="44.490769404365416" lon="11.229065018476415"><ele>74.0</ele><time>2026-03-28T17:58:38Z</time></trkpt><trkpt lat="44.49095363091763" lon="11.22879129394356"><ele>74.0</ele><time>2026-03-28T17:58:39Z</time></trkpt><trkpt lat="44.49115746075005" lon="11.22848975028763"><ele>74.0</ele><time>2026-03-28T17:58:40Z</time></trkpt><trkpt lat="44.49137741965605" lon="11.228177861599223"><ele>75.5</ele><time>2026-03-28T17:58:41Z</time></trkpt><trkpt lat="44.49159730155168" lon="11.227864749112033"><ele>77.0</ele><time>2026-03-28T17:58:42Z</time></trkpt><trkpt lat="44.49180022519537" lon="11.227571753141758"><ele>78.0</ele><time>2026-03-28T17:58:43Z</time></trkpt><trkpt lat="44.491983886705064" lon="11.227297758918041"><ele>79.0</ele><time>2026-03-28T17:58:44Z</time></trkpt><trkpt lat="44.492165003198664" lon="11.227027077112366"><ele>77.0</ele><time>2026-03-28T17:58:45Z</time></trkpt><trkpt lat="44.49234403033591" lon="11.22676356667133"><ele>75.0</ele><time>2026-03-28T17:58:46Z</time></trkpt><trkpt lat="44.49251401589795" lon="11.226533275597637"><ele>74.66666666666667</ele><time>2026-03-28T17:58:47Z</time></trkpt><trkpt lat="44.492676522978904" lon="11.226318510193373"><ele>74.33333333333334</ele><time>2026-03-28T17:58:48Z</time></trkpt><trkpt lat="44.49282239515151" lon="11.226121778189137"><ele>74.0</ele><time>2026-03-28T17:58:49Z</time></trkpt><trkpt lat="44.492945914527965" lon="11.22593388118805"><ele>74.0</ele><time>2026-03-28T17:58:50Z</time></trkpt><trkpt lat="44.49306228589089" lon="11.225754905880446"><ele>74.0</ele><time>2026-03-28T17:58:51Z</time></trkpt><trkpt lat="44.49316090639751" lon="11.22558084639198"><ele>74.0</ele><time>2026-03-28T17:58:52Z</time></trkpt><trkpt lat="44.49325274113688" lon="11.225414410901278"><ele>74.0</ele><time>2026-03-28T17:58:53Z</time></trkpt><trkpt lat="44.49333653504032" lon="11.225253283399592"><ele>74.0</ele><time>2026-03-28T17:58:54Z</time></trkpt><trkpt lat="44.493408911124405" lon="11.225097168906178"><ele>74.0</ele><time>2026-03-28T17:58:55Z</time></trkpt><trkpt lat="44.49347723907182" lon="11.224947579578378"><ele>74.0</ele><time>2026-03-28T17:58:56Z</time></trkpt><trkpt lat="44.49353599984082" lon="11.224788201133107"><ele>74.0</ele><time>2026-03-28T17:58:57Z</time></trkpt><trkpt lat="44.493594774707816" lon="11.224611468554421"><ele>74.0</ele><time>2026-03-28T17:58:58Z</time></trkpt><trkpt lat="44.493660374730815" lon="11.224430642695232"><ele>74.0</ele><time>2026-03-28T17:58:59Z</time></trkpt><trkpt lat="44.49372946479158" lon="11.224249023919661"><ele>74.0</ele><time>2026-03-28T17:59:00Z</time></trkpt><trkpt lat="44.49379356818422" lon="11.22405461198606"><ele>73.0</ele><time>2026-03-28T17:59:01Z</time></trkpt><trkpt lat="44.493864381591784" lon="11.223850441886114"><ele>72.0</ele><time>2026-03-28T17:59:02Z</time></trkpt><trkpt lat="44.49393244492937" lon="11.223641871080556"><ele>71.0</ele><time>2026-03-28T17:59:03Z</time></trkpt><trkpt lat="44.494005447379415" lon="11.223431595230178"><ele>71.0</ele><time>2026-03-28T17:59:04Z</time></trkpt><trkpt lat="44.49407017607352" lon="11.22322551950326"><ele>71.0</ele><time>2026-03-28T17:59:05Z</time></trkpt><trkpt lat="44.49413646525502" lon="11.223023815169215"><ele>71.0</ele><time>2026-03-28T17:59:06Z</time></trkpt><trkpt lat="44.49419998812137" lon="11.222838240519232"><ele>70.33333333333334</ele><time>2026-03-28T17:59:07Z</time></trkpt><trkpt lat="44.4942665880993" lon="11.222661831464647"><ele>69.66666666666667</ele><time>2026-03-28T17:59:08Z</time></trkpt><trkpt lat="44.49434071879402" lon="11.22246472705441"><ele>69.0</ele><time>2026-03-28T17:59:09Z</time></trkpt><trkpt lat="44.4944174043196" lon="11.222215957596868"><ele>68.66666666666667</ele><time>2026-03-28T17:59:10Z</time></trkpt><trkpt lat="44.49449373667408" lon="11.221954377814097"><ele>68.33333333333334</ele><time>2026-03-28T17:59:11Z</time></trkpt><trkpt lat="44.49457084863248" lon="11.221711630462961"><ele>68.0</ele><time>2026-03-28T17:59:12Z</time></trkpt><trkpt lat="44.49463944295071" lon="11.221493091830682"><ele>68.66666666666667</ele><time>2026-03-28T17:59:13Z</time></trkpt><trkpt lat="44.49470465447927" lon="11.221288139579272"><ele>69.33333333333333</ele><time>2026-03-28T17:59:14Z</time></trkpt><trkpt lat="44.49476571247232" lon="11.221096610809523"><ele>70.0</ele><time>2026-03-28T17:59:15Z</time></trkpt><trkpt lat="44.49483533632638" lon="11.220890429667573"><ele>70.0</ele><time>2026-03-28T17:59:16Z</time></trkpt><trkpt lat="44.49491332840695" lon="11.22062962469396"><ele>70.0</ele><time>2026-03-28T17:59:17Z</time></trkpt><trkpt lat="44.49502994142029" lon="11.220338612102521"><ele>70.0</ele><time>2026-03-28T17:59:18Z</time></trkpt><trkpt lat="44.49514539150769" lon="11.219997799302543"><ele>69.5</ele><time>2026-03-28T17:59:19Z</time></trkpt><trkpt lat="44.49525865136661" lon="11.219670650680955"><ele>69.0</ele><time>2026-03-28T17:59:20Z</time></trkpt><trkpt lat="44.495348843131" lon="11.219369953045595"><ele>69.0</ele><time>2026-03-28T17:59:21Z</time></trkpt><trkpt lat="44.49546132219036" lon="11.219090662473434"><ele>69.0</ele><time>2026-03-28T17:59:22Z</time></trkpt><trkpt lat="44.49557893669132" lon="11.218759848182424"><ele>69.0</ele><time>2026-03-28T17:59:23Z</time></trkpt><trkpt lat="44.4957078893051" lon="11.218401234805775"><ele>69.0</ele><time>2026-03-28T17:59:24Z</time></trkpt><trkpt lat="44.49584180611571" lon="11.218035677547961"><ele>69.0</ele><time>2026-03-28T17:59:25Z</time></trkpt><trkpt lat="44.495948827605886" lon="11.217678298133023"><ele>69.0</ele><time>2026-03-28T17:59:26Z</time></trkpt><trkpt lat="44.49606401802458" lon="11.217371748259936"><ele>69.0</ele><time>2026-03-28T17:59:27Z</time></trkpt><trkpt lat="44.496175035037524" lon="11.217054682379635"><ele>69.0</ele><time>2026-03-28T17:59:28Z</time></trkpt><trkpt lat="44.496304094962184" lon="11.216704022977806"><ele>69.0</ele><time>2026-03-28T17:59:29Z</time></trkpt><trkpt lat="44.49644539063721" lon="11.216346251191457"><ele>69.0</ele><time>2026-03-28T17:59:30Z</time></trkpt><trkpt lat="44.496574142507995" lon="11.216015836487314"><ele>69.0</ele><time>2026-03-28T17:59:31Z</time></trkpt><trkpt lat="44.49668873434441" lon="11.215706353548532"><ele>69.0</ele><time>2026-03-28T17:59:32Z</time></trkpt><trkpt lat="44.49678967588687" lon="11.215420369431335"><ele>69.33333333333333</ele><time>2026-03-28T17:59:33Z</time></trkpt><trkpt lat="44.496882090883815" lon="11.215153175809698"><ele>69.66666666666666</ele><time>2026-03-28T17:59:34Z</time></trkpt><trkpt lat="44.496985172106825" lon="11.214903439577498"><ele>70.0</ele><time>2026-03-28T17:59:35Z</time></trkpt><trkpt lat="44.49707714300277" lon="11.214653576506526"><ele>68.33333333333333</ele><time>2026-03-28T17:59:36Z</time></trkpt><trkpt lat="44.4971729041799" lon="11.214391224826857"><ele>66.66666666666667</ele><time>2026-03-28T17:59:37Z</time></trkpt><trkpt lat="44.4972597077242" lon="11.214121638168177"><ele>65.0</ele><time>2026-03-28T17:59:38Z</time></trkpt><trkpt lat="44.497353126690456" lon="11.213868327719048"><ele>65.0</ele><time>2026-03-28T17:59:39Z</time></trkpt><trkpt lat="44.49744260051029" lon="11.213616758877494"><ele>65.0</ele><time>2026-03-28T17:59:40Z</time></trkpt><trkpt lat="44.49754348140914" lon="11.213371047295398"><ele>65.0</ele><time>2026-03-28T17:59:41Z</time></trkpt><trkpt lat="44.49763578527612" lon="11.21311701434014"><ele>65.0</ele><time>2026-03-28T17:59:42Z</time></trkpt><trkpt lat="44.497717925451546" lon="11.212891520578866"><ele>65.0</ele><time>2026-03-28T17:59:43Z</time></trkpt><trkpt lat="44.497795624992335" lon="11.212678217556462"><ele>65.0</ele><time>2026-03-28T17:59:44Z</time></trkpt><trkpt lat="44.49787424282196" lon="11.212462087181992"><ele>64.66666666666667</ele><time>2026-03-28T17:59:45Z</time></trkpt><trkpt lat="44.497964929592115" lon="11.212212142786194"><ele>64.33333333333333</ele><time>2026-03-28T17:59:46Z</time></trkpt><trkpt lat="44.49806518105166" lon="11.21193583688077"><ele>64.0</ele><time>2026-03-28T17:59:47Z</time></trkpt><trkpt lat="44.49815467623595" lon="11.211663367866423"><ele>63.666666666666664</ele><time>2026-03-28T17:59:48Z</time></trkpt><trkpt lat="44.4982478511314" lon="11.211425802163589"><ele>63.33333333333333</ele><time>2026-03-28T17:59:49Z</time></trkpt><trkpt lat="44.498320747889714" lon="11.211208156800202"><ele>63.0</ele><time>2026-03-28T17:59:50Z</time></trkpt><trkpt lat="44.49839238828984" lon="11.21100110428064"><ele>63.0</ele><time>2026-03-28T17:59:51Z</time></trkpt><trkpt lat="44.49847505492523" lon="11.210810943649928"><ele>63.0</ele><time>2026-03-28T17:59:52Z</time></trkpt><trkpt lat="44.498552032248874" lon="11.210602100010096"><ele>63.0</ele><time>2026-03-28T17:59:53Z</time></trkpt><trkpt lat="44.498640193566345" lon="11.210363659258924"><ele>63.0</ele><time>2026-03-28T17:59:54Z</time></trkpt><trkpt lat="44.49873668166098" lon="11.21010269797102"><ele>63.0</ele><time>2026-03-28T17:59:55Z</time></trkpt><trkpt lat="44.49882175745779" lon="11.209866957770727"><ele>63.0</ele><time>2026-03-28T17:59:56Z</time></trkpt><trkpt lat="44.498891807561144" lon="11.209638899439655"><ele>63.66666666666667</ele><time>2026-03-28T17:59:57Z</time></trkpt><trkpt lat="44.49898353511405" lon="11.209449202815499"><ele>64.33333333333334</ele><time>2026-03-28T17:59:58Z</time></trkpt><trkpt lat="44.4990868921197" lon="11.20928757810944"><ele>65.0</ele><time>2026-03-28T17:59:59Z</time></trkpt><trkpt lat="44.49921315695475" lon="11.209157966076116"><ele>65.0</ele><time>2026-03-28T18:00:00Z</time></trkpt><trkpt lat="44.49935381689173" lon="11.20901643800714"><ele>65.0</ele><time>2026-03-28T18:00:01Z</time></trkpt><trkpt lat="44.49951719962406" lon="11.208856728542408"><ele>65.0</ele><time>2026-03-28T18:00:02Z</time></trkpt><trkpt lat="44.49970356600638" lon="11.208683035570022"><ele>64.33333333333334</ele><time>2026-03-28T18:00:03Z</time></trkpt><trkpt lat="44.49988926248153" lon="11.208509918016578"><ele>63.66666666666667</ele><time>2026-03-28T18:00:04Z</time></trkpt><trkpt lat="44.50007529349666" lon="11.208334344057066"><ele>63.0</ele><time>2026-03-28T18:00:05Z</time></trkpt><trkpt lat="44.50026414733847" lon="11.208156317296234"><ele>62.5</ele><time>2026-03-28T18:00:06Z</time></trkpt><trkpt lat="44.500469897190065" lon="11.20796251661722"><ele>62.0</ele><time>2026-03-28T18:00:07Z</time></trkpt><trkpt lat="44.50067130878207" lon="11.207772802251206"><ele>62.0</ele><time>2026-03-28T18:00:08Z</time></trkpt><trkpt lat="44.50087307883419" lon="11.20758365194754"><ele>62.0</ele><time>2026-03-28T18:00:09Z</time></trkpt><trkpt lat="44.50107080315418" lon="11.207397057380085"><ele>62.0</ele><time>2026-03-28T18:00:10Z</time></trkpt><trkpt lat="44.501261888058245" lon="11.207215106991063"><ele>62.0</ele><time>2026-03-28T18:00:11Z</time></trkpt><trkpt lat="44.50145617289287" lon="11.207028582420614"><ele>62.0</ele><time>2026-03-28T18:00:12Z</time></trkpt><trkpt lat="44.50166460781215" lon="11.206825312160337"><ele>62.0</ele><time>2026-03-28T18:00:13Z</time></trkpt><trkpt lat="44.50186592724806" lon="11.206618690463408"><ele>61.66666666666667</ele><time>2026-03-28T18:00:14Z</time></trkpt><trkpt lat="44.50204017370294" lon="11.206397887797184"><ele>61.33333333333333</ele><time>2026-03-28T18:00:15Z</time></trkpt><trkpt lat="44.50220700923926" lon="11.206221381966731"><ele>61.0</ele><time>2026-03-28T18:00:16Z</time></trkpt><trkpt lat="44.50236177259113" lon="11.206046112653759"><ele>60.666666666666664</ele><time>2026-03-28T18:00:17Z</time></trkpt><trkpt lat="44.502507721926385" lon="11.205865750918742"><ele>60.33333333333333</ele><time>2026-03-28T18:00:18Z</time></trkpt><trkpt lat="44.50265857657191" lon="11.205664392522717"><ele>60.0</ele><time>2026-03-28T18:00:19Z</time></trkpt><trkpt lat="44.502837039820555" lon="11.205451009547563"><ele>59.0</ele><time>2026-03-28T18:00:20Z</time></trkpt><trkpt lat="44.50299996595039" lon="11.205199986340311"><ele>58.0</ele><time>2026-03-28T18:00:21Z</time></trkpt><trkpt lat="44.503159704772884" lon="11.20496953317335"><ele>58.5</ele><time>2026-03-28T18:00:22Z</time></trkpt><trkpt lat="44.50331637552796" lon="11.204714615735037"><ele>59.0</ele><time>2026-03-28T18:00:23Z</time></trkpt><trkpt lat="44.503493357866" lon="11.204440574125533"><ele>59.0</ele><time>2026-03-28T18:00:24Z</time></trkpt><trkpt lat="44.50364153075754" lon="11.204141233450418"><ele>59.0</ele><time>2026-03-28T18:00:25Z</time></trkpt><trkpt lat="44.50378469985382" lon="11.203873159750755"><ele>58.333333333333336</ele><time>2026-03-28T18:00:26Z</time></trkpt><trkpt lat="44.50391064160987" lon="11.20363100576641"><ele>57.66666666666667</ele><time>2026-03-28T18:00:27Z</time></trkpt><trkpt lat="44.50402102083285" lon="11.203400908011956"><ele>57.0</ele><time>2026-03-28T18:00:28Z</time></trkpt><trkpt lat="44.504122292103204" lon="11.20318429565154"><ele>57.66666666666667</ele><time>2026-03-28T18:00:29Z</time></trkpt><trkpt lat="44.504214174799095" lon="11.20297904879721"><ele>58.333333333333336</ele><time>2026-03-28T18:00:30Z</time></trkpt><trkpt lat="44.5043022396894" lon="11.202771287788638"><ele>59.0</ele><time>2026-03-28T18:00:31Z</time></trkpt><trkpt lat="44.504397243567354" lon="11.20250985718161"><ele>58.5</ele><time>2026-03-28T18:00:32Z</time></trkpt><trkpt lat="44.50452756292753" lon="11.202205798411416"><ele>58.0</ele><time>2026-03-28T18:00:33Z</time></trkpt><trkpt lat="44.50462326739565" lon="11.201936523493904"><ele>57.666666666666664</ele><time>2026-03-28T18:00:34Z</time></trkpt><trkpt lat="44.504693227026806" lon="11.201674554695272"><ele>57.33333333333333</ele><time>2026-03-28T18:00:35Z</time></trkpt><trkpt lat="44.50479405885702" lon="11.20139364437349"><ele>57.0</ele><time>2026-03-28T18:00:36Z</time></trkpt><trkpt lat="44.504893219601456" lon="11.201050501384803"><ele>57.0</ele><time>2026-03-28T18:00:37Z</time></trkpt><trkpt lat="44.50499426510941" lon="11.200670755753627"><ele>57.0</ele><time>2026-03-28T18:00:38Z</time></trkpt><trkpt lat="44.50508824253287" lon="11.20027101547388"><ele>57.0</ele><time>2026-03-28T18:00:39Z</time></trkpt><trkpt lat="44.505170596628766" lon="11.199859664868342"><ele>57.0</ele><time>2026-03-28T18:00:40Z</time></trkpt><trkpt lat="44.505265340988146" lon="11.199450927481207"><ele>57.0</ele><time>2026-03-28T18:00:41Z</time></trkpt><trkpt lat="44.505345778244504" lon="11.199042314456614"><ele>57.0</ele><time>2026-03-28T18:00:42Z</time></trkpt><trkpt lat="44.50542708233658" lon="11.198638419475452"><ele>57.0</ele><time>2026-03-28T18:00:43Z</time></trkpt><trkpt lat="44.50550326563358" lon="11.198239168782507"><ele>57.0</ele><time>2026-03-28T18:00:44Z</time></trkpt><trkpt lat="44.50557831406516" lon="11.19783834940933"><ele>57.0</ele><time>2026-03-28T18:00:45Z</time></trkpt><trkpt lat="44.50565598246854" lon="11.197434855408416"><ele>57.0</ele><time>2026-03-28T18:00:46Z</time></trkpt><trkpt lat="44.505732922768125" lon="11.197047114973225"><ele>57.0</ele><time>2026-03-28T18:00:47Z</time></trkpt><trkpt lat="44.505822813981865" lon="11.196689754477923"><ele>57.0</ele><time>2026-03-28T18:00:48Z</time></trkpt><trkpt lat="44.50590304671533" lon="11.196316605747494"><ele>57.5</ele><time>2026-03-28T18:00:49Z</time></trkpt><trkpt lat="44.50598460474254" lon="11.195963249835879"><ele>58.0</ele><time>2026-03-28T18:00:50Z</time></trkpt><trkpt lat="44.506061804094806" lon="11.195630903901765"><ele>57.0</ele><time>2026-03-28T18:00:51Z</time></trkpt><trkpt lat="44.50613491369321" lon="11.195318476108845"><ele>56.0</ele><time>2026-03-28T18:00:52Z</time></trkpt><trkpt lat="44.506216227285925" lon="11.194989166408435"><ele>56.5</ele><time>2026-03-28T18:00:53Z</time></trkpt><trkpt lat="44.50631477834138" lon="11.194614931369701"><ele>57.0</ele><time>2026-03-28T18:00:54Z</time></trkpt><trkpt lat="44.50641775699443" lon="11.194232025975372"><ele>56.5</ele><time>2026-03-28T18:00:55Z</time></trkpt><trkpt lat="44.506509229557665" lon="11.193858385794279"><ele>56.0</ele><time>2026-03-28T18:00:56Z</time></trkpt><trkpt lat="44.50661202278203" lon="11.193496756234236"><ele>56.0</ele><time>2026-03-28T18:00:57Z</time></trkpt><trkpt lat="44.506713972083375" lon="11.193134953660458"><ele>56.0</ele><time>2026-03-28T18:00:58Z</time></trkpt><trkpt lat="44.506816631014" lon="11.192768827067281"><ele>56.0</ele><time>2026-03-28T18:00:59Z</time></trkpt><trkpt lat="44.506928888729" lon="11.192398238995725"><ele>56.0</ele><time>2026-03-28T18:01:00Z</time></trkpt><trkpt lat="44.5070465438997" lon="11.192013047335218"><ele>56.0</ele><time>2026-03-28T18:01:01Z</time></trkpt><trkpt lat="44.50715827846707" lon="11.191638919502756"><ele>56.0</ele><time>2026-03-28T18:01:02Z</time></trkpt><trkpt lat="44.50726466876606" lon="11.191278435407108"><ele>55.0</ele><time>2026-03-28T18:01:03Z</time></trkpt><trkpt lat="44.50737971235642" lon="11.190954468678452"><ele>54.0</ele><time>2026-03-28T18:01:04Z</time></trkpt><trkpt lat="44.50747979306768" lon="11.190616356445528"><ele>54.0</ele><time>2026-03-28T18:01:05Z</time></trkpt><trkpt lat="44.50758059885739" lon="11.190269157827796"><ele>54.0</ele><time>2026-03-28T18:01:06Z</time></trkpt><trkpt lat="44.50767235597627" lon="11.189944393620035"><ele>54.0</ele><time>2026-03-28T18:01:07Z</time></trkpt><trkpt lat="44.50776616281353" lon="11.189610408422693"><ele>54.0</ele><time>2026-03-28T18:01:08Z</time></trkpt><trkpt lat="44.507866258296815" lon="11.189253194936981"><ele>53.5</ele><time>2026-03-28T18:01:09Z</time></trkpt><trkpt lat="44.507955523235246" lon="11.188934631892067"><ele>53.0</ele><time>2026-03-28T18:01:10Z</time></trkpt><trkpt lat="44.50802244401598" lon="11.188639175735068"><ele>53.0</ele><time>2026-03-28T18:01:11Z</time></trkpt><trkpt lat="44.50810094538576" lon="11.188381257427958"><ele>53.0</ele><time>2026-03-28T18:01:12Z</time></trkpt><trkpt lat="44.50816958240087" lon="11.188124004113062"><ele>53.0</ele><time>2026-03-28T18:01:13Z</time></trkpt><trkpt lat="44.50826803707705" lon="11.187810681879593"><ele>53.0</ele><time>2026-03-28T18:01:14Z</time></trkpt><trkpt lat="44.508358453402074" lon="11.187423467902192"><ele>53.0</ele><time>2026-03-28T18:01:15Z</time></trkpt><trkpt lat="44.508482531901684" lon="11.187011042857833"><ele>52.5</ele><time>2026-03-28T18:01:16Z</time></trkpt><trkpt lat="44.50862212652624" lon="11.186566298434856"><ele>52.0</ele><time>2026-03-28T18:01:17Z</time></trkpt><trkpt lat="44.508755483429006" lon="11.186084445538183"><ele>51.5</ele><time>2026-03-28T18:01:18Z</time></trkpt><trkpt lat="44.5088860995679" lon="11.185609406237088"><ele>51.0</ele><time>2026-03-28T18:01:19Z</time></trkpt><trkpt lat="44.50900918327391" lon="11.185151064929476"><ele>50.5</ele><time>2026-03-28T18:01:20Z</time></trkpt><trkpt lat="44.50912051960085" lon="11.18474466628483"><ele>50.0</ele><time>2026-03-28T18:01:21Z</time></trkpt><trkpt lat="44.509226831898445" lon="11.184380054943581"><ele>50.0</ele><time>2026-03-28T18:01:22Z</time></trkpt><trkpt lat="44.50932224007096" lon="11.184019588050313"><ele>50.0</ele><time>2026-03-28T18:01:23Z</time></trkpt><trkpt lat="44.50942276002072" lon="11.183650412631494"><ele>50.5</ele><time>2026-03-28T18:01:24Z</time></trkpt><trkpt lat="44.509526363934526" lon="11.18328747154174"><ele>51.0</ele><time>2026-03-28T18:01:25Z</time></trkpt><trkpt lat="44.50962768133075" lon="11.182931943346283"><ele>52.5</ele><time>2026-03-28T18:01:26Z</time></trkpt><trkpt lat="44.50972674204708" lon="11.182584421081694"><ele>54.0</ele><time>2026-03-28T18:01:27Z</time></trkpt><trkpt lat="44.509822055818944" lon="11.18223856512857"><ele>54.5</ele><time>2026-03-28T18:01:28Z</time></trkpt><trkpt lat="44.5099183957169" lon="11.181901308127731"><ele>55.0</ele><time>2026-03-28T18:01:29Z</time></trkpt><trkpt lat="44.51000783088044" lon="11.181568736236038"><ele>54.0</ele><time>2026-03-28T18:01:30Z</time></trkpt><trkpt lat="44.51009806597" lon="11.181234929580896"><ele>53.0</ele><time>2026-03-28T18:01:31Z</time></trkpt><trkpt lat="44.510189786341485" lon="11.180897416830566"><ele>51.5</ele><time>2026-03-28T18:01:32Z</time></trkpt><trkpt lat="44.510275340635125" lon="11.180565298234907"><ele>50.0</ele><time>2026-03-28T18:01:33Z</time></trkpt><trkpt lat="44.51035348661606" lon="11.180222897789896"><ele>51.0</ele><time>2026-03-28T18:01:34Z</time></trkpt><trkpt lat="44.51042546993613" lon="11.179870893794766"><ele>52.0</ele><time>2026-03-28T18:01:35Z</time></trkpt><trkpt lat="44.51049153780021" lon="11.17951573370148"><ele>52.5</ele><time>2026-03-28T18:01:36Z</time></trkpt><trkpt lat="44.51054565367355" lon="11.179163245378467"><ele>53.0</ele><time>2026-03-28T18:01:37Z</time></trkpt><trkpt lat="44.510587282200596" lon="11.17883846301432"><ele>53.0</ele><time>2026-03-28T18:01:38Z</time></trkpt><trkpt lat="44.510623143889255" lon="11.178519610480146"><ele>53.0</ele><time>2026-03-28T18:01:39Z</time></trkpt><trkpt lat="44.51065727505849" lon="11.178202281081692"><ele>50.5</ele><time>2026-03-28T18:01:40Z</time></trkpt><trkpt lat="44.510684596287525" lon="11.17787373002647"><ele>48.0</ele><time>2026-03-28T18:01:41Z</time></trkpt><trkpt lat="44.510716921866106" lon="11.177565707934017"><ele>50.0</ele><time>2026-03-28T18:01:42Z</time></trkpt><trkpt lat="44.51074518839226" lon="11.177211463779937"><ele>52.0</ele><time>2026-03-28T18:01:43Z</time></trkpt><trkpt lat="44.51076634337447" lon="11.176820796443646"><ele>52.0</ele><time>2026-03-28T18:01:44Z</time></trkpt><trkpt lat="44.510809545960484" lon="11.176421545615824"><ele>52.0</ele><time>2026-03-28T18:01:45Z</time></trkpt><trkpt lat="44.51084465112259" lon="11.176034020604494"><ele>51.5</ele><time>2026-03-28T18:01:46Z</time></trkpt><trkpt lat="44.51087624757701" lon="11.175647135168713"><ele>51.0</ele><time>2026-03-28T18:01:47Z</time></trkpt><trkpt lat="44.510906831304695" lon="11.175262146033829"><ele>51.0</ele><time>2026-03-28T18:01:48Z</time></trkpt><trkpt lat="44.51093639189811" lon="11.17487854046065"><ele>51.0</ele><time>2026-03-28T18:01:49Z</time></trkpt><trkpt lat="44.51096384573902" lon="11.17450946660209"><ele>51.0</ele><time>2026-03-28T18:01:50Z</time></trkpt><trkpt lat="44.510992226618114" lon="11.17416218942579"><ele>51.0</ele><time>2026-03-28T18:01:51Z</time></trkpt><trkpt lat="44.51101785362222" lon="11.173837237119745"><ele>51.66666666666667</ele><time>2026-03-28T18:01:52Z</time></trkpt><trkpt lat="44.511043984423615" lon="11.173528682972972"><ele>52.333333333333336</ele><time>2026-03-28T18:01:53Z</time></trkpt><trkpt lat="44.511068368028376" lon="11.173232362963716"><ele>53.0</ele><time>2026-03-28T18:01:54Z</time></trkpt><trkpt lat="44.51109116552368" lon="11.172933683416835"><ele>53.0</ele><time>2026-03-28T18:01:55Z</time></trkpt><trkpt lat="44.5111138395561" lon="11.17264098593605"><ele>53.0</ele><time>2026-03-28T18:01:56Z</time></trkpt><trkpt lat="44.51113559907372" lon="11.172355391093248"><ele>53.0</ele><time>2026-03-28T18:01:57Z</time></trkpt><trkpt lat="44.511158235774204" lon="11.17205843049947"><ele>53.0</ele><time>2026-03-28T18:01:58Z</time></trkpt><trkpt lat="44.5111838459551" lon="11.171767310532944"><ele>53.0</ele><time>2026-03-28T18:01:59Z</time></trkpt><trkpt lat="44.51120992933112" lon="11.171479752606894"><ele>53.0</ele><time>2026-03-28T18:02:00Z</time></trkpt><trkpt lat="44.511234496905615" lon="11.171192393774277"><ele>54.66666666666667</ele><time>2026-03-28T18:02:01Z</time></trkpt><trkpt lat="44.511264006143215" lon="11.170899381165983"><ele>56.33333333333333</ele><time>2026-03-28T18:02:02Z</time></trkpt><trkpt lat="44.511318845223016" lon="11.17061147341529"><ele>58.0</ele><time>2026-03-28T18:02:03Z</time></trkpt><trkpt lat="44.511369000664615" lon="11.17030907036557"><ele>58.0</ele><time>2026-03-28T18:02:04Z</time></trkpt><trkpt lat="44.51142240952521" lon="11.169993529317216"><ele>58.0</ele><time>2026-03-28T18:02:05Z</time></trkpt><trkpt lat="44.5114851824017" lon="11.169639299361451"><ele>56.5</ele><time>2026-03-28T18:02:06Z</time></trkpt><trkpt lat="44.5115260933773" lon="11.169254945448449"><ele>55.0</ele><time>2026-03-28T18:02:07Z</time></trkpt><trkpt lat="44.51161891535961" lon="11.168886360585379"><ele>55.0</ele><time>2026-03-28T18:02:08Z</time></trkpt><trkpt lat="44.51171958892151" lon="11.168530700899934"><ele>55.0</ele><time>2026-03-28T18:02:09Z</time></trkpt><trkpt lat="44.51183235385941" lon="11.168137271747934"><ele>55.0</ele><time>2026-03-28T18:02:10Z</time></trkpt><trkpt lat="44.511976007470395" lon="11.167737717268945"><ele>55.0</ele><time>2026-03-28T18:02:11Z</time></trkpt><trkpt lat="44.512069897399705" lon="11.16735156014799"><ele>56.0</ele><time>2026-03-28T18:02:12Z</time></trkpt><trkpt lat="44.512169975113395" lon="11.167003795227012"><ele>57.0</ele><time>2026-03-28T18:02:13Z</time></trkpt><trkpt lat="44.512274130791106" lon="11.166686176383793"><ele>56.5</ele><time>2026-03-28T18:02:14Z</time></trkpt><trkpt lat="44.51236903815758" lon="11.16636641463176"><ele>56.0</ele><time>2026-03-28T18:02:15Z</time></trkpt><trkpt lat="44.512466842403256" lon="11.166033732041665"><ele>55.0</ele><time>2026-03-28T18:02:16Z</time></trkpt><trkpt lat="44.51256851475894" lon="11.16568589427239"><ele>54.0</ele><time>2026-03-28T18:02:17Z</time></trkpt><trkpt lat="44.512674545393686" lon="11.16532326934312"><ele>54.0</ele><time>2026-03-28T18:02:18Z</time></trkpt><trkpt lat="44.51277893488935" lon="11.164955527175275"><ele>54.0</ele><time>2026-03-28T18:02:19Z</time></trkpt><trkpt lat="44.51287234646448" lon="11.164615628294747"><ele>54.66666666666667</ele><time>2026-03-28T18:02:20Z</time></trkpt><trkpt lat="44.51295519345506" lon="11.164307106990712"><ele>55.333333333333336</ele><time>2026-03-28T18:02:21Z</time></trkpt><trkpt lat="44.513028094439164" lon="11.164029021621985"><ele>56.0</ele><time>2026-03-28T18:02:22Z</time></trkpt><trkpt lat="44.513095977853666" lon="11.163759455700227"><ele>56.0</ele><time>2026-03-28T18:02:23Z</time></trkpt><trkpt lat="44.51316006176133" lon="11.163486840190332"><ele>56.0</ele><time>2026-03-28T18:02:24Z</time></trkpt><trkpt lat="44.51322485742515" lon="11.16319715217879"><ele>56.0</ele><time>2026-03-28T18:02:25Z</time></trkpt><trkpt lat="44.51329177247262" lon="11.162875052350762"><ele>55.5</ele><time>2026-03-28T18:02:26Z</time></trkpt><trkpt lat="44.51336008759854" lon="11.162526486156512"><ele>55.0</ele><time>2026-03-28T18:02:27Z</time></trkpt><trkpt lat="44.51341559396098" lon="11.16222169019419"><ele>55.0</ele><time>2026-03-28T18:02:28Z</time></trkpt><trkpt lat="44.51346733869072" lon="11.161927201620912"><ele>55.0</ele><time>2026-03-28T18:02:29Z</time></trkpt><trkpt lat="44.51352513562881" lon="11.161590628637676"><ele>55.5</ele><time>2026-03-28T18:02:30Z</time></trkpt><trkpt lat="44.51358387280619" lon="11.161246735702763"><ele>56.0</ele><time>2026-03-28T18:02:31Z</time></trkpt><trkpt lat="44.51363953844496" lon="11.160923399375791"><ele>56.0</ele><time>2026-03-28T18:02:32Z</time></trkpt><trkpt lat="44.51369282814341" lon="11.160615732567136"><ele>56.0</ele><time>2026-03-28T18:02:33Z</time></trkpt><trkpt lat="44.51375340380721" lon="11.160266000243142"><ele>56.0</ele><time>2026-03-28T18:02:34Z</time></trkpt><trkpt lat="44.51382216447631" lon="11.159869012355719"><ele>56.0</ele><time>2026-03-28T18:02:35Z</time></trkpt><trkpt lat="44.51389576120402" lon="11.159444103587957"><ele>57.0</ele><time>2026-03-28T18:02:36Z</time></trkpt><trkpt lat="44.51395574745265" lon="11.159011831695624"><ele>58.0</ele><time>2026-03-28T18:02:37Z</time></trkpt><trkpt lat="44.51403719192851" lon="11.158555722851984"><ele>58.0</ele><time>2026-03-28T18:02:38Z</time></trkpt><trkpt lat="44.51412012956317" lon="11.158068400395475"><ele>58.0</ele><time>2026-03-28T18:02:39Z</time></trkpt><trkpt lat="44.5142027133631" lon="11.157584226302154"><ele>57.5</ele><time>2026-03-28T18:02:40Z</time></trkpt><trkpt lat="44.514274470005674" lon="11.157150177175934"><ele>57.0</ele><time>2026-03-28T18:02:41Z</time></trkpt><trkpt lat="44.51434278906909" lon="11.156756630722247"><ele>56.5</ele><time>2026-03-28T18:02:42Z</time></trkpt><trkpt lat="44.51441104466145" lon="11.156382454616335"><ele>56.0</ele><time>2026-03-28T18:02:43Z</time></trkpt><trkpt lat="44.51447182447234" lon="11.156023640679637"><ele>56.0</ele><time>2026-03-28T18:02:44Z</time></trkpt><trkpt lat="44.5145303230226" lon="11.15567861406855"><ele>56.0</ele><time>2026-03-28T18:02:45Z</time></trkpt><trkpt lat="44.51458618091952" lon="11.155336912803051"><ele>56.0</ele><time>2026-03-28T18:02:46Z</time></trkpt><trkpt lat="44.514644108184285" lon="11.154974583625185"><ele>56.0</ele><time>2026-03-28T18:02:47Z</time></trkpt><trkpt lat="44.51472572050133" lon="11.154592283138028"><ele>56.0</ele><time>2026-03-28T18:02:48Z</time></trkpt><trkpt lat="44.51479303662112" lon="11.15421968546287"><ele>56.0</ele><time>2026-03-28T18:02:49Z</time></trkpt><trkpt lat="44.51483776323269" lon="11.153880131064936"><ele>57.0</ele><time>2026-03-28T18:02:50Z</time></trkpt><trkpt lat="44.51490857295782" lon="11.153580186492185"><ele>58.0</ele><time>2026-03-28T18:02:51Z</time></trkpt><trkpt lat="44.51496514279851" lon="11.153267069816222"><ele>58.0</ele><time>2026-03-28T18:02:52Z</time></trkpt><trkpt lat="44.515026577907676" lon="11.152927023953803"><ele>58.0</ele><time>2026-03-28T18:02:53Z</time></trkpt><trkpt lat="44.515087006267514" lon="11.152592550196792"><ele>58.0</ele><time>2026-03-28T18:02:54Z</time></trkpt><trkpt lat="44.5151419695571" lon="11.152288325575462"><ele>58.0</ele><time>2026-03-28T18:02:55Z</time></trkpt><trkpt lat="44.515170898886836" lon="11.152020971079404"><ele>58.0</ele><time>2026-03-28T18:02:56Z</time></trkpt><trkpt lat="44.51522275692472" lon="11.151777593018439"><ele>57.666666666666664</ele><time>2026-03-28T18:02:57Z</time></trkpt><trkpt lat="44.515272044636916" lon="11.151540040705846"><ele>57.33333333333333</ele><time>2026-03-28T18:02:58Z</time></trkpt><trkpt lat="44.5153440812906" lon="11.151313526735983"><ele>57.0</ele><time>2026-03-28T18:02:59Z</time></trkpt><trkpt lat="44.515408744547024" lon="11.15106208094594"><ele>57.0</ele><time>2026-03-28T18:03:00Z</time></trkpt><trkpt lat="44.515487701093875" lon="11.150773977413062"><ele>57.0</ele><time>2026-03-28T18:03:01Z</time></trkpt><trkpt lat="44.51556724756644" lon="11.150499149595676"><ele>57.0</ele><time>2026-03-28T18:03:02Z</time></trkpt><trkpt lat="44.51564263202758" lon="11.15025321168651"><ele>56.66666666666667</ele><time>2026-03-28T18:03:03Z</time></trkpt><trkpt lat="44.515713493022815" lon="11.15002596005307"><ele>56.333333333333336</ele><time>2026-03-28T18:03:04Z</time></trkpt><trkpt lat="44.51578181613596" lon="11.14981064765013"><ele>56.0</ele><time>2026-03-28T18:03:05Z</time></trkpt><trkpt lat="44.51584988219738" lon="11.149599332471297"><ele>56.0</ele><time>2026-03-28T18:03:06Z</time></trkpt><trkpt lat="44.51592186367464" lon="11.149377973955925"><ele>56.0</ele><time>2026-03-28T18:03:07Z</time></trkpt><trkpt lat="44.515985380954696" lon="11.149143541663573"><ele>56.0</ele><time>2026-03-28T18:03:08Z</time></trkpt><trkpt lat="44.51606739711374" lon="11.148919057557436"><ele>56.0</ele><time>2026-03-28T18:03:09Z</time></trkpt><trkpt lat="44.51614916316536" lon="11.14869944964884"><ele>56.0</ele><time>2026-03-28T18:03:10Z</time></trkpt><trkpt lat="44.51622613270993" lon="11.148486462479495"><ele>56.0</ele><time>2026-03-28T18:03:11Z</time></trkpt><trkpt lat="44.51630394091936" lon="11.148281039154977"><ele>55.66666666666667</ele><time>2026-03-28T18:03:12Z</time></trkpt><trkpt lat="44.51638156153619" lon="11.148076098526017"><ele>55.33333333333333</ele><time>2026-03-28T18:03:13Z</time></trkpt><trkpt lat="44.516455314976625" lon="11.1478750758404"><ele>55.0</ele><time>2026-03-28T18:03:14Z</time></trkpt><trkpt lat="44.51653168183109" lon="11.147672931973494"><ele>55.0</ele><time>2026-03-28T18:03:15Z</time></trkpt><trkpt lat="44.51660787124287" lon="11.147466999546692"><ele>55.0</ele><time>2026-03-28T18:03:16Z</time></trkpt><trkpt lat="44.51668478191864" lon="11.147263906957633"><ele>55.0</ele><time>2026-03-28T18:03:17Z</time></trkpt><trkpt lat="44.51676369353294" lon="11.147054562951592"><ele>54.666666666666664</ele><time>2026-03-28T18:03:18Z</time></trkpt><trkpt lat="44.51684187877507" lon="11.14684839373894"><ele>54.33333333333333</ele><time>2026-03-28T18:03:19Z</time></trkpt><trkpt lat="44.51691532833117" lon="11.146650287732502"><ele>54.0</ele><time>2026-03-28T18:03:20Z</time></trkpt><trkpt lat="44.516987492469916" lon="11.146453812205223"><ele>54.0</ele><time>2026-03-28T18:03:21Z</time></trkpt><trkpt lat="44.51705947052827" lon="11.146254621272758"><ele>54.0</ele><time>2026-03-28T18:03:22Z</time></trkpt><trkpt lat="44.51713766434066" lon="11.146049307781759"><ele>54.0</ele><time>2026-03-28T18:03:23Z</time></trkpt><trkpt lat="44.51721801224966" lon="11.145838875971439"><ele>54.66666666666667</ele><time>2026-03-28T18:03:24Z</time></trkpt><trkpt lat="44.51729853755231" lon="11.145627332412879"><ele>55.333333333333336</ele><time>2026-03-28T18:03:25Z</time></trkpt><trkpt lat="44.51737744048014" lon="11.145417352293784"><ele>56.0</ele><time>2026-03-28T18:03:26Z</time></trkpt><trkpt lat="44.517454132474406" lon="11.145208884703155"><ele>56.0</ele><time>2026-03-28T18:03:27Z</time></trkpt><trkpt lat="44.51753135242817" lon="11.144998335047855"><ele>56.0</ele><time>2026-03-28T18:03:28Z</time></trkpt><trkpt lat="44.51761034544481" lon="11.144784777214783"><ele>56.0</ele><time>2026-03-28T18:03:29Z</time></trkpt><trkpt lat="44.51769088022864" lon="11.144570817830415"><ele>56.66666666666667</ele><time>2026-03-28T18:03:30Z</time></trkpt><trkpt lat="44.51776940749949" lon="11.14436176092347"><ele>57.33333333333333</ele><time>2026-03-28T18:03:31Z</time></trkpt><trkpt lat="44.517845942818305" lon="11.144155442169852"><ele>58.0</ele><time>2026-03-28T18:03:32Z</time></trkpt><trkpt lat="44.51792577194478" lon="11.14394324311265"><ele>58.0</ele><time>2026-03-28T18:03:33Z</time></trkpt><trkpt lat="44.51800650631546" lon="11.14373136146623"><ele>58.0</ele><time>2026-03-28T18:03:34Z</time></trkpt><trkpt lat="44.518087329265306" lon="11.143519155431393"><ele>58.0</ele><time>2026-03-28T18:03:35Z</time></trkpt><trkpt lat="44.51816740610024" lon="11.143314459278711"><ele>57.33333333333333</ele><time>2026-03-28T18:03:36Z</time></trkpt><trkpt lat="44.51825028791386" lon="11.14311680956846"><ele>56.66666666666667</ele><time>2026-03-28T18:03:37Z</time></trkpt><trkpt lat="44.51832943289821" lon="11.142923074052682"><ele>56.0</ele><time>2026-03-28T18:03:38Z</time></trkpt><trkpt lat="44.51840657807854" lon="11.142743179391996"><ele>56.0</ele><time>2026-03-28T18:03:39Z</time></trkpt><trkpt lat="44.518484083518956" lon="11.142576683149558"><ele>56.0</ele><time>2026-03-28T18:03:40Z</time></trkpt><trkpt lat="44.51857240542503" lon="11.142414343734336"><ele>56.0</ele><time>2026-03-28T18:03:41Z</time></trkpt><trkpt lat="44.51867510163808" lon="11.142262944983404"><ele>56.0</ele><time>2026-03-28T18:03:42Z</time></trkpt><trkpt lat="44.51877890079496" lon="11.14211143682978"><ele>55.66666666666667</ele><time>2026-03-28T18:03:43Z</time></trkpt><trkpt lat="44.51888286034311" lon="11.1419339174411"><ele>55.33333333333333</ele><time>2026-03-28T18:03:44Z</time></trkpt><trkpt lat="44.51898328856063" lon="11.141738736052247"><ele>55.0</ele><time>2026-03-28T18:03:45Z</time></trkpt><trkpt lat="44.519088306771664" lon="11.14153064216184"><ele>54.666666666666664</ele><time>2026-03-28T18:03:46Z</time></trkpt><trkpt lat="44.51919639332215" lon="11.141315047582886"><ele>54.33333333333333</ele><time>2026-03-28T18:03:47Z</time></trkpt><trkpt lat="44.51930058563011" lon="11.141107546828252"><ele>54.0</ele><time>2026-03-28T18:03:48Z</time></trkpt><trkpt lat="44.51940075499352" lon="11.14091805495562"><ele>54.0</ele><time>2026-03-28T18:03:49Z</time></trkpt><trkpt lat="44.51949333333455" lon="11.140742064050775"><ele>54.0</ele><time>2026-03-28T18:03:50Z</time></trkpt><trkpt lat="44.5195776090439" lon="11.14058096097073"><ele>54.0</ele><time>2026-03-28T18:03:51Z</time></trkpt><trkpt lat="44.51965304717888" lon="11.140436879942714"><ele>54.0</ele><time>2026-03-28T18:03:52Z</time></trkpt><trkpt lat="44.51971876937405" lon="11.140306079195055"><ele>54.6</ele><time>2026-03-28T18:03:53Z</time></trkpt><trkpt lat="44.51977893011265" lon="11.140211750872828"><ele>55.2</ele><time>2026-03-28T18:03:54Z</time></trkpt><trkpt lat="44.51983246924642" lon="11.140122974923955"><ele>55.800000000000004</ele><time>2026-03-28T18:03:55Z</time></trkpt><trkpt lat="44.51994552622831" lon="11.140077021803425"><ele>56.400000000000006</ele><time>2026-03-28T18:03:56Z</time></trkpt><trkpt lat="44.52004159185591" lon="11.139987080225007"><ele>57.0</ele><time>2026-03-28T18:03:57Z</time></trkpt><trkpt lat="44.52011720566556" lon="11.13989540012959"><ele>57.0</ele><time>2026-03-28T18:03:58Z</time></trkpt><trkpt lat="44.52030405184436" lon="11.14003916738991"><ele>57.0</ele><time>2026-03-28T18:03:59Z</time></trkpt><trkpt lat="44.520436534541055" lon="11.140118756221"><ele>57.0</ele><time>2026-03-28T18:04:00Z</time></trkpt><trkpt lat="44.52058799134857" lon="11.140236114794138"><ele>56.66666666666667</ele><time>2026-03-28T18:04:01Z</time></trkpt><trkpt lat="44.52076090423132" lon="11.140370418250795"><ele>56.333333333333336</ele><time>2026-03-28T18:04:02Z</time></trkpt><trkpt lat="44.52093276313061" lon="11.140500148523296"><ele>56.0</ele><time>2026-03-28T18:04:03Z</time></trkpt><trkpt lat="44.521084776268076" lon="11.140612387318695"><ele>56.0</ele><time>2026-03-28T18:04:04Z</time></trkpt><trkpt lat="44.52122656894562" lon="11.140710928681013"><ele>56.0</ele><time>2026-03-28T18:04:05Z</time></trkpt><trkpt lat="44.521361529926516" lon="11.14079644242264"><ele>56.0</ele><time>2026-03-28T18:04:06Z</time></trkpt><trkpt lat="44.521498449725726" lon="11.14087113018723"><ele>56.333333333333336</ele><time>2026-03-28T18:04:07Z</time></trkpt><trkpt lat="44.5216705202938" lon="11.140956026127506"><ele>56.66666666666667</ele><time>2026-03-28T18:04:08Z</time></trkpt><trkpt lat="44.521872696694906" lon="11.141057000433575"><ele>57.0</ele><time>2026-03-28T18:04:09Z</time></trkpt><trkpt lat="44.52206613769112" lon="11.14116076846654"><ele>57.33333333333333</ele><time>2026-03-28T18:04:10Z</time></trkpt><trkpt lat="44.522253383652554" lon="11.14125989783694"><ele>57.666666666666664</ele><time>2026-03-28T18:04:11Z</time></trkpt><trkpt lat="44.522475186804776" lon="11.141365226104387"><ele>58.0</ele><time>2026-03-28T18:04:12Z</time></trkpt><trkpt lat="44.52272800860798" lon="11.141496563160615"><ele>55.5</ele><time>2026-03-28T18:04:13Z</time></trkpt><trkpt lat="44.52296824372326" lon="11.14164600871175"><ele>53.0</ele><time>2026-03-28T18:04:14Z</time></trkpt><trkpt lat="44.52318813932313" lon="11.141772733287867"><ele>53.0</ele><time>2026-03-28T18:04:15Z</time></trkpt><trkpt lat="44.523380623790096" lon="11.141871604158787"><ele>53.0</ele><time>2026-03-28T18:04:16Z</time></trkpt><trkpt lat="44.52354214678194" lon="11.141958327965693"><ele>53.0</ele><time>2026-03-28T18:04:17Z</time></trkpt><trkpt lat="44.523674245332955" lon="11.142034292213657"><ele>53.4</ele><time>2026-03-28T18:04:18Z</time></trkpt><trkpt lat="44.52379061608755" lon="11.14212988303859"><ele>53.8</ele><time>2026-03-28T18:04:19Z</time></trkpt><trkpt lat="44.52390324512493" lon="11.14218170906181"><ele>54.2</ele><time>2026-03-28T18:04:20Z</time></trkpt><trkpt lat="44.523992525309765" lon="11.142227876801371"><ele>54.6</ele><time>2026-03-28T18:04:21Z</time></trkpt><trkpt lat="44.52406208738765" lon="11.142264025060243"><ele>55.0</ele><time>2026-03-28T18:04:22Z</time></trkpt><trkpt lat="44.52413246268486" lon="11.142300595879133"><ele>55.0</ele><time>2026-03-28T18:04:23Z</time></trkpt><trkpt lat="44.52420897283759" lon="11.142340354681055"><ele>55.0</ele><time>2026-03-28T18:04:24Z</time></trkpt><trkpt lat="44.52429017865682" lon="11.142382553590801"><ele>55.0</ele><time>2026-03-28T18:04:25Z</time></trkpt><trkpt lat="44.524399072942195" lon="11.142424835179929"><ele>55.0</ele><time>2026-03-28T18:04:26Z</time></trkpt><trkpt lat="44.52454172289078" lon="11.142481024071413"><ele>55.0</ele><time>2026-03-28T18:04:27Z</time></trkpt><trkpt lat="44.52470802134596" lon="11.14255522099842"><ele>54.33333333333333</ele><time>2026-03-28T18:04:28Z</time></trkpt><trkpt lat="44.52489305573467" lon="11.142648509443148"><ele>53.66666666666667</ele><time>2026-03-28T18:04:29Z</time></trkpt><trkpt lat="44.525100671723685" lon="11.142758453124884"><ele>53.0</ele><time>2026-03-28T18:04:30Z</time></trkpt><trkpt lat="44.52532210666328" lon="11.142869326586863"><ele>52.5</ele><time>2026-03-28T18:04:31Z</time></trkpt><trkpt lat="44.52555443382283" lon="11.142987538046535"><ele>52.0</ele><time>2026-03-28T18:04:32Z</time></trkpt><trkpt lat="44.525786486281476" lon="11.143109128031474"><ele>52.5</ele><time>2026-03-28T18:04:33Z</time></trkpt><trkpt lat="44.52602008530104" lon="11.143228728454789"><ele>53.0</ele><time>2026-03-28T18:04:34Z</time></trkpt><trkpt lat="44.5262539785791" lon="11.14335264629689"><ele>53.0</ele><time>2026-03-28T18:04:35Z</time></trkpt><trkpt lat="44.526484672925676" lon="11.143479191216977"><ele>53.0</ele><time>2026-03-28T18:04:36Z</time></trkpt><trkpt lat="44.526710673102976" lon="11.143621288787955"><ele>53.0</ele><time>2026-03-28T18:04:37Z</time></trkpt><trkpt lat="44.52693250877742" lon="11.143772821149161"><ele>53.0</ele><time>2026-03-28T18:04:38Z</time></trkpt><trkpt lat="44.52713839997981" lon="11.143927771805739"><ele>52.0</ele><time>2026-03-28T18:04:39Z</time></trkpt><trkpt lat="44.52733313519711" lon="11.14407692417341"><ele>51.0</ele><time>2026-03-28T18:04:40Z</time></trkpt><trkpt lat="44.527522721209245" lon="11.144219144348972"><ele>50.0</ele><time>2026-03-28T18:04:41Z</time></trkpt><trkpt lat="44.52771475000084" lon="11.144361143339255"><ele>50.333333333333336</ele><time>2026-03-28T18:04:42Z</time></trkpt><trkpt lat="44.52790912799717" lon="11.14450036348841"><ele>50.66666666666667</ele><time>2026-03-28T18:04:43Z</time></trkpt><trkpt lat="44.528108922335775" lon="11.144643229762078"><ele>51.0</ele><time>2026-03-28T18:04:44Z</time></trkpt><trkpt lat="44.528302985143256" lon="11.14478502656225"><ele>50.66666666666667</ele><time>2026-03-28T18:04:45Z</time></trkpt><trkpt lat="44.52849602307933" lon="11.144925838663495"><ele>50.333333333333336</ele><time>2026-03-28T18:04:46Z</time></trkpt><trkpt lat="44.52869003748767" lon="11.145061787378047"><ele>50.0</ele><time>2026-03-28T18:04:47Z</time></trkpt><trkpt lat="44.528880424724974" lon="11.145196850191994"><ele>50.66666666666667</ele><time>2026-03-28T18:04:48Z</time></trkpt><trkpt lat="44.52906907163032" lon="11.145331058355975"><ele>51.33333333333333</ele><time>2026-03-28T18:04:49Z</time></trkpt><trkpt lat="44.5292514025982" lon="11.14546949115016"><ele>52.0</ele><time>2026-03-28T18:04:50Z</time></trkpt><trkpt lat="44.52943242998414" lon="11.145605751076083"><ele>51.666666666666664</ele><time>2026-03-28T18:04:51Z</time></trkpt><trkpt lat="44.529600011764906" lon="11.14573095448898"><ele>51.33333333333333</ele><time>2026-03-28T18:04:52Z</time></trkpt><trkpt lat="44.52976593786659" lon="11.145847189879442"><ele>51.0</ele><time>2026-03-28T18:04:53Z</time></trkpt><trkpt lat="44.52992453148639" lon="11.145960916190752"><ele>51.0</ele><time>2026-03-28T18:04:54Z</time></trkpt><trkpt lat="44.53008258293377" lon="11.146081760905231"><ele>51.0</ele><time>2026-03-28T18:04:55Z</time></trkpt><trkpt lat="44.53024197715372" lon="11.146201009535856"><ele>51.0</ele><time>2026-03-28T18:04:56Z</time></trkpt><trkpt lat="44.5303997789504" lon="11.146318604574791"><ele>50.66666666666667</ele><time>2026-03-28T18:04:57Z</time></trkpt><trkpt lat="44.530545590499486" lon="11.146425160065457"><ele>50.333333333333336</ele><time>2026-03-28T18:04:58Z</time></trkpt><trkpt lat="44.5306853855273" lon="11.14652345629442"><ele>50.0</ele><time>2026-03-28T18:04:59Z</time></trkpt><trkpt lat="44.530817702419554" lon="11.146623840668333"><ele>49.8</ele><time>2026-03-28T18:05:00Z</time></trkpt><trkpt lat="44.530944552562936" lon="11.146720268032427"><ele>49.6</ele><time>2026-03-28T18:05:01Z</time></trkpt><trkpt lat="44.53104108464053" lon="11.146805494763472"><ele>49.400000000000006</ele><time>2026-03-28T18:05:02Z</time></trkpt><trkpt lat="44.531110388064604" lon="11.14689066441582"><ele>49.2</ele><time>2026-03-28T18:05:03Z</time></trkpt><trkpt lat="44.53116424581299" lon="11.147005862184892"><ele>49.0</ele><time>2026-03-28T18:05:04Z</time></trkpt><trkpt lat="44.531207647387326" lon="11.147120751081367"><ele>49.166666666666664</ele><time>2026-03-28T18:05:05Z</time></trkpt><trkpt lat="44.53126316026461" lon="11.147210479609347"><ele>49.33333333333333</ele><time>2026-03-28T18:05:06Z</time></trkpt><trkpt lat="44.53134087200699" lon="11.14726248998514"><ele>49.5</ele><time>2026-03-28T18:05:07Z</time></trkpt><trkpt lat="44.531430196993604" lon="11.147249265849771"><ele>49.66666666666667</ele><time>2026-03-28T18:05:08Z</time></trkpt><trkpt lat="44.53152081812523" lon="11.147223505830647"><ele>49.833333333333336</ele><time>2026-03-28T18:05:09Z</time></trkpt><trkpt lat="44.53161629326774" lon="11.147228933656631"><ele>50.0</ele><time>2026-03-28T18:05:10Z</time></trkpt><trkpt lat="44.53171123607074" lon="11.147270911079705"><ele>50.0</ele><time>2026-03-28T18:05:11Z</time></trkpt><trkpt lat="44.53182705270881" lon="11.147371247839324"><ele>50.0</ele><time>2026-03-28T18:05:12Z</time></trkpt><trkpt lat="44.531991889213806" lon="11.147484223820603"><ele>50.0</ele><time>2026-03-28T18:05:13Z</time></trkpt><trkpt lat="44.53219421719657" lon="11.147625152039607"><ele>50.0</ele><time>2026-03-28T18:05:14Z</time></trkpt><trkpt lat="44.53243056305818" lon="11.147789774851052"><ele>50.0</ele><time>2026-03-28T18:05:15Z</time></trkpt><trkpt lat="44.5326889617661" lon="11.147949689458574"><ele>49.5</ele><time>2026-03-28T18:05:16Z</time></trkpt><trkpt lat="44.532947082424144" lon="11.14813161460737"><ele>49.0</ele><time>2026-03-28T18:05:17Z</time></trkpt><trkpt lat="44.53322106285027" lon="11.148322387008676"><ele>49.0</ele><time>2026-03-28T18:05:18Z</time></trkpt><trkpt lat="44.53351857747668" lon="11.148525648916857"><ele>49.0</ele><time>2026-03-28T18:05:19Z</time></trkpt><trkpt lat="44.53383009289272" lon="11.14873933545118"><ele>49.0</ele><time>2026-03-28T18:05:20Z</time></trkpt><trkpt lat="44.53412715702703" lon="11.148948906675209"><ele>49.0</ele><time>2026-03-28T18:05:21Z</time></trkpt><trkpt lat="44.534428312894946" lon="11.149156441245989"><ele>48.5</ele><time>2026-03-28T18:05:22Z</time></trkpt><trkpt lat="44.53472870459899" lon="11.149365560022538"><ele>48.0</ele><time>2026-03-28T18:05:23Z</time></trkpt><trkpt lat="44.53502696225108" lon="11.149571087106116"><ele>48.0</ele><time>2026-03-28T18:05:24Z</time></trkpt><trkpt lat="44.53532056985466" lon="11.149778724413109"><ele>48.0</ele><time>2026-03-28T18:05:25Z</time></trkpt><trkpt lat="44.5356242169871" lon="11.149989575903584"><ele>48.5</ele><time>2026-03-28T18:05:26Z</time></trkpt><trkpt lat="44.53593536981748" lon="11.150206119778442"><ele>49.0</ele><time>2026-03-28T18:05:27Z</time></trkpt><trkpt lat="44.53624318398437" lon="11.150416106164691"><ele>49.5</ele><time>2026-03-28T18:05:28Z</time></trkpt><trkpt lat="44.53653921665424" lon="11.15064828703076"><ele>50.0</ele><time>2026-03-28T18:05:29Z</time></trkpt><trkpt lat="44.536841513987895" lon="11.15086066399201"><ele>48.5</ele><time>2026-03-28T18:05:30Z</time></trkpt><trkpt lat="44.53714686408738" lon="11.151075185484018"><ele>47.0</ele><time>2026-03-28T18:05:31Z</time></trkpt><trkpt lat="44.5374472260547" lon="11.151284545088837"><ele>47.0</ele><time>2026-03-28T18:05:32Z</time></trkpt><trkpt lat="44.53775559022864" lon="11.151498659200465"><ele>47.0</ele><time>2026-03-28T18:05:33Z</time></trkpt><trkpt lat="44.53807220120608" lon="11.1517184995498"><ele>47.0</ele><time>2026-03-28T18:05:34Z</time></trkpt><trkpt lat="44.5383980008009" lon="11.15194472009767"><ele>47.0</ele><time>2026-03-28T18:05:35Z</time></trkpt><trkpt lat="44.53871405581346" lon="11.152164174426892"><ele>46.5</ele><time>2026-03-28T18:05:36Z</time></trkpt><trkpt lat="44.53901628207403" lon="11.152374026674236"><ele>46.0</ele><time>2026-03-28T18:05:37Z</time></trkpt><trkpt lat="44.5393097916604" lon="11.152577826449285"><ele>45.5</ele><time>2026-03-28T18:05:38Z</time></trkpt><trkpt lat="44.5395978604936" lon="11.152777848405528"><ele>45.0</ele><time>2026-03-28T18:05:39Z</time></trkpt><trkpt lat="44.53986593797204" lon="11.15296405283167"><ele>45.0</ele><time>2026-03-28T18:05:40Z</time></trkpt><trkpt lat="44.54012922313288" lon="11.153146495078591"><ele>45.0</ele><time>2026-03-28T18:05:41Z</time></trkpt><trkpt lat="44.54038694194591" lon="11.153296278386073"><ele>44.5</ele><time>2026-03-28T18:05:42Z</time></trkpt><trkpt lat="44.54064868391607" lon="11.153479123176858"><ele>44.0</ele><time>2026-03-28T18:05:43Z</time></trkpt><trkpt lat="44.54091938643102" lon="11.153663497383862"><ele>44.0</ele><time>2026-03-28T18:05:44Z</time></trkpt><trkpt lat="44.541198819623055" lon="11.153844250010957"><ele>44.0</ele><time>2026-03-28T18:05:45Z</time></trkpt><trkpt lat="44.541476489437336" lon="11.154047558263812"><ele>44.5</ele><time>2026-03-28T18:05:46Z</time></trkpt><trkpt lat="44.54177583464447" lon="11.154213998434738"><ele>45.0</ele><time>2026-03-28T18:05:47Z</time></trkpt><trkpt lat="44.54207519649609" lon="11.154399761990858"><ele>45.0</ele><time>2026-03-28T18:05:48Z</time></trkpt><trkpt lat="44.5423763018439" lon="11.154582016938274"><ele>45.0</ele><time>2026-03-28T18:05:49Z</time></trkpt><trkpt lat="44.54267612057231" lon="11.154753550935581"><ele>44.5</ele><time>2026-03-28T18:05:50Z</time></trkpt><trkpt lat="44.54297356227896" lon="11.154917834031977"><ele>44.0</ele><time>2026-03-28T18:05:51Z</time></trkpt><trkpt lat="44.54326290418345" lon="11.155096155098123"><ele>44.0</ele><time>2026-03-28T18:05:52Z</time></trkpt><trkpt lat="44.54356669120661" lon="11.155260446603736"><ele>44.0</ele><time>2026-03-28T18:05:53Z</time></trkpt><trkpt lat="44.54389183393896" lon="11.155425338092025"><ele>43.5</ele><time>2026-03-28T18:05:54Z</time></trkpt><trkpt lat="44.54422222333596" lon="11.155591968629183"><ele>43.0</ele><time>2026-03-28T18:05:55Z</time></trkpt><trkpt lat="44.54455192809474" lon="11.155752089287445"><ele>42.5</ele><time>2026-03-28T18:05:56Z</time></trkpt><trkpt lat="44.54488978498796" lon="11.155916169019177"><ele>42.0</ele><time>2026-03-28T18:05:57Z</time></trkpt><trkpt lat="44.545230280099204" lon="11.156080880896386"><ele>42.5</ele><time>2026-03-28T18:05:58Z</time></trkpt><trkpt lat="44.54556645521159" lon="11.156239854220441"><ele>43.0</ele><time>2026-03-28T18:05:59Z</time></trkpt><trkpt lat="44.54590083957607" lon="11.156399803009457"><ele>42.5</ele><time>2026-03-28T18:06:00Z</time></trkpt><trkpt lat="44.546231073628825" lon="11.15655365194802"><ele>42.0</ele><time>2026-03-28T18:06:01Z</time></trkpt><trkpt lat="44.54656742001159" lon="11.156714768075854"><ele>42.0</ele><time>2026-03-28T18:06:02Z</time></trkpt><trkpt lat="44.5469030774472" lon="11.156875169960085"><ele>42.0</ele><time>2026-03-28T18:06:03Z</time></trkpt><trkpt lat="44.54723647664108" lon="11.15703623797787"><ele>42.0</ele><time>2026-03-28T18:06:04Z</time></trkpt><trkpt lat="44.54756651892815" lon="11.157200123801239"><ele>42.0</ele><time>2026-03-28T18:06:05Z</time></trkpt><trkpt lat="44.54789417110475" lon="11.157368443534308"><ele>43.0</ele><time>2026-03-28T18:06:06Z</time></trkpt><trkpt lat="44.54821435134791" lon="11.157537267888225"><ele>44.0</ele><time>2026-03-28T18:06:07Z</time></trkpt><trkpt lat="44.54854267678169" lon="11.1577109692938"><ele>43.0</ele><time>2026-03-28T18:06:08Z</time></trkpt><trkpt lat="44.54884366474678" lon="11.157872218588452"><ele>42.0</ele><time>2026-03-28T18:06:09Z</time></trkpt><trkpt lat="44.54911750239143" lon="11.158020888458827"><ele>42.0</ele><time>2026-03-28T18:06:10Z</time></trkpt><trkpt lat="44.54936943659945" lon="11.15816164532593"><ele>42.0</ele><time>2026-03-28T18:06:11Z</time></trkpt><trkpt lat="44.549603062402056" lon="11.158295137094584"><ele>42.0</ele><time>2026-03-28T18:06:12Z</time></trkpt><trkpt lat="44.54982070640139" lon="11.158420470637187"><ele>42.0</ele><time>2026-03-28T18:06:13Z</time></trkpt><trkpt lat="44.55001624520629" lon="11.158535052530771"><ele>42.0</ele><time>2026-03-28T18:06:14Z</time></trkpt><trkpt lat="44.55019480982825" lon="11.158641205328701"><ele>42.0</ele><time>2026-03-28T18:06:15Z</time></trkpt><trkpt lat="44.55035006312768" lon="11.158733499956107"><ele>42.0</ele><time>2026-03-28T18:06:16Z</time></trkpt><trkpt lat="44.55048249456464" lon="11.15879290868936"><ele>42.0</ele><time>2026-03-28T18:06:17Z</time></trkpt><trkpt lat="44.550567911672374" lon="11.158856220638398"><ele>42.0</ele><time>2026-03-28T18:06:18Z</time></trkpt><trkpt lat="44.55062899372258" lon="11.158915798689396"><ele>41.833333333333336</ele><time>2026-03-28T18:06:19Z</time></trkpt><trkpt lat="44.550675178129204" lon="11.159003080581245"><ele>41.666666666666664</ele><time>2026-03-28T18:06:20Z</time></trkpt><trkpt lat="44.55071218971754" lon="11.159122651834323"><ele>41.5</ele><time>2026-03-28T18:06:21Z</time></trkpt><trkpt lat="44.55073336659095" lon="11.159249951380298"><ele>41.33333333333333</ele><time>2026-03-28T18:06:22Z</time></trkpt><trkpt lat="44.550770836687384" lon="11.159347506223098"><ele>41.166666666666664</ele><time>2026-03-28T18:06:23Z</time></trkpt><trkpt lat="44.55083199624946" lon="11.159418219469595"><ele>41.0</ele><time>2026-03-28T18:06:24Z</time></trkpt><trkpt lat="44.550911357523596" lon="11.159459087832719"><ele>40.8</ele><time>2026-03-28T18:06:25Z</time></trkpt><trkpt lat="44.5510062829394" lon="11.159472351450377"><ele>40.599999999999994</ele><time>2026-03-28T18:06:26Z</time></trkpt><trkpt lat="44.551098424034684" lon="11.159444789713849"><ele>40.4</ele><time>2026-03-28T18:06:27Z</time></trkpt><trkpt lat="44.551173867155626" lon="11.159367614228092"><ele>40.2</ele><time>2026-03-28T18:06:28Z</time></trkpt><trkpt lat="44.55122835322354" lon="11.159256806837131"><ele>40.0</ele><time>2026-03-28T18:06:29Z</time></trkpt><trkpt lat="44.55124511551653" lon="11.159111927790285"><ele>40.0</ele><time>2026-03-28T18:06:30Z</time></trkpt><trkpt lat="44.55123937356357" lon="11.158981971923055"><ele>40.0</ele><time>2026-03-28T18:06:31Z</time></trkpt><trkpt lat="44.55120754910428" lon="11.158856925678409"><ele>40.0</ele><time>2026-03-28T18:06:32Z</time></trkpt><trkpt lat="44.551170663954345" lon="11.158728057450535"><ele>40.0</ele><time>2026-03-28T18:06:33Z</time></trkpt><trkpt lat="44.55116523527937" lon="11.158598115223066"><ele>40.0</ele><time>2026-03-28T18:06:34Z</time></trkpt><trkpt lat="44.55116605745409" lon="11.158465576293034"><ele>40.0</ele><time>2026-03-28T18:06:35Z</time></trkpt><trkpt lat="44.551239845810976" lon="11.158307559591709"><ele>40.0</ele><time>2026-03-28T18:06:36Z</time></trkpt><trkpt lat="44.55130457435636" lon="11.158118609094961"><ele>40.0</ele><time>2026-03-28T18:06:37Z</time></trkpt><trkpt lat="44.5513811765711" lon="11.157887463865066"><ele>40.0</ele><time>2026-03-28T18:06:38Z</time></trkpt><trkpt lat="44.55146569909361" lon="11.157628831766914"><ele>40.0</ele><time>2026-03-28T18:06:39Z</time></trkpt><trkpt lat="44.55156883293348" lon="11.157332608427874"><ele>40.0</ele><time>2026-03-28T18:06:40Z</time></trkpt><trkpt lat="44.5516846836463" lon="11.156998897435203"><ele>40.0</ele><time>2026-03-28T18:06:41Z</time></trkpt><trkpt lat="44.551812760436604" lon="11.156633806422777"><ele>40.0</ele><time>2026-03-28T18:06:42Z</time></trkpt><trkpt lat="44.55194485412089" lon="11.156249907704536"><ele>40.0</ele><time>2026-03-28T18:06:43Z</time></trkpt><trkpt lat="44.55208074881833" lon="11.155857524615506"><ele>40.0</ele><time>2026-03-28T18:06:44Z</time></trkpt><trkpt lat="44.55221458579453" lon="11.15546720124355"><ele>41.0</ele><time>2026-03-28T18:06:45Z</time></trkpt><trkpt lat="44.552345720111155" lon="11.155084742639966"><ele>42.0</ele><time>2026-03-28T18:06:46Z</time></trkpt><trkpt lat="44.55248121284942" lon="11.154696711409708"><ele>42.0</ele><time>2026-03-28T18:06:47Z</time></trkpt><trkpt lat="44.5526209198679" lon="11.154298325757217"><ele>42.0</ele><time>2026-03-28T18:06:48Z</time></trkpt><trkpt lat="44.552764440021456" lon="11.153894493828576"><ele>41.5</ele><time>2026-03-28T18:06:49Z</time></trkpt><trkpt lat="44.552907906311844" lon="11.15348276970521"><ele>41.0</ele><time>2026-03-28T18:06:50Z</time></trkpt><trkpt lat="44.55304299301139" lon="11.153083418962026"><ele>40.0</ele><time>2026-03-28T18:06:51Z</time></trkpt><trkpt lat="44.553165687415415" lon="11.152733548666792"><ele>39.0</ele><time>2026-03-28T18:06:52Z</time></trkpt><trkpt lat="44.55327898274008" lon="11.152414428386367"><ele>40.0</ele><time>2026-03-28T18:06:53Z</time></trkpt><trkpt lat="44.5533816398555" lon="11.152118938322975"><ele>41.0</ele><time>2026-03-28T18:06:54Z</time></trkpt><trkpt lat="44.553480010123685" lon="11.151830849672105"><ele>41.5</ele><time>2026-03-28T18:06:55Z</time></trkpt><trkpt lat="44.55357811085261" lon="11.151539335140999"><ele>42.0</ele><time>2026-03-28T18:06:56Z</time></trkpt><trkpt lat="44.55367886853193" lon="11.15124595953634"><ele>41.0</ele><time>2026-03-28T18:06:57Z</time></trkpt><trkpt lat="44.553782267672254" lon="11.150956644119855"><ele>40.0</ele><time>2026-03-28T18:06:58Z</time></trkpt><trkpt lat="44.553883943354066" lon="11.150674778501411"><ele>39.66666666666667</ele><time>2026-03-28T18:06:59Z</time></trkpt><trkpt lat="44.55398639981718" lon="11.150399935731205"><ele>39.333333333333336</ele><time>2026-03-28T18:07:00Z</time></trkpt><trkpt lat="44.55408857755737" lon="11.150134336379221"><ele>39.0</ele><time>2026-03-28T18:07:01Z</time></trkpt><trkpt lat="44.55419012783301" lon="11.149876054455087"><ele>39.0</ele><time>2026-03-28T18:07:02Z</time></trkpt><trkpt lat="44.55429078108579" lon="11.1496259697452"><ele>39.0</ele><time>2026-03-28T18:07:03Z</time></trkpt><trkpt lat="44.554391168795576" lon="11.149389903593931"><ele>39.0</ele><time>2026-03-28T18:07:04Z</time></trkpt><trkpt lat="44.55451305258483" lon="11.1491478504346"><ele>40.0</ele><time>2026-03-28T18:07:05Z</time></trkpt><trkpt lat="44.55465696834857" lon="11.148921387544611"><ele>41.0</ele><time>2026-03-28T18:07:06Z</time></trkpt><trkpt lat="44.554815750605115" lon="11.148719547281388"><ele>42.0</ele><time>2026-03-28T18:07:07Z</time></trkpt><trkpt lat="44.554981490787014" lon="11.148556238279813"><ele>42.0</ele><time>2026-03-28T18:07:08Z</time></trkpt><trkpt lat="44.55515686481385" lon="11.14840434053833"><ele>42.0</ele><time>2026-03-28T18:07:09Z</time></trkpt><trkpt lat="44.55533786734654" lon="11.14828034779147"><ele>42.0</ele><time>2026-03-28T18:07:10Z</time></trkpt><trkpt lat="44.555519214710756" lon="11.148180191237193"><ele>41.666666666666664</ele><time>2026-03-28T18:07:11Z</time></trkpt><trkpt lat="44.555691290243345" lon="11.148102275892077"><ele>41.33333333333333</ele><time>2026-03-28T18:07:12Z</time></trkpt><trkpt lat="44.555860939624075" lon="11.148041752094773"><ele>41.0</ele><time>2026-03-28T18:07:13Z</time></trkpt><trkpt lat="44.55601771991319" lon="11.148000832692222"><ele>41.0</ele><time>2026-03-28T18:07:14Z</time></trkpt><trkpt lat="44.55616496146731" lon="11.147951542948315"><ele>41.0</ele><time>2026-03-28T18:07:15Z</time></trkpt><trkpt lat="44.55630420983565" lon="11.14791136902638"><ele>41.0</ele><time>2026-03-28T18:07:16Z</time></trkpt><trkpt lat="44.55642530140181" lon="11.147887570401338"><ele>41.0</ele><time>2026-03-28T18:07:17Z</time></trkpt><trkpt lat="44.55652364308667" lon="11.147905386287606"><ele>40.75</ele><time>2026-03-28T18:07:18Z</time></trkpt><trkpt lat="44.55661556337983" lon="11.147967602858612"><ele>40.5</ele><time>2026-03-28T18:07:19Z</time></trkpt><trkpt lat="44.55671016176992" lon="11.148056842449918"><ele>40.25</ele><time>2026-03-28T18:07:20Z</time></trkpt><trkpt lat="44.556798205843315" lon="11.148150664396153"><ele>40.0</ele><time>2026-03-28T18:07:21Z</time></trkpt><trkpt lat="44.55692671609933" lon="11.148171399201154"><ele>40.0</ele><time>2026-03-28T18:07:22Z</time></trkpt><trkpt lat="44.55705581628979" lon="11.148101017099291"><ele>40.0</ele><time>2026-03-28T18:07:23Z</time></trkpt><trkpt lat="44.557186304439924" lon="11.148048986226119"><ele>40.0</ele><time>2026-03-28T18:07:24Z</time></trkpt><trkpt lat="44.557324711794735" lon="11.14802588199343"><ele>40.0</ele><time>2026-03-28T18:07:25Z</time></trkpt><trkpt lat="44.55746621041827" lon="11.148037741775232"><ele>40.0</ele><time>2026-03-28T18:07:26Z</time></trkpt><trkpt lat="44.557607703239896" lon="11.148150909630047"><ele>40.0</ele><time>2026-03-28T18:07:27Z</time></trkpt><trkpt lat="44.55779594220715" lon="11.148236073023146"><ele>40.0</ele><time>2026-03-28T18:07:28Z</time></trkpt><trkpt lat="44.558005936294364" lon="11.14834067144921"><ele>39.66666666666667</ele><time>2026-03-28T18:07:29Z</time></trkpt><trkpt lat="44.55822318244006" lon="11.148430153955768"><ele>39.333333333333336</ele><time>2026-03-28T18:07:30Z</time></trkpt><trkpt lat="44.55841650870621" lon="11.148536689721155"><ele>39.0</ele><time>2026-03-28T18:07:31Z</time></trkpt><trkpt lat="44.558603004211875" lon="11.148629460216275"><ele>38.333333333333336</ele><time>2026-03-28T18:07:32Z</time></trkpt><trkpt lat="44.55878416802338" lon="11.148718343814773"><ele>37.66666666666667</ele><time>2026-03-28T18:07:33Z</time></trkpt><trkpt lat="44.55896403610206" lon="11.148805699954005"><ele>37.0</ele><time>2026-03-28T18:07:34Z</time></trkpt><trkpt lat="44.5591427017947" lon="11.148902010431156"><ele>37.0</ele><time>2026-03-28T18:07:35Z</time></trkpt><trkpt lat="44.55931544083591" lon="11.148995184665665"><ele>37.0</ele><time>2026-03-28T18:07:36Z</time></trkpt><trkpt lat="44.55946685716806" lon="11.149114284562879"><ele>37.0</ele><time>2026-03-28T18:07:37Z</time></trkpt><trkpt lat="44.55961002670769" lon="11.149224976063657"><ele>37.66666666666667</ele><time>2026-03-28T18:07:38Z</time></trkpt><trkpt lat="44.55974790502097" lon="11.149354678876472"><ele>38.333333333333336</ele><time>2026-03-28T18:07:39Z</time></trkpt><trkpt lat="44.55987851588115" lon="11.149500983588005"><ele>39.0</ele><time>2026-03-28T18:07:40Z</time></trkpt><trkpt lat="44.559998816804885" lon="11.149658656494513"><ele>39.0</ele><time>2026-03-28T18:07:41Z</time></trkpt><trkpt lat="44.56010908492413" lon="11.149821800479412"><ele>39.0</ele><time>2026-03-28T18:07:42Z</time></trkpt><trkpt lat="44.56020669357807" lon="11.149985454200614"><ele>39.0</ele><time>2026-03-28T18:07:43Z</time></trkpt><trkpt lat="44.56030313844188" lon="11.150133651008304"><ele>38.8</ele><time>2026-03-28T18:07:44Z</time></trkpt><trkpt lat="44.56036150788324" lon="11.150259712080551"><ele>38.599999999999994</ele><time>2026-03-28T18:07:45Z</time></trkpt><trkpt lat="44.56038671262454" lon="11.150362768500164"><ele>38.4</ele><time>2026-03-28T18:07:46Z</time></trkpt><trkpt lat="44.56036161968732" lon="11.150491361731685"><ele>38.199999999999996</ele><time>2026-03-28T18:07:47Z</time></trkpt><trkpt lat="44.560372813788334" lon="11.150630475906656"><ele>38.0</ele><time>2026-03-28T18:07:48Z</time></trkpt><trkpt lat="44.560343528213" lon="11.150776513312573"><ele>38.0</ele><time>2026-03-28T18:07:49Z</time></trkpt><trkpt lat="44.560322234883415" lon="11.150892522056512"><ele>38.0</ele><time>2026-03-28T18:07:50Z</time></trkpt><trkpt lat="44.56036162708138" lon="11.151018697547617"><ele>38.0</ele><time>2026-03-28T18:07:51Z</time></trkpt><trkpt lat="44.56043204048039" lon="11.151124297952336"><ele>38.0</ele><time>2026-03-28T18:07:52Z</time></trkpt><trkpt lat="44.56052277587256" lon="11.15118638260733"><ele>38.0</ele><time>2026-03-28T18:07:53Z</time></trkpt><trkpt lat="44.56062792109665" lon="11.151204278234474"><ele>37.8</ele><time>2026-03-28T18:07:54Z</time></trkpt><trkpt lat="44.56072621568713" lon="11.151176683615345"><ele>37.599999999999994</ele><time>2026-03-28T18:07:55Z</time></trkpt><trkpt lat="44.56080870281182" lon="11.151106623326571"><ele>37.400000000000006</ele><time>2026-03-28T18:07:56Z</time></trkpt><trkpt lat="44.56087198938006" lon="11.151002610332466"><ele>37.2</ele><time>2026-03-28T18:07:57Z</time></trkpt><trkpt lat="44.56091198835063" lon="11.15086471935423"><ele>37.0</ele><time>2026-03-28T18:07:58Z</time></trkpt><trkpt lat="44.56092619813226" lon="11.150704919547167"><ele>38.0</ele><time>2026-03-28T18:07:59Z</time></trkpt><trkpt lat="44.560939057505884" lon="11.150534986318833"><ele>39.0</ele><time>2026-03-28T18:08:00Z</time></trkpt><trkpt lat="44.56098233581276" lon="11.150351066085523"><ele>40.0</ele><time>2026-03-28T18:08:01Z</time></trkpt><trkpt lat="44.561063693757006" lon="11.15010189254082"><ele>40.0</ele><time>2026-03-28T18:08:02Z</time></trkpt><trkpt lat="44.561174592442015" lon="11.149799091140599"><ele>40.0</ele><time>2026-03-28T18:08:03Z</time></trkpt><trkpt lat="44.56129427901601" lon="11.149442390109318"><ele>40.0</ele><time>2026-03-28T18:08:04Z</time></trkpt><trkpt lat="44.5614227573016" lon="11.149049381920808"><ele>40.0</ele><time>2026-03-28T18:08:05Z</time></trkpt><trkpt lat="44.561561909743276" lon="11.148633769078913"><ele>40.0</ele><time>2026-03-28T18:08:06Z</time></trkpt><trkpt lat="44.56170231564637" lon="11.148195357278476"><ele>40.0</ele><time>2026-03-28T18:08:07Z</time></trkpt><trkpt lat="44.56184442059286" lon="11.1477429901394"><ele>40.0</ele><time>2026-03-28T18:08:08Z</time></trkpt><trkpt lat="44.56198641544367" lon="11.1473088920368"><ele>40.0</ele><time>2026-03-28T18:08:09Z</time></trkpt><trkpt lat="44.562130662371935" lon="11.146880819621671"><ele>41.5</ele><time>2026-03-28T18:08:10Z</time></trkpt><trkpt lat="44.562270984350306" lon="11.146454877790765"><ele>43.0</ele><time>2026-03-28T18:08:11Z</time></trkpt><trkpt lat="44.56240837323558" lon="11.14604502514135"><ele>43.5</ele><time>2026-03-28T18:08:12Z</time></trkpt><trkpt lat="44.56253511642703" lon="11.145662678926067"><ele>44.0</ele><time>2026-03-28T18:08:13Z</time></trkpt><trkpt lat="44.5626566380524" lon="11.145287357208028"><ele>44.0</ele><time>2026-03-28T18:08:14Z</time></trkpt><trkpt lat="44.56277787238803" lon="11.144923323362232"><ele>44.0</ele><time>2026-03-28T18:08:15Z</time></trkpt><trkpt lat="44.562898094581975" lon="11.144571544449509"><ele>45.0</ele><time>2026-03-28T18:08:16Z</time></trkpt><trkpt lat="44.5630146834748" lon="11.144225485125427"><ele>46.0</ele><time>2026-03-28T18:08:17Z</time></trkpt><trkpt lat="44.56312631195829" lon="11.143887211675317"><ele>47.0</ele><time>2026-03-28T18:08:18Z</time></trkpt><trkpt lat="44.56323964451109" lon="11.143557810464516"><ele>48.0</ele><time>2026-03-28T18:08:19Z</time></trkpt><trkpt lat="44.56334979089429" lon="11.143233531019927"><ele>47.5</ele><time>2026-03-28T18:08:20Z</time></trkpt><trkpt lat="44.563459005800205" lon="11.142914749467662"><ele>47.0</ele><time>2026-03-28T18:08:21Z</time></trkpt><trkpt lat="44.56356691487808" lon="11.142599242828556"><ele>45.0</ele><time>2026-03-28T18:08:22Z</time></trkpt><trkpt lat="44.56367844789925" lon="11.142285630389017"><ele>43.0</ele><time>2026-03-28T18:08:23Z</time></trkpt><trkpt lat="44.56378977772713" lon="11.141974306295023"><ele>43.0</ele><time>2026-03-28T18:08:24Z</time></trkpt><trkpt lat="44.563902508810884" lon="11.141662605089667"><ele>43.0</ele><time>2026-03-28T18:08:25Z</time></trkpt><trkpt lat="44.56401814174921" lon="11.141344291766098"><ele>42.5</ele><time>2026-03-28T18:08:26Z</time></trkpt><trkpt lat="44.5641333857354" lon="11.141022730650278"><ele>42.0</ele><time>2026-03-28T18:08:27Z</time></trkpt><trkpt lat="44.56424883082871" lon="11.140696470906747"><ele>41.5</ele><time>2026-03-28T18:08:28Z</time></trkpt><trkpt lat="44.56436195327478" lon="11.140373114704081"><ele>41.0</ele><time>2026-03-28T18:08:29Z</time></trkpt><trkpt lat="44.564467030134786" lon="11.140073561682046"><ele>41.0</ele><time>2026-03-28T18:08:30Z</time></trkpt><trkpt lat="44.56456577047818" lon="11.139787051437267"><ele>41.0</ele><time>2026-03-28T18:08:31Z</time></trkpt><trkpt lat="44.56467562603264" lon="11.139517435064583"><ele>41.0</ele><time>2026-03-28T18:08:32Z</time></trkpt><trkpt lat="44.56478495681578" lon="11.139208271874516"><ele>42.5</ele><time>2026-03-28T18:08:33Z</time></trkpt><trkpt lat="44.56488460906549" lon="11.138878889095125"><ele>44.0</ele><time>2026-03-28T18:08:34Z</time></trkpt><trkpt lat="44.5649963998457" lon="11.138583745031587"><ele>44.0</ele><time>2026-03-28T18:08:35Z</time></trkpt><trkpt lat="44.56509182208974" lon="11.138300064635702"><ele>44.0</ele><time>2026-03-28T18:08:36Z</time></trkpt><trkpt lat="44.565189960661634" lon="11.13799504547232"><ele>43.5</ele><time>2026-03-28T18:08:37Z</time></trkpt><trkpt lat="44.56529500156814" lon="11.13768905097"><ele>43.0</ele><time>2026-03-28T18:08:38Z</time></trkpt><trkpt lat="44.56540004582772" lon="11.137403237765774"><ele>43.66666666666667</ele><time>2026-03-28T18:08:39Z</time></trkpt><trkpt lat="44.565486061363856" lon="11.137142519923861"><ele>44.333333333333336</ele><time>2026-03-28T18:08:40Z</time></trkpt><trkpt lat="44.565583123209976" lon="11.136922430003757"><ele>45.0</ele><time>2026-03-28T18:08:41Z</time></trkpt><trkpt lat="44.56561984298916" lon="11.136762494239797"><ele>45.0</ele><time>2026-03-28T18:08:42Z</time></trkpt><trkpt lat="44.565682077258494" lon="11.136621048704614"><ele>45.0</ele><time>2026-03-28T18:08:43Z</time></trkpt><trkpt lat="44.56575588350962" lon="11.136453725019733"><ele>45.0</ele><time>2026-03-28T18:08:44Z</time></trkpt><trkpt lat="44.56583644446441" lon="11.136243913889766"><ele>45.0</ele><time>2026-03-28T18:08:45Z</time></trkpt><trkpt lat="44.56592242279483" lon="11.135993635522098"><ele>44.0</ele><time>2026-03-28T18:08:46Z</time></trkpt><trkpt lat="44.56601522614266" lon="11.135706132631993"><ele>43.0</ele><time>2026-03-28T18:08:47Z</time></trkpt><trkpt lat="44.56611525825596" lon="11.135390750300777"><ele>43.0</ele><time>2026-03-28T18:08:48Z</time></trkpt><trkpt lat="44.56622609746106" lon="11.135056354880284"><ele>43.0</ele><time>2026-03-28T18:08:49Z</time></trkpt><trkpt lat="44.5663491100327" lon="11.134711845637295"><ele>43.0</ele><time>2026-03-28T18:08:50Z</time></trkpt><trkpt lat="44.56647473172835" lon="11.134354308268769"><ele>43.0</ele><time>2026-03-28T18:08:51Z</time></trkpt><trkpt lat="44.566600017507874" lon="11.133992937776322"><ele>43.0</ele><time>2026-03-28T18:08:52Z</time></trkpt><trkpt lat="44.56672587027718" lon="11.133633509259024"><ele>43.0</ele><time>2026-03-28T18:08:53Z</time></trkpt><trkpt lat="44.56684883937421" lon="11.133277128602993"><ele>44.0</ele><time>2026-03-28T18:08:54Z</time></trkpt><trkpt lat="44.566973628405535" lon="11.132905762676973"><ele>45.0</ele><time>2026-03-28T18:08:55Z</time></trkpt><trkpt lat="44.5671040178519" lon="11.132522987723569"><ele>45.5</ele><time>2026-03-28T18:08:56Z</time></trkpt><trkpt lat="44.56723143789122" lon="11.13215488137304"><ele>46.0</ele><time>2026-03-28T18:08:57Z</time></trkpt><trkpt lat="44.56734658282386" lon="11.13182111652561"><ele>45.0</ele><time>2026-03-28T18:08:58Z</time></trkpt><trkpt lat="44.56746883575284" lon="11.131521838797742"><ele>44.0</ele><time>2026-03-28T18:08:59Z</time></trkpt><trkpt lat="44.56757193782564" lon="11.13123027416091"><ele>44.0</ele><time>2026-03-28T18:09:00Z</time></trkpt><trkpt lat="44.56767130024954" lon="11.130949284780474"><ele>44.0</ele><time>2026-03-28T18:09:01Z</time></trkpt><trkpt lat="44.567772087597255" lon="11.13066604578961"><ele>44.0</ele><time>2026-03-28T18:09:02Z</time></trkpt><trkpt lat="44.56788401376892" lon="11.130361162251134"><ele>43.5</ele><time>2026-03-28T18:09:03Z</time></trkpt><trkpt lat="44.56800831210815" lon="11.130022577282716"><ele>43.0</ele><time>2026-03-28T18:09:04Z</time></trkpt><trkpt lat="44.56814471903542" lon="11.12965304180936"><ele>43.0</ele><time>2026-03-28T18:09:05Z</time></trkpt><trkpt lat="44.568283550134296" lon="11.129283377719553"><ele>43.0</ele><time>2026-03-28T18:09:06Z</time></trkpt><trkpt lat="44.56840252597508" lon="11.128939805213928"><ele>44.5</ele><time>2026-03-28T18:09:07Z</time></trkpt><trkpt lat="44.56852286563835" lon="11.128622438242536"><ele>46.0</ele><time>2026-03-28T18:09:08Z</time></trkpt><trkpt lat="44.568637073266586" lon="11.12831088663585"><ele>46.0</ele><time>2026-03-28T18:09:09Z</time></trkpt><trkpt lat="44.56874917201549" lon="11.128002850778095"><ele>46.0</ele><time>2026-03-28T18:09:10Z</time></trkpt><trkpt lat="44.568860442942444" lon="11.127691689858029"><ele>44.5</ele><time>2026-03-28T18:09:11Z</time></trkpt><trkpt lat="44.56896569396676" lon="11.127382259631608"><ele>43.0</ele><time>2026-03-28T18:09:12Z</time></trkpt><trkpt lat="44.569079669448406" lon="11.127060566640527"><ele>43.0</ele><time>2026-03-28T18:09:13Z</time></trkpt><trkpt lat="44.56918925412447" lon="11.126729319711126"><ele>43.0</ele><time>2026-03-28T18:09:14Z</time></trkpt><trkpt lat="44.56929913404626" lon="11.1263968259915"><ele>43.0</ele><time>2026-03-28T18:09:15Z</time></trkpt><trkpt lat="44.56940691442353" lon="11.126074942951275"><ele>43.0</ele><time>2026-03-28T18:09:16Z</time></trkpt><trkpt lat="44.56950773703992" lon="11.125777094003997"><ele>42.0</ele><time>2026-03-28T18:09:17Z</time></trkpt><trkpt lat="44.56960108121979" lon="11.125489783766605"><ele>41.0</ele><time>2026-03-28T18:09:18Z</time></trkpt><trkpt lat="44.56969310165881" lon="11.125206262716233"><ele>40.0</ele><time>2026-03-28T18:09:19Z</time></trkpt><trkpt lat="44.56978738621996" lon="11.124930782868203"><ele>41.0</ele><time>2026-03-28T18:09:20Z</time></trkpt><trkpt lat="44.569878860832624" lon="11.124655869120323"><ele>42.0</ele><time>2026-03-28T18:09:21Z</time></trkpt><trkpt lat="44.569973268465226" lon="11.124397613929542"><ele>43.0</ele><time>2026-03-28T18:09:22Z</time></trkpt><trkpt lat="44.57006999735681" lon="11.124152396561815"><ele>42.66666666666667</ele><time>2026-03-28T18:09:23Z</time></trkpt><trkpt lat="44.57015912332792" lon="11.123930460527156"><ele>42.333333333333336</ele><time>2026-03-28T18:09:24Z</time></trkpt><trkpt lat="44.570241892577656" lon="11.123704869816036"><ele>42.0</ele><time>2026-03-28T18:09:25Z</time></trkpt><trkpt lat="44.57035658126557" lon="11.123486065150786"><ele>41.333333333333336</ele><time>2026-03-28T18:09:26Z</time></trkpt><trkpt lat="44.57046201299726" lon="11.123251175267438"><ele>40.66666666666667</ele><time>2026-03-28T18:09:27Z</time></trkpt><trkpt lat="44.57052368662192" lon="11.12301602960278"><ele>40.0</ele><time>2026-03-28T18:09:28Z</time></trkpt><trkpt lat="44.57058454120824" lon="11.122812373639102"><ele>40.0</ele><time>2026-03-28T18:09:29Z</time></trkpt><trkpt lat="44.57064607854593" lon="11.122656461347432"><ele>40.0</ele><time>2026-03-28T18:09:30Z</time></trkpt><trkpt lat="44.570713082141005" lon="11.122536998273741"><ele>40.0</ele><time>2026-03-28T18:09:31Z</time></trkpt><trkpt lat="44.57079834945223" lon="11.122424925671218"><ele>40.0</ele><time>2026-03-28T18:09:32Z</time></trkpt><trkpt lat="44.570897322274845" lon="11.122359666324646"><ele>40.5</ele><time>2026-03-28T18:09:33Z</time></trkpt><trkpt lat="44.5709092124699" lon="11.12219356101241"><ele>41.0</ele><time>2026-03-28T18:09:34Z</time></trkpt><trkpt lat="44.57091212063384" lon="11.122026740545495"><ele>41.5</ele><time>2026-03-28T18:09:35Z</time></trkpt><trkpt lat="44.570935175879754" lon="11.121843620958145"><ele>42.0</ele><time>2026-03-28T18:09:36Z</time></trkpt><trkpt lat="44.57101294458155" lon="11.121651414832337"><ele>42.333333333333336</ele><time>2026-03-28T18:09:37Z</time></trkpt><trkpt lat="44.57112180498442" lon="11.12141682017653"><ele>42.66666666666667</ele><time>2026-03-28T18:09:38Z</time></trkpt><trkpt lat="44.57125225850697" lon="11.121157364527296"><ele>43.0</ele><time>2026-03-28T18:09:39Z</time></trkpt><trkpt lat="44.571339923649326" lon="11.120830353260223"><ele>43.5</ele><time>2026-03-28T18:09:40Z</time></trkpt><trkpt lat="44.57145533079022" lon="11.120505174028343"><ele>44.0</ele><time>2026-03-28T18:09:41Z</time></trkpt><trkpt lat="44.57157578419866" lon="11.120181723834593"><ele>44.0</ele><time>2026-03-28T18:09:42Z</time></trkpt><trkpt lat="44.571696658325806" lon="11.119844632159843"><ele>44.0</ele><time>2026-03-28T18:09:43Z</time></trkpt><trkpt lat="44.57181494410223" lon="11.119504316793508"><ele>44.0</ele><time>2026-03-28T18:09:44Z</time></trkpt><trkpt lat="44.57193429616108" lon="11.119166128475795"><ele>44.0</ele><time>2026-03-28T18:09:45Z</time></trkpt><trkpt lat="44.57205331123051" lon="11.118816634457895"><ele>44.0</ele><time>2026-03-28T18:09:46Z</time></trkpt><trkpt lat="44.57216614907285" lon="11.118468798862645"><ele>44.0</ele><time>2026-03-28T18:09:47Z</time></trkpt><trkpt lat="44.57228200983197" lon="11.118123771058583"><ele>43.0</ele><time>2026-03-28T18:09:48Z</time></trkpt><trkpt lat="44.57239897443595" lon="11.117776692869285"><ele>42.0</ele><time>2026-03-28T18:09:49Z</time></trkpt><trkpt lat="44.57251424035347" lon="11.117431646644304"><ele>41.0</ele><time>2026-03-28T18:09:50Z</time></trkpt><trkpt lat="44.57262915132924" lon="11.117096830351075"><ele>40.0</ele><time>2026-03-28T18:09:51Z</time></trkpt><trkpt lat="44.57274204385801" lon="11.116772167244806"><ele>43.5</ele><time>2026-03-28T18:09:52Z</time></trkpt><trkpt lat="44.57285851818959" lon="11.11646154862177"><ele>47.0</ele><time>2026-03-28T18:09:53Z</time></trkpt><trkpt lat="44.57297237655285" lon="11.116147165284541"><ele>47.0</ele><time>2026-03-28T18:09:54Z</time></trkpt><trkpt lat="44.57308643114309" lon="11.115837520164831"><ele>47.0</ele><time>2026-03-28T18:09:55Z</time></trkpt><trkpt lat="44.57319041641045" lon="11.115548822162161"><ele>46.0</ele><time>2026-03-28T18:09:56Z</time></trkpt><trkpt lat="44.573281694117476" lon="11.115282932332569"><ele>45.0</ele><time>2026-03-28T18:09:57Z</time></trkpt><trkpt lat="44.573366162340186" lon="11.11504284912745"><ele>44.0</ele><time>2026-03-28T18:09:58Z</time></trkpt><trkpt lat="44.57342666797313" lon="11.114882897935036"><ele>43.75</ele><time>2026-03-28T18:09:59Z</time></trkpt><trkpt lat="44.57347389837477" lon="11.11477638137991"><ele>43.5</ele><time>2026-03-28T18:10:00Z</time></trkpt><trkpt lat="44.57353359504415" lon="11.114639769695366"><ele>43.25</ele><time>2026-03-28T18:10:01Z</time></trkpt><trkpt lat="44.573605592587434" lon="11.114440533278799"><ele>43.0</ele><time>2026-03-28T18:10:02Z</time></trkpt><trkpt lat="44.57369355219105" lon="11.114201355562965"><ele>42.5</ele><time>2026-03-28T18:10:03Z</time></trkpt><trkpt lat="44.573794305922796" lon="11.113929560608115"><ele>42.0</ele><time>2026-03-28T18:10:04Z</time></trkpt><trkpt lat="44.573901385478415" lon="11.11363366955302"><ele>42.0</ele><time>2026-03-28T18:10:05Z</time></trkpt><trkpt lat="44.57400939629962" lon="11.113324694919418"><ele>42.0</ele><time>2026-03-28T18:10:06Z</time></trkpt><trkpt lat="44.5741151693184" lon="11.113014009737835"><ele>42.0</ele><time>2026-03-28T18:10:07Z</time></trkpt><trkpt lat="44.574224228199455" lon="11.1126975869713"><ele>42.0</ele><time>2026-03-28T18:10:08Z</time></trkpt><trkpt lat="44.5743389908744" lon="11.112356147815394"><ele>42.5</ele><time>2026-03-28T18:10:09Z</time></trkpt><trkpt lat="44.57445681391101" lon="11.11197442153722"><ele>43.0</ele><time>2026-03-28T18:10:10Z</time></trkpt><trkpt lat="44.57457438098912" lon="11.111571090026734"><ele>41.5</ele><time>2026-03-28T18:10:11Z</time></trkpt><trkpt lat="44.57469620753341" lon="11.111156358421423"><ele>40.0</ele><time>2026-03-28T18:10:12Z</time></trkpt><trkpt lat="44.57482300600683" lon="11.11073606520378"><ele>40.0</ele><time>2026-03-28T18:10:13Z</time></trkpt><trkpt lat="44.57494845145402" lon="11.110311732040058"><ele>40.0</ele><time>2026-03-28T18:10:14Z</time></trkpt><trkpt lat="44.575073162178114" lon="11.109893802133955"><ele>40.0</ele><time>2026-03-28T18:10:15Z</time></trkpt><trkpt lat="44.57519955302139" lon="11.109478781429775"><ele>40.0</ele><time>2026-03-28T18:10:16Z</time></trkpt><trkpt lat="44.57533365911038" lon="11.109064912046028"><ele>40.0</ele><time>2026-03-28T18:10:17Z</time></trkpt><trkpt lat="44.575478115465266" lon="11.10863775981558"><ele>40.0</ele><time>2026-03-28T18:10:18Z</time></trkpt><trkpt lat="44.57563100145191" lon="11.108214438113098"><ele>40.5</ele><time>2026-03-28T18:10:19Z</time></trkpt><trkpt lat="44.57579002810759" lon="11.107795192545613"><ele>41.0</ele><time>2026-03-28T18:10:20Z</time></trkpt><trkpt lat="44.57594544870376" lon="11.107385316809507"><ele>41.5</ele><time>2026-03-28T18:10:21Z</time></trkpt><trkpt lat="44.57609607149802" lon="11.106979974712234"><ele>42.0</ele><time>2026-03-28T18:10:22Z</time></trkpt><trkpt lat="44.57623469415111" lon="11.106567870221989"><ele>40.5</ele><time>2026-03-28T18:10:23Z</time></trkpt><trkpt lat="44.57637236012611" lon="11.106158155306948"><ele>39.0</ele><time>2026-03-28T18:10:24Z</time></trkpt><trkpt lat="44.576501475836274" lon="11.105767720684373"><ele>39.5</ele><time>2026-03-28T18:10:25Z</time></trkpt><trkpt lat="44.57662777004509" lon="11.105400779887423"><ele>40.0</ele><time>2026-03-28T18:10:26Z</time></trkpt><trkpt lat="44.57674531116331" lon="11.105046048502842"><ele>40.0</ele><time>2026-03-28T18:10:27Z</time></trkpt><trkpt lat="44.57685965974232" lon="11.104702887997188"><ele>40.0</ele><time>2026-03-28T18:10:28Z</time></trkpt><trkpt lat="44.576978228229144" lon="11.104353867335488"><ele>41.0</ele><time>2026-03-28T18:10:29Z</time></trkpt><trkpt lat="44.57709904270778" lon="11.103998688344536"><ele>42.0</ele><time>2026-03-28T18:10:30Z</time></trkpt><trkpt lat="44.57723966256703" lon="11.103637199561266"><ele>41.5</ele><time>2026-03-28T18:10:31Z</time></trkpt><trkpt lat="44.57737515515731" lon="11.103239847225959"><ele>41.0</ele><time>2026-03-28T18:10:32Z</time></trkpt><trkpt lat="44.57750883659643" lon="11.102847913165471"><ele>41.0</ele><time>2026-03-28T18:10:33Z</time></trkpt><trkpt lat="44.577638297039464" lon="11.102468672840594"><ele>41.0</ele><time>2026-03-28T18:10:34Z</time></trkpt><trkpt lat="44.57775582446938" lon="11.10208689452846"><ele>40.5</ele><time>2026-03-28T18:10:35Z</time></trkpt><trkpt lat="44.577882335956375" lon="11.101717986263086"><ele>40.0</ele><time>2026-03-28T18:10:36Z</time></trkpt><trkpt lat="44.578007905027164" lon="11.101348612221134"><ele>40.0</ele><time>2026-03-28T18:10:37Z</time></trkpt><trkpt lat="44.57813113754189" lon="11.100978092776138"><ele>40.0</ele><time>2026-03-28T18:10:38Z</time></trkpt><trkpt lat="44.578265481463895" lon="11.100578486506198"><ele>41.0</ele><time>2026-03-28T18:10:39Z</time></trkpt><trkpt lat="44.57840749069801" lon="11.100147084794648"><ele>42.0</ele><time>2026-03-28T18:10:40Z</time></trkpt><trkpt lat="44.578550559301156" lon="11.09970236960003"><ele>40.5</ele><time>2026-03-28T18:10:41Z</time></trkpt><trkpt lat="44.578733580421385" lon="11.099292245348696"><ele>39.0</ele><time>2026-03-28T18:10:42Z</time></trkpt><trkpt lat="44.5788776580957" lon="11.098876001527689"><ele>39.0</ele><time>2026-03-28T18:10:43Z</time></trkpt><trkpt lat="44.578998813654955" lon="11.098472770704404"><ele>39.0</ele><time>2026-03-28T18:10:44Z</time></trkpt><trkpt lat="44.5791430415983" lon="11.098109302215557"><ele>40.0</ele><time>2026-03-28T18:10:45Z</time></trkpt><trkpt lat="44.57926924708634" lon="11.09774469173643"><ele>41.0</ele><time>2026-03-28T18:10:46Z</time></trkpt><trkpt lat="44.579396454487906" lon="11.097377862193895"><ele>39.5</ele><time>2026-03-28T18:10:47Z</time></trkpt><trkpt lat="44.57952518161032" lon="11.097008293514715"><ele>38.0</ele><time>2026-03-28T18:10:48Z</time></trkpt><trkpt lat="44.57965105432372" lon="11.09664691977304"><ele>39.0</ele><time>2026-03-28T18:10:49Z</time></trkpt><trkpt lat="44.579771729665914" lon="11.096300467403879"><ele>40.0</ele><time>2026-03-28T18:10:50Z</time></trkpt><trkpt lat="44.57989080456926" lon="11.09596025975588"><ele>40.0</ele><time>2026-03-28T18:10:51Z</time></trkpt><trkpt lat="44.58000544607921" lon="11.09563336484721"><ele>40.0</ele><time>2026-03-28T18:10:52Z</time></trkpt><trkpt lat="44.58010513362837" lon="11.095349110377365"><ele>40.0</ele><time>2026-03-28T18:10:53Z</time></trkpt><trkpt lat="44.58018905785454" lon="11.095109803862357"><ele>40.0</ele><time>2026-03-28T18:10:54Z</time></trkpt><trkpt lat="44.58026951521281" lon="11.094881780346775"><ele>40.0</ele><time>2026-03-28T18:10:55Z</time></trkpt><trkpt lat="44.580344996976635" lon="11.094667695661968"><ele>40.0</ele><time>2026-03-28T18:10:56Z</time></trkpt><trkpt lat="44.58040889384611" lon="11.094486468903108"><ele>40.0</ele><time>2026-03-28T18:10:57Z</time></trkpt><trkpt lat="44.58045248770372" lon="11.09436282636821"><ele>40.0</ele><time>2026-03-28T18:10:58Z</time></trkpt><trkpt lat="44.580487311633945" lon="11.094264450847309"><ele>40.0</ele><time>2026-03-28T18:10:59Z</time></trkpt><trkpt lat="44.58052852358801" lon="11.094145625756124"><ele>40.0</ele><time>2026-03-28T18:11:07Z</time></trkpt><trkpt lat="44.58061485633693" lon="11.093905576212316"><ele>40.0</ele><time>2026-03-28T18:11:09Z</time></trkpt><trkpt lat="44.58069161378079" lon="11.093683575914191"><ele>40.0</ele><time>2026-03-28T18:11:10Z</time></trkpt><trkpt lat="44.580795871250956" lon="11.093406802319285"><ele>40.0</ele><time>2026-03-28T18:11:11Z</time></trkpt><trkpt lat="44.580898825328156" lon="11.093107483728701"><ele>40.0</ele><time>2026-03-28T18:11:12Z</time></trkpt><trkpt lat="44.58101744325802" lon="11.092755970098239"><ele>40.0</ele><time>2026-03-28T18:11:13Z</time></trkpt><trkpt lat="44.58115067425128" lon="11.092372699806065"><ele>39.5</ele><time>2026-03-28T18:11:14Z</time></trkpt><trkpt lat="44.58128630443736" lon="11.091973001044158"><ele>39.0</ele><time>2026-03-28T18:11:15Z</time></trkpt><trkpt lat="44.58142308747592" lon="11.091558399341247"><ele>39.0</ele><time>2026-03-28T18:11:16Z</time></trkpt><trkpt lat="44.58155973938762" lon="11.091150595702503"><ele>39.0</ele><time>2026-03-28T18:11:17Z</time></trkpt><trkpt lat="44.5817009834956" lon="11.090734837562172"><ele>39.0</ele><time>2026-03-28T18:11:18Z</time></trkpt><trkpt lat="44.58184388471974" lon="11.090321849961429"><ele>39.0</ele><time>2026-03-28T18:11:19Z</time></trkpt><trkpt lat="44.581984165788064" lon="11.089919650941379"><ele>38.0</ele><time>2026-03-28T18:11:20Z</time></trkpt><trkpt lat="44.58211831282726" lon="11.089528254088972"><ele>37.0</ele><time>2026-03-28T18:11:21Z</time></trkpt><trkpt lat="44.58224739402032" lon="11.089143201822365"><ele>36.5</ele><time>2026-03-28T18:11:22Z</time></trkpt><trkpt lat="44.582377334336854" lon="11.088766095501713"><ele>36.0</ele><time>2026-03-28T18:11:23Z</time></trkpt><trkpt lat="44.58250679562428" lon="11.088397272203476"><ele>37.0</ele><time>2026-03-28T18:11:24Z</time></trkpt><trkpt lat="44.58263281802061" lon="11.088043030447118"><ele>38.0</ele><time>2026-03-28T18:11:25Z</time></trkpt><trkpt lat="44.58275165645967" lon="11.087704421800236"><ele>39.0</ele><time>2026-03-28T18:11:26Z</time></trkpt><trkpt lat="44.582870569740315" lon="11.087372830535696"><ele>40.0</ele><time>2026-03-28T18:11:27Z</time></trkpt><trkpt lat="44.58298667637109" lon="11.087040244056292"><ele>40.0</ele><time>2026-03-28T18:11:28Z</time></trkpt><trkpt lat="44.58310648803737" lon="11.08670904485723"><ele>40.0</ele><time>2026-03-28T18:11:29Z</time></trkpt><trkpt lat="44.58322600335426" lon="11.086376899341332"><ele>39.5</ele><time>2026-03-28T18:11:30Z</time></trkpt><trkpt lat="44.58334412111969" lon="11.086045651166108"><ele>39.0</ele><time>2026-03-28T18:11:31Z</time></trkpt><trkpt lat="44.5834632975847" lon="11.085707157782998"><ele>38.5</ele><time>2026-03-28T18:11:32Z</time></trkpt><trkpt lat="44.58358072226595" lon="11.085374052949941"><ele>38.0</ele><time>2026-03-28T18:11:33Z</time></trkpt><trkpt lat="44.583699421608685" lon="11.085037378485179"><ele>38.0</ele><time>2026-03-28T18:11:34Z</time></trkpt><trkpt lat="44.583818292185" lon="11.084702694315144"><ele>38.0</ele><time>2026-03-28T18:11:35Z</time></trkpt><trkpt lat="44.58393567987058" lon="11.084367741602115"><ele>38.5</ele><time>2026-03-28T18:11:36Z</time></trkpt><trkpt lat="44.58404952749255" lon="11.08403114557706"><ele>39.0</ele><time>2026-03-28T18:11:37Z</time></trkpt><trkpt lat="44.58416464698002" lon="11.083695888169071"><ele>39.0</ele><time>2026-03-28T18:11:38Z</time></trkpt><trkpt lat="44.58427801226569" lon="11.083365913609159"><ele>39.0</ele><time>2026-03-28T18:11:39Z</time></trkpt><trkpt lat="44.58440397512492" lon="11.083060692720952"><ele>39.0</ele><time>2026-03-28T18:11:40Z</time></trkpt><trkpt lat="44.58450613494786" lon="11.082769090806018"><ele>39.0</ele><time>2026-03-28T18:11:41Z</time></trkpt><trkpt lat="44.584601793579374" lon="11.082497596989679"><ele>39.0</ele><time>2026-03-28T18:11:42Z</time></trkpt><trkpt lat="44.58468497983896" lon="11.082212484711079"><ele>39.0</ele><time>2026-03-28T18:11:43Z</time></trkpt><trkpt lat="44.58478284848295" lon="11.081932395895455"><ele>39.0</ele><time>2026-03-28T18:11:44Z</time></trkpt><trkpt lat="44.58488290984166" lon="11.081654814595437"><ele>39.0</ele><time>2026-03-28T18:11:45Z</time></trkpt><trkpt lat="44.58498156715164" lon="11.08137472046299"><ele>39.0</ele><time>2026-03-28T18:11:46Z</time></trkpt><trkpt lat="44.58507627317425" lon="11.081101710791682"><ele>39.0</ele><time>2026-03-28T18:11:47Z</time></trkpt><trkpt lat="44.58517377444432" lon="11.080823277694929"><ele>39.0</ele><time>2026-03-28T18:11:48Z</time></trkpt><trkpt lat="44.58527150905489" lon="11.08054922263119"><ele>38.666666666666664</ele><time>2026-03-28T18:11:49Z</time></trkpt><trkpt lat="44.58536830573657" lon="11.080282565460298"><ele>38.33333333333333</ele><time>2026-03-28T18:11:50Z</time></trkpt><trkpt lat="44.58546168015494" lon="11.080016471873872"><ele>38.0</ele><time>2026-03-28T18:11:51Z</time></trkpt><trkpt lat="44.58554857118683" lon="11.079768475791655"><ele>38.0</ele><time>2026-03-28T18:11:52Z</time></trkpt><trkpt lat="44.585628632443836" lon="11.079533052876531"><ele>38.0</ele><time>2026-03-28T18:11:53Z</time></trkpt><trkpt lat="44.58570523426261" lon="11.0793207120654"><ele>38.0</ele><time>2026-03-28T18:11:54Z</time></trkpt><trkpt lat="44.58577699936957" lon="11.07911767217257"><ele>38.4</ele><time>2026-03-28T18:11:55Z</time></trkpt><trkpt lat="44.58584156931871" lon="11.078929664794732"><ele>38.8</ele><time>2026-03-28T18:11:56Z</time></trkpt><trkpt lat="44.58589347997979" lon="11.078775270352526"><ele>39.2</ele><time>2026-03-28T18:11:57Z</time></trkpt><trkpt lat="44.585919648139175" lon="11.078655858717283"><ele>39.6</ele><time>2026-03-28T18:11:58Z</time></trkpt><trkpt lat="44.58593727418531" lon="11.078544071811116"><ele>40.0</ele><time>2026-03-28T18:11:59Z</time></trkpt><trkpt lat="44.58592885521495" lon="11.07844213274233"><ele>40.0</ele><time>2026-03-28T18:12:00Z</time></trkpt><trkpt lat="44.585878202048264" lon="11.078362557366752"><ele>40.0</ele><time>2026-03-28T18:12:01Z</time></trkpt><trkpt lat="44.585813856999906" lon="11.078316774309602"><ele>40.0</ele><time>2026-03-28T18:12:02Z</time></trkpt><trkpt lat="44.58575057411087" lon="11.078333918624743"><ele>40.0</ele><time>2026-03-28T18:12:03Z</time></trkpt><trkpt lat="44.585693554752915" lon="11.07840194401981"><ele>40.0</ele><time>2026-03-28T18:12:04Z</time></trkpt><trkpt lat="44.585631542918456" lon="11.078512730569825"><ele>40.0</ele><time>2026-03-28T18:12:05Z</time></trkpt><trkpt lat="44.58554868650709" lon="11.078639868327167"><ele>40.0</ele><time>2026-03-28T18:12:06Z</time></trkpt><trkpt lat="44.58544332677563" lon="11.078745603522385"><ele>40.0</ele><time>2026-03-28T18:12:07Z</time></trkpt><trkpt lat="44.585319165580785" lon="11.078831842173079"><ele>40.0</ele><time>2026-03-28T18:12:08Z</time></trkpt><trkpt lat="44.58517991123343" lon="11.078883780930013"><ele>40.0</ele><time>2026-03-28T18:12:09Z</time></trkpt><trkpt lat="44.58503148274776" lon="11.078915923944942"><ele>39.75</ele><time>2026-03-28T18:12:10Z</time></trkpt><trkpt lat="44.584882506890665" lon="11.07893917752588"><ele>39.5</ele><time>2026-03-28T18:12:11Z</time></trkpt><trkpt lat="44.58473413424063" lon="11.078933732603854"><ele>39.25</ele><time>2026-03-28T18:12:12Z</time></trkpt><trkpt lat="44.584593506548686" lon="11.078898959574689"><ele>39.0</ele><time>2026-03-28T18:12:13Z</time></trkpt><trkpt lat="44.58445663968678" lon="11.078832831267988"><ele>39.0</ele><time>2026-03-28T18:12:14Z</time></trkpt><trkpt lat="44.5843175557147" lon="11.07873849603996"><ele>39.0</ele><time>2026-03-28T18:12:15Z</time></trkpt><trkpt lat="44.58418285513747" lon="11.078604461995102"><ele>39.0</ele><time>2026-03-28T18:12:16Z</time></trkpt><trkpt lat="44.584056383245056" lon="11.078430272191994"><ele>38.333333333333336</ele><time>2026-03-28T18:12:17Z</time></trkpt><trkpt lat="44.58394178629911" lon="11.078210762138616"><ele>37.66666666666667</ele><time>2026-03-28T18:12:18Z</time></trkpt><trkpt lat="44.583841866043244" lon="11.07795473360657"><ele>37.0</ele><time>2026-03-28T18:12:19Z</time></trkpt><trkpt lat="44.58373447335747" lon="11.07766119404493"><ele>37.0</ele><time>2026-03-28T18:12:20Z</time></trkpt><trkpt lat="44.58361247757279" lon="11.07733490069377"><ele>37.0</ele><time>2026-03-28T18:12:21Z</time></trkpt><trkpt lat="44.58347236215873" lon="11.076957735450248"><ele>37.5</ele><time>2026-03-28T18:12:22Z</time></trkpt><trkpt lat="44.58332297251637" lon="11.076551169161416"><ele>38.0</ele><time>2026-03-28T18:12:23Z</time></trkpt><trkpt lat="44.58316801127437" lon="11.076129979742923"><ele>38.0</ele><time>2026-03-28T18:12:24Z</time></trkpt><trkpt lat="44.58301118320809" lon="11.075687103849718"><ele>38.0</ele><time>2026-03-28T18:12:25Z</time></trkpt><trkpt lat="44.582857107429795" lon="11.075234264034028"><ele>38.5</ele><time>2026-03-28T18:12:26Z</time></trkpt><trkpt lat="44.58269993440572" lon="11.074785704926597"><ele>39.0</ele><time>2026-03-28T18:12:27Z</time></trkpt><trkpt lat="44.58253935774626" lon="11.074337998283703"><ele>38.5</ele><time>2026-03-28T18:12:28Z</time></trkpt><trkpt lat="44.58237899690466" lon="11.073889833996343"><ele>38.0</ele><time>2026-03-28T18:12:29Z</time></trkpt><trkpt lat="44.582226265587614" lon="11.073450501393024"><ele>39.0</ele><time>2026-03-28T18:12:30Z</time></trkpt><trkpt lat="44.58207672457077" lon="11.073020244881494"><ele>40.0</ele><time>2026-03-28T18:12:31Z</time></trkpt><trkpt lat="44.58192909131217" lon="11.072602453480373"><ele>39.0</ele><time>2026-03-28T18:12:32Z</time></trkpt><trkpt lat="44.58178760070625" lon="11.072205641365239"><ele>38.0</ele><time>2026-03-28T18:12:33Z</time></trkpt><trkpt lat="44.581656199152114" lon="11.071839666003354"><ele>38.0</ele><time>2026-03-28T18:12:34Z</time></trkpt><trkpt lat="44.58153297053201" lon="11.071497073909722"><ele>38.0</ele><time>2026-03-28T18:12:35Z</time></trkpt><trkpt lat="44.581409677783554" lon="11.071130197276155"><ele>38.0</ele><time>2026-03-28T18:12:36Z</time></trkpt><trkpt lat="44.58128823452867" lon="11.070735533588568"><ele>38.0</ele><time>2026-03-28T18:12:37Z</time></trkpt><trkpt lat="44.5811707241468" lon="11.070314533054521"><ele>38.5</ele><time>2026-03-28T18:12:38Z</time></trkpt><trkpt lat="44.58106117732897" lon="11.069886036501538"><ele>39.0</ele><time>2026-03-28T18:12:39Z</time></trkpt><trkpt lat="44.580964854432786" lon="11.06945375799282"><ele>39.0</ele><time>2026-03-28T18:12:40Z</time></trkpt><trkpt lat="44.58088381838441" lon="11.069026352599902"><ele>39.0</ele><time>2026-03-28T18:12:41Z</time></trkpt><trkpt lat="44.58081121684514" lon="11.06858507827646"><ele>39.0</ele><time>2026-03-28T18:12:42Z</time></trkpt><trkpt lat="44.580744091278625" lon="11.06812930813167"><ele>39.0</ele><time>2026-03-28T18:12:43Z</time></trkpt><trkpt lat="44.58069199694749" lon="11.06765714245118"><ele>40.5</ele><time>2026-03-28T18:12:44Z</time></trkpt><trkpt lat="44.58065020788522" lon="11.067183295205082"><ele>42.0</ele><time>2026-03-28T18:12:45Z</time></trkpt><trkpt lat="44.580619208423855" lon="11.066713946998853"><ele>41.0</ele><time>2026-03-28T18:12:46Z</time></trkpt><trkpt lat="44.58060041731982" lon="11.066270140284892"><ele>40.0</ele><time>2026-03-28T18:12:47Z</time></trkpt><trkpt lat="44.580595105358235" lon="11.065858568026949"><ele>39.5</ele><time>2026-03-28T18:12:48Z</time></trkpt><trkpt lat="44.58059654260941" lon="11.06546194505112"><ele>39.0</ele><time>2026-03-28T18:12:49Z</time></trkpt><trkpt lat="44.580600861918214" lon="11.065040526082452"><ele>39.5</ele><time>2026-03-28T18:12:50Z</time></trkpt><trkpt lat="44.58062265264433" lon="11.064586279404368"><ele>40.0</ele><time>2026-03-28T18:12:51Z</time></trkpt><trkpt lat="44.580634353451465" lon="11.064121820412149"><ele>40.0</ele><time>2026-03-28T18:12:52Z</time></trkpt><trkpt lat="44.58064792868789" lon="11.0636576605506"><ele>40.0</ele><time>2026-03-28T18:12:53Z</time></trkpt><trkpt lat="44.58066807174713" lon="11.06319058526966"><ele>40.0</ele><time>2026-03-28T18:12:54Z</time></trkpt><trkpt lat="44.580678442659405" lon="11.062725939792585"><ele>40.0</ele><time>2026-03-28T18:12:55Z</time></trkpt><trkpt lat="44.58071476590057" lon="11.062269473399162"><ele>40.0</ele><time>2026-03-28T18:12:56Z</time></trkpt><trkpt lat="44.58074512752628" lon="11.061837967587294"><ele>40.0</ele><time>2026-03-28T18:12:57Z</time></trkpt><trkpt lat="44.58079572906565" lon="11.061444551558703"><ele>40.0</ele><time>2026-03-28T18:12:58Z</time></trkpt><trkpt lat="44.58083032201928" lon="11.0610795108456"><ele>40.0</ele><time>2026-03-28T18:12:59Z</time></trkpt><trkpt lat="44.5808695548387" lon="11.060735754634354"><ele>40.5</ele><time>2026-03-28T18:13:00Z</time></trkpt><trkpt lat="44.580912761456155" lon="11.060396300789392"><ele>41.0</ele><time>2026-03-28T18:13:01Z</time></trkpt><trkpt lat="44.58096292786163" lon="11.06002044191857"><ele>41.0</ele><time>2026-03-28T18:13:02Z</time></trkpt><trkpt lat="44.581020281054165" lon="11.059622269087209"><ele>41.0</ele><time>2026-03-28T18:13:03Z</time></trkpt><trkpt lat="44.58108353213848" lon="11.059219867673958"><ele>40.5</ele><time>2026-03-28T18:13:04Z</time></trkpt><trkpt lat="44.58115338782917" lon="11.058817724618814"><ele>40.0</ele><time>2026-03-28T18:13:05Z</time></trkpt><trkpt lat="44.581228857670745" lon="11.058412033226803"><ele>39.5</ele><time>2026-03-28T18:13:06Z</time></trkpt><trkpt lat="44.58130956009546" lon="11.05800434075479"><ele>39.0</ele><time>2026-03-28T18:13:07Z</time></trkpt><trkpt lat="44.581393523246994" lon="11.057602026944496"><ele>39.5</ele><time>2026-03-28T18:13:08Z</time></trkpt><trkpt lat="44.581478127296705" lon="11.057212621270446"><ele>40.0</ele><time>2026-03-28T18:13:09Z</time></trkpt><trkpt lat="44.58156730890694" lon="11.056823024520826"><ele>40.5</ele><time>2026-03-28T18:13:10Z</time></trkpt><trkpt lat="44.58166676244134" lon="11.056422427865275"><ele>41.0</ele><time>2026-03-28T18:13:11Z</time></trkpt><trkpt lat="44.58177686399904" lon="11.055996738874745"><ele>41.0</ele><time>2026-03-28T18:13:12Z</time></trkpt><trkpt lat="44.58188544636415" lon="11.055561781014134"><ele>41.0</ele><time>2026-03-28T18:13:13Z</time></trkpt><trkpt lat="44.58200452163841" lon="11.055124103730858"><ele>40.0</ele><time>2026-03-28T18:13:14Z</time></trkpt><trkpt lat="44.58212393674875" lon="11.054672757919208"><ele>39.0</ele><time>2026-03-28T18:13:15Z</time></trkpt><trkpt lat="44.582243039104725" lon="11.054213667419573"><ele>40.5</ele><time>2026-03-28T18:13:16Z</time></trkpt><trkpt lat="44.58235903940481" lon="11.053753300418707"><ele>42.0</ele><time>2026-03-28T18:13:17Z</time></trkpt><trkpt lat="44.582467264266626" lon="11.053293802707257"><ele>43.0</ele><time>2026-03-28T18:13:18Z</time></trkpt><trkpt lat="44.582579262325055" lon="11.052844587566135"><ele>44.0</ele><time>2026-03-28T18:13:19Z</time></trkpt><trkpt lat="44.582696270678845" lon="11.052406947319755"><ele>44.0</ele><time>2026-03-28T18:13:20Z</time></trkpt><trkpt lat="44.582805379868894" lon="11.051997956128659"><ele>44.0</ele><time>2026-03-28T18:13:21Z</time></trkpt><trkpt lat="44.582903614225856" lon="11.051617425595195"><ele>43.5</ele><time>2026-03-28T18:13:22Z</time></trkpt><trkpt lat="44.58299988344433" lon="11.051249833318627"><ele>43.0</ele><time>2026-03-28T18:13:23Z</time></trkpt><trkpt lat="44.583091213484785" lon="11.050876118117499"><ele>43.0</ele><time>2026-03-28T18:13:24Z</time></trkpt><trkpt lat="44.583184228479546" lon="11.050499571936278"><ele>43.0</ele><time>2026-03-28T18:13:25Z</time></trkpt><trkpt lat="44.583278003992525" lon="11.050131240342589"><ele>43.0</ele><time>2026-03-28T18:13:26Z</time></trkpt><trkpt lat="44.58336998318666" lon="11.04976632887183"><ele>43.0</ele><time>2026-03-28T18:13:27Z</time></trkpt><trkpt lat="44.58346899076705" lon="11.049368919589503"><ele>42.5</ele><time>2026-03-28T18:13:28Z</time></trkpt><trkpt lat="44.58356892628725" lon="11.048971884737512"><ele>42.0</ele><time>2026-03-28T18:13:29Z</time></trkpt><trkpt lat="44.583673217288265" lon="11.048573355225525"><ele>41.0</ele><time>2026-03-28T18:13:30Z</time></trkpt><trkpt lat="44.58377639668308" lon="11.048176288701956"><ele>40.0</ele><time>2026-03-28T18:13:31Z</time></trkpt><trkpt lat="44.58387563194917" lon="11.047792304296095"><ele>41.0</ele><time>2026-03-28T18:13:32Z</time></trkpt><trkpt lat="44.583967501006015" lon="11.047432500040811"><ele>42.0</ele><time>2026-03-28T18:13:33Z</time></trkpt><trkpt lat="44.58404956889836" lon="11.047119380922357"><ele>42.0</ele><time>2026-03-28T18:13:34Z</time></trkpt><trkpt lat="44.5841455237607" lon="11.046827382101567"><ele>42.0</ele><time>2026-03-28T18:13:35Z</time></trkpt><trkpt lat="44.58420801311297" lon="11.04653949169812"><ele>42.0</ele><time>2026-03-28T18:13:36Z</time></trkpt><trkpt lat="44.584289451259984" lon="11.046255578278418"><ele>42.0</ele><time>2026-03-28T18:13:37Z</time></trkpt><trkpt lat="44.58436698022505" lon="11.045983777835755"><ele>42.0</ele><time>2026-03-28T18:13:38Z</time></trkpt><trkpt lat="44.584462878945004" lon="11.04573204608675"><ele>42.0</ele><time>2026-03-28T18:13:39Z</time></trkpt><trkpt lat="44.58452723197491" lon="11.045473614418324"><ele>42.0</ele><time>2026-03-28T18:13:40Z</time></trkpt><trkpt lat="44.584611518055745" lon="11.045224458383142"><ele>42.0</ele><time>2026-03-28T18:13:41Z</time></trkpt><trkpt lat="44.5846949427258" lon="11.04497575662233"><ele>42.0</ele><time>2026-03-28T18:13:42Z</time></trkpt><trkpt lat="44.584783024337554" lon="11.044716787210305"><ele>41.0</ele><time>2026-03-28T18:13:43Z</time></trkpt><trkpt lat="44.584872536208216" lon="11.04445469114806"><ele>40.0</ele><time>2026-03-28T18:13:44Z</time></trkpt><trkpt lat="44.584987301479266" lon="11.044172935992693"><ele>39.0</ele><time>2026-03-28T18:13:45Z</time></trkpt><trkpt lat="44.58509140539391" lon="11.043833771547558"><ele>39.0</ele><time>2026-03-28T18:13:46Z</time></trkpt><trkpt lat="44.585227440635435" lon="11.043488189732422"><ele>39.0</ele><time>2026-03-28T18:13:47Z</time></trkpt><trkpt lat="44.58537674576695" lon="11.043117344116"><ele>38.5</ele><time>2026-03-28T18:13:48Z</time></trkpt><trkpt lat="44.58552084082766" lon="11.042721307156858"><ele>38.0</ele><time>2026-03-28T18:13:49Z</time></trkpt><trkpt lat="44.585673046824596" lon="11.042290942748377"><ele>39.5</ele><time>2026-03-28T18:13:50Z</time></trkpt><trkpt lat="44.585835596455766" lon="11.041841367665436"><ele>41.0</ele><time>2026-03-28T18:13:51Z</time></trkpt><trkpt lat="44.586002311479994" lon="11.041386338242114"><ele>40.0</ele><time>2026-03-28T18:13:52Z</time></trkpt><trkpt lat="44.586168064905074" lon="11.040929397529693"><ele>39.0</ele><time>2026-03-28T18:13:53Z</time></trkpt><trkpt lat="44.58633017823636" lon="11.04047878692113"><ele>39.0</ele><time>2026-03-28T18:13:54Z</time></trkpt><trkpt lat="44.58649372540999" lon="11.040020278244652"><ele>39.0</ele><time>2026-03-28T18:13:55Z</time></trkpt><trkpt lat="44.58665382634358" lon="11.039574928357693"><ele>39.0</ele><time>2026-03-28T18:13:56Z</time></trkpt><trkpt lat="44.58681500926706" lon="11.039142458652027"><ele>39.0</ele><time>2026-03-28T18:13:57Z</time></trkpt><trkpt lat="44.58696550231554" lon="11.038730138132134"><ele>40.5</ele><time>2026-03-28T18:13:58Z</time></trkpt><trkpt lat="44.587111086808875" lon="11.038338153300632"><ele>42.0</ele><time>2026-03-28T18:13:59Z</time></trkpt><trkpt lat="44.58726904677037" lon="11.037945018129077"><ele>42.0</ele><time>2026-03-28T18:14:00Z</time></trkpt><trkpt lat="44.58744102495908" lon="11.03755603319344"><ele>42.0</ele><time>2026-03-28T18:14:01Z</time></trkpt><trkpt lat="44.58762686323907" lon="11.037178794194057"><ele>42.0</ele><time>2026-03-28T18:14:02Z</time></trkpt><trkpt lat="44.58782845513118" lon="11.036818257478464"><ele>42.0</ele><time>2026-03-28T18:14:03Z</time></trkpt><trkpt lat="44.58803051166139" lon="11.036486410379224"><ele>42.0</ele><time>2026-03-28T18:14:04Z</time></trkpt><trkpt lat="44.58823513186532" lon="11.036197287420366"><ele>42.0</ele><time>2026-03-28T18:14:05Z</time></trkpt><trkpt lat="44.58843207143386" lon="11.035926020746885"><ele>42.0</ele><time>2026-03-28T18:14:06Z</time></trkpt><trkpt lat="44.58862660989301" lon="11.035684705350638"><ele>42.0</ele><time>2026-03-28T18:14:07Z</time></trkpt><trkpt lat="44.588802986384714" lon="11.035476489715931"><ele>42.0</ele><time>2026-03-28T18:14:08Z</time></trkpt><trkpt lat="44.58895836928461" lon="11.035304778288682"><ele>42.0</ele><time>2026-03-28T18:14:09Z</time></trkpt><trkpt lat="44.58914436102398" lon="11.035110758812182"><ele>42.0</ele><time>2026-03-28T18:14:10Z</time></trkpt><trkpt lat="44.58935953657204" lon="11.03490479689029"><ele>41.5</ele><time>2026-03-28T18:14:11Z</time></trkpt><trkpt lat="44.58960311292546" lon="11.034676062345644"><ele>41.0</ele><time>2026-03-28T18:14:12Z</time></trkpt><trkpt lat="44.58987699730111" lon="11.034468597915012"><ele>41.0</ele><time>2026-03-28T18:14:13Z</time></trkpt><trkpt lat="44.590173013897754" lon="11.034263786039551"><ele>41.0</ele><time>2026-03-28T18:14:14Z</time></trkpt><trkpt lat="44.590483756189016" lon="11.034062078296223"><ele>42.0</ele><time>2026-03-28T18:14:15Z</time></trkpt><trkpt lat="44.59080816183806" lon="11.033856070554807"><ele>43.0</ele><time>2026-03-28T18:14:16Z</time></trkpt><trkpt lat="44.59113665674483" lon="11.033652527153968"><ele>43.0</ele><time>2026-03-28T18:14:17Z</time></trkpt><trkpt lat="44.591458089021394" lon="11.033454765870225"><ele>43.0</ele><time>2026-03-28T18:14:18Z</time></trkpt><trkpt lat="44.59177164000481" lon="11.033271364823557"><ele>41.0</ele><time>2026-03-28T18:14:19Z</time></trkpt><trkpt lat="44.5920785050896" lon="11.033080832936017"><ele>39.0</ele><time>2026-03-28T18:14:20Z</time></trkpt><trkpt lat="44.59237795382537" lon="11.032889563961652"><ele>39.0</ele><time>2026-03-28T18:14:21Z</time></trkpt><trkpt lat="44.59265494797653" lon="11.032711120205894"><ele>39.0</ele><time>2026-03-28T18:14:22Z</time></trkpt><trkpt lat="44.592910585353756" lon="11.032541477455203"><ele>39.0</ele><time>2026-03-28T18:14:23Z</time></trkpt><trkpt lat="44.59316158267246" lon="11.032385350665166"><ele>39.0</ele><time>2026-03-28T18:14:24Z</time></trkpt><trkpt lat="44.59340606654638" lon="11.032253350829407"><ele>38.5</ele><time>2026-03-28T18:14:25Z</time></trkpt><trkpt lat="44.5936788534082" lon="11.032082816702443"><ele>38.0</ele><time>2026-03-28T18:14:26Z</time></trkpt><trkpt lat="44.59397250008516" lon="11.031899242045533"><ele>38.0</ele><time>2026-03-28T18:14:27Z</time></trkpt><trkpt lat="44.59428673336877" lon="11.031703548229414"><ele>38.0</ele><time>2026-03-28T18:14:28Z</time></trkpt><trkpt lat="44.59460648059235" lon="11.03148226321967"><ele>38.0</ele><time>2026-03-28T18:14:29Z</time></trkpt><trkpt lat="44.59493734098392" lon="11.031291876513144"><ele>38.0</ele><time>2026-03-28T18:14:30Z</time></trkpt><trkpt lat="44.59525221973165" lon="11.031094371615058"><ele>38.0</ele><time>2026-03-28T18:14:31Z</time></trkpt><trkpt lat="44.595541110673246" lon="11.030905017772048"><ele>38.0</ele><time>2026-03-28T18:14:32Z</time></trkpt><trkpt lat="44.59582169761383" lon="11.030722834664301"><ele>39.0</ele><time>2026-03-28T18:14:33Z</time></trkpt><trkpt lat="44.59609790412798" lon="11.030550529432444"><ele>40.0</ele><time>2026-03-28T18:14:34Z</time></trkpt><trkpt lat="44.596380518286985" lon="11.030382744658334"><ele>40.0</ele><time>2026-03-28T18:14:35Z</time></trkpt><trkpt lat="44.59667498470616" lon="11.030243282205937"><ele>40.0</ele><time>2026-03-28T18:14:36Z</time></trkpt><trkpt lat="44.596978704206734" lon="11.030064228291494"><ele>38.5</ele><time>2026-03-28T18:14:37Z</time></trkpt><trkpt lat="44.597297836969126" lon="11.029911782099832"><ele>37.0</ele><time>2026-03-28T18:14:38Z</time></trkpt><trkpt lat="44.5976074556936" lon="11.029761787835096"><ele>38.0</ele><time>2026-03-28T18:14:39Z</time></trkpt><trkpt lat="44.59793475111278" lon="11.029648911912117"><ele>39.0</ele><time>2026-03-28T18:14:40Z</time></trkpt><trkpt lat="44.598276367946525" lon="11.029522039501167"><ele>39.0</ele><time>2026-03-28T18:14:41Z</time></trkpt><trkpt lat="44.59861701902736" lon="11.029370372370092"><ele>39.0</ele><time>2026-03-28T18:14:42Z</time></trkpt><trkpt lat="44.598967287801834" lon="11.029259726203362"><ele>38.5</ele><time>2026-03-28T18:14:43Z</time></trkpt><trkpt lat="44.599315920808" lon="11.029155855621328"><ele>38.0</ele><time>2026-03-28T18:14:44Z</time></trkpt><trkpt lat="44.59966561417634" lon="11.02905114265796"><ele>38.0</ele><time>2026-03-28T18:14:45Z</time></trkpt><trkpt lat="44.59998434238172" lon="11.028943793070495"><ele>38.0</ele><time>2026-03-28T18:14:46Z</time></trkpt><trkpt lat="44.60027469604851" lon="11.028873730487028"><ele>37.0</ele><time>2026-03-28T18:14:47Z</time></trkpt><trkpt lat="44.60053352619184" lon="11.028798266802923"><ele>36.0</ele><time>2026-03-28T18:14:48Z</time></trkpt><trkpt lat="44.60076809306519" lon="11.028747047586675"><ele>36.0</ele><time>2026-03-28T18:14:49Z</time></trkpt><trkpt lat="44.600990659018024" lon="11.028718417537718"><ele>36.0</ele><time>2026-03-28T18:14:50Z</time></trkpt><trkpt lat="44.601201930723896" lon="11.028674377789264"><ele>36.0</ele><time>2026-03-28T18:14:51Z</time></trkpt><trkpt lat="44.60139702481386" lon="11.028650964529668"><ele>36.333333333333336</ele><time>2026-03-28T18:14:52Z</time></trkpt><trkpt lat="44.60157288574967" lon="11.028630363048777"><ele>36.66666666666667</ele><time>2026-03-28T18:14:53Z</time></trkpt><trkpt lat="44.60173811882714" lon="11.028606680971269"><ele>37.0</ele><time>2026-03-28T18:14:54Z</time></trkpt><trkpt lat="44.60189686643867" lon="11.028578401004523"><ele>37.333333333333336</ele><time>2026-03-28T18:14:55Z</time></trkpt><trkpt lat="44.602055795087644" lon="11.028546224630402"><ele>37.666666666666664</ele><time>2026-03-28T18:14:56Z</time></trkpt><trkpt lat="44.60220446885593" lon="11.028506140493365"><ele>38.0</ele><time>2026-03-28T18:14:57Z</time></trkpt><trkpt lat="44.602337658469764" lon="11.028448367482829"><ele>38.0</ele><time>2026-03-28T18:14:58Z</time></trkpt><trkpt lat="44.60244991410391" lon="11.028392725789898"><ele>38.0</ele><time>2026-03-28T18:14:59Z</time></trkpt><trkpt lat="44.60253176221983" lon="11.02835461300247"><ele>38.0</ele><time>2026-03-28T18:15:00Z</time></trkpt><trkpt lat="44.60262332207078" lon="11.028332477637708"><ele>38.0</ele><time>2026-03-28T18:15:02Z</time></trkpt><trkpt lat="44.602706561512825" lon="11.028364793224652"><ele>38.0</ele><time>2026-03-28T18:15:09Z</time></trkpt><trkpt lat="44.60282951846425" lon="11.02842301549775"><ele>38.33333333333333</ele><time>2026-03-28T18:15:11Z</time></trkpt><trkpt lat="44.602896369085535" lon="11.02846797772563"><ele>38.666666666666664</ele><time>2026-03-28T18:15:12Z</time></trkpt><trkpt lat="44.60297571086687" lon="11.02849446052806"><ele>39.0</ele><time>2026-03-28T18:15:13Z</time></trkpt><trkpt lat="44.60305989155889" lon="11.028488829817222"><ele>39.333333333333336</ele><time>2026-03-28T18:15:14Z</time></trkpt><trkpt lat="44.603135507012844" lon="11.028448958683153"><ele>39.66666666666667</ele><time>2026-03-28T18:15:15Z</time></trkpt><trkpt lat="44.6032055535781" lon="11.028377572269413"><ele>40.0</ele><time>2026-03-28T18:15:16Z</time></trkpt><trkpt lat="44.60326363463376" lon="11.028275970397884"><ele>40.0</ele><time>2026-03-28T18:15:17Z</time></trkpt><trkpt lat="44.60329942284783" lon="11.028146681800237"><ele>40.0</ele><time>2026-03-28T18:15:18Z</time></trkpt><trkpt lat="44.60330869015863" lon="11.028010208955505"><ele>40.0</ele><time>2026-03-28T18:15:19Z</time></trkpt><trkpt lat="44.60331541796395" lon="11.027875286416299"><ele>40.0</ele><time>2026-03-28T18:15:20Z</time></trkpt><trkpt lat="44.60334421168262" lon="11.027742698087067"><ele>40.0</ele><time>2026-03-28T18:15:21Z</time></trkpt><trkpt lat="44.60339779774698" lon="11.027629338906351"><ele>40.0</ele><time>2026-03-28T18:15:22Z</time></trkpt><trkpt lat="44.603478788395776" lon="11.027518231372747"><ele>40.0</ele><time>2026-03-28T18:15:23Z</time></trkpt><trkpt lat="44.60358787412923" lon="11.027401784628816"><ele>40.0</ele><time>2026-03-28T18:15:24Z</time></trkpt><trkpt lat="44.603693309848936" lon="11.027287790255503"><ele>40.0</ele><time>2026-03-28T18:15:25Z</time></trkpt><trkpt lat="44.603788666598874" lon="11.02717313353172"><ele>39.75</ele><time>2026-03-28T18:15:26Z</time></trkpt><trkpt lat="44.60388991221039" lon="11.027047468743856"><ele>39.5</ele><time>2026-03-28T18:15:27Z</time></trkpt><trkpt lat="44.60399565596123" lon="11.026911031133357"><ele>39.25</ele><time>2026-03-28T18:15:28Z</time></trkpt><trkpt lat="44.60410237305619" lon="11.026772453602268"><ele>39.0</ele><time>2026-03-28T18:15:29Z</time></trkpt><trkpt lat="44.604197782204494" lon="11.026583562251844"><ele>38.666666666666664</ele><time>2026-03-28T18:15:30Z</time></trkpt><trkpt lat="44.6042727303349" lon="11.026397741074303"><ele>38.33333333333333</ele><time>2026-03-28T18:15:31Z</time></trkpt><trkpt lat="44.60435054542959" lon="11.02619517155205"><ele>38.0</ele><time>2026-03-28T18:15:32Z</time></trkpt><trkpt lat="44.60444225273566" lon="11.02598192044972"><ele>38.0</ele><time>2026-03-28T18:15:33Z</time></trkpt><trkpt lat="44.60456313034421" lon="11.025717384197119"><ele>38.0</ele><time>2026-03-28T18:15:34Z</time></trkpt><trkpt lat="44.60470041501779" lon="11.025396855468076"><ele>38.0</ele><time>2026-03-28T18:15:35Z</time></trkpt><trkpt lat="44.60484688362827" lon="11.025023752207915"><ele>38.0</ele><time>2026-03-28T18:15:36Z</time></trkpt><trkpt lat="44.6050111840546" lon="11.024659842787065"><ele>38.0</ele><time>2026-03-28T18:15:37Z</time></trkpt><trkpt lat="44.6051798181332" lon="11.02426671060781"><ele>38.0</ele><time>2026-03-28T18:15:38Z</time></trkpt><trkpt lat="44.605347495593946" lon="11.02387717336438"><ele>39.0</ele><time>2026-03-28T18:15:39Z</time></trkpt><trkpt lat="44.60551149526271" lon="11.023492093062226"><ele>40.0</ele><time>2026-03-28T18:15:40Z</time></trkpt><trkpt lat="44.605664976619394" lon="11.023121251721344"><ele>40.5</ele><time>2026-03-28T18:15:41Z</time></trkpt><trkpt lat="44.60580985940237" lon="11.022774481585012"><ele>41.0</ele><time>2026-03-28T18:15:42Z</time></trkpt><trkpt lat="44.605948740490994" lon="11.022445875382282"><ele>40.0</ele><time>2026-03-28T18:15:43Z</time></trkpt><trkpt lat="44.60608375961211" lon="11.022116436627083"><ele>39.0</ele><time>2026-03-28T18:15:44Z</time></trkpt><trkpt lat="44.606218110172875" lon="11.021796744258943"><ele>39.0</ele><time>2026-03-28T18:15:45Z</time></trkpt><trkpt lat="44.60633919943374" lon="11.021500352235046"><ele>39.0</ele><time>2026-03-28T18:15:46Z</time></trkpt><trkpt lat="44.60647012484471" lon="11.021224333989885"><ele>39.0</ele><time>2026-03-28T18:15:47Z</time></trkpt><trkpt lat="44.60660165679585" lon="11.020912834335235"><ele>39.0</ele><time>2026-03-28T18:15:48Z</time></trkpt><trkpt lat="44.606724685022066" lon="11.020579084331374"><ele>38.5</ele><time>2026-03-28T18:15:49Z</time></trkpt><trkpt lat="44.60686935480212" lon="11.020260966347347"><ele>38.0</ele><time>2026-03-28T18:15:50Z</time></trkpt><trkpt lat="44.60700920815439" lon="11.01993510167484"><ele>38.0</ele><time>2026-03-28T18:15:51Z</time></trkpt><trkpt lat="44.607154787452494" lon="11.019592352531657"><ele>38.0</ele><time>2026-03-28T18:15:52Z</time></trkpt><trkpt lat="44.60729859062175" lon="11.019248383867465"><ele>37.5</ele><time>2026-03-28T18:15:53Z</time></trkpt><trkpt lat="44.60743633384578" lon="11.01892220246415"><ele>37.0</ele><time>2026-03-28T18:15:54Z</time></trkpt><trkpt lat="44.607567262483805" lon="11.018620522723126"><ele>37.0</ele><time>2026-03-28T18:15:55Z</time></trkpt><trkpt lat="44.60769660406098" lon="11.018328782234803"><ele>37.0</ele><time>2026-03-28T18:15:56Z</time></trkpt><trkpt lat="44.60782202184911" lon="11.01802943241536"><ele>37.0</ele><time>2026-03-28T18:15:57Z</time></trkpt><trkpt lat="44.60794212158128" lon="11.017736562046933"><ele>37.0</ele><time>2026-03-28T18:15:58Z</time></trkpt><trkpt lat="44.608061740048264" lon="11.017448234402455"><ele>37.5</ele><time>2026-03-28T18:15:59Z</time></trkpt><trkpt lat="44.60818463462636" lon="11.017157803731509"><ele>38.0</ele><time>2026-03-28T18:16:00Z</time></trkpt><trkpt lat="44.60830647554377" lon="11.016864377751917"><ele>37.0</ele><time>2026-03-28T18:16:01Z</time></trkpt><trkpt lat="44.608429762928196" lon="11.016562551092209"><ele>36.0</ele><time>2026-03-28T18:16:02Z</time></trkpt><trkpt lat="44.60854739825939" lon="11.016273311084884"><ele>35.666666666666664</ele><time>2026-03-28T18:16:03Z</time></trkpt><trkpt lat="44.608661953498526" lon="11.016001744056988"><ele>35.33333333333333</ele><time>2026-03-28T18:16:04Z</time></trkpt><trkpt lat="44.608769125828836" lon="11.015743531191688"><ele>35.0</ele><time>2026-03-28T18:16:05Z</time></trkpt><trkpt lat="44.6088647348319" lon="11.01549676896686"><ele>36.0</ele><time>2026-03-28T18:16:06Z</time></trkpt><trkpt lat="44.60898509014682" lon="11.015247673490018"><ele>37.0</ele><time>2026-03-28T18:16:07Z</time></trkpt><trkpt lat="44.60911295545106" lon="11.014949566484747"><ele>38.5</ele><time>2026-03-28T18:16:08Z</time></trkpt><trkpt lat="44.609226203945184" lon="11.014639058414382"><ele>40.0</ele><time>2026-03-28T18:16:09Z</time></trkpt><trkpt lat="44.60935384477774" lon="11.014389852073176"><ele>40.0</ele><time>2026-03-28T18:16:10Z</time></trkpt><trkpt lat="44.60947130876742" lon="11.014169084954673"><ele>40.0</ele><time>2026-03-28T18:16:11Z</time></trkpt><trkpt lat="44.6095977111963" lon="11.013976488200619"><ele>40.0</ele><time>2026-03-28T18:16:12Z</time></trkpt><trkpt lat="44.60974247813018" lon="11.013809078771033"><ele>39.66666666666667</ele><time>2026-03-28T18:16:13Z</time></trkpt><trkpt lat="44.60991811493689" lon="11.01368013462771"><ele>39.333333333333336</ele><time>2026-03-28T18:16:14Z</time></trkpt><trkpt lat="44.61010738146286" lon="11.013581527961327"><ele>39.0</ele><time>2026-03-28T18:16:15Z</time></trkpt><trkpt lat="44.61031017826169" lon="11.013515679116317"><ele>38.0</ele><time>2026-03-28T18:16:16Z</time></trkpt><trkpt lat="44.610522170447545" lon="11.013499939058192"><ele>37.0</ele><time>2026-03-28T18:16:17Z</time></trkpt><trkpt lat="44.610735409128395" lon="11.01353080967258"><ele>36.0</ele><time>2026-03-28T18:16:18Z</time></trkpt><trkpt lat="44.61094350386418" lon="11.013630793176286"><ele>36.0</ele><time>2026-03-28T18:16:19Z</time></trkpt><trkpt lat="44.61115388340283" lon="11.013738551809702"><ele>36.0</ele><time>2026-03-28T18:16:20Z</time></trkpt><trkpt lat="44.61138831213861" lon="11.013855434613818"><ele>36.0</ele><time>2026-03-28T18:16:21Z</time></trkpt><trkpt lat="44.61163702994693" lon="11.014002694004118"><ele>36.0</ele><time>2026-03-28T18:16:22Z</time></trkpt><trkpt lat="44.61189763759811" lon="11.014145796562467"><ele>36.0</ele><time>2026-03-28T18:16:23Z</time></trkpt><trkpt lat="44.61215527973596" lon="11.014284328851952"><ele>36.0</ele><time>2026-03-28T18:16:24Z</time></trkpt><trkpt lat="44.612398848997394" lon="11.01441370157015"><ele>36.0</ele><time>2026-03-28T18:16:25Z</time></trkpt><trkpt lat="44.61262588954118" lon="11.01453411406193"><ele>36.0</ele><time>2026-03-28T18:16:26Z</time></trkpt><trkpt lat="44.61283547373613" lon="11.01464971011844"><ele>35.333333333333336</ele><time>2026-03-28T18:16:27Z</time></trkpt><trkpt lat="44.61303431811339" lon="11.014754658073414"><ele>34.66666666666667</ele><time>2026-03-28T18:16:28Z</time></trkpt><trkpt lat="44.61322403381339" lon="11.014858288068538"><ele>34.0</ele><time>2026-03-28T18:16:29Z</time></trkpt><trkpt lat="44.6134119789025" lon="11.01496580025772"><ele>34.66666666666667</ele><time>2026-03-28T18:16:30Z</time></trkpt><trkpt lat="44.613600567273515" lon="11.01506718030449"><ele>35.333333333333336</ele><time>2026-03-28T18:16:31Z</time></trkpt><trkpt lat="44.61377863278697" lon="11.01515771668095"><ele>36.0</ele><time>2026-03-28T18:16:32Z</time></trkpt><trkpt lat="44.613948644748454" lon="11.015216431610114"><ele>36.0</ele><time>2026-03-28T18:16:33Z</time></trkpt><trkpt lat="44.61412651047403" lon="11.015232643620804"><ele>36.0</ele><time>2026-03-28T18:16:34Z</time></trkpt><trkpt lat="44.614314124634134" lon="11.015219401013184"><ele>36.0</ele><time>2026-03-28T18:16:35Z</time></trkpt><trkpt lat="44.61450780388471" lon="11.015191023968612"><ele>36.0</ele><time>2026-03-28T18:16:36Z</time></trkpt><trkpt lat="44.61469930180173" lon="11.015136446389272"><ele>36.0</ele><time>2026-03-28T18:16:37Z</time></trkpt><trkpt lat="44.614880911574225" lon="11.015047224238081"><ele>36.0</ele><time>2026-03-28T18:16:38Z</time></trkpt><trkpt lat="44.615049607610366" lon="11.014944128995255"><ele>36.0</ele><time>2026-03-28T18:16:39Z</time></trkpt><trkpt lat="44.615199312554985" lon="11.014822761990017"><ele>36.0</ele><time>2026-03-28T18:16:40Z</time></trkpt><trkpt lat="44.615345035883465" lon="11.014693242895948"><ele>36.0</ele><time>2026-03-28T18:16:41Z</time></trkpt><trkpt lat="44.61547915828926" lon="11.01455377776218"><ele>36.0</ele><time>2026-03-28T18:16:42Z</time></trkpt><trkpt lat="44.615612561900214" lon="11.01442318692908"><ele>36.0</ele><time>2026-03-28T18:16:43Z</time></trkpt><trkpt lat="44.61575059202114" lon="11.014285329212942"><ele>36.0</ele><time>2026-03-28T18:16:44Z</time></trkpt><trkpt lat="44.6158885880482" lon="11.014147754457321"><ele>36.0</ele><time>2026-03-28T18:16:45Z</time></trkpt><trkpt lat="44.616019258805956" lon="11.014018584604443"><ele>36.0</ele><time>2026-03-28T18:16:46Z</time></trkpt><trkpt lat="44.6161402154059" lon="11.013900472492017"><ele>36.0</ele><time>2026-03-28T18:16:47Z</time></trkpt><trkpt lat="44.616276083203964" lon="11.013764717386577"><ele>36.0</ele><time>2026-03-28T18:16:48Z</time></trkpt><trkpt lat="44.61642685732154" lon="11.013606775179857"><ele>36.0</ele><time>2026-03-28T18:16:49Z</time></trkpt><trkpt lat="44.61661635020805" lon="11.013443973979568"><ele>36.0</ele><time>2026-03-28T18:16:50Z</time></trkpt><trkpt lat="44.61677302864044" lon="11.013258747603585"><ele>36.0</ele><time>2026-03-28T18:16:51Z</time></trkpt><trkpt lat="44.61689980247972" lon="11.013140996557448"><ele>36.0</ele><time>2026-03-28T18:16:52Z</time></trkpt><trkpt lat="44.616996651148135" lon="11.013043054733032"><ele>36.0</ele><time>2026-03-28T18:16:53Z</time></trkpt><trkpt lat="44.617090652694046" lon="11.012946150672084"><ele>36.0</ele><time>2026-03-28T18:16:54Z</time></trkpt><trkpt lat="44.61721384852103" lon="11.012844956977961"><ele>36.333333333333336</ele><time>2026-03-28T18:16:55Z</time></trkpt><trkpt lat="44.61736915279161" lon="11.01269102801927"><ele>36.66666666666667</ele><time>2026-03-28T18:16:56Z</time></trkpt><trkpt lat="44.61754496293591" lon="11.012493667837795"><ele>37.0</ele><time>2026-03-28T18:16:57Z</time></trkpt><trkpt lat="44.61773502051234" lon="11.012319828518054"><ele>36.66666666666667</ele><time>2026-03-28T18:16:58Z</time></trkpt><trkpt lat="44.61790376097034" lon="11.012148988134289"><ele>36.333333333333336</ele><time>2026-03-28T18:16:59Z</time></trkpt><trkpt lat="44.618051752640035" lon="11.011991265901768"><ele>36.0</ele><time>2026-03-28T18:17:00Z</time></trkpt><trkpt lat="44.6181967083095" lon="11.01184642538153"><ele>36.0</ele><time>2026-03-28T18:17:01Z</time></trkpt><trkpt lat="44.61833796783592" lon="11.011701125630003"><ele>36.0</ele><time>2026-03-28T18:17:02Z</time></trkpt><trkpt lat="44.6184850742982" lon="11.011552717225829"><ele>36.0</ele><time>2026-03-28T18:17:03Z</time></trkpt><trkpt lat="44.618667534647464" lon="11.011397271593216"><ele>36.0</ele><time>2026-03-28T18:17:04Z</time></trkpt><trkpt lat="44.61886093450373" lon="11.011180300726181"><ele>36.0</ele><time>2026-03-28T18:17:05Z</time></trkpt><trkpt lat="44.619062159242795" lon="11.010989258371472"><ele>35.333333333333336</ele><time>2026-03-28T18:17:06Z</time></trkpt><trkpt lat="44.619235246832055" lon="11.010809919481698"><ele>34.66666666666667</ele><time>2026-03-28T18:17:07Z</time></trkpt><trkpt lat="44.61939117146021" lon="11.010637227955765"><ele>34.0</ele><time>2026-03-28T18:17:08Z</time></trkpt><trkpt lat="44.619532465924" lon="11.010458107794735"><ele>33.66666666666667</ele><time>2026-03-28T18:17:09Z</time></trkpt><trkpt lat="44.619660559928406" lon="11.010273512417033"><ele>33.333333333333336</ele><time>2026-03-28T18:17:10Z</time></trkpt><trkpt lat="44.61976996986119" lon="11.01006840805868"><ele>33.0</ele><time>2026-03-28T18:17:11Z</time></trkpt><trkpt lat="44.619858510910156" lon="11.009826358372036"><ele>33.0</ele><time>2026-03-28T18:17:12Z</time></trkpt><trkpt lat="44.619928372057586" lon="11.009596052765623"><ele>33.0</ele><time>2026-03-28T18:17:13Z</time></trkpt><trkpt lat="44.61999120056743" lon="11.00939224489384"><ele>33.0</ele><time>2026-03-28T18:17:14Z</time></trkpt><trkpt lat="44.62006155184325" lon="11.009156689871965"><ele>34.0</ele><time>2026-03-28T18:17:15Z</time></trkpt><trkpt lat="44.620151299636994" lon="11.008860392471291"><ele>35.0</ele><time>2026-03-28T18:17:16Z</time></trkpt><trkpt lat="44.62026046878628" lon="11.008537718651915"><ele>34.5</ele><time>2026-03-28T18:17:17Z</time></trkpt><trkpt lat="44.620361438294424" lon="11.008220955114702"><ele>34.0</ele><time>2026-03-28T18:17:18Z</time></trkpt><trkpt lat="44.620448597472354" lon="11.007940903915935"><ele>34.0</ele><time>2026-03-28T18:17:19Z</time></trkpt><trkpt lat="44.62052601522327" lon="11.007688392646166"><ele>34.0</ele><time>2026-03-28T18:17:20Z</time></trkpt><trkpt lat="44.62060076193835" lon="11.007457923449765"><ele>34.0</ele><time>2026-03-28T18:17:21Z</time></trkpt><trkpt lat="44.6206715453078" lon="11.00726199685935"><ele>34.333333333333336</ele><time>2026-03-28T18:17:22Z</time></trkpt><trkpt lat="44.620733773175466" lon="11.007096809982276"><ele>34.666666666666664</ele><time>2026-03-28T18:17:23Z</time></trkpt><trkpt lat="44.620795633711865" lon="11.006916150727086"><ele>35.0</ele><time>2026-03-28T18:17:24Z</time></trkpt><trkpt lat="44.62089224717479" lon="11.006685806745697"><ele>35.666666666666664</ele><time>2026-03-28T18:17:25Z</time></trkpt><trkpt lat="44.62097080913407" lon="11.006423733676627"><ele>36.333333333333336</ele><time>2026-03-28T18:17:26Z</time></trkpt><trkpt lat="44.62105902004939" lon="11.006186964882893"><ele>37.0</ele><time>2026-03-28T18:17:27Z</time></trkpt><trkpt lat="44.62114892635857" lon="11.005935084916652"><ele>36.333333333333336</ele><time>2026-03-28T18:17:28Z</time></trkpt><trkpt lat="44.62124489712259" lon="11.005668684428452"><ele>35.666666666666664</ele><time>2026-03-28T18:17:29Z</time></trkpt><trkpt lat="44.62134309284713" lon="11.005405928273474"><ele>35.0</ele><time>2026-03-28T18:17:30Z</time></trkpt><trkpt lat="44.621455055409896" lon="11.005109132036194"><ele>36.0</ele><time>2026-03-28T18:17:31Z</time></trkpt><trkpt lat="44.62158635156205" lon="11.00475744422941"><ele>37.0</ele><time>2026-03-28T18:17:32Z</time></trkpt><trkpt lat="44.62172960479297" lon="11.004398342616978"><ele>37.0</ele><time>2026-03-28T18:17:33Z</time></trkpt><trkpt lat="44.621864981420416" lon="11.004069290352085"><ele>37.0</ele><time>2026-03-28T18:17:34Z</time></trkpt><trkpt lat="44.62197857856366" lon="11.003774767209372"><ele>36.0</ele><time>2026-03-28T18:17:35Z</time></trkpt><trkpt lat="44.622078385705436" lon="11.003513605463013"><ele>35.0</ele><time>2026-03-28T18:17:36Z</time></trkpt><trkpt lat="44.622169944265075" lon="11.003269681761056"><ele>34.0</ele><time>2026-03-28T18:17:37Z</time></trkpt><trkpt lat="44.622244150134804" lon="11.00307447948454"><ele>34.0</ele><time>2026-03-28T18:17:38Z</time></trkpt><trkpt lat="44.622308747241576" lon="11.002902751763626"><ele>34.0</ele><time>2026-03-28T18:17:39Z</time></trkpt><trkpt lat="44.62236905086844" lon="11.00272334224307"><ele>34.0</ele><time>2026-03-28T18:17:40Z</time></trkpt><trkpt lat="44.62243573834732" lon="11.002518621547232"><ele>34.0</ele><time>2026-03-28T18:17:41Z</time></trkpt><trkpt lat="44.62250982554735" lon="11.002288429100261"><ele>34.0</ele><time>2026-03-28T18:17:42Z</time></trkpt><trkpt lat="44.62258238686264" lon="11.002063515418115"><ele>34.0</ele><time>2026-03-28T18:17:43Z</time></trkpt><trkpt lat="44.62265425442844" lon="11.001846503583705"><ele>34.0</ele><time>2026-03-28T18:17:44Z</time></trkpt><trkpt lat="44.62272273498537" lon="11.00162255030259"><ele>34.0</ele><time>2026-03-28T18:17:45Z</time></trkpt><trkpt lat="44.6227896990421" lon="11.001392427264275"><ele>34.0</ele><time>2026-03-28T18:17:46Z</time></trkpt><trkpt lat="44.62285983540451" lon="11.001156268965115"><ele>34.0</ele><time>2026-03-28T18:17:47Z</time></trkpt><trkpt lat="44.622933802132486" lon="11.000928903667894"><ele>34.333333333333336</ele><time>2026-03-28T18:17:48Z</time></trkpt><trkpt lat="44.62300064343139" lon="11.000718945436125"><ele>34.666666666666664</ele><time>2026-03-28T18:17:49Z</time></trkpt><trkpt lat="44.623063508774706" lon="11.00052371413306"><ele>35.0</ele><time>2026-03-28T18:17:50Z</time></trkpt><trkpt lat="44.623124418223874" lon="11.000338387087236"><ele>35.0</ele><time>2026-03-28T18:17:51Z</time></trkpt><trkpt lat="44.62318227320078" lon="11.000154051352276"><ele>35.0</ele><time>2026-03-28T18:17:52Z</time></trkpt><trkpt lat="44.623241010116224" lon="10.999972344105847"><ele>35.0</ele><time>2026-03-28T18:17:53Z</time></trkpt><trkpt lat="44.623297829056675" lon="10.999795215771998"><ele>35.0</ele><time>2026-03-28T18:17:54Z</time></trkpt><trkpt lat="44.623352437078154" lon="10.999627632532226"><ele>35.0</ele><time>2026-03-28T18:17:55Z</time></trkpt><trkpt lat="44.62340186046371" lon="10.999469084019033"><ele>35.0</ele><time>2026-03-28T18:17:56Z</time></trkpt><trkpt lat="44.6234459417914" lon="10.999324331023372"><ele>35.0</ele><time>2026-03-28T18:17:57Z</time></trkpt><trkpt lat="44.62347638228233" lon="10.999177018509647"><ele>35.0</ele><time>2026-03-28T18:17:58Z</time></trkpt><trkpt lat="44.6234995633582" lon="10.999015229322637"><ele>35.25</ele><time>2026-03-28T18:17:59Z</time></trkpt><trkpt lat="44.62350992028685" lon="10.998854565558469"><ele>35.5</ele><time>2026-03-28T18:18:00Z</time></trkpt><trkpt lat="44.623508316759136" lon="10.998696574307372"><ele>35.75</ele><time>2026-03-28T18:18:01Z</time></trkpt><trkpt lat="44.62349184774878" lon="10.998534534271586"><ele>36.0</ele><time>2026-03-28T18:18:02Z</time></trkpt><trkpt lat="44.62345988710776" lon="10.99837451021016"><ele>35.5</ele><time>2026-03-28T18:18:03Z</time></trkpt><trkpt lat="44.62341069891913" lon="10.998216778728404"><ele>35.0</ele><time>2026-03-28T18:18:04Z</time></trkpt><trkpt lat="44.623338300982255" lon="10.998056191342867"><ele>34.5</ele><time>2026-03-28T18:18:05Z</time></trkpt><trkpt lat="44.6232516895102" lon="10.997867395574232"><ele>34.0</ele><time>2026-03-28T18:18:06Z</time></trkpt><trkpt lat="44.62313385608097" lon="10.99766275585784"><ele>33.66666666666667</ele><time>2026-03-28T18:18:07Z</time></trkpt><trkpt lat="44.62301914115612" lon="10.997467920330392"><ele>33.333333333333336</ele><time>2026-03-28T18:18:08Z</time></trkpt><trkpt lat="44.622910302914995" lon="10.997284540944689"><ele>33.0</ele><time>2026-03-28T18:18:09Z</time></trkpt><trkpt lat="44.62280730444121" lon="10.997110269789616"><ele>32.0</ele><time>2026-03-28T18:18:10Z</time></trkpt><trkpt lat="44.62269362029703" lon="10.996952290811771"><ele>31.0</ele><time>2026-03-28T18:18:11Z</time></trkpt><trkpt lat="44.6225965274464" lon="10.996786246581797"><ele>30.0</ele><time>2026-03-28T18:18:12Z</time></trkpt><trkpt lat="44.62250815953473" lon="10.996631029822481"><ele>32.333333333333336</ele><time>2026-03-28T18:18:13Z</time></trkpt><trkpt lat="44.62241556726003" lon="10.996472887100156"><ele>34.66666666666667</ele><time>2026-03-28T18:18:14Z</time></trkpt><trkpt lat="44.62231556752082" lon="10.996307523636258"><ele>37.0</ele><time>2026-03-28T18:18:15Z</time></trkpt><trkpt lat="44.622219607375264" lon="10.996143135817725"><ele>37.0</ele><time>2026-03-28T18:18:16Z</time></trkpt><trkpt lat="44.62212084908705" lon="10.995977953308325"><ele>37.0</ele><time>2026-03-28T18:18:17Z</time></trkpt><trkpt lat="44.62201828265338" lon="10.99580575932117"><ele>37.0</ele><time>2026-03-28T18:18:18Z</time></trkpt><trkpt lat="44.621914147835625" lon="10.995629192324532"><ele>37.66666666666667</ele><time>2026-03-28T18:18:19Z</time></trkpt><trkpt lat="44.621806309670255" lon="10.995448109415618"><ele>38.333333333333336</ele><time>2026-03-28T18:18:20Z</time></trkpt><trkpt lat="44.62170129089347" lon="10.99525875750154"><ele>39.0</ele><time>2026-03-28T18:18:21Z</time></trkpt><trkpt lat="44.621595367706924" lon="10.995073442972691"><ele>37.666666666666664</ele><time>2026-03-28T18:18:22Z</time></trkpt><trkpt lat="44.62148634702825" lon="10.994890322978222"><ele>36.33333333333333</ele><time>2026-03-28T18:18:23Z</time></trkpt><trkpt lat="44.6213811496612" lon="10.994712341797351"><ele>35.0</ele><time>2026-03-28T18:18:24Z</time></trkpt><trkpt lat="44.621267508147525" lon="10.994528287159456"><ele>35.0</ele><time>2026-03-28T18:18:25Z</time></trkpt><trkpt lat="44.62113596336496" lon="10.994283182603871"><ele>35.0</ele><time>2026-03-28T18:18:26Z</time></trkpt><trkpt lat="44.620982885601514" lon="10.994024190872453"><ele>35.0</ele><time>2026-03-28T18:18:27Z</time></trkpt><trkpt lat="44.620839058735825" lon="10.993780850800354"><ele>35.0</ele><time>2026-03-28T18:18:28Z</time></trkpt><trkpt lat="44.62071570527107" lon="10.993571833582433"><ele>35.0</ele><time>2026-03-28T18:18:29Z</time></trkpt><trkpt lat="44.620600715380306" lon="10.993376957635228"><ele>35.0</ele><time>2026-03-28T18:18:30Z</time></trkpt><trkpt lat="44.62048120291398" lon="10.993202786829645"><ele>35.0</ele><time>2026-03-28T18:18:31Z</time></trkpt><trkpt lat="44.620354961717055" lon="10.992995332093065"><ele>35.0</ele><time>2026-03-28T18:18:32Z</time></trkpt><trkpt lat="44.62022811581276" lon="10.99274479767688"><ele>33.666666666666664</ele><time>2026-03-28T18:18:33Z</time></trkpt><trkpt lat="44.62008041244836" lon="10.992493270338935"><ele>32.333333333333336</ele><time>2026-03-28T18:18:34Z</time></trkpt><trkpt lat="44.6199428271771" lon="10.992267356262952"><ele>31.0</ele><time>2026-03-28T18:18:35Z</time></trkpt><trkpt lat="44.61983428475723" lon="10.992046223519212"><ele>31.0</ele><time>2026-03-28T18:18:36Z</time></trkpt><trkpt lat="44.61973470994639" lon="10.991840793932763"><ele>31.0</ele><time>2026-03-28T18:18:37Z</time></trkpt><trkpt lat="44.619648268329186" lon="10.991640111534585"><ele>31.0</ele><time>2026-03-28T18:18:38Z</time></trkpt><trkpt lat="44.619576459477926" lon="10.991438098624432"><ele>31.333333333333336</ele><time>2026-03-28T18:18:39Z</time></trkpt><trkpt lat="44.61952173510141" lon="10.99122553745836"><ele>31.666666666666664</ele><time>2026-03-28T18:18:40Z</time></trkpt><trkpt lat="44.619489885594255" lon="10.99100403440228"><ele>32.0</ele><time>2026-03-28T18:18:41Z</time></trkpt><trkpt lat="44.619485153029984" lon="10.990773639487976"><ele>32.33333333333333</ele><time>2026-03-28T18:18:42Z</time></trkpt><trkpt lat="44.619509205636696" lon="10.99054514992766"><ele>32.666666666666664</ele><time>2026-03-28T18:18:43Z</time></trkpt><trkpt lat="44.61955587781245" lon="10.99032592059345"><ele>33.0</ele><time>2026-03-28T18:18:44Z</time></trkpt><trkpt lat="44.61963139268693" lon="10.99012108006678"><ele>34.333333333333336</ele><time>2026-03-28T18:18:45Z</time></trkpt><trkpt lat="44.619712085460485" lon="10.989917698488929"><ele>35.66666666666667</ele><time>2026-03-28T18:18:46Z</time></trkpt><trkpt lat="44.61978982711276" lon="10.9897048965153"><ele>37.0</ele><time>2026-03-28T18:18:47Z</time></trkpt><trkpt lat="44.619869509746245" lon="10.989486208812"><ele>37.0</ele><time>2026-03-28T18:18:48Z</time></trkpt><trkpt lat="44.61994912072132" lon="10.989266556755455"><ele>37.0</ele><time>2026-03-28T18:18:49Z</time></trkpt><trkpt lat="44.620036421921505" lon="10.989037731771049"><ele>37.0</ele><time>2026-03-28T18:18:50Z</time></trkpt><trkpt lat="44.62013415751535" lon="10.988790193106956"><ele>37.5</ele><time>2026-03-28T18:18:51Z</time></trkpt><trkpt lat="44.62024477912454" lon="10.988501470375924"><ele>38.0</ele><time>2026-03-28T18:18:52Z</time></trkpt><trkpt lat="44.62037017207648" lon="10.988184122165915"><ele>36.5</ele><time>2026-03-28T18:18:53Z</time></trkpt><trkpt lat="44.620505770003646" lon="10.987873198090979"><ele>35.0</ele><time>2026-03-28T18:18:54Z</time></trkpt><trkpt lat="44.62063233630766" lon="10.987588903420027"><ele>35.0</ele><time>2026-03-28T18:18:55Z</time></trkpt><trkpt lat="44.62074912712805" lon="10.987325174248626"><ele>35.0</ele><time>2026-03-28T18:18:56Z</time></trkpt><trkpt lat="44.62085242143117" lon="10.987079400273455"><ele>35.0</ele><time>2026-03-28T18:18:57Z</time></trkpt><trkpt lat="44.620948155550494" lon="10.98684806983461"><ele>35.33333333333333</ele><time>2026-03-28T18:18:58Z</time></trkpt><trkpt lat="44.6210424927441" lon="10.986623749044334"><ele>35.666666666666664</ele><time>2026-03-28T18:18:59Z</time></trkpt><trkpt lat="44.62114846254498" lon="10.986386300390846"><ele>36.0</ele><time>2026-03-28T18:19:00Z</time></trkpt><trkpt lat="44.62126198112331" lon="10.986122464281337"><ele>35.0</ele><time>2026-03-28T18:19:01Z</time></trkpt><trkpt lat="44.62138044462625" lon="10.98583656259893"><ele>34.0</ele><time>2026-03-28T18:19:02Z</time></trkpt><trkpt lat="44.62150117788252" lon="10.985550561028036"><ele>34.0</ele><time>2026-03-28T18:19:03Z</time></trkpt><trkpt lat="44.62162445413852" lon="10.98525729734671"><ele>34.0</ele><time>2026-03-28T18:19:04Z</time></trkpt><trkpt lat="44.62174393984248" lon="10.984966964818547"><ele>34.5</ele><time>2026-03-28T18:19:05Z</time></trkpt><trkpt lat="44.62186421507582" lon="10.984685274937451"><ele>35.0</ele><time>2026-03-28T18:19:06Z</time></trkpt><trkpt lat="44.62197713840055" lon="10.984418655276814"><ele>34.666666666666664</ele><time>2026-03-28T18:19:07Z</time></trkpt><trkpt lat="44.62208209519481" lon="10.984161835106958"><ele>34.333333333333336</ele><time>2026-03-28T18:19:08Z</time></trkpt><trkpt lat="44.62218074083805" lon="10.983919387447528"><ele>34.0</ele><time>2026-03-28T18:19:09Z</time></trkpt><trkpt lat="44.62227383388287" lon="10.98369271688856"><ele>34.0</ele><time>2026-03-28T18:19:10Z</time></trkpt><trkpt lat="44.62236213649902" lon="10.983477361625141"><ele>34.0</ele><time>2026-03-28T18:19:11Z</time></trkpt><trkpt lat="44.62244783092664" lon="10.983278855435854"><ele>34.0</ele><time>2026-03-28T18:19:12Z</time></trkpt><trkpt lat="44.62252897636305" lon="10.983096032759942"><ele>34.25</ele><time>2026-03-28T18:19:13Z</time></trkpt><trkpt lat="44.622602263553645" lon="10.982929214293474"><ele>34.5</ele><time>2026-03-28T18:19:14Z</time></trkpt><trkpt lat="44.62266986631001" lon="10.982768804803944"><ele>34.75</ele><time>2026-03-28T18:19:15Z</time></trkpt><trkpt lat="44.6227389305383" lon="10.982626879400792"><ele>35.0</ele><time>2026-03-28T18:19:16Z</time></trkpt><trkpt lat="44.62281531777172" lon="10.982500158387378"><ele>34.6</ele><time>2026-03-28T18:19:17Z</time></trkpt><trkpt lat="44.62289735848565" lon="10.982379116527223"><ele>34.2</ele><time>2026-03-28T18:19:18Z</time></trkpt><trkpt lat="44.62298256168737" lon="10.982265396811822"><ele>33.8</ele><time>2026-03-28T18:19:19Z</time></trkpt><trkpt lat="44.62306369429949" lon="10.982160875912184"><ele>33.4</ele><time>2026-03-28T18:19:20Z</time></trkpt><trkpt lat="44.62312514039527" lon="10.982053164906464"><ele>33.0</ele><time>2026-03-28T18:19:21Z</time></trkpt><trkpt lat="44.623163587775764" lon="10.981915153066552"><ele>33.0</ele><time>2026-03-28T18:19:22Z</time></trkpt><trkpt lat="44.623186853995804" lon="10.981733760667467"><ele>33.0</ele><time>2026-03-28T18:19:23Z</time></trkpt><trkpt lat="44.62322372140613" lon="10.98152733517781"><ele>33.0</ele><time>2026-03-28T18:19:24Z</time></trkpt><trkpt lat="44.623284775701926" lon="10.981298592521881"><ele>33.666666666666664</ele><time>2026-03-28T18:19:25Z</time></trkpt><trkpt lat="44.62336874952073" lon="10.981057065487022"><ele>34.33333333333333</ele><time>2026-03-28T18:19:26Z</time></trkpt><trkpt lat="44.62347445319543" lon="10.980817396108248"><ele>35.0</ele><time>2026-03-28T18:19:27Z</time></trkpt><trkpt lat="44.62358578198273" lon="10.9805694265042"><ele>35.33333333333333</ele><time>2026-03-28T18:19:28Z</time></trkpt><trkpt lat="44.623695885212655" lon="10.980309019263245"><ele>35.666666666666664</ele><time>2026-03-28T18:19:29Z</time></trkpt><trkpt lat="44.623804145891114" lon="10.980035512501834"><ele>36.0</ele><time>2026-03-28T18:19:30Z</time></trkpt><trkpt lat="44.62391281644856" lon="10.979761080471732"><ele>36.0</ele><time>2026-03-28T18:19:31Z</time></trkpt><trkpt lat="44.624020721317954" lon="10.979489332992662"><ele>36.0</ele><time>2026-03-28T18:19:32Z</time></trkpt><trkpt lat="44.62411585911544" lon="10.979249446709526"><ele>36.0</ele><time>2026-03-28T18:19:33Z</time></trkpt><trkpt lat="44.62421502563032" lon="10.979044645152817"><ele>36.0</ele><time>2026-03-28T18:19:34Z</time></trkpt><trkpt lat="44.62426888702793" lon="10.978868761271986"><ele>36.0</ele><time>2026-03-28T18:19:35Z</time></trkpt><trkpt lat="44.62432617724895" lon="10.97873995001069"><ele>36.0</ele><time>2026-03-28T18:19:36Z</time></trkpt><trkpt lat="44.62437092588432" lon="10.978618833726044"><ele>36.0</ele><time>2026-03-28T18:19:37Z</time></trkpt><trkpt lat="44.624411062100435" lon="10.97851268146024"><ele>36.0</ele><time>2026-03-28T18:19:38Z</time></trkpt><trkpt lat="44.62444570620123" lon="10.978426771266108"><ele>35.666666666666664</ele><time>2026-03-28T18:19:39Z</time></trkpt><trkpt lat="44.62449376526395" lon="10.978316511030512"><ele>35.333333333333336</ele><time>2026-03-28T18:19:41Z</time></trkpt><trkpt lat="44.62454135704144" lon="10.97821177684774"><ele>35.0</ele><time>2026-03-28T18:19:43Z</time></trkpt><trkpt lat="44.62457600987532" lon="10.978131626910127"><ele>34.66666666666667</ele><time>2026-03-28T18:19:44Z</time></trkpt><trkpt lat="44.62461086886272" lon="10.978034223529308"><ele>34.333333333333336</ele><time>2026-03-28T18:19:45Z</time></trkpt><trkpt lat="44.624661940774956" lon="10.977931306416657"><ele>34.0</ele><time>2026-03-28T18:19:46Z</time></trkpt><trkpt lat="44.62471115857258" lon="10.977811232273298"><ele>34.0</ele><time>2026-03-28T18:19:47Z</time></trkpt><trkpt lat="44.62476149705519" lon="10.977688424143535"><ele>34.0</ele><time>2026-03-28T18:19:48Z</time></trkpt><trkpt lat="44.624802787167944" lon="10.977546708260633"><ele>34.0</ele><time>2026-03-28T18:19:49Z</time></trkpt><trkpt lat="44.624871238568396" lon="10.977400912975995"><ele>34.0</ele><time>2026-03-28T18:19:50Z</time></trkpt><trkpt lat="44.62495404234334" lon="10.977200628110161"><ele>33.66666666666667</ele><time>2026-03-28T18:19:51Z</time></trkpt><trkpt lat="44.62504227163741" lon="10.976973707728416"><ele>33.333333333333336</ele><time>2026-03-28T18:19:52Z</time></trkpt><trkpt lat="44.62515724712286" lon="10.976724696028523"><ele>33.0</ele><time>2026-03-28T18:19:53Z</time></trkpt><trkpt lat="44.62527310890658" lon="10.976489997170955"><ele>33.666666666666664</ele><time>2026-03-28T18:19:54Z</time></trkpt><trkpt lat="44.625384611357774" lon="10.976244347730074"><ele>34.33333333333333</ele><time>2026-03-28T18:19:55Z</time></trkpt><trkpt lat="44.62549203151623" lon="10.975986307148856"><ele>35.0</ele><time>2026-03-28T18:19:56Z</time></trkpt><trkpt lat="44.625602418109594" lon="10.975730544753578"><ele>35.0</ele><time>2026-03-28T18:19:57Z</time></trkpt><trkpt lat="44.62571679680155" lon="10.975463931752063"><ele>35.0</ele><time>2026-03-28T18:19:58Z</time></trkpt><trkpt lat="44.625829837779214" lon="10.975198630167235"><ele>35.0</ele><time>2026-03-28T18:19:59Z</time></trkpt><trkpt lat="44.62594371604365" lon="10.974922078835736"><ele>35.0</ele><time>2026-03-28T18:20:00Z</time></trkpt><trkpt lat="44.62605798080039" lon="10.974652312149752"><ele>35.0</ele><time>2026-03-28T18:20:01Z</time></trkpt><trkpt lat="44.62617437920732" lon="10.974383619499257"><ele>35.0</ele><time>2026-03-28T18:20:02Z</time></trkpt><trkpt lat="44.62629104231172" lon="10.974118245265016"><ele>34.33333333333333</ele><time>2026-03-28T18:20:03Z</time></trkpt><trkpt lat="44.62640342781135" lon="10.97385450667196"><ele>33.666666666666664</ele><time>2026-03-28T18:20:04Z</time></trkpt><trkpt lat="44.626512566774565" lon="10.973596961022082"><ele>33.0</ele><time>2026-03-28T18:20:05Z</time></trkpt><trkpt lat="44.6266179919163" lon="10.973351346332743"><ele>33.0</ele><time>2026-03-28T18:20:06Z</time></trkpt><trkpt lat="44.62671678806412" lon="10.973122751889731"><ele>33.0</ele><time>2026-03-28T18:20:07Z</time></trkpt><trkpt lat="44.62680818872504" lon="10.972911251551803"><ele>33.0</ele><time>2026-03-28T18:20:08Z</time></trkpt><trkpt lat="44.626893304689304" lon="10.972709864882365"><ele>33.0</ele><time>2026-03-28T18:20:09Z</time></trkpt><trkpt lat="44.62697323391875" lon="10.972523692593457"><ele>33.0</ele><time>2026-03-28T18:20:10Z</time></trkpt><trkpt lat="44.62704704133528" lon="10.972350699602123"><ele>33.0</ele><time>2026-03-28T18:20:11Z</time></trkpt><trkpt lat="44.62711613300102" lon="10.972188759005832"><ele>33.0</ele><time>2026-03-28T18:20:12Z</time></trkpt><trkpt lat="44.627183654796085" lon="10.972032108948131"><ele>33.75</ele><time>2026-03-28T18:20:13Z</time></trkpt><trkpt lat="44.62725152954592" lon="10.97188061188025"><ele>34.5</ele><time>2026-03-28T18:20:14Z</time></trkpt><trkpt lat="44.62731671217484" lon="10.97172722257774"><ele>35.25</ele><time>2026-03-28T18:20:15Z</time></trkpt><trkpt lat="44.627379819466235" lon="10.971573648275216"><ele>36.0</ele><time>2026-03-28T18:20:16Z</time></trkpt><trkpt lat="44.62744778545744" lon="10.971420566337445"><ele>36.0</ele><time>2026-03-28T18:20:17Z</time></trkpt><trkpt lat="44.627517422764186" lon="10.971267905230604"><ele>36.0</ele><time>2026-03-28T18:20:18Z</time></trkpt><trkpt lat="44.627588036450035" lon="10.971114836349598"><ele>36.0</ele><time>2026-03-28T18:20:19Z</time></trkpt><trkpt lat="44.62765736498958" lon="10.970958051852808"><ele>36.0</ele><time>2026-03-28T18:20:20Z</time></trkpt><trkpt lat="44.627727014931736" lon="10.970798365644914"><ele>35.75</ele><time>2026-03-28T18:20:21Z</time></trkpt><trkpt lat="44.627792996257" lon="10.970640146215386"><ele>35.5</ele><time>2026-03-28T18:20:22Z</time></trkpt><trkpt lat="44.627857210197476" lon="10.970489179645194"><ele>35.25</ele><time>2026-03-28T18:20:23Z</time></trkpt><trkpt lat="44.627921947518466" lon="10.970347430861105"><ele>35.0</ele><time>2026-03-28T18:20:24Z</time></trkpt><trkpt lat="44.62798350839357" lon="10.970223573064859"><ele>35.0</ele><time>2026-03-28T18:20:25Z</time></trkpt><trkpt lat="44.62804962665488" lon="10.970113225415444"><ele>35.0</ele><time>2026-03-28T18:20:26Z</time></trkpt><trkpt lat="44.62811818314906" lon="10.970017654678584"><ele>35.0</ele><time>2026-03-28T18:20:27Z</time></trkpt><trkpt lat="44.628195926804494" lon="10.969939060703203"><ele>35.0</ele><time>2026-03-28T18:20:28Z</time></trkpt><trkpt lat="44.62827959000027" lon="10.969876443835105"><ele>35.0</ele><time>2026-03-28T18:20:29Z</time></trkpt><trkpt lat="44.62836350446785" lon="10.969830124129654"><ele>35.166666666666664</ele><time>2026-03-28T18:20:30Z</time></trkpt><trkpt lat="44.62843839030914" lon="10.969780557999199"><ele>35.33333333333333</ele><time>2026-03-28T18:20:31Z</time></trkpt><trkpt lat="44.62848687023519" lon="10.969693741175394"><ele>35.5</ele><time>2026-03-28T18:20:32Z</time></trkpt><trkpt lat="44.628492147793736" lon="10.969578228773422"><ele>35.666666666666664</ele><time>2026-03-28T18:20:33Z</time></trkpt><trkpt lat="44.62845774212645" lon="10.969454919202931"><ele>35.833333333333336</ele><time>2026-03-28T18:20:34Z</time></trkpt><trkpt lat="44.62842735886686" lon="10.969320650749383"><ele>36.0</ele><time>2026-03-28T18:20:35Z</time></trkpt><trkpt lat="44.62843859589607" lon="10.969164900666906"><ele>36.2</ele><time>2026-03-28T18:20:36Z</time></trkpt><trkpt lat="44.62848446722688" lon="10.969004402600575"><ele>36.400000000000006</ele><time>2026-03-28T18:20:37Z</time></trkpt><trkpt lat="44.62854135471044" lon="10.96885948450577"><ele>36.6</ele><time>2026-03-28T18:20:38Z</time></trkpt><trkpt lat="44.62859426309371" lon="10.968736221296169"><ele>36.800000000000004</ele><time>2026-03-28T18:20:39Z</time></trkpt><trkpt lat="44.62864688075592" lon="10.968610164190679"><ele>37.0</ele><time>2026-03-28T18:20:40Z</time></trkpt><trkpt lat="44.62870456336495" lon="10.96848201768216"><ele>36.5</ele><time>2026-03-28T18:20:41Z</time></trkpt><trkpt lat="44.62875804690167" lon="10.968354949556579"><ele>36.0</ele><time>2026-03-28T18:20:42Z</time></trkpt><trkpt lat="44.62881559838807" lon="10.968220671697352"><ele>35.5</ele><time>2026-03-28T18:20:43Z</time></trkpt><trkpt lat="44.628880873851465" lon="10.96805866280755"><ele>35.0</ele><time>2026-03-28T18:20:44Z</time></trkpt><trkpt lat="44.628955719581114" lon="10.96786583059153"><ele>35.0</ele><time>2026-03-28T18:20:45Z</time></trkpt><trkpt lat="44.629037440362055" lon="10.967678613810419"><ele>35.0</ele><time>2026-03-28T18:20:46Z</time></trkpt><trkpt lat="44.62911494533581" lon="10.967491083260041"><ele>35.0</ele><time>2026-03-28T18:20:47Z</time></trkpt><trkpt lat="44.629200547788265" lon="10.967290539433025"><ele>34.666666666666664</ele><time>2026-03-28T18:20:48Z</time></trkpt><trkpt lat="44.62929823048268" lon="10.967046159250337"><ele>34.333333333333336</ele><time>2026-03-28T18:20:49Z</time></trkpt><trkpt lat="44.62940557781806" lon="10.96680849107944"><ele>34.0</ele><time>2026-03-28T18:20:50Z</time></trkpt><trkpt lat="44.62950801843936" lon="10.96659143138067"><ele>34.75</ele><time>2026-03-28T18:20:51Z</time></trkpt><trkpt lat="44.629589358229424" lon="10.96641537814845"><ele>35.5</ele><time>2026-03-28T18:20:52Z</time></trkpt><trkpt lat="44.62965404507436" lon="10.96626150483523"><ele>36.25</ele><time>2026-03-28T18:20:53Z</time></trkpt><trkpt lat="44.629712185664665" lon="10.966116068874923"><ele>37.0</ele><time>2026-03-28T18:20:54Z</time></trkpt><trkpt lat="44.629768974377996" lon="10.965988527431884"><ele>37.0</ele><time>2026-03-28T18:20:55Z</time></trkpt><trkpt lat="44.62982006452768" lon="10.965872319106282"><ele>37.0</ele><time>2026-03-28T18:20:56Z</time></trkpt><trkpt lat="44.62986873762498" lon="10.965763213581038"><ele>37.0</ele><time>2026-03-28T18:20:57Z</time></trkpt><trkpt lat="44.629921341049844" lon="10.965648099535288"><ele>37.0</ele><time>2026-03-28T18:20:58Z</time></trkpt><trkpt lat="44.62997848095624" lon="10.96551561489399"><ele>37.0</ele><time>2026-03-28T18:20:59Z</time></trkpt><trkpt lat="44.630034588245984" lon="10.965378078749497"><ele>37.0</ele><time>2026-03-28T18:21:00Z</time></trkpt><trkpt lat="44.63009394243901" lon="10.965235650278917"><ele>37.0</ele><time>2026-03-28T18:21:01Z</time></trkpt><trkpt lat="44.630157908427506" lon="10.96508701512532"><ele>37.0</ele><time>2026-03-28T18:21:02Z</time></trkpt><trkpt lat="44.63022731229288" lon="10.964928898273236"><ele>37.0</ele><time>2026-03-28T18:21:03Z</time></trkpt><trkpt lat="44.63030568861251" lon="10.964746759394483"><ele>36.66666666666667</ele><time>2026-03-28T18:21:04Z</time></trkpt><trkpt lat="44.63038789630705" lon="10.96454435382281"><ele>36.333333333333336</ele><time>2026-03-28T18:21:05Z</time></trkpt><trkpt lat="44.6304808130854" lon="10.964328733144336"><ele>36.0</ele><time>2026-03-28T18:21:06Z</time></trkpt><trkpt lat="44.630566157615945" lon="10.964137502919833"><ele>35.5</ele><time>2026-03-28T18:21:07Z</time></trkpt><trkpt lat="44.63064764474443" lon="10.963965812321028"><ele>35.0</ele><time>2026-03-28T18:21:08Z</time></trkpt><trkpt lat="44.63072069724733" lon="10.963808072706913"><ele>34.5</ele><time>2026-03-28T18:21:09Z</time></trkpt><trkpt lat="44.63078719342874" lon="10.963667874219324"><ele>34.0</ele><time>2026-03-28T18:21:10Z</time></trkpt><trkpt lat="44.63084706588968" lon="10.963533503602797"><ele>34.0</ele><time>2026-03-28T18:21:11Z</time></trkpt><trkpt lat="44.630905153774506" lon="10.963394234620015"><ele>34.0</ele><time>2026-03-28T18:21:12Z</time></trkpt><trkpt lat="44.630966387376304" lon="10.963246623169583"><ele>34.0</ele><time>2026-03-28T18:21:13Z</time></trkpt><trkpt lat="44.63102925775375" lon="10.963096233133621"><ele>34.0</ele><time>2026-03-28T18:21:14Z</time></trkpt><trkpt lat="44.631091225138455" lon="10.962948990627988"><ele>34.0</ele><time>2026-03-28T18:21:15Z</time></trkpt><trkpt lat="44.631154817068214" lon="10.96279981932257"><ele>34.0</ele><time>2026-03-28T18:21:16Z</time></trkpt><trkpt lat="44.63122591984648" lon="10.962637132611214"><ele>34.0</ele><time>2026-03-28T18:21:17Z</time></trkpt><trkpt lat="44.6312992543899" lon="10.962469552416772"><ele>34.0</ele><time>2026-03-28T18:21:18Z</time></trkpt><trkpt lat="44.63137275738585" lon="10.962297706617111"><ele>33.75</ele><time>2026-03-28T18:21:19Z</time></trkpt><trkpt lat="44.63144933991705" lon="10.96212196127628"><ele>33.5</ele><time>2026-03-28T18:21:20Z</time></trkpt><trkpt lat="44.631523978681436" lon="10.961950899713854"><ele>33.25</ele><time>2026-03-28T18:21:21Z</time></trkpt><trkpt lat="44.6315998438494" lon="10.961782230283665"><ele>33.0</ele><time>2026-03-28T18:21:22Z</time></trkpt><trkpt lat="44.631671175809075" lon="10.961625265640487"><ele>32.8</ele><time>2026-03-28T18:21:23Z</time></trkpt><trkpt lat="44.6317349783595" lon="10.961493513143925"><ele>32.599999999999994</ele><time>2026-03-28T18:21:24Z</time></trkpt><trkpt lat="44.63177971951796" lon="10.961397199394328"><ele>32.400000000000006</ele><time>2026-03-28T18:21:25Z</time></trkpt><trkpt lat="44.63183010176678" lon="10.961275443059256"><ele>32.2</ele><time>2026-03-28T18:21:27Z</time></trkpt><trkpt lat="44.631887343254874" lon="10.961135190734531"><ele>32.0</ele><time>2026-03-28T18:21:29Z</time></trkpt><trkpt lat="44.63192449216114" lon="10.961048103341202"><ele>31.999999999999996</ele><time>2026-03-28T18:21:30Z</time></trkpt><trkpt lat="44.63196192669413" lon="10.960949327316879"><ele>32.0</ele><time>2026-03-28T18:21:31Z</time></trkpt><trkpt lat="44.632003398584665" lon="10.960849403128112"><ele>32.0</ele><time>2026-03-28T18:21:32Z</time></trkpt><trkpt lat="44.63203980963088" lon="10.960765360556467"><ele>32.0</ele><time>2026-03-28T18:21:33Z</time></trkpt><trkpt lat="44.632073749038405" lon="10.960682418556996"><ele>31.999999999999996</ele><time>2026-03-28T18:21:34Z</time></trkpt><trkpt lat="44.63210902561261" lon="10.960592751841165"><ele>32.0</ele><time>2026-03-28T18:21:35Z</time></trkpt><trkpt lat="44.632150625562424" lon="10.96049058935946"><ele>31.833333333333332</ele><time>2026-03-28T18:21:36Z</time></trkpt><trkpt lat="44.63219012172749" lon="10.960381789308764"><ele>31.666666666666664</ele><time>2026-03-28T18:21:37Z</time></trkpt><trkpt lat="44.63222698323563" lon="10.960276421730523"><ele>31.5</ele><time>2026-03-28T18:21:38Z</time></trkpt><trkpt lat="44.63225966620379" lon="10.960166534358311"><ele>31.333333333333336</ele><time>2026-03-28T18:21:39Z</time></trkpt><trkpt lat="44.6322914269637" lon="10.960059571719567"><ele>31.166666666666668</ele><time>2026-03-28T18:21:40Z</time></trkpt><trkpt lat="44.632320053681816" lon="10.95996950364582"><ele>31.0</ele><time>2026-03-28T18:21:41Z</time></trkpt><trkpt lat="44.63234259694323" lon="10.95988504363784"><ele>31.0</ele><time>2026-03-28T18:21:42Z</time></trkpt><trkpt lat="44.63236847392664" lon="10.959789450968717"><ele>31.0</ele><time>2026-03-28T18:21:43Z</time></trkpt><trkpt lat="44.63240136298296" lon="10.959675870599343"><ele>31.0</ele><time>2026-03-28T18:21:44Z</time></trkpt><trkpt lat="44.6324374217989" lon="10.959545852059252"><ele>31.0</ele><time>2026-03-28T18:21:45Z</time></trkpt><trkpt lat="44.632473670881396" lon="10.959402287404599"><ele>31.0</ele><time>2026-03-28T18:21:46Z</time></trkpt><trkpt lat="44.63250560834306" lon="10.959234098352598"><ele>31.25</ele><time>2026-03-28T18:21:47Z</time></trkpt><trkpt lat="44.63254228653485" lon="10.959059319899254"><ele>31.5</ele><time>2026-03-28T18:21:48Z</time></trkpt><trkpt lat="44.63257727075818" lon="10.95888410028901"><ele>31.75</ele><time>2026-03-28T18:21:49Z</time></trkpt><trkpt lat="44.63261480071461" lon="10.958705030847298"><ele>32.0</ele><time>2026-03-28T18:21:50Z</time></trkpt><trkpt lat="44.63265701867929" lon="10.958525066743698"><ele>32.5</ele><time>2026-03-28T18:21:51Z</time></trkpt><trkpt lat="44.63270742380696" lon="10.958346631162499"><ele>33.0</ele><time>2026-03-28T18:21:52Z</time></trkpt><trkpt lat="44.63275963858721" lon="10.958182834647225"><ele>33.5</ele><time>2026-03-28T18:21:53Z</time></trkpt><trkpt lat="44.632805391034054" lon="10.958037026941014"><ele>34.0</ele><time>2026-03-28T18:21:54Z</time></trkpt><trkpt lat="44.632844121196854" lon="10.95790718891788"><ele>34.0</ele><time>2026-03-28T18:21:55Z</time></trkpt><trkpt lat="44.63287990972624" lon="10.95779210898166"><ele>34.0</ele><time>2026-03-28T18:21:56Z</time></trkpt><trkpt lat="44.63291384460964" lon="10.957692680719628"><ele>34.0</ele><time>2026-03-28T18:21:57Z</time></trkpt><trkpt lat="44.63294859249526" lon="10.95760653241542"><ele>34.0</ele><time>2026-03-28T18:21:58Z</time></trkpt><trkpt lat="44.63300453804169" lon="10.95752771542398"><ele>34.0</ele><time>2026-03-28T18:22:01Z</time></trkpt><trkpt lat="44.63313389304863" lon="10.957455831707833"><ele>34.0</ele><time>2026-03-28T18:22:03Z</time></trkpt><trkpt lat="44.63321671677325" lon="10.957408779679719"><ele>34.0</ele><time>2026-03-28T18:22:04Z</time></trkpt><trkpt lat="44.633285367425906" lon="10.957338372689529"><ele>34.0</ele><time>2026-03-28T18:22:05Z</time></trkpt><trkpt lat="44.63333432820592" lon="10.957245248328212"><ele>34.0</ele><time>2026-03-28T18:22:06Z</time></trkpt><trkpt lat="44.633361711695834" lon="10.95713547253672"><ele>34.0</ele><time>2026-03-28T18:22:07Z</time></trkpt><trkpt lat="44.633358888653795" lon="10.957009879725241"><ele>34.0</ele><time>2026-03-28T18:22:08Z</time></trkpt><trkpt lat="44.63333481497243" lon="10.956896527356161"><ele>34.0</ele><time>2026-03-28T18:22:09Z</time></trkpt><trkpt lat="44.63328686266545" lon="10.956809331863248"><ele>34.0</ele><time>2026-03-28T18:22:10Z</time></trkpt><trkpt lat="44.63322897119272" lon="10.956746274613659"><ele>34.0</ele><time>2026-03-28T18:22:11Z</time></trkpt><trkpt lat="44.63311896306671" lon="10.956686098373039"><ele>34.0</ele><time>2026-03-28T18:22:13Z</time></trkpt><trkpt lat="44.63303844532056" lon="10.956675364856787"><ele>34.0</ele><time>2026-03-28T18:22:14Z</time></trkpt><trkpt lat="44.632948652621685" lon="10.956669954178892"><ele>34.0</ele><time>2026-03-28T18:22:15Z</time></trkpt><trkpt lat="44.632841461432704" lon="10.956653047151878"><ele>33.333333333333336</ele><time>2026-03-28T18:22:16Z</time></trkpt><trkpt lat="44.63270735829468" lon="10.956615440537545"><ele>32.666666666666664</ele><time>2026-03-28T18:22:17Z</time></trkpt><trkpt lat="44.632554357821085" lon="10.95653233220127"><ele>32.0</ele><time>2026-03-28T18:22:18Z</time></trkpt><trkpt lat="44.63238377186232" lon="10.956402196195873"><ele>32.0</ele><time>2026-03-28T18:22:19Z</time></trkpt><trkpt lat="44.632177681256586" lon="10.956215877415826"><ele>32.0</ele><time>2026-03-28T18:22:20Z</time></trkpt><trkpt lat="44.631962503188404" lon="10.956012369712663"><ele>32.5</ele><time>2026-03-28T18:22:21Z</time></trkpt><trkpt lat="44.63175763174955" lon="10.955814323118933"><ele>33.0</ele><time>2026-03-28T18:22:22Z</time></trkpt><trkpt lat="44.63156159839542" lon="10.95561125174997"><ele>33.0</ele><time>2026-03-28T18:22:23Z</time></trkpt><trkpt lat="44.63135696372744" lon="10.95540600895242"><ele>33.0</ele><time>2026-03-28T18:22:24Z</time></trkpt><trkpt lat="44.63113517108568" lon="10.955175656972903"><ele>33.0</ele><time>2026-03-28T18:22:25Z</time></trkpt><trkpt lat="44.63090175692732" lon="10.95491693999296"><ele>33.0</ele><time>2026-03-28T18:22:26Z</time></trkpt><trkpt lat="44.630646217426886" lon="10.954635959825184"><ele>33.0</ele><time>2026-03-28T18:22:27Z</time></trkpt><trkpt lat="44.6303883245122" lon="10.95435884568291"><ele>33.0</ele><time>2026-03-28T18:22:28Z</time></trkpt><trkpt lat="44.63014146690039" lon="10.954097514150458"><ele>32.5</ele><time>2026-03-28T18:22:29Z</time></trkpt><trkpt lat="44.62989993176548" lon="10.95383783120398"><ele>32.0</ele><time>2026-03-28T18:22:30Z</time></trkpt><trkpt lat="44.62965559381232" lon="10.953575490016231"><ele>32.5</ele><time>2026-03-28T18:22:31Z</time></trkpt><trkpt lat="44.62940592268236" lon="10.953327962998877"><ele>33.0</ele><time>2026-03-28T18:22:32Z</time></trkpt><trkpt lat="44.629157447856684" lon="10.953104770270139"><ele>33.0</ele><time>2026-03-28T18:22:33Z</time></trkpt><trkpt lat="44.62891816265097" lon="10.952900921677733"><ele>33.0</ele><time>2026-03-28T18:22:34Z</time></trkpt><trkpt lat="44.628689495143384" lon="10.952719479008932"><ele>32.0</ele><time>2026-03-28T18:22:35Z</time></trkpt><trkpt lat="44.62844492312071" lon="10.952546108037025"><ele>31.0</ele><time>2026-03-28T18:22:36Z</time></trkpt><trkpt lat="44.62818977900682" lon="10.95236011759566"><ele>32.5</ele><time>2026-03-28T18:22:37Z</time></trkpt><trkpt lat="44.62793696412223" lon="10.952169980473807"><ele>34.0</ele><time>2026-03-28T18:22:38Z</time></trkpt><trkpt lat="44.627697062546716" lon="10.952000183908682"><ele>34.0</ele><time>2026-03-28T18:22:39Z</time></trkpt><trkpt lat="44.62746608398277" lon="10.951845170851474"><ele>34.0</ele><time>2026-03-28T18:22:40Z</time></trkpt><trkpt lat="44.627246033523086" lon="10.951700542239843"><ele>34.5</ele><time>2026-03-28T18:22:41Z</time></trkpt><trkpt lat="44.62703354303916" lon="10.951567950913613"><ele>35.0</ele><time>2026-03-28T18:22:42Z</time></trkpt><trkpt lat="44.626831657325404" lon="10.951442102651477"><ele>35.0</ele><time>2026-03-28T18:22:43Z</time></trkpt><trkpt lat="44.62663657772862" lon="10.951320003846527"><ele>35.0</ele><time>2026-03-28T18:22:44Z</time></trkpt><trkpt lat="44.62644577462016" lon="10.951205507581765"><ele>35.0</ele><time>2026-03-28T18:22:45Z</time></trkpt><trkpt lat="44.62627305600397" lon="10.951092330480147"><ele>35.0</ele><time>2026-03-28T18:22:46Z</time></trkpt><trkpt lat="44.626119988836834" lon="10.950987272477121"><ele>35.0</ele><time>2026-03-28T18:22:47Z</time></trkpt><trkpt lat="44.625987066013046" lon="10.950895536866016"><ele>35.0</ele><time>2026-03-28T18:22:48Z</time></trkpt><trkpt lat="44.6258715729732" lon="10.950816224793666"><ele>35.0</ele><time>2026-03-28T18:22:49Z</time></trkpt><trkpt lat="44.62578745193491" lon="10.950756455302361"><ele>35.0</ele><time>2026-03-28T18:22:50Z</time></trkpt><trkpt lat="44.62569489801127" lon="10.950634358834042"><ele>35.0</ele><time>2026-03-28T18:22:52Z</time></trkpt><trkpt lat="44.62565812182321" lon="10.950542388072181"><ele>35.0</ele><time>2026-03-28T18:22:53Z</time></trkpt><trkpt lat="44.625613552018734" lon="10.950440705469902"><ele>35.0</ele><time>2026-03-28T18:22:54Z</time></trkpt><trkpt lat="44.62555493449969" lon="10.950350175914325"><ele>35.0</ele><time>2026-03-28T18:22:55Z</time></trkpt><trkpt lat="44.62548614436809" lon="10.95027948920557"><ele>35.0</ele><time>2026-03-28T18:22:56Z</time></trkpt><trkpt lat="44.625397400120576" lon="10.950230316091675"><ele>35.0</ele><time>2026-03-28T18:22:57Z</time></trkpt><trkpt lat="44.62529985349089" lon="10.950211248079441"><ele>35.0</ele><time>2026-03-28T18:22:58Z</time></trkpt><trkpt lat="44.625193509657535" lon="10.950206716742482"><ele>35.0</ele><time>2026-03-28T18:22:59Z</time></trkpt><trkpt lat="44.62509178216989" lon="10.950197445515052"><ele>35.0</ele><time>2026-03-28T18:23:00Z</time></trkpt><trkpt lat="44.62500159176612" lon="10.95015321528004"><ele>35.0</ele><time>2026-03-28T18:23:01Z</time></trkpt><trkpt lat="44.62491593532421" lon="10.950069759467056"><ele>35.0</ele><time>2026-03-28T18:23:02Z</time></trkpt><trkpt lat="44.62483076181644" lon="10.949957032802061"><ele>35.0</ele><time>2026-03-28T18:23:03Z</time></trkpt><trkpt lat="44.62474680633063" lon="10.94980819831962"><ele>35.0</ele><time>2026-03-28T18:23:04Z</time></trkpt><trkpt lat="44.624655986826546" lon="10.94961081020196"><ele>35.0</ele><time>2026-03-28T18:23:05Z</time></trkpt><trkpt lat="44.62455941942814" lon="10.949391011092608"><ele>35.0</ele><time>2026-03-28T18:23:06Z</time></trkpt><trkpt lat="44.62444120134323" lon="10.949159898045249"><ele>35.0</ele><time>2026-03-28T18:23:07Z</time></trkpt><trkpt lat="44.62430815851533" lon="10.948901650352335"><ele>34.5</ele><time>2026-03-28T18:23:08Z</time></trkpt><trkpt lat="44.624170333663805" lon="10.948641878579647"><ele>34.0</ele><time>2026-03-28T18:23:09Z</time></trkpt><trkpt lat="44.62401655614958" lon="10.9483836946115"><ele>34.0</ele><time>2026-03-28T18:23:10Z</time></trkpt><trkpt lat="44.62383192998016" lon="10.948127577755805"><ele>34.0</ele><time>2026-03-28T18:23:11Z</time></trkpt><trkpt lat="44.62362166379967" lon="10.94786806596197"><ele>34.0</ele><time>2026-03-28T18:23:12Z</time></trkpt><trkpt lat="44.62340817406908" lon="10.947605474435669"><ele>34.0</ele><time>2026-03-28T18:23:13Z</time></trkpt><trkpt lat="44.62320391583512" lon="10.947346984044351"><ele>34.0</ele><time>2026-03-28T18:23:14Z</time></trkpt><trkpt lat="44.62300837099129" lon="10.947101734379256"><ele>34.0</ele><time>2026-03-28T18:23:15Z</time></trkpt><trkpt lat="44.622812202497535" lon="10.946875467677396"><ele>33.5</ele><time>2026-03-28T18:23:16Z</time></trkpt><trkpt lat="44.622618174325595" lon="10.946666274698197"><ele>33.0</ele><time>2026-03-28T18:23:17Z</time></trkpt><trkpt lat="44.622434194912636" lon="10.946470424649897"><ele>33.0</ele><time>2026-03-28T18:23:18Z</time></trkpt><trkpt lat="44.622263377475534" lon="10.946284801053"><ele>33.0</ele><time>2026-03-28T18:23:19Z</time></trkpt><trkpt lat="44.62210313443362" lon="10.94610999450211"><ele>33.0</ele><time>2026-03-28T18:23:20Z</time></trkpt><trkpt lat="44.62194752777716" lon="10.945944034039297"><ele>33.666666666666664</ele><time>2026-03-28T18:23:21Z</time></trkpt><trkpt lat="44.62178884066356" lon="10.94578047547141"><ele>34.33333333333333</ele><time>2026-03-28T18:23:22Z</time></trkpt><trkpt lat="44.621629902838365" lon="10.945615468963155"><ele>35.0</ele><time>2026-03-28T18:23:23Z</time></trkpt><trkpt lat="44.62146832495026" lon="10.945449513606128"><ele>35.0</ele><time>2026-03-28T18:23:24Z</time></trkpt><trkpt lat="44.62130944903378" lon="10.945287631394542"><ele>35.0</ele><time>2026-03-28T18:23:25Z</time></trkpt><trkpt lat="44.62115106391008" lon="10.945124458185607"><ele>35.0</ele><time>2026-03-28T18:23:26Z</time></trkpt><trkpt lat="44.62099063930949" lon="10.944960532036424"><ele>34.33333333333333</ele><time>2026-03-28T18:23:27Z</time></trkpt><trkpt lat="44.62082683832182" lon="10.944795462085047"><ele>33.666666666666664</ele><time>2026-03-28T18:23:28Z</time></trkpt><trkpt lat="44.62065834314823" lon="10.944634342670264"><ele>33.0</ele><time>2026-03-28T18:23:29Z</time></trkpt><trkpt lat="44.62046782246485" lon="10.9444683759932"><ele>33.5</ele><time>2026-03-28T18:23:30Z</time></trkpt><trkpt lat="44.62027714163134" lon="10.944291539920615"><ele>34.0</ele><time>2026-03-28T18:23:31Z</time></trkpt><trkpt lat="44.62009261131608" lon="10.944094175488747"><ele>34.0</ele><time>2026-03-28T18:23:32Z</time></trkpt><trkpt lat="44.619894152912636" lon="10.94385543918268"><ele>34.0</ele><time>2026-03-28T18:23:33Z</time></trkpt><trkpt lat="44.61967201376688" lon="10.943610902045117"><ele>36.0</ele><time>2026-03-28T18:23:34Z</time></trkpt><trkpt lat="44.619414331719504" lon="10.943377424795807"><ele>38.0</ele><time>2026-03-28T18:23:35Z</time></trkpt><trkpt lat="44.61916173345368" lon="10.943129174486977"><ele>38.0</ele><time>2026-03-28T18:23:36Z</time></trkpt><trkpt lat="44.61891622206097" lon="10.942860988939334"><ele>38.0</ele><time>2026-03-28T18:23:37Z</time></trkpt><trkpt lat="44.618673591209934" lon="10.942604231316652"><ele>38.5</ele><time>2026-03-28T18:23:38Z</time></trkpt><trkpt lat="44.61844060568104" lon="10.942364937342282"><ele>39.0</ele><time>2026-03-28T18:23:39Z</time></trkpt><trkpt lat="44.618219890323395" lon="10.942140369376226"><ele>39.0</ele><time>2026-03-28T18:23:40Z</time></trkpt><trkpt lat="44.618007159434605" lon="10.941926031876635"><ele>39.0</ele><time>2026-03-28T18:23:41Z</time></trkpt><trkpt lat="44.617807082566344" lon="10.941717047689794"><ele>39.0</ele><time>2026-03-28T18:23:42Z</time></trkpt><trkpt lat="44.617614160041136" lon="10.941515659857254"><ele>39.0</ele><time>2026-03-28T18:23:43Z</time></trkpt><trkpt lat="44.61742719220648" lon="10.941294217919731"><ele>39.0</ele><time>2026-03-28T18:23:44Z</time></trkpt><trkpt lat="44.61724580029091" lon="10.941050183037696"><ele>39.0</ele><time>2026-03-28T18:23:45Z</time></trkpt><trkpt lat="44.617066584283876" lon="10.940801721292578"><ele>38.0</ele><time>2026-03-28T18:23:46Z</time></trkpt><trkpt lat="44.616887403139" lon="10.940556639994773"><ele>37.0</ele><time>2026-03-28T18:23:47Z</time></trkpt><trkpt lat="44.616714971270156" lon="10.940319871909285"><ele>37.0</ele><time>2026-03-28T18:23:48Z</time></trkpt><trkpt lat="44.61655103931201" lon="10.940090920354931"><ele>37.0</ele><time>2026-03-28T18:23:49Z</time></trkpt><trkpt lat="44.616390291675216" lon="10.939866830030754"><ele>37.5</ele><time>2026-03-28T18:23:50Z</time></trkpt><trkpt lat="44.61622951844908" lon="10.939646668601997"><ele>38.0</ele><time>2026-03-28T18:23:51Z</time></trkpt><trkpt lat="44.616065991086764" lon="10.939425901333715"><ele>37.666666666666664</ele><time>2026-03-28T18:23:52Z</time></trkpt><trkpt lat="44.61591636333479" lon="10.939208509355566"><ele>37.333333333333336</ele><time>2026-03-28T18:23:53Z</time></trkpt><trkpt lat="44.615782152817395" lon="10.939015321416855"><ele>37.0</ele><time>2026-03-28T18:23:54Z</time></trkpt><trkpt lat="44.61565554257828" lon="10.938832579787528"><ele>37.0</ele><time>2026-03-28T18:23:55Z</time></trkpt><trkpt lat="44.615536735171716" lon="10.938659845773019"><ele>37.0</ele><time>2026-03-28T18:23:56Z</time></trkpt><trkpt lat="44.61541940849429" lon="10.93849116005898"><ele>37.0</ele><time>2026-03-28T18:23:57Z</time></trkpt><trkpt lat="44.615307181430865" lon="10.938332852841832"><ele>37.0</ele><time>2026-03-28T18:23:58Z</time></trkpt><trkpt lat="44.61519843305499" lon="10.938179507813906"><ele>37.0</ele><time>2026-03-28T18:23:59Z</time></trkpt><trkpt lat="44.61509039578067" lon="10.938024107344582"><ele>37.0</ele><time>2026-03-28T18:24:00Z</time></trkpt><trkpt lat="44.614986196756206" lon="10.937876045223863"><ele>37.0</ele><time>2026-03-28T18:24:01Z</time></trkpt><trkpt lat="44.614889794215664" lon="10.937736855416958"><ele>37.0</ele><time>2026-03-28T18:24:02Z</time></trkpt><trkpt lat="44.61480150800442" lon="10.937608158056488"><ele>37.0</ele><time>2026-03-28T18:24:03Z</time></trkpt><trkpt lat="44.61471830523949" lon="10.93749022517356"><ele>37.0</ele><time>2026-03-28T18:24:04Z</time></trkpt><trkpt lat="44.61463757261779" lon="10.937385248126846"><ele>37.2</ele><time>2026-03-28T18:24:05Z</time></trkpt><trkpt lat="44.61455845565641" lon="10.93730353313904"><ele>37.400000000000006</ele><time>2026-03-28T18:24:06Z</time></trkpt><trkpt lat="44.61447981174791" lon="10.937227255777236"><ele>37.599999999999994</ele><time>2026-03-28T18:24:07Z</time></trkpt><trkpt lat="44.614403564791175" lon="10.937162515885625"><ele>37.8</ele><time>2026-03-28T18:24:08Z</time></trkpt><trkpt lat="44.61433011178021" lon="10.937101317318286"><ele>38.0</ele><time>2026-03-28T18:24:09Z</time></trkpt><trkpt lat="44.61425498332125" lon="10.93704533597151"><ele>38.0</ele><time>2026-03-28T18:24:10Z</time></trkpt><trkpt lat="44.614187596177864" lon="10.936992095834626"><ele>38.0</ele><time>2026-03-28T18:24:11Z</time></trkpt><trkpt lat="44.61413514092299" lon="10.93693131904235"><ele>38.0</ele><time>2026-03-28T18:24:12Z</time></trkpt><trkpt lat="44.61409573037208" lon="10.936843799555431"><ele>38.0</ele><time>2026-03-28T18:24:13Z</time></trkpt><trkpt lat="44.614080857607554" lon="10.93675718161778"><ele>38.0</ele><time>2026-03-28T18:24:14Z</time></trkpt><trkpt lat="44.61408035946542" lon="10.936667711210827"><ele>38.0</ele><time>2026-03-28T18:24:15Z</time></trkpt><trkpt lat="44.61409432424725" lon="10.936581394349773"><ele>38.0</ele><time>2026-03-28T18:24:16Z</time></trkpt><trkpt lat="44.61411277224468" lon="10.936491130897391"><ele>37.83333333333333</ele><time>2026-03-28T18:24:17Z</time></trkpt><trkpt lat="44.61413870008437" lon="10.936396498361018"><ele>37.666666666666664</ele><time>2026-03-28T18:24:18Z</time></trkpt><trkpt lat="44.61414313054315" lon="10.936292012976644"><ele>37.5</ele><time>2026-03-28T18:24:19Z</time></trkpt><trkpt lat="44.61421240650217" lon="10.936200256430233"><ele>37.333333333333336</ele><time>2026-03-28T18:24:20Z</time></trkpt><trkpt lat="44.61425788175216" lon="10.936100391758812"><ele>37.16666666666667</ele><time>2026-03-28T18:24:21Z</time></trkpt><trkpt lat="44.614310983138665" lon="10.936001163923464"><ele>37.0</ele><time>2026-03-28T18:24:22Z</time></trkpt><trkpt lat="44.61436782295859" lon="10.935903650358258"><ele>37.25</ele><time>2026-03-28T18:24:23Z</time></trkpt><trkpt lat="44.61442765744237" lon="10.93580080631128"><ele>37.5</ele><time>2026-03-28T18:24:24Z</time></trkpt><trkpt lat="44.6145182474206" lon="10.935658804841228"><ele>37.75</ele><time>2026-03-28T18:24:25Z</time></trkpt><trkpt lat="44.6146208013657" lon="10.935511512339863"><ele>38.0</ele><time>2026-03-28T18:24:26Z</time></trkpt><trkpt lat="44.61474615651084" lon="10.935360720083917"><ele>37.5</ele><time>2026-03-28T18:24:27Z</time></trkpt><trkpt lat="44.614879332381484" lon="10.935231145775766"><ele>37.0</ele><time>2026-03-28T18:24:28Z</time></trkpt><trkpt lat="44.61500540920053" lon="10.935162880276778"><ele>36.5</ele><time>2026-03-28T18:24:29Z</time></trkpt><trkpt lat="44.61507741139433" lon="10.935051519478602"><ele>36.0</ele><time>2026-03-28T18:24:30Z</time></trkpt><trkpt lat="44.615191098440896" lon="10.934827455394649"><ele>35.8</ele><time>2026-03-28T18:24:31Z</time></trkpt><trkpt lat="44.61528153282831" lon="10.934732913468332"><ele>35.6</ele><time>2026-03-28T18:24:32Z</time></trkpt><trkpt lat="44.6153747744632" lon="10.934672950451734"><ele>35.4</ele><time>2026-03-28T18:24:33Z</time></trkpt><trkpt lat="44.615468373324624" lon="10.93463593029536"><ele>35.2</ele><time>2026-03-28T18:24:34Z</time></trkpt><trkpt lat="44.61556016660257" lon="10.934604785507897"><ele>35.0</ele><time>2026-03-28T18:24:35Z</time></trkpt><trkpt lat="44.61564567528242" lon="10.934588609748776"><ele>35.0</ele><time>2026-03-28T18:24:36Z</time></trkpt><trkpt lat="44.6157189813549" lon="10.934569004029612"><ele>35.0</ele><time>2026-03-28T18:24:37Z</time></trkpt><trkpt lat="44.61578211513797" lon="10.934504979280424"><ele>35.0</ele><time>2026-03-28T18:24:38Z</time></trkpt><trkpt lat="44.61582623832418" lon="10.934387304650564"><ele>35.0</ele><time>2026-03-28T18:24:39Z</time></trkpt><trkpt lat="44.615866199807776" lon="10.934236857957076"><ele>35.0</ele><time>2026-03-28T18:24:40Z</time></trkpt><trkpt lat="44.61590507799316" lon="10.934063748560138"><ele>35.0</ele><time>2026-03-28T18:24:41Z</time></trkpt><trkpt lat="44.61601974323609" lon="10.933913830128603"><ele>35.0</ele><time>2026-03-28T18:24:42Z</time></trkpt><trkpt lat="44.61612727587388" lon="10.93374285991115"><ele>35.0</ele><time>2026-03-28T18:24:43Z</time></trkpt><trkpt lat="44.61627302800588" lon="10.93361273845754"><ele>35.33333333333333</ele><time>2026-03-28T18:24:44Z</time></trkpt><trkpt lat="44.61641095609957" lon="10.933471353647397"><ele>35.666666666666664</ele><time>2026-03-28T18:24:45Z</time></trkpt><trkpt lat="44.61653903436006" lon="10.933323399252192"><ele>36.0</ele><time>2026-03-28T18:24:46Z</time></trkpt><trkpt lat="44.61666434128446" lon="10.933197769968949"><ele>36.5</ele><time>2026-03-28T18:24:47Z</time></trkpt><trkpt lat="44.61678534810575" lon="10.933074672915492"><ele>37.0</ele><time>2026-03-28T18:24:48Z</time></trkpt><trkpt lat="44.61690185557369" lon="10.932950920267027"><ele>37.5</ele><time>2026-03-28T18:24:49Z</time></trkpt><trkpt lat="44.61703100376622" lon="10.932836116102946"><ele>38.0</ele><time>2026-03-28T18:24:50Z</time></trkpt><trkpt lat="44.61717608568812" lon="10.932682409115468"><ele>37.666666666666664</ele><time>2026-03-28T18:24:51Z</time></trkpt><trkpt lat="44.61731193880837" lon="10.9325116678172"><ele>37.333333333333336</ele><time>2026-03-28T18:24:52Z</time></trkpt><trkpt lat="44.61743948843237" lon="10.932385037597337"><ele>37.0</ele><time>2026-03-28T18:24:53Z</time></trkpt><trkpt lat="44.61755286096177" lon="10.93226629497819"><ele>37.0</ele><time>2026-03-28T18:24:54Z</time></trkpt><trkpt lat="44.61765156104702" lon="10.932159021356785"><ele>37.0</ele><time>2026-03-28T18:24:55Z</time></trkpt><trkpt lat="44.61774351003277" lon="10.93206479259109"><ele>37.0</ele><time>2026-03-28T18:24:56Z</time></trkpt><trkpt lat="44.61782970584145" lon="10.931980448706277"><ele>37.0</ele><time>2026-03-28T18:24:57Z</time></trkpt><trkpt lat="44.61792351407848" lon="10.93190391221547"><ele>37.333333333333336</ele><time>2026-03-28T18:24:58Z</time></trkpt><trkpt lat="44.6180063067974" lon="10.931825930435087"><ele>37.66666666666667</ele><time>2026-03-28T18:24:59Z</time></trkpt><trkpt lat="44.618072855436345" lon="10.931764518884252"><ele>38.0</ele><time>2026-03-28T18:25:00Z</time></trkpt><trkpt lat="44.618152630118445" lon="10.931692785006387"><ele>38.333333333333336</ele><time>2026-03-28T18:25:02Z</time></trkpt><trkpt lat="44.618212416912975" lon="10.931637952316702"><ele>38.666666666666664</ele><time>2026-03-28T18:25:07Z</time></trkpt><trkpt lat="44.61828172052298" lon="10.931631032611273"><ele>39.0</ele><time>2026-03-28T18:25:08Z</time></trkpt><trkpt lat="44.61836343549245" lon="10.931667830948658"><ele>39.0</ele><time>2026-03-28T18:25:09Z</time></trkpt><trkpt lat="44.618438606487985" lon="10.931595466747273"><ele>39.0</ele><time>2026-03-28T18:25:10Z</time></trkpt><trkpt lat="44.618458480752274" lon="10.931437581178605"><ele>39.0</ele><time>2026-03-28T18:25:11Z</time></trkpt><trkpt lat="44.61846139645363" lon="10.931280033891353"><ele>39.0</ele><time>2026-03-28T18:25:12Z</time></trkpt><trkpt lat="44.618551523419214" lon="10.9311916077989"><ele>39.0</ele><time>2026-03-28T18:25:13Z</time></trkpt><trkpt lat="44.61863143868732" lon="10.93107634653594"><ele>39.0</ele><time>2026-03-28T18:25:14Z</time></trkpt><trkpt lat="44.61877821803956" lon="10.93107501140328"><ele>39.0</ele><time>2026-03-28T18:25:15Z</time></trkpt><trkpt lat="44.61892287639429" lon="10.931001596622375"><ele>39.0</ele><time>2026-03-28T18:25:16Z</time></trkpt><trkpt lat="44.61905733157584" lon="10.930873268845836"><ele>39.0</ele><time>2026-03-28T18:25:17Z</time></trkpt><trkpt lat="44.619197361375" lon="10.93075103194076"><ele>39.0</ele><time>2026-03-28T18:25:18Z</time></trkpt><trkpt lat="44.6193419925746" lon="10.93061178921232"><ele>39.0</ele><time>2026-03-28T18:25:19Z</time></trkpt><trkpt lat="44.61949257174713" lon="10.930467611938141"><ele>39.0</ele><time>2026-03-28T18:25:20Z</time></trkpt><trkpt lat="44.61964747921821" lon="10.930326737358225"><ele>39.0</ele><time>2026-03-28T18:25:21Z</time></trkpt><trkpt lat="44.61980425087055" lon="10.930184017926294"><ele>39.0</ele><time>2026-03-28T18:25:22Z</time></trkpt><trkpt lat="44.61995659904491" lon="10.930045818726592"><ele>39.0</ele><time>2026-03-28T18:25:23Z</time></trkpt><trkpt lat="44.620101432992286" lon="10.929913867590319"><ele>39.0</ele><time>2026-03-28T18:25:24Z</time></trkpt><trkpt lat="44.62024260129512" lon="10.92978350280865"><ele>39.0</ele><time>2026-03-28T18:25:25Z</time></trkpt><trkpt lat="44.62037956522274" lon="10.929656628457767"><ele>38.333333333333336</ele><time>2026-03-28T18:25:26Z</time></trkpt><trkpt lat="44.62051438669991" lon="10.92953998110337"><ele>37.66666666666667</ele><time>2026-03-28T18:25:27Z</time></trkpt><trkpt lat="44.620646684534144" lon="10.929425033131249"><ele>37.0</ele><time>2026-03-28T18:25:28Z</time></trkpt><trkpt lat="44.62078116055501" lon="10.92930981232726"><ele>36.66666666666667</ele><time>2026-03-28T18:25:29Z</time></trkpt><trkpt lat="44.62091466626453" lon="10.929195050078555"><ele>36.333333333333336</ele><time>2026-03-28T18:25:30Z</time></trkpt><trkpt lat="44.62104592876649" lon="10.929086416885701"><ele>36.0</ele><time>2026-03-28T18:25:31Z</time></trkpt><trkpt lat="44.62117396247581" lon="10.928976476133986"><ele>36.5</ele><time>2026-03-28T18:25:32Z</time></trkpt><trkpt lat="44.62130372949231" lon="10.928860210148112"><ele>37.0</ele><time>2026-03-28T18:25:33Z</time></trkpt><trkpt lat="44.62141734815405" lon="10.928750895349081"><ele>37.5</ele><time>2026-03-28T18:25:34Z</time></trkpt><trkpt lat="44.62152424388129" lon="10.92864318535509"><ele>38.0</ele><time>2026-03-28T18:25:35Z</time></trkpt><trkpt lat="44.62162351594747" lon="10.928534640237467"><ele>38.0</ele><time>2026-03-28T18:25:36Z</time></trkpt><trkpt lat="44.62170605141164" lon="10.928424290870607"><ele>38.0</ele><time>2026-03-28T18:25:37Z</time></trkpt><trkpt lat="44.62178116632849" lon="10.928320258324261"><ele>38.0</ele><time>2026-03-28T18:25:38Z</time></trkpt><trkpt lat="44.62186020252618" lon="10.928220322678163"><ele>38.0</ele><time>2026-03-28T18:25:39Z</time></trkpt><trkpt lat="44.62194352134196" lon="10.928123624019507"><ele>38.0</ele><time>2026-03-28T18:25:40Z</time></trkpt><trkpt lat="44.6220346811912" lon="10.928031222267254"><ele>38.25</ele><time>2026-03-28T18:25:41Z</time></trkpt><trkpt lat="44.62213263427919" lon="10.927953357916063"><ele>38.5</ele><time>2026-03-28T18:25:42Z</time></trkpt><trkpt lat="44.62225204061628" lon="10.927892558932724"><ele>38.75</ele><time>2026-03-28T18:25:43Z</time></trkpt><trkpt lat="44.62237755845575" lon="10.927813967747284"><ele>39.0</ele><time>2026-03-28T18:25:44Z</time></trkpt><trkpt lat="44.62251532368186" lon="10.927810077847809"><ele>39.0</ele><time>2026-03-28T18:25:45Z</time></trkpt><trkpt lat="44.622636745401884" lon="10.92776691828849"><ele>39.0</ele><time>2026-03-28T18:25:46Z</time></trkpt><trkpt lat="44.62275558267418" lon="10.927725500639445"><ele>39.0</ele><time>2026-03-28T18:25:47Z</time></trkpt><trkpt lat="44.62286708133103" lon="10.927685374236248"><ele>39.0</ele><time>2026-03-28T18:25:48Z</time></trkpt><trkpt lat="44.622964740457554" lon="10.927637638554252"><ele>38.833333333333336</ele><time>2026-03-28T18:25:49Z</time></trkpt><trkpt lat="44.6230463235137" lon="10.927583705704508"><ele>38.666666666666664</ele><time>2026-03-28T18:25:50Z</time></trkpt><trkpt lat="44.623119383015414" lon="10.927531858978847"><ele>38.5</ele><time>2026-03-28T18:25:51Z</time></trkpt><trkpt lat="44.62319175148635" lon="10.92749380980241"><ele>38.33333333333333</ele><time>2026-03-28T18:25:52Z</time></trkpt><trkpt lat="44.623261745406566" lon="10.927443321192602"><ele>38.166666666666664</ele><time>2026-03-28T18:25:53Z</time></trkpt><trkpt lat="44.623331666289474" lon="10.927398469305986"><ele>38.0</ele><time>2026-03-28T18:25:54Z</time></trkpt><trkpt lat="44.62340489062865" lon="10.927351905206589"><ele>38.0</ele><time>2026-03-28T18:25:55Z</time></trkpt><trkpt lat="44.62347297212641" lon="10.927314387534288"><ele>38.0</ele><time>2026-03-28T18:25:56Z</time></trkpt><trkpt lat="44.62353902627884" lon="10.927274326419194"><ele>38.0</ele><time>2026-03-28T18:25:57Z</time></trkpt><trkpt lat="44.62360006690504" lon="10.92723544847648"><ele>38.0</ele><time>2026-03-28T18:25:58Z</time></trkpt><trkpt lat="44.62366588767842" lon="10.927201059663222"><ele>38.0</ele><time>2026-03-28T18:25:59Z</time></trkpt><trkpt lat="44.6237672511917" lon="10.92714734583644"><ele>38.0</ele><time>2026-03-28T18:26:01Z</time></trkpt><trkpt lat="44.623848620023224" lon="10.927108261762056"><ele>37.8</ele><time>2026-03-28T18:26:03Z</time></trkpt><trkpt lat="44.62395484364316" lon="10.927100845479334"><ele>37.599999999999994</ele><time>2026-03-28T18:26:05Z</time></trkpt><trkpt lat="44.6240338308783" lon="10.92709633615533"><ele>37.400000000000006</ele><time>2026-03-28T18:26:06Z</time></trkpt><trkpt lat="44.62412895691191" lon="10.927097428198739"><ele>37.2</ele><time>2026-03-28T18:26:07Z</time></trkpt><trkpt lat="44.624235129802734" lon="10.927114109201527"><ele>37.0</ele><time>2026-03-28T18:26:08Z</time></trkpt><trkpt lat="44.62436100162487" lon="10.92713304864881"><ele>37.0</ele><time>2026-03-28T18:26:09Z</time></trkpt><trkpt lat="44.62450570666404" lon="10.92714155852239"><ele>37.0</ele><time>2026-03-28T18:26:10Z</time></trkpt><trkpt lat="44.62465377129111" lon="10.927151275335758"><ele>37.0</ele><time>2026-03-28T18:26:11Z</time></trkpt><trkpt lat="44.624791671852016" lon="10.927146184490319"><ele>37.0</ele><time>2026-03-28T18:26:12Z</time></trkpt><trkpt lat="44.624938689272405" lon="10.927169973216799"><ele>37.0</ele><time>2026-03-28T18:26:13Z</time></trkpt><trkpt lat="44.62511594573279" lon="10.927181624222111"><ele>37.0</ele><time>2026-03-28T18:26:14Z</time></trkpt><trkpt lat="44.625337320789654" lon="10.927196215541242"><ele>37.0</ele><time>2026-03-28T18:26:15Z</time></trkpt><trkpt lat="44.625595292452296" lon="10.927218063943865"><ele>37.333333333333336</ele><time>2026-03-28T18:26:16Z</time></trkpt><trkpt lat="44.625828336616834" lon="10.92721879653594"><ele>37.666666666666664</ele><time>2026-03-28T18:26:17Z</time></trkpt><trkpt lat="44.62603952698558" lon="10.92721571273435"><ele>38.0</ele><time>2026-03-28T18:26:18Z</time></trkpt><trkpt lat="44.626225973679716" lon="10.92719917008286"><ele>38.0</ele><time>2026-03-28T18:26:19Z</time></trkpt><trkpt lat="44.626395192804345" lon="10.927202115938435"><ele>38.0</ele><time>2026-03-28T18:26:20Z</time></trkpt><trkpt lat="44.626549796912236" lon="10.927185515218"><ele>38.0</ele><time>2026-03-28T18:26:21Z</time></trkpt><trkpt lat="44.62669111861154" lon="10.927171617812192"><ele>38.0</ele><time>2026-03-28T18:26:22Z</time></trkpt><trkpt lat="44.62679028237685" lon="10.927161877596209"><ele>38.0</ele><time>2026-03-28T18:26:23Z</time></trkpt><trkpt lat="44.626857944102696" lon="10.927155231621517"><ele>38.0</ele><time>2026-03-28T18:26:24Z</time></trkpt><trkpt lat="44.62692552112137" lon="10.927148593963572"><ele>38.0</ele><time>2026-03-28T18:26:25Z</time></trkpt><trkpt lat="44.626998658200236" lon="10.927141410271108"><ele>38.0</ele><time>2026-03-28T18:26:26Z</time></trkpt><trkpt lat="44.6270857883931" lon="10.927112763722997"><ele>38.0</ele><time>2026-03-28T18:26:27Z</time></trkpt><trkpt lat="44.62720275251918" lon="10.927102825992588"><ele>38.0</ele><time>2026-03-28T18:26:28Z</time></trkpt><trkpt lat="44.62734271792077" lon="10.927089874768143"><ele>38.0</ele><time>2026-03-28T18:26:29Z</time></trkpt><trkpt lat="44.627496174236654" lon="10.927072505202238"><ele>38.0</ele><time>2026-03-28T18:26:30Z</time></trkpt><trkpt lat="44.62764257878641" lon="10.927056475454208"><ele>38.0</ele><time>2026-03-28T18:26:31Z</time></trkpt><trkpt lat="44.62777701674326" lon="10.927066611189064"><ele>37.5</ele><time>2026-03-28T18:26:32Z</time></trkpt><trkpt lat="44.627901460477084" lon="10.927055470461777"><ele>37.0</ele><time>2026-03-28T18:26:33Z</time></trkpt><trkpt lat="44.62802201784212" lon="10.927013846830656"><ele>36.5</ele><time>2026-03-28T18:26:34Z</time></trkpt><trkpt lat="44.628128321324965" lon="10.927001413604657"><ele>36.0</ele><time>2026-03-28T18:26:35Z</time></trkpt><trkpt lat="44.62823046917636" lon="10.926995745964735"><ele>36.0</ele><time>2026-03-28T18:26:36Z</time></trkpt><trkpt lat="44.628348152375985" lon="10.926984470622644"><ele>36.0</ele><time>2026-03-28T18:26:37Z</time></trkpt><trkpt lat="44.628477574699176" lon="10.92700101523611"><ele>36.0</ele><time>2026-03-28T18:26:38Z</time></trkpt><trkpt lat="44.628605896096" lon="10.926988847439844"><ele>36.0</ele><time>2026-03-28T18:26:39Z</time></trkpt><trkpt lat="44.62872964428839" lon="10.92697711328332"><ele>36.0</ele><time>2026-03-28T18:26:40Z</time></trkpt><trkpt lat="44.62884693672437" lon="10.926944391071583"><ele>36.0</ele><time>2026-03-28T18:26:41Z</time></trkpt><trkpt lat="44.62895989640485" lon="10.926955280128183"><ele>36.0</ele><time>2026-03-28T18:26:42Z</time></trkpt><trkpt lat="44.62906981423546" lon="10.926926910923312"><ele>36.0</ele><time>2026-03-28T18:26:43Z</time></trkpt><trkpt lat="44.629177695591395" lon="10.926923913040323"><ele>36.0</ele><time>2026-03-28T18:26:44Z</time></trkpt><trkpt lat="44.629273079635496" lon="10.926909024105068"><ele>36.0</ele><time>2026-03-28T18:26:45Z</time></trkpt><trkpt lat="44.62936142713709" lon="10.926888620862726"><ele>36.0</ele><time>2026-03-28T18:26:46Z</time></trkpt><trkpt lat="44.629436617242675" lon="10.926867321429205"><ele>36.0</ele><time>2026-03-28T18:26:47Z</time></trkpt><trkpt lat="44.629511735487284" lon="10.926852310600717"><ele>36.0</ele><time>2026-03-28T18:26:48Z</time></trkpt><trkpt lat="44.62958336890417" lon="10.926839319922466"><ele>36.0</ele><time>2026-03-28T18:26:49Z</time></trkpt><trkpt lat="44.62969018803898" lon="10.926821046687989"><ele>36.4</ele><time>2026-03-28T18:26:51Z</time></trkpt><trkpt lat="44.62976557541505" lon="10.926798606226999"><ele>36.8</ele><time>2026-03-28T18:26:53Z</time></trkpt><trkpt lat="44.62984284013568" lon="10.926777299640317"><ele>37.199999999999996</ele><time>2026-03-28T18:26:54Z</time></trkpt><trkpt lat="44.62993214564476" lon="10.926753155600034"><ele>37.6</ele><time>2026-03-28T18:26:55Z</time></trkpt><trkpt lat="44.6300315179645" lon="10.926715848091819"><ele>38.0</ele><time>2026-03-28T18:26:56Z</time></trkpt><trkpt lat="44.63012878994344" lon="10.92668049421089"><ele>38.0</ele><time>2026-03-28T18:26:57Z</time></trkpt><trkpt lat="44.63023770647642" lon="10.926657018912907"><ele>38.0</ele><time>2026-03-28T18:26:58Z</time></trkpt><trkpt lat="44.63035948377284" lon="10.926631392135187"><ele>38.0</ele><time>2026-03-28T18:26:59Z</time></trkpt><trkpt lat="44.63048932503532" lon="10.926601212610324"><ele>38.0</ele><time>2026-03-28T18:27:00Z</time></trkpt><trkpt lat="44.630628302285736" lon="10.926570449791695"><ele>37.33333333333333</ele><time>2026-03-28T18:27:01Z</time></trkpt><trkpt lat="44.63077171373874" lon="10.926531993661659"><ele>36.666666666666664</ele><time>2026-03-28T18:27:02Z</time></trkpt><trkpt lat="44.63091771111476" lon="10.9264957716106"><ele>36.0</ele><time>2026-03-28T18:27:03Z</time></trkpt><trkpt lat="44.631079393768964" lon="10.926455469901736"><ele>35.0</ele><time>2026-03-28T18:27:04Z</time></trkpt><trkpt lat="44.63127937925633" lon="10.92639711802221"><ele>34.0</ele><time>2026-03-28T18:27:05Z</time></trkpt><trkpt lat="44.63153046576375" lon="10.926387808407595"><ele>34.0</ele><time>2026-03-28T18:27:06Z</time></trkpt><trkpt lat="44.63178140470734" lon="10.926325109803658"><ele>34.0</ele><time>2026-03-28T18:27:07Z</time></trkpt><trkpt lat="44.6320100353301" lon="10.92630194848263"><ele>34.333333333333336</ele><time>2026-03-28T18:27:08Z</time></trkpt><trkpt lat="44.63220645525521" lon="10.92628302834474"><ele>34.666666666666664</ele><time>2026-03-28T18:27:09Z</time></trkpt><trkpt lat="44.6323849265047" lon="10.92626635920845"><ele>35.0</ele><time>2026-03-28T18:27:10Z</time></trkpt><trkpt lat="44.63254593929693" lon="10.926255930545825"><ele>35.0</ele><time>2026-03-28T18:27:11Z</time></trkpt><trkpt lat="44.63269314239977" lon="10.926255257899248"><ele>35.0</ele><time>2026-03-28T18:27:12Z</time></trkpt><trkpt lat="44.63282979289515" lon="10.926261223243122"><ele>35.0</ele><time>2026-03-28T18:27:13Z</time></trkpt><trkpt lat="44.63295151731594" lon="10.926268033603733"><ele>35.0</ele><time>2026-03-28T18:27:14Z</time></trkpt><trkpt lat="44.633067842359104" lon="10.92628187821714"><ele>35.4</ele><time>2026-03-28T18:27:15Z</time></trkpt><trkpt lat="44.633178537857056" lon="10.926292101430933"><ele>35.8</ele><time>2026-03-28T18:27:16Z</time></trkpt><trkpt lat="44.633284772243606" lon="10.926299364569703"><ele>36.2</ele><time>2026-03-28T18:27:17Z</time></trkpt><trkpt lat="44.6333927259055" lon="10.926310952321629"><ele>36.6</ele><time>2026-03-28T18:27:18Z</time></trkpt><trkpt lat="44.633506204470436" lon="10.926313655894576"><ele>37.0</ele><time>2026-03-28T18:27:19Z</time></trkpt><trkpt lat="44.63361497368507" lon="10.926307918369703"><ele>37.2</ele><time>2026-03-28T18:27:20Z</time></trkpt><trkpt lat="44.633705891878314" lon="10.92630891703845"><ele>37.400000000000006</ele><time>2026-03-28T18:27:21Z</time></trkpt><trkpt lat="44.63378170216968" lon="10.926304200465703"><ele>37.599999999999994</ele><time>2026-03-28T18:27:22Z</time></trkpt><trkpt lat="44.633891677418404" lon="10.926290063994392"><ele>37.8</ele><time>2026-03-28T18:27:24Z</time></trkpt><trkpt lat="44.633982531071666" lon="10.92626516725942"><ele>38.0</ele><time>2026-03-28T18:27:26Z</time></trkpt><trkpt lat="44.6340683477828" lon="10.926260294694128"><ele>38.0</ele><time>2026-03-28T18:27:28Z</time></trkpt><trkpt lat="44.634159676503195" lon="10.926252722272334"><ele>38.0</ele><time>2026-03-28T18:27:30Z</time></trkpt><trkpt lat="44.63422484202528" lon="10.926248961592956"><ele>38.0</ele><time>2026-03-28T18:27:32Z</time></trkpt><trkpt lat="44.6342903460412" lon="10.926239418397824"><ele>38.0</ele><time>2026-03-28T18:27:37Z</time></trkpt><trkpt lat="44.63437078740445" lon="10.926248983595327"><ele>38.0</ele><time>2026-03-28T18:28:23Z</time></trkpt><trkpt lat="44.63444221939317" lon="10.926247574471091"><ele>38.0</ele><time>2026-03-28T18:28:24Z</time></trkpt><trkpt lat="44.634526848134705" lon="10.926247913811595"><ele>39.0</ele><time>2026-03-28T18:28:25Z</time></trkpt><trkpt lat="44.63464383051725" lon="10.926240003608815"><ele>40.0</ele><time>2026-03-28T18:28:26Z</time></trkpt><trkpt lat="44.634792979625125" lon="10.926225108417583"><ele>41.0</ele><time>2026-03-28T18:28:27Z</time></trkpt><trkpt lat="44.634979431394854" lon="10.926196875063475"><ele>41.0</ele><time>2026-03-28T18:28:28Z</time></trkpt><trkpt lat="44.63518388002623" lon="10.926171118072318"><ele>41.0</ele><time>2026-03-28T18:28:29Z</time></trkpt><trkpt lat="44.63540733732375" lon="10.926148215543272"><ele>41.0</ele><time>2026-03-28T18:28:30Z</time></trkpt><trkpt lat="44.635633283479336" lon="10.926124353231932"><ele>40.666666666666664</ele><time>2026-03-28T18:28:31Z</time></trkpt><trkpt lat="44.63585047961057" lon="10.926107856269901"><ele>40.333333333333336</ele><time>2026-03-28T18:28:32Z</time></trkpt><trkpt lat="44.636060505910045" lon="10.926097737455027"><ele>40.0</ele><time>2026-03-28T18:28:33Z</time></trkpt><trkpt lat="44.636264754856484" lon="10.926082598238638"><ele>39.66666666666667</ele><time>2026-03-28T18:28:34Z</time></trkpt><trkpt lat="44.63645845302277" lon="10.926056964111753"><ele>39.333333333333336</ele><time>2026-03-28T18:28:35Z</time></trkpt><trkpt lat="44.63664032109356" lon="10.926028377041385"><ele>39.0</ele><time>2026-03-28T18:28:36Z</time></trkpt><trkpt lat="44.63681920110208" lon="10.926000259651948"><ele>38.0</ele><time>2026-03-28T18:28:37Z</time></trkpt><trkpt lat="44.63699451844172" lon="10.925975478255422"><ele>37.0</ele><time>2026-03-28T18:28:38Z</time></trkpt><trkpt lat="44.637168417373914" lon="10.925957780340068"><ele>36.0</ele><time>2026-03-28T18:28:39Z</time></trkpt><trkpt lat="44.63735141170031" lon="10.925945478838104"><ele>36.0</ele><time>2026-03-28T18:28:40Z</time></trkpt><trkpt lat="44.63753611565618" lon="10.925937876888776"><ele>36.0</ele><time>2026-03-28T18:28:41Z</time></trkpt><trkpt lat="44.637693033423425" lon="10.925932007056106"><ele>36.0</ele><time>2026-03-28T18:28:42Z</time></trkpt><trkpt lat="44.63782935993398" lon="10.92592690748106"><ele>36.5</ele><time>2026-03-28T18:28:43Z</time></trkpt><trkpt lat="44.63795111625774" lon="10.925922352973291"><ele>37.0</ele><time>2026-03-28T18:28:44Z</time></trkpt><trkpt lat="44.63806388473541" lon="10.925912753076249"><ele>37.5</ele><time>2026-03-28T18:28:45Z</time></trkpt><trkpt lat="44.638170747332005" lon="10.92590208561729"><ele>38.0</ele><time>2026-03-28T18:28:46Z</time></trkpt><trkpt lat="44.63828533804102" lon="10.925888616740538"><ele>38.0</ele><time>2026-03-28T18:28:47Z</time></trkpt><trkpt lat="44.63841645829512" lon="10.92587177426208"><ele>38.0</ele><time>2026-03-28T18:28:48Z</time></trkpt><trkpt lat="44.6385492709142" lon="10.925849954352037"><ele>38.0</ele><time>2026-03-28T18:28:49Z</time></trkpt><trkpt lat="44.63866952791121" lon="10.925806328626564"><ele>38.0</ele><time>2026-03-28T18:28:50Z</time></trkpt><trkpt lat="44.63876771806422" lon="10.92572862071213"><ele>38.599999999999994</ele><time>2026-03-28T18:28:51Z</time></trkpt><trkpt lat="44.638837029494866" lon="10.925604382145524"><ele>39.199999999999996</ele><time>2026-03-28T18:28:52Z</time></trkpt><trkpt lat="44.63889769837203" lon="10.925467490842955"><ele>39.8</ele><time>2026-03-28T18:28:53Z</time></trkpt><trkpt lat="44.638976536157024" lon="10.925354963276027"><ele>40.4</ele><time>2026-03-28T18:28:54Z</time></trkpt><trkpt lat="44.639050829757785" lon="10.92527523544346"><ele>41.0</ele><time>2026-03-28T18:28:55Z</time></trkpt><trkpt lat="44.63912086361179" lon="10.925217472476296"><ele>41.0</ele><time>2026-03-28T18:28:56Z</time></trkpt><trkpt lat="44.63921019994388" lon="10.925185177263312"><ele>41.0</ele><time>2026-03-28T18:28:58Z</time></trkpt><trkpt lat="44.63930095165645" lon="10.925208255609403"><ele>41.0</ele><time>2026-03-28T18:29:02Z</time></trkpt><trkpt lat="44.639345078586764" lon="10.925035676863425"><ele>41.0</ele><time>2026-03-28T18:29:03Z</time></trkpt><trkpt lat="44.63938567553804" lon="10.924911860102478"><ele>41.0</ele><time>2026-03-28T18:29:04Z</time></trkpt><trkpt lat="44.63940578713521" lon="10.924770598120075"><ele>40.5</ele><time>2026-03-28T18:29:05Z</time></trkpt><trkpt lat="44.63944953734964" lon="10.92462144586869"><ele>40.0</ele><time>2026-03-28T18:29:06Z</time></trkpt><trkpt lat="44.63949439006461" lon="10.924463585571571"><ele>39.5</ele><time>2026-03-28T18:29:07Z</time></trkpt><trkpt lat="44.63953792208272" lon="10.92430463921775"><ele>39.0</ele><time>2026-03-28T18:29:08Z</time></trkpt><trkpt lat="44.63957524159329" lon="10.924155471277512"><ele>39.0</ele><time>2026-03-28T18:29:09Z</time></trkpt><trkpt lat="44.63960953134815" lon="10.924026242799437"><ele>39.0</ele><time>2026-03-28T18:29:10Z</time></trkpt><trkpt lat="44.63963608323642" lon="10.923909742700609"><ele>39.0</ele><time>2026-03-28T18:29:11Z</time></trkpt><trkpt lat="44.639679865273756" lon="10.923815675629385"><ele>39.0</ele><time>2026-03-28T18:29:12Z</time></trkpt><trkpt lat="44.63970666024546" lon="10.923722271834109"><ele>39.0</ele><time>2026-03-28T18:29:13Z</time></trkpt><trkpt lat="44.63971855140178" lon="10.923620982439282"><ele>39.0</ele><time>2026-03-28T18:29:14Z</time></trkpt><trkpt lat="44.639753196467666" lon="10.923513583473563"><ele>39.2</ele><time>2026-03-28T18:29:15Z</time></trkpt><trkpt lat="44.6397927536364" lon="10.923384143336948"><ele>39.4</ele><time>2026-03-28T18:29:16Z</time></trkpt><trkpt lat="44.63983279375121" lon="10.923237613652917"><ele>39.6</ele><time>2026-03-28T18:29:17Z</time></trkpt><trkpt lat="44.639873102156265" lon="10.92307674912376"><ele>39.8</ele><time>2026-03-28T18:29:18Z</time></trkpt><trkpt lat="44.639913942363265" lon="10.92292425392398"><ele>40.0</ele><time>2026-03-28T18:29:19Z</time></trkpt><trkpt lat="44.63994991429878" lon="10.922792073048484"><ele>40.0</ele><time>2026-03-28T18:29:20Z</time></trkpt><trkpt lat="44.639983925929" lon="10.922670959855093"><ele>40.0</ele><time>2026-03-28T18:29:21Z</time></trkpt><trkpt lat="44.64001250023309" lon="10.922561966855836"><ele>40.0</ele><time>2026-03-28T18:29:22Z</time></trkpt><trkpt lat="44.64004271815096" lon="10.922458345910325"><ele>40.0</ele><time>2026-03-28T18:29:23Z</time></trkpt><trkpt lat="44.640072693702685" lon="10.92235090481816"><ele>40.0</ele><time>2026-03-28T18:29:24Z</time></trkpt><trkpt lat="44.640100332779795" lon="10.922248278171146"><ele>40.0</ele><time>2026-03-28T18:29:25Z</time></trkpt><trkpt lat="44.6401268464418" lon="10.922145313241693"><ele>39.6</ele><time>2026-03-28T18:29:26Z</time></trkpt><trkpt lat="44.64015299177842" lon="10.92206258627134"><ele>39.2</ele><time>2026-03-28T18:29:27Z</time></trkpt><trkpt lat="44.64018500178476" lon="10.921932005759741"><ele>38.8</ele><time>2026-03-28T18:29:29Z</time></trkpt><trkpt lat="44.640186288455645" lon="10.921842915197171"><ele>38.4</ele><time>2026-03-28T18:29:39Z</time></trkpt><trkpt lat="44.640031675036184" lon="10.921760897235336"><ele>38.0</ele><time>2026-03-28T18:29:40Z</time></trkpt><trkpt lat="44.63992685370169" lon="10.921673500137715"><ele>38.0</ele><time>2026-03-28T18:29:42Z</time></trkpt><trkpt lat="44.639862889379984" lon="10.921618363111454"><ele>38.0</ele><time>2026-03-28T18:29:43Z</time></trkpt><trkpt lat="44.63979552041737" lon="10.921564139593558"><ele>38.0</ele><time>2026-03-28T18:29:44Z</time></trkpt><trkpt lat="44.63972352801963" lon="10.921510981839154"><ele>38.0</ele><time>2026-03-28T18:29:45Z</time></trkpt><trkpt lat="44.63965045594723" lon="10.921452263870224"><ele>38.0</ele><time>2026-03-28T18:29:46Z</time></trkpt><trkpt lat="44.63957289871603" lon="10.92139447072112"><ele>38.0</ele><time>2026-03-28T18:29:47Z</time></trkpt><trkpt lat="44.63949532603948" lon="10.921339032467655"><ele>38.0</ele><time>2026-03-28T18:29:48Z</time></trkpt><trkpt lat="44.639421940213786" lon="10.921282755483784"><ele>38.0</ele><time>2026-03-28T18:29:49Z</time></trkpt><trkpt lat="44.639348158424426" lon="10.921223748612583"><ele>38.0</ele><time>2026-03-28T18:29:50Z</time></trkpt><trkpt lat="44.63927730728051" lon="10.921156440507042"><ele>38.0</ele><time>2026-03-28T18:29:51Z</time></trkpt><trkpt lat="44.63921427915334" lon="10.921103217814778"><ele>38.0</ele><time>2026-03-28T18:29:52Z</time></trkpt><trkpt lat="44.639096729693975" lon="10.921009610547634"><ele>38.0</ele><time>2026-03-28T18:29:54Z</time></trkpt><trkpt lat="44.639022406869216" lon="10.920953416223876"><ele>38.0</ele><time>2026-03-28T18:29:55Z</time></trkpt><trkpt lat="44.638938269942315" lon="10.920892377955733"><ele>38.0</ele><time>2026-03-28T18:29:56Z</time></trkpt><trkpt lat="44.63885912244844" lon="10.92083625291228"><ele>38.0</ele><time>2026-03-28T18:29:57Z</time></trkpt><trkpt lat="44.638788018362725" lon="10.920778556500997"><ele>38.0</ele><time>2026-03-28T18:29:58Z</time></trkpt><trkpt lat="44.63871354686848" lon="10.920720479638938"><ele>38.0</ele><time>2026-03-28T18:29:59Z</time></trkpt><trkpt lat="44.63864345439735" lon="10.920659512452506"><ele>38.0</ele><time>2026-03-28T18:30:00Z</time></trkpt><trkpt lat="44.638574921336726" lon="10.92060046466532"><ele>38.0</ele><time>2026-03-28T18:30:01Z</time></trkpt><trkpt lat="44.6385198213454" lon="10.920543086155394"><ele>38.0</ele><time>2026-03-28T18:30:02Z</time></trkpt><trkpt lat="44.63843517026458" lon="10.92047057698"><ele>38.0</ele><time>2026-03-28T18:30:04Z</time></trkpt><trkpt lat="44.63847240961452" lon="10.92030408843758"><ele>38.0</ele><time>2026-03-28T18:30:07Z</time></trkpt><trkpt lat="44.63852820797841" lon="10.9201917229931"><ele>38.0</ele><time>2026-03-28T18:30:09Z</time></trkpt><trkpt lat="44.63856226471158" lon="10.920113323511"><ele>38.0</ele><time>2026-03-28T18:30:11Z</time></trkpt></trkseg></trk></gpx>